<?xml version='1.0' encoding='UTF-8'?><gpx version="1.1" creator="JPX - https://github.com/jenetics/jpx" xmlns="http://www.topografix.com/GPX/1/1"><trk><trkseg><trkpt lat="42.9672977" lon="13.8769909"><ele>5.0</ele><time>2026-05-02T13:40:36.466Z</time></trkpt><trkpt lat="42.9673574" lon="13.8769018"><ele>5.0</ele><time>2026-05-02T13:40:39.466Z</time></trkpt><trkpt lat="42.9673611" lon="13.8768079"><ele>5.0</ele><time>2026-05-02T13:40:41.466Z</time></trkpt><trkpt lat="42.9673237" lon="13.8767291"><ele>5.0</ele><time>2026-05-02T13:40:43.466Z</time></trkpt><trkpt lat="42.9672607" lon="13.8767143"><ele>5.0</ele><time>2026-05-02T13:40:45.465Z</time></trkpt><trkpt lat="42.9671926" lon="13.8767491"><ele>5.0</ele><time>2026-05-02T13:40:47.466Z</time></trkpt><trkpt lat="42.9671309" lon="13.8767717"><ele>5.0</ele><time>2026-05-02T13:40:49.466Z</time></trkpt><trkpt lat="42.9670453" lon="13.8768016"><ele>5.0</ele><time>2026-05-02T13:40:52.466Z</time></trkpt><trkpt lat="42.9669583" lon="13.8768289"><ele>5.0</ele><time>2026-05-02T13:40:55.466Z</time></trkpt><trkpt lat="42.9668689" lon="13.8768501"><ele>5.0</ele><time>2026-05-02T13:40:58.466Z</time></trkpt><trkpt lat="42.9667852" lon="13.8768414"><ele>5.0</ele><time>2026-05-02T13:41:01.466Z</time></trkpt><trkpt lat="42.9667471" lon="13.8767604"><ele>5.0</ele><time>2026-05-02T13:41:04.466Z</time></trkpt><trkpt lat="42.9667485" lon="13.8766737"><ele>5.0</ele><time>2026-05-02T13:41:32.467Z</time></trkpt><trkpt lat="42.9667098" lon="13.8765813"><ele>5.0</ele><time>2026-05-02T13:42:07.467Z</time></trkpt><trkpt lat="42.966677" lon="13.8764775"><ele>5.0</ele><time>2026-05-02T13:42:09.468Z</time></trkpt><trkpt lat="42.9666815" lon="13.8763501"><ele>5.0</ele><time>2026-05-02T13:42:11.467Z</time></trkpt><trkpt lat="42.9666765" lon="13.8762002"><ele>5.0</ele><time>2026-05-02T13:42:13.468Z</time></trkpt><trkpt lat="42.9666762" lon="13.8761059"><ele>5.0</ele><time>2026-05-02T13:42:14.468Z</time></trkpt><trkpt lat="42.9666768" lon="13.8760067"><ele>5.0</ele><time>2026-05-02T13:42:15.468Z</time></trkpt><trkpt lat="42.966676" lon="13.8759043"><ele>5.2</ele><time>2026-05-02T13:42:16.468Z</time></trkpt><trkpt lat="42.9666707" lon="13.8758005"><ele>5.4</ele><time>2026-05-02T13:42:17.468Z</time></trkpt><trkpt lat="42.9666684" lon="13.8756918"><ele>5.6</ele><time>2026-05-02T13:42:18.468Z</time></trkpt><trkpt lat="42.9666665" lon="13.8755803"><ele>5.8</ele><time>2026-05-02T13:42:19.468Z</time></trkpt><trkpt lat="42.9666624" lon="13.8754616"><ele>6.0</ele><time>2026-05-02T13:42:20.468Z</time></trkpt><trkpt lat="42.9666539" lon="13.8752333"><ele>6.0</ele><time>2026-05-02T13:42:22.468Z</time></trkpt><trkpt lat="42.9666495" lon="13.8751156"><ele>6.0</ele><time>2026-05-02T13:42:23.467Z</time></trkpt><trkpt lat="42.9666426" lon="13.8749877"><ele>6.0</ele><time>2026-05-02T13:42:24.468Z</time></trkpt><trkpt lat="42.9666353" lon="13.874861"><ele>6.0</ele><time>2026-05-02T13:42:25.468Z</time></trkpt><trkpt lat="42.9666304" lon="13.8747373"><ele>6.0</ele><time>2026-05-02T13:42:26.468Z</time></trkpt><trkpt lat="42.9666273" lon="13.874617"><ele>5.833333333333333</ele><time>2026-05-02T13:42:27.468Z</time></trkpt><trkpt lat="42.9666245" lon="13.8744972"><ele>5.666666666666667</ele><time>2026-05-02T13:42:28.468Z</time></trkpt><trkpt lat="42.9666196" lon="13.8743737"><ele>5.5</ele><time>2026-05-02T13:42:29.468Z</time></trkpt><trkpt lat="42.9666147" lon="13.8742536"><ele>5.333333333333334</ele><time>2026-05-02T13:42:30.468Z</time></trkpt><trkpt lat="42.9666089" lon="13.8741306"><ele>5.166666666666667</ele><time>2026-05-02T13:42:31.468Z</time></trkpt><trkpt lat="42.9666007" lon="13.8740078"><ele>5.0</ele><time>2026-05-02T13:42:32.468Z</time></trkpt><trkpt lat="42.9665905" lon="13.8738822"><ele>5.0</ele><time>2026-05-02T13:42:33.468Z</time></trkpt><trkpt lat="42.9665783" lon="13.8737523"><ele>5.0</ele><time>2026-05-02T13:42:34.468Z</time></trkpt><trkpt lat="42.9665687" lon="13.8736232"><ele>5.0</ele><time>2026-05-02T13:42:35.467Z</time></trkpt><trkpt lat="42.9665626" lon="13.8735046"><ele>5.0</ele><time>2026-05-02T13:42:36.468Z</time></trkpt><trkpt lat="42.9665587" lon="13.8733968"><ele>5.0</ele><time>2026-05-02T13:42:37.468Z</time></trkpt><trkpt lat="42.9665536" lon="13.8733062"><ele>5.0</ele><time>2026-05-02T13:42:38.467Z</time></trkpt><trkpt lat="42.9665512" lon="13.8731978"><ele>5.333333333333334</ele><time>2026-05-02T13:42:40.468Z</time></trkpt><trkpt lat="42.9665488" lon="13.8730979"><ele>5.666666666666667</ele><time>2026-05-02T13:42:44.468Z</time></trkpt><trkpt lat="42.9664831" lon="13.8730238"><ele>6.0</ele><time>2026-05-02T13:42:57.468Z</time></trkpt><trkpt lat="42.966361" lon="13.8730282"><ele>6.333333333333334</ele><time>2026-05-02T13:42:59.468Z</time></trkpt><trkpt lat="42.9662886" lon="13.8730429"><ele>6.666666666666667</ele><time>2026-05-02T13:43:00.468Z</time></trkpt><trkpt lat="42.9662118" lon="13.873055"><ele>7.0</ele><time>2026-05-02T13:43:01.468Z</time></trkpt><trkpt lat="42.9661326" lon="13.8730637"><ele>7.0</ele><time>2026-05-02T13:43:02.468Z</time></trkpt><trkpt lat="42.9660418" lon="13.8730686"><ele>6.999999999999999</ele><time>2026-05-02T13:43:03.467Z</time></trkpt><trkpt lat="42.9659407" lon="13.8730745"><ele>6.999999999999999</ele><time>2026-05-02T13:43:04.468Z</time></trkpt><trkpt lat="42.9658438" lon="13.8730836"><ele>7.0</ele><time>2026-05-02T13:43:05.468Z</time></trkpt><trkpt lat="42.9657468" lon="13.8730961"><ele>7.0</ele><time>2026-05-02T13:43:06.467Z</time></trkpt><trkpt lat="42.9656505" lon="13.8731119"><ele>6.6</ele><time>2026-05-02T13:43:07.468Z</time></trkpt><trkpt lat="42.965549" lon="13.8731316"><ele>6.199999999999999</ele><time>2026-05-02T13:43:08.468Z</time></trkpt><trkpt lat="42.965446" lon="13.8731544"><ele>5.8</ele><time>2026-05-02T13:43:09.468Z</time></trkpt><trkpt lat="42.9653447" lon="13.8731773"><ele>5.4</ele><time>2026-05-02T13:43:10.467Z</time></trkpt><trkpt lat="42.9652422" lon="13.8731961"><ele>5.0</ele><time>2026-05-02T13:43:11.469Z</time></trkpt><trkpt lat="42.9651386" lon="13.8732162"><ele>5.0</ele><time>2026-05-02T13:43:12.468Z</time></trkpt><trkpt lat="42.9650353" lon="13.8732426"><ele>5.0</ele><time>2026-05-02T13:43:13.469Z</time></trkpt><trkpt lat="42.964933" lon="13.8732812"><ele>5.0</ele><time>2026-05-02T13:43:14.468Z</time></trkpt><trkpt lat="42.9648318" lon="13.8733234"><ele>5.0</ele><time>2026-05-02T13:43:15.467Z</time></trkpt><trkpt lat="42.9647322" lon="13.873371"><ele>5.0</ele><time>2026-05-02T13:43:16.468Z</time></trkpt><trkpt lat="42.9646361" lon="13.8734187"><ele>5.0</ele><time>2026-05-02T13:43:17.469Z</time></trkpt><trkpt lat="42.9645437" lon="13.8734678"><ele>5.0</ele><time>2026-05-02T13:43:18.469Z</time></trkpt><trkpt lat="42.9644605" lon="13.8735169"><ele>5.0</ele><time>2026-05-02T13:43:19.468Z</time></trkpt><trkpt lat="42.9643815" lon="13.8735638"><ele>5.0</ele><time>2026-05-02T13:43:20.469Z</time></trkpt><trkpt lat="42.9643102" lon="13.8736091"><ele>5.0</ele><time>2026-05-02T13:43:21.469Z</time></trkpt><trkpt lat="42.9642452" lon="13.8736534"><ele>5.0</ele><time>2026-05-02T13:43:22.468Z</time></trkpt><trkpt lat="42.9641776" lon="13.8736959"><ele>5.0</ele><time>2026-05-02T13:43:23.469Z</time></trkpt><trkpt lat="42.9641041" lon="13.8737346"><ele>5.0</ele><time>2026-05-02T13:43:24.468Z</time></trkpt><trkpt lat="42.9640287" lon="13.8737685"><ele>5.0</ele><time>2026-05-02T13:43:25.469Z</time></trkpt><trkpt lat="42.9639514" lon="13.8738023"><ele>5.0</ele><time>2026-05-02T13:43:26.469Z</time></trkpt><trkpt lat="42.9638718" lon="13.8738345"><ele>5.0</ele><time>2026-05-02T13:43:27.469Z</time></trkpt><trkpt lat="42.963786" lon="13.873867"><ele>5.0</ele><time>2026-05-02T13:43:28.469Z</time></trkpt><trkpt lat="42.9636973" lon="13.8738938"><ele>5.0</ele><time>2026-05-02T13:43:29.469Z</time></trkpt><trkpt lat="42.9636095" lon="13.8739198"><ele>5.0</ele><time>2026-05-02T13:43:30.468Z</time></trkpt><trkpt lat="42.9635228" lon="13.8739487"><ele>5.0</ele><time>2026-05-02T13:43:31.469Z</time></trkpt><trkpt lat="42.9634265" lon="13.8739795"><ele>5.0</ele><time>2026-05-02T13:43:32.469Z</time></trkpt><trkpt lat="42.9633317" lon="13.8740094"><ele>5.0</ele><time>2026-05-02T13:43:33.469Z</time></trkpt><trkpt lat="42.9632329" lon="13.8740388"><ele>5.2</ele><time>2026-05-02T13:43:34.469Z</time></trkpt><trkpt lat="42.9631328" lon="13.8740669"><ele>5.4</ele><time>2026-05-02T13:43:35.469Z</time></trkpt><trkpt lat="42.9630276" lon="13.8740971"><ele>5.6</ele><time>2026-05-02T13:43:36.469Z</time></trkpt><trkpt lat="42.9629225" lon="13.874134"><ele>5.8</ele><time>2026-05-02T13:43:37.468Z</time></trkpt><trkpt lat="42.9628169" lon="13.8741741"><ele>6.0</ele><time>2026-05-02T13:43:38.469Z</time></trkpt><trkpt lat="42.962709" lon="13.8742123"><ele>6.0</ele><time>2026-05-02T13:43:39.469Z</time></trkpt><trkpt lat="42.9625979" lon="13.8742509"><ele>6.0</ele><time>2026-05-02T13:43:40.469Z</time></trkpt><trkpt lat="42.9624864" lon="13.8742885"><ele>6.0</ele><time>2026-05-02T13:43:41.469Z</time></trkpt><trkpt lat="42.9623706" lon="13.874321"><ele>6.0</ele><time>2026-05-02T13:43:42.469Z</time></trkpt><trkpt lat="42.9622525" lon="13.8743461"><ele>7.25</ele><time>2026-05-02T13:43:43.468Z</time></trkpt><trkpt lat="42.9621403" lon="13.8743722"><ele>8.5</ele><time>2026-05-02T13:43:44.469Z</time></trkpt><trkpt lat="42.9620291" lon="13.8743976"><ele>9.75</ele><time>2026-05-02T13:43:45.469Z</time></trkpt><trkpt lat="42.961916" lon="13.8744235"><ele>11.0</ele><time>2026-05-02T13:43:46.469Z</time></trkpt><trkpt lat="42.9618027" lon="13.8744493"><ele>10.25</ele><time>2026-05-02T13:43:47.469Z</time></trkpt><trkpt lat="42.9616941" lon="13.8744761"><ele>9.5</ele><time>2026-05-02T13:43:48.469Z</time></trkpt><trkpt lat="42.9615875" lon="13.8745059"><ele>8.75</ele><time>2026-05-02T13:43:49.469Z</time></trkpt><trkpt lat="42.9614745" lon="13.874539"><ele>8.0</ele><time>2026-05-02T13:43:50.469Z</time></trkpt><trkpt lat="42.9613627" lon="13.8745772"><ele>8.0</ele><time>2026-05-02T13:43:51.469Z</time></trkpt><trkpt lat="42.9612496" lon="13.8746198"><ele>8.0</ele><time>2026-05-02T13:43:52.468Z</time></trkpt><trkpt lat="42.9611353" lon="13.8746655"><ele>8.0</ele><time>2026-05-02T13:43:53.469Z</time></trkpt><trkpt lat="42.9610226" lon="13.8747047"><ele>8.0</ele><time>2026-05-02T13:43:54.469Z</time></trkpt><trkpt lat="42.9609163" lon="13.8747427"><ele>7.800000000000001</ele><time>2026-05-02T13:43:55.469Z</time></trkpt><trkpt lat="42.9608118" lon="13.8747804"><ele>7.6000000000000005</ele><time>2026-05-02T13:43:56.469Z</time></trkpt><trkpt lat="42.9607115" lon="13.8748161"><ele>7.3999999999999995</ele><time>2026-05-02T13:43:57.469Z</time></trkpt><trkpt lat="42.9606077" lon="13.8748526"><ele>7.199999999999999</ele><time>2026-05-02T13:43:58.469Z</time></trkpt><trkpt lat="42.960527" lon="13.8748802"><ele>7.0</ele><time>2026-05-02T13:43:59.469Z</time></trkpt><trkpt lat="42.9604591" lon="13.8749047"><ele>7.0</ele><time>2026-05-02T13:44:00.469Z</time></trkpt><trkpt lat="42.960326" lon="13.8749472"><ele>7.0</ele><time>2026-05-02T13:44:02.469Z</time></trkpt><trkpt lat="42.9602276" lon="13.874972"><ele>7.0</ele><time>2026-05-02T13:44:03.469Z</time></trkpt><trkpt lat="42.9601078" lon="13.8749962"><ele>7.0</ele><time>2026-05-02T13:44:04.469Z</time></trkpt><trkpt lat="42.9599826" lon="13.8750261"><ele>7.25</ele><time>2026-05-02T13:44:05.469Z</time></trkpt><trkpt lat="42.9598523" lon="13.8750612"><ele>7.5</ele><time>2026-05-02T13:44:06.469Z</time></trkpt><trkpt lat="42.9597206" lon="13.8750987"><ele>7.75</ele><time>2026-05-02T13:44:07.469Z</time></trkpt><trkpt lat="42.9595929" lon="13.8751307"><ele>8.0</ele><time>2026-05-02T13:44:08.469Z</time></trkpt><trkpt lat="42.9594658" lon="13.8751622"><ele>8.25</ele><time>2026-05-02T13:44:09.469Z</time></trkpt><trkpt lat="42.9593407" lon="13.8752"><ele>8.5</ele><time>2026-05-02T13:44:10.469Z</time></trkpt><trkpt lat="42.9592191" lon="13.8752305"><ele>8.75</ele><time>2026-05-02T13:44:11.469Z</time></trkpt><trkpt lat="42.9591031" lon="13.8752626"><ele>9.0</ele><time>2026-05-02T13:44:12.469Z</time></trkpt><trkpt lat="42.9589878" lon="13.8752929"><ele>8.5</ele><time>2026-05-02T13:44:13.469Z</time></trkpt><trkpt lat="42.958877" lon="13.8753195"><ele>8.0</ele><time>2026-05-02T13:44:14.469Z</time></trkpt><trkpt lat="42.9587589" lon="13.8753467"><ele>7.5</ele><time>2026-05-02T13:44:15.469Z</time></trkpt><trkpt lat="42.9586443" lon="13.8753728"><ele>7.0</ele><time>2026-05-02T13:44:16.468Z</time></trkpt><trkpt lat="42.958536" lon="13.8754016"><ele>7.0</ele><time>2026-05-02T13:44:17.469Z</time></trkpt><trkpt lat="42.9584299" lon="13.8754299"><ele>6.999999999999999</ele><time>2026-05-02T13:44:18.469Z</time></trkpt><trkpt lat="42.9583261" lon="13.8754587"><ele>6.999999999999999</ele><time>2026-05-02T13:44:19.469Z</time></trkpt><trkpt lat="42.9582211" lon="13.8754824"><ele>7.0</ele><time>2026-05-02T13:44:20.469Z</time></trkpt><trkpt lat="42.9581262" lon="13.8755041"><ele>7.0</ele><time>2026-05-02T13:44:21.469Z</time></trkpt><trkpt lat="42.958031" lon="13.8755226"><ele>7.0</ele><time>2026-05-02T13:44:22.469Z</time></trkpt><trkpt lat="42.9579273" lon="13.8755441"><ele>7.0</ele><time>2026-05-02T13:44:23.47Z</time></trkpt><trkpt lat="42.9578128" lon="13.8755724"><ele>7.0</ele><time>2026-05-02T13:44:24.47Z</time></trkpt><trkpt lat="42.9577" lon="13.8755979"><ele>7.0</ele><time>2026-05-02T13:44:25.47Z</time></trkpt><trkpt lat="42.9575871" lon="13.875626"><ele>6.8</ele><time>2026-05-02T13:44:26.469Z</time></trkpt><trkpt lat="42.9574726" lon="13.8756575"><ele>6.6</ele><time>2026-05-02T13:44:27.47Z</time></trkpt><trkpt lat="42.9573631" lon="13.8756903"><ele>6.3999999999999995</ele><time>2026-05-02T13:44:28.47Z</time></trkpt><trkpt lat="42.9572524" lon="13.8757209"><ele>6.199999999999999</ele><time>2026-05-02T13:44:29.47Z</time></trkpt><trkpt lat="42.9571474" lon="13.8757511"><ele>6.0</ele><time>2026-05-02T13:44:30.47Z</time></trkpt><trkpt lat="42.9570388" lon="13.875778"><ele>6.0</ele><time>2026-05-02T13:44:31.47Z</time></trkpt><trkpt lat="42.9569316" lon="13.8758021"><ele>6.0</ele><time>2026-05-02T13:44:32.47Z</time></trkpt><trkpt lat="42.9568242" lon="13.8758204"><ele>6.0</ele><time>2026-05-02T13:44:33.47Z</time></trkpt><trkpt lat="42.9567187" lon="13.8758403"><ele>6.0</ele><time>2026-05-02T13:44:34.469Z</time></trkpt><trkpt lat="42.9566146" lon="13.8758589"><ele>6.0</ele><time>2026-05-02T13:44:35.47Z</time></trkpt><trkpt lat="42.9565117" lon="13.8758735"><ele>6.4</ele><time>2026-05-02T13:44:36.47Z</time></trkpt><trkpt lat="42.9564049" lon="13.8758909"><ele>6.8</ele><time>2026-05-02T13:44:37.47Z</time></trkpt><trkpt lat="42.9562941" lon="13.8759028"><ele>7.200000000000001</ele><time>2026-05-02T13:44:38.47Z</time></trkpt><trkpt lat="42.9561846" lon="13.8759119"><ele>7.6000000000000005</ele><time>2026-05-02T13:44:39.47Z</time></trkpt><trkpt lat="42.9560712" lon="13.8759184"><ele>8.0</ele><time>2026-05-02T13:44:40.47Z</time></trkpt><trkpt lat="42.9559562" lon="13.8759241"><ele>8.0</ele><time>2026-05-02T13:44:41.47Z</time></trkpt><trkpt lat="42.9558394" lon="13.8759341"><ele>8.0</ele><time>2026-05-02T13:44:42.47Z</time></trkpt><trkpt lat="42.9557117" lon="13.8759455"><ele>8.0</ele><time>2026-05-02T13:44:43.47Z</time></trkpt><trkpt lat="42.9555914" lon="13.8759643"><ele>8.0</ele><time>2026-05-02T13:44:44.47Z</time></trkpt><trkpt lat="42.9554664" lon="13.8759893"><ele>7.5</ele><time>2026-05-02T13:44:45.47Z</time></trkpt><trkpt lat="42.9553344" lon="13.8760164"><ele>7.0</ele><time>2026-05-02T13:44:46.47Z</time></trkpt><trkpt lat="42.9552104" lon="13.8760492"><ele>6.5</ele><time>2026-05-02T13:44:47.47Z</time></trkpt><trkpt lat="42.9550851" lon="13.8760778"><ele>6.0</ele><time>2026-05-02T13:44:48.469Z</time></trkpt><trkpt lat="42.954966" lon="13.8761053"><ele>5.5</ele><time>2026-05-02T13:44:49.47Z</time></trkpt><trkpt lat="42.9548404" lon="13.8761328"><ele>5.0</ele><time>2026-05-02T13:44:50.47Z</time></trkpt><trkpt lat="42.9547199" lon="13.8761658"><ele>4.5</ele><time>2026-05-02T13:44:51.469Z</time></trkpt><trkpt lat="42.9545919" lon="13.8761944"><ele>4.0</ele><time>2026-05-02T13:44:52.47Z</time></trkpt><trkpt lat="42.9544615" lon="13.876219"><ele>4.0</ele><time>2026-05-02T13:44:53.47Z</time></trkpt><trkpt lat="42.9543363" lon="13.8762462"><ele>4.0</ele><time>2026-05-02T13:44:54.47Z</time></trkpt><trkpt lat="42.9542119" lon="13.8762758"><ele>4.0</ele><time>2026-05-02T13:44:55.47Z</time></trkpt><trkpt lat="42.9540879" lon="13.8763032"><ele>4.0</ele><time>2026-05-02T13:44:56.47Z</time></trkpt><trkpt lat="42.9539698" lon="13.8763236"><ele>4.333333333333333</ele><time>2026-05-02T13:44:57.469Z</time></trkpt><trkpt lat="42.9538696" lon="13.8763419"><ele>4.666666666666666</ele><time>2026-05-02T13:44:58.47Z</time></trkpt><trkpt lat="42.95379" lon="13.8763551"><ele>5.0</ele><time>2026-05-02T13:44:59.469Z</time></trkpt><trkpt lat="42.9537223" lon="13.8763676"><ele>5.333333333333333</ele><time>2026-05-02T13:45:00.47Z</time></trkpt><trkpt lat="42.9536339" lon="13.8763784"><ele>5.666666666666667</ele><time>2026-05-02T13:45:02.47Z</time></trkpt><trkpt lat="42.9535575" lon="13.8763924"><ele>6.0</ele><time>2026-05-02T13:45:29.47Z</time></trkpt><trkpt lat="42.9534412" lon="13.8764402"><ele>5.999999999999999</ele><time>2026-05-02T13:45:31.471Z</time></trkpt><trkpt lat="42.9533781" lon="13.8764703"><ele>6.0</ele><time>2026-05-02T13:45:32.471Z</time></trkpt><trkpt lat="42.9533144" lon="13.8764928"><ele>6.0</ele><time>2026-05-02T13:45:33.47Z</time></trkpt><trkpt lat="42.9532493" lon="13.8765092"><ele>6.0</ele><time>2026-05-02T13:45:34.471Z</time></trkpt><trkpt lat="42.9531732" lon="13.8765363"><ele>6.0</ele><time>2026-05-02T13:45:35.471Z</time></trkpt><trkpt lat="42.9530996" lon="13.8765531"><ele>5.999999999999999</ele><time>2026-05-02T13:45:36.471Z</time></trkpt><trkpt lat="42.9530169" lon="13.8765773"><ele>6.0</ele><time>2026-05-02T13:45:37.471Z</time></trkpt><trkpt lat="42.952925" lon="13.8766005"><ele>6.0</ele><time>2026-05-02T13:45:38.471Z</time></trkpt><trkpt lat="42.9528399" lon="13.876617"><ele>6.0</ele><time>2026-05-02T13:45:39.471Z</time></trkpt><trkpt lat="42.952753" lon="13.8766305"><ele>6.0</ele><time>2026-05-02T13:45:40.471Z</time></trkpt><trkpt lat="42.9526624" lon="13.8766423"><ele>6.0</ele><time>2026-05-02T13:45:41.47Z</time></trkpt><trkpt lat="42.952561" lon="13.8766768"><ele>6.0</ele><time>2026-05-02T13:45:42.471Z</time></trkpt><trkpt lat="42.9524634" lon="13.8766921"><ele>6.0</ele><time>2026-05-02T13:45:43.471Z</time></trkpt><trkpt lat="42.9523638" lon="13.8767113"><ele>6.0</ele><time>2026-05-02T13:45:44.471Z</time></trkpt><trkpt lat="42.9522575" lon="13.8767317"><ele>6.0</ele><time>2026-05-02T13:45:45.471Z</time></trkpt><trkpt lat="42.9521506" lon="13.8767604"><ele>6.0</ele><time>2026-05-02T13:45:46.471Z</time></trkpt><trkpt lat="42.9520395" lon="13.876793"><ele>6.0</ele><time>2026-05-02T13:45:47.471Z</time></trkpt><trkpt lat="42.9519356" lon="13.8768214"><ele>6.0</ele><time>2026-05-02T13:45:48.471Z</time></trkpt><trkpt lat="42.9518254" lon="13.8768502"><ele>6.0</ele><time>2026-05-02T13:45:49.47Z</time></trkpt><trkpt lat="42.9517096" lon="13.8768817"><ele>6.0</ele><time>2026-05-02T13:45:50.471Z</time></trkpt><trkpt lat="42.951596" lon="13.8769131"><ele>6.0</ele><time>2026-05-02T13:45:51.471Z</time></trkpt><trkpt lat="42.9514778" lon="13.8769462"><ele>6.5</ele><time>2026-05-02T13:45:52.47Z</time></trkpt><trkpt lat="42.9513631" lon="13.8769744"><ele>7.0</ele><time>2026-05-02T13:45:53.47Z</time></trkpt><trkpt lat="42.9512494" lon="13.8770038"><ele>7.5</ele><time>2026-05-02T13:45:54.471Z</time></trkpt><trkpt lat="42.9511443" lon="13.8770251"><ele>8.0</ele><time>2026-05-02T13:45:55.47Z</time></trkpt><trkpt lat="42.950946" lon="13.8770816"><ele>8.4</ele><time>2026-05-02T13:45:57.471Z</time></trkpt><trkpt lat="42.9508528" lon="13.8771119"><ele>8.8</ele><time>2026-05-02T13:45:58.471Z</time></trkpt><trkpt lat="42.9507677" lon="13.877137"><ele>9.2</ele><time>2026-05-02T13:45:59.471Z</time></trkpt><trkpt lat="42.9506807" lon="13.877162"><ele>9.6</ele><time>2026-05-02T13:46:00.471Z</time></trkpt><trkpt lat="42.9505946" lon="13.8771854"><ele>10.0</ele><time>2026-05-02T13:46:01.471Z</time></trkpt><trkpt lat="42.9505011" lon="13.8772106"><ele>10.0</ele><time>2026-05-02T13:46:02.471Z</time></trkpt><trkpt lat="42.9504103" lon="13.8772395"><ele>10.0</ele><time>2026-05-02T13:46:03.471Z</time></trkpt><trkpt lat="42.9503278" lon="13.8772702"><ele>10.0</ele><time>2026-05-02T13:46:04.471Z</time></trkpt><trkpt lat="42.9502446" lon="13.8772931"><ele>10.0</ele><time>2026-05-02T13:46:05.471Z</time></trkpt><trkpt lat="42.9501646" lon="13.8773081"><ele>10.0</ele><time>2026-05-02T13:46:06.471Z</time></trkpt><trkpt lat="42.9500899" lon="13.8773222"><ele>10.0</ele><time>2026-05-02T13:46:07.471Z</time></trkpt><trkpt lat="42.9500277" lon="13.8773461"><ele>10.0</ele><time>2026-05-02T13:46:08.47Z</time></trkpt><trkpt lat="42.9498773" lon="13.8773801"><ele>10.0</ele><time>2026-05-02T13:46:11.471Z</time></trkpt><trkpt lat="42.9497645" lon="13.8774251"><ele>10.0</ele><time>2026-05-02T13:46:13.471Z</time></trkpt><trkpt lat="42.9497121" lon="13.8774743"><ele>10.0</ele><time>2026-05-02T13:46:14.47Z</time></trkpt><trkpt lat="42.9496011" lon="13.8775421"><ele>10.0</ele><time>2026-05-02T13:46:16.471Z</time></trkpt><trkpt lat="42.9495401" lon="13.8775687"><ele>10.0</ele><time>2026-05-02T13:46:17.471Z</time></trkpt><trkpt lat="42.9494732" lon="13.8775967"><ele>10.0</ele><time>2026-05-02T13:46:18.472Z</time></trkpt><trkpt lat="42.949391" lon="13.8776295"><ele>10.0</ele><time>2026-05-02T13:46:19.471Z</time></trkpt><trkpt lat="42.9493207" lon="13.8776549"><ele>10.0</ele><time>2026-05-02T13:46:20.47Z</time></trkpt><trkpt lat="42.9492429" lon="13.8776834"><ele>10.0</ele><time>2026-05-02T13:46:21.471Z</time></trkpt><trkpt lat="42.9491702" lon="13.877708"><ele>10.0</ele><time>2026-05-02T13:46:22.471Z</time></trkpt><trkpt lat="42.9490642" lon="13.8777581"><ele>10.2</ele><time>2026-05-02T13:46:24.471Z</time></trkpt><trkpt lat="42.9489585" lon="13.8777876"><ele>10.4</ele><time>2026-05-02T13:46:26.47Z</time></trkpt><trkpt lat="42.9488877" lon="13.8777975"><ele>10.600000000000001</ele><time>2026-05-02T13:46:28.472Z</time></trkpt><trkpt lat="42.9488151" lon="13.8777754"><ele>10.8</ele><time>2026-05-02T13:47:24.472Z</time></trkpt><trkpt lat="42.9487568" lon="13.8776786"><ele>11.0</ele><time>2026-05-02T13:47:26.472Z</time></trkpt><trkpt lat="42.9487283" lon="13.877526"><ele>11.0</ele><time>2026-05-02T13:47:28.472Z</time></trkpt><trkpt lat="42.9487278" lon="13.8774342"><ele>11.0</ele><time>2026-05-02T13:47:29.472Z</time></trkpt><trkpt lat="42.9487242" lon="13.8773359"><ele>11.0</ele><time>2026-05-02T13:47:30.472Z</time></trkpt><trkpt lat="42.9487208" lon="13.8772226"><ele>11.0</ele><time>2026-05-02T13:47:31.471Z</time></trkpt><trkpt lat="42.9487114" lon="13.8771174"><ele>11.0</ele><time>2026-05-02T13:47:32.472Z</time></trkpt><trkpt lat="42.9487018" lon="13.8770122"><ele>11.0</ele><time>2026-05-02T13:47:33.472Z</time></trkpt><trkpt lat="42.9486994" lon="13.8768979"><ele>11.0</ele><time>2026-05-02T13:47:34.472Z</time></trkpt><trkpt lat="42.948699" lon="13.8767807"><ele>11.0</ele><time>2026-05-02T13:47:35.472Z</time></trkpt><trkpt lat="42.9487096" lon="13.8766715"><ele>11.0</ele><time>2026-05-02T13:47:36.473Z</time></trkpt><trkpt lat="42.9487192" lon="13.8765566"><ele>11.0</ele><time>2026-05-02T13:47:37.473Z</time></trkpt><trkpt lat="42.9487303" lon="13.8764382"><ele>11.0</ele><time>2026-05-02T13:47:38.473Z</time></trkpt><trkpt lat="42.9487423" lon="13.876326"><ele>11.0</ele><time>2026-05-02T13:47:39.473Z</time></trkpt><trkpt lat="42.9487536" lon="13.8762195"><ele>11.0</ele><time>2026-05-02T13:47:40.473Z</time></trkpt><trkpt lat="42.9487598" lon="13.8761322"><ele>11.0</ele><time>2026-05-02T13:47:41.472Z</time></trkpt><trkpt lat="42.9487644" lon="13.8760362"><ele>11.0</ele><time>2026-05-02T13:47:43.472Z</time></trkpt><trkpt lat="42.9487612" lon="13.8759421"><ele>11.0</ele><time>2026-05-02T13:47:45.473Z</time></trkpt><trkpt lat="42.9487629" lon="13.8758497"><ele>11.0</ele><time>2026-05-02T13:47:46.473Z</time></trkpt><trkpt lat="42.9487746" lon="13.8757416"><ele>11.0</ele><time>2026-05-02T13:47:47.473Z</time></trkpt><trkpt lat="42.9487878" lon="13.8756131"><ele>11.0</ele><time>2026-05-02T13:47:48.473Z</time></trkpt><trkpt lat="42.9488013" lon="13.8754757"><ele>11.5</ele><time>2026-05-02T13:47:49.473Z</time></trkpt><trkpt lat="42.9488145" lon="13.875323"><ele>12.0</ele><time>2026-05-02T13:47:50.473Z</time></trkpt><trkpt lat="42.9488305" lon="13.8751682"><ele>12.5</ele><time>2026-05-02T13:47:51.473Z</time></trkpt><trkpt lat="42.9488485" lon="13.8750089"><ele>13.0</ele><time>2026-05-02T13:47:52.473Z</time></trkpt><trkpt lat="42.9488669" lon="13.8748518"><ele>13.5</ele><time>2026-05-02T13:47:53.472Z</time></trkpt><trkpt lat="42.9488847" lon="13.8746926"><ele>14.0</ele><time>2026-05-02T13:47:54.473Z</time></trkpt><trkpt lat="42.9489045" lon="13.8745319"><ele>14.5</ele><time>2026-05-02T13:47:55.472Z</time></trkpt><trkpt lat="42.948923" lon="13.8743677"><ele>15.0</ele><time>2026-05-02T13:47:56.473Z</time></trkpt><trkpt lat="42.9489411" lon="13.874208"><ele>15.0</ele><time>2026-05-02T13:47:57.473Z</time></trkpt><trkpt lat="42.9489614" lon="13.8740561"><ele>15.0</ele><time>2026-05-02T13:47:58.473Z</time></trkpt><trkpt lat="42.9489762" lon="13.8739019"><ele>15.0</ele><time>2026-05-02T13:47:59.473Z</time></trkpt><trkpt lat="42.9489897" lon="13.8737521"><ele>15.0</ele><time>2026-05-02T13:48:00.472Z</time></trkpt><trkpt lat="42.9490066" lon="13.873605"><ele>15.0</ele><time>2026-05-02T13:48:01.473Z</time></trkpt><trkpt lat="42.9490228" lon="13.873459"><ele>15.25</ele><time>2026-05-02T13:48:02.473Z</time></trkpt><trkpt lat="42.9490408" lon="13.8733149"><ele>15.5</ele><time>2026-05-02T13:48:03.473Z</time></trkpt><trkpt lat="42.9490602" lon="13.8731681"><ele>15.75</ele><time>2026-05-02T13:48:04.473Z</time></trkpt><trkpt lat="42.9490821" lon="13.8730158"><ele>16.0</ele><time>2026-05-02T13:48:05.473Z</time></trkpt><trkpt lat="42.9491041" lon="13.8728532"><ele>16.0</ele><time>2026-05-02T13:48:06.472Z</time></trkpt><trkpt lat="42.9491261" lon="13.8726735"><ele>16.0</ele><time>2026-05-02T13:48:07.473Z</time></trkpt><trkpt lat="42.9491432" lon="13.8724766"><ele>16.0</ele><time>2026-05-02T13:48:08.473Z</time></trkpt><trkpt lat="42.9491576" lon="13.8722793"><ele>16.0</ele><time>2026-05-02T13:48:09.473Z</time></trkpt><trkpt lat="42.9491703" lon="13.872093"><ele>16.0</ele><time>2026-05-02T13:48:10.473Z</time></trkpt><trkpt lat="42.9491735" lon="13.8719183"><ele>16.0</ele><time>2026-05-02T13:48:11.472Z</time></trkpt><trkpt lat="42.949174" lon="13.8717521"><ele>16.0</ele><time>2026-05-02T13:48:12.473Z</time></trkpt><trkpt lat="42.9491703" lon="13.871594"><ele>16.0</ele><time>2026-05-02T13:48:13.473Z</time></trkpt><trkpt lat="42.9491632" lon="13.8714417"><ele>16.0</ele><time>2026-05-02T13:48:14.473Z</time></trkpt><trkpt lat="42.9491503" lon="13.8712883"><ele>16.0</ele><time>2026-05-02T13:48:15.473Z</time></trkpt><trkpt lat="42.9491336" lon="13.8711338"><ele>16.0</ele><time>2026-05-02T13:48:16.473Z</time></trkpt><trkpt lat="42.9491104" lon="13.8709708"><ele>16.0</ele><time>2026-05-02T13:48:17.473Z</time></trkpt><trkpt lat="42.9490846" lon="13.8708017"><ele>16.5</ele><time>2026-05-02T13:48:18.473Z</time></trkpt><trkpt lat="42.949059" lon="13.8706368"><ele>17.0</ele><time>2026-05-02T13:48:19.473Z</time></trkpt><trkpt lat="42.9490314" lon="13.8704717"><ele>17.5</ele><time>2026-05-02T13:48:20.473Z</time></trkpt><trkpt lat="42.9490013" lon="13.8703059"><ele>18.0</ele><time>2026-05-02T13:48:21.473Z</time></trkpt><trkpt lat="42.9489669" lon="13.8701461"><ele>18.0</ele><time>2026-05-02T13:48:22.473Z</time></trkpt><trkpt lat="42.9489201" lon="13.8699902"><ele>18.0</ele><time>2026-05-02T13:48:23.473Z</time></trkpt><trkpt lat="42.9488717" lon="13.8698266"><ele>18.0</ele><time>2026-05-02T13:48:24.473Z</time></trkpt><trkpt lat="42.9488211" lon="13.8696654"><ele>18.0</ele><time>2026-05-02T13:48:25.473Z</time></trkpt><trkpt lat="42.9487734" lon="13.8695011"><ele>18.0</ele><time>2026-05-02T13:48:26.472Z</time></trkpt><trkpt lat="42.9486976" lon="13.8691584"><ele>18.0</ele><time>2026-05-02T13:48:28.473Z</time></trkpt><trkpt lat="42.9486783" lon="13.8689853"><ele>18.0</ele><time>2026-05-02T13:48:29.473Z</time></trkpt><trkpt lat="42.9486728" lon="13.8688047"><ele>18.0</ele><time>2026-05-02T13:48:30.473Z</time></trkpt><trkpt lat="42.948689" lon="13.8686266"><ele>18.0</ele><time>2026-05-02T13:48:31.472Z</time></trkpt><trkpt lat="42.9487295" lon="13.8684672"><ele>18.0</ele><time>2026-05-02T13:48:32.473Z</time></trkpt><trkpt lat="42.9488144" lon="13.8683262"><ele>18.0</ele><time>2026-05-02T13:48:33.473Z</time></trkpt><trkpt lat="42.9489165" lon="13.868207"><ele>17.75</ele><time>2026-05-02T13:48:34.473Z</time></trkpt><trkpt lat="42.9490385" lon="13.8681044"><ele>17.5</ele><time>2026-05-02T13:48:35.473Z</time></trkpt><trkpt lat="42.9491686" lon="13.8679997"><ele>17.25</ele><time>2026-05-02T13:48:36.473Z</time></trkpt><trkpt lat="42.9492956" lon="13.8679054"><ele>17.0</ele><time>2026-05-02T13:48:37.473Z</time></trkpt><trkpt lat="42.9494165" lon="13.8678123"><ele>19.25</ele><time>2026-05-02T13:48:38.472Z</time></trkpt><trkpt lat="42.9495268" lon="13.8677331"><ele>21.5</ele><time>2026-05-02T13:48:39.472Z</time></trkpt><trkpt lat="42.9496346" lon="13.8676392"><ele>23.75</ele><time>2026-05-02T13:48:40.474Z</time></trkpt><trkpt lat="42.9497469" lon="13.8675374"><ele>26.0</ele><time>2026-05-02T13:48:41.473Z</time></trkpt><trkpt lat="42.949846" lon="13.8674314"><ele>26.0</ele><time>2026-05-02T13:48:42.474Z</time></trkpt><trkpt lat="42.9499296" lon="13.867302"><ele>26.0</ele><time>2026-05-02T13:48:43.474Z</time></trkpt><trkpt lat="42.9500002" lon="13.8671595"><ele>26.0</ele><time>2026-05-02T13:48:44.474Z</time></trkpt><trkpt lat="42.9500523" lon="13.8670034"><ele>26.0</ele><time>2026-05-02T13:48:45.474Z</time></trkpt><trkpt lat="42.9500782" lon="13.8668369"><ele>27.0</ele><time>2026-05-02T13:48:46.473Z</time></trkpt><trkpt lat="42.9500906" lon="13.8666579"><ele>28.0</ele><time>2026-05-02T13:48:47.474Z</time></trkpt><trkpt lat="42.950107" lon="13.8664719"><ele>29.0</ele><time>2026-05-02T13:48:48.474Z</time></trkpt><trkpt lat="42.9501275" lon="13.8662848"><ele>30.0</ele><time>2026-05-02T13:48:49.474Z</time></trkpt><trkpt lat="42.9501527" lon="13.8660981"><ele>29.75</ele><time>2026-05-02T13:48:50.474Z</time></trkpt><trkpt lat="42.9501823" lon="13.8659072"><ele>29.5</ele><time>2026-05-02T13:48:51.474Z</time></trkpt><trkpt lat="42.9502127" lon="13.8657179"><ele>29.25</ele><time>2026-05-02T13:48:52.474Z</time></trkpt><trkpt lat="42.9502425" lon="13.8655316"><ele>29.0</ele><time>2026-05-02T13:48:53.474Z</time></trkpt><trkpt lat="42.9502762" lon="13.8653494"><ele>29.0</ele><time>2026-05-02T13:48:54.474Z</time></trkpt><trkpt lat="42.9503141" lon="13.8651705"><ele>29.0</ele><time>2026-05-02T13:48:55.474Z</time></trkpt><trkpt lat="42.9503665" lon="13.8649977"><ele>29.0</ele><time>2026-05-02T13:48:56.474Z</time></trkpt><trkpt lat="42.9504328" lon="13.8648358"><ele>29.0</ele><time>2026-05-02T13:48:57.474Z</time></trkpt><trkpt lat="42.9505152" lon="13.8646779"><ele>28.25</ele><time>2026-05-02T13:48:58.473Z</time></trkpt><trkpt lat="42.9506024" lon="13.864523"><ele>27.5</ele><time>2026-05-02T13:48:59.474Z</time></trkpt><trkpt lat="42.9506854" lon="13.8643775"><ele>26.75</ele><time>2026-05-02T13:49:00.474Z</time></trkpt><trkpt lat="42.9507714" lon="13.8642278"><ele>26.0</ele><time>2026-05-02T13:49:01.474Z</time></trkpt><trkpt lat="42.9508551" lon="13.8640869"><ele>28.0</ele><time>2026-05-02T13:49:02.474Z</time></trkpt><trkpt lat="42.9509362" lon="13.8639425"><ele>30.0</ele><time>2026-05-02T13:49:03.474Z</time></trkpt><trkpt lat="42.9510212" lon="13.8637952"><ele>32.0</ele><time>2026-05-02T13:49:04.474Z</time></trkpt><trkpt lat="42.9511009" lon="13.8636496"><ele>34.0</ele><time>2026-05-02T13:49:05.474Z</time></trkpt><trkpt lat="42.9511831" lon="13.8635055"><ele>34.25</ele><time>2026-05-02T13:49:06.473Z</time></trkpt><trkpt lat="42.9512643" lon="13.8633593"><ele>34.5</ele><time>2026-05-02T13:49:07.474Z</time></trkpt><trkpt lat="42.9513421" lon="13.8632217"><ele>34.75</ele><time>2026-05-02T13:49:08.474Z</time></trkpt><trkpt lat="42.9514057" lon="13.8630867"><ele>35.0</ele><time>2026-05-02T13:49:09.474Z</time></trkpt><trkpt lat="42.9514489" lon="13.8629541"><ele>35.0</ele><time>2026-05-02T13:49:10.474Z</time></trkpt><trkpt lat="42.9514831" lon="13.8628186"><ele>35.0</ele><time>2026-05-02T13:49:11.474Z</time></trkpt><trkpt lat="42.9514865" lon="13.8626828"><ele>35.0</ele><time>2026-05-02T13:49:12.474Z</time></trkpt><trkpt lat="42.951488" lon="13.862563"><ele>35.0</ele><time>2026-05-02T13:49:13.474Z</time></trkpt><trkpt lat="42.9514888" lon="13.8624428"><ele>35.0</ele><time>2026-05-02T13:49:14.474Z</time></trkpt><trkpt lat="42.9514921" lon="13.8623562"><ele>35.0</ele><time>2026-05-02T13:49:15.474Z</time></trkpt><trkpt lat="42.9515034" lon="13.86222"><ele>34.666666666666664</ele><time>2026-05-02T13:49:17.474Z</time></trkpt><trkpt lat="42.9514988" lon="13.8621259"><ele>34.33333333333333</ele><time>2026-05-02T13:49:20.474Z</time></trkpt><trkpt lat="42.9514389" lon="13.8620837"><ele>34.0</ele><time>2026-05-02T13:49:55.475Z</time></trkpt><trkpt lat="42.9514145" lon="13.8619423"><ele>33.666666666666664</ele><time>2026-05-02T13:49:57.474Z</time></trkpt><trkpt lat="42.9514047" lon="13.8618445"><ele>33.333333333333336</ele><time>2026-05-02T13:49:58.475Z</time></trkpt><trkpt lat="42.9514124" lon="13.8617539"><ele>33.0</ele><time>2026-05-02T13:49:59.475Z</time></trkpt><trkpt lat="42.951439" lon="13.8616498"><ele>33.0</ele><time>2026-05-02T13:50:00.475Z</time></trkpt><trkpt lat="42.9514805" lon="13.8615366"><ele>33.0</ele><time>2026-05-02T13:50:01.475Z</time></trkpt><trkpt lat="42.9515415" lon="13.8614118"><ele>33.0</ele><time>2026-05-02T13:50:02.475Z</time></trkpt><trkpt lat="42.9515996" lon="13.8612905"><ele>33.0</ele><time>2026-05-02T13:50:03.475Z</time></trkpt><trkpt lat="42.9516551" lon="13.8611686"><ele>33.0</ele><time>2026-05-02T13:50:04.475Z</time></trkpt><trkpt lat="42.9517107" lon="13.8610424"><ele>35.0</ele><time>2026-05-02T13:50:05.475Z</time></trkpt><trkpt lat="42.9517693" lon="13.8609064"><ele>37.0</ele><time>2026-05-02T13:50:06.475Z</time></trkpt><trkpt lat="42.9518288" lon="13.8607631"><ele>39.0</ele><time>2026-05-02T13:50:07.474Z</time></trkpt><trkpt lat="42.9518883" lon="13.8606177"><ele>41.0</ele><time>2026-05-02T13:50:08.475Z</time></trkpt><trkpt lat="42.9519497" lon="13.8604694"><ele>41.0</ele><time>2026-05-02T13:50:09.474Z</time></trkpt><trkpt lat="42.9520103" lon="13.8603233"><ele>41.0</ele><time>2026-05-02T13:50:10.475Z</time></trkpt><trkpt lat="42.9520755" lon="13.8601766"><ele>41.0</ele><time>2026-05-02T13:50:11.475Z</time></trkpt><trkpt lat="42.9521407" lon="13.8600289"><ele>41.0</ele><time>2026-05-02T13:50:12.475Z</time></trkpt><trkpt lat="42.9522135" lon="13.8598758"><ele>40.0</ele><time>2026-05-02T13:50:13.474Z</time></trkpt><trkpt lat="42.9522943" lon="13.8597268"><ele>39.0</ele><time>2026-05-02T13:50:14.474Z</time></trkpt><trkpt lat="42.9523744" lon="13.8595749"><ele>38.0</ele><time>2026-05-02T13:50:15.475Z</time></trkpt><trkpt lat="42.9524557" lon="13.8594242"><ele>37.0</ele><time>2026-05-02T13:50:16.474Z</time></trkpt><trkpt lat="42.9525312" lon="13.8592577"><ele>39.0</ele><time>2026-05-02T13:50:17.475Z</time></trkpt><trkpt lat="42.9526165" lon="13.859091"><ele>41.0</ele><time>2026-05-02T13:50:18.475Z</time></trkpt><trkpt lat="42.9527009" lon="13.8589239"><ele>43.0</ele><time>2026-05-02T13:50:19.475Z</time></trkpt><trkpt lat="42.9527825" lon="13.8587624"><ele>45.0</ele><time>2026-05-02T13:50:20.475Z</time></trkpt><trkpt lat="42.9528662" lon="13.8586047"><ele>42.75</ele><time>2026-05-02T13:50:21.475Z</time></trkpt><trkpt lat="42.9529483" lon="13.858449"><ele>40.5</ele><time>2026-05-02T13:50:22.475Z</time></trkpt><trkpt lat="42.9530224" lon="13.85829"><ele>38.25</ele><time>2026-05-02T13:50:23.475Z</time></trkpt><trkpt lat="42.9530841" lon="13.8581258"><ele>36.0</ele><time>2026-05-02T13:50:24.475Z</time></trkpt><trkpt lat="42.9531247" lon="13.8579498"><ele>36.0</ele><time>2026-05-02T13:50:25.475Z</time></trkpt><trkpt lat="42.9531407" lon="13.8577632"><ele>36.0</ele><time>2026-05-02T13:50:26.475Z</time></trkpt><trkpt lat="42.953138" lon="13.8575729"><ele>36.0</ele><time>2026-05-02T13:50:27.475Z</time></trkpt><trkpt lat="42.9531253" lon="13.8573775"><ele>36.0</ele><time>2026-05-02T13:50:28.475Z</time></trkpt><trkpt lat="42.9530985" lon="13.8571816"><ele>36.25</ele><time>2026-05-02T13:50:29.475Z</time></trkpt><trkpt lat="42.9530556" lon="13.8569915"><ele>36.5</ele><time>2026-05-02T13:50:30.475Z</time></trkpt><trkpt lat="42.9530004" lon="13.8568112"><ele>36.75</ele><time>2026-05-02T13:50:31.475Z</time></trkpt><trkpt lat="42.9529401" lon="13.856635"><ele>37.0</ele><time>2026-05-02T13:50:32.475Z</time></trkpt><trkpt lat="42.9528875" lon="13.8564644"><ele>38.0</ele><time>2026-05-02T13:50:33.474Z</time></trkpt><trkpt lat="42.9528499" lon="13.8563012"><ele>39.0</ele><time>2026-05-02T13:50:34.475Z</time></trkpt><trkpt lat="42.9528318" lon="13.8561405"><ele>40.0</ele><time>2026-05-02T13:50:35.474Z</time></trkpt><trkpt lat="42.952844" lon="13.8559941"><ele>41.0</ele><time>2026-05-02T13:50:36.475Z</time></trkpt><trkpt lat="42.9528832" lon="13.8558614"><ele>41.0</ele><time>2026-05-02T13:50:37.475Z</time></trkpt><trkpt lat="42.9529505" lon="13.8557131"><ele>41.0</ele><time>2026-05-02T13:50:38.475Z</time></trkpt><trkpt lat="42.9530272" lon="13.8555549"><ele>41.0</ele><time>2026-05-02T13:50:39.474Z</time></trkpt><trkpt lat="42.9531075" lon="13.8553939"><ele>41.0</ele><time>2026-05-02T13:50:40.475Z</time></trkpt><trkpt lat="42.9531801" lon="13.8552243"><ele>40.5</ele><time>2026-05-02T13:50:41.475Z</time></trkpt><trkpt lat="42.9532481" lon="13.8550564"><ele>40.0</ele><time>2026-05-02T13:50:42.475Z</time></trkpt><trkpt lat="42.953311" lon="13.8548874"><ele>39.5</ele><time>2026-05-02T13:50:43.475Z</time></trkpt><trkpt lat="42.9533714" lon="13.8547121"><ele>39.0</ele><time>2026-05-02T13:50:44.475Z</time></trkpt><trkpt lat="42.9534302" lon="13.8545325"><ele>42.25</ele><time>2026-05-02T13:50:45.475Z</time></trkpt><trkpt lat="42.9534912" lon="13.8543567"><ele>45.5</ele><time>2026-05-02T13:50:46.476Z</time></trkpt><trkpt lat="42.9535597" lon="13.854172"><ele>48.75</ele><time>2026-05-02T13:50:47.476Z</time></trkpt><trkpt lat="42.9536278" lon="13.8539937"><ele>52.0</ele><time>2026-05-02T13:50:48.476Z</time></trkpt><trkpt lat="42.9536942" lon="13.8538146"><ele>52.75</ele><time>2026-05-02T13:50:49.476Z</time></trkpt><trkpt lat="42.9537539" lon="13.8536352"><ele>53.5</ele><time>2026-05-02T13:50:50.476Z</time></trkpt><trkpt lat="42.9537992" lon="13.8534519"><ele>54.25</ele><time>2026-05-02T13:50:51.476Z</time></trkpt><trkpt lat="42.9538304" lon="13.853255"><ele>55.0</ele><time>2026-05-02T13:50:52.476Z</time></trkpt><trkpt lat="42.9538462" lon="13.8530589"><ele>53.0</ele><time>2026-05-02T13:50:53.476Z</time></trkpt><trkpt lat="42.9538661" lon="13.8528548"><ele>51.0</ele><time>2026-05-02T13:50:54.476Z</time></trkpt><trkpt lat="42.9538869" lon="13.8526513"><ele>49.0</ele><time>2026-05-02T13:50:55.476Z</time></trkpt><trkpt lat="42.9539093" lon="13.8524397"><ele>47.666666666666664</ele><time>2026-05-02T13:50:56.476Z</time></trkpt><trkpt lat="42.95393" lon="13.8522291"><ele>46.33333333333333</ele><time>2026-05-02T13:50:57.475Z</time></trkpt><trkpt lat="42.9539465" lon="13.852022"><ele>45.0</ele><time>2026-05-02T13:50:58.476Z</time></trkpt><trkpt lat="42.9539688" lon="13.8518128"><ele>44.5</ele><time>2026-05-02T13:50:59.476Z</time></trkpt><trkpt lat="42.9539896" lon="13.851606"><ele>44.0</ele><time>2026-05-02T13:51:00.476Z</time></trkpt><trkpt lat="42.9540108" lon="13.851408"><ele>43.5</ele><time>2026-05-02T13:51:01.476Z</time></trkpt><trkpt lat="42.9540339" lon="13.851213"><ele>43.0</ele><time>2026-05-02T13:51:02.476Z</time></trkpt><trkpt lat="42.9540526" lon="13.8510129"><ele>43.0</ele><time>2026-05-02T13:51:03.476Z</time></trkpt><trkpt lat="42.9540713" lon="13.850802"><ele>43.0</ele><time>2026-05-02T13:51:04.475Z</time></trkpt><trkpt lat="42.9540902" lon="13.8505888"><ele>43.0</ele><time>2026-05-02T13:51:05.476Z</time></trkpt><trkpt lat="42.9541135" lon="13.8503714"><ele>43.0</ele><time>2026-05-02T13:51:06.476Z</time></trkpt><trkpt lat="42.9541373" lon="13.8501557"><ele>43.0</ele><time>2026-05-02T13:51:07.476Z</time></trkpt><trkpt lat="42.9541599" lon="13.8499428"><ele>43.0</ele><time>2026-05-02T13:51:08.476Z</time></trkpt><trkpt lat="42.9541843" lon="13.8497224"><ele>45.333333333333336</ele><time>2026-05-02T13:51:09.476Z</time></trkpt><trkpt lat="42.9542095" lon="13.8495093"><ele>47.66666666666667</ele><time>2026-05-02T13:51:10.475Z</time></trkpt><trkpt lat="42.9542418" lon="13.8492964"><ele>50.0</ele><time>2026-05-02T13:51:11.475Z</time></trkpt><trkpt lat="42.9542874" lon="13.8490939"><ele>50.0</ele><time>2026-05-02T13:51:12.476Z</time></trkpt><trkpt lat="42.9543459" lon="13.8489035"><ele>50.0</ele><time>2026-05-02T13:51:13.476Z</time></trkpt><trkpt lat="42.9544325" lon="13.8487242"><ele>50.0</ele><time>2026-05-02T13:51:14.476Z</time></trkpt><trkpt lat="42.9545465" lon="13.8485588"><ele>49.333333333333336</ele><time>2026-05-02T13:51:15.476Z</time></trkpt><trkpt lat="42.9546704" lon="13.8483942"><ele>48.66666666666667</ele><time>2026-05-02T13:51:16.476Z</time></trkpt><trkpt lat="42.9547928" lon="13.8482308"><ele>48.0</ele><time>2026-05-02T13:51:17.475Z</time></trkpt><trkpt lat="42.9549011" lon="13.8480678"><ele>48.0</ele><time>2026-05-02T13:51:18.475Z</time></trkpt><trkpt lat="42.9550033" lon="13.8479051"><ele>48.0</ele><time>2026-05-02T13:51:19.476Z</time></trkpt><trkpt lat="42.9551031" lon="13.8477405"><ele>48.0</ele><time>2026-05-02T13:51:20.475Z</time></trkpt><trkpt lat="42.9552012" lon="13.8475756"><ele>51.33333333333333</ele><time>2026-05-02T13:51:21.476Z</time></trkpt><trkpt lat="42.9552907" lon="13.8474036"><ele>54.666666666666664</ele><time>2026-05-02T13:51:22.475Z</time></trkpt><trkpt lat="42.9553715" lon="13.8472155"><ele>58.0</ele><time>2026-05-02T13:51:23.476Z</time></trkpt><trkpt lat="42.9554426" lon="13.847012"><ele>58.0</ele><time>2026-05-02T13:51:24.476Z</time></trkpt><trkpt lat="42.9554985" lon="13.846799"><ele>58.0</ele><time>2026-05-02T13:51:25.476Z</time></trkpt><trkpt lat="42.9555508" lon="13.846582"><ele>58.0</ele><time>2026-05-02T13:51:26.476Z</time></trkpt><trkpt lat="42.9556043" lon="13.8463556"><ele>57.33333333333333</ele><time>2026-05-02T13:51:27.476Z</time></trkpt><trkpt lat="42.9556619" lon="13.8461274"><ele>56.66666666666667</ele><time>2026-05-02T13:51:28.476Z</time></trkpt><trkpt lat="42.9557233" lon="13.8459017"><ele>56.0</ele><time>2026-05-02T13:51:29.475Z</time></trkpt><trkpt lat="42.9557861" lon="13.8456792"><ele>54.66666666666667</ele><time>2026-05-02T13:51:30.476Z</time></trkpt><trkpt lat="42.9558505" lon="13.8454585"><ele>53.33333333333333</ele><time>2026-05-02T13:51:31.476Z</time></trkpt><trkpt lat="42.9559088" lon="13.8452432"><ele>52.0</ele><time>2026-05-02T13:51:32.475Z</time></trkpt><trkpt lat="42.9559697" lon="13.8450183"><ele>55.33333333333333</ele><time>2026-05-02T13:51:33.475Z</time></trkpt><trkpt lat="42.9560325" lon="13.8447968"><ele>58.66666666666667</ele><time>2026-05-02T13:51:34.476Z</time></trkpt><trkpt lat="42.9560956" lon="13.8445742"><ele>62.0</ele><time>2026-05-02T13:51:35.476Z</time></trkpt><trkpt lat="42.9561644" lon="13.8443499"><ele>62.333333333333336</ele><time>2026-05-02T13:51:36.475Z</time></trkpt><trkpt lat="42.9562294" lon="13.8441229"><ele>62.66666666666667</ele><time>2026-05-02T13:51:37.475Z</time></trkpt><trkpt lat="42.9562931" lon="13.8438939"><ele>63.0</ele><time>2026-05-02T13:51:38.476Z</time></trkpt><trkpt lat="42.956354" lon="13.8436599"><ele>62.0</ele><time>2026-05-02T13:51:39.476Z</time></trkpt><trkpt lat="42.9564079" lon="13.8434315"><ele>61.0</ele><time>2026-05-02T13:51:40.476Z</time></trkpt><trkpt lat="42.9564538" lon="13.8432006"><ele>60.0</ele><time>2026-05-02T13:51:41.476Z</time></trkpt><trkpt lat="42.9564911" lon="13.8429638"><ele>60.0</ele><time>2026-05-02T13:51:42.476Z</time></trkpt><trkpt lat="42.9565245" lon="13.8427282"><ele>60.0</ele><time>2026-05-02T13:51:43.476Z</time></trkpt><trkpt lat="42.956554" lon="13.8424906"><ele>60.0</ele><time>2026-05-02T13:51:44.476Z</time></trkpt><trkpt lat="42.9565846" lon="13.8422529"><ele>59.66666666666667</ele><time>2026-05-02T13:51:45.475Z</time></trkpt><trkpt lat="42.9566194" lon="13.8420157"><ele>59.333333333333336</ele><time>2026-05-02T13:51:46.475Z</time></trkpt><trkpt lat="42.9566541" lon="13.8417789"><ele>59.0</ele><time>2026-05-02T13:51:47.476Z</time></trkpt><trkpt lat="42.956687" lon="13.841542"><ele>62.0</ele><time>2026-05-02T13:51:48.476Z</time></trkpt><trkpt lat="42.9567189" lon="13.8413065"><ele>65.0</ele><time>2026-05-02T13:51:49.476Z</time></trkpt><trkpt lat="42.9567556" lon="13.8410723"><ele>68.0</ele><time>2026-05-02T13:51:50.476Z</time></trkpt><trkpt lat="42.9567902" lon="13.8408355"><ele>68.0</ele><time>2026-05-02T13:51:51.477Z</time></trkpt><trkpt lat="42.9568208" lon="13.8406005"><ele>68.0</ele><time>2026-05-02T13:51:52.477Z</time></trkpt><trkpt lat="42.956851" lon="13.840364"><ele>68.0</ele><time>2026-05-02T13:51:53.476Z</time></trkpt><trkpt lat="42.9568835" lon="13.840128"><ele>66.66666666666667</ele><time>2026-05-02T13:51:54.477Z</time></trkpt><trkpt lat="42.9569164" lon="13.8398894"><ele>65.33333333333333</ele><time>2026-05-02T13:51:55.476Z</time></trkpt><trkpt lat="42.9569489" lon="13.8396551"><ele>64.0</ele><time>2026-05-02T13:51:56.477Z</time></trkpt><trkpt lat="42.9569919" lon="13.8394313"><ele>64.0</ele><time>2026-05-02T13:51:57.477Z</time></trkpt><trkpt lat="42.9570295" lon="13.8392163"><ele>64.0</ele><time>2026-05-02T13:51:58.477Z</time></trkpt><trkpt lat="42.9570748" lon="13.839025"><ele>64.0</ele><time>2026-05-02T13:51:59.477Z</time></trkpt><trkpt lat="42.9571428" lon="13.8388428"><ele>64.0</ele><time>2026-05-02T13:52:00.477Z</time></trkpt><trkpt lat="42.9572389" lon="13.8386809"><ele>64.0</ele><time>2026-05-02T13:52:01.477Z</time></trkpt><trkpt lat="42.9573399" lon="13.8385088"><ele>64.0</ele><time>2026-05-02T13:52:02.477Z</time></trkpt><trkpt lat="42.9574422" lon="13.8383425"><ele>63.0</ele><time>2026-05-02T13:52:03.477Z</time></trkpt><trkpt lat="42.9575235" lon="13.8381576"><ele>62.0</ele><time>2026-05-02T13:52:04.477Z</time></trkpt><trkpt lat="42.9575921" lon="13.8379668"><ele>61.0</ele><time>2026-05-02T13:52:05.477Z</time></trkpt><trkpt lat="42.9576331" lon="13.837759"><ele>65.0</ele><time>2026-05-02T13:52:06.477Z</time></trkpt><trkpt lat="42.9576504" lon="13.8375341"><ele>69.0</ele><time>2026-05-02T13:52:07.476Z</time></trkpt><trkpt lat="42.9576729" lon="13.8372985"><ele>73.0</ele><time>2026-05-02T13:52:08.477Z</time></trkpt><trkpt lat="42.9576979" lon="13.8370696"><ele>73.0</ele><time>2026-05-02T13:52:09.477Z</time></trkpt><trkpt lat="42.9577266" lon="13.836829"><ele>73.0</ele><time>2026-05-02T13:52:10.477Z</time></trkpt><trkpt lat="42.9577449" lon="13.8365817"><ele>73.0</ele><time>2026-05-02T13:52:11.476Z</time></trkpt><trkpt lat="42.9577733" lon="13.8363453"><ele>73.0</ele><time>2026-05-02T13:52:12.477Z</time></trkpt><trkpt lat="42.9578008" lon="13.8361143"><ele>73.0</ele><time>2026-05-02T13:52:13.477Z</time></trkpt><trkpt lat="42.9578279" lon="13.8358817"><ele>73.0</ele><time>2026-05-02T13:52:14.477Z</time></trkpt><trkpt lat="42.957855" lon="13.8356411"><ele>73.0</ele><time>2026-05-02T13:52:15.476Z</time></trkpt><trkpt lat="42.9578756" lon="13.8353921"><ele>73.0</ele><time>2026-05-02T13:52:16.477Z</time></trkpt><trkpt lat="42.9579027" lon="13.8351526"><ele>73.0</ele><time>2026-05-02T13:52:17.477Z</time></trkpt><trkpt lat="42.957932" lon="13.8349133"><ele>74.66666666666666</ele><time>2026-05-02T13:52:18.477Z</time></trkpt><trkpt lat="42.9579598" lon="13.8346777"><ele>76.33333333333333</ele><time>2026-05-02T13:52:19.477Z</time></trkpt><trkpt lat="42.957985" lon="13.8344399"><ele>78.0</ele><time>2026-05-02T13:52:20.477Z</time></trkpt><trkpt lat="42.9580134" lon="13.8342019"><ele>78.33333333333333</ele><time>2026-05-02T13:52:21.477Z</time></trkpt><trkpt lat="42.958038" lon="13.8339764"><ele>78.66666666666666</ele><time>2026-05-02T13:52:22.477Z</time></trkpt><trkpt lat="42.958061" lon="13.8337446"><ele>79.0</ele><time>2026-05-02T13:52:23.477Z</time></trkpt><trkpt lat="42.9580866" lon="13.8335163"><ele>78.66666666666666</ele><time>2026-05-02T13:52:24.477Z</time></trkpt><trkpt lat="42.9581089" lon="13.8332857"><ele>78.33333333333333</ele><time>2026-05-02T13:52:25.477Z</time></trkpt><trkpt lat="42.9581257" lon="13.8330597"><ele>78.0</ele><time>2026-05-02T13:52:26.477Z</time></trkpt><trkpt lat="42.9581531" lon="13.8328429"><ele>78.0</ele><time>2026-05-02T13:52:27.477Z</time></trkpt><trkpt lat="42.9581927" lon="13.8326412"><ele>78.0</ele><time>2026-05-02T13:52:28.476Z</time></trkpt><trkpt lat="42.9582456" lon="13.8324366"><ele>78.0</ele><time>2026-05-02T13:52:29.476Z</time></trkpt><trkpt lat="42.9583033" lon="13.8322393"><ele>76.66666666666667</ele><time>2026-05-02T13:52:30.476Z</time></trkpt><trkpt lat="42.9583377" lon="13.8320415"><ele>75.33333333333334</ele><time>2026-05-02T13:52:31.477Z</time></trkpt><trkpt lat="42.9583322" lon="13.8318363"><ele>74.0</ele><time>2026-05-02T13:52:32.477Z</time></trkpt><trkpt lat="42.9582976" lon="13.831617"><ele>73.0</ele><time>2026-05-02T13:52:33.477Z</time></trkpt><trkpt lat="42.9582496" lon="13.8313991"><ele>72.0</ele><time>2026-05-02T13:52:34.477Z</time></trkpt><trkpt lat="42.958202" lon="13.8311752"><ele>71.0</ele><time>2026-05-02T13:52:35.477Z</time></trkpt><trkpt lat="42.9581494" lon="13.8309562"><ele>73.66666666666667</ele><time>2026-05-02T13:52:36.477Z</time></trkpt><trkpt lat="42.9581057" lon="13.8307423"><ele>76.33333333333333</ele><time>2026-05-02T13:52:37.477Z</time></trkpt><trkpt lat="42.9580669" lon="13.8305311"><ele>79.0</ele><time>2026-05-02T13:52:38.477Z</time></trkpt><trkpt lat="42.9580492" lon="13.8303213"><ele>80.66666666666666</ele><time>2026-05-02T13:52:39.477Z</time></trkpt><trkpt lat="42.9580572" lon="13.8301071"><ele>82.33333333333333</ele><time>2026-05-02T13:52:40.477Z</time></trkpt><trkpt lat="42.9580873" lon="13.8299048"><ele>84.0</ele><time>2026-05-02T13:52:41.477Z</time></trkpt><trkpt lat="42.9581188" lon="13.8297112"><ele>84.0</ele><time>2026-05-02T13:52:42.476Z</time></trkpt><trkpt lat="42.9581408" lon="13.8295046"><ele>84.0</ele><time>2026-05-02T13:52:43.477Z</time></trkpt><trkpt lat="42.9581289" lon="13.8292971"><ele>84.0</ele><time>2026-05-02T13:52:44.477Z</time></trkpt><trkpt lat="42.9580314" lon="13.8288949"><ele>84.0</ele><time>2026-05-02T13:52:46.476Z</time></trkpt><trkpt lat="42.9579679" lon="13.8286992"><ele>84.0</ele><time>2026-05-02T13:52:47.477Z</time></trkpt><trkpt lat="42.9578955" lon="13.8285099"><ele>84.0</ele><time>2026-05-02T13:52:48.476Z</time></trkpt><trkpt lat="42.9578313" lon="13.8283485"><ele>84.0</ele><time>2026-05-02T13:52:49.478Z</time></trkpt><trkpt lat="42.9577997" lon="13.8281699"><ele>84.0</ele><time>2026-05-02T13:52:50.478Z</time></trkpt><trkpt lat="42.957799" lon="13.8279777"><ele>84.0</ele><time>2026-05-02T13:52:51.476Z</time></trkpt><trkpt lat="42.9578147" lon="13.8277889"><ele>84.0</ele><time>2026-05-02T13:52:52.477Z</time></trkpt><trkpt lat="42.9578341" lon="13.8275855"><ele>84.0</ele><time>2026-05-02T13:52:53.477Z</time></trkpt><trkpt lat="42.9578545" lon="13.8273697"><ele>86.33333333333333</ele><time>2026-05-02T13:52:54.478Z</time></trkpt><trkpt lat="42.9578785" lon="13.8271593"><ele>88.66666666666666</ele><time>2026-05-02T13:52:55.478Z</time></trkpt><trkpt lat="42.9579038" lon="13.8269461"><ele>91.0</ele><time>2026-05-02T13:52:56.478Z</time></trkpt><trkpt lat="42.9579172" lon="13.8267306"><ele>91.66666666666666</ele><time>2026-05-02T13:52:57.478Z</time></trkpt><trkpt lat="42.9579089" lon="13.8265114"><ele>92.33333333333333</ele><time>2026-05-02T13:52:58.478Z</time></trkpt><trkpt lat="42.9578791" lon="13.8262923"><ele>93.0</ele><time>2026-05-02T13:52:59.478Z</time></trkpt><trkpt lat="42.9578366" lon="13.8260709"><ele>94.0</ele><time>2026-05-02T13:53:00.478Z</time></trkpt><trkpt lat="42.9577795" lon="13.8258535"><ele>95.0</ele><time>2026-05-02T13:53:01.478Z</time></trkpt><trkpt lat="42.9577132" lon="13.8256281"><ele>96.0</ele><time>2026-05-02T13:53:02.478Z</time></trkpt><trkpt lat="42.9576486" lon="13.8254057"><ele>96.0</ele><time>2026-05-02T13:53:03.478Z</time></trkpt><trkpt lat="42.9575908" lon="13.8251975"><ele>96.0</ele><time>2026-05-02T13:53:04.478Z</time></trkpt><trkpt lat="42.9575313" lon="13.8249787"><ele>96.0</ele><time>2026-05-02T13:53:05.478Z</time></trkpt><trkpt lat="42.9574724" lon="13.8247628"><ele>91.0</ele><time>2026-05-02T13:53:06.478Z</time></trkpt><trkpt lat="42.9574183" lon="13.8245393"><ele>86.0</ele><time>2026-05-02T13:53:07.478Z</time></trkpt><trkpt lat="42.9573667" lon="13.8243184"><ele>81.0</ele><time>2026-05-02T13:53:08.478Z</time></trkpt><trkpt lat="42.9573242" lon="13.8241068"><ele>81.0</ele><time>2026-05-02T13:53:09.478Z</time></trkpt><trkpt lat="42.9573024" lon="13.8238981"><ele>81.0</ele><time>2026-05-02T13:53:10.478Z</time></trkpt><trkpt lat="42.9573084" lon="13.8236916"><ele>81.0</ele><time>2026-05-02T13:53:11.477Z</time></trkpt><trkpt lat="42.9573361" lon="13.8234807"><ele>81.66666666666667</ele><time>2026-05-02T13:53:12.478Z</time></trkpt><trkpt lat="42.957369" lon="13.823274"><ele>82.33333333333334</ele><time>2026-05-02T13:53:13.477Z</time></trkpt><trkpt lat="42.9573902" lon="13.8230687"><ele>83.0</ele><time>2026-05-02T13:53:14.478Z</time></trkpt><trkpt lat="42.9573979" lon="13.8228577"><ele>84.0</ele><time>2026-05-02T13:53:15.478Z</time></trkpt><trkpt lat="42.9573767" lon="13.8226436"><ele>85.0</ele><time>2026-05-02T13:53:16.478Z</time></trkpt><trkpt lat="42.9573292" lon="13.8224333"><ele>86.0</ele><time>2026-05-02T13:53:17.478Z</time></trkpt><trkpt lat="42.957263" lon="13.822224"><ele>86.0</ele><time>2026-05-02T13:53:18.478Z</time></trkpt><trkpt lat="42.957199" lon="13.8220024"><ele>86.0</ele><time>2026-05-02T13:53:19.477Z</time></trkpt><trkpt lat="42.9571645" lon="13.8217789"><ele>86.0</ele><time>2026-05-02T13:53:20.478Z</time></trkpt><trkpt lat="42.9571523" lon="13.8215449"><ele>86.33333333333334</ele><time>2026-05-02T13:53:21.478Z</time></trkpt><trkpt lat="42.957161" lon="13.8213024"><ele>86.66666666666667</ele><time>2026-05-02T13:53:22.478Z</time></trkpt><trkpt lat="42.9571644" lon="13.8210699"><ele>87.0</ele><time>2026-05-02T13:53:23.478Z</time></trkpt><trkpt lat="42.9571637" lon="13.8208346"><ele>87.66666666666667</ele><time>2026-05-02T13:53:24.478Z</time></trkpt><trkpt lat="42.9571698" lon="13.8205952"><ele>88.33333333333334</ele><time>2026-05-02T13:53:25.478Z</time></trkpt><trkpt lat="42.9571662" lon="13.8203624"><ele>89.0</ele><time>2026-05-02T13:53:26.478Z</time></trkpt><trkpt lat="42.9571631" lon="13.8201347"><ele>89.0</ele><time>2026-05-02T13:53:27.478Z</time></trkpt><trkpt lat="42.957161" lon="13.819908"><ele>89.0</ele><time>2026-05-02T13:53:28.478Z</time></trkpt><trkpt lat="42.9571594" lon="13.8196774"><ele>89.0</ele><time>2026-05-02T13:53:29.478Z</time></trkpt><trkpt lat="42.9571537" lon="13.8194548"><ele>90.66666666666667</ele><time>2026-05-02T13:53:30.478Z</time></trkpt><trkpt lat="42.9571435" lon="13.8192286"><ele>92.33333333333333</ele><time>2026-05-02T13:53:31.478Z</time></trkpt><trkpt lat="42.9571278" lon="13.8190001"><ele>94.0</ele><time>2026-05-02T13:53:32.478Z</time></trkpt><trkpt lat="42.9570972" lon="13.8187729"><ele>94.0</ele><time>2026-05-02T13:53:33.478Z</time></trkpt><trkpt lat="42.9570539" lon="13.8185461"><ele>94.0</ele><time>2026-05-02T13:53:34.478Z</time></trkpt><trkpt lat="42.957003" lon="13.8183246"><ele>94.0</ele><time>2026-05-02T13:53:35.477Z</time></trkpt><trkpt lat="42.9569597" lon="13.8180988"><ele>94.33333333333333</ele><time>2026-05-02T13:53:36.478Z</time></trkpt><trkpt lat="42.9569099" lon="13.8178805"><ele>94.66666666666667</ele><time>2026-05-02T13:53:37.477Z</time></trkpt><trkpt lat="42.9568736" lon="13.8176778"><ele>95.0</ele><time>2026-05-02T13:53:38.478Z</time></trkpt><trkpt lat="42.9568281" lon="13.8174794"><ele>95.0</ele><time>2026-05-02T13:53:39.478Z</time></trkpt><trkpt lat="42.9567924" lon="13.8172873"><ele>95.0</ele><time>2026-05-02T13:53:40.478Z</time></trkpt><trkpt lat="42.956757" lon="13.8170979"><ele>95.0</ele><time>2026-05-02T13:53:41.478Z</time></trkpt><trkpt lat="42.9567354" lon="13.8169102"><ele>95.0</ele><time>2026-05-02T13:53:42.478Z</time></trkpt><trkpt lat="42.956732" lon="13.8167215"><ele>95.0</ele><time>2026-05-02T13:53:43.478Z</time></trkpt><trkpt lat="42.9567584" lon="13.8165408"><ele>95.0</ele><time>2026-05-02T13:53:44.478Z</time></trkpt><trkpt lat="42.9568023" lon="13.8163707"><ele>95.0</ele><time>2026-05-02T13:53:45.477Z</time></trkpt><trkpt lat="42.9568215" lon="13.8162086"><ele>95.0</ele><time>2026-05-02T13:53:46.478Z</time></trkpt><trkpt lat="42.9568096" lon="13.8160584"><ele>95.0</ele><time>2026-05-02T13:53:47.478Z</time></trkpt><trkpt lat="42.9567701" lon="13.8159095"><ele>95.0</ele><time>2026-05-02T13:53:48.478Z</time></trkpt><trkpt lat="42.9567043" lon="13.8157643"><ele>95.0</ele><time>2026-05-02T13:53:49.478Z</time></trkpt><trkpt lat="42.9566255" lon="13.8156151"><ele>95.0</ele><time>2026-05-02T13:53:50.478Z</time></trkpt><trkpt lat="42.9565326" lon="13.8154689"><ele>95.0</ele><time>2026-05-02T13:53:51.477Z</time></trkpt><trkpt lat="42.9564462" lon="13.8152975"><ele>95.0</ele><time>2026-05-02T13:53:52.478Z</time></trkpt><trkpt lat="42.956365" lon="13.8151145"><ele>95.0</ele><time>2026-05-02T13:53:53.478Z</time></trkpt><trkpt lat="42.9562984" lon="13.8149252"><ele>96.66666666666667</ele><time>2026-05-02T13:53:54.479Z</time></trkpt><trkpt lat="42.9562398" lon="13.8147292"><ele>98.33333333333334</ele><time>2026-05-02T13:53:55.478Z</time></trkpt><trkpt lat="42.9561994" lon="13.8145219"><ele>100.0</ele><time>2026-05-02T13:53:56.478Z</time></trkpt><trkpt lat="42.9561672" lon="13.8143237"><ele>101.66666666666667</ele><time>2026-05-02T13:53:57.479Z</time></trkpt><trkpt lat="42.9561192" lon="13.8141195"><ele>103.33333333333334</ele><time>2026-05-02T13:53:58.479Z</time></trkpt><trkpt lat="42.9560639" lon="13.8139101"><ele>105.0</ele><time>2026-05-02T13:53:59.479Z</time></trkpt><trkpt lat="42.9560053" lon="13.8136949"><ele>105.0</ele><time>2026-05-02T13:54:00.479Z</time></trkpt><trkpt lat="42.9559365" lon="13.8134894"><ele>105.0</ele><time>2026-05-02T13:54:01.479Z</time></trkpt><trkpt lat="42.9558491" lon="13.8132987"><ele>105.0</ele><time>2026-05-02T13:54:02.479Z</time></trkpt><trkpt lat="42.9557593" lon="13.8131183"><ele>104.33333333333334</ele><time>2026-05-02T13:54:03.478Z</time></trkpt><trkpt lat="42.9556678" lon="13.8129253"><ele>103.66666666666667</ele><time>2026-05-02T13:54:04.479Z</time></trkpt><trkpt lat="42.9555894" lon="13.8127238"><ele>103.0</ele><time>2026-05-02T13:54:05.478Z</time></trkpt><trkpt lat="42.9555286" lon="13.8125296"><ele>103.0</ele><time>2026-05-02T13:54:06.479Z</time></trkpt><trkpt lat="42.9554749" lon="13.8123247"><ele>103.0</ele><time>2026-05-02T13:54:07.479Z</time></trkpt><trkpt lat="42.9554394" lon="13.8121187"><ele>103.0</ele><time>2026-05-02T13:54:08.479Z</time></trkpt><trkpt lat="42.9553982" lon="13.8119286"><ele>104.75</ele><time>2026-05-02T13:54:09.479Z</time></trkpt><trkpt lat="42.9553307" lon="13.8117684"><ele>106.5</ele><time>2026-05-02T13:54:10.478Z</time></trkpt><trkpt lat="42.955257" lon="13.8115915"><ele>108.25</ele><time>2026-05-02T13:54:11.478Z</time></trkpt><trkpt lat="42.955158" lon="13.8114409"><ele>110.0</ele><time>2026-05-02T13:54:12.479Z</time></trkpt><trkpt lat="42.9550389" lon="13.8113065"><ele>108.66666666666666</ele><time>2026-05-02T13:54:13.478Z</time></trkpt><trkpt lat="42.9549134" lon="13.8111558"><ele>107.33333333333334</ele><time>2026-05-02T13:54:14.479Z</time></trkpt><trkpt lat="42.9548019" lon="13.8109944"><ele>106.0</ele><time>2026-05-02T13:54:15.479Z</time></trkpt><trkpt lat="42.9546966" lon="13.8108358"><ele>106.0</ele><time>2026-05-02T13:54:16.478Z</time></trkpt><trkpt lat="42.9545933" lon="13.810668"><ele>106.0</ele><time>2026-05-02T13:54:17.479Z</time></trkpt><trkpt lat="42.9544873" lon="13.8105124"><ele>106.0</ele><time>2026-05-02T13:54:18.479Z</time></trkpt><trkpt lat="42.9543971" lon="13.8103601"><ele>106.0</ele><time>2026-05-02T13:54:19.479Z</time></trkpt><trkpt lat="42.9543248" lon="13.8102077"><ele>106.0</ele><time>2026-05-02T13:54:20.478Z</time></trkpt><trkpt lat="42.9542859" lon="13.8100329"><ele>106.0</ele><time>2026-05-02T13:54:21.478Z</time></trkpt><trkpt lat="42.9542587" lon="13.8098406"><ele>106.0</ele><time>2026-05-02T13:54:22.479Z</time></trkpt><trkpt lat="42.9542537" lon="13.8096387"><ele>109.0</ele><time>2026-05-02T13:54:23.479Z</time></trkpt><trkpt lat="42.9542456" lon="13.8094362"><ele>112.0</ele><time>2026-05-02T13:54:24.478Z</time></trkpt><trkpt lat="42.9542388" lon="13.8092239"><ele>115.0</ele><time>2026-05-02T13:54:25.479Z</time></trkpt><trkpt lat="42.9542304" lon="13.8090158"><ele>117.0</ele><time>2026-05-02T13:54:26.479Z</time></trkpt><trkpt lat="42.95422" lon="13.8088025"><ele>119.0</ele><time>2026-05-02T13:54:27.478Z</time></trkpt><trkpt lat="42.9542078" lon="13.8085923"><ele>121.0</ele><time>2026-05-02T13:54:28.479Z</time></trkpt><trkpt lat="42.9541971" lon="13.8083822"><ele>122.0</ele><time>2026-05-02T13:54:29.478Z</time></trkpt><trkpt lat="42.9541935" lon="13.808164"><ele>123.0</ele><time>2026-05-02T13:54:30.479Z</time></trkpt><trkpt lat="42.9542103" lon="13.8079443"><ele>124.0</ele><time>2026-05-02T13:54:31.479Z</time></trkpt><trkpt lat="42.954239" lon="13.8077203"><ele>125.33333333333334</ele><time>2026-05-02T13:54:32.479Z</time></trkpt><trkpt lat="42.9542705" lon="13.8074936"><ele>126.66666666666666</ele><time>2026-05-02T13:54:33.479Z</time></trkpt><trkpt lat="42.9543044" lon="13.8072673"><ele>128.0</ele><time>2026-05-02T13:54:34.478Z</time></trkpt><trkpt lat="42.9543507" lon="13.8070442"><ele>128.0</ele><time>2026-05-02T13:54:35.479Z</time></trkpt><trkpt lat="42.9544025" lon="13.8068337"><ele>128.0</ele><time>2026-05-02T13:54:36.479Z</time></trkpt><trkpt lat="42.9544599" lon="13.8066341"><ele>128.0</ele><time>2026-05-02T13:54:37.479Z</time></trkpt><trkpt lat="42.9545152" lon="13.8064415"><ele>128.25</ele><time>2026-05-02T13:54:38.479Z</time></trkpt><trkpt lat="42.9545449" lon="13.8062518"><ele>128.5</ele><time>2026-05-02T13:54:39.478Z</time></trkpt><trkpt lat="42.9545399" lon="13.8060538"><ele>128.75</ele><time>2026-05-02T13:54:40.478Z</time></trkpt><trkpt lat="42.9545049" lon="13.8058642"><ele>129.0</ele><time>2026-05-02T13:54:41.479Z</time></trkpt><trkpt lat="42.954431" lon="13.8056679"><ele>129.25</ele><time>2026-05-02T13:54:42.479Z</time></trkpt><trkpt lat="42.9543628" lon="13.8054846"><ele>129.5</ele><time>2026-05-02T13:54:43.479Z</time></trkpt><trkpt lat="42.9543111" lon="13.8052966"><ele>129.75</ele><time>2026-05-02T13:54:44.48Z</time></trkpt><trkpt lat="42.9542848" lon="13.8051013"><ele>130.0</ele><time>2026-05-02T13:54:45.479Z</time></trkpt><trkpt lat="42.9542926" lon="13.8048769"><ele>130.0</ele><time>2026-05-02T13:54:46.479Z</time></trkpt><trkpt lat="42.9543101" lon="13.8046406"><ele>130.0</ele><time>2026-05-02T13:54:47.479Z</time></trkpt><trkpt lat="42.9543356" lon="13.8044083"><ele>130.0</ele><time>2026-05-02T13:54:48.478Z</time></trkpt><trkpt lat="42.954362" lon="13.8041715"><ele>133.33333333333334</ele><time>2026-05-02T13:54:49.479Z</time></trkpt><trkpt lat="42.9543914" lon="13.8039381"><ele>136.66666666666666</ele><time>2026-05-02T13:54:50.478Z</time></trkpt><trkpt lat="42.9544139" lon="13.803701"><ele>140.0</ele><time>2026-05-02T13:54:51.478Z</time></trkpt><trkpt lat="42.9544309" lon="13.8034692"><ele>140.66666666666666</ele><time>2026-05-02T13:54:52.479Z</time></trkpt><trkpt lat="42.9544476" lon="13.803244"><ele>141.33333333333334</ele><time>2026-05-02T13:54:53.478Z</time></trkpt><trkpt lat="42.9544453" lon="13.8030378"><ele>142.0</ele><time>2026-05-02T13:54:54.479Z</time></trkpt><trkpt lat="42.9544241" lon="13.802829"><ele>144.0</ele><time>2026-05-02T13:54:55.479Z</time></trkpt><trkpt lat="42.9543837" lon="13.8026246"><ele>146.0</ele><time>2026-05-02T13:54:56.479Z</time></trkpt><trkpt lat="42.9543194" lon="13.8024245"><ele>148.0</ele><time>2026-05-02T13:54:57.478Z</time></trkpt><trkpt lat="42.9542558" lon="13.802214"><ele>143.0</ele><time>2026-05-02T13:54:58.48Z</time></trkpt><trkpt lat="42.9541822" lon="13.8020007"><ele>138.0</ele><time>2026-05-02T13:54:59.479Z</time></trkpt><trkpt lat="42.9541223" lon="13.8017863"><ele>133.0</ele><time>2026-05-02T13:55:00.479Z</time></trkpt><trkpt lat="42.9540634" lon="13.8015686"><ele>133.0</ele><time>2026-05-02T13:55:01.48Z</time></trkpt><trkpt lat="42.9539999" lon="13.801355"><ele>133.0</ele><time>2026-05-02T13:55:02.48Z</time></trkpt><trkpt lat="42.9539352" lon="13.8011492"><ele>133.0</ele><time>2026-05-02T13:55:03.479Z</time></trkpt><trkpt lat="42.9538709" lon="13.8009423"><ele>132.66666666666669</ele><time>2026-05-02T13:55:04.48Z</time></trkpt><trkpt lat="42.9538135" lon="13.800736"><ele>132.33333333333334</ele><time>2026-05-02T13:55:05.48Z</time></trkpt><trkpt lat="42.953766" lon="13.8005389"><ele>132.0</ele><time>2026-05-02T13:55:06.48Z</time></trkpt><trkpt lat="42.9537448" lon="13.8003388"><ele>133.0</ele><time>2026-05-02T13:55:07.48Z</time></trkpt><trkpt lat="42.9537466" lon="13.8001359"><ele>134.0</ele><time>2026-05-02T13:55:08.48Z</time></trkpt><trkpt lat="42.9537644" lon="13.7999187"><ele>135.0</ele><time>2026-05-02T13:55:09.48Z</time></trkpt><trkpt lat="42.9537986" lon="13.7996948"><ele>135.0</ele><time>2026-05-02T13:55:10.48Z</time></trkpt><trkpt lat="42.9538376" lon="13.7994679"><ele>135.0</ele><time>2026-05-02T13:55:11.48Z</time></trkpt><trkpt lat="42.9538715" lon="13.7992387"><ele>135.0</ele><time>2026-05-02T13:55:12.48Z</time></trkpt><trkpt lat="42.9539077" lon="13.7990041"><ele>136.33333333333334</ele><time>2026-05-02T13:55:13.48Z</time></trkpt><trkpt lat="42.9539491" lon="13.7987744"><ele>137.66666666666669</ele><time>2026-05-02T13:55:14.48Z</time></trkpt><trkpt lat="42.9539843" lon="13.7985454"><ele>139.0</ele><time>2026-05-02T13:55:15.48Z</time></trkpt><trkpt lat="42.9540194" lon="13.7983138"><ele>141.33333333333334</ele><time>2026-05-02T13:55:16.48Z</time></trkpt><trkpt lat="42.9540419" lon="13.7980814"><ele>143.66666666666666</ele><time>2026-05-02T13:55:17.48Z</time></trkpt><trkpt lat="42.9540579" lon="13.7978351"><ele>146.0</ele><time>2026-05-02T13:55:18.48Z</time></trkpt><trkpt lat="42.9540736" lon="13.7975905"><ele>147.66666666666666</ele><time>2026-05-02T13:55:19.48Z</time></trkpt><trkpt lat="42.954087" lon="13.797353"><ele>149.33333333333334</ele><time>2026-05-02T13:55:20.48Z</time></trkpt><trkpt lat="42.9541075" lon="13.7971183"><ele>151.0</ele><time>2026-05-02T13:55:21.48Z</time></trkpt><trkpt lat="42.9541318" lon="13.7968754"><ele>152.33333333333334</ele><time>2026-05-02T13:55:22.48Z</time></trkpt><trkpt lat="42.9541533" lon="13.7966346"><ele>153.66666666666666</ele><time>2026-05-02T13:55:23.48Z</time></trkpt><trkpt lat="42.9541772" lon="13.7963928"><ele>155.0</ele><time>2026-05-02T13:55:24.48Z</time></trkpt><trkpt lat="42.9541961" lon="13.7961469"><ele>155.33333333333331</ele><time>2026-05-02T13:55:25.48Z</time></trkpt><trkpt lat="42.9542172" lon="13.7959018"><ele>155.66666666666666</ele><time>2026-05-02T13:55:26.48Z</time></trkpt><trkpt lat="42.954237" lon="13.7956492"><ele>156.0</ele><time>2026-05-02T13:55:27.48Z</time></trkpt><trkpt lat="42.9542384" lon="13.7954007"><ele>156.33333333333334</ele><time>2026-05-02T13:55:28.48Z</time></trkpt><trkpt lat="42.9542359" lon="13.7951414"><ele>156.66666666666669</ele><time>2026-05-02T13:55:29.48Z</time></trkpt><trkpt lat="42.9542332" lon="13.7948833"><ele>157.0</ele><time>2026-05-02T13:55:30.48Z</time></trkpt><trkpt lat="42.9542261" lon="13.794631"><ele>157.0</ele><time>2026-05-02T13:55:31.479Z</time></trkpt><trkpt lat="42.9542247" lon="13.7943796"><ele>157.0</ele><time>2026-05-02T13:55:32.48Z</time></trkpt><trkpt lat="42.9542218" lon="13.7941261"><ele>157.0</ele><time>2026-05-02T13:55:33.48Z</time></trkpt><trkpt lat="42.9542128" lon="13.7938742"><ele>157.66666666666669</ele><time>2026-05-02T13:55:34.479Z</time></trkpt><trkpt lat="42.9542096" lon="13.7936309"><ele>158.33333333333334</ele><time>2026-05-02T13:55:35.479Z</time></trkpt><trkpt lat="42.9542064" lon="13.7933827"><ele>159.0</ele><time>2026-05-02T13:55:36.48Z</time></trkpt><trkpt lat="42.9542043" lon="13.7931378"><ele>161.0</ele><time>2026-05-02T13:55:37.479Z</time></trkpt><trkpt lat="42.9542091" lon="13.7928923"><ele>163.0</ele><time>2026-05-02T13:55:38.48Z</time></trkpt><trkpt lat="42.9542084" lon="13.7926553"><ele>165.0</ele><time>2026-05-02T13:55:39.48Z</time></trkpt><trkpt lat="42.9542092" lon="13.7924321"><ele>168.75</ele><time>2026-05-02T13:55:40.48Z</time></trkpt><trkpt lat="42.9541955" lon="13.7922371"><ele>172.5</ele><time>2026-05-02T13:55:41.48Z</time></trkpt><trkpt lat="42.9541671" lon="13.7920525"><ele>176.25</ele><time>2026-05-02T13:55:42.48Z</time></trkpt><trkpt lat="42.9541284" lon="13.7918707"><ele>180.0</ele><time>2026-05-02T13:55:43.479Z</time></trkpt><trkpt lat="42.9540721" lon="13.7916912"><ele>180.0</ele><time>2026-05-02T13:55:44.479Z</time></trkpt><trkpt lat="42.9540001" lon="13.7915225"><ele>180.0</ele><time>2026-05-02T13:55:45.48Z</time></trkpt><trkpt lat="42.9539212" lon="13.7913467"><ele>180.0</ele><time>2026-05-02T13:55:46.48Z</time></trkpt><trkpt lat="42.9538514" lon="13.7911654"><ele>180.0</ele><time>2026-05-02T13:55:47.48Z</time></trkpt><trkpt lat="42.9538379" lon="13.7910125"><ele>181.0</ele><time>2026-05-02T13:55:48.48Z</time></trkpt><trkpt lat="42.9538469" lon="13.7908889"><ele>182.0</ele><time>2026-05-02T13:55:49.48Z</time></trkpt><trkpt lat="42.9538956" lon="13.790794"><ele>183.0</ele><time>2026-05-02T13:55:50.479Z</time></trkpt><trkpt lat="42.9539665" lon="13.7907366"><ele>184.0</ele><time>2026-05-02T13:55:51.48Z</time></trkpt><trkpt lat="42.9540709" lon="13.7906796"><ele>185.0</ele><time>2026-05-02T13:55:52.48Z</time></trkpt><trkpt lat="42.9542067" lon="13.7906344"><ele>183.25</ele><time>2026-05-02T13:55:53.48Z</time></trkpt><trkpt lat="42.9543063" lon="13.7905485"><ele>181.5</ele><time>2026-05-02T13:55:54.48Z</time></trkpt><trkpt lat="42.9543905" lon="13.7904353"><ele>179.75</ele><time>2026-05-02T13:55:55.48Z</time></trkpt><trkpt lat="42.9544495" lon="13.7903042"><ele>178.0</ele><time>2026-05-02T13:55:56.481Z</time></trkpt><trkpt lat="42.9545048" lon="13.7901592"><ele>178.0</ele><time>2026-05-02T13:55:57.48Z</time></trkpt><trkpt lat="42.9545255" lon="13.7899697"><ele>178.0</ele><time>2026-05-02T13:55:58.48Z</time></trkpt><trkpt lat="42.9545395" lon="13.789764"><ele>178.0</ele><time>2026-05-02T13:55:59.48Z</time></trkpt><trkpt lat="42.9545498" lon="13.7895512"><ele>178.0</ele><time>2026-05-02T13:56:00.48Z</time></trkpt><trkpt lat="42.9545314" lon="13.7893449"><ele>180.0</ele><time>2026-05-02T13:56:01.48Z</time></trkpt><trkpt lat="42.9545237" lon="13.7891386"><ele>182.0</ele><time>2026-05-02T13:56:02.48Z</time></trkpt><trkpt lat="42.954509" lon="13.7889223"><ele>184.0</ele><time>2026-05-02T13:56:03.48Z</time></trkpt><trkpt lat="42.9544881" lon="13.7887007"><ele>185.66666666666669</ele><time>2026-05-02T13:56:04.481Z</time></trkpt><trkpt lat="42.9544743" lon="13.7884775"><ele>187.33333333333334</ele><time>2026-05-02T13:56:05.481Z</time></trkpt><trkpt lat="42.954467" lon="13.7882595"><ele>189.0</ele><time>2026-05-02T13:56:06.481Z</time></trkpt><trkpt lat="42.9544507" lon="13.7880421"><ele>189.0</ele><time>2026-05-02T13:56:07.481Z</time></trkpt><trkpt lat="42.9544363" lon="13.7878291"><ele>189.0</ele><time>2026-05-02T13:56:08.481Z</time></trkpt><trkpt lat="42.9544242" lon="13.7876144"><ele>189.0</ele><time>2026-05-02T13:56:09.481Z</time></trkpt><trkpt lat="42.9544198" lon="13.7873974"><ele>191.33333333333331</ele><time>2026-05-02T13:56:10.481Z</time></trkpt><trkpt lat="42.9544189" lon="13.7871811"><ele>193.66666666666666</ele><time>2026-05-02T13:56:11.481Z</time></trkpt><trkpt lat="42.9544177" lon="13.7869674"><ele>196.0</ele><time>2026-05-02T13:56:12.481Z</time></trkpt><trkpt lat="42.9544181" lon="13.7867493"><ele>198.0</ele><time>2026-05-02T13:56:13.481Z</time></trkpt><trkpt lat="42.9544196" lon="13.786524"><ele>200.0</ele><time>2026-05-02T13:56:14.48Z</time></trkpt><trkpt lat="42.9544354" lon="13.7863001"><ele>202.0</ele><time>2026-05-02T13:56:15.48Z</time></trkpt><trkpt lat="42.9544486" lon="13.7860783"><ele>204.0</ele><time>2026-05-02T13:56:16.481Z</time></trkpt><trkpt lat="42.9544597" lon="13.785855"><ele>206.0</ele><time>2026-05-02T13:56:17.481Z</time></trkpt><trkpt lat="42.9544635" lon="13.7856311"><ele>208.0</ele><time>2026-05-02T13:56:18.481Z</time></trkpt><trkpt lat="42.9544597" lon="13.785401"><ele>209.66666666666666</ele><time>2026-05-02T13:56:19.481Z</time></trkpt><trkpt lat="42.9544607" lon="13.7851734"><ele>211.33333333333331</ele><time>2026-05-02T13:56:20.481Z</time></trkpt><trkpt lat="42.9544606" lon="13.7849504"><ele>213.0</ele><time>2026-05-02T13:56:21.481Z</time></trkpt><trkpt lat="42.9544621" lon="13.7847339"><ele>213.0</ele><time>2026-05-02T13:56:22.481Z</time></trkpt><trkpt lat="42.9544727" lon="13.7845207"><ele>213.0</ele><time>2026-05-02T13:56:23.481Z</time></trkpt><trkpt lat="42.9545082" lon="13.7843164"><ele>213.0</ele><time>2026-05-02T13:56:24.481Z</time></trkpt><trkpt lat="42.9545442" lon="13.7841183"><ele>215.75</ele><time>2026-05-02T13:56:25.481Z</time></trkpt><trkpt lat="42.9545832" lon="13.7839359"><ele>218.5</ele><time>2026-05-02T13:56:26.481Z</time></trkpt><trkpt lat="42.954623" lon="13.7837723"><ele>221.25</ele><time>2026-05-02T13:56:27.481Z</time></trkpt><trkpt lat="42.9546561" lon="13.7836333"><ele>224.0</ele><time>2026-05-02T13:56:28.481Z</time></trkpt><trkpt lat="42.9547023" lon="13.7835211"><ele>225.79999999999998</ele><time>2026-05-02T13:56:29.48Z</time></trkpt><trkpt lat="42.9547674" lon="13.7834492"><ele>227.59999999999997</ele><time>2026-05-02T13:56:30.481Z</time></trkpt><trkpt lat="42.9548483" lon="13.7834101"><ele>229.4</ele><time>2026-05-02T13:56:31.481Z</time></trkpt><trkpt lat="42.9549435" lon="13.7834393"><ele>231.2</ele><time>2026-05-02T13:56:32.481Z</time></trkpt><trkpt lat="42.9550406" lon="13.7835184"><ele>233.0</ele><time>2026-05-02T13:56:33.481Z</time></trkpt><trkpt lat="42.9551305" lon="13.7836329"><ele>234.25</ele><time>2026-05-02T13:56:34.481Z</time></trkpt><trkpt lat="42.9552213" lon="13.7837625"><ele>235.5</ele><time>2026-05-02T13:56:35.481Z</time></trkpt><trkpt lat="42.9553031" lon="13.7838847"><ele>236.75</ele><time>2026-05-02T13:56:36.481Z</time></trkpt><trkpt lat="42.9553874" lon="13.7839892"><ele>238.0</ele><time>2026-05-02T13:56:37.481Z</time></trkpt><trkpt lat="42.9554608" lon="13.7840574"><ele>238.0</ele><time>2026-05-02T13:56:38.481Z</time></trkpt><trkpt lat="42.955544" lon="13.7840973"><ele>238.0</ele><time>2026-05-02T13:56:39.481Z</time></trkpt><trkpt lat="42.9556503" lon="13.7840472"><ele>238.0</ele><time>2026-05-02T13:56:41.481Z</time></trkpt><trkpt lat="42.9557019" lon="13.783861"><ele>238.0</ele><time>2026-05-02T13:56:43.481Z</time></trkpt><trkpt lat="42.9556693" lon="13.7837382"><ele>238.0</ele><time>2026-05-02T13:56:44.481Z</time></trkpt><trkpt lat="42.9556151" lon="13.7835993"><ele>240.75</ele><time>2026-05-02T13:56:45.481Z</time></trkpt><trkpt lat="42.9555501" lon="13.7834675"><ele>243.5</ele><time>2026-05-02T13:56:46.481Z</time></trkpt><trkpt lat="42.9554849" lon="13.7833236"><ele>246.25</ele><time>2026-05-02T13:56:47.481Z</time></trkpt><trkpt lat="42.9554284" lon="13.7831575"><ele>249.0</ele><time>2026-05-02T13:56:48.481Z</time></trkpt><trkpt lat="42.9553877" lon="13.7830043"><ele>249.0</ele><time>2026-05-02T13:56:49.48Z</time></trkpt><trkpt lat="42.9553539" lon="13.7828365"><ele>249.0</ele><time>2026-05-02T13:56:50.481Z</time></trkpt><trkpt lat="42.9553381" lon="13.782651"><ele>249.0</ele><time>2026-05-02T13:56:51.48Z</time></trkpt><trkpt lat="42.9553455" lon="13.7824604"><ele>249.0</ele><time>2026-05-02T13:56:52.481Z</time></trkpt><trkpt lat="42.9553738" lon="13.7822857"><ele>251.5</ele><time>2026-05-02T13:56:53.481Z</time></trkpt><trkpt lat="42.9554213" lon="13.7821076"><ele>254.0</ele><time>2026-05-02T13:56:54.481Z</time></trkpt><trkpt lat="42.9554771" lon="13.7819356"><ele>256.5</ele><time>2026-05-02T13:56:55.481Z</time></trkpt><trkpt lat="42.9555185" lon="13.7817662"><ele>259.0</ele><time>2026-05-02T13:56:56.48Z</time></trkpt><trkpt lat="42.9555253" lon="13.7816042"><ele>261.3333333333333</ele><time>2026-05-02T13:56:57.481Z</time></trkpt><trkpt lat="42.9555083" lon="13.7814487"><ele>263.6666666666667</ele><time>2026-05-02T13:56:58.48Z</time></trkpt><trkpt lat="42.9554031" lon="13.7811248"><ele>266.0</ele><time>2026-05-02T13:57:00.481Z</time></trkpt><trkpt lat="42.9553288" lon="13.7809693"><ele>264.5</ele><time>2026-05-02T13:57:01.481Z</time></trkpt><trkpt lat="42.9552477" lon="13.7807995"><ele>263.0</ele><time>2026-05-02T13:57:02.481Z</time></trkpt><trkpt lat="42.9551566" lon="13.7806394"><ele>261.5</ele><time>2026-05-02T13:57:03.481Z</time></trkpt><trkpt lat="42.9550607" lon="13.7804838"><ele>260.0</ele><time>2026-05-02T13:57:04.481Z</time></trkpt><trkpt lat="42.9549709" lon="13.7803533"><ele>260.0</ele><time>2026-05-02T13:57:05.481Z</time></trkpt><trkpt lat="42.9548798" lon="13.7802561"><ele>260.0</ele><time>2026-05-02T13:57:06.482Z</time></trkpt><trkpt lat="42.9547877" lon="13.7801717"><ele>260.0</ele><time>2026-05-02T13:57:07.481Z</time></trkpt><trkpt lat="42.9547144" lon="13.7800867"><ele>260.0</ele><time>2026-05-02T13:57:08.482Z</time></trkpt><trkpt lat="42.9546363" lon="13.7800408"><ele>260.0</ele><time>2026-05-02T13:57:09.482Z</time></trkpt><trkpt lat="42.9545001" lon="13.7800293"><ele>261.83333333333337</ele><time>2026-05-02T13:57:10.482Z</time></trkpt><trkpt lat="42.9543962" lon="13.7800191"><ele>263.6666666666667</ele><time>2026-05-02T13:57:11.482Z</time></trkpt><trkpt lat="42.9542962" lon="13.7800213"><ele>265.5</ele><time>2026-05-02T13:57:12.482Z</time></trkpt><trkpt lat="42.9542131" lon="13.7800572"><ele>267.3333333333333</ele><time>2026-05-02T13:57:13.482Z</time></trkpt><trkpt lat="42.9541406" lon="13.7800784"><ele>269.16666666666663</ele><time>2026-05-02T13:57:14.482Z</time></trkpt><trkpt lat="42.9540755" lon="13.780105"><ele>271.0</ele><time>2026-05-02T13:57:15.482Z</time></trkpt><trkpt lat="42.9540037" lon="13.780134"><ele>271.0</ele><time>2026-05-02T13:57:17.482Z</time></trkpt><trkpt lat="42.9539339" lon="13.7801193"><ele>271.0</ele><time>2026-05-02T13:57:20.481Z</time></trkpt><trkpt lat="42.9539084" lon="13.7799469"><ele>271.0</ele><time>2026-05-02T13:57:22.481Z</time></trkpt><trkpt lat="42.9539056" lon="13.779834"><ele>271.0</ele><time>2026-05-02T13:57:23.481Z</time></trkpt><trkpt lat="42.9538952" lon="13.7797069"><ele>271.0</ele><time>2026-05-02T13:57:24.481Z</time></trkpt><trkpt lat="42.953882" lon="13.7795647"><ele>271.0</ele><time>2026-05-02T13:57:25.481Z</time></trkpt><trkpt lat="42.9538565" lon="13.7794181"><ele>271.0</ele><time>2026-05-02T13:57:26.482Z</time></trkpt><trkpt lat="42.9538146" lon="13.7792719"><ele>271.0</ele><time>2026-05-02T13:57:27.482Z</time></trkpt><trkpt lat="42.9537529" lon="13.7791341"><ele>271.0</ele><time>2026-05-02T13:57:28.482Z</time></trkpt><trkpt lat="42.9536727" lon="13.7789997"><ele>273.0</ele><time>2026-05-02T13:57:29.482Z</time></trkpt><trkpt lat="42.9535719" lon="13.7788624"><ele>275.0</ele><time>2026-05-02T13:57:30.482Z</time></trkpt><trkpt lat="42.9534585" lon="13.7787288"><ele>277.0</ele><time>2026-05-02T13:57:31.482Z</time></trkpt><trkpt lat="42.9533503" lon="13.7785892"><ele>279.0</ele><time>2026-05-02T13:57:32.482Z</time></trkpt><trkpt lat="42.953247" lon="13.778451"><ele>279.0</ele><time>2026-05-02T13:57:33.482Z</time></trkpt><trkpt lat="42.9531418" lon="13.7783162"><ele>279.0</ele><time>2026-05-02T13:57:34.482Z</time></trkpt><trkpt lat="42.9530389" lon="13.7781989"><ele>279.0</ele><time>2026-05-02T13:57:35.482Z</time></trkpt><trkpt lat="42.9529247" lon="13.7781018"><ele>279.0</ele><time>2026-05-02T13:57:36.482Z</time></trkpt><trkpt lat="42.9528094" lon="13.7780303"><ele>279.0</ele><time>2026-05-02T13:57:37.481Z</time></trkpt><trkpt lat="42.9526884" lon="13.7779786"><ele>279.0</ele><time>2026-05-02T13:57:38.482Z</time></trkpt><trkpt lat="42.9525576" lon="13.7779515"><ele>279.0</ele><time>2026-05-02T13:57:39.482Z</time></trkpt><trkpt lat="42.9524401" lon="13.7779432"><ele>279.0</ele><time>2026-05-02T13:57:40.481Z</time></trkpt><trkpt lat="42.9523304" lon="13.7779177"><ele>279.75</ele><time>2026-05-02T13:57:41.482Z</time></trkpt><trkpt lat="42.9522203" lon="13.7778657"><ele>280.5</ele><time>2026-05-02T13:57:42.482Z</time></trkpt><trkpt lat="42.9521275" lon="13.777774"><ele>281.25</ele><time>2026-05-02T13:57:43.482Z</time></trkpt><trkpt lat="42.952048" lon="13.7776421"><ele>282.0</ele><time>2026-05-02T13:57:44.482Z</time></trkpt><trkpt lat="42.951998" lon="13.77749"><ele>282.0</ele><time>2026-05-02T13:57:45.481Z</time></trkpt><trkpt lat="42.9519632" lon="13.7773216"><ele>282.0</ele><time>2026-05-02T13:57:46.482Z</time></trkpt><trkpt lat="42.9519367" lon="13.7771507"><ele>282.0</ele><time>2026-05-02T13:57:47.482Z</time></trkpt><trkpt lat="42.9519388" lon="13.777005"><ele>282.0</ele><time>2026-05-02T13:57:48.482Z</time></trkpt><trkpt lat="42.9520168" lon="13.7768806"><ele>280.3333333333333</ele><time>2026-05-02T13:57:49.482Z</time></trkpt><trkpt lat="42.952152" lon="13.7767729"><ele>278.66666666666663</ele><time>2026-05-02T13:57:50.481Z</time></trkpt><trkpt lat="42.9522985" lon="13.7766904"><ele>277.0</ele><time>2026-05-02T13:57:51.482Z</time></trkpt><trkpt lat="42.9524383" lon="13.7765996"><ele>281.66666666666663</ele><time>2026-05-02T13:57:52.482Z</time></trkpt><trkpt lat="42.9525798" lon="13.7765087"><ele>286.3333333333333</ele><time>2026-05-02T13:57:53.482Z</time></trkpt><trkpt lat="42.9527239" lon="13.7764096"><ele>291.0</ele><time>2026-05-02T13:57:54.482Z</time></trkpt><trkpt lat="42.9528761" lon="13.7763008"><ele>291.0</ele><time>2026-05-02T13:57:55.482Z</time></trkpt><trkpt lat="42.9530198" lon="13.7761657"><ele>291.0</ele><time>2026-05-02T13:57:56.482Z</time></trkpt><trkpt lat="42.9531526" lon="13.7760196"><ele>291.0</ele><time>2026-05-02T13:57:57.482Z</time></trkpt><trkpt lat="42.9532895" lon="13.7758644"><ele>293.3333333333333</ele><time>2026-05-02T13:57:58.482Z</time></trkpt><trkpt lat="42.9534193" lon="13.7757067"><ele>295.66666666666663</ele><time>2026-05-02T13:57:59.482Z</time></trkpt><trkpt lat="42.953546" lon="13.7755577"><ele>298.0</ele><time>2026-05-02T13:58:00.482Z</time></trkpt><trkpt lat="42.953661" lon="13.7754003"><ele>298.0</ele><time>2026-05-02T13:58:01.482Z</time></trkpt><trkpt lat="42.9537616" lon="13.7752409"><ele>298.0</ele><time>2026-05-02T13:58:02.482Z</time></trkpt><trkpt lat="42.9538347" lon="13.7750543"><ele>298.0</ele><time>2026-05-02T13:58:03.481Z</time></trkpt><trkpt lat="42.9539236" lon="13.7748816"><ele>297.75</ele><time>2026-05-02T13:58:04.482Z</time></trkpt><trkpt lat="42.9540029" lon="13.7747282"><ele>297.5</ele><time>2026-05-02T13:58:05.482Z</time></trkpt><trkpt lat="42.9540966" lon="13.7746014"><ele>297.25</ele><time>2026-05-02T13:58:06.482Z</time></trkpt><trkpt lat="42.9542113" lon="13.7744846"><ele>297.0</ele><time>2026-05-02T13:58:07.482Z</time></trkpt><trkpt lat="42.9543358" lon="13.7743796"><ele>293.75</ele><time>2026-05-02T13:58:08.482Z</time></trkpt><trkpt lat="42.954467" lon="13.7742755"><ele>290.5</ele><time>2026-05-02T13:58:09.482Z</time></trkpt><trkpt lat="42.9545834" lon="13.7741472"><ele>287.25</ele><time>2026-05-02T13:58:10.483Z</time></trkpt><trkpt lat="42.9546533" lon="13.7739915"><ele>284.0</ele><time>2026-05-02T13:58:11.483Z</time></trkpt><trkpt lat="42.9546902" lon="13.7737942"><ele>284.0</ele><time>2026-05-02T13:58:12.483Z</time></trkpt><trkpt lat="42.9546986" lon="13.7735738"><ele>284.0</ele><time>2026-05-02T13:58:13.482Z</time></trkpt><trkpt lat="42.9546986" lon="13.7733511"><ele>284.0</ele><time>2026-05-02T13:58:14.483Z</time></trkpt><trkpt lat="42.9546998" lon="13.7731321"><ele>281.33333333333337</ele><time>2026-05-02T13:58:15.482Z</time></trkpt><trkpt lat="42.9547088" lon="13.7729213"><ele>278.6666666666667</ele><time>2026-05-02T13:58:16.482Z</time></trkpt><trkpt lat="42.9547235" lon="13.7727147"><ele>276.0</ele><time>2026-05-02T13:58:17.483Z</time></trkpt><trkpt lat="42.9547406" lon="13.7725126"><ele>276.0</ele><time>2026-05-02T13:58:18.483Z</time></trkpt><trkpt lat="42.954754" lon="13.7723175"><ele>276.0</ele><time>2026-05-02T13:58:19.483Z</time></trkpt><trkpt lat="42.9547595" lon="13.7721264"><ele>276.0</ele><time>2026-05-02T13:58:20.483Z</time></trkpt><trkpt lat="42.9547495" lon="13.7719367"><ele>276.0</ele><time>2026-05-02T13:58:21.483Z</time></trkpt><trkpt lat="42.9547239" lon="13.7717406"><ele>277.5</ele><time>2026-05-02T13:58:22.483Z</time></trkpt><trkpt lat="42.9546803" lon="13.7715498"><ele>279.0</ele><time>2026-05-02T13:58:23.483Z</time></trkpt><trkpt lat="42.9546246" lon="13.7713647"><ele>280.5</ele><time>2026-05-02T13:58:24.483Z</time></trkpt><trkpt lat="42.954549" lon="13.7712031"><ele>282.0</ele><time>2026-05-02T13:58:25.483Z</time></trkpt><trkpt lat="42.9544545" lon="13.7710453"><ele>282.75</ele><time>2026-05-02T13:58:26.482Z</time></trkpt><trkpt lat="42.9543629" lon="13.7708998"><ele>283.5</ele><time>2026-05-02T13:58:27.482Z</time></trkpt><trkpt lat="42.9542601" lon="13.7707671"><ele>284.25</ele><time>2026-05-02T13:58:28.483Z</time></trkpt><trkpt lat="42.9541648" lon="13.7706605"><ele>285.0</ele><time>2026-05-02T13:58:29.483Z</time></trkpt><trkpt lat="42.9540595" lon="13.7705635"><ele>282.25</ele><time>2026-05-02T13:58:30.483Z</time></trkpt><trkpt lat="42.95396" lon="13.7705101"><ele>279.5</ele><time>2026-05-02T13:58:31.483Z</time></trkpt><trkpt lat="42.9538608" lon="13.77045"><ele>276.75</ele><time>2026-05-02T13:58:32.483Z</time></trkpt><trkpt lat="42.9537422" lon="13.7703976"><ele>274.0</ele><time>2026-05-02T13:58:33.483Z</time></trkpt><trkpt lat="42.9536215" lon="13.7703423"><ele>274.0</ele><time>2026-05-02T13:58:34.483Z</time></trkpt><trkpt lat="42.9534832" lon="13.7702792"><ele>274.0</ele><time>2026-05-02T13:58:35.483Z</time></trkpt><trkpt lat="42.9533116" lon="13.770246"><ele>274.0</ele><time>2026-05-02T13:58:36.483Z</time></trkpt><trkpt lat="42.9531188" lon="13.7702311"><ele>271.5</ele><time>2026-05-02T13:58:37.482Z</time></trkpt><trkpt lat="42.9529827" lon="13.7701622"><ele>269.0</ele><time>2026-05-02T13:58:38.483Z</time></trkpt><trkpt lat="42.9528666" lon="13.7700671"><ele>266.5</ele><time>2026-05-02T13:58:39.483Z</time></trkpt><trkpt lat="42.9527666" lon="13.7699357"><ele>264.0</ele><time>2026-05-02T13:58:40.483Z</time></trkpt><trkpt lat="42.9526761" lon="13.7697898"><ele>264.0</ele><time>2026-05-02T13:58:41.483Z</time></trkpt><trkpt lat="42.9525977" lon="13.76963"><ele>264.0</ele><time>2026-05-02T13:58:42.483Z</time></trkpt><trkpt lat="42.9525309" lon="13.769459"><ele>264.0</ele><time>2026-05-02T13:58:43.483Z</time></trkpt><trkpt lat="42.952463" lon="13.7692912"><ele>264.0</ele><time>2026-05-02T13:58:44.483Z</time></trkpt><trkpt lat="42.9523959" lon="13.769117"><ele>264.0</ele><time>2026-05-02T13:58:45.483Z</time></trkpt><trkpt lat="42.9523467" lon="13.7689352"><ele>264.0</ele><time>2026-05-02T13:58:46.483Z</time></trkpt><trkpt lat="42.9523128" lon="13.7687339"><ele>264.0</ele><time>2026-05-02T13:58:47.483Z</time></trkpt><trkpt lat="42.9522952" lon="13.7685124"><ele>264.0</ele><time>2026-05-02T13:58:48.483Z</time></trkpt><trkpt lat="42.9522924" lon="13.7682814"><ele>264.0</ele><time>2026-05-02T13:58:49.482Z</time></trkpt><trkpt lat="42.9523021" lon="13.7680323"><ele>264.0</ele><time>2026-05-02T13:58:50.482Z</time></trkpt><trkpt lat="42.9523074" lon="13.7677735"><ele>264.6666666666667</ele><time>2026-05-02T13:58:51.483Z</time></trkpt><trkpt lat="42.952325" lon="13.7675138"><ele>265.33333333333337</ele><time>2026-05-02T13:58:52.483Z</time></trkpt><trkpt lat="42.9523315" lon="13.7672678"><ele>266.0</ele><time>2026-05-02T13:58:53.483Z</time></trkpt><trkpt lat="42.9523418" lon="13.7670119"><ele>268.33333333333337</ele><time>2026-05-02T13:58:54.483Z</time></trkpt><trkpt lat="42.952354" lon="13.7667677"><ele>270.6666666666667</ele><time>2026-05-02T13:58:55.483Z</time></trkpt><trkpt lat="42.9523784" lon="13.7665335"><ele>273.0</ele><time>2026-05-02T13:58:56.483Z</time></trkpt><trkpt lat="42.9524207" lon="13.7663094"><ele>273.0</ele><time>2026-05-02T13:58:57.483Z</time></trkpt><trkpt lat="42.9524755" lon="13.7660972"><ele>273.0</ele><time>2026-05-02T13:58:58.483Z</time></trkpt><trkpt lat="42.9525336" lon="13.7659"><ele>273.0</ele><time>2026-05-02T13:58:59.482Z</time></trkpt><trkpt lat="42.9525929" lon="13.7656932"><ele>269.0</ele><time>2026-05-02T13:59:00.483Z</time></trkpt><trkpt lat="42.9526456" lon="13.7654843"><ele>265.0</ele><time>2026-05-02T13:59:01.483Z</time></trkpt><trkpt lat="42.9526964" lon="13.765268"><ele>261.0</ele><time>2026-05-02T13:59:02.482Z</time></trkpt><trkpt lat="42.9527508" lon="13.7650422"><ele>261.0</ele><time>2026-05-02T13:59:03.483Z</time></trkpt><trkpt lat="42.95281" lon="13.7648243"><ele>261.0</ele><time>2026-05-02T13:59:04.483Z</time></trkpt><trkpt lat="42.9528728" lon="13.7646096"><ele>261.0</ele><time>2026-05-02T13:59:05.483Z</time></trkpt><trkpt lat="42.9529368" lon="13.7643966"><ele>263.6666666666667</ele><time>2026-05-02T13:59:06.483Z</time></trkpt><trkpt lat="42.9529964" lon="13.7641917"><ele>266.33333333333337</ele><time>2026-05-02T13:59:07.483Z</time></trkpt><trkpt lat="42.9530611" lon="13.7639928"><ele>269.0</ele><time>2026-05-02T13:59:08.483Z</time></trkpt><trkpt lat="42.9531383" lon="13.7637962"><ele>269.0</ele><time>2026-05-02T13:59:09.483Z</time></trkpt><trkpt lat="42.9532273" lon="13.7636137"><ele>269.0</ele><time>2026-05-02T13:59:10.483Z</time></trkpt><trkpt lat="42.9533385" lon="13.7634344"><ele>269.0</ele><time>2026-05-02T13:59:11.483Z</time></trkpt><trkpt lat="42.9534609" lon="13.7632591"><ele>265.6666666666667</ele><time>2026-05-02T13:59:12.483Z</time></trkpt><trkpt lat="42.95359" lon="13.763083"><ele>262.3333333333333</ele><time>2026-05-02T13:59:13.484Z</time></trkpt><trkpt lat="42.9537054" lon="13.7629173"><ele>259.0</ele><time>2026-05-02T13:59:14.484Z</time></trkpt><trkpt lat="42.9538122" lon="13.7627485"><ele>264.66666666666663</ele><time>2026-05-02T13:59:15.484Z</time></trkpt><trkpt lat="42.9539141" lon="13.7625654"><ele>270.3333333333333</ele><time>2026-05-02T13:59:16.484Z</time></trkpt><trkpt lat="42.9540109" lon="13.7623613"><ele>276.0</ele><time>2026-05-02T13:59:17.484Z</time></trkpt><trkpt lat="42.9541072" lon="13.7621484"><ele>276.0</ele><time>2026-05-02T13:59:18.484Z</time></trkpt><trkpt lat="42.9541972" lon="13.7619332"><ele>276.0</ele><time>2026-05-02T13:59:19.484Z</time></trkpt><trkpt lat="42.9542869" lon="13.7617336"><ele>276.0</ele><time>2026-05-02T13:59:20.484Z</time></trkpt><trkpt lat="42.9543814" lon="13.7615663"><ele>276.25</ele><time>2026-05-02T13:59:21.484Z</time></trkpt><trkpt lat="42.9544683" lon="13.761407"><ele>276.5</ele><time>2026-05-02T13:59:22.484Z</time></trkpt><trkpt lat="42.9545571" lon="13.7612458"><ele>276.75</ele><time>2026-05-02T13:59:23.484Z</time></trkpt><trkpt lat="42.9546383" lon="13.7610736"><ele>277.0</ele><time>2026-05-02T13:59:24.484Z</time></trkpt><trkpt lat="42.9547108" lon="13.7608942"><ele>277.0</ele><time>2026-05-02T13:59:25.484Z</time></trkpt><trkpt lat="42.9547718" lon="13.7607114"><ele>277.0</ele><time>2026-05-02T13:59:26.484Z</time></trkpt><trkpt lat="42.9548089" lon="13.7605135"><ele>277.0</ele><time>2026-05-02T13:59:27.484Z</time></trkpt><trkpt lat="42.9548249" lon="13.760313"><ele>277.0</ele><time>2026-05-02T13:59:28.484Z</time></trkpt><trkpt lat="42.9548188" lon="13.7601063"><ele>278.0</ele><time>2026-05-02T13:59:29.484Z</time></trkpt><trkpt lat="42.954792" lon="13.7599035"><ele>279.0</ele><time>2026-05-02T13:59:30.484Z</time></trkpt><trkpt lat="42.9547525" lon="13.7597004"><ele>280.0</ele><time>2026-05-02T13:59:31.484Z</time></trkpt><trkpt lat="42.9547268" lon="13.7594793"><ele>280.3333333333333</ele><time>2026-05-02T13:59:32.484Z</time></trkpt><trkpt lat="42.954712" lon="13.7592506"><ele>280.6666666666667</ele><time>2026-05-02T13:59:33.484Z</time></trkpt><trkpt lat="42.9547195" lon="13.7590353"><ele>281.0</ele><time>2026-05-02T13:59:34.484Z</time></trkpt><trkpt lat="42.9547338" lon="13.7588234"><ele>281.0</ele><time>2026-05-02T13:59:35.484Z</time></trkpt><trkpt lat="42.9547434" lon="13.7586227"><ele>281.0</ele><time>2026-05-02T13:59:36.483Z</time></trkpt><trkpt lat="42.9547474" lon="13.7584386"><ele>281.0</ele><time>2026-05-02T13:59:37.484Z</time></trkpt><trkpt lat="42.9547514" lon="13.7582551"><ele>281.0</ele><time>2026-05-02T13:59:38.484Z</time></trkpt><trkpt lat="42.9547537" lon="13.7580702"><ele>281.75</ele><time>2026-05-02T13:59:39.484Z</time></trkpt><trkpt lat="42.9547548" lon="13.7578745"><ele>282.5</ele><time>2026-05-02T13:59:40.484Z</time></trkpt><trkpt lat="42.9547558" lon="13.7576753"><ele>283.25</ele><time>2026-05-02T13:59:41.484Z</time></trkpt><trkpt lat="42.9547568" lon="13.7574725"><ele>284.0</ele><time>2026-05-02T13:59:42.484Z</time></trkpt><trkpt lat="42.9547589" lon="13.7572689"><ele>284.5</ele><time>2026-05-02T13:59:43.483Z</time></trkpt><trkpt lat="42.954762" lon="13.7570854"><ele>285.0</ele><time>2026-05-02T13:59:44.484Z</time></trkpt><trkpt lat="42.9547595" lon="13.7569011"><ele>285.5</ele><time>2026-05-02T13:59:45.484Z</time></trkpt><trkpt lat="42.954764" lon="13.7567222"><ele>286.0</ele><time>2026-05-02T13:59:46.483Z</time></trkpt><trkpt lat="42.9547643" lon="13.7565528"><ele>286.0</ele><time>2026-05-02T13:59:47.484Z</time></trkpt><trkpt lat="42.9547756" lon="13.7563994"><ele>286.0</ele><time>2026-05-02T13:59:48.484Z</time></trkpt><trkpt lat="42.9548143" lon="13.7562456"><ele>286.0</ele><time>2026-05-02T13:59:49.484Z</time></trkpt><trkpt lat="42.9548832" lon="13.7561231"><ele>286.0</ele><time>2026-05-02T13:59:50.484Z</time></trkpt><trkpt lat="42.954983" lon="13.7560276"><ele>281.0</ele><time>2026-05-02T13:59:51.484Z</time></trkpt><trkpt lat="42.9551041" lon="13.7559678"><ele>276.0</ele><time>2026-05-02T13:59:52.484Z</time></trkpt><trkpt lat="42.9552374" lon="13.7559336"><ele>271.0</ele><time>2026-05-02T13:59:53.484Z</time></trkpt><trkpt lat="42.9553836" lon="13.7559179"><ele>266.0</ele><time>2026-05-02T13:59:54.483Z</time></trkpt><trkpt lat="42.9555316" lon="13.7559293"><ele>266.0</ele><time>2026-05-02T13:59:55.484Z</time></trkpt><trkpt lat="42.9556719" lon="13.7559712"><ele>266.0</ele><time>2026-05-02T13:59:56.483Z</time></trkpt><trkpt lat="42.9558015" lon="13.7560349"><ele>266.0</ele><time>2026-05-02T13:59:57.484Z</time></trkpt><trkpt lat="42.9559167" lon="13.7561086"><ele>266.0</ele><time>2026-05-02T13:59:58.484Z</time></trkpt><trkpt lat="42.9560369" lon="13.756172"><ele>265.75</ele><time>2026-05-02T13:59:59.484Z</time></trkpt><trkpt lat="42.9561569" lon="13.7562051"><ele>265.5</ele><time>2026-05-02T14:00:00.483Z</time></trkpt><trkpt lat="42.9562921" lon="13.7562186"><ele>265.25</ele><time>2026-05-02T14:00:01.484Z</time></trkpt><trkpt lat="42.9564271" lon="13.7562003"><ele>265.0</ele><time>2026-05-02T14:00:02.483Z</time></trkpt><trkpt lat="42.9565529" lon="13.7561364"><ele>265.5</ele><time>2026-05-02T14:00:03.484Z</time></trkpt><trkpt lat="42.9566783" lon="13.7560231"><ele>266.0</ele><time>2026-05-02T14:00:04.484Z</time></trkpt><trkpt lat="42.9567834" lon="13.7558957"><ele>266.5</ele><time>2026-05-02T14:00:05.484Z</time></trkpt><trkpt lat="42.95689" lon="13.7557554"><ele>267.0</ele><time>2026-05-02T14:00:06.484Z</time></trkpt><trkpt lat="42.9570051" lon="13.7556006"><ele>268.25</ele><time>2026-05-02T14:00:07.484Z</time></trkpt><trkpt lat="42.9571104" lon="13.7554709"><ele>269.5</ele><time>2026-05-02T14:00:08.484Z</time></trkpt><trkpt lat="42.9572237" lon="13.7553253"><ele>270.75</ele><time>2026-05-02T14:00:09.484Z</time></trkpt><trkpt lat="42.9573318" lon="13.755183"><ele>272.0</ele><time>2026-05-02T14:00:10.484Z</time></trkpt><trkpt lat="42.957436" lon="13.7550609"><ele>272.0</ele><time>2026-05-02T14:00:11.483Z</time></trkpt><trkpt lat="42.9575352" lon="13.7549388"><ele>272.0</ele><time>2026-05-02T14:00:12.483Z</time></trkpt><trkpt lat="42.957631" lon="13.7548278"><ele>272.0</ele><time>2026-05-02T14:00:13.485Z</time></trkpt><trkpt lat="42.9577192" lon="13.7547151"><ele>272.0</ele><time>2026-05-02T14:00:14.484Z</time></trkpt><trkpt lat="42.9577937" lon="13.7545872"><ele>268.75</ele><time>2026-05-02T14:00:15.484Z</time></trkpt><trkpt lat="42.9578601" lon="13.7544258"><ele>265.5</ele><time>2026-05-02T14:00:16.483Z</time></trkpt><trkpt lat="42.9579159" lon="13.7542525"><ele>262.25</ele><time>2026-05-02T14:00:17.484Z</time></trkpt><trkpt lat="42.9579572" lon="13.7540721"><ele>259.0</ele><time>2026-05-02T14:00:18.484Z</time></trkpt><trkpt lat="42.9579761" lon="13.753874"><ele>259.0</ele><time>2026-05-02T14:00:19.485Z</time></trkpt><trkpt lat="42.9579913" lon="13.7536383"><ele>259.0</ele><time>2026-05-02T14:00:20.484Z</time></trkpt><trkpt lat="42.9580171" lon="13.7534127"><ele>259.0</ele><time>2026-05-02T14:00:21.484Z</time></trkpt><trkpt lat="42.9580579" lon="13.7532155"><ele>262.3333333333333</ele><time>2026-05-02T14:00:22.484Z</time></trkpt><trkpt lat="42.9581138" lon="13.7530201"><ele>265.6666666666667</ele><time>2026-05-02T14:00:23.484Z</time></trkpt><trkpt lat="42.9581819" lon="13.7528148"><ele>269.0</ele><time>2026-05-02T14:00:24.485Z</time></trkpt><trkpt lat="42.9582557" lon="13.752615"><ele>271.6666666666667</ele><time>2026-05-02T14:00:25.485Z</time></trkpt><trkpt lat="42.9583315" lon="13.7524132"><ele>274.3333333333333</ele><time>2026-05-02T14:00:26.485Z</time></trkpt><trkpt lat="42.9584036" lon="13.7522085"><ele>277.0</ele><time>2026-05-02T14:00:27.485Z</time></trkpt><trkpt lat="42.9584716" lon="13.7520026"><ele>272.0</ele><time>2026-05-02T14:00:28.485Z</time></trkpt><trkpt lat="42.9585457" lon="13.7517875"><ele>267.0</ele><time>2026-05-02T14:00:29.485Z</time></trkpt><trkpt lat="42.958626" lon="13.7515768"><ele>262.0</ele><time>2026-05-02T14:00:30.484Z</time></trkpt><trkpt lat="42.9587076" lon="13.751372"><ele>262.0</ele><time>2026-05-02T14:00:31.485Z</time></trkpt><trkpt lat="42.9587873" lon="13.7511649"><ele>262.0</ele><time>2026-05-02T14:00:32.485Z</time></trkpt><trkpt lat="42.9588685" lon="13.7509626"><ele>262.0</ele><time>2026-05-02T14:00:33.485Z</time></trkpt><trkpt lat="42.9589541" lon="13.7507687"><ele>258.66666666666663</ele><time>2026-05-02T14:00:34.485Z</time></trkpt><trkpt lat="42.9590475" lon="13.7505758"><ele>255.33333333333331</ele><time>2026-05-02T14:00:35.485Z</time></trkpt><trkpt lat="42.9591539" lon="13.7503887"><ele>252.0</ele><time>2026-05-02T14:00:36.485Z</time></trkpt><trkpt lat="42.959267" lon="13.7502212"><ele>256.6666666666667</ele><time>2026-05-02T14:00:37.485Z</time></trkpt><trkpt lat="42.9593839" lon="13.750058"><ele>261.33333333333337</ele><time>2026-05-02T14:00:38.485Z</time></trkpt><trkpt lat="42.9595072" lon="13.7499166"><ele>266.0</ele><time>2026-05-02T14:00:39.485Z</time></trkpt><trkpt lat="42.9596116" lon="13.7497689"><ele>266.0</ele><time>2026-05-02T14:00:40.485Z</time></trkpt><trkpt lat="42.9597088" lon="13.7496281"><ele>266.0</ele><time>2026-05-02T14:00:41.485Z</time></trkpt><trkpt lat="42.959795" lon="13.7495021"><ele>266.0</ele><time>2026-05-02T14:00:42.485Z</time></trkpt><trkpt lat="42.9598785" lon="13.7493636"><ele>266.0</ele><time>2026-05-02T14:00:43.484Z</time></trkpt><trkpt lat="42.9599401" lon="13.7492192"><ele>268.6</ele><time>2026-05-02T14:00:44.485Z</time></trkpt><trkpt lat="42.9599608" lon="13.7490749"><ele>271.20000000000005</ele><time>2026-05-02T14:00:45.485Z</time></trkpt><trkpt lat="42.9599443" lon="13.7489279"><ele>273.79999999999995</ele><time>2026-05-02T14:00:46.485Z</time></trkpt><trkpt lat="42.9598898" lon="13.7487869"><ele>276.4</ele><time>2026-05-02T14:00:47.485Z</time></trkpt><trkpt lat="42.9598256" lon="13.7486604"><ele>279.0</ele><time>2026-05-02T14:00:48.484Z</time></trkpt><trkpt lat="42.9597175" lon="13.7485687"><ele>277.0</ele><time>2026-05-02T14:00:49.485Z</time></trkpt><trkpt lat="42.9596052" lon="13.7484687"><ele>275.0</ele><time>2026-05-02T14:00:50.485Z</time></trkpt><trkpt lat="42.9595132" lon="13.7483254"><ele>273.0</ele><time>2026-05-02T14:00:51.484Z</time></trkpt><trkpt lat="42.9594345" lon="13.7481694"><ele>271.0</ele><time>2026-05-02T14:00:52.485Z</time></trkpt><trkpt lat="42.9593758" lon="13.7479987"><ele>271.0</ele><time>2026-05-02T14:00:53.484Z</time></trkpt><trkpt lat="42.9593204" lon="13.7478195"><ele>271.0</ele><time>2026-05-02T14:00:54.485Z</time></trkpt><trkpt lat="42.9592837" lon="13.7476393"><ele>271.0</ele><time>2026-05-02T14:00:55.485Z</time></trkpt><trkpt lat="42.9592667" lon="13.7474501"><ele>271.0</ele><time>2026-05-02T14:00:56.485Z</time></trkpt><trkpt lat="42.9592709" lon="13.7472491"><ele>265.66666666666663</ele><time>2026-05-02T14:00:57.485Z</time></trkpt><trkpt lat="42.9592856" lon="13.7470375"><ele>260.3333333333333</ele><time>2026-05-02T14:00:58.485Z</time></trkpt><trkpt lat="42.959295" lon="13.7468314"><ele>255.0</ele><time>2026-05-02T14:00:59.485Z</time></trkpt><trkpt lat="42.9593049" lon="13.7466304"><ele>253.75</ele><time>2026-05-02T14:01:00.484Z</time></trkpt><trkpt lat="42.9593216" lon="13.7464376"><ele>252.5</ele><time>2026-05-02T14:01:01.485Z</time></trkpt><trkpt lat="42.9593568" lon="13.7462442"><ele>251.25</ele><time>2026-05-02T14:01:02.485Z</time></trkpt><trkpt lat="42.9594193" lon="13.7460472"><ele>250.0</ele><time>2026-05-02T14:01:03.485Z</time></trkpt><trkpt lat="42.9594913" lon="13.7458468"><ele>253.33333333333331</ele><time>2026-05-02T14:01:04.485Z</time></trkpt><trkpt lat="42.9595676" lon="13.7456382"><ele>256.6666666666667</ele><time>2026-05-02T14:01:05.485Z</time></trkpt><trkpt lat="42.9596438" lon="13.7454217"><ele>260.0</ele><time>2026-05-02T14:01:06.485Z</time></trkpt><trkpt lat="42.9597224" lon="13.745215"><ele>262.6666666666667</ele><time>2026-05-02T14:01:07.484Z</time></trkpt><trkpt lat="42.9597918" lon="13.7450169"><ele>265.3333333333333</ele><time>2026-05-02T14:01:08.485Z</time></trkpt><trkpt lat="42.9598595" lon="13.7448279"><ele>268.0</ele><time>2026-05-02T14:01:09.485Z</time></trkpt><trkpt lat="42.9599176" lon="13.7446485"><ele>268.0</ele><time>2026-05-02T14:01:10.485Z</time></trkpt><trkpt lat="42.9599634" lon="13.744455"><ele>268.0</ele><time>2026-05-02T14:01:11.485Z</time></trkpt><trkpt lat="42.9599865" lon="13.7442505"><ele>268.0</ele><time>2026-05-02T14:01:12.485Z</time></trkpt><trkpt lat="42.9599931" lon="13.7440335"><ele>268.66666666666663</ele><time>2026-05-02T14:01:13.485Z</time></trkpt><trkpt lat="42.9599816" lon="13.743806"><ele>269.3333333333333</ele><time>2026-05-02T14:01:14.485Z</time></trkpt><trkpt lat="42.9599804" lon="13.743576"><ele>270.0</ele><time>2026-05-02T14:01:15.485Z</time></trkpt><trkpt lat="42.9599816" lon="13.7433531"><ele>270.0</ele><time>2026-05-02T14:01:16.485Z</time></trkpt><trkpt lat="42.9600029" lon="13.7431342"><ele>270.0</ele><time>2026-05-02T14:01:17.485Z</time></trkpt><trkpt lat="42.9600282" lon="13.7429199"><ele>270.0</ele><time>2026-05-02T14:01:18.485Z</time></trkpt><trkpt lat="42.9600438" lon="13.7427305"><ele>270.0</ele><time>2026-05-02T14:01:19.486Z</time></trkpt><trkpt lat="42.9600497" lon="13.7425419"><ele>270.0</ele><time>2026-05-02T14:01:20.486Z</time></trkpt><trkpt lat="42.9600276" lon="13.7423627"><ele>270.0</ele><time>2026-05-02T14:01:21.486Z</time></trkpt><trkpt lat="42.9599863" lon="13.7421887"><ele>270.0</ele><time>2026-05-02T14:01:22.486Z</time></trkpt><trkpt lat="42.9599443" lon="13.7420096"><ele>268.6666666666667</ele><time>2026-05-02T14:01:23.485Z</time></trkpt><trkpt lat="42.9598811" lon="13.7418202"><ele>267.33333333333337</ele><time>2026-05-02T14:01:24.486Z</time></trkpt><trkpt lat="42.959826" lon="13.7416205"><ele>266.0</ele><time>2026-05-02T14:01:25.486Z</time></trkpt><trkpt lat="42.9597934" lon="13.7414123"><ele>266.0</ele><time>2026-05-02T14:01:26.486Z</time></trkpt><trkpt lat="42.959786" lon="13.7412045"><ele>266.0</ele><time>2026-05-02T14:01:27.486Z</time></trkpt><trkpt lat="42.9597935" lon="13.7409991"><ele>266.0</ele><time>2026-05-02T14:01:28.486Z</time></trkpt><trkpt lat="42.9598203" lon="13.7407993"><ele>265.33333333333337</ele><time>2026-05-02T14:01:29.486Z</time></trkpt><trkpt lat="42.9598705" lon="13.7406067"><ele>264.6666666666667</ele><time>2026-05-02T14:01:30.486Z</time></trkpt><trkpt lat="42.9599455" lon="13.7404224"><ele>264.0</ele><time>2026-05-02T14:01:31.486Z</time></trkpt><trkpt lat="42.9600314" lon="13.7402472"><ele>258.0</ele><time>2026-05-02T14:01:32.486Z</time></trkpt><trkpt lat="42.9601472" lon="13.7400767"><ele>252.0</ele><time>2026-05-02T14:01:33.486Z</time></trkpt><trkpt lat="42.9602573" lon="13.7399079"><ele>246.0</ele><time>2026-05-02T14:01:34.486Z</time></trkpt><trkpt lat="42.9603746" lon="13.7397343"><ele>246.0</ele><time>2026-05-02T14:01:35.486Z</time></trkpt><trkpt lat="42.9604891" lon="13.7395664"><ele>246.0</ele><time>2026-05-02T14:01:36.486Z</time></trkpt><trkpt lat="42.9606007" lon="13.7394131"><ele>246.0</ele><time>2026-05-02T14:01:37.486Z</time></trkpt><trkpt lat="42.9607012" lon="13.7392606"><ele>250.0</ele><time>2026-05-02T14:01:38.486Z</time></trkpt><trkpt lat="42.960794" lon="13.7391105"><ele>254.0</ele><time>2026-05-02T14:01:39.486Z</time></trkpt><trkpt lat="42.9608948" lon="13.7389509"><ele>258.0</ele><time>2026-05-02T14:01:40.485Z</time></trkpt><trkpt lat="42.9609819" lon="13.7387764"><ele>250.66666666666669</ele><time>2026-05-02T14:01:41.485Z</time></trkpt><trkpt lat="42.9610592" lon="13.7385924"><ele>243.33333333333334</ele><time>2026-05-02T14:01:42.486Z</time></trkpt><trkpt lat="42.9611261" lon="13.7383988"><ele>236.0</ele><time>2026-05-02T14:01:43.486Z</time></trkpt><trkpt lat="42.96118" lon="13.7382001"><ele>236.0</ele><time>2026-05-02T14:01:44.486Z</time></trkpt><trkpt lat="42.9612242" lon="13.7380129"><ele>236.0</ele><time>2026-05-02T14:01:45.486Z</time></trkpt><trkpt lat="42.961262" lon="13.7378424"><ele>236.0</ele><time>2026-05-02T14:01:46.486Z</time></trkpt><trkpt lat="42.9612896" lon="13.7376933"><ele>236.0</ele><time>2026-05-02T14:01:47.486Z</time></trkpt><trkpt lat="42.9613035" lon="13.7375647"><ele>236.8</ele><time>2026-05-02T14:01:48.486Z</time></trkpt><trkpt lat="42.961292" lon="13.7374465"><ele>237.60000000000002</ele><time>2026-05-02T14:01:49.486Z</time></trkpt><trkpt lat="42.9612548" lon="13.7373466"><ele>238.4</ele><time>2026-05-02T14:01:50.485Z</time></trkpt><trkpt lat="42.9611823" lon="13.7372474"><ele>239.2</ele><time>2026-05-02T14:01:51.486Z</time></trkpt><trkpt lat="42.9610866" lon="13.7371754"><ele>240.0</ele><time>2026-05-02T14:01:52.486Z</time></trkpt><trkpt lat="42.9609811" lon="13.737111"><ele>245.0</ele><time>2026-05-02T14:01:53.486Z</time></trkpt><trkpt lat="42.9608271" lon="13.7370851"><ele>250.0</ele><time>2026-05-02T14:01:54.486Z</time></trkpt><trkpt lat="42.9607028" lon="13.7370538"><ele>255.0</ele><time>2026-05-02T14:01:55.486Z</time></trkpt><trkpt lat="42.9605738" lon="13.7370258"><ele>260.0</ele><time>2026-05-02T14:01:56.486Z</time></trkpt><trkpt lat="42.9604471" lon="13.736987"><ele>260.0</ele><time>2026-05-02T14:01:57.486Z</time></trkpt><trkpt lat="42.960328" lon="13.736943"><ele>260.0</ele><time>2026-05-02T14:01:58.486Z</time></trkpt><trkpt lat="42.960218" lon="13.7368779"><ele>260.0</ele><time>2026-05-02T14:01:59.486Z</time></trkpt><trkpt lat="42.960124" lon="13.7367812"><ele>260.0</ele><time>2026-05-02T14:02:00.486Z</time></trkpt><trkpt lat="42.960061" lon="13.7366557"><ele>258.0</ele><time>2026-05-02T14:02:01.486Z</time></trkpt><trkpt lat="42.960023" lon="13.7365113"><ele>256.0</ele><time>2026-05-02T14:02:02.486Z</time></trkpt><trkpt lat="42.9600196" lon="13.7363569"><ele>254.0</ele><time>2026-05-02T14:02:03.486Z</time></trkpt><trkpt lat="42.9600427" lon="13.7361771"><ele>252.0</ele><time>2026-05-02T14:02:04.486Z</time></trkpt><trkpt lat="42.9600751" lon="13.7359889"><ele>247.75</ele><time>2026-05-02T14:02:05.486Z</time></trkpt><trkpt lat="42.9601004" lon="13.7358053"><ele>243.5</ele><time>2026-05-02T14:02:06.486Z</time></trkpt><trkpt lat="42.960117" lon="13.7356109"><ele>239.25</ele><time>2026-05-02T14:02:07.485Z</time></trkpt><trkpt lat="42.9601193" lon="13.7354036"><ele>235.0</ele><time>2026-05-02T14:02:08.486Z</time></trkpt><trkpt lat="42.9601198" lon="13.7351936"><ele>235.0</ele><time>2026-05-02T14:02:09.487Z</time></trkpt><trkpt lat="42.960103" lon="13.7349735"><ele>235.0</ele><time>2026-05-02T14:02:10.486Z</time></trkpt><trkpt lat="42.9600729" lon="13.7347547"><ele>235.0</ele><time>2026-05-02T14:02:11.486Z</time></trkpt><trkpt lat="42.9600336" lon="13.7345382"><ele>240.0</ele><time>2026-05-02T14:02:12.486Z</time></trkpt><trkpt lat="42.9599806" lon="13.7343231"><ele>245.0</ele><time>2026-05-02T14:02:13.486Z</time></trkpt><trkpt lat="42.959932" lon="13.7341183"><ele>250.0</ele><time>2026-05-02T14:02:14.486Z</time></trkpt><trkpt lat="42.959888" lon="13.7339233"><ele>250.0</ele><time>2026-05-02T14:02:15.486Z</time></trkpt><trkpt lat="42.9598455" lon="13.7337345"><ele>250.0</ele><time>2026-05-02T14:02:16.486Z</time></trkpt><trkpt lat="42.9598138" lon="13.7335549"><ele>250.0</ele><time>2026-05-02T14:02:17.486Z</time></trkpt><trkpt lat="42.959796" lon="13.7333815"><ele>250.0</ele><time>2026-05-02T14:02:18.485Z</time></trkpt><trkpt lat="42.9597932" lon="13.7332042"><ele>250.0</ele><time>2026-05-02T14:02:19.487Z</time></trkpt><trkpt lat="42.9598179" lon="13.7330329"><ele>250.0</ele><time>2026-05-02T14:02:20.486Z</time></trkpt><trkpt lat="42.959869" lon="13.7328654"><ele>250.0</ele><time>2026-05-02T14:02:21.487Z</time></trkpt><trkpt lat="42.9599418" lon="13.7326989"><ele>250.0</ele><time>2026-05-02T14:02:22.487Z</time></trkpt><trkpt lat="42.9600157" lon="13.7325341"><ele>252.0</ele><time>2026-05-02T14:02:23.487Z</time></trkpt><trkpt lat="42.9600926" lon="13.7323656"><ele>254.0</ele><time>2026-05-02T14:02:24.487Z</time></trkpt><trkpt lat="42.9601477" lon="13.7321926"><ele>256.0</ele><time>2026-05-02T14:02:25.487Z</time></trkpt><trkpt lat="42.9601649" lon="13.7320029"><ele>258.0</ele><time>2026-05-02T14:02:26.487Z</time></trkpt><trkpt lat="42.9601527" lon="13.7318098"><ele>259.25</ele><time>2026-05-02T14:02:27.487Z</time></trkpt><trkpt lat="42.9601189" lon="13.7316131"><ele>260.5</ele><time>2026-05-02T14:02:28.486Z</time></trkpt><trkpt lat="42.9600661" lon="13.7314323"><ele>261.75</ele><time>2026-05-02T14:02:29.487Z</time></trkpt><trkpt lat="42.9599996" lon="13.7312752"><ele>263.0</ele><time>2026-05-02T14:02:30.486Z</time></trkpt><trkpt lat="42.9598977" lon="13.7311258"><ele>259.0</ele><time>2026-05-02T14:02:31.487Z</time></trkpt><trkpt lat="42.9597848" lon="13.7309865"><ele>255.0</ele><time>2026-05-02T14:02:32.487Z</time></trkpt><trkpt lat="42.9596548" lon="13.7308535"><ele>251.0</ele><time>2026-05-02T14:02:33.486Z</time></trkpt><trkpt lat="42.959522" lon="13.7307209"><ele>251.0</ele><time>2026-05-02T14:02:34.487Z</time></trkpt><trkpt lat="42.959371" lon="13.7306055"><ele>251.0</ele><time>2026-05-02T14:02:35.487Z</time></trkpt><trkpt lat="42.9592276" lon="13.7305049"><ele>251.0</ele><time>2026-05-02T14:02:36.487Z</time></trkpt><trkpt lat="42.9590782" lon="13.7304348"><ele>245.0</ele><time>2026-05-02T14:02:37.487Z</time></trkpt><trkpt lat="42.9587517" lon="13.7304722"><ele>239.0</ele><time>2026-05-02T14:02:39.487Z</time></trkpt><trkpt lat="42.9586246" lon="13.7305187"><ele>239.0</ele><time>2026-05-02T14:02:40.486Z</time></trkpt><trkpt lat="42.9584793" lon="13.730592"><ele>239.0</ele><time>2026-05-02T14:02:41.487Z</time></trkpt><trkpt lat="42.9583336" lon="13.730662"><ele>239.0</ele><time>2026-05-02T14:02:42.487Z</time></trkpt><trkpt lat="42.9581854" lon="13.7307307"><ele>239.75</ele><time>2026-05-02T14:02:43.487Z</time></trkpt><trkpt lat="42.958042" lon="13.7307957"><ele>240.5</ele><time>2026-05-02T14:02:44.487Z</time></trkpt><trkpt lat="42.9579109" lon="13.730845"><ele>241.25</ele><time>2026-05-02T14:02:45.487Z</time></trkpt><trkpt lat="42.9577777" lon="13.7308868"><ele>242.0</ele><time>2026-05-02T14:02:46.487Z</time></trkpt><trkpt lat="42.9576357" lon="13.7309075"><ele>244.0</ele><time>2026-05-02T14:02:47.486Z</time></trkpt><trkpt lat="42.9574902" lon="13.7309066"><ele>246.0</ele><time>2026-05-02T14:02:48.487Z</time></trkpt><trkpt lat="42.9573396" lon="13.7308841"><ele>248.0</ele><time>2026-05-02T14:02:49.486Z</time></trkpt><trkpt lat="42.957186" lon="13.7308522"><ele>248.0</ele><time>2026-05-02T14:02:50.487Z</time></trkpt><trkpt lat="42.9570296" lon="13.7308185"><ele>248.0</ele><time>2026-05-02T14:02:51.487Z</time></trkpt><trkpt lat="42.9568715" lon="13.7307833"><ele>248.0</ele><time>2026-05-02T14:02:52.487Z</time></trkpt><trkpt lat="42.9567187" lon="13.7307501"><ele>247.25</ele><time>2026-05-02T14:02:53.486Z</time></trkpt><trkpt lat="42.9565725" lon="13.7307209"><ele>246.5</ele><time>2026-05-02T14:02:54.486Z</time></trkpt><trkpt lat="42.9564375" lon="13.7306961"><ele>245.75</ele><time>2026-05-02T14:02:55.487Z</time></trkpt><trkpt lat="42.9563014" lon="13.7306695"><ele>245.0</ele><time>2026-05-02T14:02:56.487Z</time></trkpt><trkpt lat="42.9561644" lon="13.7306343"><ele>245.0</ele><time>2026-05-02T14:02:57.487Z</time></trkpt><trkpt lat="42.9560279" lon="13.7305831"><ele>245.0</ele><time>2026-05-02T14:02:58.487Z</time></trkpt><trkpt lat="42.9558938" lon="13.7305212"><ele>245.0</ele><time>2026-05-02T14:02:59.487Z</time></trkpt><trkpt lat="42.9557885" lon="13.7304086"><ele>245.0</ele><time>2026-05-02T14:03:00.487Z</time></trkpt><trkpt lat="42.9557064" lon="13.7302583"><ele>246.25</ele><time>2026-05-02T14:03:01.487Z</time></trkpt><trkpt lat="42.9556357" lon="13.7300841"><ele>247.5</ele><time>2026-05-02T14:03:02.487Z</time></trkpt><trkpt lat="42.9555723" lon="13.7299085"><ele>248.75</ele><time>2026-05-02T14:03:03.487Z</time></trkpt><trkpt lat="42.9555193" lon="13.7297368"><ele>250.0</ele><time>2026-05-02T14:03:04.487Z</time></trkpt><trkpt lat="42.95547" lon="13.7295871"><ele>250.0</ele><time>2026-05-02T14:03:05.486Z</time></trkpt><trkpt lat="42.9554173" lon="13.7294549"><ele>250.0</ele><time>2026-05-02T14:03:06.487Z</time></trkpt><trkpt lat="42.9553547" lon="13.7293522"><ele>250.0</ele><time>2026-05-02T14:03:07.487Z</time></trkpt><trkpt lat="42.9552661" lon="13.7292713"><ele>250.0</ele><time>2026-05-02T14:03:08.487Z</time></trkpt><trkpt lat="42.9551573" lon="13.729218"><ele>250.0</ele><time>2026-05-02T14:03:09.487Z</time></trkpt><trkpt lat="42.9550285" lon="13.7291788"><ele>249.5</ele><time>2026-05-02T14:03:10.487Z</time></trkpt><trkpt lat="42.9548931" lon="13.7291143"><ele>249.0</ele><time>2026-05-02T14:03:11.487Z</time></trkpt><trkpt lat="42.9547769" lon="13.7290232"><ele>248.5</ele><time>2026-05-02T14:03:12.486Z</time></trkpt><trkpt lat="42.9546762" lon="13.7289085"><ele>248.0</ele><time>2026-05-02T14:03:13.487Z</time></trkpt><trkpt lat="42.9545834" lon="13.7287759"><ele>248.0</ele><time>2026-05-02T14:03:14.487Z</time></trkpt><trkpt lat="42.9545197" lon="13.7285998"><ele>248.0</ele><time>2026-05-02T14:03:15.487Z</time></trkpt><trkpt lat="42.9544709" lon="13.7284109"><ele>248.0</ele><time>2026-05-02T14:03:16.487Z</time></trkpt><trkpt lat="42.9544214" lon="13.7282449"><ele>248.0</ele><time>2026-05-02T14:03:17.487Z</time></trkpt><trkpt lat="42.9543977" lon="13.7280204"><ele>247.75</ele><time>2026-05-02T14:03:18.487Z</time></trkpt><trkpt lat="42.9543817" lon="13.7278055"><ele>247.5</ele><time>2026-05-02T14:03:19.488Z</time></trkpt><trkpt lat="42.9543554" lon="13.7276067"><ele>247.25</ele><time>2026-05-02T14:03:20.488Z</time></trkpt><trkpt lat="42.9543301" lon="13.727417"><ele>247.0</ele><time>2026-05-02T14:03:21.488Z</time></trkpt><trkpt lat="42.9542822" lon="13.7272237"><ele>246.75</ele><time>2026-05-02T14:03:22.487Z</time></trkpt><trkpt lat="42.9541981" lon="13.7270429"><ele>246.5</ele><time>2026-05-02T14:03:23.487Z</time></trkpt><trkpt lat="42.9541111" lon="13.7268826"><ele>246.25</ele><time>2026-05-02T14:03:24.488Z</time></trkpt><trkpt lat="42.9540093" lon="13.7267393"><ele>246.0</ele><time>2026-05-02T14:03:25.488Z</time></trkpt><trkpt lat="42.9538953" lon="13.7266182"><ele>249.0</ele><time>2026-05-02T14:03:26.488Z</time></trkpt><trkpt lat="42.9537614" lon="13.7265281"><ele>252.0</ele><time>2026-05-02T14:03:27.488Z</time></trkpt><trkpt lat="42.953619" lon="13.7264683"><ele>255.0</ele><time>2026-05-02T14:03:28.488Z</time></trkpt><trkpt lat="42.9534694" lon="13.7264453"><ele>258.0</ele><time>2026-05-02T14:03:29.488Z</time></trkpt><trkpt lat="42.953304" lon="13.7264494"><ele>258.0</ele><time>2026-05-02T14:03:30.488Z</time></trkpt><trkpt lat="42.9531433" lon="13.7264801"><ele>258.0</ele><time>2026-05-02T14:03:31.488Z</time></trkpt><trkpt lat="42.9529615" lon="13.72652"><ele>258.0</ele><time>2026-05-02T14:03:32.488Z</time></trkpt><trkpt lat="42.9527958" lon="13.7265379"><ele>258.0</ele><time>2026-05-02T14:03:33.488Z</time></trkpt><trkpt lat="42.9526319" lon="13.7265707"><ele>258.0</ele><time>2026-05-02T14:03:34.487Z</time></trkpt><trkpt lat="42.9524734" lon="13.7266194"><ele>258.0</ele><time>2026-05-02T14:03:35.488Z</time></trkpt><trkpt lat="42.9523292" lon="13.7266992"><ele>259.5</ele><time>2026-05-02T14:03:36.488Z</time></trkpt><trkpt lat="42.9522046" lon="13.7268102"><ele>261.0</ele><time>2026-05-02T14:03:37.488Z</time></trkpt><trkpt lat="42.9520896" lon="13.7269225"><ele>262.5</ele><time>2026-05-02T14:03:38.488Z</time></trkpt><trkpt lat="42.9519785" lon="13.7270285"><ele>264.0</ele><time>2026-05-02T14:03:39.488Z</time></trkpt><trkpt lat="42.9518623" lon="13.7271233"><ele>263.25</ele><time>2026-05-02T14:03:40.487Z</time></trkpt><trkpt lat="42.9517443" lon="13.727188"><ele>262.5</ele><time>2026-05-02T14:03:41.488Z</time></trkpt><trkpt lat="42.9516154" lon="13.7272081"><ele>261.75</ele><time>2026-05-02T14:03:42.488Z</time></trkpt><trkpt lat="42.9514819" lon="13.727174"><ele>261.0</ele><time>2026-05-02T14:03:43.488Z</time></trkpt><trkpt lat="42.9513512" lon="13.7270997"><ele>261.0</ele><time>2026-05-02T14:03:44.488Z</time></trkpt><trkpt lat="42.9512128" lon="13.7270135"><ele>261.0</ele><time>2026-05-02T14:03:45.487Z</time></trkpt><trkpt lat="42.9510755" lon="13.7269347"><ele>261.0</ele><time>2026-05-02T14:03:46.488Z</time></trkpt><trkpt lat="42.9509364" lon="13.7268589"><ele>263.5</ele><time>2026-05-02T14:03:47.488Z</time></trkpt><trkpt lat="42.9507983" lon="13.7267864"><ele>266.0</ele><time>2026-05-02T14:03:48.488Z</time></trkpt><trkpt lat="42.9506676" lon="13.7267182"><ele>268.5</ele><time>2026-05-02T14:03:49.488Z</time></trkpt><trkpt lat="42.9505413" lon="13.7266526"><ele>271.0</ele><time>2026-05-02T14:03:50.488Z</time></trkpt><trkpt lat="42.9504262" lon="13.7265923"><ele>271.0</ele><time>2026-05-02T14:03:51.488Z</time></trkpt><trkpt lat="42.9503224" lon="13.7265288"><ele>271.0</ele><time>2026-05-02T14:03:52.488Z</time></trkpt><trkpt lat="42.9502129" lon="13.7264487"><ele>271.0</ele><time>2026-05-02T14:03:53.488Z</time></trkpt><trkpt lat="42.9501173" lon="13.7263345"><ele>271.0</ele><time>2026-05-02T14:03:54.488Z</time></trkpt><trkpt lat="42.950035" lon="13.7261901"><ele>272.5</ele><time>2026-05-02T14:03:55.487Z</time></trkpt><trkpt lat="42.9499719" lon="13.7260224"><ele>274.0</ele><time>2026-05-02T14:03:56.488Z</time></trkpt><trkpt lat="42.9499184" lon="13.7258393"><ele>275.5</ele><time>2026-05-02T14:03:57.488Z</time></trkpt><trkpt lat="42.9498654" lon="13.7256507"><ele>277.0</ele><time>2026-05-02T14:03:58.488Z</time></trkpt><trkpt lat="42.9497932" lon="13.7254802"><ele>277.0</ele><time>2026-05-02T14:03:59.488Z</time></trkpt><trkpt lat="42.9497058" lon="13.7253196"><ele>277.0</ele><time>2026-05-02T14:04:00.488Z</time></trkpt><trkpt lat="42.9495929" lon="13.725163"><ele>277.0</ele><time>2026-05-02T14:04:01.488Z</time></trkpt><trkpt lat="42.9494596" lon="13.7250229"><ele>277.0</ele><time>2026-05-02T14:04:02.488Z</time></trkpt><trkpt lat="42.9493146" lon="13.7248932"><ele>277.0</ele><time>2026-05-02T14:04:03.488Z</time></trkpt><trkpt lat="42.949166" lon="13.7247705"><ele>277.0</ele><time>2026-05-02T14:04:04.488Z</time></trkpt><trkpt lat="42.9490171" lon="13.7246452"><ele>277.0</ele><time>2026-05-02T14:04:05.488Z</time></trkpt><trkpt lat="42.9488737" lon="13.7245233"><ele>277.0</ele><time>2026-05-02T14:04:06.488Z</time></trkpt><trkpt lat="42.9487323" lon="13.7244009"><ele>277.0</ele><time>2026-05-02T14:04:07.488Z</time></trkpt><trkpt lat="42.9485886" lon="13.7242789"><ele>280.66666666666663</ele><time>2026-05-02T14:04:08.489Z</time></trkpt><trkpt lat="42.9484433" lon="13.7241624"><ele>284.3333333333333</ele><time>2026-05-02T14:04:09.488Z</time></trkpt><trkpt lat="42.9482886" lon="13.7240594"><ele>288.0</ele><time>2026-05-02T14:04:10.488Z</time></trkpt><trkpt lat="42.9481224" lon="13.7239727"><ele>288.0</ele><time>2026-05-02T14:04:11.488Z</time></trkpt><trkpt lat="42.9479555" lon="13.7239007"><ele>288.0</ele><time>2026-05-02T14:04:12.488Z</time></trkpt><trkpt lat="42.9477928" lon="13.7238428"><ele>288.0</ele><time>2026-05-02T14:04:13.487Z</time></trkpt><trkpt lat="42.9476321" lon="13.723795"><ele>287.5</ele><time>2026-05-02T14:04:14.488Z</time></trkpt><trkpt lat="42.947486" lon="13.72375"><ele>287.0</ele><time>2026-05-02T14:04:15.488Z</time></trkpt><trkpt lat="42.9473364" lon="13.7237009"><ele>286.5</ele><time>2026-05-02T14:04:16.488Z</time></trkpt><trkpt lat="42.9472055" lon="13.7236505"><ele>286.0</ele><time>2026-05-02T14:04:17.488Z</time></trkpt><trkpt lat="42.9470802" lon="13.7235974"><ele>287.6</ele><time>2026-05-02T14:04:18.488Z</time></trkpt><trkpt lat="42.9469612" lon="13.7235508"><ele>289.20000000000005</ele><time>2026-05-02T14:04:19.487Z</time></trkpt><trkpt lat="42.9468508" lon="13.7235035"><ele>290.79999999999995</ele><time>2026-05-02T14:04:20.488Z</time></trkpt><trkpt lat="42.9467594" lon="13.7234461"><ele>292.4</ele><time>2026-05-02T14:04:21.488Z</time></trkpt><trkpt lat="42.946684" lon="13.7233554"><ele>294.0</ele><time>2026-05-02T14:04:22.488Z</time></trkpt><trkpt lat="42.946634" lon="13.7232605"><ele>294.0</ele><time>2026-05-02T14:04:23.488Z</time></trkpt><trkpt lat="42.9466175" lon="13.7231488"><ele>294.0</ele><time>2026-05-02T14:04:24.488Z</time></trkpt><trkpt lat="42.9466129" lon="13.7230624"><ele>294.0</ele><time>2026-05-02T14:04:25.487Z</time></trkpt><trkpt lat="42.9466214" lon="13.7229733"><ele>294.0</ele><time>2026-05-02T14:04:26.488Z</time></trkpt><trkpt lat="42.9466405" lon="13.7228178"><ele>294.0</ele><time>2026-05-02T14:04:28.488Z</time></trkpt><trkpt lat="42.9466317" lon="13.7227068"><ele>294.0</ele><time>2026-05-02T14:04:30.489Z</time></trkpt><trkpt lat="42.9465531" lon="13.7226982"><ele>294.0</ele><time>2026-05-02T14:04:33.489Z</time></trkpt><trkpt lat="42.9465844" lon="13.7228059"><ele>294.0</ele><time>2026-05-02T14:04:36.488Z</time></trkpt><trkpt lat="42.9466132" lon="13.7229446"><ele>294.0</ele><time>2026-05-02T14:04:38.489Z</time></trkpt><trkpt lat="42.9465979" lon="13.7230943"><ele>294.0</ele><time>2026-05-02T14:04:40.489Z</time></trkpt><trkpt lat="42.9465297" lon="13.7232297"><ele>294.0</ele><time>2026-05-02T14:04:42.489Z</time></trkpt><trkpt lat="42.9464686" lon="13.7232688"><ele>294.0</ele><time>2026-05-02T14:04:43.489Z</time></trkpt><trkpt lat="42.9463996" lon="13.7232895"><ele>294.0</ele><time>2026-05-02T14:04:44.488Z</time></trkpt><trkpt lat="42.9463328" lon="13.7233286"><ele>294.0</ele><time>2026-05-02T14:04:45.489Z</time></trkpt><trkpt lat="42.9462628" lon="13.723399"><ele>294.0</ele><time>2026-05-02T14:04:46.489Z</time></trkpt><trkpt lat="42.9461845" lon="13.723453"><ele>294.0</ele><time>2026-05-02T14:04:47.489Z</time></trkpt><trkpt lat="42.9460989" lon="13.7235051"><ele>294.0</ele><time>2026-05-02T14:04:48.489Z</time></trkpt><trkpt lat="42.9460222" lon="13.7235526"><ele>293.85714285714283</ele><time>2026-05-02T14:04:49.489Z</time></trkpt><trkpt lat="42.9459543" lon="13.7235933"><ele>293.7142857142857</ele><time>2026-05-02T14:04:50.489Z</time></trkpt><trkpt lat="42.945884" lon="13.7236326"><ele>293.57142857142856</ele><time>2026-05-02T14:04:51.489Z</time></trkpt><trkpt lat="42.9458168" lon="13.7236755"><ele>293.42857142857144</ele><time>2026-05-02T14:04:52.489Z</time></trkpt><trkpt lat="42.9457519" lon="13.7237135"><ele>293.2857142857143</ele><time>2026-05-02T14:04:53.489Z</time></trkpt><trkpt lat="42.9456821" lon="13.7237528"><ele>293.1428571428571</ele><time>2026-05-02T14:04:54.489Z</time></trkpt><trkpt lat="42.9456154" lon="13.7237932"><ele>293.0</ele><time>2026-05-02T14:04:55.489Z</time></trkpt><trkpt lat="42.9455447" lon="13.7238292"><ele>293.0</ele><time>2026-05-02T14:04:56.488Z</time></trkpt><trkpt lat="42.9454723" lon="13.7238675"><ele>293.0</ele><time>2026-05-02T14:04:57.489Z</time></trkpt><trkpt lat="42.9453932" lon="13.7239122"><ele>293.0</ele><time>2026-05-02T14:04:58.489Z</time></trkpt><trkpt lat="42.9453132" lon="13.7239546"><ele>293.0</ele><time>2026-05-02T14:04:59.489Z</time></trkpt><trkpt lat="42.9452321" lon="13.7239956"><ele>293.0</ele><time>2026-05-02T14:05:00.488Z</time></trkpt><trkpt lat="42.9451486" lon="13.724035"><ele>293.0</ele><time>2026-05-02T14:05:01.489Z</time></trkpt><trkpt lat="42.9450632" lon="13.7240698"><ele>293.0</ele><time>2026-05-02T14:05:02.489Z</time></trkpt><trkpt lat="42.9449869" lon="13.7241099"><ele>293.0</ele><time>2026-05-02T14:05:03.489Z</time></trkpt><trkpt lat="42.9449152" lon="13.7241502"><ele>293.0</ele><time>2026-05-02T14:05:04.489Z</time></trkpt><trkpt lat="42.9448361" lon="13.7241912"><ele>293.0</ele><time>2026-05-02T14:05:05.489Z</time></trkpt><trkpt lat="42.9447574" lon="13.7242363"><ele>293.0</ele><time>2026-05-02T14:05:06.489Z</time></trkpt><trkpt lat="42.944675" lon="13.7242812"><ele>293.0</ele><time>2026-05-02T14:05:07.488Z</time></trkpt><trkpt lat="42.9445933" lon="13.7243242"><ele>293.0</ele><time>2026-05-02T14:05:08.489Z</time></trkpt><trkpt lat="42.9445118" lon="13.7243642"><ele>293.0</ele><time>2026-05-02T14:05:09.489Z</time></trkpt><trkpt lat="42.9444268" lon="13.724409"><ele>293.0</ele><time>2026-05-02T14:05:10.489Z</time></trkpt><trkpt lat="42.9443439" lon="13.7244568"><ele>293.0</ele><time>2026-05-02T14:05:11.489Z</time></trkpt><trkpt lat="42.9442726" lon="13.7245129"><ele>293.0</ele><time>2026-05-02T14:05:12.489Z</time></trkpt><trkpt lat="42.9442013" lon="13.7245676"><ele>293.0</ele><time>2026-05-02T14:05:13.489Z</time></trkpt><trkpt lat="42.9441299" lon="13.7246227"><ele>292.33333333333337</ele><time>2026-05-02T14:05:14.489Z</time></trkpt><trkpt lat="42.9440703" lon="13.7246753"><ele>291.6666666666667</ele><time>2026-05-02T14:05:15.489Z</time></trkpt><trkpt lat="42.9440137" lon="13.7247194"><ele>291.0</ele><time>2026-05-02T14:05:16.489Z</time></trkpt><trkpt lat="42.943918" lon="13.72477"><ele>290.3333333333333</ele><time>2026-05-02T14:05:18.489Z</time></trkpt><trkpt lat="42.9439052" lon="13.7248665"><ele>289.66666666666663</ele><time>2026-05-02T14:05:21.489Z</time></trkpt><trkpt lat="42.9439923" lon="13.7248774"><ele>289.0</ele><time>2026-05-02T14:05:23.489Z</time></trkpt><trkpt lat="42.9441026" lon="13.7247639"><ele>289.0</ele><time>2026-05-02T14:05:25.488Z</time></trkpt><trkpt lat="42.9441627" lon="13.7246767"><ele>289.0</ele><time>2026-05-02T14:05:26.49Z</time></trkpt><trkpt lat="42.9442216" lon="13.7246074"><ele>289.0</ele><time>2026-05-02T14:05:27.488Z</time></trkpt><trkpt lat="42.9442884" lon="13.7245414"><ele>289.0</ele><time>2026-05-02T14:05:28.49Z</time></trkpt><trkpt lat="42.9443712" lon="13.7244863"><ele>289.0</ele><time>2026-05-02T14:05:29.489Z</time></trkpt><trkpt lat="42.9444573" lon="13.7244305"><ele>289.0</ele><time>2026-05-02T14:05:30.488Z</time></trkpt><trkpt lat="42.9445459" lon="13.7243798"><ele>289.8</ele><time>2026-05-02T14:05:31.49Z</time></trkpt><trkpt lat="42.9446407" lon="13.7243313"><ele>290.59999999999997</ele><time>2026-05-02T14:05:32.49Z</time></trkpt><trkpt lat="42.9447413" lon="13.7242822"><ele>291.4</ele><time>2026-05-02T14:05:33.49Z</time></trkpt><trkpt lat="42.9448469" lon="13.7242275"><ele>292.2</ele><time>2026-05-02T14:05:34.49Z</time></trkpt><trkpt lat="42.9449546" lon="13.7241721"><ele>293.0</ele><time>2026-05-02T14:05:35.49Z</time></trkpt><trkpt lat="42.9450641" lon="13.7241089"><ele>293.0</ele><time>2026-05-02T14:05:36.49Z</time></trkpt><trkpt lat="42.9451767" lon="13.7240479"><ele>293.0</ele><time>2026-05-02T14:05:37.49Z</time></trkpt><trkpt lat="42.9452871" lon="13.7239895"><ele>293.0</ele><time>2026-05-02T14:05:38.49Z</time></trkpt><trkpt lat="42.9453892" lon="13.7239315"><ele>293.0</ele><time>2026-05-02T14:05:39.49Z</time></trkpt><trkpt lat="42.9454881" lon="13.7238696"><ele>293.0</ele><time>2026-05-02T14:05:40.49Z</time></trkpt><trkpt lat="42.9455866" lon="13.7238104"><ele>293.0</ele><time>2026-05-02T14:05:41.49Z</time></trkpt><trkpt lat="42.9456885" lon="13.7237557"><ele>293.0</ele><time>2026-05-02T14:05:42.489Z</time></trkpt><trkpt lat="42.9457904" lon="13.7236952"><ele>293.0</ele><time>2026-05-02T14:05:43.49Z</time></trkpt><trkpt lat="42.9458919" lon="13.7236392"><ele>293.0</ele><time>2026-05-02T14:05:44.49Z</time></trkpt><trkpt lat="42.9459856" lon="13.7235847"><ele>293.2</ele><time>2026-05-02T14:05:45.49Z</time></trkpt><trkpt lat="42.9460725" lon="13.7235306"><ele>293.4</ele><time>2026-05-02T14:05:46.49Z</time></trkpt><trkpt lat="42.9461606" lon="13.7234831"><ele>293.59999999999997</ele><time>2026-05-02T14:05:47.49Z</time></trkpt><trkpt lat="42.9462446" lon="13.7234308"><ele>293.8</ele><time>2026-05-02T14:05:48.49Z</time></trkpt><trkpt lat="42.9463253" lon="13.7233838"><ele>294.0</ele><time>2026-05-02T14:05:49.49Z</time></trkpt><trkpt lat="42.9464012" lon="13.7233391"><ele>294.0</ele><time>2026-05-02T14:05:50.49Z</time></trkpt><trkpt lat="42.9464687" lon="13.7232945"><ele>294.0</ele><time>2026-05-02T14:05:51.49Z</time></trkpt><trkpt lat="42.9465275" lon="13.7232569"><ele>294.0</ele><time>2026-05-02T14:05:52.489Z</time></trkpt><trkpt lat="42.946595" lon="13.7232027"><ele>294.0</ele><time>2026-05-02T14:05:54.49Z</time></trkpt><trkpt lat="42.9466286" lon="13.7231056"><ele>294.0</ele><time>2026-05-02T14:05:57.49Z</time></trkpt><trkpt lat="42.9466342" lon="13.7230106"><ele>294.0</ele><time>2026-05-02T14:05:58.49Z</time></trkpt><trkpt lat="42.946631" lon="13.7228977"><ele>294.0</ele><time>2026-05-02T14:05:59.489Z</time></trkpt><trkpt lat="42.94663" lon="13.7227658"><ele>293.0</ele><time>2026-05-02T14:06:00.489Z</time></trkpt><trkpt lat="42.9466329" lon="13.7226234"><ele>292.0</ele><time>2026-05-02T14:06:01.49Z</time></trkpt><trkpt lat="42.946643" lon="13.7224668"><ele>291.0</ele><time>2026-05-02T14:06:02.49Z</time></trkpt><trkpt lat="42.946653" lon="13.7223065"><ele>290.0</ele><time>2026-05-02T14:06:03.49Z</time></trkpt><trkpt lat="42.946663" lon="13.722134"><ele>290.0</ele><time>2026-05-02T14:06:04.489Z</time></trkpt><trkpt lat="42.9466723" lon="13.7219461"><ele>290.0</ele><time>2026-05-02T14:06:05.49Z</time></trkpt><trkpt lat="42.9466802" lon="13.7217502"><ele>290.0</ele><time>2026-05-02T14:06:06.49Z</time></trkpt><trkpt lat="42.9466918" lon="13.7215513"><ele>290.0</ele><time>2026-05-02T14:06:07.49Z</time></trkpt><trkpt lat="42.9467062" lon="13.7213519"><ele>294.0</ele><time>2026-05-02T14:06:08.49Z</time></trkpt><trkpt lat="42.9467199" lon="13.721149"><ele>298.0</ele><time>2026-05-02T14:06:09.49Z</time></trkpt><trkpt lat="42.946735" lon="13.7209428"><ele>302.0</ele><time>2026-05-02T14:06:10.49Z</time></trkpt><trkpt lat="42.9467527" lon="13.7207307"><ele>302.0</ele><time>2026-05-02T14:06:11.49Z</time></trkpt><trkpt lat="42.9467655" lon="13.7205264"><ele>302.0</ele><time>2026-05-02T14:06:12.49Z</time></trkpt><trkpt lat="42.9467743" lon="13.7203198"><ele>302.0</ele><time>2026-05-02T14:06:13.49Z</time></trkpt><trkpt lat="42.9467703" lon="13.7201073"><ele>302.33333333333337</ele><time>2026-05-02T14:06:14.49Z</time></trkpt><trkpt lat="42.946755" lon="13.7198949"><ele>302.6666666666667</ele><time>2026-05-02T14:06:15.49Z</time></trkpt><trkpt lat="42.9467243" lon="13.7196892"><ele>303.0</ele><time>2026-05-02T14:06:16.49Z</time></trkpt><trkpt lat="42.9466846" lon="13.7194757"><ele>295.3333333333333</ele><time>2026-05-02T14:06:17.49Z</time></trkpt><trkpt lat="42.946647" lon="13.7192593"><ele>287.66666666666663</ele><time>2026-05-02T14:06:18.49Z</time></trkpt><trkpt lat="42.9466133" lon="13.7190504"><ele>280.0</ele><time>2026-05-02T14:06:19.489Z</time></trkpt><trkpt lat="42.9465834" lon="13.718849"><ele>280.0</ele><time>2026-05-02T14:06:20.49Z</time></trkpt><trkpt lat="42.946558" lon="13.718653"><ele>280.0</ele><time>2026-05-02T14:06:21.49Z</time></trkpt><trkpt lat="42.946541" lon="13.7184522"><ele>280.0</ele><time>2026-05-02T14:06:22.49Z</time></trkpt><trkpt lat="42.9465358" lon="13.718248"><ele>280.0</ele><time>2026-05-02T14:06:23.489Z</time></trkpt><trkpt lat="42.9465461" lon="13.7180504"><ele>280.25</ele><time>2026-05-02T14:06:24.49Z</time></trkpt><trkpt lat="42.9465727" lon="13.7178587"><ele>280.5</ele><time>2026-05-02T14:06:25.49Z</time></trkpt><trkpt lat="42.946627" lon="13.7176761"><ele>280.75</ele><time>2026-05-02T14:06:26.49Z</time></trkpt><trkpt lat="42.9467031" lon="13.7174907"><ele>281.0</ele><time>2026-05-02T14:06:27.49Z</time></trkpt><trkpt lat="42.9467999" lon="13.7173074"><ele>280.0</ele><time>2026-05-02T14:06:28.49Z</time></trkpt><trkpt lat="42.9469025" lon="13.7171232"><ele>279.0</ele><time>2026-05-02T14:06:29.49Z</time></trkpt><trkpt lat="42.9470138" lon="13.7169316"><ele>278.0</ele><time>2026-05-02T14:06:30.49Z</time></trkpt><trkpt lat="42.9471238" lon="13.7167388"><ele>275.6666666666667</ele><time>2026-05-02T14:06:31.49Z</time></trkpt><trkpt lat="42.947225" lon="13.7165511"><ele>273.3333333333333</ele><time>2026-05-02T14:06:32.489Z</time></trkpt><trkpt lat="42.9473245" lon="13.7163715"><ele>271.0</ele><time>2026-05-02T14:06:33.49Z</time></trkpt><trkpt lat="42.9474332" lon="13.7161966"><ele>270.0</ele><time>2026-05-02T14:06:34.491Z</time></trkpt><trkpt lat="42.9475512" lon="13.7160334"><ele>269.0</ele><time>2026-05-02T14:06:35.491Z</time></trkpt><trkpt lat="42.9476796" lon="13.7158786"><ele>268.0</ele><time>2026-05-02T14:06:36.491Z</time></trkpt><trkpt lat="42.9478077" lon="13.7157423"><ele>268.0</ele><time>2026-05-02T14:06:37.491Z</time></trkpt><trkpt lat="42.947933" lon="13.7156161"><ele>268.0</ele><time>2026-05-02T14:06:38.491Z</time></trkpt><trkpt lat="42.9480529" lon="13.7154813"><ele>268.0</ele><time>2026-05-02T14:06:39.491Z</time></trkpt><trkpt lat="42.9481573" lon="13.7153507"><ele>270.75</ele><time>2026-05-02T14:06:40.491Z</time></trkpt><trkpt lat="42.9482458" lon="13.7152073"><ele>273.5</ele><time>2026-05-02T14:06:41.491Z</time></trkpt><trkpt lat="42.9483135" lon="13.7150502"><ele>276.25</ele><time>2026-05-02T14:06:42.491Z</time></trkpt><trkpt lat="42.9483516" lon="13.7148766"><ele>279.0</ele><time>2026-05-02T14:06:43.491Z</time></trkpt><trkpt lat="42.9483579" lon="13.7146925"><ele>279.0</ele><time>2026-05-02T14:06:44.491Z</time></trkpt><trkpt lat="42.9483462" lon="13.7144804"><ele>279.0</ele><time>2026-05-02T14:06:45.491Z</time></trkpt><trkpt lat="42.9483494" lon="13.7142735"><ele>279.0</ele><time>2026-05-02T14:06:46.491Z</time></trkpt><trkpt lat="42.9483768" lon="13.714079"><ele>275.6666666666667</ele><time>2026-05-02T14:06:47.491Z</time></trkpt><trkpt lat="42.9484216" lon="13.7138908"><ele>272.33333333333337</ele><time>2026-05-02T14:06:48.49Z</time></trkpt><trkpt lat="42.9484694" lon="13.7136944"><ele>269.0</ele><time>2026-05-02T14:06:49.491Z</time></trkpt><trkpt lat="42.9485082" lon="13.7134896"><ele>269.0</ele><time>2026-05-02T14:06:50.491Z</time></trkpt><trkpt lat="42.9485318" lon="13.7132799"><ele>269.0</ele><time>2026-05-02T14:06:51.49Z</time></trkpt><trkpt lat="42.9485456" lon="13.713055"><ele>269.0</ele><time>2026-05-02T14:06:52.491Z</time></trkpt><trkpt lat="42.9485467" lon="13.7128278"><ele>269.6666666666667</ele><time>2026-05-02T14:06:53.491Z</time></trkpt><trkpt lat="42.94854" lon="13.7126074"><ele>270.3333333333333</ele><time>2026-05-02T14:06:54.491Z</time></trkpt><trkpt lat="42.948526" lon="13.7123897"><ele>271.0</ele><time>2026-05-02T14:06:55.491Z</time></trkpt><trkpt lat="42.9485153" lon="13.7121716"><ele>271.0</ele><time>2026-05-02T14:06:56.491Z</time></trkpt><trkpt lat="42.9485091" lon="13.7119537"><ele>271.0</ele><time>2026-05-02T14:06:57.491Z</time></trkpt><trkpt lat="42.9485038" lon="13.7117337"><ele>271.0</ele><time>2026-05-02T14:06:58.491Z</time></trkpt><trkpt lat="42.9484988" lon="13.7115132"><ele>271.66666666666663</ele><time>2026-05-02T14:06:59.491Z</time></trkpt><trkpt lat="42.9484948" lon="13.7112904"><ele>272.3333333333333</ele><time>2026-05-02T14:07:00.491Z</time></trkpt><trkpt lat="42.9484925" lon="13.7110612"><ele>273.0</ele><time>2026-05-02T14:07:01.491Z</time></trkpt><trkpt lat="42.9484902" lon="13.7108335"><ele>274.6666666666667</ele><time>2026-05-02T14:07:02.491Z</time></trkpt><trkpt lat="42.9484916" lon="13.7106051"><ele>276.33333333333337</ele><time>2026-05-02T14:07:03.491Z</time></trkpt><trkpt lat="42.9484962" lon="13.7103753"><ele>278.0</ele><time>2026-05-02T14:07:04.491Z</time></trkpt><trkpt lat="42.9485022" lon="13.7101445"><ele>280.33333333333337</ele><time>2026-05-02T14:07:05.491Z</time></trkpt><trkpt lat="42.9485101" lon="13.7099143"><ele>282.6666666666667</ele><time>2026-05-02T14:07:06.491Z</time></trkpt><trkpt lat="42.948521" lon="13.709687"><ele>285.0</ele><time>2026-05-02T14:07:07.491Z</time></trkpt><trkpt lat="42.9485305" lon="13.7094594"><ele>286.25</ele><time>2026-05-02T14:07:08.491Z</time></trkpt><trkpt lat="42.9485401" lon="13.7092425"><ele>287.5</ele><time>2026-05-02T14:07:09.491Z</time></trkpt><trkpt lat="42.9485545" lon="13.7090416"><ele>288.75</ele><time>2026-05-02T14:07:10.491Z</time></trkpt><trkpt lat="42.9485753" lon="13.7088606"><ele>290.0</ele><time>2026-05-02T14:07:11.491Z</time></trkpt><trkpt lat="42.9486019" lon="13.7086954"><ele>291.0</ele><time>2026-05-02T14:07:12.491Z</time></trkpt><trkpt lat="42.9486284" lon="13.708551"><ele>292.0</ele><time>2026-05-02T14:07:13.491Z</time></trkpt><trkpt lat="42.9486474" lon="13.7084297"><ele>293.0</ele><time>2026-05-02T14:07:14.491Z</time></trkpt><trkpt lat="42.9486627" lon="13.708325"><ele>294.0</ele><time>2026-05-02T14:07:15.491Z</time></trkpt><trkpt lat="42.9486792" lon="13.7082293"><ele>295.0</ele><time>2026-05-02T14:07:16.49Z</time></trkpt><trkpt lat="42.9486951" lon="13.7081357"><ele>296.0</ele><time>2026-05-02T14:07:17.491Z</time></trkpt><trkpt lat="42.9487108" lon="13.7080437"><ele>296.0</ele><time>2026-05-02T14:07:18.491Z</time></trkpt><trkpt lat="42.9487193" lon="13.7079398"><ele>296.0</ele><time>2026-05-02T14:07:19.491Z</time></trkpt><trkpt lat="42.9487274" lon="13.7078393"><ele>296.0</ele><time>2026-05-02T14:07:20.491Z</time></trkpt><trkpt lat="42.9487198" lon="13.7077351"><ele>296.0</ele><time>2026-05-02T14:07:21.492Z</time></trkpt><trkpt lat="42.9487046" lon="13.7076224"><ele>296.0</ele><time>2026-05-02T14:07:22.491Z</time></trkpt><trkpt lat="42.9486695" lon="13.7075088"><ele>296.0</ele><time>2026-05-02T14:07:23.491Z</time></trkpt><trkpt lat="42.9486178" lon="13.7073824"><ele>298.25</ele><time>2026-05-02T14:07:24.491Z</time></trkpt><trkpt lat="42.9485609" lon="13.707256"><ele>300.5</ele><time>2026-05-02T14:07:25.491Z</time></trkpt><trkpt lat="42.9484947" lon="13.7071187"><ele>302.75</ele><time>2026-05-02T14:07:26.491Z</time></trkpt><trkpt lat="42.9484269" lon="13.7069684"><ele>305.0</ele><time>2026-05-02T14:07:27.49Z</time></trkpt><trkpt lat="42.9483564" lon="13.7068051"><ele>305.25</ele><time>2026-05-02T14:07:28.491Z</time></trkpt><trkpt lat="42.9482971" lon="13.706642"><ele>305.5</ele><time>2026-05-02T14:07:29.491Z</time></trkpt><trkpt lat="42.9482367" lon="13.7064689"><ele>305.75</ele><time>2026-05-02T14:07:30.492Z</time></trkpt><trkpt lat="42.9481744" lon="13.7063059"><ele>306.0</ele><time>2026-05-02T14:07:31.491Z</time></trkpt><trkpt lat="42.9481082" lon="13.7061438"><ele>309.0</ele><time>2026-05-02T14:07:32.491Z</time></trkpt><trkpt lat="42.9480406" lon="13.7059798"><ele>312.0</ele><time>2026-05-02T14:07:33.491Z</time></trkpt><trkpt lat="42.9479816" lon="13.7058197"><ele>315.0</ele><time>2026-05-02T14:07:34.491Z</time></trkpt><trkpt lat="42.9479203" lon="13.7056591"><ele>318.0</ele><time>2026-05-02T14:07:35.49Z</time></trkpt><trkpt lat="42.9478547" lon="13.7054952"><ele>318.0</ele><time>2026-05-02T14:07:36.492Z</time></trkpt><trkpt lat="42.9477925" lon="13.7053365"><ele>318.0</ele><time>2026-05-02T14:07:37.492Z</time></trkpt><trkpt lat="42.94772" lon="13.7051824"><ele>318.0</ele><time>2026-05-02T14:07:38.491Z</time></trkpt><trkpt lat="42.9476367" lon="13.7050474"><ele>318.0</ele><time>2026-05-02T14:07:39.492Z</time></trkpt><trkpt lat="42.9475374" lon="13.7049325"><ele>316.75</ele><time>2026-05-02T14:07:40.492Z</time></trkpt><trkpt lat="42.9474373" lon="13.7048289"><ele>315.5</ele><time>2026-05-02T14:07:41.492Z</time></trkpt><trkpt lat="42.947328" lon="13.7047242"><ele>314.25</ele><time>2026-05-02T14:07:42.492Z</time></trkpt><trkpt lat="42.947202" lon="13.7046334"><ele>313.0</ele><time>2026-05-02T14:07:43.491Z</time></trkpt><trkpt lat="42.947077" lon="13.7045456"><ele>313.0</ele><time>2026-05-02T14:07:44.492Z</time></trkpt><trkpt lat="42.946956" lon="13.7044695"><ele>313.0</ele><time>2026-05-02T14:07:45.492Z</time></trkpt><trkpt lat="42.9468493" lon="13.7043828"><ele>313.0</ele><time>2026-05-02T14:07:46.492Z</time></trkpt><trkpt lat="42.9467566" lon="13.704279"><ele>313.0</ele><time>2026-05-02T14:07:47.492Z</time></trkpt><trkpt lat="42.9466792" lon="13.7041538"><ele>313.0</ele><time>2026-05-02T14:07:48.491Z</time></trkpt><trkpt lat="42.9466156" lon="13.7040113"><ele>313.0</ele><time>2026-05-02T14:07:49.492Z</time></trkpt><trkpt lat="42.9465718" lon="13.7038603"><ele>313.0</ele><time>2026-05-02T14:07:50.492Z</time></trkpt><trkpt lat="42.9465541" lon="13.703694"><ele>313.0</ele><time>2026-05-02T14:07:51.492Z</time></trkpt><trkpt lat="42.9465428" lon="13.7035187"><ele>314.5</ele><time>2026-05-02T14:07:52.491Z</time></trkpt><trkpt lat="42.94653" lon="13.7033462"><ele>316.0</ele><time>2026-05-02T14:07:53.492Z</time></trkpt><trkpt lat="42.9465152" lon="13.7031674"><ele>317.5</ele><time>2026-05-02T14:07:54.492Z</time></trkpt><trkpt lat="42.9464971" lon="13.7029873"><ele>319.0</ele><time>2026-05-02T14:07:55.492Z</time></trkpt><trkpt lat="42.9464846" lon="13.7028147"><ele>319.6</ele><time>2026-05-02T14:07:56.492Z</time></trkpt><trkpt lat="42.946477" lon="13.7026514"><ele>320.2</ele><time>2026-05-02T14:07:57.492Z</time></trkpt><trkpt lat="42.9464843" lon="13.7024891"><ele>320.8</ele><time>2026-05-02T14:07:58.492Z</time></trkpt><trkpt lat="42.9464995" lon="13.7023456"><ele>321.40000000000003</ele><time>2026-05-02T14:07:59.492Z</time></trkpt><trkpt lat="42.9465091" lon="13.7022128"><ele>322.0</ele><time>2026-05-02T14:08:00.492Z</time></trkpt><trkpt lat="42.9464947" lon="13.7020844"><ele>322.0</ele><time>2026-05-02T14:08:01.492Z</time></trkpt><trkpt lat="42.9464464" lon="13.7019595"><ele>322.0</ele><time>2026-05-02T14:08:02.492Z</time></trkpt><trkpt lat="42.9463809" lon="13.701875"><ele>322.0</ele><time>2026-05-02T14:08:03.492Z</time></trkpt><trkpt lat="42.9462983" lon="13.7017936"><ele>322.0</ele><time>2026-05-02T14:08:04.492Z</time></trkpt><trkpt lat="42.9461915" lon="13.7017472"><ele>322.0</ele><time>2026-05-02T14:08:05.492Z</time></trkpt><trkpt lat="42.9460435" lon="13.7017193"><ele>321.5</ele><time>2026-05-02T14:08:06.492Z</time></trkpt><trkpt lat="42.9459101" lon="13.7016755"><ele>321.0</ele><time>2026-05-02T14:08:07.492Z</time></trkpt><trkpt lat="42.9458" lon="13.701593"><ele>320.5</ele><time>2026-05-02T14:08:08.492Z</time></trkpt><trkpt lat="42.9457051" lon="13.7014857"><ele>320.0</ele><time>2026-05-02T14:08:09.492Z</time></trkpt><trkpt lat="42.9456125" lon="13.7013716"><ele>320.0</ele><time>2026-05-02T14:08:10.492Z</time></trkpt><trkpt lat="42.945518" lon="13.7012591"><ele>320.0</ele><time>2026-05-02T14:08:11.492Z</time></trkpt><trkpt lat="42.9454218" lon="13.7011501"><ele>320.0</ele><time>2026-05-02T14:08:12.492Z</time></trkpt><trkpt lat="42.9453204" lon="13.7010379"><ele>320.0</ele><time>2026-05-02T14:08:13.492Z</time></trkpt><trkpt lat="42.9452155" lon="13.7009246"><ele>320.0</ele><time>2026-05-02T14:08:14.492Z</time></trkpt><trkpt lat="42.9451035" lon="13.7008107"><ele>320.0</ele><time>2026-05-02T14:08:15.492Z</time></trkpt><trkpt lat="42.9449993" lon="13.7007052"><ele>320.0</ele><time>2026-05-02T14:08:16.492Z</time></trkpt><trkpt lat="42.9448845" lon="13.7006004"><ele>320.0</ele><time>2026-05-02T14:08:17.492Z</time></trkpt><trkpt lat="42.9447632" lon="13.7005156"><ele>320.0</ele><time>2026-05-02T14:08:18.492Z</time></trkpt><trkpt lat="42.9446397" lon="13.7004673"><ele>320.0</ele><time>2026-05-02T14:08:19.492Z</time></trkpt><trkpt lat="42.944515" lon="13.7004572"><ele>320.0</ele><time>2026-05-02T14:08:20.492Z</time></trkpt><trkpt lat="42.9443731" lon="13.7004659"><ele>320.0</ele><time>2026-05-02T14:08:21.492Z</time></trkpt><trkpt lat="42.9442343" lon="13.700517"><ele>319.75</ele><time>2026-05-02T14:08:22.492Z</time></trkpt><trkpt lat="42.9441184" lon="13.7006117"><ele>319.5</ele><time>2026-05-02T14:08:23.492Z</time></trkpt><trkpt lat="42.944013" lon="13.7007137"><ele>319.25</ele><time>2026-05-02T14:08:24.492Z</time></trkpt><trkpt lat="42.9439085" lon="13.7007867"><ele>319.0</ele><time>2026-05-02T14:08:25.492Z</time></trkpt><trkpt lat="42.943799" lon="13.7008177"><ele>319.0</ele><time>2026-05-02T14:08:26.492Z</time></trkpt><trkpt lat="42.9436875" lon="13.7008139"><ele>319.0</ele><time>2026-05-02T14:08:27.492Z</time></trkpt><trkpt lat="42.9435728" lon="13.7007816"><ele>319.0</ele><time>2026-05-02T14:08:28.492Z</time></trkpt><trkpt lat="42.9434619" lon="13.7007114"><ele>319.0</ele><time>2026-05-02T14:08:29.492Z</time></trkpt><trkpt lat="42.9433439" lon="13.7006066"><ele>319.75</ele><time>2026-05-02T14:08:30.492Z</time></trkpt><trkpt lat="42.9432468" lon="13.700496"><ele>320.5</ele><time>2026-05-02T14:08:31.491Z</time></trkpt><trkpt lat="42.9431558" lon="13.700356"><ele>321.25</ele><time>2026-05-02T14:08:32.492Z</time></trkpt><trkpt lat="42.9430967" lon="13.7001886"><ele>322.0</ele><time>2026-05-02T14:08:33.492Z</time></trkpt><trkpt lat="42.9430784" lon="13.7000203"><ele>322.0</ele><time>2026-05-02T14:08:34.492Z</time></trkpt><trkpt lat="42.9430897" lon="13.6998617"><ele>322.0</ele><time>2026-05-02T14:08:35.492Z</time></trkpt><trkpt lat="42.9431287" lon="13.6997015"><ele>322.0</ele><time>2026-05-02T14:08:36.492Z</time></trkpt><trkpt lat="42.9431864" lon="13.6995488"><ele>322.0</ele><time>2026-05-02T14:08:37.492Z</time></trkpt><trkpt lat="42.9432501" lon="13.6993928"><ele>323.0</ele><time>2026-05-02T14:08:38.492Z</time></trkpt><trkpt lat="42.9432993" lon="13.6992457"><ele>324.0</ele><time>2026-05-02T14:08:39.493Z</time></trkpt><trkpt lat="42.9433268" lon="13.6991034"><ele>325.0</ele><time>2026-05-02T14:08:40.492Z</time></trkpt><trkpt lat="42.9433229" lon="13.6989728"><ele>326.0</ele><time>2026-05-02T14:08:41.493Z</time></trkpt><trkpt lat="42.9433023" lon="13.6988596"><ele>327.0</ele><time>2026-05-02T14:08:42.492Z</time></trkpt><trkpt lat="42.94325" lon="13.6987873"><ele>327.0</ele><time>2026-05-02T14:08:43.493Z</time></trkpt><trkpt lat="42.9431916" lon="13.6987115"><ele>327.0</ele><time>2026-05-02T14:08:44.493Z</time></trkpt><trkpt lat="42.9430894" lon="13.6986302"><ele>327.0</ele><time>2026-05-02T14:08:46.493Z</time></trkpt><trkpt lat="42.9429456" lon="13.69861"><ele>327.0</ele><time>2026-05-02T14:08:48.493Z</time></trkpt><trkpt lat="42.9428162" lon="13.6986259"><ele>327.0</ele><time>2026-05-02T14:08:49.493Z</time></trkpt><trkpt lat="42.9426397" lon="13.698618"><ele>327.0</ele><time>2026-05-02T14:08:50.493Z</time></trkpt><trkpt lat="42.9424886" lon="13.6985853"><ele>327.0</ele><time>2026-05-02T14:08:51.493Z</time></trkpt><trkpt lat="42.9423736" lon="13.6985238"><ele>327.75</ele><time>2026-05-02T14:08:52.492Z</time></trkpt><trkpt lat="42.9422397" lon="13.6984704"><ele>328.5</ele><time>2026-05-02T14:08:53.493Z</time></trkpt><trkpt lat="42.9421019" lon="13.6984527"><ele>329.25</ele><time>2026-05-02T14:08:54.493Z</time></trkpt><trkpt lat="42.9419677" lon="13.6984468"><ele>330.0</ele><time>2026-05-02T14:08:55.492Z</time></trkpt><trkpt lat="42.9418253" lon="13.6984964"><ele>329.0</ele><time>2026-05-02T14:08:56.493Z</time></trkpt><trkpt lat="42.9416864" lon="13.6985681"><ele>328.0</ele><time>2026-05-02T14:08:57.493Z</time></trkpt><trkpt lat="42.9415382" lon="13.6986393"><ele>327.0</ele><time>2026-05-02T14:08:58.493Z</time></trkpt><trkpt lat="42.9413772" lon="13.6987053"><ele>322.0</ele><time>2026-05-02T14:08:59.493Z</time></trkpt><trkpt lat="42.9412215" lon="13.6987721"><ele>317.0</ele><time>2026-05-02T14:09:00.493Z</time></trkpt><trkpt lat="42.9410766" lon="13.6988284"><ele>312.0</ele><time>2026-05-02T14:09:01.493Z</time></trkpt><trkpt lat="42.9409379" lon="13.6988573"><ele>313.25</ele><time>2026-05-02T14:09:02.492Z</time></trkpt><trkpt lat="42.9408051" lon="13.6988355"><ele>314.5</ele><time>2026-05-02T14:09:03.493Z</time></trkpt><trkpt lat="42.9406711" lon="13.6987911"><ele>315.75</ele><time>2026-05-02T14:09:04.493Z</time></trkpt><trkpt lat="42.9405571" lon="13.6987336"><ele>317.0</ele><time>2026-05-02T14:09:05.493Z</time></trkpt><trkpt lat="42.9404592" lon="13.6986929"><ele>317.0</ele><time>2026-05-02T14:09:06.493Z</time></trkpt><trkpt lat="42.9403525" lon="13.6986784"><ele>317.0</ele><time>2026-05-02T14:09:07.493Z</time></trkpt><trkpt lat="42.940248" lon="13.6987025"><ele>317.0</ele><time>2026-05-02T14:09:08.492Z</time></trkpt><trkpt lat="42.9401411" lon="13.6987569"><ele>317.0</ele><time>2026-05-02T14:09:09.493Z</time></trkpt><trkpt lat="42.9400519" lon="13.6988311"><ele>317.0</ele><time>2026-05-02T14:09:10.492Z</time></trkpt><trkpt lat="42.9399708" lon="13.6989317"><ele>317.75</ele><time>2026-05-02T14:09:11.493Z</time></trkpt><trkpt lat="42.9398817" lon="13.6990433"><ele>318.5</ele><time>2026-05-02T14:09:12.493Z</time></trkpt><trkpt lat="42.9397865" lon="13.6991599"><ele>319.25</ele><time>2026-05-02T14:09:13.493Z</time></trkpt><trkpt lat="42.9396898" lon="13.6992717"><ele>320.0</ele><time>2026-05-02T14:09:14.493Z</time></trkpt><trkpt lat="42.9395884" lon="13.6993654"><ele>318.6</ele><time>2026-05-02T14:09:15.493Z</time></trkpt><trkpt lat="42.9394866" lon="13.6994316"><ele>317.2</ele><time>2026-05-02T14:09:16.493Z</time></trkpt><trkpt lat="42.9393839" lon="13.6994763"><ele>315.8</ele><time>2026-05-02T14:09:17.493Z</time></trkpt><trkpt lat="42.9392779" lon="13.6994972"><ele>314.4</ele><time>2026-05-02T14:09:18.492Z</time></trkpt><trkpt lat="42.9391704" lon="13.6994998"><ele>313.0</ele><time>2026-05-02T14:09:19.493Z</time></trkpt><trkpt lat="42.9390663" lon="13.6994915"><ele>313.0</ele><time>2026-05-02T14:09:20.493Z</time></trkpt><trkpt lat="42.9389547" lon="13.6994692"><ele>313.0</ele><time>2026-05-02T14:09:21.493Z</time></trkpt><trkpt lat="42.9388502" lon="13.6994485"><ele>313.0</ele><time>2026-05-02T14:09:22.492Z</time></trkpt><trkpt lat="42.938752" lon="13.6994333"><ele>313.0</ele><time>2026-05-02T14:09:23.493Z</time></trkpt><trkpt lat="42.9386548" lon="13.6994143"><ele>313.0</ele><time>2026-05-02T14:09:24.492Z</time></trkpt><trkpt lat="42.9385618" lon="13.6994027"><ele>315.0</ele><time>2026-05-02T14:09:25.493Z</time></trkpt><trkpt lat="42.9384626" lon="13.6993806"><ele>317.0</ele><time>2026-05-02T14:09:26.492Z</time></trkpt><trkpt lat="42.9383581" lon="13.6993675"><ele>319.0</ele><time>2026-05-02T14:09:27.493Z</time></trkpt><trkpt lat="42.9382589" lon="13.6993612"><ele>321.0</ele><time>2026-05-02T14:09:28.493Z</time></trkpt><trkpt lat="42.938148" lon="13.6993538"><ele>323.0</ele><time>2026-05-02T14:09:29.493Z</time></trkpt><trkpt lat="42.9380504" lon="13.6993485"><ele>323.0</ele><time>2026-05-02T14:09:30.492Z</time></trkpt><trkpt lat="42.9379554" lon="13.6993337"><ele>323.0</ele><time>2026-05-02T14:09:31.493Z</time></trkpt><trkpt lat="42.9378707" lon="13.6993172"><ele>323.0</ele><time>2026-05-02T14:09:32.493Z</time></trkpt><trkpt lat="42.9377797" lon="13.6993064"><ele>323.0</ele><time>2026-05-02T14:09:33.493Z</time></trkpt><trkpt lat="42.9376867" lon="13.6992994"><ele>323.0</ele><time>2026-05-02T14:09:34.492Z</time></trkpt><trkpt lat="42.9376172" lon="13.6992791"><ele>323.0</ele><time>2026-05-02T14:09:35.492Z</time></trkpt><trkpt lat="42.9375498" lon="13.6992663"><ele>323.0</ele><time>2026-05-02T14:09:36.494Z</time></trkpt><trkpt lat="42.9374297" lon="13.699266"><ele>323.0</ele><time>2026-05-02T14:09:38.492Z</time></trkpt><trkpt lat="42.9373568" lon="13.6992515"><ele>323.0</ele><time>2026-05-02T14:09:40.493Z</time></trkpt><trkpt lat="42.9372904" lon="13.6992154"><ele>323.0</ele><time>2026-05-02T14:09:42.493Z</time></trkpt><trkpt lat="42.9372432" lon="13.6991315"><ele>323.0</ele><time>2026-05-02T14:09:45.494Z</time></trkpt><trkpt lat="42.9372267" lon="13.6990267"><ele>323.0</ele><time>2026-05-02T14:09:48.494Z</time></trkpt><trkpt lat="42.9372151" lon="13.6989016"><ele>323.0</ele><time>2026-05-02T14:09:50.494Z</time></trkpt><trkpt lat="42.9372299" lon="13.6987588"><ele>323.0</ele><time>2026-05-02T14:09:52.493Z</time></trkpt><trkpt lat="42.9372475" lon="13.6986741"><ele>323.0</ele><time>2026-05-02T14:09:53.493Z</time></trkpt><trkpt lat="42.9372662" lon="13.6985792"><ele>323.0</ele><time>2026-05-02T14:09:54.494Z</time></trkpt><trkpt lat="42.9372818" lon="13.6984864"><ele>323.0</ele><time>2026-05-02T14:09:55.494Z</time></trkpt><trkpt lat="42.9372938" lon="13.6983931"><ele>323.0</ele><time>2026-05-02T14:09:56.494Z</time></trkpt><trkpt lat="42.9373075" lon="13.6983003"><ele>323.1666666666667</ele><time>2026-05-02T14:09:57.494Z</time></trkpt><trkpt lat="42.9373218" lon="13.6982121"><ele>323.33333333333337</ele><time>2026-05-02T14:09:58.494Z</time></trkpt><trkpt lat="42.9373363" lon="13.6981254"><ele>323.5</ele><time>2026-05-02T14:09:59.494Z</time></trkpt><trkpt lat="42.9373525" lon="13.698042"><ele>323.6666666666667</ele><time>2026-05-02T14:10:00.493Z</time></trkpt><trkpt lat="42.9373784" lon="13.6978883"><ele>323.8333333333333</ele><time>2026-05-02T14:10:02.494Z</time></trkpt><trkpt lat="42.9373983" lon="13.6977904"><ele>324.0</ele><time>2026-05-02T14:10:04.494Z</time></trkpt><trkpt lat="42.937358" lon="13.6978818"><ele>324.0</ele><time>2026-05-02T14:10:57.494Z</time></trkpt><trkpt lat="42.9373392" lon="13.6979701"><ele>324.0</ele><time>2026-05-02T14:10:59.495Z</time></trkpt><trkpt lat="42.9373326" lon="13.6980896"><ele>324.0</ele><time>2026-05-02T14:11:00.495Z</time></trkpt><trkpt lat="42.9373168" lon="13.698215"><ele>324.0</ele><time>2026-05-02T14:11:01.495Z</time></trkpt><trkpt lat="42.9372897" lon="13.6983633"><ele>324.0</ele><time>2026-05-02T14:11:02.495Z</time></trkpt><trkpt lat="42.9372608" lon="13.6984931"><ele>323.8333333333333</ele><time>2026-05-02T14:11:03.495Z</time></trkpt><trkpt lat="42.9372372" lon="13.6986142"><ele>323.6666666666667</ele><time>2026-05-02T14:11:04.495Z</time></trkpt><trkpt lat="42.9372155" lon="13.6987397"><ele>323.5</ele><time>2026-05-02T14:11:05.495Z</time></trkpt><trkpt lat="42.9371944" lon="13.6988641"><ele>323.33333333333337</ele><time>2026-05-02T14:11:06.495Z</time></trkpt><trkpt lat="42.9371797" lon="13.698977"><ele>323.1666666666667</ele><time>2026-05-02T14:11:07.494Z</time></trkpt><trkpt lat="42.9371617" lon="13.6990796"><ele>323.0</ele><time>2026-05-02T14:11:08.495Z</time></trkpt><trkpt lat="42.9371465" lon="13.6991684"><ele>323.0</ele><time>2026-05-02T14:11:09.494Z</time></trkpt><trkpt lat="42.9371144" lon="13.6993074"><ele>323.0</ele><time>2026-05-02T14:11:11.495Z</time></trkpt><trkpt lat="42.9370733" lon="13.6994009"><ele>323.0</ele><time>2026-05-02T14:11:13.495Z</time></trkpt><trkpt lat="42.9370207" lon="13.6995038"><ele>323.0</ele><time>2026-05-02T14:11:15.495Z</time></trkpt><trkpt lat="42.9369826" lon="13.6995883"><ele>323.0</ele><time>2026-05-02T14:11:16.495Z</time></trkpt><trkpt lat="42.9369514" lon="13.6996736"><ele>323.0</ele><time>2026-05-02T14:11:17.495Z</time></trkpt><trkpt lat="42.9369152" lon="13.6997704"><ele>322.42857142857144</ele><time>2026-05-02T14:11:18.495Z</time></trkpt><trkpt lat="42.9368841" lon="13.6998714"><ele>321.8571428571429</ele><time>2026-05-02T14:11:19.495Z</time></trkpt><trkpt lat="42.9368399" lon="13.6999494"><ele>321.28571428571433</ele><time>2026-05-02T14:11:20.495Z</time></trkpt><trkpt lat="42.9367972" lon="13.7000313"><ele>320.7142857142857</ele><time>2026-05-02T14:11:21.495Z</time></trkpt><trkpt lat="42.9367564" lon="13.7001101"><ele>320.1428571428571</ele><time>2026-05-02T14:11:22.495Z</time></trkpt><trkpt lat="42.9367123" lon="13.7001934"><ele>319.5714285714286</ele><time>2026-05-02T14:11:23.494Z</time></trkpt><trkpt lat="42.9366695" lon="13.7002707"><ele>319.0</ele><time>2026-05-02T14:11:24.495Z</time></trkpt><trkpt lat="42.9366242" lon="13.7003355"><ele>318.3333333333333</ele><time>2026-05-02T14:11:25.494Z</time></trkpt><trkpt lat="42.936533" lon="13.7004157"><ele>317.66666666666663</ele><time>2026-05-02T14:11:27.495Z</time></trkpt><trkpt lat="42.9364689" lon="13.7004584"><ele>317.0</ele><time>2026-05-02T14:11:29.494Z</time></trkpt><trkpt lat="42.9364524" lon="13.7005732"><ele>316.3333333333333</ele><time>2026-05-02T14:11:31.494Z</time></trkpt><trkpt lat="42.9364595" lon="13.7006683"><ele>315.6666666666667</ele><time>2026-05-02T14:11:32.494Z</time></trkpt><trkpt lat="42.9364591" lon="13.7007714"><ele>315.0</ele><time>2026-05-02T14:11:33.495Z</time></trkpt><trkpt lat="42.9364523" lon="13.7008815"><ele>315.0</ele><time>2026-05-02T14:11:34.495Z</time></trkpt><trkpt lat="42.9364391" lon="13.7009965"><ele>315.0</ele><time>2026-05-02T14:11:35.495Z</time></trkpt><trkpt lat="42.936431" lon="13.7011294"><ele>315.0</ele><time>2026-05-02T14:11:36.495Z</time></trkpt><trkpt lat="42.9364289" lon="13.7012659"><ele>315.0</ele><time>2026-05-02T14:11:37.494Z</time></trkpt><trkpt lat="42.9364393" lon="13.701398"><ele>315.0</ele><time>2026-05-02T14:11:38.495Z</time></trkpt><trkpt lat="42.9364619" lon="13.70152"><ele>313.4</ele><time>2026-05-02T14:11:39.495Z</time></trkpt><trkpt lat="42.9364982" lon="13.7016527"><ele>311.8</ele><time>2026-05-02T14:11:40.495Z</time></trkpt><trkpt lat="42.9365348" lon="13.7017697"><ele>310.2</ele><time>2026-05-02T14:11:41.494Z</time></trkpt><trkpt lat="42.9365688" lon="13.7018838"><ele>308.6</ele><time>2026-05-02T14:11:42.495Z</time></trkpt><trkpt lat="42.9366" lon="13.7019976"><ele>307.0</ele><time>2026-05-02T14:11:43.495Z</time></trkpt><trkpt lat="42.9366288" lon="13.7021002"><ele>305.2</ele><time>2026-05-02T14:11:44.495Z</time></trkpt><trkpt lat="42.9366581" lon="13.7022052"><ele>303.4</ele><time>2026-05-02T14:11:45.495Z</time></trkpt><trkpt lat="42.9366855" lon="13.7023013"><ele>301.6</ele><time>2026-05-02T14:11:46.495Z</time></trkpt><trkpt lat="42.9367085" lon="13.7023886"><ele>299.8</ele><time>2026-05-02T14:11:47.495Z</time></trkpt><trkpt lat="42.936748" lon="13.7025534"><ele>298.0</ele><time>2026-05-02T14:11:49.495Z</time></trkpt><trkpt lat="42.9367891" lon="13.7027192"><ele>296.66666666666663</ele><time>2026-05-02T14:11:51.495Z</time></trkpt><trkpt lat="42.9368051" lon="13.7028071"><ele>295.3333333333333</ele><time>2026-05-02T14:11:52.495Z</time></trkpt><trkpt lat="42.9368424" lon="13.7029537"><ele>294.0</ele><time>2026-05-02T14:11:54.496Z</time></trkpt><trkpt lat="42.9368631" lon="13.7030465"><ele>292.6666666666667</ele><time>2026-05-02T14:11:56.495Z</time></trkpt><trkpt lat="42.936827" lon="13.7031358"><ele>291.33333333333337</ele><time>2026-05-02T14:12:00.495Z</time></trkpt><trkpt lat="42.9367401" lon="13.7031877"><ele>290.0</ele><time>2026-05-02T14:12:02.496Z</time></trkpt><trkpt lat="42.9366732" lon="13.7032029"><ele>290.0</ele><time>2026-05-02T14:12:03.496Z</time></trkpt><trkpt lat="42.9365944" lon="13.7032151"><ele>290.0</ele><time>2026-05-02T14:12:04.496Z</time></trkpt><trkpt lat="42.936509" lon="13.703238"><ele>290.0</ele><time>2026-05-02T14:12:05.496Z</time></trkpt><trkpt lat="42.9364241" lon="13.7032659"><ele>290.0</ele><time>2026-05-02T14:12:06.496Z</time></trkpt><trkpt lat="42.9363388" lon="13.7032997"><ele>290.0</ele><time>2026-05-02T14:12:07.496Z</time></trkpt><trkpt lat="42.9362549" lon="13.7033403"><ele>290.0</ele><time>2026-05-02T14:12:08.495Z</time></trkpt><trkpt lat="42.9361741" lon="13.7033803"><ele>290.0</ele><time>2026-05-02T14:12:09.496Z</time></trkpt><trkpt lat="42.9360796" lon="13.703422"><ele>290.0</ele><time>2026-05-02T14:12:10.495Z</time></trkpt><trkpt lat="42.9359855" lon="13.7034591"><ele>290.0</ele><time>2026-05-02T14:12:11.496Z</time></trkpt><trkpt lat="42.9358901" lon="13.7034963"><ele>290.0</ele><time>2026-05-02T14:12:12.496Z</time></trkpt><trkpt lat="42.9357943" lon="13.7035319"><ele>290.0</ele><time>2026-05-02T14:12:13.496Z</time></trkpt><trkpt lat="42.9356968" lon="13.7035655"><ele>289.6</ele><time>2026-05-02T14:12:14.496Z</time></trkpt><trkpt lat="42.9355987" lon="13.7035984"><ele>289.2</ele><time>2026-05-02T14:12:15.496Z</time></trkpt><trkpt lat="42.9354988" lon="13.7036315"><ele>288.8</ele><time>2026-05-02T14:12:16.496Z</time></trkpt><trkpt lat="42.9353947" lon="13.703666"><ele>288.4</ele><time>2026-05-02T14:12:17.496Z</time></trkpt><trkpt lat="42.9352906" lon="13.7037023"><ele>288.0</ele><time>2026-05-02T14:12:18.496Z</time></trkpt><trkpt lat="42.9351798" lon="13.703743"><ele>288.0</ele><time>2026-05-02T14:12:19.496Z</time></trkpt><trkpt lat="42.9350732" lon="13.7037824"><ele>288.0</ele><time>2026-05-02T14:12:20.496Z</time></trkpt><trkpt lat="42.9349626" lon="13.7038183"><ele>288.0</ele><time>2026-05-02T14:12:21.496Z</time></trkpt><trkpt lat="42.9348525" lon="13.7038539"><ele>288.0</ele><time>2026-05-02T14:12:22.496Z</time></trkpt><trkpt lat="42.9347407" lon="13.7038867"><ele>288.4</ele><time>2026-05-02T14:12:23.496Z</time></trkpt><trkpt lat="42.9346304" lon="13.7039195"><ele>288.8</ele><time>2026-05-02T14:12:24.496Z</time></trkpt><trkpt lat="42.9345226" lon="13.7039541"><ele>289.2</ele><time>2026-05-02T14:12:25.496Z</time></trkpt><trkpt lat="42.934412" lon="13.7039873"><ele>289.6</ele><time>2026-05-02T14:12:26.496Z</time></trkpt><trkpt lat="42.9343102" lon="13.7040195"><ele>290.0</ele><time>2026-05-02T14:12:27.495Z</time></trkpt><trkpt lat="42.9342054" lon="13.7040533"><ele>289.2</ele><time>2026-05-02T14:12:28.496Z</time></trkpt><trkpt lat="42.934103" lon="13.704082"><ele>288.4</ele><time>2026-05-02T14:12:29.495Z</time></trkpt><trkpt lat="42.9340009" lon="13.7041148"><ele>287.6</ele><time>2026-05-02T14:12:30.496Z</time></trkpt><trkpt lat="42.9338998" lon="13.7041499"><ele>286.8</ele><time>2026-05-02T14:12:31.496Z</time></trkpt><trkpt lat="42.9337927" lon="13.7041845"><ele>286.0</ele><time>2026-05-02T14:12:32.496Z</time></trkpt><trkpt lat="42.933688" lon="13.7042203"><ele>286.0</ele><time>2026-05-02T14:12:33.496Z</time></trkpt><trkpt lat="42.9335842" lon="13.7042562"><ele>286.0</ele><time>2026-05-02T14:12:34.495Z</time></trkpt><trkpt lat="42.9334792" lon="13.7042949"><ele>286.0</ele><time>2026-05-02T14:12:35.496Z</time></trkpt><trkpt lat="42.9333734" lon="13.7043279"><ele>286.0</ele><time>2026-05-02T14:12:36.496Z</time></trkpt><trkpt lat="42.9332704" lon="13.7043621"><ele>286.0</ele><time>2026-05-02T14:12:37.496Z</time></trkpt><trkpt lat="42.9331632" lon="13.7043967"><ele>283.2</ele><time>2026-05-02T14:12:38.496Z</time></trkpt><trkpt lat="42.9330603" lon="13.7044315"><ele>280.40000000000003</ele><time>2026-05-02T14:12:39.496Z</time></trkpt><trkpt lat="42.9329607" lon="13.7044645"><ele>277.6</ele><time>2026-05-02T14:12:40.495Z</time></trkpt><trkpt lat="42.932859" lon="13.7044947"><ele>274.8</ele><time>2026-05-02T14:12:41.496Z</time></trkpt><trkpt lat="42.9327615" lon="13.7045251"><ele>272.0</ele><time>2026-05-02T14:12:42.496Z</time></trkpt><trkpt lat="42.9326577" lon="13.7045598"><ele>271.4</ele><time>2026-05-02T14:12:43.496Z</time></trkpt><trkpt lat="42.9325554" lon="13.7045944"><ele>270.79999999999995</ele><time>2026-05-02T14:12:44.496Z</time></trkpt><trkpt lat="42.9324509" lon="13.7046322"><ele>270.2</ele><time>2026-05-02T14:12:45.496Z</time></trkpt><trkpt lat="42.9323424" lon="13.7046689"><ele>269.59999999999997</ele><time>2026-05-02T14:12:46.496Z</time></trkpt><trkpt lat="42.9322353" lon="13.7047018"><ele>269.0</ele><time>2026-05-02T14:12:47.496Z</time></trkpt><trkpt lat="42.9321218" lon="13.7047359"><ele>269.0</ele><time>2026-05-02T14:12:48.496Z</time></trkpt><trkpt lat="42.9320133" lon="13.7047697"><ele>269.0</ele><time>2026-05-02T14:12:49.496Z</time></trkpt><trkpt lat="42.9319022" lon="13.7047921"><ele>269.0</ele><time>2026-05-02T14:12:50.496Z</time></trkpt><trkpt lat="42.9317886" lon="13.7048034"><ele>269.0</ele><time>2026-05-02T14:12:51.496Z</time></trkpt><trkpt lat="42.9316649" lon="13.7047997"><ele>267.75</ele><time>2026-05-02T14:12:52.496Z</time></trkpt><trkpt lat="42.931548" lon="13.7047809"><ele>266.5</ele><time>2026-05-02T14:12:53.496Z</time></trkpt><trkpt lat="42.9314295" lon="13.7047495"><ele>265.25</ele><time>2026-05-02T14:12:54.496Z</time></trkpt><trkpt lat="42.9313041" lon="13.7047087"><ele>264.0</ele><time>2026-05-02T14:12:55.496Z</time></trkpt><trkpt lat="42.9311796" lon="13.7046533"><ele>264.0</ele><time>2026-05-02T14:12:56.495Z</time></trkpt><trkpt lat="42.9310652" lon="13.7045906"><ele>264.0</ele><time>2026-05-02T14:12:57.496Z</time></trkpt><trkpt lat="42.9309604" lon="13.7045113"><ele>264.0</ele><time>2026-05-02T14:12:58.497Z</time></trkpt><trkpt lat="42.9308566" lon="13.7044275"><ele>264.0</ele><time>2026-05-02T14:12:59.497Z</time></trkpt><trkpt lat="42.9307645" lon="13.7043339"><ele>263.75</ele><time>2026-05-02T14:13:00.497Z</time></trkpt><trkpt lat="42.9306813" lon="13.704239"><ele>263.5</ele><time>2026-05-02T14:13:01.497Z</time></trkpt><trkpt lat="42.9305976" lon="13.7041383"><ele>263.25</ele><time>2026-05-02T14:13:02.497Z</time></trkpt><trkpt lat="42.9305156" lon="13.7040253"><ele>263.0</ele><time>2026-05-02T14:13:03.497Z</time></trkpt><trkpt lat="42.9304383" lon="13.703899"><ele>263.0</ele><time>2026-05-02T14:13:04.497Z</time></trkpt><trkpt lat="42.9303661" lon="13.7037635"><ele>263.0</ele><time>2026-05-02T14:13:05.497Z</time></trkpt><trkpt lat="42.9302999" lon="13.7036196"><ele>263.0</ele><time>2026-05-02T14:13:06.497Z</time></trkpt><trkpt lat="42.9302393" lon="13.7034576"><ele>263.0</ele><time>2026-05-02T14:13:07.497Z</time></trkpt><trkpt lat="42.9301875" lon="13.7032863"><ele>265.5</ele><time>2026-05-02T14:13:08.497Z</time></trkpt><trkpt lat="42.9301455" lon="13.7031054"><ele>268.0</ele><time>2026-05-02T14:13:09.497Z</time></trkpt><trkpt lat="42.9301101" lon="13.7029227"><ele>270.5</ele><time>2026-05-02T14:13:10.497Z</time></trkpt><trkpt lat="42.9300843" lon="13.7027362"><ele>273.0</ele><time>2026-05-02T14:13:11.497Z</time></trkpt><trkpt lat="42.9300661" lon="13.7025501"><ele>269.5</ele><time>2026-05-02T14:13:12.496Z</time></trkpt><trkpt lat="42.9300472" lon="13.7023658"><ele>266.0</ele><time>2026-05-02T14:13:13.497Z</time></trkpt><trkpt lat="42.9300216" lon="13.7021831"><ele>262.5</ele><time>2026-05-02T14:13:14.497Z</time></trkpt><trkpt lat="42.9299899" lon="13.7020015"><ele>259.0</ele><time>2026-05-02T14:13:15.496Z</time></trkpt><trkpt lat="42.9299507" lon="13.7018234"><ele>259.0</ele><time>2026-05-02T14:13:16.497Z</time></trkpt><trkpt lat="42.9299069" lon="13.7016607"><ele>259.0</ele><time>2026-05-02T14:13:17.497Z</time></trkpt><trkpt lat="42.9298604" lon="13.7015041"><ele>259.0</ele><time>2026-05-02T14:13:18.497Z</time></trkpt><trkpt lat="42.9298141" lon="13.7013561"><ele>259.0</ele><time>2026-05-02T14:13:19.497Z</time></trkpt><trkpt lat="42.9297716" lon="13.7012209"><ele>259.0</ele><time>2026-05-02T14:13:20.496Z</time></trkpt><trkpt lat="42.9297304" lon="13.7010986"><ele>259.0</ele><time>2026-05-02T14:13:21.497Z</time></trkpt><trkpt lat="42.9297013" lon="13.7010047"><ele>259.0</ele><time>2026-05-02T14:13:22.497Z</time></trkpt><trkpt lat="42.9296599" lon="13.7008823"><ele>259.0</ele><time>2026-05-02T14:13:24.497Z</time></trkpt><trkpt lat="42.9296222" lon="13.7007932"><ele>259.0</ele><time>2026-05-02T14:13:39.497Z</time></trkpt><trkpt lat="42.9295259" lon="13.7006494"><ele>257.4</ele><time>2026-05-02T14:13:41.497Z</time></trkpt><trkpt lat="42.9294479" lon="13.7005803"><ele>255.79999999999998</ele><time>2026-05-02T14:13:42.497Z</time></trkpt><trkpt lat="42.9293548" lon="13.7005339"><ele>254.20000000000002</ele><time>2026-05-02T14:13:43.497Z</time></trkpt><trkpt lat="42.9292503" lon="13.7004874"><ele>252.60000000000002</ele><time>2026-05-02T14:13:44.497Z</time></trkpt><trkpt lat="42.9291536" lon="13.7004253"><ele>251.0</ele><time>2026-05-02T14:13:45.497Z</time></trkpt><trkpt lat="42.9290708" lon="13.7003415"><ele>251.00000000000003</ele><time>2026-05-02T14:13:46.497Z</time></trkpt><trkpt lat="42.9290087" lon="13.7002532"><ele>251.0</ele><time>2026-05-02T14:13:47.497Z</time></trkpt><trkpt lat="42.9289587" lon="13.7001638"><ele>251.0</ele><time>2026-05-02T14:13:48.498Z</time></trkpt><trkpt lat="42.9289112" lon="13.7000755"><ele>251.0</ele><time>2026-05-02T14:13:49.497Z</time></trkpt><trkpt lat="42.9288703" lon="13.699987"><ele>251.00000000000003</ele><time>2026-05-02T14:13:50.497Z</time></trkpt><trkpt lat="42.9288429" lon="13.6998934"><ele>251.0</ele><time>2026-05-02T14:13:51.497Z</time></trkpt><trkpt lat="42.9288356" lon="13.6997588"><ele>250.20000000000002</ele><time>2026-05-02T14:13:53.497Z</time></trkpt><trkpt lat="42.9288708" lon="13.6996624"><ele>249.40000000000003</ele><time>2026-05-02T14:13:56.497Z</time></trkpt><trkpt lat="42.9288031" lon="13.6996735"><ele>248.6</ele><time>2026-05-02T14:14:00.497Z</time></trkpt><trkpt lat="42.9287749" lon="13.6997831"><ele>247.8</ele><time>2026-05-02T14:14:02.496Z</time></trkpt><trkpt lat="42.9288289" lon="13.6999604"><ele>247.0</ele><time>2026-05-02T14:14:04.498Z</time></trkpt><trkpt lat="42.9288792" lon="13.700069"><ele>246.99999999999997</ele><time>2026-05-02T14:14:05.498Z</time></trkpt><trkpt lat="42.9289226" lon="13.7001562"><ele>247.0</ele><time>2026-05-02T14:14:06.498Z</time></trkpt><trkpt lat="42.9289601" lon="13.7002277"><ele>247.0</ele><time>2026-05-02T14:14:07.497Z</time></trkpt><trkpt lat="42.9290058" lon="13.700333"><ele>247.0</ele><time>2026-05-02T14:14:09.498Z</time></trkpt><trkpt lat="42.9289606" lon="13.7004484"><ele>246.99999999999997</ele><time>2026-05-02T14:14:11.498Z</time></trkpt><trkpt lat="42.9288975" lon="13.7005157"><ele>247.0</ele><time>2026-05-02T14:14:12.498Z</time></trkpt><trkpt lat="42.9288269" lon="13.7005969"><ele>247.8</ele><time>2026-05-02T14:14:13.498Z</time></trkpt><trkpt lat="42.9287558" lon="13.7006941"><ele>248.6</ele><time>2026-05-02T14:14:14.497Z</time></trkpt><trkpt lat="42.9286909" lon="13.7007896"><ele>249.40000000000003</ele><time>2026-05-02T14:14:15.498Z</time></trkpt><trkpt lat="42.9286306" lon="13.7008839"><ele>250.20000000000002</ele><time>2026-05-02T14:14:16.497Z</time></trkpt><trkpt lat="42.9285826" lon="13.700992"><ele>251.0</ele><time>2026-05-02T14:14:17.498Z</time></trkpt><trkpt lat="42.928549" lon="13.70111"><ele>252.60000000000002</ele><time>2026-05-02T14:14:18.498Z</time></trkpt><trkpt lat="42.928535" lon="13.7012422"><ele>254.20000000000002</ele><time>2026-05-02T14:14:19.498Z</time></trkpt><trkpt lat="42.9285411" lon="13.7013754"><ele>255.79999999999998</ele><time>2026-05-02T14:14:20.498Z</time></trkpt><trkpt lat="42.9285613" lon="13.7015082"><ele>257.4</ele><time>2026-05-02T14:14:21.498Z</time></trkpt><trkpt lat="42.9285799" lon="13.7016404"><ele>259.0</ele><time>2026-05-02T14:14:22.498Z</time></trkpt><trkpt lat="42.9285906" lon="13.7017709"><ele>259.0</ele><time>2026-05-02T14:14:23.498Z</time></trkpt><trkpt lat="42.9286031" lon="13.7019061"><ele>259.0</ele><time>2026-05-02T14:14:24.498Z</time></trkpt><trkpt lat="42.9286127" lon="13.7020373"><ele>259.0</ele><time>2026-05-02T14:14:25.498Z</time></trkpt><trkpt lat="42.9286254" lon="13.7021656"><ele>259.0</ele><time>2026-05-02T14:14:26.498Z</time></trkpt><trkpt lat="42.9286465" lon="13.7022758"><ele>259.0</ele><time>2026-05-02T14:14:27.498Z</time></trkpt><trkpt lat="42.9286644" lon="13.7024009"><ele>259.0</ele><time>2026-05-02T14:14:28.498Z</time></trkpt><trkpt lat="42.928683" lon="13.7025262"><ele>259.0</ele><time>2026-05-02T14:14:29.497Z</time></trkpt><trkpt lat="42.9287061" lon="13.7026481"><ele>259.0</ele><time>2026-05-02T14:14:30.498Z</time></trkpt><trkpt lat="42.9287273" lon="13.7027493"><ele>259.0</ele><time>2026-05-02T14:14:31.498Z</time></trkpt><trkpt lat="42.9287413" lon="13.7029045"><ele>259.0</ele><time>2026-05-02T14:14:33.498Z</time></trkpt><trkpt lat="42.9287289" lon="13.7030708"><ele>257.59999999999997</ele><time>2026-05-02T14:14:35.498Z</time></trkpt><trkpt lat="42.9286899" lon="13.7031861"><ele>256.2</ele><time>2026-05-02T14:14:36.498Z</time></trkpt><trkpt lat="42.9286378" lon="13.7033118"><ele>254.79999999999998</ele><time>2026-05-02T14:14:37.498Z</time></trkpt><trkpt lat="42.928579" lon="13.7034483"><ele>253.39999999999998</ele><time>2026-05-02T14:14:38.498Z</time></trkpt><trkpt lat="42.9285198" lon="13.7035819"><ele>252.0</ele><time>2026-05-02T14:14:39.498Z</time></trkpt><trkpt lat="42.9284593" lon="13.7037139"><ele>252.2</ele><time>2026-05-02T14:14:40.498Z</time></trkpt><trkpt lat="42.9283969" lon="13.7038363"><ele>252.39999999999998</ele><time>2026-05-02T14:14:41.498Z</time></trkpt><trkpt lat="42.9283294" lon="13.7039482"><ele>252.60000000000002</ele><time>2026-05-02T14:14:42.498Z</time></trkpt><trkpt lat="42.9282507" lon="13.7040422"><ele>252.8</ele><time>2026-05-02T14:14:43.498Z</time></trkpt><trkpt lat="42.9281421" lon="13.7041127"><ele>253.0</ele><time>2026-05-02T14:14:44.498Z</time></trkpt><trkpt lat="42.9280246" lon="13.7041688"><ele>253.0</ele><time>2026-05-02T14:14:45.498Z</time></trkpt><trkpt lat="42.9279052" lon="13.7042137"><ele>253.0</ele><time>2026-05-02T14:14:46.498Z</time></trkpt><trkpt lat="42.9277842" lon="13.7042576"><ele>253.0</ele><time>2026-05-02T14:14:47.497Z</time></trkpt><trkpt lat="42.9276604" lon="13.7043026"><ele>253.0</ele><time>2026-05-02T14:14:48.498Z</time></trkpt><trkpt lat="42.9275458" lon="13.7043431"><ele>254.75</ele><time>2026-05-02T14:14:49.498Z</time></trkpt><trkpt lat="42.9274282" lon="13.7043795"><ele>256.5</ele><time>2026-05-02T14:14:50.497Z</time></trkpt><trkpt lat="42.9273106" lon="13.7044062"><ele>258.25</ele><time>2026-05-02T14:14:51.498Z</time></trkpt><trkpt lat="42.9271991" lon="13.7044234"><ele>260.0</ele><time>2026-05-02T14:14:52.498Z</time></trkpt><trkpt lat="42.9270938" lon="13.7044332"><ele>260.0</ele><time>2026-05-02T14:14:53.498Z</time></trkpt><trkpt lat="42.9269875" lon="13.7044358"><ele>260.0</ele><time>2026-05-02T14:14:54.498Z</time></trkpt><trkpt lat="42.9268752" lon="13.7044145"><ele>260.0</ele><time>2026-05-02T14:14:55.498Z</time></trkpt><trkpt lat="42.9267695" lon="13.704371"><ele>260.0</ele><time>2026-05-02T14:14:56.498Z</time></trkpt><trkpt lat="42.9266628" lon="13.7042903"><ele>259.5</ele><time>2026-05-02T14:14:57.498Z</time></trkpt><trkpt lat="42.9265589" lon="13.7041829"><ele>259.0</ele><time>2026-05-02T14:14:58.498Z</time></trkpt><trkpt lat="42.9264697" lon="13.7040892"><ele>258.5</ele><time>2026-05-02T14:14:59.498Z</time></trkpt><trkpt lat="42.9263776" lon="13.7040142"><ele>258.0</ele><time>2026-05-02T14:15:00.497Z</time></trkpt><trkpt lat="42.9262836" lon="13.7039477"><ele>258.0</ele><time>2026-05-02T14:15:01.497Z</time></trkpt><trkpt lat="42.9261862" lon="13.703879"><ele>258.0</ele><time>2026-05-02T14:15:02.498Z</time></trkpt><trkpt lat="42.9260846" lon="13.703811"><ele>258.0</ele><time>2026-05-02T14:15:03.498Z</time></trkpt><trkpt lat="42.9259786" lon="13.7037403"><ele>258.0</ele><time>2026-05-02T14:15:04.498Z</time></trkpt><trkpt lat="42.9258692" lon="13.7036605"><ele>259.25</ele><time>2026-05-02T14:15:05.498Z</time></trkpt><trkpt lat="42.9257629" lon="13.7035789"><ele>260.5</ele><time>2026-05-02T14:15:06.499Z</time></trkpt><trkpt lat="42.925652" lon="13.7034923"><ele>261.75</ele><time>2026-05-02T14:15:07.499Z</time></trkpt><trkpt lat="42.9255417" lon="13.7034001"><ele>263.0</ele><time>2026-05-02T14:15:08.499Z</time></trkpt><trkpt lat="42.9254268" lon="13.7033034"><ele>263.0</ele><time>2026-05-02T14:15:09.499Z</time></trkpt><trkpt lat="42.9253078" lon="13.7032017"><ele>263.0</ele><time>2026-05-02T14:15:10.499Z</time></trkpt><trkpt lat="42.9251835" lon="13.7030914"><ele>263.0</ele><time>2026-05-02T14:15:11.499Z</time></trkpt><trkpt lat="42.925057" lon="13.7029746"><ele>263.0</ele><time>2026-05-02T14:15:12.499Z</time></trkpt><trkpt lat="42.9249254" lon="13.7028552"><ele>259.33333333333337</ele><time>2026-05-02T14:15:13.499Z</time></trkpt><trkpt lat="42.9247927" lon="13.7027426"><ele>255.66666666666669</ele><time>2026-05-02T14:15:14.498Z</time></trkpt><trkpt lat="42.9246581" lon="13.7026429"><ele>252.0</ele><time>2026-05-02T14:15:15.499Z</time></trkpt><trkpt lat="42.9245221" lon="13.7025479"><ele>252.0</ele><time>2026-05-02T14:15:16.499Z</time></trkpt><trkpt lat="42.9243862" lon="13.7024653"><ele>252.0</ele><time>2026-05-02T14:15:17.498Z</time></trkpt><trkpt lat="42.9242514" lon="13.7023838"><ele>252.0</ele><time>2026-05-02T14:15:18.499Z</time></trkpt><trkpt lat="42.9241186" lon="13.7023106"><ele>252.0</ele><time>2026-05-02T14:15:19.499Z</time></trkpt><trkpt lat="42.9239896" lon="13.7022467"><ele>249.75</ele><time>2026-05-02T14:15:20.499Z</time></trkpt><trkpt lat="42.9238635" lon="13.7021905"><ele>247.5</ele><time>2026-05-02T14:15:21.499Z</time></trkpt><trkpt lat="42.9237335" lon="13.7021425"><ele>245.25</ele><time>2026-05-02T14:15:22.498Z</time></trkpt><trkpt lat="42.9236104" lon="13.7021102"><ele>243.0</ele><time>2026-05-02T14:15:23.499Z</time></trkpt><trkpt lat="42.9234809" lon="13.7020963"><ele>243.25</ele><time>2026-05-02T14:15:24.499Z</time></trkpt><trkpt lat="42.9233551" lon="13.7021021"><ele>243.5</ele><time>2026-05-02T14:15:25.499Z</time></trkpt><trkpt lat="42.9232242" lon="13.7021331"><ele>243.75</ele><time>2026-05-02T14:15:26.499Z</time></trkpt><trkpt lat="42.9231088" lon="13.7022013"><ele>244.0</ele><time>2026-05-02T14:15:27.499Z</time></trkpt><trkpt lat="42.9230027" lon="13.7023135"><ele>244.0</ele><time>2026-05-02T14:15:28.499Z</time></trkpt><trkpt lat="42.922892" lon="13.7024243"><ele>244.0</ele><time>2026-05-02T14:15:29.499Z</time></trkpt><trkpt lat="42.9227684" lon="13.7025086"><ele>244.0</ele><time>2026-05-02T14:15:30.499Z</time></trkpt><trkpt lat="42.9226393" lon="13.7026033"><ele>244.0</ele><time>2026-05-02T14:15:31.499Z</time></trkpt><trkpt lat="42.9224969" lon="13.7026961"><ele>242.5</ele><time>2026-05-02T14:15:32.499Z</time></trkpt><trkpt lat="42.9223612" lon="13.7027928"><ele>241.0</ele><time>2026-05-02T14:15:33.498Z</time></trkpt><trkpt lat="42.9222402" lon="13.7028932"><ele>239.5</ele><time>2026-05-02T14:15:34.499Z</time></trkpt><trkpt lat="42.9221191" lon="13.7029958"><ele>238.0</ele><time>2026-05-02T14:15:35.499Z</time></trkpt><trkpt lat="42.9219975" lon="13.7031019"><ele>238.0</ele><time>2026-05-02T14:15:36.498Z</time></trkpt><trkpt lat="42.9218693" lon="13.703218"><ele>238.0</ele><time>2026-05-02T14:15:37.498Z</time></trkpt><trkpt lat="42.9217261" lon="13.7033334"><ele>238.0</ele><time>2026-05-02T14:15:38.498Z</time></trkpt><trkpt lat="42.9215739" lon="13.7034421"><ele>236.66666666666666</ele><time>2026-05-02T14:15:39.498Z</time></trkpt><trkpt lat="42.9214187" lon="13.7035403"><ele>235.33333333333331</ele><time>2026-05-02T14:15:40.499Z</time></trkpt><trkpt lat="42.9212675" lon="13.7036172"><ele>234.0</ele><time>2026-05-02T14:15:41.498Z</time></trkpt><trkpt lat="42.9211202" lon="13.703695"><ele>232.33333333333331</ele><time>2026-05-02T14:15:42.498Z</time></trkpt><trkpt lat="42.9209744" lon="13.7037722"><ele>230.66666666666666</ele><time>2026-05-02T14:15:43.499Z</time></trkpt><trkpt lat="42.9208323" lon="13.7038483"><ele>229.0</ele><time>2026-05-02T14:15:44.499Z</time></trkpt><trkpt lat="42.9206938" lon="13.7039188"><ele>229.0</ele><time>2026-05-02T14:15:45.499Z</time></trkpt><trkpt lat="42.9205554" lon="13.7039818"><ele>229.0</ele><time>2026-05-02T14:15:46.499Z</time></trkpt><trkpt lat="42.9204118" lon="13.7040299"><ele>229.0</ele><time>2026-05-02T14:15:47.499Z</time></trkpt><trkpt lat="42.9202593" lon="13.7040606"><ele>229.0</ele><time>2026-05-02T14:15:48.499Z</time></trkpt><trkpt lat="42.9201044" lon="13.7040634"><ele>229.5</ele><time>2026-05-02T14:15:49.499Z</time></trkpt><trkpt lat="42.9199575" lon="13.7040394"><ele>230.0</ele><time>2026-05-02T14:15:50.498Z</time></trkpt><trkpt lat="42.9198287" lon="13.7040305"><ele>230.5</ele><time>2026-05-02T14:15:51.498Z</time></trkpt><trkpt lat="42.9197068" lon="13.7040425"><ele>231.0</ele><time>2026-05-02T14:15:52.498Z</time></trkpt><trkpt lat="42.9195762" lon="13.7040701"><ele>231.0</ele><time>2026-05-02T14:15:53.499Z</time></trkpt><trkpt lat="42.9194781" lon="13.7041293"><ele>231.00000000000003</ele><time>2026-05-02T14:15:54.498Z</time></trkpt><trkpt lat="42.9194114" lon="13.7042198"><ele>231.00000000000003</ele><time>2026-05-02T14:15:55.499Z</time></trkpt><trkpt lat="42.9193409" lon="13.7043288"><ele>231.0</ele><time>2026-05-02T14:15:56.499Z</time></trkpt><trkpt lat="42.919262" lon="13.7044432"><ele>231.0</ele><time>2026-05-02T14:15:57.499Z</time></trkpt><trkpt lat="42.9191535" lon="13.7045605"><ele>229.5</ele><time>2026-05-02T14:15:58.499Z</time></trkpt><trkpt lat="42.9190432" lon="13.7046529"><ele>228.0</ele><time>2026-05-02T14:15:59.498Z</time></trkpt><trkpt lat="42.9189038" lon="13.704732"><ele>226.5</ele><time>2026-05-02T14:16:00.499Z</time></trkpt><trkpt lat="42.9187444" lon="13.7047838"><ele>225.0</ele><time>2026-05-02T14:16:01.499Z</time></trkpt><trkpt lat="42.9185646" lon="13.7048279"><ele>225.33333333333331</ele><time>2026-05-02T14:16:02.499Z</time></trkpt><trkpt lat="42.9183924" lon="13.7048628"><ele>225.66666666666666</ele><time>2026-05-02T14:16:03.499Z</time></trkpt><trkpt lat="42.9182455" lon="13.7048941"><ele>226.0</ele><time>2026-05-02T14:16:04.5Z</time></trkpt><trkpt lat="42.9180878" lon="13.7049271"><ele>226.0</ele><time>2026-05-02T14:16:05.499Z</time></trkpt><trkpt lat="42.9179375" lon="13.7049578"><ele>226.0</ele><time>2026-05-02T14:16:06.499Z</time></trkpt><trkpt lat="42.9177964" lon="13.7049802"><ele>226.0</ele><time>2026-05-02T14:16:07.499Z</time></trkpt><trkpt lat="42.9176578" lon="13.7050006"><ele>226.0</ele><time>2026-05-02T14:16:08.499Z</time></trkpt><trkpt lat="42.917516" lon="13.7050158"><ele>225.0</ele><time>2026-05-02T14:16:09.498Z</time></trkpt><trkpt lat="42.9173832" lon="13.705019"><ele>224.0</ele><time>2026-05-02T14:16:10.499Z</time></trkpt><trkpt lat="42.9172525" lon="13.7049991"><ele>223.0</ele><time>2026-05-02T14:16:11.499Z</time></trkpt><trkpt lat="42.9171401" lon="13.704943"><ele>222.0</ele><time>2026-05-02T14:16:12.5Z</time></trkpt><trkpt lat="42.9170116" lon="13.7048712"><ele>222.0</ele><time>2026-05-02T14:16:13.5Z</time></trkpt><trkpt lat="42.9169062" lon="13.7047439"><ele>222.0</ele><time>2026-05-02T14:16:14.5Z</time></trkpt><trkpt lat="42.9167777" lon="13.7046184"><ele>222.0</ele><time>2026-05-02T14:16:15.5Z</time></trkpt><trkpt lat="42.9166659" lon="13.7044819"><ele>222.0</ele><time>2026-05-02T14:16:16.5Z</time></trkpt><trkpt lat="42.9165879" lon="13.7042845"><ele>223.0</ele><time>2026-05-02T14:16:17.5Z</time></trkpt><trkpt lat="42.9165316" lon="13.7040919"><ele>224.0</ele><time>2026-05-02T14:16:18.5Z</time></trkpt><trkpt lat="42.9164758" lon="13.7039129"><ele>225.0</ele><time>2026-05-02T14:16:19.5Z</time></trkpt><trkpt lat="42.9164173" lon="13.7037522"><ele>226.0</ele><time>2026-05-02T14:16:20.499Z</time></trkpt><trkpt lat="42.9163571" lon="13.703627"><ele>224.75</ele><time>2026-05-02T14:16:21.5Z</time></trkpt><trkpt lat="42.9162834" lon="13.7035101"><ele>223.5</ele><time>2026-05-02T14:16:22.5Z</time></trkpt><trkpt lat="42.9161828" lon="13.703428"><ele>222.25</ele><time>2026-05-02T14:16:23.5Z</time></trkpt><trkpt lat="42.9160621" lon="13.7033926"><ele>221.0</ele><time>2026-05-02T14:16:24.5Z</time></trkpt><trkpt lat="42.9159302" lon="13.7033989"><ele>219.5</ele><time>2026-05-02T14:16:25.499Z</time></trkpt><trkpt lat="42.9158069" lon="13.70343"><ele>218.0</ele><time>2026-05-02T14:16:26.5Z</time></trkpt><trkpt lat="42.9156774" lon="13.7034662"><ele>216.5</ele><time>2026-05-02T14:16:27.5Z</time></trkpt><trkpt lat="42.9155369" lon="13.7035023"><ele>215.0</ele><time>2026-05-02T14:16:28.499Z</time></trkpt><trkpt lat="42.915391" lon="13.7035442"><ele>216.25</ele><time>2026-05-02T14:16:29.5Z</time></trkpt><trkpt lat="42.915247" lon="13.7035843"><ele>217.5</ele><time>2026-05-02T14:16:30.5Z</time></trkpt><trkpt lat="42.9151079" lon="13.7036062"><ele>218.75</ele><time>2026-05-02T14:16:31.499Z</time></trkpt><trkpt lat="42.9149751" lon="13.7036201"><ele>220.0</ele><time>2026-05-02T14:16:32.5Z</time></trkpt><trkpt lat="42.914859" lon="13.7035842"><ele>218.6</ele><time>2026-05-02T14:16:33.5Z</time></trkpt><trkpt lat="42.9147653" lon="13.7035189"><ele>217.2</ele><time>2026-05-02T14:16:34.5Z</time></trkpt><trkpt lat="42.9146856" lon="13.7034261"><ele>215.8</ele><time>2026-05-02T14:16:35.5Z</time></trkpt><trkpt lat="42.9146333" lon="13.7033046"><ele>214.4</ele><time>2026-05-02T14:16:36.499Z</time></trkpt><trkpt lat="42.9145674" lon="13.7031851"><ele>213.0</ele><time>2026-05-02T14:16:37.5Z</time></trkpt><trkpt lat="42.9144845" lon="13.7030524"><ele>213.0</ele><time>2026-05-02T14:16:38.5Z</time></trkpt><trkpt lat="42.914422" lon="13.7028695"><ele>213.0</ele><time>2026-05-02T14:16:39.5Z</time></trkpt><trkpt lat="42.9143885" lon="13.7026352"><ele>213.0</ele><time>2026-05-02T14:16:40.5Z</time></trkpt><trkpt lat="42.9143578" lon="13.7024044"><ele>212.0</ele><time>2026-05-02T14:16:41.5Z</time></trkpt><trkpt lat="42.9143267" lon="13.7021872"><ele>211.0</ele><time>2026-05-02T14:16:42.5Z</time></trkpt><trkpt lat="42.9142924" lon="13.7019725"><ele>210.0</ele><time>2026-05-02T14:16:43.5Z</time></trkpt><trkpt lat="42.9142643" lon="13.7017628"><ele>210.0</ele><time>2026-05-02T14:16:44.5Z</time></trkpt><trkpt lat="42.914245" lon="13.701545"><ele>210.0</ele><time>2026-05-02T14:16:45.499Z</time></trkpt><trkpt lat="42.9142249" lon="13.7013509"><ele>210.0</ele><time>2026-05-02T14:16:46.5Z</time></trkpt><trkpt lat="42.9142101" lon="13.701179"><ele>210.0</ele><time>2026-05-02T14:16:47.5Z</time></trkpt><trkpt lat="42.9141889" lon="13.7010097"><ele>210.6</ele><time>2026-05-02T14:16:48.5Z</time></trkpt><trkpt lat="42.9141585" lon="13.7008626"><ele>211.2</ele><time>2026-05-02T14:16:49.5Z</time></trkpt><trkpt lat="42.9140988" lon="13.7007504"><ele>211.8</ele><time>2026-05-02T14:16:50.5Z</time></trkpt><trkpt lat="42.9140273" lon="13.7006654"><ele>212.4</ele><time>2026-05-02T14:16:51.5Z</time></trkpt><trkpt lat="42.9139201" lon="13.7005929"><ele>213.0</ele><time>2026-05-02T14:16:52.5Z</time></trkpt><trkpt lat="42.9137835" lon="13.7005818"><ele>213.0</ele><time>2026-05-02T14:16:53.5Z</time></trkpt><trkpt lat="42.9136362" lon="13.7005857"><ele>213.0</ele><time>2026-05-02T14:16:54.5Z</time></trkpt><trkpt lat="42.9135024" lon="13.7006036"><ele>213.0</ele><time>2026-05-02T14:16:55.5Z</time></trkpt><trkpt lat="42.9133463" lon="13.7006481"><ele>213.0</ele><time>2026-05-02T14:16:56.5Z</time></trkpt><trkpt lat="42.9131879" lon="13.7007038"><ele>212.0</ele><time>2026-05-02T14:16:57.5Z</time></trkpt><trkpt lat="42.9130195" lon="13.7007779"><ele>211.0</ele><time>2026-05-02T14:16:58.499Z</time></trkpt><trkpt lat="42.9128619" lon="13.7008506"><ele>210.0</ele><time>2026-05-02T14:16:59.5Z</time></trkpt><trkpt lat="42.9127216" lon="13.70093"><ele>210.0</ele><time>2026-05-02T14:17:00.5Z</time></trkpt><trkpt lat="42.9125957" lon="13.7010148"><ele>210.0</ele><time>2026-05-02T14:17:01.5Z</time></trkpt><trkpt lat="42.9124751" lon="13.7011185"><ele>210.0</ele><time>2026-05-02T14:17:02.499Z</time></trkpt><trkpt lat="42.9123517" lon="13.701241"><ele>210.0</ele><time>2026-05-02T14:17:03.5Z</time></trkpt><trkpt lat="42.9122423" lon="13.70138"><ele>210.5</ele><time>2026-05-02T14:17:04.5Z</time></trkpt><trkpt lat="42.9121282" lon="13.7015279"><ele>211.0</ele><time>2026-05-02T14:17:05.5Z</time></trkpt><trkpt lat="42.9120234" lon="13.7016711"><ele>211.5</ele><time>2026-05-02T14:17:06.5Z</time></trkpt><trkpt lat="42.9119309" lon="13.7018067"><ele>212.0</ele><time>2026-05-02T14:17:07.5Z</time></trkpt><trkpt lat="42.9118485" lon="13.7019318"><ele>211.25</ele><time>2026-05-02T14:17:08.499Z</time></trkpt><trkpt lat="42.9117666" lon="13.7020524"><ele>210.5</ele><time>2026-05-02T14:17:09.5Z</time></trkpt><trkpt lat="42.9116698" lon="13.702177"><ele>209.75</ele><time>2026-05-02T14:17:10.5Z</time></trkpt><trkpt lat="42.9115754" lon="13.702277"><ele>209.0</ele><time>2026-05-02T14:17:11.499Z</time></trkpt><trkpt lat="42.9114632" lon="13.7023652"><ele>209.0</ele><time>2026-05-02T14:17:12.5Z</time></trkpt><trkpt lat="42.9113244" lon="13.7024302"><ele>209.0</ele><time>2026-05-02T14:17:13.5Z</time></trkpt><trkpt lat="42.9110989" lon="13.7026328"><ele>209.0</ele><time>2026-05-02T14:17:14.5Z</time></trkpt><trkpt lat="42.9109522" lon="13.7026877"><ele>206.25</ele><time>2026-05-02T14:17:15.5Z</time></trkpt><trkpt lat="42.9108142" lon="13.7027678"><ele>203.5</ele><time>2026-05-02T14:17:16.5Z</time></trkpt><trkpt lat="42.9106914" lon="13.7028659"><ele>200.75</ele><time>2026-05-02T14:17:17.5Z</time></trkpt><trkpt lat="42.9105746" lon="13.7029925"><ele>198.0</ele><time>2026-05-02T14:17:18.501Z</time></trkpt><trkpt lat="42.9104581" lon="13.7031217"><ele>198.0</ele><time>2026-05-02T14:17:19.501Z</time></trkpt><trkpt lat="42.9103362" lon="13.7032569"><ele>198.0</ele><time>2026-05-02T14:17:20.501Z</time></trkpt><trkpt lat="42.9102019" lon="13.7034034"><ele>198.0</ele><time>2026-05-02T14:17:21.501Z</time></trkpt><trkpt lat="42.9100602" lon="13.703556"><ele>200.0</ele><time>2026-05-02T14:17:22.501Z</time></trkpt><trkpt lat="42.9099022" lon="13.703721"><ele>202.0</ele><time>2026-05-02T14:17:23.501Z</time></trkpt><trkpt lat="42.9097778" lon="13.70385"><ele>204.0</ele><time>2026-05-02T14:17:24.501Z</time></trkpt><trkpt lat="42.9096632" lon="13.7039762"><ele>204.0</ele><time>2026-05-02T14:17:25.501Z</time></trkpt><trkpt lat="42.9095534" lon="13.7040883"><ele>204.0</ele><time>2026-05-02T14:17:26.501Z</time></trkpt><trkpt lat="42.9094455" lon="13.7041891"><ele>204.0</ele><time>2026-05-02T14:17:27.501Z</time></trkpt><trkpt lat="42.9093284" lon="13.704275"><ele>204.0</ele><time>2026-05-02T14:17:28.501Z</time></trkpt><trkpt lat="42.909199" lon="13.7043597"><ele>201.25</ele><time>2026-05-02T14:17:29.501Z</time></trkpt><trkpt lat="42.9090589" lon="13.7044405"><ele>198.5</ele><time>2026-05-02T14:17:30.501Z</time></trkpt><trkpt lat="42.9089226" lon="13.7045113"><ele>195.75</ele><time>2026-05-02T14:17:31.501Z</time></trkpt><trkpt lat="42.9087829" lon="13.7045848"><ele>193.0</ele><time>2026-05-02T14:17:32.501Z</time></trkpt><trkpt lat="42.9086353" lon="13.7046608"><ele>193.0</ele><time>2026-05-02T14:17:33.501Z</time></trkpt><trkpt lat="42.9084887" lon="13.7047474"><ele>193.0</ele><time>2026-05-02T14:17:34.501Z</time></trkpt><trkpt lat="42.9083354" lon="13.7048307"><ele>193.0</ele><time>2026-05-02T14:17:35.5Z</time></trkpt><trkpt lat="42.9081834" lon="13.7049158"><ele>195.0</ele><time>2026-05-02T14:17:36.501Z</time></trkpt><trkpt lat="42.9080194" lon="13.7050126"><ele>197.0</ele><time>2026-05-02T14:17:37.501Z</time></trkpt><trkpt lat="42.907857" lon="13.7051072"><ele>199.0</ele><time>2026-05-02T14:17:38.501Z</time></trkpt><trkpt lat="42.9076855" lon="13.7051992"><ele>196.66666666666666</ele><time>2026-05-02T14:17:39.501Z</time></trkpt><trkpt lat="42.9075096" lon="13.7052925"><ele>194.33333333333331</ele><time>2026-05-02T14:17:40.5Z</time></trkpt><trkpt lat="42.9073368" lon="13.7053913"><ele>192.0</ele><time>2026-05-02T14:17:41.501Z</time></trkpt><trkpt lat="42.9071568" lon="13.7054909"><ele>192.0</ele><time>2026-05-02T14:17:42.5Z</time></trkpt><trkpt lat="42.9069846" lon="13.7056001"><ele>192.0</ele><time>2026-05-02T14:17:43.501Z</time></trkpt><trkpt lat="42.9068234" lon="13.705712"><ele>192.0</ele><time>2026-05-02T14:17:44.501Z</time></trkpt><trkpt lat="42.906666" lon="13.7058296"><ele>194.0</ele><time>2026-05-02T14:17:45.501Z</time></trkpt><trkpt lat="42.906509" lon="13.7059451"><ele>196.0</ele><time>2026-05-02T14:17:46.501Z</time></trkpt><trkpt lat="42.9063522" lon="13.7060589"><ele>198.0</ele><time>2026-05-02T14:17:47.501Z</time></trkpt><trkpt lat="42.9061941" lon="13.7061733"><ele>198.66666666666669</ele><time>2026-05-02T14:17:48.501Z</time></trkpt><trkpt lat="42.9060419" lon="13.7062947"><ele>199.33333333333334</ele><time>2026-05-02T14:17:49.501Z</time></trkpt><trkpt lat="42.9058892" lon="13.7064156"><ele>200.0</ele><time>2026-05-02T14:17:50.501Z</time></trkpt><trkpt lat="42.905761" lon="13.7065367"><ele>200.0</ele><time>2026-05-02T14:17:51.501Z</time></trkpt><trkpt lat="42.9056436" lon="13.706651"><ele>200.0</ele><time>2026-05-02T14:17:52.501Z</time></trkpt><trkpt lat="42.905537" lon="13.7067565"><ele>200.0</ele><time>2026-05-02T14:17:53.501Z</time></trkpt><trkpt lat="42.9054338" lon="13.7068594"><ele>200.0</ele><time>2026-05-02T14:17:54.501Z</time></trkpt><trkpt lat="42.9053257" lon="13.7069342"><ele>196.75</ele><time>2026-05-02T14:17:55.501Z</time></trkpt><trkpt lat="42.9052015" lon="13.7069794"><ele>193.5</ele><time>2026-05-02T14:17:56.501Z</time></trkpt><trkpt lat="42.9050631" lon="13.7069919"><ele>190.25</ele><time>2026-05-02T14:17:57.501Z</time></trkpt><trkpt lat="42.9049261" lon="13.7069932"><ele>187.0</ele><time>2026-05-02T14:17:58.501Z</time></trkpt><trkpt lat="42.9047801" lon="13.7070073"><ele>187.0</ele><time>2026-05-02T14:17:59.501Z</time></trkpt><trkpt lat="42.9046181" lon="13.7070359"><ele>187.0</ele><time>2026-05-02T14:18:00.501Z</time></trkpt><trkpt lat="42.9044714" lon="13.7070721"><ele>187.0</ele><time>2026-05-02T14:18:01.501Z</time></trkpt><trkpt lat="42.9043182" lon="13.7071007"><ele>187.66666666666669</ele><time>2026-05-02T14:18:02.501Z</time></trkpt><trkpt lat="42.9041639" lon="13.7071343"><ele>188.33333333333334</ele><time>2026-05-02T14:18:03.501Z</time></trkpt><trkpt lat="42.9040111" lon="13.7071788"><ele>189.0</ele><time>2026-05-02T14:18:04.501Z</time></trkpt><trkpt lat="42.9038628" lon="13.7072171"><ele>189.0</ele><time>2026-05-02T14:18:05.501Z</time></trkpt><trkpt lat="42.9037093" lon="13.7072643"><ele>189.0</ele><time>2026-05-02T14:18:06.5Z</time></trkpt><trkpt lat="42.9035484" lon="13.7073368"><ele>189.0</ele><time>2026-05-02T14:18:07.501Z</time></trkpt><trkpt lat="42.9033924" lon="13.7074137"><ele>190.0</ele><time>2026-05-02T14:18:08.501Z</time></trkpt><trkpt lat="42.9032439" lon="13.7074897"><ele>191.0</ele><time>2026-05-02T14:18:09.501Z</time></trkpt><trkpt lat="42.9030979" lon="13.7075627"><ele>192.0</ele><time>2026-05-02T14:18:10.501Z</time></trkpt><trkpt lat="42.9029475" lon="13.7076387"><ele>192.0</ele><time>2026-05-02T14:18:11.501Z</time></trkpt><trkpt lat="42.9028036" lon="13.7077337"><ele>192.0</ele><time>2026-05-02T14:18:12.501Z</time></trkpt><trkpt lat="42.9026778" lon="13.7078249"><ele>192.0</ele><time>2026-05-02T14:18:13.501Z</time></trkpt><trkpt lat="42.902554" lon="13.7079227"><ele>192.0</ele><time>2026-05-02T14:18:14.501Z</time></trkpt><trkpt lat="42.9024251" lon="13.708015"><ele>191.0</ele><time>2026-05-02T14:18:15.501Z</time></trkpt><trkpt lat="42.9022894" lon="13.7080895"><ele>190.0</ele><time>2026-05-02T14:18:16.501Z</time></trkpt><trkpt lat="42.9021436" lon="13.7081552"><ele>189.0</ele><time>2026-05-02T14:18:17.501Z</time></trkpt><trkpt lat="42.9019898" lon="13.7082192"><ele>189.0</ele><time>2026-05-02T14:18:18.501Z</time></trkpt><trkpt lat="42.9018489" lon="13.7082822"><ele>189.0</ele><time>2026-05-02T14:18:19.501Z</time></trkpt><trkpt lat="42.9017123" lon="13.708351"><ele>189.0</ele><time>2026-05-02T14:18:20.501Z</time></trkpt><trkpt lat="42.9015776" lon="13.7084313"><ele>189.0</ele><time>2026-05-02T14:18:21.502Z</time></trkpt><trkpt lat="42.9014508" lon="13.708538"><ele>186.75</ele><time>2026-05-02T14:18:22.502Z</time></trkpt><trkpt lat="42.9013307" lon="13.7086502"><ele>184.5</ele><time>2026-05-02T14:18:23.502Z</time></trkpt><trkpt lat="42.9012221" lon="13.7087814"><ele>182.25</ele><time>2026-05-02T14:18:24.502Z</time></trkpt><trkpt lat="42.9011351" lon="13.7089375"><ele>180.0</ele><time>2026-05-02T14:18:25.502Z</time></trkpt><trkpt lat="42.901056" lon="13.7090962"><ele>180.0</ele><time>2026-05-02T14:18:26.502Z</time></trkpt><trkpt lat="42.9009648" lon="13.7092117"><ele>180.0</ele><time>2026-05-02T14:18:27.502Z</time></trkpt><trkpt lat="42.9008507" lon="13.7093084"><ele>180.0</ele><time>2026-05-02T14:18:28.502Z</time></trkpt><trkpt lat="42.9007259" lon="13.7093601"><ele>180.0</ele><time>2026-05-02T14:18:29.502Z</time></trkpt><trkpt lat="42.9005922" lon="13.7093976"><ele>177.66666666666666</ele><time>2026-05-02T14:18:30.502Z</time></trkpt><trkpt lat="42.9004351" lon="13.7094105"><ele>175.33333333333331</ele><time>2026-05-02T14:18:31.502Z</time></trkpt><trkpt lat="42.9002716" lon="13.7094186"><ele>173.0</ele><time>2026-05-02T14:18:32.502Z</time></trkpt><trkpt lat="42.9001184" lon="13.7094174"><ele>177.5</ele><time>2026-05-02T14:18:33.502Z</time></trkpt><trkpt lat="42.8999695" lon="13.7094083"><ele>182.0</ele><time>2026-05-02T14:18:34.502Z</time></trkpt><trkpt lat="42.8998272" lon="13.7093888"><ele>186.5</ele><time>2026-05-02T14:18:35.502Z</time></trkpt><trkpt lat="42.899684" lon="13.7093525"><ele>191.0</ele><time>2026-05-02T14:18:36.502Z</time></trkpt><trkpt lat="42.8995432" lon="13.7092898"><ele>191.0</ele><time>2026-05-02T14:18:37.502Z</time></trkpt><trkpt lat="42.8994106" lon="13.7092099"><ele>191.0</ele><time>2026-05-02T14:18:38.502Z</time></trkpt><trkpt lat="42.8992734" lon="13.7091452"><ele>191.0</ele><time>2026-05-02T14:18:39.502Z</time></trkpt><trkpt lat="42.899136" lon="13.7091015"><ele>191.0</ele><time>2026-05-02T14:18:40.502Z</time></trkpt><trkpt lat="42.8989898" lon="13.7090763"><ele>191.5</ele><time>2026-05-02T14:18:41.502Z</time></trkpt><trkpt lat="42.8988492" lon="13.7090838"><ele>192.0</ele><time>2026-05-02T14:18:42.502Z</time></trkpt><trkpt lat="42.898703" lon="13.7091289"><ele>192.5</ele><time>2026-05-02T14:18:43.502Z</time></trkpt><trkpt lat="42.8985538" lon="13.7092006"><ele>193.0</ele><time>2026-05-02T14:18:44.502Z</time></trkpt><trkpt lat="42.8984077" lon="13.7092844"><ele>193.0</ele><time>2026-05-02T14:18:45.502Z</time></trkpt><trkpt lat="42.8982556" lon="13.7093739"><ele>193.0</ele><time>2026-05-02T14:18:46.502Z</time></trkpt><trkpt lat="42.8981157" lon="13.70947"><ele>193.0</ele><time>2026-05-02T14:18:47.502Z</time></trkpt><trkpt lat="42.8979788" lon="13.7095761"><ele>190.75</ele><time>2026-05-02T14:18:48.502Z</time></trkpt><trkpt lat="42.8978603" lon="13.709682"><ele>188.5</ele><time>2026-05-02T14:18:49.502Z</time></trkpt><trkpt lat="42.8977524" lon="13.7097973"><ele>186.25</ele><time>2026-05-02T14:18:50.502Z</time></trkpt><trkpt lat="42.8976406" lon="13.7098962"><ele>184.0</ele><time>2026-05-02T14:18:51.501Z</time></trkpt><trkpt lat="42.8975257" lon="13.7099705"><ele>184.0</ele><time>2026-05-02T14:18:52.502Z</time></trkpt><trkpt lat="42.8974077" lon="13.710038"><ele>184.0</ele><time>2026-05-02T14:18:53.502Z</time></trkpt><trkpt lat="42.8972826" lon="13.7100855"><ele>184.0</ele><time>2026-05-02T14:18:54.501Z</time></trkpt><trkpt lat="42.8971503" lon="13.7100968"><ele>184.0</ele><time>2026-05-02T14:18:55.502Z</time></trkpt><trkpt lat="42.8970027" lon="13.7100966"><ele>184.0</ele><time>2026-05-02T14:18:56.502Z</time></trkpt><trkpt lat="42.8968558" lon="13.7100753"><ele>184.0</ele><time>2026-05-02T14:18:57.502Z</time></trkpt><trkpt lat="42.8967133" lon="13.7100423"><ele>184.0</ele><time>2026-05-02T14:18:58.502Z</time></trkpt><trkpt lat="42.896572" lon="13.7100076"><ele>184.0</ele><time>2026-05-02T14:18:59.502Z</time></trkpt><trkpt lat="42.8964531" lon="13.7099543"><ele>182.25</ele><time>2026-05-02T14:19:00.501Z</time></trkpt><trkpt lat="42.8963395" lon="13.7098687"><ele>180.5</ele><time>2026-05-02T14:19:01.502Z</time></trkpt><trkpt lat="42.8962485" lon="13.7097603"><ele>178.75</ele><time>2026-05-02T14:19:02.502Z</time></trkpt><trkpt lat="42.8961676" lon="13.7096403"><ele>177.0</ele><time>2026-05-02T14:19:03.501Z</time></trkpt><trkpt lat="42.8961153" lon="13.709475"><ele>178.0</ele><time>2026-05-02T14:19:04.502Z</time></trkpt><trkpt lat="42.8960724" lon="13.7093105"><ele>179.0</ele><time>2026-05-02T14:19:05.502Z</time></trkpt><trkpt lat="42.8960343" lon="13.7091739"><ele>180.0</ele><time>2026-05-02T14:19:06.502Z</time></trkpt><trkpt lat="42.8959795" lon="13.7090418"><ele>181.0</ele><time>2026-05-02T14:19:07.501Z</time></trkpt><trkpt lat="42.8959138" lon="13.7089158"><ele>179.20000000000002</ele><time>2026-05-02T14:19:08.502Z</time></trkpt><trkpt lat="42.8958485" lon="13.7088458"><ele>177.4</ele><time>2026-05-02T14:19:09.502Z</time></trkpt><trkpt lat="42.8957832" lon="13.7088361"><ele>175.6</ele><time>2026-05-02T14:19:10.502Z</time></trkpt><trkpt lat="42.8957016" lon="13.7088895"><ele>173.8</ele><time>2026-05-02T14:19:11.502Z</time></trkpt><trkpt lat="42.8956024" lon="13.7089741"><ele>172.0</ele><time>2026-05-02T14:19:12.502Z</time></trkpt><trkpt lat="42.8954978" lon="13.709065"><ele>172.0</ele><time>2026-05-02T14:19:13.502Z</time></trkpt><trkpt lat="42.8953641" lon="13.7091742"><ele>172.0</ele><time>2026-05-02T14:19:14.502Z</time></trkpt><trkpt lat="42.8952238" lon="13.7092804"><ele>172.0</ele><time>2026-05-02T14:19:15.502Z</time></trkpt><trkpt lat="42.8950836" lon="13.7093791"><ele>169.33333333333334</ele><time>2026-05-02T14:19:16.502Z</time></trkpt><trkpt lat="42.8949366" lon="13.7094844"><ele>166.66666666666666</ele><time>2026-05-02T14:19:17.502Z</time></trkpt><trkpt lat="42.894784" lon="13.7095833"><ele>164.0</ele><time>2026-05-02T14:19:18.502Z</time></trkpt><trkpt lat="42.8946289" lon="13.7096687"><ele>164.0</ele><time>2026-05-02T14:19:19.502Z</time></trkpt><trkpt lat="42.8944792" lon="13.7097225"><ele>164.0</ele><time>2026-05-02T14:19:20.502Z</time></trkpt><trkpt lat="42.8943261" lon="13.7097633"><ele>164.0</ele><time>2026-05-02T14:19:21.502Z</time></trkpt><trkpt lat="42.8941674" lon="13.7097925"><ele>163.33333333333331</ele><time>2026-05-02T14:19:22.503Z</time></trkpt><trkpt lat="42.8940086" lon="13.7098209"><ele>162.66666666666666</ele><time>2026-05-02T14:19:23.502Z</time></trkpt><trkpt lat="42.8938429" lon="13.7098399"><ele>162.0</ele><time>2026-05-02T14:19:24.503Z</time></trkpt><trkpt lat="42.8936811" lon="13.7098591"><ele>162.0</ele><time>2026-05-02T14:19:25.503Z</time></trkpt><trkpt lat="42.8935182" lon="13.7098737"><ele>162.0</ele><time>2026-05-02T14:19:26.503Z</time></trkpt><trkpt lat="42.8933582" lon="13.7098878"><ele>162.0</ele><time>2026-05-02T14:19:27.503Z</time></trkpt><trkpt lat="42.8931981" lon="13.7099065"><ele>161.0</ele><time>2026-05-02T14:19:28.503Z</time></trkpt><trkpt lat="42.893046" lon="13.7099209"><ele>160.0</ele><time>2026-05-02T14:19:29.503Z</time></trkpt><trkpt lat="42.8929138" lon="13.709941"><ele>159.0</ele><time>2026-05-02T14:19:30.503Z</time></trkpt><trkpt lat="42.892793" lon="13.7099774"><ele>158.0</ele><time>2026-05-02T14:19:31.503Z</time></trkpt><trkpt lat="42.892674" lon="13.7100257"><ele>158.0</ele><time>2026-05-02T14:19:32.503Z</time></trkpt><trkpt lat="42.8925562" lon="13.7100993"><ele>158.0</ele><time>2026-05-02T14:19:33.503Z</time></trkpt><trkpt lat="42.8924371" lon="13.7102081"><ele>158.0</ele><time>2026-05-02T14:19:34.503Z</time></trkpt><trkpt lat="42.8923255" lon="13.7103351"><ele>158.0</ele><time>2026-05-02T14:19:35.503Z</time></trkpt><trkpt lat="42.8922325" lon="13.7104966"><ele>158.0</ele><time>2026-05-02T14:19:36.503Z</time></trkpt><trkpt lat="42.8921367" lon="13.7106757"><ele>158.0</ele><time>2026-05-02T14:19:37.503Z</time></trkpt><trkpt lat="42.892042" lon="13.7108609"><ele>158.0</ele><time>2026-05-02T14:19:38.503Z</time></trkpt><trkpt lat="42.8919559" lon="13.7110425"><ele>157.25</ele><time>2026-05-02T14:19:39.503Z</time></trkpt><trkpt lat="42.8918829" lon="13.7112371"><ele>156.5</ele><time>2026-05-02T14:19:40.503Z</time></trkpt><trkpt lat="42.8918173" lon="13.7114096"><ele>155.75</ele><time>2026-05-02T14:19:41.502Z</time></trkpt><trkpt lat="42.8917475" lon="13.7115601"><ele>155.0</ele><time>2026-05-02T14:19:42.503Z</time></trkpt><trkpt lat="42.8916753" lon="13.711706"><ele>155.0</ele><time>2026-05-02T14:19:43.503Z</time></trkpt><trkpt lat="42.8915746" lon="13.71184"><ele>155.0</ele><time>2026-05-02T14:19:44.502Z</time></trkpt><trkpt lat="42.8914556" lon="13.7119384"><ele>155.0</ele><time>2026-05-02T14:19:45.502Z</time></trkpt><trkpt lat="42.8913361" lon="13.7120202"><ele>155.0</ele><time>2026-05-02T14:19:46.503Z</time></trkpt><trkpt lat="42.891177" lon="13.7119828"><ele>152.33333333333331</ele><time>2026-05-02T14:19:47.503Z</time></trkpt><trkpt lat="42.8910352" lon="13.7120496"><ele>149.66666666666666</ele><time>2026-05-02T14:19:48.503Z</time></trkpt><trkpt lat="42.8908943" lon="13.7121333"><ele>147.0</ele><time>2026-05-02T14:19:49.503Z</time></trkpt><trkpt lat="42.8907532" lon="13.7122216"><ele>147.0</ele><time>2026-05-02T14:19:50.503Z</time></trkpt><trkpt lat="42.8906096" lon="13.7123148"><ele>147.0</ele><time>2026-05-02T14:19:51.503Z</time></trkpt><trkpt lat="42.8904682" lon="13.7124055"><ele>147.0</ele><time>2026-05-02T14:19:52.503Z</time></trkpt><trkpt lat="42.8903307" lon="13.7124951"><ele>147.0</ele><time>2026-05-02T14:19:53.502Z</time></trkpt><trkpt lat="42.8901951" lon="13.7125777"><ele>147.0</ele><time>2026-05-02T14:19:54.503Z</time></trkpt><trkpt lat="42.8900624" lon="13.7126558"><ele>147.0</ele><time>2026-05-02T14:19:55.502Z</time></trkpt><trkpt lat="42.8899314" lon="13.7127314"><ele>147.0</ele><time>2026-05-02T14:19:56.503Z</time></trkpt><trkpt lat="42.8898045" lon="13.7128057"><ele>143.5</ele><time>2026-05-02T14:19:57.503Z</time></trkpt><trkpt lat="42.8896692" lon="13.7128762"><ele>140.0</ele><time>2026-05-02T14:19:58.503Z</time></trkpt><trkpt lat="42.8895363" lon="13.7129287"><ele>136.5</ele><time>2026-05-02T14:19:59.503Z</time></trkpt><trkpt lat="42.8894031" lon="13.7129623"><ele>133.0</ele><time>2026-05-02T14:20:00.503Z</time></trkpt><trkpt lat="42.8892686" lon="13.7129636"><ele>133.75</ele><time>2026-05-02T14:20:01.503Z</time></trkpt><trkpt lat="42.8891296" lon="13.7129384"><ele>134.5</ele><time>2026-05-02T14:20:02.503Z</time></trkpt><trkpt lat="42.8889923" lon="13.7128752"><ele>135.25</ele><time>2026-05-02T14:20:03.503Z</time></trkpt><trkpt lat="42.8888537" lon="13.7127993"><ele>136.0</ele><time>2026-05-02T14:20:04.503Z</time></trkpt><trkpt lat="42.8887209" lon="13.7127326"><ele>136.75</ele><time>2026-05-02T14:20:05.502Z</time></trkpt><trkpt lat="42.8885929" lon="13.712701"><ele>137.5</ele><time>2026-05-02T14:20:06.503Z</time></trkpt><trkpt lat="42.8884624" lon="13.7127177"><ele>138.25</ele><time>2026-05-02T14:20:07.503Z</time></trkpt><trkpt lat="42.8883312" lon="13.7127628"><ele>139.0</ele><time>2026-05-02T14:20:08.503Z</time></trkpt><trkpt lat="42.8882065" lon="13.7128428"><ele>139.0</ele><time>2026-05-02T14:20:09.503Z</time></trkpt><trkpt lat="42.8880748" lon="13.7129282"><ele>139.0</ele><time>2026-05-02T14:20:10.503Z</time></trkpt><trkpt lat="42.8879399" lon="13.7130197"><ele>139.0</ele><time>2026-05-02T14:20:11.503Z</time></trkpt><trkpt lat="42.8877944" lon="13.7130937"><ele>139.0</ele><time>2026-05-02T14:20:12.503Z</time></trkpt><trkpt lat="42.8876407" lon="13.7131607"><ele>139.0</ele><time>2026-05-02T14:20:13.503Z</time></trkpt><trkpt lat="42.8873342" lon="13.7132865"><ele>140.66666666666669</ele><time>2026-05-02T14:20:15.503Z</time></trkpt><trkpt lat="42.8871782" lon="13.7133431"><ele>142.33333333333334</ele><time>2026-05-02T14:20:16.503Z</time></trkpt><trkpt lat="42.8870236" lon="13.7134009"><ele>144.0</ele><time>2026-05-02T14:20:17.502Z</time></trkpt><trkpt lat="42.886868" lon="13.7134606"><ele>145.33333333333334</ele><time>2026-05-02T14:20:18.503Z</time></trkpt><trkpt lat="42.8867138" lon="13.7135223"><ele>146.66666666666669</ele><time>2026-05-02T14:20:19.503Z</time></trkpt><trkpt lat="42.8865568" lon="13.7135838"><ele>148.0</ele><time>2026-05-02T14:20:20.503Z</time></trkpt><trkpt lat="42.8864118" lon="13.7136352"><ele>146.75</ele><time>2026-05-02T14:20:21.503Z</time></trkpt><trkpt lat="42.8862727" lon="13.7136811"><ele>145.5</ele><time>2026-05-02T14:20:22.503Z</time></trkpt><trkpt lat="42.8861371" lon="13.7137274"><ele>144.25</ele><time>2026-05-02T14:20:23.503Z</time></trkpt><trkpt lat="42.8859989" lon="13.7137881"><ele>143.0</ele><time>2026-05-02T14:20:24.503Z</time></trkpt><trkpt lat="42.8858591" lon="13.7138733"><ele>143.0</ele><time>2026-05-02T14:20:25.502Z</time></trkpt><trkpt lat="42.8857325" lon="13.7139893"><ele>143.0</ele><time>2026-05-02T14:20:26.503Z</time></trkpt><trkpt lat="42.8856097" lon="13.7141103"><ele>143.0</ele><time>2026-05-02T14:20:27.504Z</time></trkpt><trkpt lat="42.8854794" lon="13.7142173"><ele>143.0</ele><time>2026-05-02T14:20:28.504Z</time></trkpt><trkpt lat="42.8853448" lon="13.7143047"><ele>143.0</ele><time>2026-05-02T14:20:29.504Z</time></trkpt><trkpt lat="42.8852044" lon="13.7143769"><ele>143.0</ele><time>2026-05-02T14:20:30.504Z</time></trkpt><trkpt lat="42.8850556" lon="13.7144164"><ele>140.0</ele><time>2026-05-02T14:20:31.504Z</time></trkpt><trkpt lat="42.8849112" lon="13.7144495"><ele>137.0</ele><time>2026-05-02T14:20:32.504Z</time></trkpt><trkpt lat="42.8847731" lon="13.7145019"><ele>134.0</ele><time>2026-05-02T14:20:33.503Z</time></trkpt><trkpt lat="42.8846484" lon="13.7145799"><ele>131.0</ele><time>2026-05-02T14:20:34.504Z</time></trkpt><trkpt lat="42.8845273" lon="13.7146827"><ele>131.0</ele><time>2026-05-02T14:20:35.504Z</time></trkpt><trkpt lat="42.8844025" lon="13.714794"><ele>131.0</ele><time>2026-05-02T14:20:36.503Z</time></trkpt><trkpt lat="42.8842743" lon="13.7149017"><ele>131.0</ele><time>2026-05-02T14:20:37.504Z</time></trkpt><trkpt lat="42.8841434" lon="13.7149939"><ele>131.0</ele><time>2026-05-02T14:20:38.503Z</time></trkpt><trkpt lat="42.8840124" lon="13.7150734"><ele>132.75</ele><time>2026-05-02T14:20:39.504Z</time></trkpt><trkpt lat="42.8838825" lon="13.7151385"><ele>134.5</ele><time>2026-05-02T14:20:40.504Z</time></trkpt><trkpt lat="42.8837566" lon="13.7152084"><ele>136.25</ele><time>2026-05-02T14:20:41.504Z</time></trkpt><trkpt lat="42.8836417" lon="13.7152907"><ele>138.0</ele><time>2026-05-02T14:20:42.504Z</time></trkpt><trkpt lat="42.8835318" lon="13.7153926"><ele>136.25</ele><time>2026-05-02T14:20:43.503Z</time></trkpt><trkpt lat="42.8834313" lon="13.7155093"><ele>134.5</ele><time>2026-05-02T14:20:44.504Z</time></trkpt><trkpt lat="42.8833425" lon="13.7156318"><ele>132.75</ele><time>2026-05-02T14:20:45.504Z</time></trkpt><trkpt lat="42.88325" lon="13.7157454"><ele>131.0</ele><time>2026-05-02T14:20:46.504Z</time></trkpt><trkpt lat="42.8831562" lon="13.7158637"><ele>131.0</ele><time>2026-05-02T14:20:47.503Z</time></trkpt><trkpt lat="42.8830446" lon="13.7159893"><ele>131.0</ele><time>2026-05-02T14:20:48.504Z</time></trkpt><trkpt lat="42.8829209" lon="13.7160756"><ele>131.0</ele><time>2026-05-02T14:20:49.504Z</time></trkpt><trkpt lat="42.8827889" lon="13.7161528"><ele>131.0</ele><time>2026-05-02T14:20:50.504Z</time></trkpt><trkpt lat="42.882652" lon="13.7162162"><ele>127.33333333333333</ele><time>2026-05-02T14:20:51.504Z</time></trkpt><trkpt lat="42.8824976" lon="13.716262"><ele>123.66666666666666</ele><time>2026-05-02T14:20:52.504Z</time></trkpt><trkpt lat="42.882349" lon="13.7163054"><ele>120.0</ele><time>2026-05-02T14:20:53.504Z</time></trkpt><trkpt lat="42.8822018" lon="13.7163478"><ele>120.0</ele><time>2026-05-02T14:20:54.504Z</time></trkpt><trkpt lat="42.8820536" lon="13.7163874"><ele>120.0</ele><time>2026-05-02T14:20:55.504Z</time></trkpt><trkpt lat="42.8819083" lon="13.7164303"><ele>120.0</ele><time>2026-05-02T14:20:56.504Z</time></trkpt><trkpt lat="42.8817621" lon="13.716486"><ele>121.33333333333334</ele><time>2026-05-02T14:20:57.504Z</time></trkpt><trkpt lat="42.8816172" lon="13.7165526"><ele>122.66666666666667</ele><time>2026-05-02T14:20:58.503Z</time></trkpt><trkpt lat="42.8814702" lon="13.7166238"><ele>124.0</ele><time>2026-05-02T14:20:59.504Z</time></trkpt><trkpt lat="42.8813238" lon="13.7166978"><ele>124.0</ele><time>2026-05-02T14:21:00.504Z</time></trkpt><trkpt lat="42.8811794" lon="13.7167776"><ele>124.0</ele><time>2026-05-02T14:21:01.504Z</time></trkpt><trkpt lat="42.8810365" lon="13.7168715"><ele>124.0</ele><time>2026-05-02T14:21:02.504Z</time></trkpt><trkpt lat="42.8808882" lon="13.7169726"><ele>119.33333333333334</ele><time>2026-05-02T14:21:03.504Z</time></trkpt><trkpt lat="42.8807362" lon="13.7170824"><ele>114.66666666666666</ele><time>2026-05-02T14:21:04.504Z</time></trkpt><trkpt lat="42.8805888" lon="13.7171854"><ele>110.0</ele><time>2026-05-02T14:21:05.504Z</time></trkpt><trkpt lat="42.8804512" lon="13.71728"><ele>110.0</ele><time>2026-05-02T14:21:06.504Z</time></trkpt><trkpt lat="42.8803193" lon="13.7173676"><ele>110.0</ele><time>2026-05-02T14:21:07.504Z</time></trkpt><trkpt lat="42.8801862" lon="13.7174604"><ele>110.0</ele><time>2026-05-02T14:21:08.504Z</time></trkpt><trkpt lat="42.8800504" lon="13.7175493"><ele>110.0</ele><time>2026-05-02T14:21:09.504Z</time></trkpt><trkpt lat="42.8799187" lon="13.7176403"><ele>111.75</ele><time>2026-05-02T14:21:10.504Z</time></trkpt><trkpt lat="42.8797889" lon="13.7177272"><ele>113.5</ele><time>2026-05-02T14:21:11.504Z</time></trkpt><trkpt lat="42.8796635" lon="13.7178177"><ele>115.25</ele><time>2026-05-02T14:21:12.504Z</time></trkpt><trkpt lat="42.8795433" lon="13.717911"><ele>117.0</ele><time>2026-05-02T14:21:13.504Z</time></trkpt><trkpt lat="42.8794331" lon="13.7180108"><ele>114.8</ele><time>2026-05-02T14:21:14.504Z</time></trkpt><trkpt lat="42.8793245" lon="13.7181141"><ele>112.6</ele><time>2026-05-02T14:21:15.504Z</time></trkpt><trkpt lat="42.8792265" lon="13.7182118"><ele>110.39999999999999</ele><time>2026-05-02T14:21:16.504Z</time></trkpt><trkpt lat="42.8791444" lon="13.7182991"><ele>108.19999999999999</ele><time>2026-05-02T14:21:17.504Z</time></trkpt><trkpt lat="42.879079" lon="13.7183742"><ele>106.0</ele><time>2026-05-02T14:21:18.504Z</time></trkpt><trkpt lat="42.8790295" lon="13.7184305"><ele>106.0</ele><time>2026-05-02T14:21:19.504Z</time></trkpt><trkpt lat="42.8789646" lon="13.7185009"><ele>106.0</ele><time>2026-05-02T14:21:21.504Z</time></trkpt><trkpt lat="42.8788371" lon="13.7185534"><ele>106.0</ele><time>2026-05-02T14:21:46.505Z</time></trkpt><trkpt lat="42.8787692" lon="13.7186079"><ele>106.0</ele><time>2026-05-02T14:21:47.505Z</time></trkpt><trkpt lat="42.8786875" lon="13.7186694"><ele>106.0</ele><time>2026-05-02T14:21:48.505Z</time></trkpt><trkpt lat="42.8785924" lon="13.7187244"><ele>103.25</ele><time>2026-05-02T14:21:49.505Z</time></trkpt><trkpt lat="42.8784738" lon="13.7187823"><ele>100.5</ele><time>2026-05-02T14:21:50.505Z</time></trkpt><trkpt lat="42.8783536" lon="13.7188318"><ele>97.75</ele><time>2026-05-02T14:21:51.505Z</time></trkpt><trkpt lat="42.8782297" lon="13.7188821"><ele>95.0</ele><time>2026-05-02T14:21:52.505Z</time></trkpt><trkpt lat="42.8780958" lon="13.7189322"><ele>95.0</ele><time>2026-05-02T14:21:53.504Z</time></trkpt><trkpt lat="42.8779461" lon="13.7189857"><ele>95.0</ele><time>2026-05-02T14:21:54.505Z</time></trkpt><trkpt lat="42.8778097" lon="13.7190353"><ele>95.0</ele><time>2026-05-02T14:21:55.505Z</time></trkpt><trkpt lat="42.8776718" lon="13.7190834"><ele>95.0</ele><time>2026-05-02T14:21:56.505Z</time></trkpt><trkpt lat="42.8775304" lon="13.7191218"><ele>95.5</ele><time>2026-05-02T14:21:57.505Z</time></trkpt><trkpt lat="42.8773811" lon="13.7191441"><ele>96.0</ele><time>2026-05-02T14:21:58.505Z</time></trkpt><trkpt lat="42.8772401" lon="13.7191519"><ele>96.5</ele><time>2026-05-02T14:21:59.505Z</time></trkpt><trkpt lat="42.8771061" lon="13.7191653"><ele>97.0</ele><time>2026-05-02T14:22:00.505Z</time></trkpt><trkpt lat="42.8769782" lon="13.7191952"><ele>97.0</ele><time>2026-05-02T14:22:01.505Z</time></trkpt><trkpt lat="42.8768455" lon="13.719246"><ele>97.0</ele><time>2026-05-02T14:22:02.505Z</time></trkpt><trkpt lat="42.8767328" lon="13.719352"><ele>97.0</ele><time>2026-05-02T14:22:03.504Z</time></trkpt><trkpt lat="42.8766192" lon="13.7194792"><ele>97.0</ele><time>2026-05-02T14:22:04.505Z</time></trkpt><trkpt lat="42.8764989" lon="13.7196048"><ele>92.5</ele><time>2026-05-02T14:22:05.505Z</time></trkpt><trkpt lat="42.876381" lon="13.719716"><ele>88.0</ele><time>2026-05-02T14:22:06.505Z</time></trkpt><trkpt lat="42.8762668" lon="13.7198189"><ele>83.5</ele><time>2026-05-02T14:22:07.505Z</time></trkpt><trkpt lat="42.87615" lon="13.7198998"><ele>79.0</ele><time>2026-05-02T14:22:08.505Z</time></trkpt><trkpt lat="42.8760292" lon="13.7199483"><ele>79.5</ele><time>2026-05-02T14:22:09.505Z</time></trkpt><trkpt lat="42.8759037" lon="13.7199441"><ele>80.0</ele><time>2026-05-02T14:22:10.505Z</time></trkpt><trkpt lat="42.8757646" lon="13.7198885"><ele>80.5</ele><time>2026-05-02T14:22:11.505Z</time></trkpt><trkpt lat="42.8756226" lon="13.7198007"><ele>81.0</ele><time>2026-05-02T14:22:12.505Z</time></trkpt><trkpt lat="42.8755117" lon="13.7197152"><ele>81.0</ele><time>2026-05-02T14:22:13.505Z</time></trkpt><trkpt lat="42.8754115" lon="13.7196128"><ele>81.0</ele><time>2026-05-02T14:22:14.505Z</time></trkpt><trkpt lat="42.8753211" lon="13.7194955"><ele>81.0</ele><time>2026-05-02T14:22:15.505Z</time></trkpt><trkpt lat="42.8752651" lon="13.7193491"><ele>81.0</ele><time>2026-05-02T14:22:16.505Z</time></trkpt><trkpt lat="42.8752325" lon="13.7192003"><ele>82.0</ele><time>2026-05-02T14:22:17.505Z</time></trkpt><trkpt lat="42.8752004" lon="13.7190736"><ele>83.0</ele><time>2026-05-02T14:22:18.505Z</time></trkpt><trkpt lat="42.8751604" lon="13.71898"><ele>84.0</ele><time>2026-05-02T14:22:19.505Z</time></trkpt><trkpt lat="42.8751135" lon="13.7189134"><ele>85.0</ele><time>2026-05-02T14:22:20.505Z</time></trkpt><trkpt lat="42.8750029" lon="13.7188543"><ele>86.0</ele><time>2026-05-02T14:22:22.505Z</time></trkpt><trkpt lat="42.8749068" lon="13.7188641"><ele>83.0</ele><time>2026-05-02T14:22:23.504Z</time></trkpt><trkpt lat="42.8747918" lon="13.7188732"><ele>80.0</ele><time>2026-05-02T14:22:24.505Z</time></trkpt><trkpt lat="42.8746561" lon="13.7188746"><ele>77.0</ele><time>2026-05-02T14:22:25.505Z</time></trkpt><trkpt lat="42.8745096" lon="13.7188491"><ele>74.0</ele><time>2026-05-02T14:22:26.505Z</time></trkpt><trkpt lat="42.8743755" lon="13.7188181"><ele>74.0</ele><time>2026-05-02T14:22:27.506Z</time></trkpt><trkpt lat="42.87428" lon="13.7188125"><ele>74.0</ele><time>2026-05-02T14:22:28.504Z</time></trkpt><trkpt lat="42.874112" lon="13.7189907"><ele>74.0</ele><time>2026-05-02T14:22:29.506Z</time></trkpt><trkpt lat="42.8740462" lon="13.719085"><ele>74.0</ele><time>2026-05-02T14:22:30.504Z</time></trkpt><trkpt lat="42.8739868" lon="13.7191973"><ele>72.5</ele><time>2026-05-02T14:22:31.505Z</time></trkpt><trkpt lat="42.8739565" lon="13.7193242"><ele>71.0</ele><time>2026-05-02T14:22:32.505Z</time></trkpt><trkpt lat="42.8739484" lon="13.7195226"><ele>69.5</ele><time>2026-05-02T14:22:33.504Z</time></trkpt><trkpt lat="42.8739515" lon="13.7197616"><ele>68.0</ele><time>2026-05-02T14:22:34.506Z</time></trkpt><trkpt lat="42.8739325" lon="13.7199801"><ele>67.66666666666667</ele><time>2026-05-02T14:22:35.506Z</time></trkpt><trkpt lat="42.8739051" lon="13.7201976"><ele>67.33333333333333</ele><time>2026-05-02T14:22:36.506Z</time></trkpt><trkpt lat="42.8738743" lon="13.7204206"><ele>67.0</ele><time>2026-05-02T14:22:37.506Z</time></trkpt><trkpt lat="42.8738458" lon="13.7206314"><ele>67.0</ele><time>2026-05-02T14:22:38.506Z</time></trkpt><trkpt lat="42.8738133" lon="13.7208332"><ele>67.0</ele><time>2026-05-02T14:22:39.506Z</time></trkpt><trkpt lat="42.8737754" lon="13.7209785"><ele>67.0</ele><time>2026-05-02T14:22:40.505Z</time></trkpt><trkpt lat="42.8737145" lon="13.7210981"><ele>67.0</ele><time>2026-05-02T14:22:41.506Z</time></trkpt><trkpt lat="42.8736291" lon="13.7212129"><ele>69.0</ele><time>2026-05-02T14:22:42.506Z</time></trkpt><trkpt lat="42.8735186" lon="13.7213053"><ele>71.0</ele><time>2026-05-02T14:22:43.505Z</time></trkpt><trkpt lat="42.8733715" lon="13.7213829"><ele>73.0</ele><time>2026-05-02T14:22:44.505Z</time></trkpt><trkpt lat="42.8732177" lon="13.7214666"><ele>73.0</ele><time>2026-05-02T14:22:45.505Z</time></trkpt><trkpt lat="42.8730661" lon="13.7215385"><ele>73.0</ele><time>2026-05-02T14:22:46.506Z</time></trkpt><trkpt lat="42.8729125" lon="13.7216304"><ele>73.0</ele><time>2026-05-02T14:22:47.506Z</time></trkpt><trkpt lat="42.8727623" lon="13.7217517"><ele>73.0</ele><time>2026-05-02T14:22:48.506Z</time></trkpt><trkpt lat="42.8726194" lon="13.7218932"><ele>73.0</ele><time>2026-05-02T14:22:49.506Z</time></trkpt><trkpt lat="42.8724823" lon="13.7220411"><ele>73.0</ele><time>2026-05-02T14:22:50.506Z</time></trkpt><trkpt lat="42.8723481" lon="13.7221919"><ele>73.66666666666666</ele><time>2026-05-02T14:22:51.506Z</time></trkpt><trkpt lat="42.8722193" lon="13.7223333"><ele>74.33333333333333</ele><time>2026-05-02T14:22:52.506Z</time></trkpt><trkpt lat="42.8720961" lon="13.7224646"><ele>75.0</ele><time>2026-05-02T14:22:53.506Z</time></trkpt><trkpt lat="42.8719717" lon="13.7225868"><ele>75.0</ele><time>2026-05-02T14:22:54.506Z</time></trkpt><trkpt lat="42.8718364" lon="13.7226917"><ele>75.0</ele><time>2026-05-02T14:22:55.506Z</time></trkpt><trkpt lat="42.8716972" lon="13.7227801"><ele>75.0</ele><time>2026-05-02T14:22:56.506Z</time></trkpt><trkpt lat="42.8715497" lon="13.7228263"><ele>75.0</ele><time>2026-05-02T14:22:57.506Z</time></trkpt><trkpt lat="42.8713887" lon="13.7228317"><ele>75.0</ele><time>2026-05-02T14:22:58.506Z</time></trkpt><trkpt lat="42.8712322" lon="13.7228209"><ele>75.0</ele><time>2026-05-02T14:22:59.505Z</time></trkpt><trkpt lat="42.8710894" lon="13.7228282"><ele>75.0</ele><time>2026-05-02T14:23:00.506Z</time></trkpt><trkpt lat="42.8709468" lon="13.722846"><ele>75.0</ele><time>2026-05-02T14:23:01.505Z</time></trkpt><trkpt lat="42.8708199" lon="13.7229162"><ele>75.0</ele><time>2026-05-02T14:23:02.506Z</time></trkpt><trkpt lat="42.8707021" lon="13.7230238"><ele>75.0</ele><time>2026-05-02T14:23:03.506Z</time></trkpt><trkpt lat="42.8705953" lon="13.7231403"><ele>74.0</ele><time>2026-05-02T14:23:04.505Z</time></trkpt><trkpt lat="42.8704971" lon="13.7232941"><ele>73.0</ele><time>2026-05-02T14:23:05.506Z</time></trkpt><trkpt lat="42.870398" lon="13.7234104"><ele>72.0</ele><time>2026-05-02T14:23:06.506Z</time></trkpt><trkpt lat="42.8703037" lon="13.7234886"><ele>71.0</ele><time>2026-05-02T14:23:07.506Z</time></trkpt><trkpt lat="42.8702034" lon="13.72354"><ele>69.5</ele><time>2026-05-02T14:23:08.506Z</time></trkpt><trkpt lat="42.8700829" lon="13.7235603"><ele>68.0</ele><time>2026-05-02T14:23:09.506Z</time></trkpt><trkpt lat="42.8699511" lon="13.7235474"><ele>66.5</ele><time>2026-05-02T14:23:10.506Z</time></trkpt><trkpt lat="42.86981" lon="13.7235424"><ele>65.0</ele><time>2026-05-02T14:23:11.506Z</time></trkpt><trkpt lat="42.8696918" lon="13.7235614"><ele>65.25</ele><time>2026-05-02T14:23:12.506Z</time></trkpt><trkpt lat="42.8695778" lon="13.7236019"><ele>65.5</ele><time>2026-05-02T14:23:13.506Z</time></trkpt><trkpt lat="42.8694557" lon="13.723658"><ele>65.75</ele><time>2026-05-02T14:23:14.505Z</time></trkpt><trkpt lat="42.869326" lon="13.7237579"><ele>66.0</ele><time>2026-05-02T14:23:15.506Z</time></trkpt><trkpt lat="42.8691934" lon="13.7238703"><ele>64.0</ele><time>2026-05-02T14:23:16.506Z</time></trkpt><trkpt lat="42.8690457" lon="13.7239914"><ele>62.0</ele><time>2026-05-02T14:23:17.505Z</time></trkpt><trkpt lat="42.8688815" lon="13.7241158"><ele>60.0</ele><time>2026-05-02T14:23:18.506Z</time></trkpt><trkpt lat="42.868701" lon="13.7242473"><ele>60.0</ele><time>2026-05-02T14:23:19.506Z</time></trkpt><trkpt lat="42.8685238" lon="13.7243631"><ele>60.0</ele><time>2026-05-02T14:23:20.506Z</time></trkpt><trkpt lat="42.8683462" lon="13.7244704"><ele>60.0</ele><time>2026-05-02T14:23:21.506Z</time></trkpt><trkpt lat="42.8681806" lon="13.7245677"><ele>59.66666666666667</ele><time>2026-05-02T14:23:22.506Z</time></trkpt><trkpt lat="42.8680176" lon="13.7246691"><ele>59.333333333333336</ele><time>2026-05-02T14:23:23.506Z</time></trkpt><trkpt lat="42.8678627" lon="13.7247626"><ele>59.0</ele><time>2026-05-02T14:23:24.506Z</time></trkpt><trkpt lat="42.8677093" lon="13.7248466"><ele>59.0</ele><time>2026-05-02T14:23:25.506Z</time></trkpt><trkpt lat="42.8675627" lon="13.7249182"><ele>59.0</ele><time>2026-05-02T14:23:26.506Z</time></trkpt><trkpt lat="42.8674245" lon="13.7249805"><ele>59.0</ele><time>2026-05-02T14:23:27.506Z</time></trkpt><trkpt lat="42.8672919" lon="13.7250375"><ele>59.0</ele><time>2026-05-02T14:23:28.506Z</time></trkpt><trkpt lat="42.8671737" lon="13.7250618"><ele>59.0</ele><time>2026-05-02T14:23:29.506Z</time></trkpt><trkpt lat="42.8670594" lon="13.7250515"><ele>59.0</ele><time>2026-05-02T14:23:30.506Z</time></trkpt><trkpt lat="42.8669408" lon="13.7250141"><ele>59.0</ele><time>2026-05-02T14:23:31.506Z</time></trkpt><trkpt lat="42.8668294" lon="13.7249256"><ele>59.0</ele><time>2026-05-02T14:23:32.506Z</time></trkpt><trkpt lat="42.8667219" lon="13.724819"><ele>59.75</ele><time>2026-05-02T14:23:33.506Z</time></trkpt><trkpt lat="42.8666142" lon="13.7247117"><ele>60.5</ele><time>2026-05-02T14:23:34.507Z</time></trkpt><trkpt lat="42.8664944" lon="13.7246166"><ele>61.25</ele><time>2026-05-02T14:23:35.507Z</time></trkpt><trkpt lat="42.8663769" lon="13.7245687"><ele>62.0</ele><time>2026-05-02T14:23:36.506Z</time></trkpt><trkpt lat="42.8662614" lon="13.7245529"><ele>62.0</ele><time>2026-05-02T14:23:37.507Z</time></trkpt><trkpt lat="42.8661543" lon="13.7245488"><ele>62.0</ele><time>2026-05-02T14:23:38.506Z</time></trkpt><trkpt lat="42.866053" lon="13.7245494"><ele>62.0</ele><time>2026-05-02T14:23:39.507Z</time></trkpt><trkpt lat="42.8659522" lon="13.7245456"><ele>62.0</ele><time>2026-05-02T14:23:40.507Z</time></trkpt><trkpt lat="42.8658557" lon="13.7245374"><ele>62.0</ele><time>2026-05-02T14:23:41.507Z</time></trkpt><trkpt lat="42.8657666" lon="13.7245242"><ele>61.833333333333336</ele><time>2026-05-02T14:23:42.507Z</time></trkpt><trkpt lat="42.8656898" lon="13.7245101"><ele>61.66666666666667</ele><time>2026-05-02T14:23:43.507Z</time></trkpt><trkpt lat="42.8655879" lon="13.7244936"><ele>61.5</ele><time>2026-05-02T14:23:45.507Z</time></trkpt><trkpt lat="42.8655234" lon="13.7244639"><ele>61.33333333333333</ele><time>2026-05-02T14:23:48.507Z</time></trkpt><trkpt lat="42.8654605" lon="13.7243907"><ele>61.166666666666664</ele><time>2026-05-02T14:23:51.507Z</time></trkpt><trkpt lat="42.8653468" lon="13.7243838"><ele>61.0</ele><time>2026-05-02T14:23:53.507Z</time></trkpt><trkpt lat="42.8652796" lon="13.7243781"><ele>60.49999999999999</ele><time>2026-05-02T14:23:54.507Z</time></trkpt><trkpt lat="42.8652095" lon="13.7243621"><ele>60.0</ele><time>2026-05-02T14:23:55.507Z</time></trkpt><trkpt lat="42.8651435" lon="13.7243547"><ele>59.5</ele><time>2026-05-02T14:23:56.507Z</time></trkpt><trkpt lat="42.8650466" lon="13.7244214"><ele>59.0</ele><time>2026-05-02T14:23:58.507Z</time></trkpt><trkpt lat="42.865018" lon="13.7245906"><ele>58.49999999999999</ele><time>2026-05-02T14:24:00.507Z</time></trkpt><trkpt lat="42.8650168" lon="13.724693"><ele>58.0</ele><time>2026-05-02T14:24:01.506Z</time></trkpt><trkpt lat="42.8650504" lon="13.7248029"><ele>58.0</ele><time>2026-05-02T14:24:02.507Z</time></trkpt><trkpt lat="42.8650904" lon="13.7249109"><ele>58.0</ele><time>2026-05-02T14:24:03.506Z</time></trkpt><trkpt lat="42.8651288" lon="13.725031"><ele>58.0</ele><time>2026-05-02T14:24:04.507Z</time></trkpt><trkpt lat="42.8651632" lon="13.7251725"><ele>58.0</ele><time>2026-05-02T14:24:05.506Z</time></trkpt><trkpt lat="42.8651985" lon="13.7253292"><ele>58.0</ele><time>2026-05-02T14:24:06.507Z</time></trkpt><trkpt lat="42.8652392" lon="13.7254889"><ele>59.25</ele><time>2026-05-02T14:24:07.507Z</time></trkpt><trkpt lat="42.8652814" lon="13.7256497"><ele>60.5</ele><time>2026-05-02T14:24:08.507Z</time></trkpt><trkpt lat="42.8653334" lon="13.7258273"><ele>61.75</ele><time>2026-05-02T14:24:09.507Z</time></trkpt><trkpt lat="42.865392" lon="13.7260007"><ele>63.0</ele><time>2026-05-02T14:24:10.507Z</time></trkpt><trkpt lat="42.8654441" lon="13.7261872"><ele>63.0</ele><time>2026-05-02T14:24:11.507Z</time></trkpt><trkpt lat="42.8654801" lon="13.7263556"><ele>63.0</ele><time>2026-05-02T14:24:12.507Z</time></trkpt><trkpt lat="42.8655191" lon="13.7265314"><ele>63.0</ele><time>2026-05-02T14:24:13.507Z</time></trkpt><trkpt lat="42.8655544" lon="13.7267001"><ele>63.0</ele><time>2026-05-02T14:24:14.507Z</time></trkpt><trkpt lat="42.8655852" lon="13.7268372"><ele>63.166666666666664</ele><time>2026-05-02T14:24:15.506Z</time></trkpt><trkpt lat="42.865607" lon="13.7269483"><ele>63.33333333333333</ele><time>2026-05-02T14:24:16.507Z</time></trkpt><trkpt lat="42.8656249" lon="13.7270373"><ele>63.5</ele><time>2026-05-02T14:24:17.507Z</time></trkpt><trkpt lat="42.8656485" lon="13.7271387"><ele>63.666666666666664</ele><time>2026-05-02T14:24:19.507Z</time></trkpt><trkpt lat="42.8657434" lon="13.7271636"><ele>63.83333333333333</ele><time>2026-05-02T14:24:23.507Z</time></trkpt><trkpt lat="42.865789" lon="13.7272257"><ele>64.0</ele><time>2026-05-02T14:24:26.507Z</time></trkpt><trkpt lat="42.8657662" lon="13.7273069"><ele>63.99999999999999</ele><time>2026-05-02T14:24:45.508Z</time></trkpt><trkpt lat="42.8657753" lon="13.7272063"><ele>64.0</ele><time>2026-05-02T14:24:58.508Z</time></trkpt><trkpt lat="42.8657818" lon="13.727292"><ele>64.0</ele><time>2026-05-02T14:25:01.508Z</time></trkpt><trkpt lat="42.8657773" lon="13.7273823"><ele>64.0</ele><time>2026-05-02T14:25:12.507Z</time></trkpt><trkpt lat="42.8657977" lon="13.7274654"><ele>63.99999999999999</ele><time>2026-05-02T14:29:04.512Z</time></trkpt><trkpt lat="42.8657145" lon="13.7274434"><ele>64.0</ele><time>2026-05-02T14:29:12.512Z</time></trkpt><trkpt lat="42.8656804" lon="13.7272719"><ele>64.0</ele><time>2026-05-02T14:29:14.512Z</time></trkpt><trkpt lat="42.8656592" lon="13.7271467"><ele>64.0</ele><time>2026-05-02T14:29:15.511Z</time></trkpt><trkpt lat="42.8656362" lon="13.7270343"><ele>64.0</ele><time>2026-05-02T14:29:16.512Z</time></trkpt><trkpt lat="42.8656133" lon="13.7269191"><ele>64.0</ele><time>2026-05-02T14:29:17.512Z</time></trkpt><trkpt lat="42.8655881" lon="13.7267861"><ele>64.0</ele><time>2026-05-02T14:29:18.512Z</time></trkpt><trkpt lat="42.8655582" lon="13.726648"><ele>63.75</ele><time>2026-05-02T14:29:19.512Z</time></trkpt><trkpt lat="42.8655295" lon="13.7264984"><ele>63.5</ele><time>2026-05-02T14:29:20.512Z</time></trkpt><trkpt lat="42.8655006" lon="13.7263418"><ele>63.25</ele><time>2026-05-02T14:29:21.512Z</time></trkpt><trkpt lat="42.86547" lon="13.7261817"><ele>63.0</ele><time>2026-05-02T14:29:22.512Z</time></trkpt><trkpt lat="42.865443" lon="13.7260236"><ele>63.0</ele><time>2026-05-02T14:29:23.512Z</time></trkpt><trkpt lat="42.8654091" lon="13.7258633"><ele>63.0</ele><time>2026-05-02T14:29:24.512Z</time></trkpt><trkpt lat="42.8653757" lon="13.7257006"><ele>63.0</ele><time>2026-05-02T14:29:25.512Z</time></trkpt><trkpt lat="42.865344" lon="13.7255343"><ele>63.0</ele><time>2026-05-02T14:29:26.512Z</time></trkpt><trkpt lat="42.86531" lon="13.7253722"><ele>63.0</ele><time>2026-05-02T14:29:27.512Z</time></trkpt><trkpt lat="42.865281" lon="13.7252309"><ele>63.0</ele><time>2026-05-02T14:29:28.512Z</time></trkpt><trkpt lat="42.8652612" lon="13.7251042"><ele>63.0</ele><time>2026-05-02T14:29:29.512Z</time></trkpt><trkpt lat="42.8652386" lon="13.7250009"><ele>63.0</ele><time>2026-05-02T14:29:30.512Z</time></trkpt><trkpt lat="42.8652037" lon="13.7248481"><ele>63.0</ele><time>2026-05-02T14:29:32.512Z</time></trkpt><trkpt lat="42.8652087" lon="13.7247519"><ele>62.599999999999994</ele><time>2026-05-02T14:29:35.512Z</time></trkpt><trkpt lat="42.8652573" lon="13.7246158"><ele>62.199999999999996</ele><time>2026-05-02T14:29:38.512Z</time></trkpt><trkpt lat="42.8652926" lon="13.7244698"><ele>61.8</ele><time>2026-05-02T14:29:40.512Z</time></trkpt><trkpt lat="42.8652465" lon="13.7243236"><ele>61.4</ele><time>2026-05-02T14:29:42.513Z</time></trkpt><trkpt lat="42.8651823" lon="13.7242978"><ele>61.0</ele><time>2026-05-02T14:29:43.512Z</time></trkpt><trkpt lat="42.8651189" lon="13.7242938"><ele>61.599999999999994</ele><time>2026-05-02T14:29:44.511Z</time></trkpt><trkpt lat="42.8650432" lon="13.7243242"><ele>62.199999999999996</ele><time>2026-05-02T14:29:45.512Z</time></trkpt><trkpt lat="42.864974" lon="13.7243994"><ele>62.800000000000004</ele><time>2026-05-02T14:29:46.512Z</time></trkpt><trkpt lat="42.8648938" lon="13.7244551"><ele>63.400000000000006</ele><time>2026-05-02T14:29:47.511Z</time></trkpt><trkpt lat="42.8648001" lon="13.7244912"><ele>64.0</ele><time>2026-05-02T14:29:48.513Z</time></trkpt><trkpt lat="42.8646833" lon="13.7245277"><ele>62.5</ele><time>2026-05-02T14:29:49.512Z</time></trkpt><trkpt lat="42.8645543" lon="13.7245426"><ele>61.0</ele><time>2026-05-02T14:29:50.513Z</time></trkpt><trkpt lat="42.8644145" lon="13.7245452"><ele>59.5</ele><time>2026-05-02T14:29:51.513Z</time></trkpt><trkpt lat="42.8642648" lon="13.7245472"><ele>58.0</ele><time>2026-05-02T14:29:52.513Z</time></trkpt><trkpt lat="42.8641001" lon="13.7245567"><ele>57.33333333333333</ele><time>2026-05-02T14:29:53.513Z</time></trkpt><trkpt lat="42.8639388" lon="13.7245635"><ele>56.66666666666667</ele><time>2026-05-02T14:29:54.513Z</time></trkpt><trkpt lat="42.8637713" lon="13.7245719"><ele>56.0</ele><time>2026-05-02T14:29:55.513Z</time></trkpt><trkpt lat="42.8636073" lon="13.72458"><ele>56.0</ele><time>2026-05-02T14:29:56.513Z</time></trkpt><trkpt lat="42.8634488" lon="13.7245853"><ele>56.0</ele><time>2026-05-02T14:29:57.513Z</time></trkpt><trkpt lat="42.8632923" lon="13.7245943"><ele>56.0</ele><time>2026-05-02T14:29:58.513Z</time></trkpt><trkpt lat="42.8631348" lon="13.7246047"><ele>56.66666666666667</ele><time>2026-05-02T14:29:59.513Z</time></trkpt><trkpt lat="42.8629709" lon="13.7246064"><ele>57.33333333333333</ele><time>2026-05-02T14:30:00.513Z</time></trkpt><trkpt lat="42.8628078" lon="13.7245967"><ele>58.0</ele><time>2026-05-02T14:30:01.513Z</time></trkpt><trkpt lat="42.8626336" lon="13.7245688"><ele>58.0</ele><time>2026-05-02T14:30:02.513Z</time></trkpt><trkpt lat="42.8624642" lon="13.7245322"><ele>58.0</ele><time>2026-05-02T14:30:03.513Z</time></trkpt><trkpt lat="42.8622991" lon="13.7244914"><ele>58.0</ele><time>2026-05-02T14:30:04.513Z</time></trkpt><trkpt lat="42.8621343" lon="13.7244397"><ele>59.0</ele><time>2026-05-02T14:30:05.513Z</time></trkpt><trkpt lat="42.8619699" lon="13.7243791"><ele>60.0</ele><time>2026-05-02T14:30:06.513Z</time></trkpt><trkpt lat="42.861802" lon="13.7243092"><ele>61.0</ele><time>2026-05-02T14:30:07.513Z</time></trkpt><trkpt lat="42.8616327" lon="13.7242371"><ele>61.33333333333333</ele><time>2026-05-02T14:30:08.513Z</time></trkpt><trkpt lat="42.8614658" lon="13.724155"><ele>61.66666666666667</ele><time>2026-05-02T14:30:09.512Z</time></trkpt><trkpt lat="42.8613009" lon="13.7240642"><ele>62.0</ele><time>2026-05-02T14:30:10.513Z</time></trkpt><trkpt lat="42.8611394" lon="13.7239717"><ele>62.0</ele><time>2026-05-02T14:30:11.512Z</time></trkpt><trkpt lat="42.8609815" lon="13.7238795"><ele>62.0</ele><time>2026-05-02T14:30:12.512Z</time></trkpt><trkpt lat="42.8608266" lon="13.7237822"><ele>62.0</ele><time>2026-05-02T14:30:13.513Z</time></trkpt><trkpt lat="42.8606674" lon="13.7236871"><ele>61.66666666666667</ele><time>2026-05-02T14:30:14.513Z</time></trkpt><trkpt lat="42.8605082" lon="13.7235981"><ele>61.33333333333333</ele><time>2026-05-02T14:30:15.513Z</time></trkpt><trkpt lat="42.8603434" lon="13.7235152"><ele>61.0</ele><time>2026-05-02T14:30:16.513Z</time></trkpt><trkpt lat="42.8601797" lon="13.7234155"><ele>60.666666666666664</ele><time>2026-05-02T14:30:17.513Z</time></trkpt><trkpt lat="42.8600195" lon="13.7233047"><ele>60.33333333333333</ele><time>2026-05-02T14:30:18.512Z</time></trkpt><trkpt lat="42.8598581" lon="13.7231706"><ele>60.0</ele><time>2026-05-02T14:30:19.513Z</time></trkpt><trkpt lat="42.859696" lon="13.7230415"><ele>60.0</ele><time>2026-05-02T14:30:20.513Z</time></trkpt><trkpt lat="42.8595459" lon="13.7228863"><ele>60.0</ele><time>2026-05-02T14:30:21.512Z</time></trkpt><trkpt lat="42.8594006" lon="13.7227093"><ele>60.0</ele><time>2026-05-02T14:30:22.513Z</time></trkpt><trkpt lat="42.8592629" lon="13.7225251"><ele>60.0</ele><time>2026-05-02T14:30:23.513Z</time></trkpt><trkpt lat="42.859134" lon="13.7223305"><ele>60.0</ele><time>2026-05-02T14:30:24.512Z</time></trkpt><trkpt lat="42.8590201" lon="13.7221243"><ele>60.0</ele><time>2026-05-02T14:30:25.513Z</time></trkpt><trkpt lat="42.8589123" lon="13.721926"><ele>60.0</ele><time>2026-05-02T14:30:26.513Z</time></trkpt><trkpt lat="42.8588101" lon="13.7217441"><ele>60.0</ele><time>2026-05-02T14:30:27.513Z</time></trkpt><trkpt lat="42.8587148" lon="13.7215682"><ele>60.0</ele><time>2026-05-02T14:30:28.513Z</time></trkpt><trkpt lat="42.8586251" lon="13.7214069"><ele>60.0</ele><time>2026-05-02T14:30:29.513Z</time></trkpt><trkpt lat="42.8585496" lon="13.7212691"><ele>60.0</ele><time>2026-05-02T14:30:30.513Z</time></trkpt><trkpt lat="42.8584794" lon="13.7211286"><ele>60.0</ele><time>2026-05-02T14:30:31.513Z</time></trkpt><trkpt lat="42.8584234" lon="13.7209826"><ele>60.0</ele><time>2026-05-02T14:30:32.513Z</time></trkpt><trkpt lat="42.8583883" lon="13.7208412"><ele>60.0</ele><time>2026-05-02T14:30:33.513Z</time></trkpt><trkpt lat="42.858388" lon="13.7206967"><ele>60.0</ele><time>2026-05-02T14:30:34.513Z</time></trkpt><trkpt lat="42.8584134" lon="13.7205628"><ele>60.0</ele><time>2026-05-02T14:30:35.513Z</time></trkpt><trkpt lat="42.8584572" lon="13.7204324"><ele>60.0</ele><time>2026-05-02T14:30:36.513Z</time></trkpt><trkpt lat="42.8584889" lon="13.7203077"><ele>60.0</ele><time>2026-05-02T14:30:37.513Z</time></trkpt><trkpt lat="42.8584918" lon="13.7201858"><ele>60.166666666666664</ele><time>2026-05-02T14:30:38.513Z</time></trkpt><trkpt lat="42.8584663" lon="13.7200699"><ele>60.33333333333333</ele><time>2026-05-02T14:30:39.513Z</time></trkpt><trkpt lat="42.8584254" lon="13.7199642"><ele>60.5</ele><time>2026-05-02T14:30:40.512Z</time></trkpt><trkpt lat="42.8583566" lon="13.7199056"><ele>60.666666666666664</ele><time>2026-05-02T14:30:41.513Z</time></trkpt><trkpt lat="42.858281" lon="13.7198404"><ele>60.83333333333333</ele><time>2026-05-02T14:30:42.512Z</time></trkpt><trkpt lat="42.8582122" lon="13.7197668"><ele>61.0</ele><time>2026-05-02T14:30:43.512Z</time></trkpt><trkpt lat="42.8581669" lon="13.7196503"><ele>61.0</ele><time>2026-05-02T14:30:44.513Z</time></trkpt><trkpt lat="42.8581484" lon="13.7194964"><ele>61.0</ele><time>2026-05-02T14:30:45.513Z</time></trkpt><trkpt lat="42.8581306" lon="13.719336"><ele>61.0</ele><time>2026-05-02T14:30:46.513Z</time></trkpt><trkpt lat="42.8581067" lon="13.7191578"><ele>61.0</ele><time>2026-05-02T14:30:47.513Z</time></trkpt><trkpt lat="42.8580761" lon="13.7189951"><ele>60.5</ele><time>2026-05-02T14:30:48.513Z</time></trkpt><trkpt lat="42.858042" lon="13.7188111"><ele>60.0</ele><time>2026-05-02T14:30:49.513Z</time></trkpt><trkpt lat="42.8580092" lon="13.7186124"><ele>59.5</ele><time>2026-05-02T14:30:50.513Z</time></trkpt><trkpt lat="42.8579803" lon="13.7184082"><ele>59.0</ele><time>2026-05-02T14:30:51.513Z</time></trkpt><trkpt lat="42.8579444" lon="13.7182086"><ele>59.0</ele><time>2026-05-02T14:30:52.513Z</time></trkpt><trkpt lat="42.8579121" lon="13.7179993"><ele>59.0</ele><time>2026-05-02T14:30:53.514Z</time></trkpt><trkpt lat="42.8578729" lon="13.7177876"><ele>59.0</ele><time>2026-05-02T14:30:54.514Z</time></trkpt><trkpt lat="42.8578377" lon="13.7175677"><ele>59.66666666666667</ele><time>2026-05-02T14:30:55.514Z</time></trkpt><trkpt lat="42.8578013" lon="13.7173447"><ele>60.33333333333333</ele><time>2026-05-02T14:30:56.514Z</time></trkpt><trkpt lat="42.8577612" lon="13.7171168"><ele>61.0</ele><time>2026-05-02T14:30:57.514Z</time></trkpt><trkpt lat="42.8577214" lon="13.7168859"><ele>61.0</ele><time>2026-05-02T14:30:58.514Z</time></trkpt><trkpt lat="42.8576759" lon="13.7166611"><ele>61.0</ele><time>2026-05-02T14:30:59.514Z</time></trkpt><trkpt lat="42.8576365" lon="13.7164304"><ele>61.0</ele><time>2026-05-02T14:31:00.514Z</time></trkpt><trkpt lat="42.8575995" lon="13.7162022"><ele>60.0</ele><time>2026-05-02T14:31:01.514Z</time></trkpt><trkpt lat="42.8575606" lon="13.7159835"><ele>59.0</ele><time>2026-05-02T14:31:02.514Z</time></trkpt><trkpt lat="42.8575206" lon="13.7157589"><ele>58.0</ele><time>2026-05-02T14:31:03.514Z</time></trkpt><trkpt lat="42.8574873" lon="13.7155432"><ele>58.0</ele><time>2026-05-02T14:31:04.514Z</time></trkpt><trkpt lat="42.8574474" lon="13.7153267"><ele>58.0</ele><time>2026-05-02T14:31:05.514Z</time></trkpt><trkpt lat="42.8574118" lon="13.7151002"><ele>58.0</ele><time>2026-05-02T14:31:06.514Z</time></trkpt><trkpt lat="42.8573767" lon="13.7148666"><ele>57.666666666666664</ele><time>2026-05-02T14:31:07.514Z</time></trkpt><trkpt lat="42.8573411" lon="13.7146371"><ele>57.33333333333333</ele><time>2026-05-02T14:31:08.514Z</time></trkpt><trkpt lat="42.8573077" lon="13.7144094"><ele>57.0</ele><time>2026-05-02T14:31:09.514Z</time></trkpt><trkpt lat="42.8572739" lon="13.7141846"><ele>56.33333333333333</ele><time>2026-05-02T14:31:10.514Z</time></trkpt><trkpt lat="42.8572388" lon="13.7139643"><ele>55.666666666666664</ele><time>2026-05-02T14:31:11.514Z</time></trkpt><trkpt lat="42.8572008" lon="13.7137588"><ele>55.0</ele><time>2026-05-02T14:31:12.514Z</time></trkpt><trkpt lat="42.8571642" lon="13.7135613"><ele>55.0</ele><time>2026-05-02T14:31:13.514Z</time></trkpt><trkpt lat="42.8571384" lon="13.7133756"><ele>55.0</ele><time>2026-05-02T14:31:14.513Z</time></trkpt><trkpt lat="42.8571297" lon="13.7132023"><ele>55.0</ele><time>2026-05-02T14:31:15.514Z</time></trkpt><trkpt lat="42.8571389" lon="13.7130365"><ele>55.0</ele><time>2026-05-02T14:31:16.514Z</time></trkpt><trkpt lat="42.8571595" lon="13.7128819"><ele>55.2</ele><time>2026-05-02T14:31:17.513Z</time></trkpt><trkpt lat="42.8571675" lon="13.7127305"><ele>55.4</ele><time>2026-05-02T14:31:18.514Z</time></trkpt><trkpt lat="42.8571447" lon="13.7125973"><ele>55.599999999999994</ele><time>2026-05-02T14:31:19.514Z</time></trkpt><trkpt lat="42.8570915" lon="13.7124869"><ele>55.8</ele><time>2026-05-02T14:31:20.514Z</time></trkpt><trkpt lat="42.8570148" lon="13.7123607"><ele>56.0</ele><time>2026-05-02T14:31:21.514Z</time></trkpt><trkpt lat="42.8569371" lon="13.712228"><ele>56.0</ele><time>2026-05-02T14:31:22.514Z</time></trkpt><trkpt lat="42.8568702" lon="13.7120629"><ele>56.0</ele><time>2026-05-02T14:31:23.514Z</time></trkpt><trkpt lat="42.8568139" lon="13.7118755"><ele>56.0</ele><time>2026-05-02T14:31:24.514Z</time></trkpt><trkpt lat="42.8567446" lon="13.7116824"><ele>56.0</ele><time>2026-05-02T14:31:25.513Z</time></trkpt><trkpt lat="42.8566614" lon="13.7114933"><ele>55.66666666666667</ele><time>2026-05-02T14:31:26.514Z</time></trkpt><trkpt lat="42.8565636" lon="13.7113107"><ele>55.33333333333333</ele><time>2026-05-02T14:31:27.513Z</time></trkpt><trkpt lat="42.8564484" lon="13.7111311"><ele>55.0</ele><time>2026-05-02T14:31:28.514Z</time></trkpt><trkpt lat="42.856323" lon="13.7109567"><ele>55.0</ele><time>2026-05-02T14:31:29.514Z</time></trkpt><trkpt lat="42.856189" lon="13.710781"><ele>55.0</ele><time>2026-05-02T14:31:30.514Z</time></trkpt><trkpt lat="42.8560469" lon="13.7106137"><ele>55.0</ele><time>2026-05-02T14:31:31.514Z</time></trkpt><trkpt lat="42.8559009" lon="13.7104612"><ele>55.0</ele><time>2026-05-02T14:31:32.514Z</time></trkpt><trkpt lat="42.8557531" lon="13.71031"><ele>55.0</ele><time>2026-05-02T14:31:33.514Z</time></trkpt><trkpt lat="42.8556072" lon="13.7101545"><ele>55.0</ele><time>2026-05-02T14:31:34.514Z</time></trkpt><trkpt lat="42.8554646" lon="13.7099934"><ele>54.666666666666664</ele><time>2026-05-02T14:31:35.513Z</time></trkpt><trkpt lat="42.8553244" lon="13.7098436"><ele>54.33333333333333</ele><time>2026-05-02T14:31:36.513Z</time></trkpt><trkpt lat="42.8551871" lon="13.7096966"><ele>54.0</ele><time>2026-05-02T14:31:37.513Z</time></trkpt><trkpt lat="42.8550519" lon="13.7095455"><ele>54.33333333333333</ele><time>2026-05-02T14:31:38.514Z</time></trkpt><trkpt lat="42.8549202" lon="13.7093876"><ele>54.666666666666664</ele><time>2026-05-02T14:31:39.514Z</time></trkpt><trkpt lat="42.8547958" lon="13.7092214"><ele>55.0</ele><time>2026-05-02T14:31:40.514Z</time></trkpt><trkpt lat="42.8546875" lon="13.7090396"><ele>55.0</ele><time>2026-05-02T14:31:41.514Z</time></trkpt><trkpt lat="42.8545922" lon="13.7088491"><ele>55.0</ele><time>2026-05-02T14:31:42.514Z</time></trkpt><trkpt lat="42.8545135" lon="13.7086423"><ele>55.0</ele><time>2026-05-02T14:31:43.513Z</time></trkpt><trkpt lat="42.8544446" lon="13.7084318"><ele>55.0</ele><time>2026-05-02T14:31:44.514Z</time></trkpt><trkpt lat="42.8543862" lon="13.7082083"><ele>55.0</ele><time>2026-05-02T14:31:45.514Z</time></trkpt><trkpt lat="42.854341" lon="13.707959"><ele>55.0</ele><time>2026-05-02T14:31:46.514Z</time></trkpt><trkpt lat="42.8543037" lon="13.7077056"><ele>55.0</ele><time>2026-05-02T14:31:47.514Z</time></trkpt><trkpt lat="42.8542751" lon="13.707443"><ele>55.0</ele><time>2026-05-02T14:31:48.514Z</time></trkpt><trkpt lat="42.8542497" lon="13.7071802"><ele>55.0</ele><time>2026-05-02T14:31:49.514Z</time></trkpt><trkpt lat="42.8542164" lon="13.7069164"><ele>55.33333333333333</ele><time>2026-05-02T14:31:50.514Z</time></trkpt><trkpt lat="42.8541798" lon="13.7066512"><ele>55.66666666666667</ele><time>2026-05-02T14:31:51.514Z</time></trkpt><trkpt lat="42.8541395" lon="13.7063896"><ele>56.0</ele><time>2026-05-02T14:31:52.514Z</time></trkpt><trkpt lat="42.8541057" lon="13.7061232"><ele>57.0</ele><time>2026-05-02T14:31:53.514Z</time></trkpt><trkpt lat="42.8540765" lon="13.7058572"><ele>58.0</ele><time>2026-05-02T14:31:54.514Z</time></trkpt><trkpt lat="42.8540401" lon="13.705597"><ele>59.0</ele><time>2026-05-02T14:31:55.514Z</time></trkpt><trkpt lat="42.8540081" lon="13.7053259"><ele>59.0</ele><time>2026-05-02T14:31:56.514Z</time></trkpt><trkpt lat="42.8539687" lon="13.70506"><ele>59.0</ele><time>2026-05-02T14:31:57.515Z</time></trkpt><trkpt lat="42.8539317" lon="13.7047971"><ele>59.0</ele><time>2026-05-02T14:31:58.514Z</time></trkpt><trkpt lat="42.8538939" lon="13.7045279"><ele>58.0</ele><time>2026-05-02T14:31:59.514Z</time></trkpt><trkpt lat="42.8538628" lon="13.7042568"><ele>57.0</ele><time>2026-05-02T14:32:00.515Z</time></trkpt><trkpt lat="42.8538275" lon="13.7039906"><ele>56.0</ele><time>2026-05-02T14:32:01.515Z</time></trkpt><trkpt lat="42.8537874" lon="13.7037188"><ele>55.66666666666667</ele><time>2026-05-02T14:32:02.514Z</time></trkpt><trkpt lat="42.8537501" lon="13.7034398"><ele>55.33333333333333</ele><time>2026-05-02T14:32:03.515Z</time></trkpt><trkpt lat="42.8537119" lon="13.7031646"><ele>55.0</ele><time>2026-05-02T14:32:04.515Z</time></trkpt><trkpt lat="42.8536784" lon="13.7028928"><ele>55.33333333333333</ele><time>2026-05-02T14:32:05.515Z</time></trkpt><trkpt lat="42.8536429" lon="13.7026211"><ele>55.66666666666667</ele><time>2026-05-02T14:32:06.515Z</time></trkpt><trkpt lat="42.8536062" lon="13.70235"><ele>56.0</ele><time>2026-05-02T14:32:07.515Z</time></trkpt><trkpt lat="42.853564" lon="13.7020736"><ele>56.66666666666667</ele><time>2026-05-02T14:32:08.514Z</time></trkpt><trkpt lat="42.85352" lon="13.7018062"><ele>57.33333333333333</ele><time>2026-05-02T14:32:09.515Z</time></trkpt><trkpt lat="42.8534818" lon="13.7015306"><ele>58.0</ele><time>2026-05-02T14:32:10.514Z</time></trkpt><trkpt lat="42.8534448" lon="13.7012513"><ele>57.666666666666664</ele><time>2026-05-02T14:32:11.515Z</time></trkpt><trkpt lat="42.8534094" lon="13.7009687"><ele>57.33333333333333</ele><time>2026-05-02T14:32:12.515Z</time></trkpt><trkpt lat="42.8533735" lon="13.7006909"><ele>57.0</ele><time>2026-05-02T14:32:13.515Z</time></trkpt><trkpt lat="42.8533338" lon="13.7004117"><ele>57.0</ele><time>2026-05-02T14:32:14.515Z</time></trkpt><trkpt lat="42.8532972" lon="13.7001332"><ele>57.0</ele><time>2026-05-02T14:32:15.515Z</time></trkpt><trkpt lat="42.8532635" lon="13.6998492"><ele>57.0</ele><time>2026-05-02T14:32:16.515Z</time></trkpt><trkpt lat="42.8532213" lon="13.6995707"><ele>57.33333333333333</ele><time>2026-05-02T14:32:17.515Z</time></trkpt><trkpt lat="42.8531783" lon="13.6992874"><ele>57.666666666666664</ele><time>2026-05-02T14:32:18.515Z</time></trkpt><trkpt lat="42.8531417" lon="13.698999"><ele>58.0</ele><time>2026-05-02T14:32:19.514Z</time></trkpt><trkpt lat="42.8530979" lon="13.6987106"><ele>58.33333333333333</ele><time>2026-05-02T14:32:20.515Z</time></trkpt><trkpt lat="42.8530566" lon="13.6984203"><ele>58.66666666666667</ele><time>2026-05-02T14:32:21.515Z</time></trkpt><trkpt lat="42.8530187" lon="13.6981283"><ele>59.0</ele><time>2026-05-02T14:32:22.515Z</time></trkpt><trkpt lat="42.8529929" lon="13.6978346"><ele>59.333333333333336</ele><time>2026-05-02T14:32:23.515Z</time></trkpt><trkpt lat="42.8529608" lon="13.6975316"><ele>59.66666666666667</ele><time>2026-05-02T14:32:24.515Z</time></trkpt><trkpt lat="42.8529258" lon="13.6972289"><ele>60.0</ele><time>2026-05-02T14:32:25.515Z</time></trkpt><trkpt lat="42.8528875" lon="13.6969242"><ele>60.33333333333333</ele><time>2026-05-02T14:32:26.514Z</time></trkpt><trkpt lat="42.8528489" lon="13.6966228"><ele>60.666666666666664</ele><time>2026-05-02T14:32:27.515Z</time></trkpt><trkpt lat="42.8528054" lon="13.6963263"><ele>61.0</ele><time>2026-05-02T14:32:28.514Z</time></trkpt><trkpt lat="42.8527652" lon="13.6960242"><ele>61.33333333333333</ele><time>2026-05-02T14:32:29.514Z</time></trkpt><trkpt lat="42.8527262" lon="13.6957245"><ele>61.66666666666667</ele><time>2026-05-02T14:32:30.515Z</time></trkpt><trkpt lat="42.8526884" lon="13.6954221"><ele>62.0</ele><time>2026-05-02T14:32:31.515Z</time></trkpt><trkpt lat="42.852653" lon="13.6951183"><ele>61.66666666666667</ele><time>2026-05-02T14:32:32.515Z</time></trkpt><trkpt lat="42.8526122" lon="13.69482"><ele>61.33333333333333</ele><time>2026-05-02T14:32:33.515Z</time></trkpt><trkpt lat="42.8525752" lon="13.6945282"><ele>61.0</ele><time>2026-05-02T14:32:34.515Z</time></trkpt><trkpt lat="42.8525359" lon="13.6942419"><ele>60.666666666666664</ele><time>2026-05-02T14:32:35.515Z</time></trkpt><trkpt lat="42.8524979" lon="13.6939598"><ele>60.33333333333333</ele><time>2026-05-02T14:32:36.515Z</time></trkpt><trkpt lat="42.8524574" lon="13.693679"><ele>60.0</ele><time>2026-05-02T14:32:37.515Z</time></trkpt><trkpt lat="42.8524213" lon="13.6934039"><ele>60.0</ele><time>2026-05-02T14:32:38.515Z</time></trkpt><trkpt lat="42.8523878" lon="13.6931278"><ele>60.0</ele><time>2026-05-02T14:32:39.515Z</time></trkpt><trkpt lat="42.8523484" lon="13.6928536"><ele>60.0</ele><time>2026-05-02T14:32:40.515Z</time></trkpt><trkpt lat="42.8523046" lon="13.6925774"><ele>60.0</ele><time>2026-05-02T14:32:41.515Z</time></trkpt><trkpt lat="42.8522611" lon="13.6923002"><ele>60.0</ele><time>2026-05-02T14:32:42.515Z</time></trkpt><trkpt lat="42.8522234" lon="13.692022"><ele>60.0</ele><time>2026-05-02T14:32:43.515Z</time></trkpt><trkpt lat="42.8521877" lon="13.6917385"><ele>60.66666666666667</ele><time>2026-05-02T14:32:44.515Z</time></trkpt><trkpt lat="42.8521533" lon="13.6914562"><ele>61.333333333333336</ele><time>2026-05-02T14:32:45.515Z</time></trkpt><trkpt lat="42.8521183" lon="13.6911753"><ele>62.0</ele><time>2026-05-02T14:32:46.515Z</time></trkpt><trkpt lat="42.8520803" lon="13.6908898"><ele>62.0</ele><time>2026-05-02T14:32:47.515Z</time></trkpt><trkpt lat="42.8520482" lon="13.6906105"><ele>62.0</ele><time>2026-05-02T14:32:48.515Z</time></trkpt><trkpt lat="42.8520124" lon="13.690328"><ele>62.0</ele><time>2026-05-02T14:32:49.514Z</time></trkpt><trkpt lat="42.8519753" lon="13.6900477"><ele>62.0</ele><time>2026-05-02T14:32:50.515Z</time></trkpt><trkpt lat="42.8519385" lon="13.6897632"><ele>62.0</ele><time>2026-05-02T14:32:51.515Z</time></trkpt><trkpt lat="42.8519026" lon="13.6894827"><ele>62.0</ele><time>2026-05-02T14:32:52.515Z</time></trkpt><trkpt lat="42.8518649" lon="13.6891959"><ele>62.0</ele><time>2026-05-02T14:32:53.515Z</time></trkpt><trkpt lat="42.8518252" lon="13.6889105"><ele>62.0</ele><time>2026-05-02T14:32:54.514Z</time></trkpt><trkpt lat="42.8517862" lon="13.6886251"><ele>62.0</ele><time>2026-05-02T14:32:55.515Z</time></trkpt><trkpt lat="42.8517485" lon="13.6883423"><ele>62.0</ele><time>2026-05-02T14:32:56.515Z</time></trkpt><trkpt lat="42.8517137" lon="13.6880659"><ele>62.0</ele><time>2026-05-02T14:32:57.514Z</time></trkpt><trkpt lat="42.8516801" lon="13.6877959"><ele>62.0</ele><time>2026-05-02T14:32:58.515Z</time></trkpt><trkpt lat="42.8516446" lon="13.6875286"><ele>62.333333333333336</ele><time>2026-05-02T14:32:59.515Z</time></trkpt><trkpt lat="42.8516086" lon="13.6872621"><ele>62.66666666666667</ele><time>2026-05-02T14:33:00.514Z</time></trkpt><trkpt lat="42.8515681" lon="13.6869947"><ele>63.0</ele><time>2026-05-02T14:33:01.515Z</time></trkpt><trkpt lat="42.8515267" lon="13.6867327"><ele>63.66666666666667</ele><time>2026-05-02T14:33:02.514Z</time></trkpt><trkpt lat="42.8514933" lon="13.6864646"><ele>64.33333333333334</ele><time>2026-05-02T14:33:03.514Z</time></trkpt><trkpt lat="42.8514535" lon="13.6862043"><ele>65.0</ele><time>2026-05-02T14:33:04.515Z</time></trkpt><trkpt lat="42.8514181" lon="13.6859469"><ele>65.0</ele><time>2026-05-02T14:33:05.515Z</time></trkpt><trkpt lat="42.8513868" lon="13.6856921"><ele>65.0</ele><time>2026-05-02T14:33:06.515Z</time></trkpt><trkpt lat="42.8513498" lon="13.6854278"><ele>65.0</ele><time>2026-05-02T14:33:07.516Z</time></trkpt><trkpt lat="42.8513134" lon="13.685178"><ele>64.66666666666667</ele><time>2026-05-02T14:33:08.516Z</time></trkpt><trkpt lat="42.8512845" lon="13.6849185"><ele>64.33333333333333</ele><time>2026-05-02T14:33:09.516Z</time></trkpt><trkpt lat="42.8512504" lon="13.6846643"><ele>64.0</ele><time>2026-05-02T14:33:10.516Z</time></trkpt><trkpt lat="42.851217" lon="13.6844057"><ele>64.0</ele><time>2026-05-02T14:33:11.516Z</time></trkpt><trkpt lat="42.8511768" lon="13.6841472"><ele>64.0</ele><time>2026-05-02T14:33:12.516Z</time></trkpt><trkpt lat="42.8511481" lon="13.683865"><ele>64.0</ele><time>2026-05-02T14:33:13.516Z</time></trkpt><trkpt lat="42.8511177" lon="13.6835817"><ele>64.66666666666666</ele><time>2026-05-02T14:33:14.516Z</time></trkpt><trkpt lat="42.8510831" lon="13.6832986"><ele>65.33333333333333</ele><time>2026-05-02T14:33:15.516Z</time></trkpt><trkpt lat="42.8510463" lon="13.6830203"><ele>66.0</ele><time>2026-05-02T14:33:16.516Z</time></trkpt><trkpt lat="42.8510098" lon="13.6827294"><ele>65.66666666666667</ele><time>2026-05-02T14:33:17.516Z</time></trkpt><trkpt lat="42.8509748" lon="13.6824436"><ele>65.33333333333334</ele><time>2026-05-02T14:33:18.516Z</time></trkpt><trkpt lat="42.8509342" lon="13.6821616"><ele>65.0</ele><time>2026-05-02T14:33:19.516Z</time></trkpt><trkpt lat="42.8508975" lon="13.6818717"><ele>65.0</ele><time>2026-05-02T14:33:20.516Z</time></trkpt><trkpt lat="42.8508544" lon="13.6815789"><ele>65.0</ele><time>2026-05-02T14:33:21.516Z</time></trkpt><trkpt lat="42.8508176" lon="13.6812857"><ele>65.0</ele><time>2026-05-02T14:33:22.516Z</time></trkpt><trkpt lat="42.8507813" lon="13.6809912"><ele>65.66666666666667</ele><time>2026-05-02T14:33:23.516Z</time></trkpt><trkpt lat="42.8507449" lon="13.6806925"><ele>66.33333333333333</ele><time>2026-05-02T14:33:24.516Z</time></trkpt><trkpt lat="42.8507065" lon="13.6804015"><ele>67.0</ele><time>2026-05-02T14:33:25.516Z</time></trkpt><trkpt lat="42.850671" lon="13.6801117"><ele>67.33333333333333</ele><time>2026-05-02T14:33:26.516Z</time></trkpt><trkpt lat="42.8506338" lon="13.6798254"><ele>67.66666666666667</ele><time>2026-05-02T14:33:27.516Z</time></trkpt><trkpt lat="42.8505924" lon="13.6795441"><ele>68.0</ele><time>2026-05-02T14:33:28.516Z</time></trkpt><trkpt lat="42.8505496" lon="13.6792677"><ele>68.0</ele><time>2026-05-02T14:33:29.516Z</time></trkpt><trkpt lat="42.8505084" lon="13.6789943"><ele>68.0</ele><time>2026-05-02T14:33:30.516Z</time></trkpt><trkpt lat="42.8504655" lon="13.6787185"><ele>68.0</ele><time>2026-05-02T14:33:31.516Z</time></trkpt><trkpt lat="42.8504293" lon="13.67844"><ele>68.0</ele><time>2026-05-02T14:33:32.516Z</time></trkpt><trkpt lat="42.8503902" lon="13.6781589"><ele>68.0</ele><time>2026-05-02T14:33:33.516Z</time></trkpt><trkpt lat="42.8503584" lon="13.6778781"><ele>68.0</ele><time>2026-05-02T14:33:34.516Z</time></trkpt><trkpt lat="42.8503195" lon="13.6775914"><ele>68.33333333333334</ele><time>2026-05-02T14:33:35.516Z</time></trkpt><trkpt lat="42.8502732" lon="13.6773081"><ele>68.66666666666667</ele><time>2026-05-02T14:33:36.516Z</time></trkpt><trkpt lat="42.8502261" lon="13.6770324"><ele>69.0</ele><time>2026-05-02T14:33:37.516Z</time></trkpt><trkpt lat="42.8501875" lon="13.6767465"><ele>69.33333333333333</ele><time>2026-05-02T14:33:38.516Z</time></trkpt><trkpt lat="42.8501606" lon="13.6764532"><ele>69.66666666666666</ele><time>2026-05-02T14:33:39.515Z</time></trkpt><trkpt lat="42.8501282" lon="13.6761599"><ele>70.0</ele><time>2026-05-02T14:33:40.516Z</time></trkpt><trkpt lat="42.8501028" lon="13.675861"><ele>69.33333333333333</ele><time>2026-05-02T14:33:41.516Z</time></trkpt><trkpt lat="42.8500716" lon="13.6755644"><ele>68.66666666666667</ele><time>2026-05-02T14:33:42.516Z</time></trkpt><trkpt lat="42.8500326" lon="13.6752716"><ele>68.0</ele><time>2026-05-02T14:33:43.516Z</time></trkpt><trkpt lat="42.8499884" lon="13.6749884"><ele>68.0</ele><time>2026-05-02T14:33:44.516Z</time></trkpt><trkpt lat="42.8499484" lon="13.6746999"><ele>68.0</ele><time>2026-05-02T14:33:45.516Z</time></trkpt><trkpt lat="42.8499109" lon="13.6744066"><ele>68.0</ele><time>2026-05-02T14:33:46.516Z</time></trkpt><trkpt lat="42.8498769" lon="13.6741113"><ele>68.0</ele><time>2026-05-02T14:33:47.516Z</time></trkpt><trkpt lat="42.8498399" lon="13.6738137"><ele>68.0</ele><time>2026-05-02T14:33:48.515Z</time></trkpt><trkpt lat="42.8498029" lon="13.673517"><ele>68.0</ele><time>2026-05-02T14:33:49.516Z</time></trkpt><trkpt lat="42.8497678" lon="13.6732211"><ele>68.33333333333334</ele><time>2026-05-02T14:33:50.516Z</time></trkpt><trkpt lat="42.8497314" lon="13.6729329"><ele>68.66666666666667</ele><time>2026-05-02T14:33:51.509Z</time></trkpt><trkpt lat="42.8496901" lon="13.6726587"><ele>69.0</ele><time>2026-05-02T14:33:52.516Z</time></trkpt><trkpt lat="42.8496771" lon="13.6723619"><ele>70.0</ele><time>2026-05-02T14:33:53.516Z</time></trkpt><trkpt lat="42.8496608" lon="13.672069"><ele>71.0</ele><time>2026-05-02T14:33:54.516Z</time></trkpt><trkpt lat="42.8496549" lon="13.6717688"><ele>72.0</ele><time>2026-05-02T14:33:55.516Z</time></trkpt><trkpt lat="42.8496636" lon="13.671479"><ele>72.33333333333333</ele><time>2026-05-02T14:33:56.516Z</time></trkpt><trkpt lat="42.8496884" lon="13.6712019"><ele>72.66666666666666</ele><time>2026-05-02T14:33:57.516Z</time></trkpt><trkpt lat="42.8497067" lon="13.6709328"><ele>73.0</ele><time>2026-05-02T14:33:58.516Z</time></trkpt><trkpt lat="42.8497248" lon="13.6706703"><ele>73.66666666666666</ele><time>2026-05-02T14:33:59.515Z</time></trkpt><trkpt lat="42.8497354" lon="13.6704221"><ele>74.33333333333333</ele><time>2026-05-02T14:34:00.515Z</time></trkpt><trkpt lat="42.8497431" lon="13.6701785"><ele>75.0</ele><time>2026-05-02T14:34:01.516Z</time></trkpt><trkpt lat="42.8497305" lon="13.6699347"><ele>75.33333333333333</ele><time>2026-05-02T14:34:02.516Z</time></trkpt><trkpt lat="42.8496927" lon="13.6697084"><ele>75.66666666666666</ele><time>2026-05-02T14:34:03.516Z</time></trkpt><trkpt lat="42.8496319" lon="13.6694839"><ele>76.0</ele><time>2026-05-02T14:34:04.516Z</time></trkpt><trkpt lat="42.8495604" lon="13.6692591"><ele>75.33333333333333</ele><time>2026-05-02T14:34:05.516Z</time></trkpt><trkpt lat="42.8494529" lon="13.669064"><ele>74.66666666666667</ele><time>2026-05-02T14:34:06.516Z</time></trkpt><trkpt lat="42.849337" lon="13.6688599"><ele>74.0</ele><time>2026-05-02T14:34:07.516Z</time></trkpt><trkpt lat="42.8492105" lon="13.6686433"><ele>73.66666666666667</ele><time>2026-05-02T14:34:08.517Z</time></trkpt><trkpt lat="42.8490906" lon="13.6684174"><ele>73.33333333333333</ele><time>2026-05-02T14:34:09.515Z</time></trkpt><trkpt lat="42.8489719" lon="13.6681877"><ele>73.0</ele><time>2026-05-02T14:34:10.517Z</time></trkpt><trkpt lat="42.8488564" lon="13.6679588"><ele>73.0</ele><time>2026-05-02T14:34:11.517Z</time></trkpt><trkpt lat="42.8487393" lon="13.6677272"><ele>73.0</ele><time>2026-05-02T14:34:12.517Z</time></trkpt><trkpt lat="42.8486152" lon="13.6674993"><ele>73.0</ele><time>2026-05-02T14:34:13.517Z</time></trkpt><trkpt lat="42.8484981" lon="13.6672634"><ele>73.33333333333333</ele><time>2026-05-02T14:34:14.516Z</time></trkpt><trkpt lat="42.8483805" lon="13.6670312"><ele>73.66666666666667</ele><time>2026-05-02T14:34:15.517Z</time></trkpt><trkpt lat="42.8482717" lon="13.6667996"><ele>74.0</ele><time>2026-05-02T14:34:16.516Z</time></trkpt><trkpt lat="42.8481604" lon="13.6665779"><ele>73.66666666666667</ele><time>2026-05-02T14:34:17.516Z</time></trkpt><trkpt lat="42.8480466" lon="13.666355"><ele>73.33333333333333</ele><time>2026-05-02T14:34:18.517Z</time></trkpt><trkpt lat="42.8479355" lon="13.6661403"><ele>73.0</ele><time>2026-05-02T14:34:19.516Z</time></trkpt><trkpt lat="42.8478262" lon="13.6659322"><ele>73.0</ele><time>2026-05-02T14:34:20.517Z</time></trkpt><trkpt lat="42.8477201" lon="13.6657212"><ele>73.0</ele><time>2026-05-02T14:34:21.517Z</time></trkpt><trkpt lat="42.8476099" lon="13.6655068"><ele>73.0</ele><time>2026-05-02T14:34:22.517Z</time></trkpt><trkpt lat="42.8474994" lon="13.6652929"><ele>73.66666666666666</ele><time>2026-05-02T14:34:23.517Z</time></trkpt><trkpt lat="42.8473904" lon="13.6650772"><ele>74.33333333333333</ele><time>2026-05-02T14:34:24.516Z</time></trkpt><trkpt lat="42.8472903" lon="13.6648551"><ele>75.0</ele><time>2026-05-02T14:34:25.517Z</time></trkpt><trkpt lat="42.8472002" lon="13.6646277"><ele>74.66666666666667</ele><time>2026-05-02T14:34:26.517Z</time></trkpt><trkpt lat="42.8471217" lon="13.6643869"><ele>74.33333333333334</ele><time>2026-05-02T14:34:27.517Z</time></trkpt><trkpt lat="42.8470548" lon="13.6641325"><ele>74.0</ele><time>2026-05-02T14:34:28.517Z</time></trkpt><trkpt lat="42.8469978" lon="13.6638731"><ele>74.0</ele><time>2026-05-02T14:34:29.517Z</time></trkpt><trkpt lat="42.8469558" lon="13.6636152"><ele>74.0</ele><time>2026-05-02T14:34:30.517Z</time></trkpt><trkpt lat="42.8469111" lon="13.6633589"><ele>74.0</ele><time>2026-05-02T14:34:31.517Z</time></trkpt><trkpt lat="42.8468667" lon="13.6631083"><ele>73.66666666666667</ele><time>2026-05-02T14:34:32.517Z</time></trkpt><trkpt lat="42.8468363" lon="13.6628442"><ele>73.33333333333333</ele><time>2026-05-02T14:34:33.517Z</time></trkpt><trkpt lat="42.84682" lon="13.6625774"><ele>73.0</ele><time>2026-05-02T14:34:34.517Z</time></trkpt><trkpt lat="42.8468118" lon="13.662324"><ele>74.0</ele><time>2026-05-02T14:34:35.516Z</time></trkpt><trkpt lat="42.8468071" lon="13.6620594"><ele>75.0</ele><time>2026-05-02T14:34:36.517Z</time></trkpt><trkpt lat="42.8467905" lon="13.6617958"><ele>76.0</ele><time>2026-05-02T14:34:37.517Z</time></trkpt><trkpt lat="42.8467731" lon="13.661525"><ele>76.33333333333333</ele><time>2026-05-02T14:34:38.517Z</time></trkpt><trkpt lat="42.8467636" lon="13.6612468"><ele>76.66666666666667</ele><time>2026-05-02T14:34:39.517Z</time></trkpt><trkpt lat="42.8467496" lon="13.6609666"><ele>77.0</ele><time>2026-05-02T14:34:40.516Z</time></trkpt><trkpt lat="42.8467341" lon="13.6606877"><ele>76.66666666666667</ele><time>2026-05-02T14:34:41.517Z</time></trkpt><trkpt lat="42.8467207" lon="13.6604155"><ele>76.33333333333333</ele><time>2026-05-02T14:34:42.517Z</time></trkpt><trkpt lat="42.8467069" lon="13.66014"><ele>76.0</ele><time>2026-05-02T14:34:43.517Z</time></trkpt><trkpt lat="42.8466923" lon="13.6598726"><ele>76.0</ele><time>2026-05-02T14:34:44.517Z</time></trkpt><trkpt lat="42.8466765" lon="13.6596138"><ele>76.0</ele><time>2026-05-02T14:34:45.517Z</time></trkpt><trkpt lat="42.8466616" lon="13.6593472"><ele>76.0</ele><time>2026-05-02T14:34:46.517Z</time></trkpt><trkpt lat="42.846641" lon="13.6590842"><ele>76.0</ele><time>2026-05-02T14:34:47.517Z</time></trkpt><trkpt lat="42.8466229" lon="13.6588242"><ele>76.0</ele><time>2026-05-02T14:34:48.517Z</time></trkpt><trkpt lat="42.8466129" lon="13.6585522"><ele>76.0</ele><time>2026-05-02T14:34:49.517Z</time></trkpt><trkpt lat="42.8466014" lon="13.658281"><ele>76.0</ele><time>2026-05-02T14:34:50.517Z</time></trkpt><trkpt lat="42.846592" lon="13.6580124"><ele>76.0</ele><time>2026-05-02T14:34:51.516Z</time></trkpt><trkpt lat="42.8465791" lon="13.6577514"><ele>76.0</ele><time>2026-05-02T14:34:52.517Z</time></trkpt><trkpt lat="42.8465669" lon="13.6574885"><ele>76.33333333333333</ele><time>2026-05-02T14:34:53.517Z</time></trkpt><trkpt lat="42.8465527" lon="13.6572306"><ele>76.66666666666667</ele><time>2026-05-02T14:34:54.517Z</time></trkpt><trkpt lat="42.8465431" lon="13.6569739"><ele>77.0</ele><time>2026-05-02T14:34:55.517Z</time></trkpt><trkpt lat="42.8465311" lon="13.6567134"><ele>77.0</ele><time>2026-05-02T14:34:56.517Z</time></trkpt><trkpt lat="42.8465187" lon="13.6564516"><ele>77.0</ele><time>2026-05-02T14:34:57.517Z</time></trkpt><trkpt lat="42.846507" lon="13.6561901"><ele>77.0</ele><time>2026-05-02T14:34:58.517Z</time></trkpt><trkpt lat="42.8464965" lon="13.6559222"><ele>77.33333333333334</ele><time>2026-05-02T14:34:59.517Z</time></trkpt><trkpt lat="42.8464869" lon="13.6556582"><ele>77.66666666666667</ele><time>2026-05-02T14:35:00.517Z</time></trkpt><trkpt lat="42.8464733" lon="13.6553925"><ele>78.0</ele><time>2026-05-02T14:35:01.517Z</time></trkpt><trkpt lat="42.8464616" lon="13.6551369"><ele>78.0</ele><time>2026-05-02T14:35:02.517Z</time></trkpt><trkpt lat="42.8464433" lon="13.6548725"><ele>78.0</ele><time>2026-05-02T14:35:03.517Z</time></trkpt><trkpt lat="42.8464128" lon="13.6546205"><ele>78.0</ele><time>2026-05-02T14:35:04.516Z</time></trkpt><trkpt lat="42.8463798" lon="13.6543607"><ele>78.33333333333333</ele><time>2026-05-02T14:35:05.517Z</time></trkpt><trkpt lat="42.846351" lon="13.654102"><ele>78.66666666666666</ele><time>2026-05-02T14:35:06.517Z</time></trkpt><trkpt lat="42.8463289" lon="13.6538371"><ele>79.0</ele><time>2026-05-02T14:35:07.516Z</time></trkpt><trkpt lat="42.8463032" lon="13.6535688"><ele>78.66666666666666</ele><time>2026-05-02T14:35:08.517Z</time></trkpt><trkpt lat="42.8462764" lon="13.6532953"><ele>78.33333333333333</ele><time>2026-05-02T14:35:09.517Z</time></trkpt><trkpt lat="42.8462484" lon="13.6530196"><ele>78.0</ele><time>2026-05-02T14:35:10.517Z</time></trkpt><trkpt lat="42.8462192" lon="13.6527417"><ele>78.0</ele><time>2026-05-02T14:35:11.517Z</time></trkpt><trkpt lat="42.8461941" lon="13.6524663"><ele>78.0</ele><time>2026-05-02T14:35:12.517Z</time></trkpt><trkpt lat="42.846164" lon="13.6521863"><ele>78.0</ele><time>2026-05-02T14:35:13.517Z</time></trkpt><trkpt lat="42.8461328" lon="13.6519124"><ele>77.66666666666667</ele><time>2026-05-02T14:35:14.518Z</time></trkpt><trkpt lat="42.8461024" lon="13.6516462"><ele>77.33333333333334</ele><time>2026-05-02T14:35:15.518Z</time></trkpt><trkpt lat="42.8460748" lon="13.6513816"><ele>77.0</ele><time>2026-05-02T14:35:16.518Z</time></trkpt><trkpt lat="42.8460449" lon="13.6511131"><ele>78.33333333333334</ele><time>2026-05-02T14:35:17.518Z</time></trkpt><trkpt lat="42.846012" lon="13.6508407"><ele>79.66666666666667</ele><time>2026-05-02T14:35:18.518Z</time></trkpt><trkpt lat="42.8459802" lon="13.6505698"><ele>81.0</ele><time>2026-05-02T14:35:19.518Z</time></trkpt><trkpt lat="42.8459494" lon="13.6502898"><ele>83.33333333333333</ele><time>2026-05-02T14:35:20.518Z</time></trkpt><trkpt lat="42.845921" lon="13.6500183"><ele>85.66666666666666</ele><time>2026-05-02T14:35:21.518Z</time></trkpt><trkpt lat="42.8458944" lon="13.6497402"><ele>88.0</ele><time>2026-05-02T14:35:22.518Z</time></trkpt><trkpt lat="42.8458661" lon="13.6494619"><ele>88.33333333333333</ele><time>2026-05-02T14:35:23.517Z</time></trkpt><trkpt lat="42.8458381" lon="13.6491867"><ele>88.66666666666667</ele><time>2026-05-02T14:35:24.518Z</time></trkpt><trkpt lat="42.8458101" lon="13.6488971"><ele>89.0</ele><time>2026-05-02T14:35:25.517Z</time></trkpt><trkpt lat="42.8457822" lon="13.6486115"><ele>89.0</ele><time>2026-05-02T14:35:26.518Z</time></trkpt><trkpt lat="42.8457477" lon="13.6483212"><ele>89.0</ele><time>2026-05-02T14:35:27.518Z</time></trkpt><trkpt lat="42.845716" lon="13.6480252"><ele>89.0</ele><time>2026-05-02T14:35:28.518Z</time></trkpt><trkpt lat="42.845683" lon="13.6477286"><ele>89.66666666666667</ele><time>2026-05-02T14:35:29.518Z</time></trkpt><trkpt lat="42.8456506" lon="13.6474314"><ele>90.33333333333333</ele><time>2026-05-02T14:35:30.518Z</time></trkpt><trkpt lat="42.8456182" lon="13.6471243"><ele>91.0</ele><time>2026-05-02T14:35:31.518Z</time></trkpt><trkpt lat="42.8455864" lon="13.6468262"><ele>91.0</ele><time>2026-05-02T14:35:32.518Z</time></trkpt><trkpt lat="42.8455585" lon="13.6465339"><ele>91.0</ele><time>2026-05-02T14:35:33.518Z</time></trkpt><trkpt lat="42.8455237" lon="13.646245"><ele>91.0</ele><time>2026-05-02T14:35:34.518Z</time></trkpt><trkpt lat="42.8454873" lon="13.6459513"><ele>91.0</ele><time>2026-05-02T14:35:35.518Z</time></trkpt><trkpt lat="42.8454545" lon="13.6456477"><ele>91.0</ele><time>2026-05-02T14:35:36.518Z</time></trkpt><trkpt lat="42.8454239" lon="13.6453491"><ele>91.0</ele><time>2026-05-02T14:35:37.517Z</time></trkpt><trkpt lat="42.8454" lon="13.6450416"><ele>91.66666666666666</ele><time>2026-05-02T14:35:38.517Z</time></trkpt><trkpt lat="42.8453594" lon="13.6447476"><ele>92.33333333333333</ele><time>2026-05-02T14:35:39.518Z</time></trkpt><trkpt lat="42.8453291" lon="13.6444439"><ele>93.0</ele><time>2026-05-02T14:35:40.518Z</time></trkpt><trkpt lat="42.8452891" lon="13.6441486"><ele>94.0</ele><time>2026-05-02T14:35:41.517Z</time></trkpt><trkpt lat="42.8452548" lon="13.6438586"><ele>95.0</ele><time>2026-05-02T14:35:42.518Z</time></trkpt><trkpt lat="42.8452294" lon="13.6435686"><ele>96.0</ele><time>2026-05-02T14:35:43.517Z</time></trkpt><trkpt lat="42.8451984" lon="13.6432791"><ele>97.66666666666666</ele><time>2026-05-02T14:35:44.518Z</time></trkpt><trkpt lat="42.8451685" lon="13.6430026"><ele>99.33333333333333</ele><time>2026-05-02T14:35:45.517Z</time></trkpt><trkpt lat="42.8451504" lon="13.6427303"><ele>101.0</ele><time>2026-05-02T14:35:46.517Z</time></trkpt><trkpt lat="42.8451377" lon="13.6424735"><ele>102.66666666666666</ele><time>2026-05-02T14:35:47.518Z</time></trkpt><trkpt lat="42.8451207" lon="13.6422174"><ele>104.33333333333334</ele><time>2026-05-02T14:35:48.518Z</time></trkpt><trkpt lat="42.8450913" lon="13.6419623"><ele>106.0</ele><time>2026-05-02T14:35:49.518Z</time></trkpt><trkpt lat="42.8450591" lon="13.6417132"><ele>106.0</ele><time>2026-05-02T14:35:50.518Z</time></trkpt><trkpt lat="42.8450227" lon="13.6414674"><ele>106.0</ele><time>2026-05-02T14:35:51.518Z</time></trkpt><trkpt lat="42.844989" lon="13.6412097"><ele>106.0</ele><time>2026-05-02T14:35:52.518Z</time></trkpt><trkpt lat="42.8449632" lon="13.6409445"><ele>105.66666666666667</ele><time>2026-05-02T14:35:53.518Z</time></trkpt><trkpt lat="42.8449425" lon="13.6406811"><ele>105.33333333333334</ele><time>2026-05-02T14:35:54.518Z</time></trkpt><trkpt lat="42.8449371" lon="13.6404126"><ele>105.0</ele><time>2026-05-02T14:35:55.518Z</time></trkpt><trkpt lat="42.8449288" lon="13.6401445"><ele>105.0</ele><time>2026-05-02T14:35:56.518Z</time></trkpt><trkpt lat="42.8449419" lon="13.6398665"><ele>105.0</ele><time>2026-05-02T14:35:57.518Z</time></trkpt><trkpt lat="42.844959" lon="13.6395823"><ele>105.0</ele><time>2026-05-02T14:35:58.518Z</time></trkpt><trkpt lat="42.8449776" lon="13.6392946"><ele>104.66666666666666</ele><time>2026-05-02T14:35:59.517Z</time></trkpt><trkpt lat="42.8449944" lon="13.6390172"><ele>104.33333333333333</ele><time>2026-05-02T14:36:00.518Z</time></trkpt><trkpt lat="42.84501" lon="13.6387445"><ele>104.0</ele><time>2026-05-02T14:36:01.518Z</time></trkpt><trkpt lat="42.8450175" lon="13.6384633"><ele>104.0</ele><time>2026-05-02T14:36:02.518Z</time></trkpt><trkpt lat="42.8450314" lon="13.6381894"><ele>104.0</ele><time>2026-05-02T14:36:03.518Z</time></trkpt><trkpt lat="42.8450476" lon="13.6379121"><ele>104.0</ele><time>2026-05-02T14:36:04.517Z</time></trkpt><trkpt lat="42.8450615" lon="13.6376406"><ele>104.0</ele><time>2026-05-02T14:36:05.517Z</time></trkpt><trkpt lat="42.8450827" lon="13.6373687"><ele>104.0</ele><time>2026-05-02T14:36:06.518Z</time></trkpt><trkpt lat="42.8450946" lon="13.6370952"><ele>104.0</ele><time>2026-05-02T14:36:07.519Z</time></trkpt><trkpt lat="42.8451055" lon="13.63682"><ele>104.0</ele><time>2026-05-02T14:36:08.518Z</time></trkpt><trkpt lat="42.8451185" lon="13.6365385"><ele>104.0</ele><time>2026-05-02T14:36:09.518Z</time></trkpt><trkpt lat="42.8451318" lon="13.6362478"><ele>104.0</ele><time>2026-05-02T14:36:10.517Z</time></trkpt><trkpt lat="42.8451502" lon="13.6359532"><ele>103.66666666666666</ele><time>2026-05-02T14:36:11.518Z</time></trkpt><trkpt lat="42.8451705" lon="13.6356596"><ele>103.33333333333334</ele><time>2026-05-02T14:36:12.518Z</time></trkpt><trkpt lat="42.8451921" lon="13.6353603"><ele>103.0</ele><time>2026-05-02T14:36:13.517Z</time></trkpt><trkpt lat="42.8452024" lon="13.6350637"><ele>102.66666666666667</ele><time>2026-05-02T14:36:14.518Z</time></trkpt><trkpt lat="42.8452018" lon="13.6347577"><ele>102.33333333333334</ele><time>2026-05-02T14:36:15.518Z</time></trkpt><trkpt lat="42.8451903" lon="13.6344602"><ele>102.0</ele><time>2026-05-02T14:36:16.519Z</time></trkpt><trkpt lat="42.8451635" lon="13.6341566"><ele>103.0</ele><time>2026-05-02T14:36:17.518Z</time></trkpt><trkpt lat="42.8451288" lon="13.6338545"><ele>104.0</ele><time>2026-05-02T14:36:18.518Z</time></trkpt><trkpt lat="42.8450911" lon="13.6335492"><ele>104.0</ele><time>2026-05-02T14:36:19.519Z</time></trkpt><trkpt lat="42.8450395" lon="13.633242"><ele>104.0</ele><time>2026-05-02T14:36:20.518Z</time></trkpt><trkpt lat="42.8449843" lon="13.632936"><ele>105.0</ele><time>2026-05-02T14:36:21.519Z</time></trkpt><trkpt lat="42.8449287" lon="13.6326399"><ele>106.0</ele><time>2026-05-02T14:36:22.519Z</time></trkpt><trkpt lat="42.8448714" lon="13.6323387"><ele>106.0</ele><time>2026-05-02T14:36:23.519Z</time></trkpt><trkpt lat="42.844815" lon="13.6320493"><ele>106.0</ele><time>2026-05-02T14:36:24.519Z</time></trkpt><trkpt lat="42.8447617" lon="13.6317579"><ele>106.0</ele><time>2026-05-02T14:36:25.518Z</time></trkpt><trkpt lat="42.8447134" lon="13.6314708"><ele>106.33333333333334</ele><time>2026-05-02T14:36:26.519Z</time></trkpt><trkpt lat="42.8446669" lon="13.6311835"><ele>106.66666666666666</ele><time>2026-05-02T14:36:27.518Z</time></trkpt><trkpt lat="42.8446192" lon="13.6308947"><ele>107.0</ele><time>2026-05-02T14:36:28.519Z</time></trkpt><trkpt lat="42.8445725" lon="13.6306128"><ele>107.33333333333333</ele><time>2026-05-02T14:36:29.519Z</time></trkpt><trkpt lat="42.8445224" lon="13.6303424"><ele>107.66666666666666</ele><time>2026-05-02T14:36:30.518Z</time></trkpt><trkpt lat="42.844475" lon="13.6300659"><ele>108.0</ele><time>2026-05-02T14:36:31.519Z</time></trkpt><trkpt lat="42.8444246" lon="13.6297878"><ele>108.0</ele><time>2026-05-02T14:36:32.519Z</time></trkpt><trkpt lat="42.8443778" lon="13.6295129"><ele>108.0</ele><time>2026-05-02T14:36:33.518Z</time></trkpt><trkpt lat="42.8443329" lon="13.6292374"><ele>108.0</ele><time>2026-05-02T14:36:34.518Z</time></trkpt><trkpt lat="42.8442906" lon="13.6289543"><ele>108.33333333333334</ele><time>2026-05-02T14:36:35.519Z</time></trkpt><trkpt lat="42.8442503" lon="13.6286737"><ele>108.66666666666667</ele><time>2026-05-02T14:36:36.519Z</time></trkpt><trkpt lat="42.8442202" lon="13.6283876"><ele>109.0</ele><time>2026-05-02T14:36:37.519Z</time></trkpt><trkpt lat="42.8441924" lon="13.6280941"><ele>109.66666666666667</ele><time>2026-05-02T14:36:38.519Z</time></trkpt><trkpt lat="42.8441692" lon="13.6277984"><ele>110.33333333333334</ele><time>2026-05-02T14:36:39.519Z</time></trkpt><trkpt lat="42.8441474" lon="13.6275002"><ele>111.0</ele><time>2026-05-02T14:36:40.519Z</time></trkpt><trkpt lat="42.8441295" lon="13.6272003"><ele>110.33333333333334</ele><time>2026-05-02T14:36:41.519Z</time></trkpt><trkpt lat="42.8441245" lon="13.6269006"><ele>109.66666666666667</ele><time>2026-05-02T14:36:42.519Z</time></trkpt><trkpt lat="42.8441173" lon="13.6266145"><ele>109.0</ele><time>2026-05-02T14:36:43.519Z</time></trkpt><trkpt lat="42.8441038" lon="13.6263474"><ele>109.0</ele><time>2026-05-02T14:36:44.518Z</time></trkpt><trkpt lat="42.8440842" lon="13.6260973"><ele>109.0</ele><time>2026-05-02T14:36:45.519Z</time></trkpt><trkpt lat="42.8440546" lon="13.6258863"><ele>109.0</ele><time>2026-05-02T14:36:46.518Z</time></trkpt><trkpt lat="42.8440393" lon="13.6256706"><ele>109.0</ele><time>2026-05-02T14:36:47.519Z</time></trkpt><trkpt lat="42.8440308" lon="13.6254577"><ele>109.0</ele><time>2026-05-02T14:36:48.519Z</time></trkpt><trkpt lat="42.8440342" lon="13.6252629"><ele>109.0</ele><time>2026-05-02T14:36:49.519Z</time></trkpt><trkpt lat="42.8440539" lon="13.6250828"><ele>109.0</ele><time>2026-05-02T14:36:50.519Z</time></trkpt><trkpt lat="42.8440847" lon="13.6249399"><ele>109.66666666666667</ele><time>2026-05-02T14:36:51.519Z</time></trkpt><trkpt lat="42.8441378" lon="13.6248346"><ele>110.33333333333334</ele><time>2026-05-02T14:36:52.519Z</time></trkpt><trkpt lat="42.8441961" lon="13.6247581"><ele>111.0</ele><time>2026-05-02T14:36:53.519Z</time></trkpt><trkpt lat="42.8442487" lon="13.624706"><ele>111.66666666666666</ele><time>2026-05-02T14:36:55.519Z</time></trkpt><trkpt lat="42.8443104" lon="13.624595"><ele>112.33333333333333</ele><time>2026-05-02T14:36:59.519Z</time></trkpt><trkpt lat="42.8443443" lon="13.6245126"><ele>113.0</ele><time>2026-05-02T14:37:00.519Z</time></trkpt><trkpt lat="42.8443604" lon="13.6244157"><ele>113.16666666666666</ele><time>2026-05-02T14:37:01.519Z</time></trkpt><trkpt lat="42.8443531" lon="13.6243093"><ele>113.33333333333333</ele><time>2026-05-02T14:37:02.519Z</time></trkpt><trkpt lat="42.8442992" lon="13.624206"><ele>113.5</ele><time>2026-05-02T14:37:03.519Z</time></trkpt><trkpt lat="42.8442372" lon="13.6241207"><ele>113.66666666666666</ele><time>2026-05-02T14:37:04.519Z</time></trkpt><trkpt lat="42.8441555" lon="13.62406"><ele>113.83333333333333</ele><time>2026-05-02T14:37:05.519Z</time></trkpt><trkpt lat="42.8440826" lon="13.623999"><ele>114.0</ele><time>2026-05-02T14:37:06.519Z</time></trkpt><trkpt lat="42.8440452" lon="13.6239066"><ele>114.0</ele><time>2026-05-02T14:37:07.519Z</time></trkpt><trkpt lat="42.8440247" lon="13.6238011"><ele>114.0</ele><time>2026-05-02T14:37:08.519Z</time></trkpt><trkpt lat="42.8440315" lon="13.6236773"><ele>114.0</ele><time>2026-05-02T14:37:09.519Z</time></trkpt><trkpt lat="42.8440605" lon="13.6235334"><ele>114.0</ele><time>2026-05-02T14:37:10.519Z</time></trkpt><trkpt lat="42.8440971" lon="13.6233805"><ele>114.0</ele><time>2026-05-02T14:37:11.519Z</time></trkpt><trkpt lat="42.8441356" lon="13.6232039"><ele>114.5</ele><time>2026-05-02T14:37:12.519Z</time></trkpt><trkpt lat="42.8441571" lon="13.6230219"><ele>115.0</ele><time>2026-05-02T14:37:13.519Z</time></trkpt><trkpt lat="42.8441778" lon="13.6228332"><ele>115.5</ele><time>2026-05-02T14:37:14.519Z</time></trkpt><trkpt lat="42.8441977" lon="13.622633"><ele>116.0</ele><time>2026-05-02T14:37:15.519Z</time></trkpt><trkpt lat="42.8442189" lon="13.6224288"><ele>116.0</ele><time>2026-05-02T14:37:16.519Z</time></trkpt><trkpt lat="42.8442425" lon="13.6222228"><ele>116.0</ele><time>2026-05-02T14:37:17.519Z</time></trkpt><trkpt lat="42.8442755" lon="13.6219963"><ele>116.0</ele><time>2026-05-02T14:37:18.519Z</time></trkpt><trkpt lat="42.844299" lon="13.6217934"><ele>115.66666666666666</ele><time>2026-05-02T14:37:19.519Z</time></trkpt><trkpt lat="42.8443299" lon="13.6215766"><ele>115.33333333333334</ele><time>2026-05-02T14:37:20.519Z</time></trkpt><trkpt lat="42.844365" lon="13.6213576"><ele>115.0</ele><time>2026-05-02T14:37:21.519Z</time></trkpt><trkpt lat="42.8444016" lon="13.6211516"><ele>116.0</ele><time>2026-05-02T14:37:22.519Z</time></trkpt><trkpt lat="42.8444445" lon="13.6209393"><ele>117.0</ele><time>2026-05-02T14:37:23.52Z</time></trkpt><trkpt lat="42.8444901" lon="13.6207278"><ele>118.0</ele><time>2026-05-02T14:37:24.52Z</time></trkpt><trkpt lat="42.8445371" lon="13.6205173"><ele>117.66666666666667</ele><time>2026-05-02T14:37:25.52Z</time></trkpt><trkpt lat="42.8445852" lon="13.6203137"><ele>117.33333333333334</ele><time>2026-05-02T14:37:26.52Z</time></trkpt><trkpt lat="42.8446344" lon="13.6201177"><ele>117.0</ele><time>2026-05-02T14:37:27.52Z</time></trkpt><trkpt lat="42.8446869" lon="13.6199346"><ele>117.0</ele><time>2026-05-02T14:37:28.52Z</time></trkpt><trkpt lat="42.8447408" lon="13.6197644"><ele>117.0</ele><time>2026-05-02T14:37:29.519Z</time></trkpt><trkpt lat="42.8447982" lon="13.6196244"><ele>117.0</ele><time>2026-05-02T14:37:30.52Z</time></trkpt><trkpt lat="42.8448617" lon="13.6195118"><ele>117.0</ele><time>2026-05-02T14:37:31.52Z</time></trkpt><trkpt lat="42.8449242" lon="13.6194113"><ele>116.5</ele><time>2026-05-02T14:37:32.52Z</time></trkpt><trkpt lat="42.8449757" lon="13.6193254"><ele>116.0</ele><time>2026-05-02T14:37:33.52Z</time></trkpt><trkpt lat="42.8450024" lon="13.6192415"><ele>115.5</ele><time>2026-05-02T14:37:34.52Z</time></trkpt><trkpt lat="42.8450084" lon="13.6191266"><ele>115.0</ele><time>2026-05-02T14:37:35.519Z</time></trkpt><trkpt lat="42.8450073" lon="13.6189934"><ele>114.5</ele><time>2026-05-02T14:37:36.52Z</time></trkpt><trkpt lat="42.8450244" lon="13.6188398"><ele>114.0</ele><time>2026-05-02T14:37:37.519Z</time></trkpt><trkpt lat="42.8450541" lon="13.6186743"><ele>113.66666666666666</ele><time>2026-05-02T14:37:38.52Z</time></trkpt><trkpt lat="42.8451" lon="13.618494"><ele>113.33333333333333</ele><time>2026-05-02T14:37:39.52Z</time></trkpt><trkpt lat="42.8451711" lon="13.618286"><ele>113.0</ele><time>2026-05-02T14:37:40.52Z</time></trkpt><trkpt lat="42.845251" lon="13.6180677"><ele>113.0</ele><time>2026-05-02T14:37:41.519Z</time></trkpt><trkpt lat="42.8453273" lon="13.6178578"><ele>113.0</ele><time>2026-05-02T14:37:42.52Z</time></trkpt><trkpt lat="42.8453924" lon="13.6176614"><ele>113.0</ele><time>2026-05-02T14:37:43.52Z</time></trkpt><trkpt lat="42.8454476" lon="13.6174688"><ele>112.66666666666666</ele><time>2026-05-02T14:37:44.52Z</time></trkpt><trkpt lat="42.8454889" lon="13.6172609"><ele>112.33333333333334</ele><time>2026-05-02T14:37:45.52Z</time></trkpt><trkpt lat="42.845512" lon="13.617038"><ele>112.0</ele><time>2026-05-02T14:37:46.52Z</time></trkpt><trkpt lat="42.8455113" lon="13.6168053"><ele>113.0</ele><time>2026-05-02T14:37:47.52Z</time></trkpt><trkpt lat="42.8454989" lon="13.6165807"><ele>114.0</ele><time>2026-05-02T14:37:48.52Z</time></trkpt><trkpt lat="42.8455043" lon="13.6163612"><ele>115.0</ele><time>2026-05-02T14:37:49.52Z</time></trkpt><trkpt lat="42.8455326" lon="13.6161364"><ele>115.0</ele><time>2026-05-02T14:37:50.52Z</time></trkpt><trkpt lat="42.8455852" lon="13.6159238"><ele>115.0</ele><time>2026-05-02T14:37:51.52Z</time></trkpt><trkpt lat="42.8456615" lon="13.6157051"><ele>115.0</ele><time>2026-05-02T14:37:52.52Z</time></trkpt><trkpt lat="42.8457565" lon="13.6154824"><ele>115.33333333333334</ele><time>2026-05-02T14:37:53.52Z</time></trkpt><trkpt lat="42.845856" lon="13.6152695"><ele>115.66666666666666</ele><time>2026-05-02T14:37:54.52Z</time></trkpt><trkpt lat="42.8459614" lon="13.6150442"><ele>116.0</ele><time>2026-05-02T14:37:55.52Z</time></trkpt><trkpt lat="42.8460554" lon="13.6148274"><ele>116.33333333333333</ele><time>2026-05-02T14:37:56.52Z</time></trkpt><trkpt lat="42.8461479" lon="13.6146081"><ele>116.66666666666666</ele><time>2026-05-02T14:37:57.52Z</time></trkpt><trkpt lat="42.8462368" lon="13.6143951"><ele>117.0</ele><time>2026-05-02T14:37:58.52Z</time></trkpt><trkpt lat="42.8463184" lon="13.6141824"><ele>117.33333333333334</ele><time>2026-05-02T14:37:59.519Z</time></trkpt><trkpt lat="42.8463928" lon="13.6139716"><ele>117.66666666666667</ele><time>2026-05-02T14:38:00.52Z</time></trkpt><trkpt lat="42.8464673" lon="13.6137606"><ele>118.0</ele><time>2026-05-02T14:38:01.52Z</time></trkpt><trkpt lat="42.8465433" lon="13.6135426"><ele>118.0</ele><time>2026-05-02T14:38:02.52Z</time></trkpt><trkpt lat="42.8466214" lon="13.6133298"><ele>118.0</ele><time>2026-05-02T14:38:03.52Z</time></trkpt><trkpt lat="42.8466975" lon="13.6131166"><ele>118.0</ele><time>2026-05-02T14:38:04.52Z</time></trkpt><trkpt lat="42.8467698" lon="13.6129047"><ele>117.5</ele><time>2026-05-02T14:38:05.52Z</time></trkpt><trkpt lat="42.846842" lon="13.6127089"><ele>117.0</ele><time>2026-05-02T14:38:06.52Z</time></trkpt><trkpt lat="42.8469067" lon="13.6125231"><ele>116.5</ele><time>2026-05-02T14:38:07.519Z</time></trkpt><trkpt lat="42.8469625" lon="13.6123585"><ele>116.0</ele><time>2026-05-02T14:38:08.52Z</time></trkpt><trkpt lat="42.8470027" lon="13.6122232"><ele>116.0</ele><time>2026-05-02T14:38:09.519Z</time></trkpt><trkpt lat="42.8470389" lon="13.6121218"><ele>116.0</ele><time>2026-05-02T14:38:10.52Z</time></trkpt><trkpt lat="42.8470908" lon="13.6120016"><ele>116.0</ele><time>2026-05-02T14:38:12.52Z</time></trkpt><trkpt lat="42.8470497" lon="13.6120971"><ele>116.0</ele><time>2026-05-02T14:38:22.52Z</time></trkpt><trkpt lat="42.8470201" lon="13.6122013"><ele>116.0</ele><time>2026-05-02T14:38:24.52Z</time></trkpt><trkpt lat="42.8469559" lon="13.6123561"><ele>116.0</ele><time>2026-05-02T14:38:26.52Z</time></trkpt><trkpt lat="42.8469202" lon="13.6124606"><ele>116.0</ele><time>2026-05-02T14:38:27.52Z</time></trkpt><trkpt lat="42.8468774" lon="13.6125791"><ele>116.0</ele><time>2026-05-02T14:38:28.521Z</time></trkpt><trkpt lat="42.8468368" lon="13.6127053"><ele>116.0</ele><time>2026-05-02T14:38:29.521Z</time></trkpt><trkpt lat="42.8467965" lon="13.6128332"><ele>116.0</ele><time>2026-05-02T14:38:30.52Z</time></trkpt><trkpt lat="42.8467526" lon="13.612964"><ele>116.4</ele><time>2026-05-02T14:38:31.521Z</time></trkpt><trkpt lat="42.8467099" lon="13.6130957"><ele>116.8</ele><time>2026-05-02T14:38:32.521Z</time></trkpt><trkpt lat="42.8466541" lon="13.6132366"><ele>117.20000000000002</ele><time>2026-05-02T14:38:33.521Z</time></trkpt><trkpt lat="42.8466042" lon="13.6133736"><ele>117.60000000000001</ele><time>2026-05-02T14:38:34.521Z</time></trkpt><trkpt lat="42.846555" lon="13.6135144"><ele>118.0</ele><time>2026-05-02T14:38:35.521Z</time></trkpt><trkpt lat="42.8464969" lon="13.6136561"><ele>118.00000000000001</ele><time>2026-05-02T14:38:36.521Z</time></trkpt><trkpt lat="42.8464478" lon="13.6137901"><ele>118.0</ele><time>2026-05-02T14:38:37.521Z</time></trkpt><trkpt lat="42.8464069" lon="13.6139005"><ele>118.0</ele><time>2026-05-02T14:38:38.521Z</time></trkpt><trkpt lat="42.8463689" lon="13.6140007"><ele>118.0</ele><time>2026-05-02T14:38:39.521Z</time></trkpt><trkpt lat="42.8463339" lon="13.6140903"><ele>118.00000000000001</ele><time>2026-05-02T14:38:40.521Z</time></trkpt><trkpt lat="42.846297" lon="13.6141711"><ele>118.0</ele><time>2026-05-02T14:38:41.521Z</time></trkpt><trkpt lat="42.8462578" lon="13.6142558"><ele>118.0</ele><time>2026-05-02T14:38:42.521Z</time></trkpt><trkpt lat="42.8462204" lon="13.6143347"><ele>118.00000000000001</ele><time>2026-05-02T14:38:43.521Z</time></trkpt><trkpt lat="42.846163" lon="13.61448"><ele>118.00000000000001</ele><time>2026-05-02T14:38:45.521Z</time></trkpt><trkpt lat="42.8461194" lon="13.6146019"><ele>118.0</ele><time>2026-05-02T14:38:47.521Z</time></trkpt><trkpt lat="42.8460623" lon="13.6147234"><ele>118.0</ele><time>2026-05-02T14:38:49.521Z</time></trkpt><trkpt lat="42.8460037" lon="13.6148349"><ele>117.60000000000001</ele><time>2026-05-02T14:38:51.521Z</time></trkpt><trkpt lat="42.8459538" lon="13.614974"><ele>117.20000000000002</ele><time>2026-05-02T14:38:53.521Z</time></trkpt><trkpt lat="42.8459201" lon="13.6150708"><ele>116.8</ele><time>2026-05-02T14:38:54.521Z</time></trkpt><trkpt lat="42.8458796" lon="13.6151881"><ele>116.4</ele><time>2026-05-02T14:38:55.521Z</time></trkpt><trkpt lat="42.8458343" lon="13.6153088"><ele>116.0</ele><time>2026-05-02T14:38:56.521Z</time></trkpt><trkpt lat="42.8457828" lon="13.6154321"><ele>115.75</ele><time>2026-05-02T14:38:57.521Z</time></trkpt><trkpt lat="42.8457262" lon="13.6155689"><ele>115.5</ele><time>2026-05-02T14:38:58.52Z</time></trkpt><trkpt lat="42.8456667" lon="13.6157139"><ele>115.25</ele><time>2026-05-02T14:38:59.52Z</time></trkpt><trkpt lat="42.8456093" lon="13.6158758"><ele>115.0</ele><time>2026-05-02T14:39:00.521Z</time></trkpt><trkpt lat="42.8455556" lon="13.6160443"><ele>115.0</ele><time>2026-05-02T14:39:01.521Z</time></trkpt><trkpt lat="42.8455085" lon="13.616215"><ele>115.0</ele><time>2026-05-02T14:39:02.521Z</time></trkpt><trkpt lat="42.8454684" lon="13.6163817"><ele>115.0</ele><time>2026-05-02T14:39:03.521Z</time></trkpt><trkpt lat="42.8454294" lon="13.6165492"><ele>115.0</ele><time>2026-05-02T14:39:04.521Z</time></trkpt><trkpt lat="42.8454017" lon="13.6167257"><ele>115.0</ele><time>2026-05-02T14:39:05.521Z</time></trkpt><trkpt lat="42.8453956" lon="13.6169053"><ele>115.0</ele><time>2026-05-02T14:39:06.521Z</time></trkpt><trkpt lat="42.8454066" lon="13.617089"><ele>115.0</ele><time>2026-05-02T14:39:07.521Z</time></trkpt><trkpt lat="42.8454198" lon="13.6172721"><ele>115.0</ele><time>2026-05-02T14:39:08.521Z</time></trkpt><trkpt lat="42.8454169" lon="13.6174435"><ele>114.5</ele><time>2026-05-02T14:39:09.521Z</time></trkpt><trkpt lat="42.8453955" lon="13.6176091"><ele>114.0</ele><time>2026-05-02T14:39:10.521Z</time></trkpt><trkpt lat="42.845352" lon="13.6177756"><ele>113.5</ele><time>2026-05-02T14:39:11.521Z</time></trkpt><trkpt lat="42.8452889" lon="13.6179424"><ele>113.0</ele><time>2026-05-02T14:39:12.521Z</time></trkpt><trkpt lat="42.8452232" lon="13.6181211"><ele>113.0</ele><time>2026-05-02T14:39:13.521Z</time></trkpt><trkpt lat="42.8451618" lon="13.6182914"><ele>113.0</ele><time>2026-05-02T14:39:14.521Z</time></trkpt><trkpt lat="42.8451051" lon="13.6184554"><ele>113.0</ele><time>2026-05-02T14:39:15.521Z</time></trkpt><trkpt lat="42.8450556" lon="13.6186095"><ele>113.0</ele><time>2026-05-02T14:39:16.521Z</time></trkpt><trkpt lat="42.8450106" lon="13.6187529"><ele>113.16666666666666</ele><time>2026-05-02T14:39:17.521Z</time></trkpt><trkpt lat="42.8449698" lon="13.6188746"><ele>113.33333333333333</ele><time>2026-05-02T14:39:18.52Z</time></trkpt><trkpt lat="42.8449312" lon="13.618973"><ele>113.5</ele><time>2026-05-02T14:39:19.521Z</time></trkpt><trkpt lat="42.8448778" lon="13.6190601"><ele>113.66666666666666</ele><time>2026-05-02T14:39:20.521Z</time></trkpt><trkpt lat="42.8448144" lon="13.6191175"><ele>113.83333333333333</ele><time>2026-05-02T14:39:21.521Z</time></trkpt><trkpt lat="42.8447317" lon="13.6191565"><ele>114.0</ele><time>2026-05-02T14:39:22.521Z</time></trkpt><trkpt lat="42.8446653" lon="13.6192129"><ele>114.0</ele><time>2026-05-02T14:39:23.52Z</time></trkpt><trkpt lat="42.8446165" lon="13.6192941"><ele>114.0</ele><time>2026-05-02T14:39:24.521Z</time></trkpt><trkpt lat="42.844577" lon="13.6194129"><ele>114.0</ele><time>2026-05-02T14:39:25.522Z</time></trkpt><trkpt lat="42.8445501" lon="13.6195353"><ele>114.0</ele><time>2026-05-02T14:39:26.521Z</time></trkpt><trkpt lat="42.8445378" lon="13.6196457"><ele>114.0</ele><time>2026-05-02T14:39:27.521Z</time></trkpt><trkpt lat="42.8445475" lon="13.6198075"><ele>114.75</ele><time>2026-05-02T14:39:28.521Z</time></trkpt><trkpt lat="42.8445457" lon="13.6199746"><ele>115.5</ele><time>2026-05-02T14:39:29.521Z</time></trkpt><trkpt lat="42.8445272" lon="13.6201453"><ele>116.25</ele><time>2026-05-02T14:39:30.521Z</time></trkpt><trkpt lat="42.8444829" lon="13.6203307"><ele>117.0</ele><time>2026-05-02T14:39:31.521Z</time></trkpt><trkpt lat="42.8444363" lon="13.6205313"><ele>117.33333333333334</ele><time>2026-05-02T14:39:32.522Z</time></trkpt><trkpt lat="42.8443919" lon="13.6207264"><ele>117.66666666666667</ele><time>2026-05-02T14:39:33.522Z</time></trkpt><trkpt lat="42.8443492" lon="13.6209278"><ele>118.0</ele><time>2026-05-02T14:39:34.521Z</time></trkpt><trkpt lat="42.8443109" lon="13.6211337"><ele>117.66666666666667</ele><time>2026-05-02T14:39:35.522Z</time></trkpt><trkpt lat="42.8442744" lon="13.6213396"><ele>117.33333333333334</ele><time>2026-05-02T14:39:36.522Z</time></trkpt><trkpt lat="42.8442367" lon="13.6215507"><ele>117.0</ele><time>2026-05-02T14:39:37.521Z</time></trkpt><trkpt lat="42.8442007" lon="13.6217711"><ele>116.66666666666666</ele><time>2026-05-02T14:39:38.522Z</time></trkpt><trkpt lat="42.844171" lon="13.6219845"><ele>116.33333333333333</ele><time>2026-05-02T14:39:39.522Z</time></trkpt><trkpt lat="42.8441442" lon="13.6221971"><ele>116.0</ele><time>2026-05-02T14:39:40.522Z</time></trkpt><trkpt lat="42.8441217" lon="13.6223893"><ele>116.0</ele><time>2026-05-02T14:39:41.522Z</time></trkpt><trkpt lat="42.8440976" lon="13.6225733"><ele>116.0</ele><time>2026-05-02T14:39:42.521Z</time></trkpt><trkpt lat="42.8440766" lon="13.6227468"><ele>116.0</ele><time>2026-05-02T14:39:43.522Z</time></trkpt><trkpt lat="42.8440581" lon="13.6229183"><ele>116.0</ele><time>2026-05-02T14:39:44.522Z</time></trkpt><trkpt lat="42.8440409" lon="13.6230837"><ele>116.0</ele><time>2026-05-02T14:39:45.521Z</time></trkpt><trkpt lat="42.844023" lon="13.6232368"><ele>116.0</ele><time>2026-05-02T14:39:46.522Z</time></trkpt><trkpt lat="42.8440022" lon="13.6233872"><ele>116.0</ele><time>2026-05-02T14:39:47.522Z</time></trkpt><trkpt lat="42.8439806" lon="13.6235267"><ele>116.0</ele><time>2026-05-02T14:39:48.522Z</time></trkpt><trkpt lat="42.8439633" lon="13.6236562"><ele>116.0</ele><time>2026-05-02T14:39:49.521Z</time></trkpt><trkpt lat="42.8439509" lon="13.6237788"><ele>115.66666666666666</ele><time>2026-05-02T14:39:50.522Z</time></trkpt><trkpt lat="42.8439393" lon="13.623892"><ele>115.33333333333333</ele><time>2026-05-02T14:39:51.521Z</time></trkpt><trkpt lat="42.8439322" lon="13.6240116"><ele>115.0</ele><time>2026-05-02T14:39:52.521Z</time></trkpt><trkpt lat="42.8439298" lon="13.6241335"><ele>114.66666666666666</ele><time>2026-05-02T14:39:53.522Z</time></trkpt><trkpt lat="42.8439284" lon="13.6242619"><ele>114.33333333333333</ele><time>2026-05-02T14:39:54.522Z</time></trkpt><trkpt lat="42.843934" lon="13.6243798"><ele>114.0</ele><time>2026-05-02T14:39:55.522Z</time></trkpt><trkpt lat="42.8439485" lon="13.6244944"><ele>113.80000000000001</ele><time>2026-05-02T14:39:56.522Z</time></trkpt><trkpt lat="42.8439765" lon="13.6245954"><ele>113.60000000000001</ele><time>2026-05-02T14:39:57.521Z</time></trkpt><trkpt lat="42.844024" lon="13.62467"><ele>113.4</ele><time>2026-05-02T14:39:58.521Z</time></trkpt><trkpt lat="42.8440887" lon="13.6247195"><ele>113.2</ele><time>2026-05-02T14:39:59.522Z</time></trkpt><trkpt lat="42.8441931" lon="13.6247542"><ele>113.0</ele><time>2026-05-02T14:40:01.521Z</time></trkpt><trkpt lat="42.8442932" lon="13.6246326"><ele>113.0</ele><time>2026-05-02T14:40:03.521Z</time></trkpt><trkpt lat="42.8443125" lon="13.6245322"><ele>113.00000000000001</ele><time>2026-05-02T14:40:04.522Z</time></trkpt><trkpt lat="42.8443087" lon="13.6244061"><ele>113.00000000000001</ele><time>2026-05-02T14:40:05.522Z</time></trkpt><trkpt lat="42.84427" lon="13.6242667"><ele>113.0</ele><time>2026-05-02T14:40:06.522Z</time></trkpt><trkpt lat="42.8442132" lon="13.6241549"><ele>113.0</ele><time>2026-05-02T14:40:07.522Z</time></trkpt><trkpt lat="42.8441325" lon="13.6240461"><ele>113.2</ele><time>2026-05-02T14:40:08.522Z</time></trkpt><trkpt lat="42.8440699" lon="13.6239517"><ele>113.4</ele><time>2026-05-02T14:40:09.522Z</time></trkpt><trkpt lat="42.8440285" lon="13.6238357"><ele>113.60000000000001</ele><time>2026-05-02T14:40:10.522Z</time></trkpt><trkpt lat="42.8440184" lon="13.6237007"><ele>113.80000000000001</ele><time>2026-05-02T14:40:11.522Z</time></trkpt><trkpt lat="42.8440291" lon="13.6235548"><ele>114.0</ele><time>2026-05-02T14:40:12.522Z</time></trkpt><trkpt lat="42.8440565" lon="13.6233993"><ele>114.5</ele><time>2026-05-02T14:40:13.522Z</time></trkpt><trkpt lat="42.8441008" lon="13.6232265"><ele>115.0</ele><time>2026-05-02T14:40:14.522Z</time></trkpt><trkpt lat="42.8441366" lon="13.6230591"><ele>115.5</ele><time>2026-05-02T14:40:15.522Z</time></trkpt><trkpt lat="42.8441597" lon="13.6228869"><ele>116.0</ele><time>2026-05-02T14:40:16.522Z</time></trkpt><trkpt lat="42.844176" lon="13.6227196"><ele>116.0</ele><time>2026-05-02T14:40:17.522Z</time></trkpt><trkpt lat="42.8441956" lon="13.6225432"><ele>116.0</ele><time>2026-05-02T14:40:18.522Z</time></trkpt><trkpt lat="42.8442179" lon="13.622369"><ele>116.0</ele><time>2026-05-02T14:40:19.522Z</time></trkpt><trkpt lat="42.8442411" lon="13.6221853"><ele>116.0</ele><time>2026-05-02T14:40:20.522Z</time></trkpt><trkpt lat="42.8442676" lon="13.6219872"><ele>116.33333333333333</ele><time>2026-05-02T14:40:21.522Z</time></trkpt><trkpt lat="42.844294" lon="13.6217883"><ele>116.66666666666666</ele><time>2026-05-02T14:40:22.522Z</time></trkpt><trkpt lat="42.8443233" lon="13.6215837"><ele>117.0</ele><time>2026-05-02T14:40:23.522Z</time></trkpt><trkpt lat="42.8443593" lon="13.6213749"><ele>117.33333333333334</ele><time>2026-05-02T14:40:24.522Z</time></trkpt><trkpt lat="42.8444011" lon="13.6211604"><ele>117.66666666666667</ele><time>2026-05-02T14:40:25.522Z</time></trkpt><trkpt lat="42.844442" lon="13.6209518"><ele>118.0</ele><time>2026-05-02T14:40:26.521Z</time></trkpt><trkpt lat="42.8444841" lon="13.6207405"><ele>118.0</ele><time>2026-05-02T14:40:27.523Z</time></trkpt><trkpt lat="42.8445296" lon="13.6205305"><ele>118.0</ele><time>2026-05-02T14:40:28.522Z</time></trkpt><trkpt lat="42.8445793" lon="13.6203329"><ele>118.0</ele><time>2026-05-02T14:40:29.522Z</time></trkpt><trkpt lat="42.8446273" lon="13.6201497"><ele>117.75</ele><time>2026-05-02T14:40:30.521Z</time></trkpt><trkpt lat="42.8446753" lon="13.6199758"><ele>117.5</ele><time>2026-05-02T14:40:31.522Z</time></trkpt><trkpt lat="42.8447226" lon="13.6198154"><ele>117.25</ele><time>2026-05-02T14:40:32.522Z</time></trkpt><trkpt lat="42.8447723" lon="13.6196726"><ele>117.0</ele><time>2026-05-02T14:40:33.523Z</time></trkpt><trkpt lat="42.8448316" lon="13.6195515"><ele>116.5</ele><time>2026-05-02T14:40:34.521Z</time></trkpt><trkpt lat="42.8449045" lon="13.6194599"><ele>116.0</ele><time>2026-05-02T14:40:35.522Z</time></trkpt><trkpt lat="42.844962" lon="13.619375"><ele>115.5</ele><time>2026-05-02T14:40:36.522Z</time></trkpt><trkpt lat="42.8449896" lon="13.6192892"><ele>115.0</ele><time>2026-05-02T14:40:37.523Z</time></trkpt><trkpt lat="42.8449853" lon="13.6191846"><ele>114.5</ele><time>2026-05-02T14:40:38.523Z</time></trkpt><trkpt lat="42.8449493" lon="13.6190809"><ele>114.0</ele><time>2026-05-02T14:40:39.523Z</time></trkpt><trkpt lat="42.844894" lon="13.6190055"><ele>114.0</ele><time>2026-05-02T14:40:40.523Z</time></trkpt><trkpt lat="42.8448323" lon="13.6189586"><ele>114.0</ele><time>2026-05-02T14:40:41.523Z</time></trkpt><trkpt lat="42.84477" lon="13.6189221"><ele>114.0</ele><time>2026-05-02T14:40:42.523Z</time></trkpt><trkpt lat="42.844688" lon="13.6189828"><ele>114.0</ele><time>2026-05-02T14:40:44.522Z</time></trkpt><trkpt lat="42.8446624" lon="13.6190808"><ele>114.0</ele><time>2026-05-02T14:40:45.523Z</time></trkpt><trkpt lat="42.8446451" lon="13.6192032"><ele>114.0</ele><time>2026-05-02T14:40:46.523Z</time></trkpt><trkpt lat="42.844647" lon="13.6193327"><ele>114.75</ele><time>2026-05-02T14:40:47.523Z</time></trkpt><trkpt lat="42.8446658" lon="13.6194936"><ele>115.5</ele><time>2026-05-02T14:40:48.523Z</time></trkpt><trkpt lat="42.8446675" lon="13.6196564"><ele>116.25</ele><time>2026-05-02T14:40:49.523Z</time></trkpt><trkpt lat="42.844651" lon="13.6198198"><ele>117.0</ele><time>2026-05-02T14:40:50.523Z</time></trkpt><trkpt lat="42.8446008" lon="13.6199854"><ele>117.0</ele><time>2026-05-02T14:40:51.523Z</time></trkpt><trkpt lat="42.8445401" lon="13.6201709"><ele>117.0</ele><time>2026-05-02T14:40:52.523Z</time></trkpt><trkpt lat="42.8444789" lon="13.6203799"><ele>117.0</ele><time>2026-05-02T14:40:53.523Z</time></trkpt><trkpt lat="42.8444237" lon="13.620593"><ele>117.0</ele><time>2026-05-02T14:40:54.522Z</time></trkpt><trkpt lat="42.8443773" lon="13.6207964"><ele>117.0</ele><time>2026-05-02T14:40:55.523Z</time></trkpt><trkpt lat="42.8443382" lon="13.6210116"><ele>117.0</ele><time>2026-05-02T14:40:56.523Z</time></trkpt><trkpt lat="42.8442959" lon="13.6212443"><ele>117.0</ele><time>2026-05-02T14:40:57.523Z</time></trkpt><trkpt lat="42.8442562" lon="13.6214753"><ele>117.0</ele><time>2026-05-02T14:40:58.523Z</time></trkpt><trkpt lat="42.8442277" lon="13.6216832"><ele>117.0</ele><time>2026-05-02T14:40:59.523Z</time></trkpt><trkpt lat="42.8441986" lon="13.6218688"><ele>116.75</ele><time>2026-05-02T14:41:00.523Z</time></trkpt><trkpt lat="42.8441761" lon="13.6220376"><ele>116.5</ele><time>2026-05-02T14:41:01.523Z</time></trkpt><trkpt lat="42.8441506" lon="13.6222097"><ele>116.25</ele><time>2026-05-02T14:41:02.523Z</time></trkpt><trkpt lat="42.8441312" lon="13.6223654"><ele>116.0</ele><time>2026-05-02T14:41:03.523Z</time></trkpt><trkpt lat="42.8441139" lon="13.6225097"><ele>116.0</ele><time>2026-05-02T14:41:04.523Z</time></trkpt><trkpt lat="42.8440951" lon="13.6226459"><ele>116.0</ele><time>2026-05-02T14:41:05.523Z</time></trkpt><trkpt lat="42.8440747" lon="13.6227645"><ele>116.0</ele><time>2026-05-02T14:41:06.523Z</time></trkpt><trkpt lat="42.8440459" lon="13.6228553"><ele>116.0</ele><time>2026-05-02T14:41:07.522Z</time></trkpt><trkpt lat="42.8439557" lon="13.6229651"><ele>116.0</ele><time>2026-05-02T14:41:09.523Z</time></trkpt><trkpt lat="42.8438296" lon="13.6229534"><ele>116.00000000000001</ele><time>2026-05-02T14:41:11.523Z</time></trkpt><trkpt lat="42.8437555" lon="13.6229017"><ele>116.0</ele><time>2026-05-02T14:41:12.522Z</time></trkpt><trkpt lat="42.843688" lon="13.6228548"><ele>116.00000000000001</ele><time>2026-05-02T14:41:13.523Z</time></trkpt><trkpt lat="42.8436282" lon="13.622817"><ele>116.00000000000001</ele><time>2026-05-02T14:41:14.523Z</time></trkpt><trkpt lat="42.8435693" lon="13.6227701"><ele>116.0</ele><time>2026-05-02T14:41:15.523Z</time></trkpt><trkpt lat="42.8435153" lon="13.6227035"><ele>116.00000000000001</ele><time>2026-05-02T14:41:16.523Z</time></trkpt><trkpt lat="42.8434689" lon="13.6226104"><ele>116.00000000000001</ele><time>2026-05-02T14:41:17.522Z</time></trkpt><trkpt lat="42.8434364" lon="13.6224923"><ele>116.0</ele><time>2026-05-02T14:41:18.523Z</time></trkpt><trkpt lat="42.8434157" lon="13.6223684"><ele>116.0</ele><time>2026-05-02T14:41:19.523Z</time></trkpt><trkpt lat="42.8434155" lon="13.6222532"><ele>116.0</ele><time>2026-05-02T14:41:20.523Z</time></trkpt><trkpt lat="42.8434324" lon="13.6221355"><ele>116.0</ele><time>2026-05-02T14:41:21.523Z</time></trkpt><trkpt lat="42.8434706" lon="13.6220102"><ele>116.0</ele><time>2026-05-02T14:41:22.523Z</time></trkpt><trkpt lat="42.8435344" lon="13.6218734"><ele>116.25</ele><time>2026-05-02T14:41:23.523Z</time></trkpt><trkpt lat="42.8435946" lon="13.6217078"><ele>116.5</ele><time>2026-05-02T14:41:24.523Z</time></trkpt><trkpt lat="42.8436611" lon="13.6215336"><ele>116.75</ele><time>2026-05-02T14:41:25.523Z</time></trkpt><trkpt lat="42.8437186" lon="13.6213594"><ele>117.0</ele><time>2026-05-02T14:41:26.523Z</time></trkpt><trkpt lat="42.8437711" lon="13.6212035"><ele>117.25</ele><time>2026-05-02T14:41:27.523Z</time></trkpt><trkpt lat="42.8438178" lon="13.6210587"><ele>117.5</ele><time>2026-05-02T14:41:28.523Z</time></trkpt><trkpt lat="42.8438685" lon="13.6209066"><ele>117.75</ele><time>2026-05-02T14:41:29.523Z</time></trkpt><trkpt lat="42.8439215" lon="13.6207324"><ele>118.0</ele><time>2026-05-02T14:41:30.523Z</time></trkpt><trkpt lat="42.8439746" lon="13.6205405"><ele>118.0</ele><time>2026-05-02T14:41:31.523Z</time></trkpt><trkpt lat="42.8440404" lon="13.6203249"><ele>118.0</ele><time>2026-05-02T14:41:32.523Z</time></trkpt><trkpt lat="42.8441052" lon="13.6201131"><ele>118.0</ele><time>2026-05-02T14:41:33.523Z</time></trkpt><trkpt lat="42.8441726" lon="13.6198899"><ele>117.66666666666667</ele><time>2026-05-02T14:41:34.523Z</time></trkpt><trkpt lat="42.8442256" lon="13.6196605"><ele>117.33333333333334</ele><time>2026-05-02T14:41:35.522Z</time></trkpt><trkpt lat="42.8442705" lon="13.6194331"><ele>117.0</ele><time>2026-05-02T14:41:36.524Z</time></trkpt><trkpt lat="42.8443062" lon="13.6192092"><ele>116.0</ele><time>2026-05-02T14:41:37.523Z</time></trkpt><trkpt lat="42.8443408" lon="13.6189817"><ele>115.0</ele><time>2026-05-02T14:41:38.523Z</time></trkpt><trkpt lat="42.8443722" lon="13.6187664"><ele>114.0</ele><time>2026-05-02T14:41:39.523Z</time></trkpt><trkpt lat="42.8444043" lon="13.6185571"><ele>113.25</ele><time>2026-05-02T14:41:40.524Z</time></trkpt><trkpt lat="42.8444382" lon="13.6183626"><ele>112.5</ele><time>2026-05-02T14:41:41.524Z</time></trkpt><trkpt lat="42.8444763" lon="13.6181732"><ele>111.75</ele><time>2026-05-02T14:41:42.523Z</time></trkpt><trkpt lat="42.8445192" lon="13.617998"><ele>111.0</ele><time>2026-05-02T14:41:43.524Z</time></trkpt><trkpt lat="42.8445765" lon="13.6178336"><ele>111.25</ele><time>2026-05-02T14:41:44.524Z</time></trkpt><trkpt lat="42.8446423" lon="13.6176638"><ele>111.5</ele><time>2026-05-02T14:41:45.523Z</time></trkpt><trkpt lat="42.8447056" lon="13.6174928"><ele>111.75</ele><time>2026-05-02T14:41:46.523Z</time></trkpt><trkpt lat="42.8447548" lon="13.6173216"><ele>112.0</ele><time>2026-05-02T14:41:47.524Z</time></trkpt><trkpt lat="42.8447872" lon="13.6171506"><ele>112.0</ele><time>2026-05-02T14:41:48.524Z</time></trkpt><trkpt lat="42.8448054" lon="13.6169869"><ele>112.0</ele><time>2026-05-02T14:41:49.524Z</time></trkpt><trkpt lat="42.8448301" lon="13.6168325"><ele>112.0</ele><time>2026-05-02T14:41:50.524Z</time></trkpt><trkpt lat="42.8448768" lon="13.6166915"><ele>112.0</ele><time>2026-05-02T14:41:51.524Z</time></trkpt><trkpt lat="42.8449346" lon="13.6165482"><ele>113.0</ele><time>2026-05-02T14:41:52.523Z</time></trkpt><trkpt lat="42.84502" lon="13.6163875"><ele>114.0</ele><time>2026-05-02T14:41:53.524Z</time></trkpt><trkpt lat="42.8451103" lon="13.6162154"><ele>115.0</ele><time>2026-05-02T14:41:54.524Z</time></trkpt><trkpt lat="42.8452004" lon="13.6160509"><ele>115.0</ele><time>2026-05-02T14:41:55.524Z</time></trkpt><trkpt lat="42.8452906" lon="13.6158807"><ele>115.0</ele><time>2026-05-02T14:41:56.524Z</time></trkpt><trkpt lat="42.8453779" lon="13.6157077"><ele>115.0</ele><time>2026-05-02T14:41:57.523Z</time></trkpt><trkpt lat="42.8454646" lon="13.6155268"><ele>115.0</ele><time>2026-05-02T14:41:58.524Z</time></trkpt><trkpt lat="42.8455483" lon="13.6153423"><ele>115.0</ele><time>2026-05-02T14:41:59.524Z</time></trkpt><trkpt lat="42.8456298" lon="13.6151569"><ele>115.0</ele><time>2026-05-02T14:42:00.524Z</time></trkpt><trkpt lat="42.8457098" lon="13.6149787"><ele>115.33333333333334</ele><time>2026-05-02T14:42:01.524Z</time></trkpt><trkpt lat="42.8457881" lon="13.6147985"><ele>115.66666666666666</ele><time>2026-05-02T14:42:02.524Z</time></trkpt><trkpt lat="42.8458669" lon="13.6146268"><ele>116.0</ele><time>2026-05-02T14:42:03.524Z</time></trkpt><trkpt lat="42.8459445" lon="13.6144527"><ele>116.66666666666666</ele><time>2026-05-02T14:42:04.524Z</time></trkpt><trkpt lat="42.8460185" lon="13.614275"><ele>117.33333333333334</ele><time>2026-05-02T14:42:05.523Z</time></trkpt><trkpt lat="42.8460912" lon="13.614091"><ele>118.0</ele><time>2026-05-02T14:42:06.524Z</time></trkpt><trkpt lat="42.8461592" lon="13.6139066"><ele>118.0</ele><time>2026-05-02T14:42:07.524Z</time></trkpt><trkpt lat="42.8462141" lon="13.613723"><ele>118.0</ele><time>2026-05-02T14:42:08.524Z</time></trkpt><trkpt lat="42.8462554" lon="13.6135386"><ele>118.0</ele><time>2026-05-02T14:42:09.524Z</time></trkpt><trkpt lat="42.8462834" lon="13.6133548"><ele>118.0</ele><time>2026-05-02T14:42:10.523Z</time></trkpt><trkpt lat="42.8463102" lon="13.613168"><ele>118.0</ele><time>2026-05-02T14:42:11.524Z</time></trkpt><trkpt lat="42.8463393" lon="13.6129779"><ele>118.0</ele><time>2026-05-02T14:42:12.524Z</time></trkpt><trkpt lat="42.846369" lon="13.6127807"><ele>118.0</ele><time>2026-05-02T14:42:13.523Z</time></trkpt><trkpt lat="42.846396" lon="13.6125795"><ele>118.0</ele><time>2026-05-02T14:42:14.524Z</time></trkpt><trkpt lat="42.8464243" lon="13.6123805"><ele>118.0</ele><time>2026-05-02T14:42:15.524Z</time></trkpt><trkpt lat="42.8464537" lon="13.6121805"><ele>118.0</ele><time>2026-05-02T14:42:16.524Z</time></trkpt><trkpt lat="42.8464896" lon="13.6119773"><ele>118.0</ele><time>2026-05-02T14:42:17.524Z</time></trkpt><trkpt lat="42.8465348" lon="13.6117689"><ele>118.0</ele><time>2026-05-02T14:42:18.524Z</time></trkpt><trkpt lat="42.8465769" lon="13.6115728"><ele>118.0</ele><time>2026-05-02T14:42:19.524Z</time></trkpt><trkpt lat="42.8466223" lon="13.6113753"><ele>118.0</ele><time>2026-05-02T14:42:20.524Z</time></trkpt><trkpt lat="42.8466584" lon="13.6111863"><ele>118.0</ele><time>2026-05-02T14:42:21.523Z</time></trkpt><trkpt lat="42.8466875" lon="13.6110006"><ele>118.0</ele><time>2026-05-02T14:42:22.524Z</time></trkpt><trkpt lat="42.8467129" lon="13.6108284"><ele>118.0</ele><time>2026-05-02T14:42:23.524Z</time></trkpt><trkpt lat="42.8467363" lon="13.6106732"><ele>118.0</ele><time>2026-05-02T14:42:24.524Z</time></trkpt><trkpt lat="42.8467576" lon="13.6105243"><ele>118.0</ele><time>2026-05-02T14:42:25.524Z</time></trkpt><trkpt lat="42.8467765" lon="13.6103955"><ele>117.80000000000001</ele><time>2026-05-02T14:42:26.524Z</time></trkpt><trkpt lat="42.846798" lon="13.6102594"><ele>117.60000000000001</ele><time>2026-05-02T14:42:27.524Z</time></trkpt><trkpt lat="42.8468173" lon="13.6101281"><ele>117.39999999999999</ele><time>2026-05-02T14:42:28.524Z</time></trkpt><trkpt lat="42.8468403" lon="13.6099733"><ele>117.19999999999999</ele><time>2026-05-02T14:42:29.524Z</time></trkpt><trkpt lat="42.8468672" lon="13.6098077"><ele>117.0</ele><time>2026-05-02T14:42:30.524Z</time></trkpt><trkpt lat="42.8468983" lon="13.6096199"><ele>117.66666666666666</ele><time>2026-05-02T14:42:31.524Z</time></trkpt><trkpt lat="42.8469382" lon="13.6094192"><ele>118.33333333333333</ele><time>2026-05-02T14:42:32.524Z</time></trkpt><trkpt lat="42.8469782" lon="13.6092229"><ele>119.0</ele><time>2026-05-02T14:42:33.523Z</time></trkpt><trkpt lat="42.8470198" lon="13.6090271"><ele>119.0</ele><time>2026-05-02T14:42:34.524Z</time></trkpt><trkpt lat="42.8470672" lon="13.6088268"><ele>119.0</ele><time>2026-05-02T14:42:35.524Z</time></trkpt><trkpt lat="42.8471215" lon="13.6086249"><ele>119.0</ele><time>2026-05-02T14:42:36.524Z</time></trkpt><trkpt lat="42.8471787" lon="13.6084276"><ele>119.25</ele><time>2026-05-02T14:42:37.524Z</time></trkpt><trkpt lat="42.8472353" lon="13.6082337"><ele>119.5</ele><time>2026-05-02T14:42:38.523Z</time></trkpt><trkpt lat="42.847286" lon="13.6080507"><ele>119.75</ele><time>2026-05-02T14:42:39.524Z</time></trkpt><trkpt lat="42.8473335" lon="13.6078775"><ele>120.0</ele><time>2026-05-02T14:42:40.523Z</time></trkpt><trkpt lat="42.84738" lon="13.6077132"><ele>120.2</ele><time>2026-05-02T14:42:41.524Z</time></trkpt><trkpt lat="42.8474227" lon="13.6075641"><ele>120.4</ele><time>2026-05-02T14:42:42.524Z</time></trkpt><trkpt lat="42.8474617" lon="13.6074252"><ele>120.6</ele><time>2026-05-02T14:42:43.524Z</time></trkpt><trkpt lat="42.8475028" lon="13.6072833"><ele>120.8</ele><time>2026-05-02T14:42:44.524Z</time></trkpt><trkpt lat="42.8475405" lon="13.6071525"><ele>121.0</ele><time>2026-05-02T14:42:45.524Z</time></trkpt><trkpt lat="42.8475905" lon="13.6070019"><ele>120.75</ele><time>2026-05-02T14:42:46.524Z</time></trkpt><trkpt lat="42.8476518" lon="13.6068406"><ele>120.5</ele><time>2026-05-02T14:42:47.523Z</time></trkpt><trkpt lat="42.8477242" lon="13.6066801"><ele>120.25</ele><time>2026-05-02T14:42:48.525Z</time></trkpt><trkpt lat="42.8477991" lon="13.6065151"><ele>120.0</ele><time>2026-05-02T14:42:49.525Z</time></trkpt><trkpt lat="42.8478709" lon="13.6063519"><ele>120.0</ele><time>2026-05-02T14:42:50.525Z</time></trkpt><trkpt lat="42.8479391" lon="13.6061981"><ele>120.0</ele><time>2026-05-02T14:42:51.525Z</time></trkpt><trkpt lat="42.8480038" lon="13.6060558"><ele>120.0</ele><time>2026-05-02T14:42:52.525Z</time></trkpt><trkpt lat="42.8480654" lon="13.6059274"><ele>120.0</ele><time>2026-05-02T14:42:53.525Z</time></trkpt><trkpt lat="42.8481238" lon="13.6057985"><ele>120.5</ele><time>2026-05-02T14:42:54.525Z</time></trkpt><trkpt lat="42.8481865" lon="13.6056575"><ele>121.0</ele><time>2026-05-02T14:42:55.525Z</time></trkpt><trkpt lat="42.8482542" lon="13.6055047"><ele>121.5</ele><time>2026-05-02T14:42:56.525Z</time></trkpt><trkpt lat="42.8483141" lon="13.6053528"><ele>122.0</ele><time>2026-05-02T14:42:57.525Z</time></trkpt><trkpt lat="42.8483829" lon="13.6051791"><ele>122.66666666666666</ele><time>2026-05-02T14:42:58.524Z</time></trkpt><trkpt lat="42.8484439" lon="13.6050018"><ele>123.33333333333334</ele><time>2026-05-02T14:42:59.525Z</time></trkpt><trkpt lat="42.8484996" lon="13.6048039"><ele>124.0</ele><time>2026-05-02T14:43:00.525Z</time></trkpt><trkpt lat="42.8485451" lon="13.6045904"><ele>124.33333333333334</ele><time>2026-05-02T14:43:01.525Z</time></trkpt><trkpt lat="42.8485733" lon="13.6043842"><ele>124.66666666666666</ele><time>2026-05-02T14:43:02.525Z</time></trkpt><trkpt lat="42.8486056" lon="13.60418"><ele>125.0</ele><time>2026-05-02T14:43:03.525Z</time></trkpt><trkpt lat="42.8486373" lon="13.6039829"><ele>125.0</ele><time>2026-05-02T14:43:04.525Z</time></trkpt><trkpt lat="42.8486726" lon="13.6037887"><ele>125.0</ele><time>2026-05-02T14:43:05.525Z</time></trkpt><trkpt lat="42.8487085" lon="13.6035972"><ele>125.0</ele><time>2026-05-02T14:43:06.524Z</time></trkpt><trkpt lat="42.8487401" lon="13.6034094"><ele>125.0</ele><time>2026-05-02T14:43:07.525Z</time></trkpt><trkpt lat="42.8487714" lon="13.6032305"><ele>125.2</ele><time>2026-05-02T14:43:08.525Z</time></trkpt><trkpt lat="42.8487993" lon="13.6030643"><ele>125.4</ele><time>2026-05-02T14:43:09.525Z</time></trkpt><trkpt lat="42.8488296" lon="13.6029145"><ele>125.6</ele><time>2026-05-02T14:43:10.525Z</time></trkpt><trkpt lat="42.8488605" lon="13.6027786"><ele>125.8</ele><time>2026-05-02T14:43:11.524Z</time></trkpt><trkpt lat="42.8488832" lon="13.6026693"><ele>126.0</ele><time>2026-05-02T14:43:12.525Z</time></trkpt><trkpt lat="42.8489042" lon="13.6025685"><ele>126.0</ele><time>2026-05-02T14:43:13.525Z</time></trkpt><trkpt lat="42.8489281" lon="13.6024673"><ele>126.0</ele><time>2026-05-02T14:43:14.525Z</time></trkpt><trkpt lat="42.8489548" lon="13.6023595"><ele>126.0</ele><time>2026-05-02T14:43:15.525Z</time></trkpt><trkpt lat="42.8489767" lon="13.6022338"><ele>126.0</ele><time>2026-05-02T14:43:16.525Z</time></trkpt><trkpt lat="42.8490033" lon="13.6020927"><ele>126.0</ele><time>2026-05-02T14:43:17.525Z</time></trkpt><trkpt lat="42.8490329" lon="13.6019428"><ele>125.75</ele><time>2026-05-02T14:43:18.525Z</time></trkpt><trkpt lat="42.8490603" lon="13.6017854"><ele>125.5</ele><time>2026-05-02T14:43:19.525Z</time></trkpt><trkpt lat="42.8490926" lon="13.6016222"><ele>125.25</ele><time>2026-05-02T14:43:20.525Z</time></trkpt><trkpt lat="42.8491271" lon="13.601468"><ele>125.0</ele><time>2026-05-02T14:43:21.525Z</time></trkpt><trkpt lat="42.8491554" lon="13.6013233"><ele>124.99999999999999</ele><time>2026-05-02T14:43:22.524Z</time></trkpt><trkpt lat="42.8491826" lon="13.6011793"><ele>125.0</ele><time>2026-05-02T14:43:23.525Z</time></trkpt><trkpt lat="42.8492142" lon="13.6010689"><ele>125.0</ele><time>2026-05-02T14:43:24.525Z</time></trkpt><trkpt lat="42.849247" lon="13.6009591"><ele>125.0</ele><time>2026-05-02T14:43:25.525Z</time></trkpt><trkpt lat="42.8492706" lon="13.6008691"><ele>124.99999999999999</ele><time>2026-05-02T14:43:26.525Z</time></trkpt><trkpt lat="42.8493048" lon="13.6007878"><ele>125.0</ele><time>2026-05-02T14:43:27.525Z</time></trkpt><trkpt lat="42.8493351" lon="13.6006891"><ele>125.6</ele><time>2026-05-02T14:43:28.525Z</time></trkpt><trkpt lat="42.8493645" lon="13.6005753"><ele>126.2</ele><time>2026-05-02T14:43:29.525Z</time></trkpt><trkpt lat="42.849392" lon="13.6004485"><ele>126.80000000000001</ele><time>2026-05-02T14:43:30.525Z</time></trkpt><trkpt lat="42.8494232" lon="13.6003129"><ele>127.4</ele><time>2026-05-02T14:43:31.525Z</time></trkpt><trkpt lat="42.8494547" lon="13.6001768"><ele>128.0</ele><time>2026-05-02T14:43:32.525Z</time></trkpt><trkpt lat="42.8494849" lon="13.6000364"><ele>128.0</ele><time>2026-05-02T14:43:33.525Z</time></trkpt><trkpt lat="42.8495213" lon="13.5999021"><ele>128.0</ele><time>2026-05-02T14:43:34.524Z</time></trkpt><trkpt lat="42.8495577" lon="13.5997646"><ele>128.0</ele><time>2026-05-02T14:43:35.525Z</time></trkpt><trkpt lat="42.8496008" lon="13.5996281"><ele>128.0</ele><time>2026-05-02T14:43:36.524Z</time></trkpt><trkpt lat="42.8496504" lon="13.5994962"><ele>128.0</ele><time>2026-05-02T14:43:37.525Z</time></trkpt><trkpt lat="42.8497114" lon="13.5993751"><ele>128.4</ele><time>2026-05-02T14:43:38.525Z</time></trkpt><trkpt lat="42.8497798" lon="13.599252"><ele>128.8</ele><time>2026-05-02T14:43:39.525Z</time></trkpt><trkpt lat="42.8498445" lon="13.5991308"><ele>129.2</ele><time>2026-05-02T14:43:40.525Z</time></trkpt><trkpt lat="42.84991" lon="13.5990111"><ele>129.6</ele><time>2026-05-02T14:43:41.524Z</time></trkpt><trkpt lat="42.84997" lon="13.5988905"><ele>130.0</ele><time>2026-05-02T14:43:42.525Z</time></trkpt><trkpt lat="42.8500228" lon="13.5987726"><ele>130.66666666666669</ele><time>2026-05-02T14:43:43.525Z</time></trkpt><trkpt lat="42.8500754" lon="13.5986563"><ele>131.33333333333334</ele><time>2026-05-02T14:43:44.525Z</time></trkpt><trkpt lat="42.8501235" lon="13.5985501"><ele>132.0</ele><time>2026-05-02T14:43:45.525Z</time></trkpt><trkpt lat="42.8501666" lon="13.5984536"><ele>132.66666666666666</ele><time>2026-05-02T14:43:46.525Z</time></trkpt><trkpt lat="42.8502093" lon="13.5983558"><ele>133.33333333333331</ele><time>2026-05-02T14:43:47.525Z</time></trkpt><trkpt lat="42.8502496" lon="13.5982603"><ele>134.0</ele><time>2026-05-02T14:43:48.524Z</time></trkpt><trkpt lat="42.8502835" lon="13.5981673"><ele>134.2</ele><time>2026-05-02T14:43:49.524Z</time></trkpt><trkpt lat="42.8503157" lon="13.5980539"><ele>134.4</ele><time>2026-05-02T14:43:50.525Z</time></trkpt><trkpt lat="42.8503519" lon="13.597917"><ele>134.6</ele><time>2026-05-02T14:43:51.526Z</time></trkpt><trkpt lat="42.8503891" lon="13.5977766"><ele>134.8</ele><time>2026-05-02T14:43:52.526Z</time></trkpt><trkpt lat="42.8504312" lon="13.5976332"><ele>135.0</ele><time>2026-05-02T14:43:53.526Z</time></trkpt><trkpt lat="42.8504803" lon="13.5974754"><ele>136.0</ele><time>2026-05-02T14:43:54.526Z</time></trkpt><trkpt lat="42.8505333" lon="13.5973215"><ele>137.0</ele><time>2026-05-02T14:43:55.526Z</time></trkpt><trkpt lat="42.8505821" lon="13.5971711"><ele>138.0</ele><time>2026-05-02T14:43:56.526Z</time></trkpt><trkpt lat="42.8506312" lon="13.5970044"><ele>139.0</ele><time>2026-05-02T14:43:57.526Z</time></trkpt><trkpt lat="42.850684" lon="13.5968275"><ele>139.0</ele><time>2026-05-02T14:43:58.526Z</time></trkpt><trkpt lat="42.8507368" lon="13.5966408"><ele>139.0</ele><time>2026-05-02T14:43:59.526Z</time></trkpt><trkpt lat="42.8507846" lon="13.5964652"><ele>139.0</ele><time>2026-05-02T14:44:00.526Z</time></trkpt><trkpt lat="42.8508297" lon="13.5962919"><ele>139.0</ele><time>2026-05-02T14:44:01.526Z</time></trkpt><trkpt lat="42.8508718" lon="13.5961303"><ele>139.0</ele><time>2026-05-02T14:44:02.526Z</time></trkpt><trkpt lat="42.8509329" lon="13.5958467"><ele>139.0</ele><time>2026-05-02T14:44:04.526Z</time></trkpt><trkpt lat="42.8509656" lon="13.5956941"><ele>139.0</ele><time>2026-05-02T14:44:05.526Z</time></trkpt><trkpt lat="42.8509923" lon="13.5955412"><ele>139.0</ele><time>2026-05-02T14:44:06.526Z</time></trkpt><trkpt lat="42.8510238" lon="13.5953867"><ele>139.0</ele><time>2026-05-02T14:44:07.526Z</time></trkpt><trkpt lat="42.8510506" lon="13.595238"><ele>139.0</ele><time>2026-05-02T14:44:08.526Z</time></trkpt><trkpt lat="42.8510782" lon="13.5951077"><ele>139.0</ele><time>2026-05-02T14:44:09.526Z</time></trkpt><trkpt lat="42.851114" lon="13.5949876"><ele>139.0</ele><time>2026-05-02T14:44:10.526Z</time></trkpt><trkpt lat="42.8511419" lon="13.5948714"><ele>139.0</ele><time>2026-05-02T14:44:11.526Z</time></trkpt><trkpt lat="42.8511661" lon="13.5947515"><ele>139.0</ele><time>2026-05-02T14:44:12.526Z</time></trkpt><trkpt lat="42.8511862" lon="13.5946349"><ele>139.0</ele><time>2026-05-02T14:44:13.526Z</time></trkpt><trkpt lat="42.8511977" lon="13.5945182"><ele>139.0</ele><time>2026-05-02T14:44:14.526Z</time></trkpt><trkpt lat="42.8512085" lon="13.594402"><ele>139.0</ele><time>2026-05-02T14:44:15.526Z</time></trkpt><trkpt lat="42.8512158" lon="13.5942941"><ele>139.0</ele><time>2026-05-02T14:44:16.526Z</time></trkpt><trkpt lat="42.8512263" lon="13.5941834"><ele>139.0</ele><time>2026-05-02T14:44:17.526Z</time></trkpt><trkpt lat="42.8512342" lon="13.594067"><ele>140.0</ele><time>2026-05-02T14:44:18.526Z</time></trkpt><trkpt lat="42.8512456" lon="13.5939357"><ele>141.0</ele><time>2026-05-02T14:44:19.526Z</time></trkpt><trkpt lat="42.85126" lon="13.593801"><ele>142.0</ele><time>2026-05-02T14:44:20.526Z</time></trkpt><trkpt lat="42.8512753" lon="13.5936661"><ele>143.0</ele><time>2026-05-02T14:44:21.526Z</time></trkpt><trkpt lat="42.8512868" lon="13.5935377"><ele>144.0</ele><time>2026-05-02T14:44:22.526Z</time></trkpt><trkpt lat="42.8512974" lon="13.5934076"><ele>144.16666666666666</ele><time>2026-05-02T14:44:23.526Z</time></trkpt><trkpt lat="42.8513115" lon="13.5932891"><ele>144.33333333333334</ele><time>2026-05-02T14:44:24.526Z</time></trkpt><trkpt lat="42.851325" lon="13.5931682"><ele>144.5</ele><time>2026-05-02T14:44:25.525Z</time></trkpt><trkpt lat="42.851338" lon="13.5930492"><ele>144.66666666666669</ele><time>2026-05-02T14:44:26.526Z</time></trkpt><trkpt lat="42.8513481" lon="13.592934"><ele>144.83333333333334</ele><time>2026-05-02T14:44:27.526Z</time></trkpt><trkpt lat="42.8513577" lon="13.5928175"><ele>145.0</ele><time>2026-05-02T14:44:28.526Z</time></trkpt><trkpt lat="42.851358" lon="13.592695"><ele>145.33333333333334</ele><time>2026-05-02T14:44:29.526Z</time></trkpt><trkpt lat="42.8513683" lon="13.5925708"><ele>145.66666666666669</ele><time>2026-05-02T14:44:30.526Z</time></trkpt><trkpt lat="42.8513747" lon="13.5924503"><ele>146.0</ele><time>2026-05-02T14:44:31.525Z</time></trkpt><trkpt lat="42.8513822" lon="13.592329"><ele>146.33333333333334</ele><time>2026-05-02T14:44:32.526Z</time></trkpt><trkpt lat="42.8513901" lon="13.5922051"><ele>146.66666666666666</ele><time>2026-05-02T14:44:33.526Z</time></trkpt><trkpt lat="42.8514016" lon="13.5920918"><ele>147.0</ele><time>2026-05-02T14:44:34.526Z</time></trkpt><trkpt lat="42.8514121" lon="13.5919749"><ele>147.79999999999998</ele><time>2026-05-02T14:44:35.526Z</time></trkpt><trkpt lat="42.8514234" lon="13.5918594"><ele>148.6</ele><time>2026-05-02T14:44:36.526Z</time></trkpt><trkpt lat="42.851432" lon="13.5917366"><ele>149.39999999999998</ele><time>2026-05-02T14:44:37.526Z</time></trkpt><trkpt lat="42.851438" lon="13.5916099"><ele>150.2</ele><time>2026-05-02T14:44:38.526Z</time></trkpt><trkpt lat="42.85145" lon="13.5914837"><ele>151.0</ele><time>2026-05-02T14:44:39.526Z</time></trkpt><trkpt lat="42.8514663" lon="13.5913518"><ele>151.0</ele><time>2026-05-02T14:44:40.526Z</time></trkpt><trkpt lat="42.8514755" lon="13.591222"><ele>151.0</ele><time>2026-05-02T14:44:41.526Z</time></trkpt><trkpt lat="42.8514864" lon="13.591091"><ele>151.0</ele><time>2026-05-02T14:44:42.526Z</time></trkpt><trkpt lat="42.8514982" lon="13.5909603"><ele>151.0</ele><time>2026-05-02T14:44:43.526Z</time></trkpt><trkpt lat="42.8515156" lon="13.5908337"><ele>151.0</ele><time>2026-05-02T14:44:44.526Z</time></trkpt><trkpt lat="42.8515247" lon="13.5907171"><ele>151.33333333333334</ele><time>2026-05-02T14:44:45.525Z</time></trkpt><trkpt lat="42.8515405" lon="13.5906016"><ele>151.66666666666669</ele><time>2026-05-02T14:44:46.526Z</time></trkpt><trkpt lat="42.8515584" lon="13.5905006"><ele>152.0</ele><time>2026-05-02T14:44:47.526Z</time></trkpt><trkpt lat="42.8515708" lon="13.590402"><ele>152.33333333333334</ele><time>2026-05-02T14:44:48.526Z</time></trkpt><trkpt lat="42.8515802" lon="13.5902999"><ele>152.66666666666666</ele><time>2026-05-02T14:44:49.526Z</time></trkpt><trkpt lat="42.8515889" lon="13.5901993"><ele>153.0</ele><time>2026-05-02T14:44:50.526Z</time></trkpt><trkpt lat="42.8516121" lon="13.5900978"><ele>153.0</ele><time>2026-05-02T14:44:51.525Z</time></trkpt><trkpt lat="42.8516282" lon="13.589993"><ele>153.0</ele><time>2026-05-02T14:44:52.526Z</time></trkpt><trkpt lat="42.8516399" lon="13.5898748"><ele>153.0</ele><time>2026-05-02T14:44:53.526Z</time></trkpt><trkpt lat="42.8516505" lon="13.5897489"><ele>153.0</ele><time>2026-05-02T14:44:54.526Z</time></trkpt><trkpt lat="42.8516688" lon="13.5896214"><ele>153.0</ele><time>2026-05-02T14:44:55.527Z</time></trkpt><trkpt lat="42.8516894" lon="13.5894892"><ele>153.0</ele><time>2026-05-02T14:44:56.527Z</time></trkpt><trkpt lat="42.8517044" lon="13.5893572"><ele>153.0</ele><time>2026-05-02T14:44:57.527Z</time></trkpt><trkpt lat="42.8517251" lon="13.5892329"><ele>153.0</ele><time>2026-05-02T14:44:58.527Z</time></trkpt><trkpt lat="42.8517469" lon="13.5891098"><ele>153.0</ele><time>2026-05-02T14:44:59.527Z</time></trkpt><trkpt lat="42.8517738" lon="13.588995"><ele>153.0</ele><time>2026-05-02T14:45:00.526Z</time></trkpt><trkpt lat="42.8518" lon="13.5888806"><ele>153.0</ele><time>2026-05-02T14:45:01.527Z</time></trkpt><trkpt lat="42.8518308" lon="13.5887651"><ele>153.0</ele><time>2026-05-02T14:45:02.527Z</time></trkpt><trkpt lat="42.8518668" lon="13.588633"><ele>153.0</ele><time>2026-05-02T14:45:03.526Z</time></trkpt><trkpt lat="42.8518932" lon="13.5885122"><ele>153.0</ele><time>2026-05-02T14:45:04.526Z</time></trkpt><trkpt lat="42.8519144" lon="13.5884066"><ele>153.0</ele><time>2026-05-02T14:45:05.527Z</time></trkpt><trkpt lat="42.8519418" lon="13.5883248"><ele>153.0</ele><time>2026-05-02T14:45:06.527Z</time></trkpt><trkpt lat="42.8519728" lon="13.5882418"><ele>152.8</ele><time>2026-05-02T14:45:07.527Z</time></trkpt><trkpt lat="42.8520147" lon="13.588168"><ele>152.60000000000002</ele><time>2026-05-02T14:45:08.527Z</time></trkpt><trkpt lat="42.8521099" lon="13.5880874"><ele>152.39999999999998</ele><time>2026-05-02T14:45:10.527Z</time></trkpt><trkpt lat="42.8521797" lon="13.5880656"><ele>152.2</ele><time>2026-05-02T14:45:11.527Z</time></trkpt><trkpt lat="42.8523029" lon="13.5880435"><ele>152.0</ele><time>2026-05-02T14:45:13.527Z</time></trkpt><trkpt lat="42.852372" lon="13.5880846"><ele>152.0</ele><time>2026-05-02T14:45:15.527Z</time></trkpt><trkpt lat="42.8524595" lon="13.5881016"><ele>152.0</ele><time>2026-05-02T14:45:21.527Z</time></trkpt><trkpt lat="42.8525809" lon="13.5880906"><ele>152.0</ele><time>2026-05-02T14:45:23.527Z</time></trkpt><trkpt lat="42.8526637" lon="13.5880896"><ele>152.0</ele><time>2026-05-02T14:45:24.527Z</time></trkpt><trkpt lat="42.8527743" lon="13.5880726"><ele>152.0</ele><time>2026-05-02T14:45:26.527Z</time></trkpt><trkpt lat="42.852851" lon="13.5880544"><ele>152.0</ele><time>2026-05-02T14:45:29.527Z</time></trkpt><trkpt lat="42.8529294" lon="13.5880381"><ele>152.0</ele><time>2026-05-02T14:45:31.527Z</time></trkpt><trkpt lat="42.8529948" lon="13.5880296"><ele>152.0</ele><time>2026-05-02T14:45:32.527Z</time></trkpt><trkpt lat="42.8530648" lon="13.5880179"><ele>152.0</ele><time>2026-05-02T14:45:33.527Z</time></trkpt><trkpt lat="42.8531367" lon="13.5879991"><ele>152.0</ele><time>2026-05-02T14:45:34.527Z</time></trkpt><trkpt lat="42.8532181" lon="13.587983"><ele>152.0</ele><time>2026-05-02T14:45:35.527Z</time></trkpt><trkpt lat="42.8532967" lon="13.5879709"><ele>152.0</ele><time>2026-05-02T14:45:36.527Z</time></trkpt><trkpt lat="42.8533795" lon="13.5879613"><ele>152.0</ele><time>2026-05-02T14:45:37.526Z</time></trkpt><trkpt lat="42.8534582" lon="13.5879502"><ele>152.0</ele><time>2026-05-02T14:45:38.527Z</time></trkpt><trkpt lat="42.8535347" lon="13.5879427"><ele>152.0</ele><time>2026-05-02T14:45:39.527Z</time></trkpt><trkpt lat="42.8536105" lon="13.5879419"><ele>152.0</ele><time>2026-05-02T14:45:40.527Z</time></trkpt><trkpt lat="42.8536811" lon="13.5879374"><ele>152.0</ele><time>2026-05-02T14:45:41.526Z</time></trkpt><trkpt lat="42.8537619" lon="13.5879466"><ele>151.6</ele><time>2026-05-02T14:45:42.527Z</time></trkpt><trkpt lat="42.8538461" lon="13.5879507"><ele>151.2</ele><time>2026-05-02T14:45:43.527Z</time></trkpt><trkpt lat="42.8539317" lon="13.5879808"><ele>150.8</ele><time>2026-05-02T14:45:44.526Z</time></trkpt><trkpt lat="42.8539914" lon="13.5880281"><ele>150.4</ele><time>2026-05-02T14:45:45.526Z</time></trkpt><trkpt lat="42.8540909" lon="13.5881386"><ele>150.0</ele><time>2026-05-02T14:45:47.527Z</time></trkpt><trkpt lat="42.8541908" lon="13.588169"><ele>150.0</ele><time>2026-05-02T14:45:49.527Z</time></trkpt><trkpt lat="42.8542571" lon="13.5880885"><ele>150.0</ele><time>2026-05-02T14:45:51.527Z</time></trkpt><trkpt lat="42.8542942" lon="13.5879328"><ele>150.0</ele><time>2026-05-02T14:45:53.527Z</time></trkpt><trkpt lat="42.8542527" lon="13.5878545"><ele>150.0</ele><time>2026-05-02T14:45:54.527Z</time></trkpt><trkpt lat="42.8541845" lon="13.5877311"><ele>150.0</ele><time>2026-05-02T14:45:56.527Z</time></trkpt><trkpt lat="42.8541299" lon="13.5876066"><ele>149.0</ele><time>2026-05-02T14:45:58.528Z</time></trkpt><trkpt lat="42.8541086" lon="13.587468"><ele>149.0</ele><time>2026-05-02T14:46:00.527Z</time></trkpt><trkpt lat="42.8541052" lon="13.587379"><ele>149.0</ele><time>2026-05-02T14:46:01.527Z</time></trkpt><trkpt lat="42.8541024" lon="13.5872826"><ele>149.0</ele><time>2026-05-02T14:46:02.526Z</time></trkpt><trkpt lat="42.8540989" lon="13.5871842"><ele>149.0</ele><time>2026-05-02T14:46:03.528Z</time></trkpt><trkpt lat="42.8540942" lon="13.5870831"><ele>149.0</ele><time>2026-05-02T14:46:04.528Z</time></trkpt></trkseg><trkseg><trkpt lat="42.8535673" lon="13.5764437"><ele>158.00000000000003</ele><time>2026-05-02T15:56:41.709Z</time></trkpt><trkpt lat="42.8535692" lon="13.5765391"><ele>158.0</ele><time>2026-05-02T15:56:52.71Z</time></trkpt><trkpt lat="42.8535886" lon="13.5766257"><ele>158.0</ele><time>2026-05-02T15:57:02.733Z</time></trkpt><trkpt lat="42.8535597" lon="13.576704"><ele>158.0</ele><time>2026-05-02T15:57:09.725Z</time></trkpt><trkpt lat="42.8534971" lon="13.5767273"><ele>158.0</ele><time>2026-05-02T15:57:13.799Z</time></trkpt><trkpt lat="42.8534569" lon="13.576804"><ele>158.00000000000003</ele><time>2026-05-02T15:57:33.687Z</time></trkpt><trkpt lat="42.8533989" lon="13.5768432"><ele>158.0</ele><time>2026-05-02T15:57:39.795Z</time></trkpt><trkpt lat="42.8533931" lon="13.576938"><ele>157.85714285714286</ele><time>2026-05-02T15:57:47.705Z</time></trkpt><trkpt lat="42.8533919" lon="13.5770278"><ele>157.71428571428572</ele><time>2026-05-02T15:57:51.779Z</time></trkpt><trkpt lat="42.8534506" lon="13.577078"><ele>157.57142857142856</ele><time>2026-05-02T15:57:57.774Z</time></trkpt><trkpt lat="42.8534167" lon="13.5771528"><ele>157.42857142857144</ele><time>2026-05-02T15:58:05.794Z</time></trkpt><trkpt lat="42.8534342" lon="13.5772453"><ele>157.28571428571428</ele><time>2026-05-02T15:58:17.782Z</time></trkpt><trkpt lat="42.8534221" lon="13.5773297"><ele>157.14285714285714</ele><time>2026-05-02T15:58:24.731Z</time></trkpt><trkpt lat="42.8534134" lon="13.5774222"><ele>157.0</ele><time>2026-05-02T15:58:33.702Z</time></trkpt><trkpt lat="42.8534193" lon="13.57751"><ele>157.0</ele><time>2026-05-02T15:58:42.703Z</time></trkpt><trkpt lat="42.8534005" lon="13.5775934"><ele>157.0</ele><time>2026-05-02T15:59:13.734Z</time></trkpt><trkpt lat="42.8533696" lon="13.5774889"><ele>157.0</ele><time>2026-05-02T15:59:30.751Z</time></trkpt><trkpt lat="42.8533845" lon="13.5774015"><ele>157.0</ele><time>2026-05-02T15:59:33.753Z</time></trkpt><trkpt lat="42.8533699" lon="13.5773151"><ele>157.0</ele><time>2026-05-02T15:59:43.751Z</time></trkpt><trkpt lat="42.8533958" lon="13.5779074"><ele>157.0</ele><time>2026-05-02T15:59:46.75Z</time></trkpt><trkpt lat="42.8533989" lon="13.5780997"><ele>157.0</ele><time>2026-05-02T15:59:47.76Z</time></trkpt><trkpt lat="42.8533794" lon="13.5781915"><ele>157.0</ele><time>2026-05-02T15:59:52.791Z</time></trkpt><trkpt lat="42.8534318" lon="13.5782449"><ele>157.0</ele><time>2026-05-02T15:59:59.702Z</time></trkpt><trkpt lat="42.8534978" lon="13.5782464"><ele>157.0</ele><time>2026-05-02T16:00:11.722Z</time></trkpt><trkpt lat="42.853531" lon="13.5783207"><ele>157.0</ele><time>2026-05-02T16:00:19.751Z</time></trkpt><trkpt lat="42.8535618" lon="13.5784087"><ele>157.0</ele><time>2026-05-02T16:00:36.762Z</time></trkpt><trkpt lat="42.8535874" lon="13.5785048"><ele>157.0</ele><time>2026-05-02T16:00:41.766Z</time></trkpt><trkpt lat="42.8536239" lon="13.5785801"><ele>157.0</ele><time>2026-05-02T16:00:46.707Z</time></trkpt><trkpt lat="42.8536509" lon="13.5786611"><ele>157.0</ele><time>2026-05-02T16:00:55.405Z</time></trkpt><trkpt lat="42.8536783" lon="13.5788063"><ele>157.0</ele><time>2026-05-02T16:01:11.352Z</time></trkpt><trkpt lat="42.8536952" lon="13.578721"><ele>157.0</ele><time>2026-05-02T16:01:34.741Z</time></trkpt><trkpt lat="42.853704" lon="13.5788233"><ele>156.7142857142857</ele><time>2026-05-02T16:01:40.744Z</time></trkpt><trkpt lat="42.8537023" lon="13.5789175"><ele>156.42857142857142</ele><time>2026-05-02T16:01:41.81Z</time></trkpt><trkpt lat="42.8537092" lon="13.5790041"><ele>156.14285714285714</ele><time>2026-05-02T16:01:50.796Z</time></trkpt><trkpt lat="42.8537329" lon="13.5790886"><ele>155.85714285714283</ele><time>2026-05-02T16:02:00.74Z</time></trkpt><trkpt lat="42.8537337" lon="13.5791753"><ele>155.57142857142856</ele><time>2026-05-02T16:02:06.731Z</time></trkpt><trkpt lat="42.8537352" lon="13.5792617"><ele>155.28571428571428</ele><time>2026-05-02T16:02:12.783Z</time></trkpt><trkpt lat="42.8536904" lon="13.5793316"><ele>155.0</ele><time>2026-05-02T16:02:19.791Z</time></trkpt><trkpt lat="42.8537399" lon="13.5793873"><ele>155.0</ele><time>2026-05-02T16:02:30.674Z</time></trkpt><trkpt lat="42.8537359" lon="13.5794809"><ele>155.0</ele><time>2026-05-02T16:02:36.724Z</time></trkpt><trkpt lat="42.8537495" lon="13.579396"><ele>155.0</ele><time>2026-05-02T16:05:14.754Z</time></trkpt><trkpt lat="42.8537101" lon="13.5792888"><ele>155.0</ele><time>2026-05-02T16:05:19.468Z</time></trkpt><trkpt lat="42.8536101" lon="13.5792653"><ele>155.0</ele><time>2026-05-02T16:05:22.778Z</time></trkpt><trkpt lat="42.8535379" lon="13.57925"><ele>155.0</ele><time>2026-05-02T16:05:24.7Z</time></trkpt><trkpt lat="42.8534574" lon="13.5792358"><ele>155.4</ele><time>2026-05-02T16:05:26.816Z</time></trkpt><trkpt lat="42.8533934" lon="13.5792346"><ele>155.8</ele><time>2026-05-02T16:05:28.076Z</time></trkpt><trkpt lat="42.8532852" lon="13.5792251"><ele>156.2</ele><time>2026-05-02T16:05:30.64Z</time></trkpt><trkpt lat="42.8532093" lon="13.5792324"><ele>156.6</ele><time>2026-05-02T16:05:32.728Z</time></trkpt><trkpt lat="42.8530884" lon="13.5792331"><ele>157.0</ele><time>2026-05-02T16:05:34.617Z</time></trkpt><trkpt lat="42.8530288" lon="13.5793181"><ele>157.0</ele><time>2026-05-02T16:05:37.617Z</time></trkpt><trkpt lat="42.8530148" lon="13.5794471"><ele>157.0</ele><time>2026-05-02T16:05:39.616Z</time></trkpt><trkpt lat="42.8530004" lon="13.579603"><ele>157.0</ele><time>2026-05-02T16:05:41.617Z</time></trkpt><trkpt lat="42.8529937" lon="13.5796915"><ele>157.0</ele><time>2026-05-02T16:05:42.617Z</time></trkpt><trkpt lat="42.8529847" lon="13.5797793"><ele>157.0</ele><time>2026-05-02T16:05:43.617Z</time></trkpt><trkpt lat="42.8529782" lon="13.5798817"><ele>157.0</ele><time>2026-05-02T16:05:44.617Z</time></trkpt><trkpt lat="42.852981" lon="13.5800371"><ele>157.33333333333334</ele><time>2026-05-02T16:05:45.617Z</time></trkpt><trkpt lat="42.8529769" lon="13.5801769"><ele>157.66666666666669</ele><time>2026-05-02T16:05:46.617Z</time></trkpt><trkpt lat="42.8529665" lon="13.5803003"><ele>158.0</ele><time>2026-05-02T16:05:47.616Z</time></trkpt><trkpt lat="42.8529555" lon="13.5804195"><ele>158.33333333333334</ele><time>2026-05-02T16:05:48.617Z</time></trkpt><trkpt lat="42.852942" lon="13.5805239"><ele>158.66666666666666</ele><time>2026-05-02T16:05:49.617Z</time></trkpt><trkpt lat="42.8529313" lon="13.5806216"><ele>159.0</ele><time>2026-05-02T16:05:50.617Z</time></trkpt><trkpt lat="42.8529173" lon="13.5807194"><ele>159.57142857142856</ele><time>2026-05-02T16:05:51.617Z</time></trkpt><trkpt lat="42.8529037" lon="13.5808186"><ele>160.14285714285717</ele><time>2026-05-02T16:05:52.616Z</time></trkpt><trkpt lat="42.8528934" lon="13.5809162"><ele>160.71428571428572</ele><time>2026-05-02T16:05:53.617Z</time></trkpt><trkpt lat="42.8528823" lon="13.5810155"><ele>161.28571428571428</ele><time>2026-05-02T16:05:54.618Z</time></trkpt><trkpt lat="42.8528705" lon="13.5811146"><ele>161.85714285714283</ele><time>2026-05-02T16:05:55.616Z</time></trkpt><trkpt lat="42.8528576" lon="13.5812148"><ele>162.42857142857144</ele><time>2026-05-02T16:05:56.617Z</time></trkpt><trkpt lat="42.8528443" lon="13.5813149"><ele>163.0</ele><time>2026-05-02T16:05:57.617Z</time></trkpt><trkpt lat="42.8528295" lon="13.5814135"><ele>163.0</ele><time>2026-05-02T16:05:58.617Z</time></trkpt><trkpt lat="42.8528145" lon="13.5815132"><ele>163.0</ele><time>2026-05-02T16:05:59.616Z</time></trkpt><trkpt lat="42.8527995" lon="13.5816131"><ele>163.0</ele><time>2026-05-02T16:06:00.617Z</time></trkpt><trkpt lat="42.8527857" lon="13.5817138"><ele>163.0</ele><time>2026-05-02T16:06:01.617Z</time></trkpt><trkpt lat="42.8527725" lon="13.5818163"><ele>163.0</ele><time>2026-05-02T16:06:02.617Z</time></trkpt><trkpt lat="42.8527616" lon="13.581922"><ele>163.0</ele><time>2026-05-02T16:06:03.617Z</time></trkpt><trkpt lat="42.8527545" lon="13.582029"><ele>162.16666666666669</ele><time>2026-05-02T16:06:04.617Z</time></trkpt><trkpt lat="42.8527555" lon="13.5821363"><ele>161.33333333333334</ele><time>2026-05-02T16:06:05.617Z</time></trkpt><trkpt lat="42.8527645" lon="13.5822432"><ele>160.5</ele><time>2026-05-02T16:06:06.617Z</time></trkpt><trkpt lat="42.852781" lon="13.5823479"><ele>159.66666666666666</ele><time>2026-05-02T16:06:07.617Z</time></trkpt><trkpt lat="42.8528031" lon="13.5824496"><ele>158.83333333333331</ele><time>2026-05-02T16:06:08.618Z</time></trkpt><trkpt lat="42.852829" lon="13.5825471"><ele>158.0</ele><time>2026-05-02T16:06:09.618Z</time></trkpt><trkpt lat="42.8528585" lon="13.5826358"><ele>158.0</ele><time>2026-05-02T16:06:10.617Z</time></trkpt><trkpt lat="42.8528909" lon="13.5827134"><ele>158.0</ele><time>2026-05-02T16:06:11.618Z</time></trkpt><trkpt lat="42.85293" lon="13.5827811"><ele>158.0</ele><time>2026-05-02T16:06:12.618Z</time></trkpt><trkpt lat="42.8530139" lon="13.5828984"><ele>158.0</ele><time>2026-05-02T16:06:14.618Z</time></trkpt><trkpt lat="42.8530939" lon="13.5830046"><ele>158.0</ele><time>2026-05-02T16:06:16.618Z</time></trkpt><trkpt lat="42.8531715" lon="13.5831016"><ele>157.20000000000002</ele><time>2026-05-02T16:06:18.618Z</time></trkpt><trkpt lat="42.8532459" lon="13.5831959"><ele>156.4</ele><time>2026-05-02T16:06:20.618Z</time></trkpt><trkpt lat="42.8533241" lon="13.5832843"><ele>155.60000000000002</ele><time>2026-05-02T16:06:22.618Z</time></trkpt><trkpt lat="42.8534061" lon="13.5833741"><ele>154.8</ele><time>2026-05-02T16:06:24.618Z</time></trkpt><trkpt lat="42.853481" lon="13.5834575"><ele>154.0</ele><time>2026-05-02T16:06:26.618Z</time></trkpt><trkpt lat="42.8535502" lon="13.5835407"><ele>154.4</ele><time>2026-05-02T16:06:28.618Z</time></trkpt><trkpt lat="42.8536113" lon="13.5836213"><ele>154.8</ele><time>2026-05-02T16:06:30.618Z</time></trkpt><trkpt lat="42.8536778" lon="13.5837029"><ele>155.2</ele><time>2026-05-02T16:06:32.617Z</time></trkpt><trkpt lat="42.8537497" lon="13.5837985"><ele>155.6</ele><time>2026-05-02T16:06:34.618Z</time></trkpt><trkpt lat="42.8538204" lon="13.5839048"><ele>156.0</ele><time>2026-05-02T16:06:36.618Z</time></trkpt><trkpt lat="42.8538911" lon="13.5840174"><ele>156.0</ele><time>2026-05-02T16:06:38.617Z</time></trkpt><trkpt lat="42.8539571" lon="13.5841329"><ele>156.0</ele><time>2026-05-02T16:06:40.618Z</time></trkpt><trkpt lat="42.8539959" lon="13.5842866"><ele>156.0</ele><time>2026-05-02T16:06:42.618Z</time></trkpt><trkpt lat="42.8540051" lon="13.5843767"><ele>156.0</ele><time>2026-05-02T16:06:43.618Z</time></trkpt><trkpt lat="42.8540069" lon="13.5844677"><ele>156.0</ele><time>2026-05-02T16:06:44.618Z</time></trkpt><trkpt lat="42.8540064" lon="13.5845646"><ele>156.0</ele><time>2026-05-02T16:06:45.618Z</time></trkpt><trkpt lat="42.8540051" lon="13.5846633"><ele>154.14285714285714</ele><time>2026-05-02T16:06:46.618Z</time></trkpt><trkpt lat="42.8540053" lon="13.5847551"><ele>152.28571428571428</ele><time>2026-05-02T16:06:47.618Z</time></trkpt><trkpt lat="42.8540069" lon="13.5848554"><ele>150.42857142857142</ele><time>2026-05-02T16:06:48.618Z</time></trkpt><trkpt lat="42.8540097" lon="13.5849563"><ele>148.57142857142856</ele><time>2026-05-02T16:06:49.617Z</time></trkpt><trkpt lat="42.8540135" lon="13.5850543"><ele>146.71428571428572</ele><time>2026-05-02T16:06:50.618Z</time></trkpt><trkpt lat="42.8540183" lon="13.5851497"><ele>144.85714285714283</ele><time>2026-05-02T16:06:51.618Z</time></trkpt><trkpt lat="42.8540206" lon="13.5852436"><ele>143.0</ele><time>2026-05-02T16:06:52.618Z</time></trkpt><trkpt lat="42.8540214" lon="13.5853388"><ele>141.57142857142856</ele><time>2026-05-02T16:06:53.618Z</time></trkpt><trkpt lat="42.8540227" lon="13.5854353"><ele>140.14285714285714</ele><time>2026-05-02T16:06:54.617Z</time></trkpt><trkpt lat="42.8540259" lon="13.5855335"><ele>138.71428571428572</ele><time>2026-05-02T16:06:55.618Z</time></trkpt><trkpt lat="42.8540306" lon="13.5856312"><ele>137.28571428571428</ele><time>2026-05-02T16:06:56.618Z</time></trkpt><trkpt lat="42.8540347" lon="13.5857247"><ele>135.85714285714286</ele><time>2026-05-02T16:06:57.617Z</time></trkpt><trkpt lat="42.8540398" lon="13.5858139"><ele>134.42857142857142</ele><time>2026-05-02T16:06:58.617Z</time></trkpt><trkpt lat="42.8540439" lon="13.5859014"><ele>133.0</ele><time>2026-05-02T16:06:59.618Z</time></trkpt><trkpt lat="42.8540464" lon="13.5860677"><ele>133.0</ele><time>2026-05-02T16:07:01.618Z</time></trkpt><trkpt lat="42.8540511" lon="13.586165"><ele>133.0</ele><time>2026-05-02T16:07:02.618Z</time></trkpt><trkpt lat="42.8540533" lon="13.5862628"><ele>133.0</ele><time>2026-05-02T16:07:03.618Z</time></trkpt><trkpt lat="42.8540547" lon="13.5863643"><ele>133.0</ele><time>2026-05-02T16:07:04.617Z</time></trkpt><trkpt lat="42.8540558" lon="13.5864661"><ele>133.0</ele><time>2026-05-02T16:07:05.618Z</time></trkpt><trkpt lat="42.8540569" lon="13.5865694"><ele>133.0</ele><time>2026-05-02T16:07:06.618Z</time></trkpt><trkpt lat="42.8540594" lon="13.5866713"><ele>133.0</ele><time>2026-05-02T16:07:07.619Z</time></trkpt><trkpt lat="42.854065" lon="13.5867784"><ele>135.16666666666669</ele><time>2026-05-02T16:07:08.618Z</time></trkpt><trkpt lat="42.8540712" lon="13.5868902"><ele>137.33333333333334</ele><time>2026-05-02T16:07:09.618Z</time></trkpt><trkpt lat="42.8540777" lon="13.5870023"><ele>139.5</ele><time>2026-05-02T16:07:10.617Z</time></trkpt><trkpt lat="42.8540821" lon="13.5871161"><ele>141.66666666666666</ele><time>2026-05-02T16:07:11.618Z</time></trkpt><trkpt lat="42.8540871" lon="13.5872301"><ele>143.83333333333331</ele><time>2026-05-02T16:07:12.619Z</time></trkpt><trkpt lat="42.8540903" lon="13.5873393"><ele>146.0</ele><time>2026-05-02T16:07:13.619Z</time></trkpt><trkpt lat="42.8540946" lon="13.5874493"><ele>146.5</ele><time>2026-05-02T16:07:14.619Z</time></trkpt><trkpt lat="42.8540993" lon="13.5875577"><ele>147.0</ele><time>2026-05-02T16:07:15.619Z</time></trkpt><trkpt lat="42.8541024" lon="13.5876602"><ele>147.5</ele><time>2026-05-02T16:07:16.619Z</time></trkpt><trkpt lat="42.8540927" lon="13.587746"><ele>148.0</ele><time>2026-05-02T16:07:17.619Z</time></trkpt><trkpt lat="42.8540721" lon="13.5878393"><ele>148.5</ele><time>2026-05-02T16:07:18.619Z</time></trkpt><trkpt lat="42.8540087" lon="13.5879764"><ele>149.0</ele><time>2026-05-02T16:07:20.618Z</time></trkpt><trkpt lat="42.8539676" lon="13.5881395"><ele>149.0</ele><time>2026-05-02T16:07:22.619Z</time></trkpt><trkpt lat="42.8539488" lon="13.588225"><ele>149.0</ele><time>2026-05-02T16:07:23.619Z</time></trkpt><trkpt lat="42.853932" lon="13.5883145"><ele>149.0</ele><time>2026-05-02T16:07:24.619Z</time></trkpt><trkpt lat="42.8539178" lon="13.5884032"><ele>149.0</ele><time>2026-05-02T16:07:25.619Z</time></trkpt><trkpt lat="42.8538998" lon="13.5884928"><ele>149.0</ele><time>2026-05-02T16:07:26.618Z</time></trkpt><trkpt lat="42.8538716" lon="13.58858"><ele>149.0</ele><time>2026-05-02T16:07:27.619Z</time></trkpt><trkpt lat="42.8538274" lon="13.5886748"><ele>149.0</ele><time>2026-05-02T16:07:28.618Z</time></trkpt><trkpt lat="42.8537841" lon="13.5887677"><ele>149.0</ele><time>2026-05-02T16:07:29.619Z</time></trkpt><trkpt lat="42.8537427" lon="13.5888669"><ele>149.0</ele><time>2026-05-02T16:07:30.618Z</time></trkpt><trkpt lat="42.8537053" lon="13.5889635"><ele>149.0</ele><time>2026-05-02T16:07:31.619Z</time></trkpt><trkpt lat="42.8536645" lon="13.5890601"><ele>149.0</ele><time>2026-05-02T16:07:32.619Z</time></trkpt><trkpt lat="42.8536236" lon="13.5891639"><ele>149.0</ele><time>2026-05-02T16:07:33.618Z</time></trkpt><trkpt lat="42.8535881" lon="13.5892578"><ele>149.0</ele><time>2026-05-02T16:07:34.619Z</time></trkpt><trkpt lat="42.8535528" lon="13.5893519"><ele>149.0</ele><time>2026-05-02T16:07:35.618Z</time></trkpt><trkpt lat="42.8535149" lon="13.5894558"><ele>149.0</ele><time>2026-05-02T16:07:36.618Z</time></trkpt><trkpt lat="42.8534704" lon="13.5895465"><ele>149.0</ele><time>2026-05-02T16:07:37.619Z</time></trkpt><trkpt lat="42.8534299" lon="13.5896381"><ele>149.0</ele><time>2026-05-02T16:07:38.619Z</time></trkpt><trkpt lat="42.8533885" lon="13.5897295"><ele>149.0</ele><time>2026-05-02T16:07:39.619Z</time></trkpt><trkpt lat="42.8533462" lon="13.5898175"><ele>149.0</ele><time>2026-05-02T16:07:40.619Z</time></trkpt><trkpt lat="42.8533059" lon="13.5898944"><ele>149.0</ele><time>2026-05-02T16:07:41.619Z</time></trkpt><trkpt lat="42.8532699" lon="13.5899769"><ele>149.0</ele><time>2026-05-02T16:07:42.618Z</time></trkpt><trkpt lat="42.853199" lon="13.5901578"><ele>149.0</ele><time>2026-05-02T16:07:44.619Z</time></trkpt><trkpt lat="42.8531637" lon="13.5902498"><ele>149.0</ele><time>2026-05-02T16:07:45.619Z</time></trkpt><trkpt lat="42.8531264" lon="13.5903538"><ele>149.0</ele><time>2026-05-02T16:07:46.619Z</time></trkpt><trkpt lat="42.8530805" lon="13.5904502"><ele>149.0</ele><time>2026-05-02T16:07:47.619Z</time></trkpt><trkpt lat="42.8530389" lon="13.5905372"><ele>149.0</ele><time>2026-05-02T16:07:48.619Z</time></trkpt><trkpt lat="42.8530056" lon="13.5906301"><ele>149.0</ele><time>2026-05-02T16:07:49.619Z</time></trkpt><trkpt lat="42.852969" lon="13.5907177"><ele>149.0</ele><time>2026-05-02T16:07:50.619Z</time></trkpt><trkpt lat="42.852932" lon="13.5907988"><ele>149.0</ele><time>2026-05-02T16:07:51.619Z</time></trkpt><trkpt lat="42.852896" lon="13.5908801"><ele>149.0</ele><time>2026-05-02T16:07:52.619Z</time></trkpt><trkpt lat="42.8528578" lon="13.5909574"><ele>149.0</ele><time>2026-05-02T16:07:53.619Z</time></trkpt><trkpt lat="42.8528237" lon="13.5910327"><ele>149.0</ele><time>2026-05-02T16:07:54.619Z</time></trkpt><trkpt lat="42.8527812" lon="13.5910989"><ele>149.0</ele><time>2026-05-02T16:07:55.619Z</time></trkpt><trkpt lat="42.8527478" lon="13.591176"><ele>149.0</ele><time>2026-05-02T16:07:56.618Z</time></trkpt><trkpt lat="42.8527136" lon="13.5912531"><ele>149.0</ele><time>2026-05-02T16:07:57.619Z</time></trkpt><trkpt lat="42.8526615" lon="13.5913608"><ele>149.0</ele><time>2026-05-02T16:07:59.618Z</time></trkpt><trkpt lat="42.8525699" lon="13.59139"><ele>149.0</ele><time>2026-05-02T16:08:01.618Z</time></trkpt><trkpt lat="42.8524825" lon="13.5913217"><ele>149.5</ele><time>2026-05-02T16:08:03.619Z</time></trkpt><trkpt lat="42.8524437" lon="13.5911726"><ele>150.0</ele><time>2026-05-02T16:08:05.618Z</time></trkpt><trkpt lat="42.8524421" lon="13.5910743"><ele>150.5</ele><time>2026-05-02T16:08:06.619Z</time></trkpt><trkpt lat="42.8524449" lon="13.5909769"><ele>151.0</ele><time>2026-05-02T16:08:07.619Z</time></trkpt><trkpt lat="42.8524466" lon="13.5908813"><ele>151.5</ele><time>2026-05-02T16:08:08.618Z</time></trkpt><trkpt lat="42.8524411" lon="13.5907757"><ele>152.0</ele><time>2026-05-02T16:08:09.62Z</time></trkpt><trkpt lat="42.8524365" lon="13.5906688"><ele>152.0</ele><time>2026-05-02T16:08:10.62Z</time></trkpt><trkpt lat="42.8524353" lon="13.5905626"><ele>152.0</ele><time>2026-05-02T16:08:11.619Z</time></trkpt><trkpt lat="42.8524326" lon="13.5904568"><ele>152.0</ele><time>2026-05-02T16:08:12.619Z</time></trkpt><trkpt lat="42.8524281" lon="13.5903558"><ele>152.0</ele><time>2026-05-02T16:08:13.619Z</time></trkpt><trkpt lat="42.8524206" lon="13.590266"><ele>152.0</ele><time>2026-05-02T16:08:14.619Z</time></trkpt><trkpt lat="42.852412" lon="13.5901791"><ele>152.0</ele><time>2026-05-02T16:08:15.619Z</time></trkpt><trkpt lat="42.852353" lon="13.5900931"><ele>152.0</ele><time>2026-05-02T16:08:17.62Z</time></trkpt><trkpt lat="42.8522559" lon="13.5900547"><ele>151.83333333333331</ele><time>2026-05-02T16:08:19.62Z</time></trkpt><trkpt lat="42.8521853" lon="13.590056"><ele>151.66666666666666</ele><time>2026-05-02T16:08:20.62Z</time></trkpt><trkpt lat="42.8521032" lon="13.590061"><ele>151.5</ele><time>2026-05-02T16:08:21.62Z</time></trkpt><trkpt lat="42.8520305" lon="13.5900699"><ele>151.33333333333334</ele><time>2026-05-02T16:08:22.62Z</time></trkpt><trkpt lat="42.8519571" lon="13.590079"><ele>151.16666666666669</ele><time>2026-05-02T16:08:23.62Z</time></trkpt><trkpt lat="42.8518656" lon="13.590112"><ele>151.0</ele><time>2026-05-02T16:08:24.62Z</time></trkpt><trkpt lat="42.8517874" lon="13.5901292"><ele>151.4</ele><time>2026-05-02T16:08:25.62Z</time></trkpt><trkpt lat="42.851692" lon="13.5901464"><ele>151.8</ele><time>2026-05-02T16:08:27.62Z</time></trkpt><trkpt lat="42.851624" lon="13.5901677"><ele>152.20000000000002</ele><time>2026-05-02T16:08:30.62Z</time></trkpt><trkpt lat="42.8515686" lon="13.5903178"><ele>152.6</ele><time>2026-05-02T16:08:33.62Z</time></trkpt><trkpt lat="42.851558" lon="13.5904245"><ele>153.0</ele><time>2026-05-02T16:08:34.619Z</time></trkpt><trkpt lat="42.8515454" lon="13.5905404"><ele>153.16666666666666</ele><time>2026-05-02T16:08:35.62Z</time></trkpt><trkpt lat="42.8515299" lon="13.5906562"><ele>153.33333333333334</ele><time>2026-05-02T16:08:36.62Z</time></trkpt><trkpt lat="42.8515147" lon="13.5907732"><ele>153.5</ele><time>2026-05-02T16:08:37.62Z</time></trkpt><trkpt lat="42.8514992" lon="13.5908868"><ele>153.66666666666669</ele><time>2026-05-02T16:08:38.62Z</time></trkpt><trkpt lat="42.8514843" lon="13.5910123"><ele>153.83333333333334</ele><time>2026-05-02T16:08:39.62Z</time></trkpt><trkpt lat="42.8514723" lon="13.5911411"><ele>154.0</ele><time>2026-05-02T16:08:40.619Z</time></trkpt><trkpt lat="42.8514557" lon="13.5912717"><ele>153.4</ele><time>2026-05-02T16:08:41.62Z</time></trkpt><trkpt lat="42.851438" lon="13.5914071"><ele>152.8</ele><time>2026-05-02T16:08:42.619Z</time></trkpt><trkpt lat="42.851421" lon="13.5915453"><ele>152.2</ele><time>2026-05-02T16:08:43.62Z</time></trkpt><trkpt lat="42.8514042" lon="13.5916974"><ele>151.6</ele><time>2026-05-02T16:08:44.62Z</time></trkpt><trkpt lat="42.8513937" lon="13.5918585"><ele>151.0</ele><time>2026-05-02T16:08:45.62Z</time></trkpt><trkpt lat="42.8513847" lon="13.5920029"><ele>150.2</ele><time>2026-05-02T16:08:46.62Z</time></trkpt><trkpt lat="42.8513759" lon="13.5921353"><ele>149.39999999999998</ele><time>2026-05-02T16:08:47.62Z</time></trkpt><trkpt lat="42.8513641" lon="13.5922584"><ele>148.6</ele><time>2026-05-02T16:08:48.619Z</time></trkpt><trkpt lat="42.8513542" lon="13.5923806"><ele>147.79999999999998</ele><time>2026-05-02T16:08:49.62Z</time></trkpt><trkpt lat="42.8513436" lon="13.5925023"><ele>147.0</ele><time>2026-05-02T16:08:50.62Z</time></trkpt><trkpt lat="42.8513347" lon="13.5926242"><ele>147.0</ele><time>2026-05-02T16:08:51.62Z</time></trkpt><trkpt lat="42.8513252" lon="13.5927439"><ele>147.0</ele><time>2026-05-02T16:08:52.62Z</time></trkpt><trkpt lat="42.8513138" lon="13.5928615"><ele>147.0</ele><time>2026-05-02T16:08:53.62Z</time></trkpt><trkpt lat="42.8513039" lon="13.5929764"><ele>147.0</ele><time>2026-05-02T16:08:54.62Z</time></trkpt><trkpt lat="42.8512944" lon="13.5930905"><ele>147.0</ele><time>2026-05-02T16:08:55.62Z</time></trkpt><trkpt lat="42.8512852" lon="13.5932048"><ele>147.0</ele><time>2026-05-02T16:08:56.62Z</time></trkpt><trkpt lat="42.8512757" lon="13.5933198"><ele>146.66666666666666</ele><time>2026-05-02T16:08:57.62Z</time></trkpt><trkpt lat="42.8512664" lon="13.5934359"><ele>146.33333333333334</ele><time>2026-05-02T16:08:58.619Z</time></trkpt><trkpt lat="42.8512568" lon="13.5935542"><ele>146.0</ele><time>2026-05-02T16:08:59.619Z</time></trkpt><trkpt lat="42.8512477" lon="13.5936762"><ele>145.66666666666669</ele><time>2026-05-02T16:09:00.62Z</time></trkpt><trkpt lat="42.8512395" lon="13.5937968"><ele>145.33333333333334</ele><time>2026-05-02T16:09:01.62Z</time></trkpt><trkpt lat="42.8512283" lon="13.5939209"><ele>145.0</ele><time>2026-05-02T16:09:02.62Z</time></trkpt><trkpt lat="42.8512129" lon="13.5940481"><ele>144.8</ele><time>2026-05-02T16:09:03.62Z</time></trkpt><trkpt lat="42.8512028" lon="13.5941756"><ele>144.6</ele><time>2026-05-02T16:09:04.62Z</time></trkpt><trkpt lat="42.851195" lon="13.5943005"><ele>144.4</ele><time>2026-05-02T16:09:05.619Z</time></trkpt><trkpt lat="42.8511866" lon="13.5944327"><ele>144.2</ele><time>2026-05-02T16:09:06.62Z</time></trkpt><trkpt lat="42.8511739" lon="13.5945682"><ele>144.0</ele><time>2026-05-02T16:09:07.62Z</time></trkpt><trkpt lat="42.8511551" lon="13.5947099"><ele>142.75</ele><time>2026-05-02T16:09:08.62Z</time></trkpt><trkpt lat="42.8511301" lon="13.5948634"><ele>141.5</ele><time>2026-05-02T16:09:09.62Z</time></trkpt><trkpt lat="42.8510996" lon="13.59501"><ele>140.25</ele><time>2026-05-02T16:09:10.62Z</time></trkpt><trkpt lat="42.8510714" lon="13.5951592"><ele>139.0</ele><time>2026-05-02T16:09:11.62Z</time></trkpt><trkpt lat="42.8510438" lon="13.5953106"><ele>139.0</ele><time>2026-05-02T16:09:12.62Z</time></trkpt><trkpt lat="42.8510139" lon="13.5954603"><ele>139.0</ele><time>2026-05-02T16:09:13.621Z</time></trkpt><trkpt lat="42.8509849" lon="13.5956094"><ele>139.0</ele><time>2026-05-02T16:09:14.621Z</time></trkpt><trkpt lat="42.8509546" lon="13.5957516"><ele>139.0</ele><time>2026-05-02T16:09:15.619Z</time></trkpt><trkpt lat="42.8509227" lon="13.5958851"><ele>139.0</ele><time>2026-05-02T16:09:16.62Z</time></trkpt><trkpt lat="42.8508935" lon="13.5960167"><ele>139.0</ele><time>2026-05-02T16:09:17.62Z</time></trkpt><trkpt lat="42.8508652" lon="13.5961456"><ele>139.0</ele><time>2026-05-02T16:09:18.621Z</time></trkpt><trkpt lat="42.8508356" lon="13.5962669"><ele>139.0</ele><time>2026-05-02T16:09:19.619Z</time></trkpt><trkpt lat="42.8508083" lon="13.5963842"><ele>139.0</ele><time>2026-05-02T16:09:20.62Z</time></trkpt><trkpt lat="42.8507791" lon="13.5965112"><ele>139.0</ele><time>2026-05-02T16:09:21.62Z</time></trkpt><trkpt lat="42.8507513" lon="13.5966299"><ele>139.0</ele><time>2026-05-02T16:09:22.62Z</time></trkpt><trkpt lat="42.8507213" lon="13.596739"><ele>139.0</ele><time>2026-05-02T16:09:23.62Z</time></trkpt><trkpt lat="42.8506879" lon="13.5968534"><ele>139.0</ele><time>2026-05-02T16:09:24.62Z</time></trkpt><trkpt lat="42.8506532" lon="13.5969634"><ele>139.0</ele><time>2026-05-02T16:09:25.621Z</time></trkpt><trkpt lat="42.8506148" lon="13.5970734"><ele>139.0</ele><time>2026-05-02T16:09:26.621Z</time></trkpt><trkpt lat="42.850581" lon="13.597185"><ele>139.0</ele><time>2026-05-02T16:09:27.621Z</time></trkpt><trkpt lat="42.8505455" lon="13.5972909"><ele>139.2</ele><time>2026-05-02T16:09:28.621Z</time></trkpt><trkpt lat="42.8505105" lon="13.5973944"><ele>139.4</ele><time>2026-05-02T16:09:29.62Z</time></trkpt><trkpt lat="42.8504784" lon="13.5975054"><ele>139.6</ele><time>2026-05-02T16:09:30.621Z</time></trkpt><trkpt lat="42.8504448" lon="13.5976268"><ele>139.8</ele><time>2026-05-02T16:09:31.621Z</time></trkpt><trkpt lat="42.850407" lon="13.5977486"><ele>140.0</ele><time>2026-05-02T16:09:32.621Z</time></trkpt><trkpt lat="42.8503721" lon="13.5978702"><ele>139.16666666666666</ele><time>2026-05-02T16:09:33.621Z</time></trkpt><trkpt lat="42.8503338" lon="13.5979818"><ele>138.33333333333331</ele><time>2026-05-02T16:09:34.621Z</time></trkpt><trkpt lat="42.8502945" lon="13.5980858"><ele>137.5</ele><time>2026-05-02T16:09:35.621Z</time></trkpt><trkpt lat="42.8502565" lon="13.598181"><ele>136.66666666666666</ele><time>2026-05-02T16:09:36.621Z</time></trkpt><trkpt lat="42.850215" lon="13.5982615"><ele>135.83333333333334</ele><time>2026-05-02T16:09:37.621Z</time></trkpt><trkpt lat="42.8501651" lon="13.598319"><ele>135.0</ele><time>2026-05-02T16:09:38.621Z</time></trkpt><trkpt lat="42.8500603" lon="13.5983684"><ele>134.8</ele><time>2026-05-02T16:09:40.621Z</time></trkpt><trkpt lat="42.8499797" lon="13.5984377"><ele>134.6</ele><time>2026-05-02T16:09:42.621Z</time></trkpt><trkpt lat="42.8499338" lon="13.5985721"><ele>134.4</ele><time>2026-05-02T16:09:44.621Z</time></trkpt><trkpt lat="42.8499189" lon="13.5986813"><ele>134.2</ele><time>2026-05-02T16:09:45.621Z</time></trkpt><trkpt lat="42.849889" lon="13.5988064"><ele>134.0</ele><time>2026-05-02T16:09:46.621Z</time></trkpt><trkpt lat="42.8498465" lon="13.5989435"><ele>133.0</ele><time>2026-05-02T16:09:47.621Z</time></trkpt><trkpt lat="42.8497965" lon="13.5990869"><ele>132.0</ele><time>2026-05-02T16:09:48.621Z</time></trkpt><trkpt lat="42.8497408" lon="13.5992343"><ele>131.0</ele><time>2026-05-02T16:09:49.621Z</time></trkpt><trkpt lat="42.8496849" lon="13.5993741"><ele>130.0</ele><time>2026-05-02T16:09:50.621Z</time></trkpt><trkpt lat="42.8496298" lon="13.5995079"><ele>129.6</ele><time>2026-05-02T16:09:51.621Z</time></trkpt><trkpt lat="42.8495782" lon="13.5996326"><ele>129.2</ele><time>2026-05-02T16:09:52.621Z</time></trkpt><trkpt lat="42.8495328" lon="13.5997595"><ele>128.8</ele><time>2026-05-02T16:09:53.621Z</time></trkpt><trkpt lat="42.8494954" lon="13.5998927"><ele>128.4</ele><time>2026-05-02T16:09:54.621Z</time></trkpt><trkpt lat="42.8494625" lon="13.6000301"><ele>128.0</ele><time>2026-05-02T16:09:55.621Z</time></trkpt><trkpt lat="42.8494278" lon="13.6001702"><ele>128.0</ele><time>2026-05-02T16:09:56.621Z</time></trkpt><trkpt lat="42.8493937" lon="13.6003116"><ele>128.0</ele><time>2026-05-02T16:09:57.621Z</time></trkpt><trkpt lat="42.8493602" lon="13.6004493"><ele>128.0</ele><time>2026-05-02T16:09:58.621Z</time></trkpt><trkpt lat="42.8493282" lon="13.6005775"><ele>128.0</ele><time>2026-05-02T16:09:59.621Z</time></trkpt><trkpt lat="42.849294" lon="13.6007069"><ele>128.0</ele><time>2026-05-02T16:10:00.621Z</time></trkpt><trkpt lat="42.8492607" lon="13.6008425"><ele>127.75</ele><time>2026-05-02T16:10:01.621Z</time></trkpt><trkpt lat="42.8492248" lon="13.600979"><ele>127.5</ele><time>2026-05-02T16:10:02.62Z</time></trkpt><trkpt lat="42.849191" lon="13.6011229"><ele>127.25</ele><time>2026-05-02T16:10:03.62Z</time></trkpt><trkpt lat="42.8491579" lon="13.6012778"><ele>127.0</ele><time>2026-05-02T16:10:04.621Z</time></trkpt><trkpt lat="42.8491237" lon="13.6014414"><ele>126.75</ele><time>2026-05-02T16:10:05.621Z</time></trkpt><trkpt lat="42.8490914" lon="13.6016077"><ele>126.5</ele><time>2026-05-02T16:10:06.62Z</time></trkpt><trkpt lat="42.8490565" lon="13.6017642"><ele>126.25</ele><time>2026-05-02T16:10:07.62Z</time></trkpt><trkpt lat="42.8490227" lon="13.601912"><ele>126.0</ele><time>2026-05-02T16:10:08.62Z</time></trkpt><trkpt lat="42.8489927" lon="13.6020443"><ele>126.0</ele><time>2026-05-02T16:10:09.621Z</time></trkpt><trkpt lat="42.8489662" lon="13.6021568"><ele>126.0</ele><time>2026-05-02T16:10:10.621Z</time></trkpt><trkpt lat="42.8489326" lon="13.6022367"><ele>126.0</ele><time>2026-05-02T16:10:11.621Z</time></trkpt><trkpt lat="42.848884" lon="13.6022919"><ele>126.0</ele><time>2026-05-02T16:10:12.62Z</time></trkpt><trkpt lat="42.8488361" lon="13.6023481"><ele>126.0</ele><time>2026-05-02T16:10:13.621Z</time></trkpt><trkpt lat="42.8488206" lon="13.6024892"><ele>126.0</ele><time>2026-05-02T16:10:15.62Z</time></trkpt><trkpt lat="42.8488478" lon="13.6026364"><ele>126.0</ele><time>2026-05-02T16:10:17.621Z</time></trkpt><trkpt lat="42.8488405" lon="13.6027288"><ele>126.0</ele><time>2026-05-02T16:10:18.621Z</time></trkpt><trkpt lat="42.8488199" lon="13.6028426"><ele>126.0</ele><time>2026-05-02T16:10:19.621Z</time></trkpt><trkpt lat="42.8487964" lon="13.6029791"><ele>126.0</ele><time>2026-05-02T16:10:20.621Z</time></trkpt><trkpt lat="42.8487704" lon="13.6031256"><ele>126.0</ele><time>2026-05-02T16:10:21.621Z</time></trkpt><trkpt lat="42.848746" lon="13.6032738"><ele>126.0</ele><time>2026-05-02T16:10:22.621Z</time></trkpt><trkpt lat="42.8486925" lon="13.6035993"><ele>126.0</ele><time>2026-05-02T16:10:24.622Z</time></trkpt><trkpt lat="42.8486603" lon="13.6037748"><ele>126.0</ele><time>2026-05-02T16:10:25.621Z</time></trkpt><trkpt lat="42.8486282" lon="13.603947"><ele>125.75</ele><time>2026-05-02T16:10:26.622Z</time></trkpt><trkpt lat="42.8485939" lon="13.604126"><ele>125.5</ele><time>2026-05-02T16:10:27.622Z</time></trkpt><trkpt lat="42.8485588" lon="13.6043118"><ele>125.25</ele><time>2026-05-02T16:10:28.621Z</time></trkpt><trkpt lat="42.8485241" lon="13.6044993"><ele>125.0</ele><time>2026-05-02T16:10:29.622Z</time></trkpt><trkpt lat="42.8484872" lon="13.6046936"><ele>124.75</ele><time>2026-05-02T16:10:30.621Z</time></trkpt><trkpt lat="42.8484471" lon="13.6048851"><ele>124.5</ele><time>2026-05-02T16:10:31.622Z</time></trkpt><trkpt lat="42.848396" lon="13.6050671"><ele>124.25</ele><time>2026-05-02T16:10:32.622Z</time></trkpt><trkpt lat="42.8483352" lon="13.6052412"><ele>124.0</ele><time>2026-05-02T16:10:33.622Z</time></trkpt><trkpt lat="42.8482675" lon="13.6054076"><ele>123.5</ele><time>2026-05-02T16:10:34.622Z</time></trkpt><trkpt lat="42.848195" lon="13.6055708"><ele>123.0</ele><time>2026-05-02T16:10:35.622Z</time></trkpt><trkpt lat="42.8481263" lon="13.605733"><ele>122.5</ele><time>2026-05-02T16:10:36.622Z</time></trkpt><trkpt lat="42.8480636" lon="13.6058823"><ele>122.0</ele><time>2026-05-02T16:10:37.622Z</time></trkpt><trkpt lat="42.8480094" lon="13.6060154"><ele>122.0</ele><time>2026-05-02T16:10:38.622Z</time></trkpt><trkpt lat="42.8479612" lon="13.6061348"><ele>121.99999999999999</ele><time>2026-05-02T16:10:39.622Z</time></trkpt><trkpt lat="42.8479132" lon="13.6062483"><ele>121.99999999999999</ele><time>2026-05-02T16:10:40.622Z</time></trkpt><trkpt lat="42.8478612" lon="13.6063679"><ele>122.0</ele><time>2026-05-02T16:10:41.622Z</time></trkpt><trkpt lat="42.8478064" lon="13.6064904"><ele>122.0</ele><time>2026-05-02T16:10:42.622Z</time></trkpt><trkpt lat="42.8477533" lon="13.6066149"><ele>122.19999999999999</ele><time>2026-05-02T16:10:43.622Z</time></trkpt><trkpt lat="42.8477027" lon="13.6067412"><ele>122.39999999999999</ele><time>2026-05-02T16:10:44.622Z</time></trkpt><trkpt lat="42.8476531" lon="13.6068664"><ele>122.60000000000001</ele><time>2026-05-02T16:10:45.622Z</time></trkpt><trkpt lat="42.8476043" lon="13.606992"><ele>122.80000000000001</ele><time>2026-05-02T16:10:46.622Z</time></trkpt><trkpt lat="42.8475585" lon="13.607118"><ele>123.0</ele><time>2026-05-02T16:10:47.622Z</time></trkpt><trkpt lat="42.8475161" lon="13.6072414"><ele>122.66666666666667</ele><time>2026-05-02T16:10:48.622Z</time></trkpt><trkpt lat="42.8474741" lon="13.6073629"><ele>122.33333333333334</ele><time>2026-05-02T16:10:49.622Z</time></trkpt><trkpt lat="42.8474405" lon="13.607478"><ele>122.0</ele><time>2026-05-02T16:10:50.621Z</time></trkpt><trkpt lat="42.8474124" lon="13.6075833"><ele>121.66666666666667</ele><time>2026-05-02T16:10:51.621Z</time></trkpt><trkpt lat="42.8473865" lon="13.6076803"><ele>121.33333333333334</ele><time>2026-05-02T16:10:52.622Z</time></trkpt><trkpt lat="42.8473545" lon="13.6077951"><ele>121.0</ele><time>2026-05-02T16:10:53.622Z</time></trkpt><trkpt lat="42.8473144" lon="13.6079373"><ele>120.75</ele><time>2026-05-02T16:10:54.621Z</time></trkpt><trkpt lat="42.8472633" lon="13.6081028"><ele>120.5</ele><time>2026-05-02T16:10:55.622Z</time></trkpt><trkpt lat="42.8472103" lon="13.6082661"><ele>120.25</ele><time>2026-05-02T16:10:56.622Z</time></trkpt><trkpt lat="42.8471569" lon="13.6084233"><ele>120.0</ele><time>2026-05-02T16:10:57.622Z</time></trkpt><trkpt lat="42.8471097" lon="13.6085821"><ele>119.75</ele><time>2026-05-02T16:10:58.622Z</time></trkpt><trkpt lat="42.8470684" lon="13.608736"><ele>119.5</ele><time>2026-05-02T16:10:59.621Z</time></trkpt><trkpt lat="42.8470273" lon="13.6088833"><ele>119.25</ele><time>2026-05-02T16:11:00.622Z</time></trkpt><trkpt lat="42.8469885" lon="13.6090274"><ele>119.0</ele><time>2026-05-02T16:11:01.622Z</time></trkpt><trkpt lat="42.8469547" lon="13.6091675"><ele>119.0</ele><time>2026-05-02T16:11:02.621Z</time></trkpt><trkpt lat="42.8469252" lon="13.6093036"><ele>119.0</ele><time>2026-05-02T16:11:03.622Z</time></trkpt><trkpt lat="42.8468986" lon="13.6094354"><ele>119.0</ele><time>2026-05-02T16:11:04.622Z</time></trkpt><trkpt lat="42.846875" lon="13.6095646"><ele>119.0</ele><time>2026-05-02T16:11:05.622Z</time></trkpt><trkpt lat="42.8468517" lon="13.6096892"><ele>119.0</ele><time>2026-05-02T16:11:06.622Z</time></trkpt><trkpt lat="42.846832" lon="13.6098149"><ele>119.2</ele><time>2026-05-02T16:11:07.621Z</time></trkpt><trkpt lat="42.8468109" lon="13.6099402"><ele>119.4</ele><time>2026-05-02T16:11:08.621Z</time></trkpt><trkpt lat="42.8467892" lon="13.6100644"><ele>119.6</ele><time>2026-05-02T16:11:09.622Z</time></trkpt><trkpt lat="42.8467649" lon="13.6101857"><ele>119.8</ele><time>2026-05-02T16:11:10.622Z</time></trkpt><trkpt lat="42.8467415" lon="13.6103081"><ele>120.0</ele><time>2026-05-02T16:11:11.621Z</time></trkpt><trkpt lat="42.8467197" lon="13.6104424"><ele>119.6</ele><time>2026-05-02T16:11:12.622Z</time></trkpt><trkpt lat="42.8466988" lon="13.6105753"><ele>119.2</ele><time>2026-05-02T16:11:13.622Z</time></trkpt><trkpt lat="42.8466764" lon="13.6107107"><ele>118.80000000000001</ele><time>2026-05-02T16:11:14.622Z</time></trkpt><trkpt lat="42.8466536" lon="13.6108499"><ele>118.4</ele><time>2026-05-02T16:11:15.622Z</time></trkpt><trkpt lat="42.8466318" lon="13.6109879"><ele>118.0</ele><time>2026-05-02T16:11:16.621Z</time></trkpt><trkpt lat="42.8466125" lon="13.611131"><ele>118.0</ele><time>2026-05-02T16:11:17.622Z</time></trkpt><trkpt lat="42.8465924" lon="13.6112751"><ele>118.00000000000001</ele><time>2026-05-02T16:11:18.621Z</time></trkpt><trkpt lat="42.8465725" lon="13.6114224"><ele>118.00000000000001</ele><time>2026-05-02T16:11:19.622Z</time></trkpt><trkpt lat="42.8465472" lon="13.611577"><ele>118.0</ele><time>2026-05-02T16:11:20.622Z</time></trkpt><trkpt lat="42.8465233" lon="13.6117251"><ele>118.0</ele><time>2026-05-02T16:11:21.622Z</time></trkpt><trkpt lat="42.8464983" lon="13.6118779"><ele>118.0</ele><time>2026-05-02T16:11:22.622Z</time></trkpt><trkpt lat="42.8464757" lon="13.6120325"><ele>118.0</ele><time>2026-05-02T16:11:23.622Z</time></trkpt><trkpt lat="42.8464521" lon="13.6121984"><ele>118.0</ele><time>2026-05-02T16:11:24.622Z</time></trkpt><trkpt lat="42.8464287" lon="13.6123658"><ele>118.0</ele><time>2026-05-02T16:11:25.622Z</time></trkpt><trkpt lat="42.8464029" lon="13.6125362"><ele>118.0</ele><time>2026-05-02T16:11:26.622Z</time></trkpt><trkpt lat="42.8463397" lon="13.6128804"><ele>118.0</ele><time>2026-05-02T16:11:28.622Z</time></trkpt><trkpt lat="42.8463097" lon="13.6130514"><ele>118.0</ele><time>2026-05-02T16:11:29.622Z</time></trkpt><trkpt lat="42.846282" lon="13.6132171"><ele>118.0</ele><time>2026-05-02T16:11:30.622Z</time></trkpt><trkpt lat="42.8462532" lon="13.613382"><ele>118.0</ele><time>2026-05-02T16:11:31.623Z</time></trkpt><trkpt lat="42.8462242" lon="13.6135407"><ele>118.0</ele><time>2026-05-02T16:11:32.623Z</time></trkpt><trkpt lat="42.8461929" lon="13.6136979"><ele>118.0</ele><time>2026-05-02T16:11:33.623Z</time></trkpt><trkpt lat="42.8461568" lon="13.6138605"><ele>118.0</ele><time>2026-05-02T16:11:34.623Z</time></trkpt><trkpt lat="42.8461119" lon="13.614023"><ele>118.0</ele><time>2026-05-02T16:11:35.623Z</time></trkpt><trkpt lat="42.8460588" lon="13.614184"><ele>118.0</ele><time>2026-05-02T16:11:36.623Z</time></trkpt><trkpt lat="42.8459947" lon="13.6143424"><ele>118.0</ele><time>2026-05-02T16:11:37.623Z</time></trkpt><trkpt lat="42.8459258" lon="13.6145016"><ele>117.5</ele><time>2026-05-02T16:11:38.622Z</time></trkpt><trkpt lat="42.8458537" lon="13.6146606"><ele>117.0</ele><time>2026-05-02T16:11:39.623Z</time></trkpt><trkpt lat="42.8457817" lon="13.6148155"><ele>116.5</ele><time>2026-05-02T16:11:40.623Z</time></trkpt><trkpt lat="42.845708" lon="13.6149649"><ele>116.0</ele><time>2026-05-02T16:11:41.622Z</time></trkpt><trkpt lat="42.8456371" lon="13.6151185"><ele>116.0</ele><time>2026-05-02T16:11:42.623Z</time></trkpt><trkpt lat="42.845567" lon="13.6152697"><ele>116.0</ele><time>2026-05-02T16:11:43.623Z</time></trkpt><trkpt lat="42.8454962" lon="13.6154203"><ele>116.0</ele><time>2026-05-02T16:11:44.623Z</time></trkpt><trkpt lat="42.8454278" lon="13.6155706"><ele>116.0</ele><time>2026-05-02T16:11:45.623Z</time></trkpt><trkpt lat="42.8453589" lon="13.6157174"><ele>115.75</ele><time>2026-05-02T16:11:46.622Z</time></trkpt><trkpt lat="42.8452897" lon="13.6158628"><ele>115.5</ele><time>2026-05-02T16:11:47.623Z</time></trkpt><trkpt lat="42.8452179" lon="13.6160055"><ele>115.25</ele><time>2026-05-02T16:11:48.622Z</time></trkpt><trkpt lat="42.8451458" lon="13.6161495"><ele>115.0</ele><time>2026-05-02T16:11:49.623Z</time></trkpt><trkpt lat="42.8450787" lon="13.6162874"><ele>115.4</ele><time>2026-05-02T16:11:50.623Z</time></trkpt><trkpt lat="42.8450145" lon="13.6164195"><ele>115.8</ele><time>2026-05-02T16:11:51.623Z</time></trkpt><trkpt lat="42.8449539" lon="13.6165387"><ele>116.19999999999999</ele><time>2026-05-02T16:11:52.623Z</time></trkpt><trkpt lat="42.8449032" lon="13.6166485"><ele>116.6</ele><time>2026-05-02T16:11:53.623Z</time></trkpt><trkpt lat="42.8448493" lon="13.6167577"><ele>117.0</ele><time>2026-05-02T16:11:54.623Z</time></trkpt><trkpt lat="42.8447904" lon="13.6168673"><ele>117.0</ele><time>2026-05-02T16:11:55.623Z</time></trkpt><trkpt lat="42.8447218" lon="13.6169737"><ele>116.99999999999999</ele><time>2026-05-02T16:11:56.623Z</time></trkpt><trkpt lat="42.8446347" lon="13.6170765"><ele>116.99999999999999</ele><time>2026-05-02T16:11:57.623Z</time></trkpt><trkpt lat="42.84454" lon="13.6171673"><ele>117.0</ele><time>2026-05-02T16:11:58.622Z</time></trkpt><trkpt lat="42.8444571" lon="13.6172449"><ele>117.0</ele><time>2026-05-02T16:11:59.623Z</time></trkpt><trkpt lat="42.8443985" lon="13.6173241"><ele>116.0</ele><time>2026-05-02T16:12:00.623Z</time></trkpt><trkpt lat="42.8443706" lon="13.6174176"><ele>114.99999999999999</ele><time>2026-05-02T16:12:01.623Z</time></trkpt><trkpt lat="42.8443564" lon="13.617531"><ele>113.99999999999999</ele><time>2026-05-02T16:12:02.623Z</time></trkpt><trkpt lat="42.8443651" lon="13.6176719"><ele>113.0</ele><time>2026-05-02T16:12:03.623Z</time></trkpt><trkpt lat="42.8443993" lon="13.6178156"><ele>112.0</ele><time>2026-05-02T16:12:04.623Z</time></trkpt><trkpt lat="42.8444319" lon="13.6179767"><ele>111.75</ele><time>2026-05-02T16:12:05.623Z</time></trkpt><trkpt lat="42.844442" lon="13.6181332"><ele>111.5</ele><time>2026-05-02T16:12:06.622Z</time></trkpt><trkpt lat="42.844426" lon="13.6182907"><ele>111.25</ele><time>2026-05-02T16:12:07.623Z</time></trkpt><trkpt lat="42.8444033" lon="13.6184474"><ele>111.0</ele><time>2026-05-02T16:12:08.623Z</time></trkpt><trkpt lat="42.8443786" lon="13.618609"><ele>111.75</ele><time>2026-05-02T16:12:09.622Z</time></trkpt><trkpt lat="42.8443544" lon="13.6187733"><ele>112.5</ele><time>2026-05-02T16:12:10.623Z</time></trkpt><trkpt lat="42.8443275" lon="13.6189406"><ele>113.25</ele><time>2026-05-02T16:12:11.624Z</time></trkpt><trkpt lat="42.8442995" lon="13.6191137"><ele>114.0</ele><time>2026-05-02T16:12:12.623Z</time></trkpt><trkpt lat="42.8442742" lon="13.6192782"><ele>114.25</ele><time>2026-05-02T16:12:13.623Z</time></trkpt><trkpt lat="42.8442483" lon="13.6194524"><ele>114.5</ele><time>2026-05-02T16:12:14.623Z</time></trkpt><trkpt lat="42.8442186" lon="13.6196317"><ele>114.75</ele><time>2026-05-02T16:12:15.623Z</time></trkpt><trkpt lat="42.8441847" lon="13.6198068"><ele>115.0</ele><time>2026-05-02T16:12:16.622Z</time></trkpt><trkpt lat="42.8441482" lon="13.6199734"><ele>115.4</ele><time>2026-05-02T16:12:17.623Z</time></trkpt><trkpt lat="42.8441058" lon="13.6201357"><ele>115.8</ele><time>2026-05-02T16:12:18.623Z</time></trkpt><trkpt lat="42.8440669" lon="13.6202757"><ele>116.19999999999999</ele><time>2026-05-02T16:12:19.622Z</time></trkpt><trkpt lat="42.8440304" lon="13.6204043"><ele>116.6</ele><time>2026-05-02T16:12:20.623Z</time></trkpt><trkpt lat="42.8439922" lon="13.6205367"><ele>117.0</ele><time>2026-05-02T16:12:21.623Z</time></trkpt><trkpt lat="42.8439494" lon="13.620675"><ele>117.0</ele><time>2026-05-02T16:12:22.624Z</time></trkpt><trkpt lat="42.843905" lon="13.620807"><ele>116.99999999999999</ele><time>2026-05-02T16:12:23.624Z</time></trkpt><trkpt lat="42.843864" lon="13.620942"><ele>116.99999999999999</ele><time>2026-05-02T16:12:24.623Z</time></trkpt><trkpt lat="42.8438224" lon="13.6210763"><ele>117.0</ele><time>2026-05-02T16:12:25.622Z</time></trkpt><trkpt lat="42.8437801" lon="13.6212035"><ele>117.0</ele><time>2026-05-02T16:12:26.623Z</time></trkpt><trkpt lat="42.8437425" lon="13.6213119"><ele>117.0</ele><time>2026-05-02T16:12:27.623Z</time></trkpt><trkpt lat="42.8437108" lon="13.6214016"><ele>116.99999999999999</ele><time>2026-05-02T16:12:28.623Z</time></trkpt><trkpt lat="42.8436663" lon="13.6215392"><ele>116.99999999999999</ele><time>2026-05-02T16:12:30.623Z</time></trkpt><trkpt lat="42.8436355" lon="13.6216522"><ele>117.0</ele><time>2026-05-02T16:12:32.624Z</time></trkpt><trkpt lat="42.8435978" lon="13.6217963"><ele>117.0</ele><time>2026-05-02T16:12:34.623Z</time></trkpt><trkpt lat="42.843553" lon="13.6219591"><ele>116.8</ele><time>2026-05-02T16:12:36.624Z</time></trkpt><trkpt lat="42.8435268" lon="13.6220411"><ele>116.6</ele><time>2026-05-02T16:12:37.623Z</time></trkpt><trkpt lat="42.8434857" lon="13.6221857"><ele>116.39999999999999</ele><time>2026-05-02T16:12:39.624Z</time></trkpt><trkpt lat="42.843468" lon="13.6223332"><ele>116.19999999999999</ele><time>2026-05-02T16:12:41.623Z</time></trkpt><trkpt lat="42.8434772" lon="13.6224901"><ele>116.0</ele><time>2026-05-02T16:12:43.624Z</time></trkpt><trkpt lat="42.8434618" lon="13.6226054"><ele>117.0</ele><time>2026-05-02T16:12:45.624Z</time></trkpt><trkpt lat="42.8433997" lon="13.62271"><ele>118.0</ele><time>2026-05-02T16:12:47.624Z</time></trkpt><trkpt lat="42.84331" lon="13.6228186"><ele>119.0</ele><time>2026-05-02T16:12:49.624Z</time></trkpt><trkpt lat="42.8432927" lon="13.6229844"><ele>120.0</ele><time>2026-05-02T16:12:51.624Z</time></trkpt><trkpt lat="42.8433257" lon="13.6230688"><ele>121.0</ele><time>2026-05-02T16:12:52.624Z</time></trkpt><trkpt lat="42.8433785" lon="13.6231209"><ele>120.16666666666667</ele><time>2026-05-02T16:12:53.624Z</time></trkpt><trkpt lat="42.8434996" lon="13.6231302"><ele>119.33333333333334</ele><time>2026-05-02T16:12:55.624Z</time></trkpt><trkpt lat="42.843566" lon="13.623095"><ele>118.5</ele><time>2026-05-02T16:12:56.624Z</time></trkpt><trkpt lat="42.8436268" lon="13.6230151"><ele>117.66666666666666</ele><time>2026-05-02T16:12:57.624Z</time></trkpt><trkpt lat="42.8436787" lon="13.6229589"><ele>116.83333333333333</ele><time>2026-05-02T16:12:58.624Z</time></trkpt><trkpt lat="42.84374" lon="13.622934"><ele>116.0</ele><time>2026-05-02T16:12:59.624Z</time></trkpt><trkpt lat="42.8438595" lon="13.6229513"><ele>116.0</ele><time>2026-05-02T16:13:01.624Z</time></trkpt><trkpt lat="42.843964" lon="13.6229932"><ele>116.0</ele><time>2026-05-02T16:13:03.624Z</time></trkpt><trkpt lat="42.8440418" lon="13.6230487"><ele>116.0</ele><time>2026-05-02T16:13:05.624Z</time></trkpt><trkpt lat="42.8440679" lon="13.6231725"><ele>116.0</ele><time>2026-05-02T16:13:07.624Z</time></trkpt><trkpt lat="42.8440586" lon="13.6232864"><ele>116.0</ele><time>2026-05-02T16:13:08.624Z</time></trkpt><trkpt lat="42.8440312" lon="13.6234297"><ele>116.0</ele><time>2026-05-02T16:13:09.623Z</time></trkpt><trkpt lat="42.8440099" lon="13.6235777"><ele>116.0</ele><time>2026-05-02T16:13:10.623Z</time></trkpt><trkpt lat="42.843996" lon="13.6237067"><ele>116.0</ele><time>2026-05-02T16:13:11.624Z</time></trkpt><trkpt lat="42.8439801" lon="13.623825"><ele>116.0</ele><time>2026-05-02T16:13:12.624Z</time></trkpt><trkpt lat="42.8439636" lon="13.6239422"><ele>116.0</ele><time>2026-05-02T16:13:13.624Z</time></trkpt><trkpt lat="42.8439471" lon="13.6240702"><ele>115.6</ele><time>2026-05-02T16:13:14.623Z</time></trkpt><trkpt lat="42.843934" lon="13.6242064"><ele>115.19999999999999</ele><time>2026-05-02T16:13:15.624Z</time></trkpt><trkpt lat="42.8439292" lon="13.6243513"><ele>114.80000000000001</ele><time>2026-05-02T16:13:16.623Z</time></trkpt><trkpt lat="42.8439318" lon="13.6245064"><ele>114.4</ele><time>2026-05-02T16:13:17.624Z</time></trkpt><trkpt lat="42.8439395" lon="13.6246692"><ele>114.0</ele><time>2026-05-02T16:13:18.624Z</time></trkpt><trkpt lat="42.8439484" lon="13.6248402"><ele>113.75</ele><time>2026-05-02T16:13:19.624Z</time></trkpt><trkpt lat="42.8439585" lon="13.6250189"><ele>113.5</ele><time>2026-05-02T16:13:20.623Z</time></trkpt><trkpt lat="42.8439676" lon="13.6252059"><ele>113.25</ele><time>2026-05-02T16:13:21.624Z</time></trkpt><trkpt lat="42.8439807" lon="13.6253991"><ele>113.0</ele><time>2026-05-02T16:13:22.624Z</time></trkpt><trkpt lat="42.8439949" lon="13.625599"><ele>111.66666666666666</ele><time>2026-05-02T16:13:23.624Z</time></trkpt><trkpt lat="42.8440098" lon="13.6258007"><ele>110.33333333333334</ele><time>2026-05-02T16:13:24.624Z</time></trkpt><trkpt lat="42.8440213" lon="13.6260115"><ele>109.0</ele><time>2026-05-02T16:13:25.624Z</time></trkpt><trkpt lat="42.8440358" lon="13.6262333"><ele>109.0</ele><time>2026-05-02T16:13:26.624Z</time></trkpt><trkpt lat="42.8440548" lon="13.6264544"><ele>109.0</ele><time>2026-05-02T16:13:27.625Z</time></trkpt><trkpt lat="42.844075" lon="13.6266719"><ele>109.0</ele><time>2026-05-02T16:13:28.624Z</time></trkpt><trkpt lat="42.8440961" lon="13.6268938"><ele>109.66666666666667</ele><time>2026-05-02T16:13:29.624Z</time></trkpt><trkpt lat="42.844111" lon="13.6271143"><ele>110.33333333333334</ele><time>2026-05-02T16:13:30.624Z</time></trkpt><trkpt lat="42.8441225" lon="13.627344"><ele>111.0</ele><time>2026-05-02T16:13:31.624Z</time></trkpt><trkpt lat="42.8441352" lon="13.6275759"><ele>111.0</ele><time>2026-05-02T16:13:32.624Z</time></trkpt><trkpt lat="42.8441515" lon="13.6278093"><ele>111.0</ele><time>2026-05-02T16:13:33.624Z</time></trkpt><trkpt lat="42.8441715" lon="13.6280421"><ele>111.0</ele><time>2026-05-02T16:13:34.624Z</time></trkpt><trkpt lat="42.844194" lon="13.6282788"><ele>111.0</ele><time>2026-05-02T16:13:35.625Z</time></trkpt><trkpt lat="42.8442164" lon="13.6285131"><ele>111.0</ele><time>2026-05-02T16:13:36.623Z</time></trkpt><trkpt lat="42.8442412" lon="13.6287531"><ele>111.0</ele><time>2026-05-02T16:13:37.624Z</time></trkpt><trkpt lat="42.8442671" lon="13.6289895"><ele>110.33333333333334</ele><time>2026-05-02T16:13:38.624Z</time></trkpt><trkpt lat="42.8442949" lon="13.6292314"><ele>109.66666666666667</ele><time>2026-05-02T16:13:39.624Z</time></trkpt><trkpt lat="42.8443273" lon="13.6294736"><ele>109.0</ele><time>2026-05-02T16:13:40.625Z</time></trkpt><trkpt lat="42.8443613" lon="13.6297194"><ele>108.66666666666667</ele><time>2026-05-02T16:13:41.625Z</time></trkpt><trkpt lat="42.8444025" lon="13.6299643"><ele>108.33333333333334</ele><time>2026-05-02T16:13:42.625Z</time></trkpt><trkpt lat="42.8444437" lon="13.6302136"><ele>108.0</ele><time>2026-05-02T16:13:43.625Z</time></trkpt><trkpt lat="42.8444829" lon="13.630454"><ele>108.0</ele><time>2026-05-02T16:13:44.624Z</time></trkpt><trkpt lat="42.8445274" lon="13.6306908"><ele>108.0</ele><time>2026-05-02T16:13:45.625Z</time></trkpt><trkpt lat="42.8445703" lon="13.6309308"><ele>108.0</ele><time>2026-05-02T16:13:46.625Z</time></trkpt><trkpt lat="42.8446143" lon="13.6311768"><ele>107.66666666666666</ele><time>2026-05-02T16:13:47.625Z</time></trkpt><trkpt lat="42.8446594" lon="13.6314141"><ele>107.33333333333333</ele><time>2026-05-02T16:13:48.625Z</time></trkpt><trkpt lat="42.8447077" lon="13.6316575"><ele>107.0</ele><time>2026-05-02T16:13:49.625Z</time></trkpt><trkpt lat="42.8447527" lon="13.631898"><ele>106.66666666666666</ele><time>2026-05-02T16:13:50.624Z</time></trkpt><trkpt lat="42.8447962" lon="13.6321391"><ele>106.33333333333334</ele><time>2026-05-02T16:13:51.625Z</time></trkpt><trkpt lat="42.8448384" lon="13.632382"><ele>106.0</ele><time>2026-05-02T16:13:52.625Z</time></trkpt><trkpt lat="42.8448829" lon="13.6326285"><ele>105.33333333333334</ele><time>2026-05-02T16:13:53.625Z</time></trkpt><trkpt lat="42.8449305" lon="13.6328729"><ele>104.66666666666666</ele><time>2026-05-02T16:13:54.625Z</time></trkpt><trkpt lat="42.8449704" lon="13.6331187"><ele>104.0</ele><time>2026-05-02T16:13:55.625Z</time></trkpt><trkpt lat="42.8450132" lon="13.6333654"><ele>104.0</ele><time>2026-05-02T16:13:56.624Z</time></trkpt><trkpt lat="42.8450512" lon="13.6336159"><ele>104.0</ele><time>2026-05-02T16:13:57.625Z</time></trkpt><trkpt lat="42.8450842" lon="13.6338642"><ele>104.0</ele><time>2026-05-02T16:13:58.625Z</time></trkpt><trkpt lat="42.8451107" lon="13.6341144"><ele>103.33333333333333</ele><time>2026-05-02T16:13:59.625Z</time></trkpt><trkpt lat="42.8451364" lon="13.6343545"><ele>102.66666666666666</ele><time>2026-05-02T16:14:00.625Z</time></trkpt><trkpt lat="42.8451553" lon="13.6345993"><ele>102.0</ele><time>2026-05-02T16:14:01.625Z</time></trkpt><trkpt lat="42.8451571" lon="13.6348587"><ele>102.0</ele><time>2026-05-02T16:14:02.625Z</time></trkpt><trkpt lat="42.8451553" lon="13.6351119"><ele>102.0</ele><time>2026-05-02T16:14:03.625Z</time></trkpt><trkpt lat="42.8451498" lon="13.6353549"><ele>102.0</ele><time>2026-05-02T16:14:04.624Z</time></trkpt><trkpt lat="42.8451361" lon="13.6355913"><ele>102.66666666666666</ele><time>2026-05-02T16:14:05.625Z</time></trkpt><trkpt lat="42.8451188" lon="13.6358189"><ele>103.33333333333333</ele><time>2026-05-02T16:14:06.625Z</time></trkpt><trkpt lat="42.8451065" lon="13.6360329"><ele>104.0</ele><time>2026-05-02T16:14:07.624Z</time></trkpt><trkpt lat="42.8450929" lon="13.6362388"><ele>104.0</ele><time>2026-05-02T16:14:08.624Z</time></trkpt><trkpt lat="42.845079" lon="13.6364319"><ele>104.0</ele><time>2026-05-02T16:14:09.625Z</time></trkpt><trkpt lat="42.8450718" lon="13.6366194"><ele>104.0</ele><time>2026-05-02T16:14:10.624Z</time></trkpt><trkpt lat="42.8450684" lon="13.636799"><ele>104.0</ele><time>2026-05-02T16:14:11.625Z</time></trkpt><trkpt lat="42.8450582" lon="13.6369878"><ele>103.75</ele><time>2026-05-02T16:14:12.624Z</time></trkpt><trkpt lat="42.8450572" lon="13.6371764"><ele>103.5</ele><time>2026-05-02T16:14:13.625Z</time></trkpt><trkpt lat="42.8450464" lon="13.6373766"><ele>103.25</ele><time>2026-05-02T16:14:14.625Z</time></trkpt><trkpt lat="42.84503" lon="13.6375885"><ele>103.0</ele><time>2026-05-02T16:14:15.625Z</time></trkpt><trkpt lat="42.8450105" lon="13.6377929"><ele>103.25</ele><time>2026-05-02T16:14:16.624Z</time></trkpt><trkpt lat="42.8449957" lon="13.6379818"><ele>103.5</ele><time>2026-05-02T16:14:17.625Z</time></trkpt><trkpt lat="42.8449658" lon="13.6382707"><ele>103.75</ele><time>2026-05-02T16:14:19.624Z</time></trkpt><trkpt lat="42.8449442" lon="13.6383539"><ele>104.0</ele><time>2026-05-02T16:14:20.625Z</time></trkpt><trkpt lat="42.8449054" lon="13.6384969"><ele>103.99999999999999</ele><time>2026-05-02T16:14:22.625Z</time></trkpt><trkpt lat="42.8449096" lon="13.6386071"><ele>104.0</ele><time>2026-05-02T16:14:24.625Z</time></trkpt><trkpt lat="42.8449146" lon="13.6386978"><ele>104.0</ele><time>2026-05-02T16:14:26.625Z</time></trkpt><trkpt lat="42.8448991" lon="13.6388143"><ele>104.0</ele><time>2026-05-02T16:14:29.625Z</time></trkpt><trkpt lat="42.8449079" lon="13.6389264"><ele>103.99999999999999</ele><time>2026-05-02T16:14:50.626Z</time></trkpt><trkpt lat="42.8449284" lon="13.639038"><ele>104.0</ele><time>2026-05-02T16:14:51.625Z</time></trkpt><trkpt lat="42.8449378" lon="13.6391393"><ele>103.80000000000001</ele><time>2026-05-02T16:14:52.626Z</time></trkpt><trkpt lat="42.8449435" lon="13.6392402"><ele>103.60000000000001</ele><time>2026-05-02T16:14:53.626Z</time></trkpt><trkpt lat="42.8449392" lon="13.6393563"><ele>103.4</ele><time>2026-05-02T16:14:54.626Z</time></trkpt><trkpt lat="42.8449284" lon="13.6394961"><ele>103.2</ele><time>2026-05-02T16:14:55.626Z</time></trkpt><trkpt lat="42.8449223" lon="13.6396458"><ele>103.0</ele><time>2026-05-02T16:14:56.626Z</time></trkpt><trkpt lat="42.8449177" lon="13.6397992"><ele>103.5</ele><time>2026-05-02T16:14:57.626Z</time></trkpt><trkpt lat="42.8449131" lon="13.6399646"><ele>104.0</ele><time>2026-05-02T16:14:58.625Z</time></trkpt><trkpt lat="42.8449114" lon="13.6401418"><ele>104.5</ele><time>2026-05-02T16:14:59.626Z</time></trkpt><trkpt lat="42.844911" lon="13.6403345"><ele>105.0</ele><time>2026-05-02T16:15:00.626Z</time></trkpt><trkpt lat="42.8449152" lon="13.6405301"><ele>105.0</ele><time>2026-05-02T16:15:01.626Z</time></trkpt><trkpt lat="42.8449227" lon="13.6407326"><ele>105.0</ele><time>2026-05-02T16:15:02.626Z</time></trkpt><trkpt lat="42.844939" lon="13.6409305"><ele>105.0</ele><time>2026-05-02T16:15:03.626Z</time></trkpt><trkpt lat="42.8449564" lon="13.6411326"><ele>105.0</ele><time>2026-05-02T16:15:04.626Z</time></trkpt><trkpt lat="42.8449761" lon="13.6413394"><ele>105.33333333333334</ele><time>2026-05-02T16:15:05.625Z</time></trkpt><trkpt lat="42.8449957" lon="13.6415496"><ele>105.66666666666667</ele><time>2026-05-02T16:15:06.626Z</time></trkpt><trkpt lat="42.8450155" lon="13.6417716"><ele>106.0</ele><time>2026-05-02T16:15:07.626Z</time></trkpt><trkpt lat="42.8450346" lon="13.6419951"><ele>106.0</ele><time>2026-05-02T16:15:08.626Z</time></trkpt><trkpt lat="42.8450573" lon="13.6422173"><ele>106.0</ele><time>2026-05-02T16:15:09.626Z</time></trkpt><trkpt lat="42.8450833" lon="13.6424492"><ele>106.0</ele><time>2026-05-02T16:15:10.626Z</time></trkpt><trkpt lat="42.8451068" lon="13.6426837"><ele>104.33333333333334</ele><time>2026-05-02T16:15:11.626Z</time></trkpt><trkpt lat="42.8451337" lon="13.6429299"><ele>102.66666666666666</ele><time>2026-05-02T16:15:12.626Z</time></trkpt><trkpt lat="42.8451632" lon="13.6431789"><ele>101.0</ele><time>2026-05-02T16:15:13.625Z</time></trkpt><trkpt lat="42.8451912" lon="13.6434297"><ele>99.33333333333333</ele><time>2026-05-02T16:15:14.626Z</time></trkpt><trkpt lat="42.8452191" lon="13.6436846"><ele>97.66666666666666</ele><time>2026-05-02T16:15:15.625Z</time></trkpt><trkpt lat="42.8452441" lon="13.6439432"><ele>96.0</ele><time>2026-05-02T16:15:16.626Z</time></trkpt><trkpt lat="42.8452687" lon="13.6442"><ele>96.0</ele><time>2026-05-02T16:15:17.625Z</time></trkpt><trkpt lat="42.8452939" lon="13.6444621"><ele>96.0</ele><time>2026-05-02T16:15:18.625Z</time></trkpt><trkpt lat="42.84532" lon="13.6447221"><ele>96.0</ele><time>2026-05-02T16:15:19.626Z</time></trkpt><trkpt lat="42.8453457" lon="13.6449818"><ele>95.0</ele><time>2026-05-02T16:15:20.625Z</time></trkpt><trkpt lat="42.845375" lon="13.6452437"><ele>94.0</ele><time>2026-05-02T16:15:21.625Z</time></trkpt><trkpt lat="42.845405" lon="13.6455044"><ele>93.0</ele><time>2026-05-02T16:15:22.626Z</time></trkpt><trkpt lat="42.8454357" lon="13.6457641"><ele>92.66666666666667</ele><time>2026-05-02T16:15:23.626Z</time></trkpt><trkpt lat="42.8454593" lon="13.6460296"><ele>92.33333333333334</ele><time>2026-05-02T16:15:24.625Z</time></trkpt><trkpt lat="42.8454872" lon="13.6462886"><ele>92.0</ele><time>2026-05-02T16:15:25.626Z</time></trkpt><trkpt lat="42.8455168" lon="13.6465464"><ele>92.0</ele><time>2026-05-02T16:15:26.626Z</time></trkpt><trkpt lat="42.8455453" lon="13.6468047"><ele>92.0</ele><time>2026-05-02T16:15:27.625Z</time></trkpt><trkpt lat="42.8455756" lon="13.6470654"><ele>92.0</ele><time>2026-05-02T16:15:28.626Z</time></trkpt><trkpt lat="42.8456072" lon="13.6473266"><ele>91.66666666666667</ele><time>2026-05-02T16:15:29.626Z</time></trkpt><trkpt lat="42.845636" lon="13.6475905"><ele>91.33333333333333</ele><time>2026-05-02T16:15:30.626Z</time></trkpt><trkpt lat="42.845666" lon="13.6478513"><ele>91.0</ele><time>2026-05-02T16:15:31.626Z</time></trkpt><trkpt lat="42.845692" lon="13.6481145"><ele>90.33333333333333</ele><time>2026-05-02T16:15:32.625Z</time></trkpt><trkpt lat="42.8457206" lon="13.6483773"><ele>89.66666666666667</ele><time>2026-05-02T16:15:33.626Z</time></trkpt><trkpt lat="42.8457484" lon="13.6486376"><ele>89.0</ele><time>2026-05-02T16:15:34.626Z</time></trkpt><trkpt lat="42.84578" lon="13.6488925"><ele>89.0</ele><time>2026-05-02T16:15:35.626Z</time></trkpt><trkpt lat="42.8458069" lon="13.6491505"><ele>89.0</ele><time>2026-05-02T16:15:36.626Z</time></trkpt><trkpt lat="42.8458335" lon="13.6494135"><ele>89.0</ele><time>2026-05-02T16:15:37.625Z</time></trkpt><trkpt lat="42.845859" lon="13.6496667"><ele>88.66666666666667</ele><time>2026-05-02T16:15:38.626Z</time></trkpt><trkpt lat="42.8458861" lon="13.6499252"><ele>88.33333333333333</ele><time>2026-05-02T16:15:39.626Z</time></trkpt><trkpt lat="42.8459116" lon="13.6501881"><ele>88.0</ele><time>2026-05-02T16:15:40.626Z</time></trkpt><trkpt lat="42.8459356" lon="13.6504543"><ele>85.66666666666666</ele><time>2026-05-02T16:15:41.626Z</time></trkpt><trkpt lat="42.845965" lon="13.6507195"><ele>83.33333333333333</ele><time>2026-05-02T16:15:42.625Z</time></trkpt><trkpt lat="42.845993" lon="13.6509852"><ele>81.0</ele><time>2026-05-02T16:15:43.627Z</time></trkpt><trkpt lat="42.846022" lon="13.6512493"><ele>80.0</ele><time>2026-05-02T16:15:44.626Z</time></trkpt><trkpt lat="42.8460467" lon="13.6515124"><ele>79.0</ele><time>2026-05-02T16:15:45.626Z</time></trkpt><trkpt lat="42.8460718" lon="13.6517695"><ele>78.0</ele><time>2026-05-02T16:15:46.626Z</time></trkpt><trkpt lat="42.8460986" lon="13.6520276"><ele>78.0</ele><time>2026-05-02T16:15:47.626Z</time></trkpt><trkpt lat="42.8461293" lon="13.6522898"><ele>78.0</ele><time>2026-05-02T16:15:48.626Z</time></trkpt><trkpt lat="42.8461613" lon="13.6525558"><ele>78.0</ele><time>2026-05-02T16:15:49.627Z</time></trkpt><trkpt lat="42.8461857" lon="13.6528178"><ele>79.0</ele><time>2026-05-02T16:15:50.627Z</time></trkpt><trkpt lat="42.8462118" lon="13.6530818"><ele>80.0</ele><time>2026-05-02T16:15:51.626Z</time></trkpt><trkpt lat="42.8462431" lon="13.6533372"><ele>81.0</ele><time>2026-05-02T16:15:52.627Z</time></trkpt><trkpt lat="42.8462671" lon="13.6535998"><ele>80.33333333333333</ele><time>2026-05-02T16:15:53.626Z</time></trkpt><trkpt lat="42.846295" lon="13.653861"><ele>79.66666666666666</ele><time>2026-05-02T16:15:54.627Z</time></trkpt><trkpt lat="42.8463183" lon="13.6541264"><ele>79.0</ele><time>2026-05-02T16:15:55.627Z</time></trkpt><trkpt lat="42.8463442" lon="13.6543966"><ele>78.66666666666666</ele><time>2026-05-02T16:15:56.627Z</time></trkpt><trkpt lat="42.8463772" lon="13.6546605"><ele>78.33333333333333</ele><time>2026-05-02T16:15:57.627Z</time></trkpt><trkpt lat="42.8464098" lon="13.6549154"><ele>78.0</ele><time>2026-05-02T16:15:58.627Z</time></trkpt><trkpt lat="42.8464337" lon="13.6551829"><ele>78.66666666666667</ele><time>2026-05-02T16:15:59.627Z</time></trkpt><trkpt lat="42.8464577" lon="13.655449"><ele>79.33333333333334</ele><time>2026-05-02T16:16:00.627Z</time></trkpt><trkpt lat="42.8464802" lon="13.6557154"><ele>80.0</ele><time>2026-05-02T16:16:01.627Z</time></trkpt><trkpt lat="42.8464952" lon="13.6559855"><ele>79.0</ele><time>2026-05-02T16:16:02.626Z</time></trkpt><trkpt lat="42.8465092" lon="13.656252"><ele>78.0</ele><time>2026-05-02T16:16:03.627Z</time></trkpt><trkpt lat="42.8465189" lon="13.6565199"><ele>77.0</ele><time>2026-05-02T16:16:04.627Z</time></trkpt><trkpt lat="42.8465266" lon="13.6567863"><ele>77.33333333333334</ele><time>2026-05-02T16:16:05.627Z</time></trkpt><trkpt lat="42.8465341" lon="13.6570471"><ele>77.66666666666667</ele><time>2026-05-02T16:16:06.627Z</time></trkpt><trkpt lat="42.8465449" lon="13.6573034"><ele>78.0</ele><time>2026-05-02T16:16:07.627Z</time></trkpt><trkpt lat="42.8465604" lon="13.657551"><ele>77.33333333333333</ele><time>2026-05-02T16:16:08.627Z</time></trkpt><trkpt lat="42.8465758" lon="13.6577979"><ele>76.66666666666666</ele><time>2026-05-02T16:16:09.627Z</time></trkpt><trkpt lat="42.8465864" lon="13.6580503"><ele>76.0</ele><time>2026-05-02T16:16:10.627Z</time></trkpt><trkpt lat="42.8465995" lon="13.6582913"><ele>76.0</ele><time>2026-05-02T16:16:11.627Z</time></trkpt><trkpt lat="42.8466094" lon="13.6585408"><ele>76.0</ele><time>2026-05-02T16:16:12.627Z</time></trkpt><trkpt lat="42.8466263" lon="13.6587789"><ele>76.0</ele><time>2026-05-02T16:16:13.626Z</time></trkpt><trkpt lat="42.8466423" lon="13.6590193"><ele>76.0</ele><time>2026-05-02T16:16:14.627Z</time></trkpt><trkpt lat="42.846651" lon="13.6592608"><ele>76.0</ele><time>2026-05-02T16:16:15.627Z</time></trkpt><trkpt lat="42.8466528" lon="13.6595051"><ele>76.0</ele><time>2026-05-02T16:16:16.627Z</time></trkpt><trkpt lat="42.8466546" lon="13.659752"><ele>76.0</ele><time>2026-05-02T16:16:17.627Z</time></trkpt><trkpt lat="42.8466648" lon="13.6600003"><ele>76.0</ele><time>2026-05-02T16:16:18.627Z</time></trkpt><trkpt lat="42.8466753" lon="13.6602586"><ele>76.0</ele><time>2026-05-02T16:16:19.627Z</time></trkpt><trkpt lat="42.8466865" lon="13.6605264"><ele>76.33333333333333</ele><time>2026-05-02T16:16:20.627Z</time></trkpt><trkpt lat="42.8467007" lon="13.6607901"><ele>76.66666666666667</ele><time>2026-05-02T16:16:21.627Z</time></trkpt><trkpt lat="42.8467133" lon="13.6610545"><ele>77.0</ele><time>2026-05-02T16:16:22.627Z</time></trkpt><trkpt lat="42.8467265" lon="13.6613185"><ele>77.0</ele><time>2026-05-02T16:16:23.627Z</time></trkpt><trkpt lat="42.8467451" lon="13.661571"><ele>77.0</ele><time>2026-05-02T16:16:24.627Z</time></trkpt><trkpt lat="42.8467513" lon="13.6618256"><ele>77.0</ele><time>2026-05-02T16:16:25.627Z</time></trkpt><trkpt lat="42.846763" lon="13.6620661"><ele>76.66666666666667</ele><time>2026-05-02T16:16:26.626Z</time></trkpt><trkpt lat="42.8467845" lon="13.6622812"><ele>76.33333333333333</ele><time>2026-05-02T16:16:27.627Z</time></trkpt><trkpt lat="42.8467895" lon="13.6625014"><ele>76.0</ele><time>2026-05-02T16:16:28.627Z</time></trkpt><trkpt lat="42.8467895" lon="13.662714"><ele>75.0</ele><time>2026-05-02T16:16:29.627Z</time></trkpt><trkpt lat="42.8468044" lon="13.662919"><ele>74.0</ele><time>2026-05-02T16:16:30.626Z</time></trkpt><trkpt lat="42.8468202" lon="13.6631302"><ele>73.0</ele><time>2026-05-02T16:16:31.627Z</time></trkpt><trkpt lat="42.8468358" lon="13.663342"><ele>73.0</ele><time>2026-05-02T16:16:32.627Z</time></trkpt><trkpt lat="42.8468534" lon="13.663551"><ele>73.0</ele><time>2026-05-02T16:16:33.627Z</time></trkpt><trkpt lat="42.8468782" lon="13.6637472"><ele>73.0</ele><time>2026-05-02T16:16:34.627Z</time></trkpt><trkpt lat="42.846908" lon="13.6639498"><ele>73.33333333333333</ele><time>2026-05-02T16:16:35.626Z</time></trkpt><trkpt lat="42.846952" lon="13.6641516"><ele>73.66666666666667</ele><time>2026-05-02T16:16:36.626Z</time></trkpt><trkpt lat="42.8470081" lon="13.6643551"><ele>74.0</ele><time>2026-05-02T16:16:37.626Z</time></trkpt><trkpt lat="42.8470777" lon="13.6645603"><ele>74.33333333333334</ele><time>2026-05-02T16:16:38.627Z</time></trkpt><trkpt lat="42.8471408" lon="13.6647684"><ele>74.66666666666667</ele><time>2026-05-02T16:16:39.627Z</time></trkpt><trkpt lat="42.8472048" lon="13.6649672"><ele>75.0</ele><time>2026-05-02T16:16:40.627Z</time></trkpt><trkpt lat="42.8472692" lon="13.6651547"><ele>74.0</ele><time>2026-05-02T16:16:41.627Z</time></trkpt><trkpt lat="42.8473262" lon="13.6653303"><ele>73.0</ele><time>2026-05-02T16:16:42.627Z</time></trkpt><trkpt lat="42.8473803" lon="13.6655041"><ele>72.0</ele><time>2026-05-02T16:16:43.627Z</time></trkpt><trkpt lat="42.8474307" lon="13.6656638"><ele>71.0</ele><time>2026-05-02T16:16:44.627Z</time></trkpt><trkpt lat="42.8474784" lon="13.6658163"><ele>71.0</ele><time>2026-05-02T16:16:45.627Z</time></trkpt><trkpt lat="42.8475169" lon="13.6659582"><ele>71.0</ele><time>2026-05-02T16:16:46.627Z</time></trkpt><trkpt lat="42.8475563" lon="13.6661028"><ele>71.0</ele><time>2026-05-02T16:16:47.626Z</time></trkpt><trkpt lat="42.8476004" lon="13.6662524"><ele>71.0</ele><time>2026-05-02T16:16:48.627Z</time></trkpt><trkpt lat="42.8476282" lon="13.6664053"><ele>71.0</ele><time>2026-05-02T16:16:49.627Z</time></trkpt><trkpt lat="42.8476446" lon="13.6665611"><ele>71.0</ele><time>2026-05-02T16:16:50.627Z</time></trkpt><trkpt lat="42.8476394" lon="13.6667186"><ele>71.0</ele><time>2026-05-02T16:16:51.627Z</time></trkpt><trkpt lat="42.8476024" lon="13.6668798"><ele>71.0</ele><time>2026-05-02T16:16:52.627Z</time></trkpt><trkpt lat="42.8475509" lon="13.6670424"><ele>71.25</ele><time>2026-05-02T16:16:53.628Z</time></trkpt><trkpt lat="42.8474986" lon="13.6672124"><ele>71.5</ele><time>2026-05-02T16:16:54.628Z</time></trkpt><trkpt lat="42.8474489" lon="13.6673853"><ele>71.75</ele><time>2026-05-02T16:16:55.628Z</time></trkpt><trkpt lat="42.8473941" lon="13.667572"><ele>72.0</ele><time>2026-05-02T16:16:56.628Z</time></trkpt><trkpt lat="42.8473341" lon="13.6677682"><ele>72.33333333333333</ele><time>2026-05-02T16:16:57.628Z</time></trkpt><trkpt lat="42.8472698" lon="13.6679684"><ele>72.66666666666666</ele><time>2026-05-02T16:16:58.628Z</time></trkpt><trkpt lat="42.8472072" lon="13.6681661"><ele>73.0</ele><time>2026-05-02T16:16:59.628Z</time></trkpt><trkpt lat="42.8471396" lon="13.6683712"><ele>73.0</ele><time>2026-05-02T16:17:00.628Z</time></trkpt><trkpt lat="42.8470707" lon="13.6685798"><ele>73.0</ele><time>2026-05-02T16:17:01.628Z</time></trkpt><trkpt lat="42.8470018" lon="13.6687931"><ele>73.0</ele><time>2026-05-02T16:17:02.627Z</time></trkpt><trkpt lat="42.8469299" lon="13.6690096"><ele>73.0</ele><time>2026-05-02T16:17:03.627Z</time></trkpt><trkpt lat="42.8468613" lon="13.66922"><ele>73.0</ele><time>2026-05-02T16:17:04.628Z</time></trkpt><trkpt lat="42.8467952" lon="13.6694231"><ele>73.0</ele><time>2026-05-02T16:17:05.627Z</time></trkpt><trkpt lat="42.8467321" lon="13.6696231"><ele>73.0</ele><time>2026-05-02T16:17:06.628Z</time></trkpt><trkpt lat="42.8466681" lon="13.6698239"><ele>73.0</ele><time>2026-05-02T16:17:07.628Z</time></trkpt><trkpt lat="42.8466079" lon="13.6700151"><ele>73.0</ele><time>2026-05-02T16:17:08.628Z</time></trkpt><trkpt lat="42.8465476" lon="13.6702003"><ele>73.0</ele><time>2026-05-02T16:17:09.628Z</time></trkpt><trkpt lat="42.8464869" lon="13.6703801"><ele>73.0</ele><time>2026-05-02T16:17:10.628Z</time></trkpt><trkpt lat="42.8464316" lon="13.6705637"><ele>73.0</ele><time>2026-05-02T16:17:11.628Z</time></trkpt><trkpt lat="42.8463739" lon="13.670753"><ele>73.0</ele><time>2026-05-02T16:17:12.628Z</time></trkpt><trkpt lat="42.8463149" lon="13.6709495"><ele>71.66666666666666</ele><time>2026-05-02T16:17:13.628Z</time></trkpt><trkpt lat="42.8462504" lon="13.6711576"><ele>70.33333333333333</ele><time>2026-05-02T16:17:14.628Z</time></trkpt><trkpt lat="42.8461991" lon="13.6713743"><ele>69.0</ele><time>2026-05-02T16:17:15.628Z</time></trkpt><trkpt lat="42.8461673" lon="13.6716019"><ele>69.0</ele><time>2026-05-02T16:17:16.628Z</time></trkpt><trkpt lat="42.8461528" lon="13.6718402"><ele>69.0</ele><time>2026-05-02T16:17:17.627Z</time></trkpt><trkpt lat="42.8461564" lon="13.6720841"><ele>69.0</ele><time>2026-05-02T16:17:18.628Z</time></trkpt><trkpt lat="42.8461649" lon="13.6723277"><ele>68.66666666666667</ele><time>2026-05-02T16:17:19.627Z</time></trkpt><trkpt lat="42.8461824" lon="13.6725625"><ele>68.33333333333334</ele><time>2026-05-02T16:17:20.628Z</time></trkpt><trkpt lat="42.8461928" lon="13.6728158"><ele>68.0</ele><time>2026-05-02T16:17:21.627Z</time></trkpt><trkpt lat="42.8462082" lon="13.6730704"><ele>68.0</ele><time>2026-05-02T16:17:22.628Z</time></trkpt><trkpt lat="42.8462214" lon="13.6733309"><ele>68.0</ele><time>2026-05-02T16:17:23.627Z</time></trkpt><trkpt lat="42.8462334" lon="13.6735939"><ele>68.0</ele><time>2026-05-02T16:17:24.628Z</time></trkpt><trkpt lat="42.8462486" lon="13.6738544"><ele>67.66666666666667</ele><time>2026-05-02T16:17:25.628Z</time></trkpt><trkpt lat="42.8462647" lon="13.6741202"><ele>67.33333333333333</ele><time>2026-05-02T16:17:26.628Z</time></trkpt><trkpt lat="42.8462745" lon="13.6743877"><ele>67.0</ele><time>2026-05-02T16:17:27.628Z</time></trkpt><trkpt lat="42.8462874" lon="13.6746528"><ele>67.0</ele><time>2026-05-02T16:17:28.628Z</time></trkpt><trkpt lat="42.8462971" lon="13.6749146"><ele>67.0</ele><time>2026-05-02T16:17:29.628Z</time></trkpt><trkpt lat="42.8463084" lon="13.6751798"><ele>67.0</ele><time>2026-05-02T16:17:30.628Z</time></trkpt><trkpt lat="42.8463203" lon="13.6754466"><ele>67.0</ele><time>2026-05-02T16:17:31.628Z</time></trkpt><trkpt lat="42.8463358" lon="13.6757088"><ele>67.0</ele><time>2026-05-02T16:17:32.628Z</time></trkpt><trkpt lat="42.8463482" lon="13.6759644"><ele>67.0</ele><time>2026-05-02T16:17:33.628Z</time></trkpt><trkpt lat="42.8463602" lon="13.6762176"><ele>67.0</ele><time>2026-05-02T16:17:34.627Z</time></trkpt><trkpt lat="42.8463753" lon="13.6764726"><ele>67.0</ele><time>2026-05-02T16:17:35.627Z</time></trkpt><trkpt lat="42.8463921" lon="13.6767347"><ele>67.0</ele><time>2026-05-02T16:17:36.627Z</time></trkpt><trkpt lat="42.8464056" lon="13.6769961"><ele>67.33333333333333</ele><time>2026-05-02T16:17:37.628Z</time></trkpt><trkpt lat="42.8464145" lon="13.6772528"><ele>67.66666666666667</ele><time>2026-05-02T16:17:38.627Z</time></trkpt><trkpt lat="42.8464298" lon="13.6775128"><ele>68.0</ele><time>2026-05-02T16:17:39.628Z</time></trkpt><trkpt lat="42.8464445" lon="13.6777754"><ele>67.33333333333334</ele><time>2026-05-02T16:17:40.627Z</time></trkpt><trkpt lat="42.8464526" lon="13.6780495"><ele>66.66666666666667</ele><time>2026-05-02T16:17:41.628Z</time></trkpt><trkpt lat="42.8464649" lon="13.678315"><ele>66.0</ele><time>2026-05-02T16:17:42.628Z</time></trkpt><trkpt lat="42.8464798" lon="13.6785816"><ele>65.66666666666667</ele><time>2026-05-02T16:17:43.628Z</time></trkpt><trkpt lat="42.846493" lon="13.6788486"><ele>65.33333333333334</ele><time>2026-05-02T16:17:44.627Z</time></trkpt><trkpt lat="42.8465069" lon="13.6791174"><ele>65.0</ele><time>2026-05-02T16:17:45.628Z</time></trkpt><trkpt lat="42.8465192" lon="13.6793835"><ele>65.33333333333334</ele><time>2026-05-02T16:17:46.628Z</time></trkpt><trkpt lat="42.8465336" lon="13.6796502"><ele>65.66666666666667</ele><time>2026-05-02T16:17:47.628Z</time></trkpt><trkpt lat="42.8465462" lon="13.6799212"><ele>66.0</ele><time>2026-05-02T16:17:48.627Z</time></trkpt><trkpt lat="42.8465591" lon="13.680193"><ele>66.66666666666667</ele><time>2026-05-02T16:17:49.627Z</time></trkpt><trkpt lat="42.8465732" lon="13.6804673"><ele>67.33333333333334</ele><time>2026-05-02T16:17:50.628Z</time></trkpt><trkpt lat="42.8465817" lon="13.680741"><ele>68.0</ele><time>2026-05-02T16:17:51.628Z</time></trkpt><trkpt lat="42.8465966" lon="13.6810153"><ele>68.0</ele><time>2026-05-02T16:17:52.628Z</time></trkpt><trkpt lat="42.8466127" lon="13.6812894"><ele>68.0</ele><time>2026-05-02T16:17:53.628Z</time></trkpt><trkpt lat="42.8466214" lon="13.6815634"><ele>68.0</ele><time>2026-05-02T16:17:54.628Z</time></trkpt><trkpt lat="42.8466297" lon="13.681833"><ele>68.0</ele><time>2026-05-02T16:17:55.628Z</time></trkpt><trkpt lat="42.8466552" lon="13.6823713"><ele>68.0</ele><time>2026-05-02T16:17:57.629Z</time></trkpt><trkpt lat="42.8466648" lon="13.6826359"><ele>68.33333333333334</ele><time>2026-05-02T16:17:58.629Z</time></trkpt><trkpt lat="42.846678" lon="13.6828986"><ele>68.66666666666667</ele><time>2026-05-02T16:17:59.629Z</time></trkpt><trkpt lat="42.8466927" lon="13.6831616"><ele>69.0</ele><time>2026-05-02T16:18:00.629Z</time></trkpt><trkpt lat="42.8467066" lon="13.6834265"><ele>69.0</ele><time>2026-05-02T16:18:01.628Z</time></trkpt><trkpt lat="42.8467195" lon="13.6837007"><ele>69.0</ele><time>2026-05-02T16:18:02.629Z</time></trkpt><trkpt lat="42.8467315" lon="13.6839735"><ele>69.0</ele><time>2026-05-02T16:18:03.628Z</time></trkpt><trkpt lat="42.8467432" lon="13.6842388"><ele>68.66666666666667</ele><time>2026-05-02T16:18:04.629Z</time></trkpt><trkpt lat="42.8467585" lon="13.6845096"><ele>68.33333333333334</ele><time>2026-05-02T16:18:05.629Z</time></trkpt><trkpt lat="42.8467723" lon="13.6847786"><ele>68.0</ele><time>2026-05-02T16:18:06.629Z</time></trkpt><trkpt lat="42.8467864" lon="13.6850466"><ele>68.33333333333334</ele><time>2026-05-02T16:18:07.629Z</time></trkpt><trkpt lat="42.8467913" lon="13.685325"><ele>68.66666666666667</ele><time>2026-05-02T16:18:08.628Z</time></trkpt><trkpt lat="42.8467996" lon="13.6855869"><ele>69.0</ele><time>2026-05-02T16:18:09.628Z</time></trkpt><trkpt lat="42.8468062" lon="13.6858558"><ele>67.33333333333333</ele><time>2026-05-02T16:18:10.629Z</time></trkpt><trkpt lat="42.8468173" lon="13.686122"><ele>65.66666666666666</ele><time>2026-05-02T16:18:11.629Z</time></trkpt><trkpt lat="42.8468283" lon="13.686389"><ele>64.0</ele><time>2026-05-02T16:18:12.629Z</time></trkpt><trkpt lat="42.8468445" lon="13.6866517"><ele>64.0</ele><time>2026-05-02T16:18:13.628Z</time></trkpt><trkpt lat="42.8468691" lon="13.6869041"><ele>64.0</ele><time>2026-05-02T16:18:14.629Z</time></trkpt><trkpt lat="42.8469097" lon="13.687151"><ele>64.0</ele><time>2026-05-02T16:18:15.629Z</time></trkpt><trkpt lat="42.8469662" lon="13.6873835"><ele>63.666666666666664</ele><time>2026-05-02T16:18:16.629Z</time></trkpt><trkpt lat="42.8470254" lon="13.6876117"><ele>63.33333333333333</ele><time>2026-05-02T16:18:17.629Z</time></trkpt><trkpt lat="42.847062" lon="13.6878491"><ele>63.0</ele><time>2026-05-02T16:18:18.629Z</time></trkpt><trkpt lat="42.8470725" lon="13.6880986"><ele>63.0</ele><time>2026-05-02T16:18:19.629Z</time></trkpt><trkpt lat="42.8470575" lon="13.68836"><ele>63.0</ele><time>2026-05-02T16:18:20.629Z</time></trkpt><trkpt lat="42.8470321" lon="13.688629"><ele>63.0</ele><time>2026-05-02T16:18:21.629Z</time></trkpt><trkpt lat="42.8470213" lon="13.6888917"><ele>63.0</ele><time>2026-05-02T16:18:22.629Z</time></trkpt><trkpt lat="42.8470225" lon="13.6891635"><ele>63.0</ele><time>2026-05-02T16:18:23.629Z</time></trkpt><trkpt lat="42.8470413" lon="13.689439"><ele>63.0</ele><time>2026-05-02T16:18:24.629Z</time></trkpt><trkpt lat="42.8470645" lon="13.6897168"><ele>63.0</ele><time>2026-05-02T16:18:25.628Z</time></trkpt><trkpt lat="42.8470901" lon="13.6899934"><ele>63.0</ele><time>2026-05-02T16:18:26.628Z</time></trkpt><trkpt lat="42.8471175" lon="13.6902649"><ele>63.0</ele><time>2026-05-02T16:18:27.628Z</time></trkpt><trkpt lat="42.8471402" lon="13.6905346"><ele>63.0</ele><time>2026-05-02T16:18:28.628Z</time></trkpt><trkpt lat="42.8471653" lon="13.6907992"><ele>63.0</ele><time>2026-05-02T16:18:29.629Z</time></trkpt><trkpt lat="42.847191" lon="13.6910653"><ele>63.0</ele><time>2026-05-02T16:18:30.628Z</time></trkpt><trkpt lat="42.847228" lon="13.6913214"><ele>64.0</ele><time>2026-05-02T16:18:31.629Z</time></trkpt><trkpt lat="42.8472757" lon="13.6915755"><ele>65.0</ele><time>2026-05-02T16:18:32.629Z</time></trkpt><trkpt lat="42.8473359" lon="13.6918327"><ele>66.0</ele><time>2026-05-02T16:18:33.629Z</time></trkpt><trkpt lat="42.8474066" lon="13.6920854"><ele>67.66666666666667</ele><time>2026-05-02T16:18:34.629Z</time></trkpt><trkpt lat="42.847475" lon="13.6923321"><ele>69.33333333333334</ele><time>2026-05-02T16:18:35.629Z</time></trkpt><trkpt lat="42.847534" lon="13.6925701"><ele>71.0</ele><time>2026-05-02T16:18:36.629Z</time></trkpt><trkpt lat="42.8475941" lon="13.6928016"><ele>67.33333333333334</ele><time>2026-05-02T16:18:37.628Z</time></trkpt><trkpt lat="42.8476483" lon="13.6930251"><ele>63.66666666666667</ele><time>2026-05-02T16:18:38.629Z</time></trkpt><trkpt lat="42.8476978" lon="13.6932536"><ele>60.0</ele><time>2026-05-02T16:18:39.629Z</time></trkpt><trkpt lat="42.84777" lon="13.6934814"><ele>61.0</ele><time>2026-05-02T16:18:40.629Z</time></trkpt><trkpt lat="42.8478422" lon="13.6937113"><ele>62.0</ele><time>2026-05-02T16:18:41.629Z</time></trkpt><trkpt lat="42.847934" lon="13.6939312"><ele>63.0</ele><time>2026-05-02T16:18:42.629Z</time></trkpt><trkpt lat="42.8480348" lon="13.6941476"><ele>63.0</ele><time>2026-05-02T16:18:43.629Z</time></trkpt><trkpt lat="42.8481323" lon="13.6943604"><ele>63.0</ele><time>2026-05-02T16:18:44.629Z</time></trkpt><trkpt lat="42.8482279" lon="13.6945672"><ele>63.0</ele><time>2026-05-02T16:18:45.629Z</time></trkpt><trkpt lat="42.8483213" lon="13.6947783"><ele>63.66666666666667</ele><time>2026-05-02T16:18:46.629Z</time></trkpt><trkpt lat="42.8484051" lon="13.6949936"><ele>64.33333333333334</ele><time>2026-05-02T16:18:47.629Z</time></trkpt><trkpt lat="42.8484789" lon="13.6952234"><ele>65.0</ele><time>2026-05-02T16:18:48.629Z</time></trkpt><trkpt lat="42.8485365" lon="13.6954625"><ele>63.0</ele><time>2026-05-02T16:18:49.629Z</time></trkpt><trkpt lat="42.8485734" lon="13.6957125"><ele>61.0</ele><time>2026-05-02T16:18:50.628Z</time></trkpt><trkpt lat="42.8485939" lon="13.6959622"><ele>59.0</ele><time>2026-05-02T16:18:51.629Z</time></trkpt><trkpt lat="42.8485953" lon="13.6962151"><ele>59.0</ele><time>2026-05-02T16:18:52.629Z</time></trkpt><trkpt lat="42.8485785" lon="13.6964735"><ele>59.0</ele><time>2026-05-02T16:18:53.629Z</time></trkpt><trkpt lat="42.8485549" lon="13.6967322"><ele>59.0</ele><time>2026-05-02T16:18:54.629Z</time></trkpt><trkpt lat="42.8485269" lon="13.6969912"><ele>59.0</ele><time>2026-05-02T16:18:55.629Z</time></trkpt><trkpt lat="42.8484988" lon="13.6972548"><ele>59.0</ele><time>2026-05-02T16:18:56.63Z</time></trkpt><trkpt lat="42.8484687" lon="13.6975239"><ele>59.0</ele><time>2026-05-02T16:18:57.628Z</time></trkpt><trkpt lat="42.8484409" lon="13.697799"><ele>60.333333333333336</ele><time>2026-05-02T16:18:58.629Z</time></trkpt><trkpt lat="42.8484133" lon="13.6980581"><ele>61.66666666666667</ele><time>2026-05-02T16:18:59.63Z</time></trkpt><trkpt lat="42.8483846" lon="13.6983083"><ele>63.0</ele><time>2026-05-02T16:19:00.63Z</time></trkpt><trkpt lat="42.8483631" lon="13.6985575"><ele>64.33333333333333</ele><time>2026-05-02T16:19:01.629Z</time></trkpt><trkpt lat="42.8483548" lon="13.6988037"><ele>65.66666666666666</ele><time>2026-05-02T16:19:02.629Z</time></trkpt><trkpt lat="42.8483659" lon="13.6990572"><ele>67.0</ele><time>2026-05-02T16:19:03.63Z</time></trkpt><trkpt lat="42.8483959" lon="13.6993142"><ele>67.33333333333333</ele><time>2026-05-02T16:19:04.63Z</time></trkpt><trkpt lat="42.848442" lon="13.6995665"><ele>67.66666666666667</ele><time>2026-05-02T16:19:05.63Z</time></trkpt><trkpt lat="42.8484946" lon="13.6998192"><ele>68.0</ele><time>2026-05-02T16:19:06.63Z</time></trkpt><trkpt lat="42.8485523" lon="13.700086"><ele>64.33333333333334</ele><time>2026-05-02T16:19:07.63Z</time></trkpt><trkpt lat="42.8486023" lon="13.7003379"><ele>60.66666666666667</ele><time>2026-05-02T16:19:08.63Z</time></trkpt><trkpt lat="42.8486536" lon="13.7005892"><ele>57.0</ele><time>2026-05-02T16:19:09.63Z</time></trkpt><trkpt lat="42.8487068" lon="13.7008315"><ele>57.0</ele><time>2026-05-02T16:19:10.63Z</time></trkpt><trkpt lat="42.8487592" lon="13.7010696"><ele>57.0</ele><time>2026-05-02T16:19:11.629Z</time></trkpt><trkpt lat="42.8487978" lon="13.701295"><ele>57.0</ele><time>2026-05-02T16:19:12.63Z</time></trkpt><trkpt lat="42.8488177" lon="13.7015152"><ele>57.33333333333333</ele><time>2026-05-02T16:19:13.63Z</time></trkpt><trkpt lat="42.8488189" lon="13.7017357"><ele>57.666666666666664</ele><time>2026-05-02T16:19:14.63Z</time></trkpt><trkpt lat="42.8488036" lon="13.7019568"><ele>58.0</ele><time>2026-05-02T16:19:15.63Z</time></trkpt><trkpt lat="42.8487607" lon="13.7021718"><ele>58.0</ele><time>2026-05-02T16:19:16.63Z</time></trkpt><trkpt lat="42.8486968" lon="13.7023928"><ele>58.0</ele><time>2026-05-02T16:19:17.629Z</time></trkpt><trkpt lat="42.8486185" lon="13.7026191"><ele>58.0</ele><time>2026-05-02T16:19:18.63Z</time></trkpt><trkpt lat="42.8485348" lon="13.7028503"><ele>59.666666666666664</ele><time>2026-05-02T16:19:19.63Z</time></trkpt><trkpt lat="42.8484515" lon="13.70309"><ele>61.33333333333333</ele><time>2026-05-02T16:19:20.63Z</time></trkpt><trkpt lat="42.8483714" lon="13.7033291"><ele>63.0</ele><time>2026-05-02T16:19:21.63Z</time></trkpt><trkpt lat="42.8482916" lon="13.7035671"><ele>62.66666666666667</ele><time>2026-05-02T16:19:22.63Z</time></trkpt><trkpt lat="42.8482146" lon="13.7038072"><ele>62.333333333333336</ele><time>2026-05-02T16:19:23.63Z</time></trkpt><trkpt lat="42.8481455" lon="13.7040459"><ele>62.0</ele><time>2026-05-02T16:19:24.63Z</time></trkpt><trkpt lat="42.8480737" lon="13.7043051"><ele>62.0</ele><time>2026-05-02T16:19:25.63Z</time></trkpt><trkpt lat="42.8480166" lon="13.7045673"><ele>62.0</ele><time>2026-05-02T16:19:26.63Z</time></trkpt><trkpt lat="42.8479733" lon="13.7048402"><ele>62.0</ele><time>2026-05-02T16:19:27.63Z</time></trkpt><trkpt lat="42.8479318" lon="13.7051063"><ele>61.0</ele><time>2026-05-02T16:19:28.63Z</time></trkpt><trkpt lat="42.8478897" lon="13.7053696"><ele>60.0</ele><time>2026-05-02T16:19:29.63Z</time></trkpt><trkpt lat="42.8478546" lon="13.7056259"><ele>59.0</ele><time>2026-05-02T16:19:30.63Z</time></trkpt><trkpt lat="42.8478259" lon="13.7058683"><ele>58.66666666666667</ele><time>2026-05-02T16:19:31.63Z</time></trkpt><trkpt lat="42.8478115" lon="13.7061153"><ele>58.33333333333333</ele><time>2026-05-02T16:19:32.63Z</time></trkpt><trkpt lat="42.8478099" lon="13.7063719"><ele>58.0</ele><time>2026-05-02T16:19:33.63Z</time></trkpt><trkpt lat="42.847828" lon="13.7066392"><ele>58.0</ele><time>2026-05-02T16:19:34.63Z</time></trkpt><trkpt lat="42.8478478" lon="13.7069084"><ele>58.0</ele><time>2026-05-02T16:19:35.629Z</time></trkpt><trkpt lat="42.8478695" lon="13.7071811"><ele>58.0</ele><time>2026-05-02T16:19:36.63Z</time></trkpt><trkpt lat="42.8478808" lon="13.707462"><ele>58.0</ele><time>2026-05-02T16:19:37.63Z</time></trkpt><trkpt lat="42.8478961" lon="13.70774"><ele>58.0</ele><time>2026-05-02T16:19:38.63Z</time></trkpt><trkpt lat="42.8479131" lon="13.7080218"><ele>58.0</ele><time>2026-05-02T16:19:39.63Z</time></trkpt><trkpt lat="42.8479328" lon="13.7082999"><ele>58.666666666666664</ele><time>2026-05-02T16:19:40.629Z</time></trkpt><trkpt lat="42.847951" lon="13.7085765"><ele>59.33333333333333</ele><time>2026-05-02T16:19:41.63Z</time></trkpt><trkpt lat="42.8479661" lon="13.7088542"><ele>60.0</ele><time>2026-05-02T16:19:42.63Z</time></trkpt><trkpt lat="42.847978" lon="13.7091275"><ele>60.0</ele><time>2026-05-02T16:19:43.63Z</time></trkpt><trkpt lat="42.8479895" lon="13.7093851"><ele>60.0</ele><time>2026-05-02T16:19:44.63Z</time></trkpt><trkpt lat="42.8480045" lon="13.7096415"><ele>60.0</ele><time>2026-05-02T16:19:45.629Z</time></trkpt><trkpt lat="42.8480207" lon="13.7099024"><ele>59.66666666666667</ele><time>2026-05-02T16:19:46.63Z</time></trkpt><trkpt lat="42.848043" lon="13.7101561"><ele>59.333333333333336</ele><time>2026-05-02T16:19:47.63Z</time></trkpt><trkpt lat="42.8480736" lon="13.7104221"><ele>59.0</ele><time>2026-05-02T16:19:48.629Z</time></trkpt><trkpt lat="42.8481147" lon="13.7106928"><ele>59.0</ele><time>2026-05-02T16:19:49.629Z</time></trkpt><trkpt lat="42.8481609" lon="13.7109556"><ele>59.0</ele><time>2026-05-02T16:19:50.63Z</time></trkpt><trkpt lat="42.8482164" lon="13.7112156"><ele>59.0</ele><time>2026-05-02T16:19:51.63Z</time></trkpt><trkpt lat="42.8482896" lon="13.7114833"><ele>60.0</ele><time>2026-05-02T16:19:52.63Z</time></trkpt><trkpt lat="42.8483607" lon="13.7117464"><ele>61.0</ele><time>2026-05-02T16:19:53.629Z</time></trkpt><trkpt lat="42.8484391" lon="13.7120046"><ele>62.0</ele><time>2026-05-02T16:19:54.63Z</time></trkpt><trkpt lat="42.8485173" lon="13.7122554"><ele>59.66666666666667</ele><time>2026-05-02T16:19:55.631Z</time></trkpt><trkpt lat="42.8486011" lon="13.712503"><ele>57.33333333333333</ele><time>2026-05-02T16:19:56.63Z</time></trkpt><trkpt lat="42.8486909" lon="13.7127468"><ele>55.0</ele><time>2026-05-02T16:19:57.63Z</time></trkpt><trkpt lat="42.8487789" lon="13.7129847"><ele>55.0</ele><time>2026-05-02T16:19:58.629Z</time></trkpt><trkpt lat="42.8488656" lon="13.713232"><ele>55.0</ele><time>2026-05-02T16:19:59.631Z</time></trkpt><trkpt lat="42.84895" lon="13.7134852"><ele>55.0</ele><time>2026-05-02T16:20:00.629Z</time></trkpt><trkpt lat="42.8490275" lon="13.7137378"><ele>57.0</ele><time>2026-05-02T16:20:01.631Z</time></trkpt><trkpt lat="42.8490953" lon="13.7139924"><ele>59.0</ele><time>2026-05-02T16:20:02.63Z</time></trkpt><trkpt lat="42.8491706" lon="13.7142588"><ele>61.0</ele><time>2026-05-02T16:20:03.629Z</time></trkpt><trkpt lat="42.8492488" lon="13.7145171"><ele>58.33333333333333</ele><time>2026-05-02T16:20:04.63Z</time></trkpt><trkpt lat="42.8493256" lon="13.7147756"><ele>55.66666666666667</ele><time>2026-05-02T16:20:05.631Z</time></trkpt><trkpt lat="42.849399" lon="13.7150303"><ele>53.0</ele><time>2026-05-02T16:20:06.631Z</time></trkpt><trkpt lat="42.849473" lon="13.7152724"><ele>52.66666666666667</ele><time>2026-05-02T16:20:07.63Z</time></trkpt><trkpt lat="42.8495453" lon="13.7155154"><ele>52.33333333333333</ele><time>2026-05-02T16:20:08.631Z</time></trkpt><trkpt lat="42.8496224" lon="13.7157614"><ele>52.0</ele><time>2026-05-02T16:20:09.631Z</time></trkpt><trkpt lat="42.8497126" lon="13.7160065"><ele>52.33333333333333</ele><time>2026-05-02T16:20:10.631Z</time></trkpt><trkpt lat="42.8498077" lon="13.7162576"><ele>52.66666666666667</ele><time>2026-05-02T16:20:11.631Z</time></trkpt><trkpt lat="42.8499115" lon="13.7165075"><ele>53.0</ele><time>2026-05-02T16:20:12.63Z</time></trkpt><trkpt lat="42.8500122" lon="13.7167608"><ele>53.0</ele><time>2026-05-02T16:20:13.631Z</time></trkpt><trkpt lat="42.8501095" lon="13.7170143"><ele>53.0</ele><time>2026-05-02T16:20:14.631Z</time></trkpt><trkpt lat="42.8502087" lon="13.7172761"><ele>53.0</ele><time>2026-05-02T16:20:15.631Z</time></trkpt><trkpt lat="42.8503069" lon="13.7175393"><ele>52.0</ele><time>2026-05-02T16:20:16.631Z</time></trkpt><trkpt lat="42.8504056" lon="13.7177997"><ele>51.0</ele><time>2026-05-02T16:20:17.631Z</time></trkpt><trkpt lat="42.8505071" lon="13.7180544"><ele>50.0</ele><time>2026-05-02T16:20:18.631Z</time></trkpt><trkpt lat="42.8506087" lon="13.7183082"><ele>50.0</ele><time>2026-05-02T16:20:19.63Z</time></trkpt><trkpt lat="42.8507098" lon="13.7185627"><ele>50.0</ele><time>2026-05-02T16:20:20.631Z</time></trkpt><trkpt lat="42.8508103" lon="13.7188124"><ele>50.0</ele><time>2026-05-02T16:20:21.63Z</time></trkpt><trkpt lat="42.850907" lon="13.7190553"><ele>50.0</ele><time>2026-05-02T16:20:22.631Z</time></trkpt><trkpt lat="42.8510007" lon="13.7192904"><ele>50.0</ele><time>2026-05-02T16:20:23.631Z</time></trkpt><trkpt lat="42.8510934" lon="13.7195232"><ele>50.0</ele><time>2026-05-02T16:20:24.631Z</time></trkpt><trkpt lat="42.8511844" lon="13.7197543"><ele>50.0</ele><time>2026-05-02T16:20:25.631Z</time></trkpt><trkpt lat="42.8512767" lon="13.7199811"><ele>50.0</ele><time>2026-05-02T16:20:26.631Z</time></trkpt><trkpt lat="42.8513686" lon="13.7202076"><ele>50.0</ele><time>2026-05-02T16:20:27.63Z</time></trkpt><trkpt lat="42.8514658" lon="13.7204287"><ele>50.333333333333336</ele><time>2026-05-02T16:20:28.631Z</time></trkpt><trkpt lat="42.851555" lon="13.7206538"><ele>50.66666666666667</ele><time>2026-05-02T16:20:29.631Z</time></trkpt><trkpt lat="42.8516332" lon="13.7208712"><ele>51.0</ele><time>2026-05-02T16:20:30.631Z</time></trkpt><trkpt lat="42.8517011" lon="13.7210925"><ele>51.0</ele><time>2026-05-02T16:20:31.631Z</time></trkpt><trkpt lat="42.851761" lon="13.721321"><ele>51.0</ele><time>2026-05-02T16:20:32.63Z</time></trkpt><trkpt lat="42.8518133" lon="13.7215621"><ele>51.0</ele><time>2026-05-02T16:20:33.63Z</time></trkpt><trkpt lat="42.8518629" lon="13.7218102"><ele>50.66666666666667</ele><time>2026-05-02T16:20:34.631Z</time></trkpt><trkpt lat="42.8519072" lon="13.72207"><ele>50.333333333333336</ele><time>2026-05-02T16:20:35.631Z</time></trkpt><trkpt lat="42.8519534" lon="13.7223292"><ele>50.0</ele><time>2026-05-02T16:20:36.631Z</time></trkpt><trkpt lat="42.8520047" lon="13.72258"><ele>51.0</ele><time>2026-05-02T16:20:37.631Z</time></trkpt><trkpt lat="42.8520581" lon="13.7228286"><ele>52.0</ele><time>2026-05-02T16:20:38.631Z</time></trkpt><trkpt lat="42.8521041" lon="13.7230804"><ele>53.0</ele><time>2026-05-02T16:20:39.63Z</time></trkpt><trkpt lat="42.852147" lon="13.7233345"><ele>53.333333333333336</ele><time>2026-05-02T16:20:40.631Z</time></trkpt><trkpt lat="42.8521975" lon="13.7235856"><ele>53.66666666666667</ele><time>2026-05-02T16:20:41.63Z</time></trkpt><trkpt lat="42.8522402" lon="13.7238357"><ele>54.0</ele><time>2026-05-02T16:20:42.631Z</time></trkpt><trkpt lat="42.8522881" lon="13.7240824"><ele>54.0</ele><time>2026-05-02T16:20:43.631Z</time></trkpt><trkpt lat="42.8523314" lon="13.7243378"><ele>54.0</ele><time>2026-05-02T16:20:44.631Z</time></trkpt><trkpt lat="42.8523792" lon="13.7245907"><ele>54.0</ele><time>2026-05-02T16:20:45.631Z</time></trkpt><trkpt lat="42.8524193" lon="13.7248425"><ele>52.33333333333333</ele><time>2026-05-02T16:20:46.631Z</time></trkpt><trkpt lat="42.8524531" lon="13.7250887"><ele>50.666666666666664</ele><time>2026-05-02T16:20:47.631Z</time></trkpt><trkpt lat="42.8524919" lon="13.7253234"><ele>49.0</ele><time>2026-05-02T16:20:48.631Z</time></trkpt><trkpt lat="42.8525382" lon="13.7255528"><ele>48.666666666666664</ele><time>2026-05-02T16:20:49.63Z</time></trkpt><trkpt lat="42.8525831" lon="13.7257873"><ele>48.33333333333333</ele><time>2026-05-02T16:20:50.631Z</time></trkpt><trkpt lat="42.8526264" lon="13.7260167"><ele>48.0</ele><time>2026-05-02T16:20:51.631Z</time></trkpt><trkpt lat="42.8526647" lon="13.7262525"><ele>47.666666666666664</ele><time>2026-05-02T16:20:52.63Z</time></trkpt><trkpt lat="42.8527097" lon="13.7264923"><ele>47.33333333333333</ele><time>2026-05-02T16:20:53.631Z</time></trkpt><trkpt lat="42.8527554" lon="13.726734"><ele>47.0</ele><time>2026-05-02T16:20:54.631Z</time></trkpt><trkpt lat="42.8528033" lon="13.7269875"><ele>47.0</ele><time>2026-05-02T16:20:55.631Z</time></trkpt><trkpt lat="42.8528491" lon="13.7272284"><ele>47.0</ele><time>2026-05-02T16:20:56.63Z</time></trkpt><trkpt lat="42.8528794" lon="13.7274615"><ele>47.0</ele><time>2026-05-02T16:20:57.631Z</time></trkpt><trkpt lat="42.8529091" lon="13.7276763"><ele>47.0</ele><time>2026-05-02T16:20:58.63Z</time></trkpt><trkpt lat="42.852943" lon="13.7278859"><ele>47.0</ele><time>2026-05-02T16:20:59.63Z</time></trkpt><trkpt lat="42.852979" lon="13.7280769"><ele>47.0</ele><time>2026-05-02T16:21:00.631Z</time></trkpt><trkpt lat="42.8530155" lon="13.7282681"><ele>47.0</ele><time>2026-05-02T16:21:01.631Z</time></trkpt><trkpt lat="42.8530528" lon="13.7284701"><ele>47.0</ele><time>2026-05-02T16:21:02.631Z</time></trkpt><trkpt lat="42.8530921" lon="13.728683"><ele>47.0</ele><time>2026-05-02T16:21:03.63Z</time></trkpt><trkpt lat="42.8531289" lon="13.7289207"><ele>47.0</ele><time>2026-05-02T16:21:04.631Z</time></trkpt><trkpt lat="42.8531656" lon="13.7291656"><ele>47.666666666666664</ele><time>2026-05-02T16:21:05.631Z</time></trkpt><trkpt lat="42.8531984" lon="13.7294105"><ele>48.33333333333333</ele><time>2026-05-02T16:21:06.63Z</time></trkpt><trkpt lat="42.8532217" lon="13.7296623"><ele>49.0</ele><time>2026-05-02T16:21:07.631Z</time></trkpt><trkpt lat="42.8532305" lon="13.7299156"><ele>49.0</ele><time>2026-05-02T16:21:08.632Z</time></trkpt><trkpt lat="42.8532272" lon="13.7301671"><ele>49.0</ele><time>2026-05-02T16:21:09.632Z</time></trkpt><trkpt lat="42.8532187" lon="13.7304207"><ele>49.0</ele><time>2026-05-02T16:21:10.632Z</time></trkpt><trkpt lat="42.853204" lon="13.7306779"><ele>48.33333333333333</ele><time>2026-05-02T16:21:11.632Z</time></trkpt><trkpt lat="42.8531841" lon="13.7309372"><ele>47.666666666666664</ele><time>2026-05-02T16:21:12.631Z</time></trkpt><trkpt lat="42.8531591" lon="13.7312032"><ele>47.0</ele><time>2026-05-02T16:21:13.632Z</time></trkpt><trkpt lat="42.8531316" lon="13.7314733"><ele>47.0</ele><time>2026-05-02T16:21:14.632Z</time></trkpt><trkpt lat="42.8531123" lon="13.7317373"><ele>47.0</ele><time>2026-05-02T16:21:15.631Z</time></trkpt><trkpt lat="42.8530867" lon="13.7320075"><ele>47.0</ele><time>2026-05-02T16:21:16.632Z</time></trkpt><trkpt lat="42.8530634" lon="13.7322708"><ele>47.0</ele><time>2026-05-02T16:21:17.631Z</time></trkpt><trkpt lat="42.8530411" lon="13.732536"><ele>47.0</ele><time>2026-05-02T16:21:18.632Z</time></trkpt><trkpt lat="42.8530153" lon="13.732798"><ele>47.0</ele><time>2026-05-02T16:21:19.632Z</time></trkpt><trkpt lat="42.8529922" lon="13.7330701"><ele>47.0</ele><time>2026-05-02T16:21:20.632Z</time></trkpt><trkpt lat="42.8529727" lon="13.7333344"><ele>47.0</ele><time>2026-05-02T16:21:21.631Z</time></trkpt><trkpt lat="42.8529575" lon="13.7335944"><ele>47.0</ele><time>2026-05-02T16:21:22.632Z</time></trkpt><trkpt lat="42.8529366" lon="13.7338576"><ele>46.33333333333333</ele><time>2026-05-02T16:21:23.632Z</time></trkpt><trkpt lat="42.8529121" lon="13.734119"><ele>45.666666666666664</ele><time>2026-05-02T16:21:24.632Z</time></trkpt><trkpt lat="42.8528901" lon="13.7343771"><ele>45.0</ele><time>2026-05-02T16:21:25.632Z</time></trkpt><trkpt lat="42.852871" lon="13.7346294"><ele>45.0</ele><time>2026-05-02T16:21:26.631Z</time></trkpt><trkpt lat="42.852851" lon="13.7348759"><ele>45.0</ele><time>2026-05-02T16:21:27.632Z</time></trkpt><trkpt lat="42.8528273" lon="13.7351179"><ele>45.0</ele><time>2026-05-02T16:21:28.632Z</time></trkpt><trkpt lat="42.8528049" lon="13.7353568"><ele>45.0</ele><time>2026-05-02T16:21:29.632Z</time></trkpt><trkpt lat="42.8527834" lon="13.7355967"><ele>45.0</ele><time>2026-05-02T16:21:30.631Z</time></trkpt><trkpt lat="42.8527656" lon="13.7358343"><ele>45.0</ele><time>2026-05-02T16:21:31.632Z</time></trkpt><trkpt lat="42.8527414" lon="13.7360785"><ele>45.0</ele><time>2026-05-02T16:21:32.632Z</time></trkpt><trkpt lat="42.8527401" lon="13.7363187"><ele>45.0</ele><time>2026-05-02T16:21:33.632Z</time></trkpt><trkpt lat="42.8527511" lon="13.7365537"><ele>45.0</ele><time>2026-05-02T16:21:34.632Z</time></trkpt><trkpt lat="42.8527672" lon="13.7367897"><ele>45.0</ele><time>2026-05-02T16:21:35.632Z</time></trkpt><trkpt lat="42.8528011" lon="13.737019"><ele>45.0</ele><time>2026-05-02T16:21:36.632Z</time></trkpt><trkpt lat="42.8528397" lon="13.7372472"><ele>45.0</ele><time>2026-05-02T16:21:37.632Z</time></trkpt><trkpt lat="42.8528749" lon="13.7374829"><ele>45.0</ele><time>2026-05-02T16:21:38.632Z</time></trkpt><trkpt lat="42.8529132" lon="13.7377182"><ele>45.0</ele><time>2026-05-02T16:21:39.632Z</time></trkpt><trkpt lat="42.852952" lon="13.737957"><ele>45.0</ele><time>2026-05-02T16:21:40.632Z</time></trkpt><trkpt lat="42.852993" lon="13.7381939"><ele>45.333333333333336</ele><time>2026-05-02T16:21:41.631Z</time></trkpt><trkpt lat="42.8530363" lon="13.7384295"><ele>45.66666666666667</ele><time>2026-05-02T16:21:42.632Z</time></trkpt><trkpt lat="42.8530755" lon="13.7386624"><ele>46.0</ele><time>2026-05-02T16:21:43.631Z</time></trkpt><trkpt lat="42.8531163" lon="13.7388945"><ele>45.333333333333336</ele><time>2026-05-02T16:21:44.632Z</time></trkpt><trkpt lat="42.8531557" lon="13.7391221"><ele>44.666666666666664</ele><time>2026-05-02T16:21:45.632Z</time></trkpt><trkpt lat="42.8531943" lon="13.739354"><ele>44.0</ele><time>2026-05-02T16:21:46.632Z</time></trkpt><trkpt lat="42.8532369" lon="13.7395781"><ele>44.0</ele><time>2026-05-02T16:21:47.632Z</time></trkpt><trkpt lat="42.8532798" lon="13.7398033"><ele>44.0</ele><time>2026-05-02T16:21:48.632Z</time></trkpt><trkpt lat="42.8533246" lon="13.7400299"><ele>44.0</ele><time>2026-05-02T16:21:49.632Z</time></trkpt><trkpt lat="42.8533638" lon="13.7402583"><ele>44.0</ele><time>2026-05-02T16:21:50.632Z</time></trkpt><trkpt lat="42.8534026" lon="13.7404834"><ele>44.0</ele><time>2026-05-02T16:21:51.632Z</time></trkpt><trkpt lat="42.8534428" lon="13.7407111"><ele>44.0</ele><time>2026-05-02T16:21:52.632Z</time></trkpt><trkpt lat="42.8534842" lon="13.7409388"><ele>43.33333333333333</ele><time>2026-05-02T16:21:53.632Z</time></trkpt><trkpt lat="42.8535293" lon="13.7411657"><ele>42.666666666666664</ele><time>2026-05-02T16:21:54.632Z</time></trkpt><trkpt lat="42.8535734" lon="13.7413959"><ele>42.0</ele><time>2026-05-02T16:21:55.632Z</time></trkpt><trkpt lat="42.8536164" lon="13.7416282"><ele>42.0</ele><time>2026-05-02T16:21:56.632Z</time></trkpt><trkpt lat="42.8536568" lon="13.7418686"><ele>42.0</ele><time>2026-05-02T16:21:57.631Z</time></trkpt><trkpt lat="42.8536983" lon="13.7421058"><ele>42.0</ele><time>2026-05-02T16:21:58.632Z</time></trkpt><trkpt lat="42.8537443" lon="13.7423383"><ele>42.0</ele><time>2026-05-02T16:21:59.631Z</time></trkpt><trkpt lat="42.8537875" lon="13.7425754"><ele>42.0</ele><time>2026-05-02T16:22:00.632Z</time></trkpt><trkpt lat="42.8538326" lon="13.7428146"><ele>42.0</ele><time>2026-05-02T16:22:01.632Z</time></trkpt><trkpt lat="42.8538701" lon="13.743058"><ele>42.0</ele><time>2026-05-02T16:22:02.632Z</time></trkpt><trkpt lat="42.8539136" lon="13.7433029"><ele>42.0</ele><time>2026-05-02T16:22:03.632Z</time></trkpt><trkpt lat="42.8539597" lon="13.7435501"><ele>42.0</ele><time>2026-05-02T16:22:04.632Z</time></trkpt><trkpt lat="42.8540099" lon="13.7437967"><ele>42.0</ele><time>2026-05-02T16:22:05.632Z</time></trkpt><trkpt lat="42.8540649" lon="13.7440406"><ele>42.0</ele><time>2026-05-02T16:22:06.632Z</time></trkpt><trkpt lat="42.8541192" lon="13.7442773"><ele>42.0</ele><time>2026-05-02T16:22:07.632Z</time></trkpt><trkpt lat="42.8541766" lon="13.7445133"><ele>42.0</ele><time>2026-05-02T16:22:08.632Z</time></trkpt><trkpt lat="42.8542426" lon="13.7447487"><ele>42.0</ele><time>2026-05-02T16:22:09.632Z</time></trkpt><trkpt lat="42.854366" lon="13.74522"><ele>41.333333333333336</ele><time>2026-05-02T16:22:11.632Z</time></trkpt><trkpt lat="42.8544298" lon="13.7454569"><ele>40.66666666666667</ele><time>2026-05-02T16:22:12.632Z</time></trkpt><trkpt lat="42.854496" lon="13.7456878"><ele>40.0</ele><time>2026-05-02T16:22:13.633Z</time></trkpt><trkpt lat="42.8545579" lon="13.7459136"><ele>40.0</ele><time>2026-05-02T16:22:14.632Z</time></trkpt><trkpt lat="42.8546181" lon="13.7461455"><ele>40.0</ele><time>2026-05-02T16:22:15.633Z</time></trkpt><trkpt lat="42.8546836" lon="13.7463761"><ele>40.0</ele><time>2026-05-02T16:22:16.633Z</time></trkpt><trkpt lat="42.8547441" lon="13.7466141"><ele>40.0</ele><time>2026-05-02T16:22:17.633Z</time></trkpt><trkpt lat="42.8548047" lon="13.746846"><ele>40.0</ele><time>2026-05-02T16:22:18.633Z</time></trkpt><trkpt lat="42.8548677" lon="13.7470877"><ele>40.0</ele><time>2026-05-02T16:22:19.633Z</time></trkpt><trkpt lat="42.8549307" lon="13.7473253"><ele>40.0</ele><time>2026-05-02T16:22:20.632Z</time></trkpt><trkpt lat="42.8549955" lon="13.7475596"><ele>40.0</ele><time>2026-05-02T16:22:21.632Z</time></trkpt><trkpt lat="42.8550663" lon="13.7477965"><ele>40.0</ele><time>2026-05-02T16:22:22.633Z</time></trkpt><trkpt lat="42.8551339" lon="13.7480339"><ele>40.0</ele><time>2026-05-02T16:22:23.633Z</time></trkpt><trkpt lat="42.8551935" lon="13.7482712"><ele>40.0</ele><time>2026-05-02T16:22:24.633Z</time></trkpt><trkpt lat="42.8552542" lon="13.7485115"><ele>40.0</ele><time>2026-05-02T16:22:25.633Z</time></trkpt><trkpt lat="42.8553149" lon="13.7487592"><ele>40.0</ele><time>2026-05-02T16:22:26.632Z</time></trkpt><trkpt lat="42.8553803" lon="13.7490021"><ele>40.0</ele><time>2026-05-02T16:22:27.633Z</time></trkpt><trkpt lat="42.8554471" lon="13.749241"><ele>40.0</ele><time>2026-05-02T16:22:28.633Z</time></trkpt><trkpt lat="42.8555103" lon="13.749484"><ele>40.333333333333336</ele><time>2026-05-02T16:22:29.633Z</time></trkpt><trkpt lat="42.8555757" lon="13.7497243"><ele>40.666666666666664</ele><time>2026-05-02T16:22:30.632Z</time></trkpt><trkpt lat="42.8556421" lon="13.7499654"><ele>41.0</ele><time>2026-05-02T16:22:31.633Z</time></trkpt><trkpt lat="42.8557065" lon="13.7502114"><ele>41.0</ele><time>2026-05-02T16:22:32.633Z</time></trkpt><trkpt lat="42.8557734" lon="13.7504506"><ele>41.0</ele><time>2026-05-02T16:22:33.633Z</time></trkpt><trkpt lat="42.8558378" lon="13.7506859"><ele>41.0</ele><time>2026-05-02T16:22:34.633Z</time></trkpt><trkpt lat="42.8559036" lon="13.7509237"><ele>40.0</ele><time>2026-05-02T16:22:35.633Z</time></trkpt><trkpt lat="42.8559661" lon="13.7511682"><ele>39.0</ele><time>2026-05-02T16:22:36.633Z</time></trkpt><trkpt lat="42.8560315" lon="13.7514094"><ele>38.0</ele><time>2026-05-02T16:22:37.633Z</time></trkpt><trkpt lat="42.8560952" lon="13.7516495"><ele>38.33333333333333</ele><time>2026-05-02T16:22:38.633Z</time></trkpt><trkpt lat="42.8561632" lon="13.7518911"><ele>38.666666666666664</ele><time>2026-05-02T16:22:39.633Z</time></trkpt><trkpt lat="42.8562275" lon="13.7521331"><ele>39.0</ele><time>2026-05-02T16:22:40.633Z</time></trkpt><trkpt lat="42.8562945" lon="13.7523803"><ele>39.0</ele><time>2026-05-02T16:22:41.633Z</time></trkpt><trkpt lat="42.8563628" lon="13.7526243"><ele>39.0</ele><time>2026-05-02T16:22:42.633Z</time></trkpt><trkpt lat="42.8564311" lon="13.752871"><ele>39.0</ele><time>2026-05-02T16:22:43.632Z</time></trkpt><trkpt lat="42.8564967" lon="13.7531308"><ele>39.0</ele><time>2026-05-02T16:22:44.633Z</time></trkpt><trkpt lat="42.8565655" lon="13.7533812"><ele>39.0</ele><time>2026-05-02T16:22:45.633Z</time></trkpt><trkpt lat="42.8566318" lon="13.7536267"><ele>39.0</ele><time>2026-05-02T16:22:46.633Z</time></trkpt><trkpt lat="42.8566949" lon="13.7538777"><ele>39.333333333333336</ele><time>2026-05-02T16:22:47.632Z</time></trkpt><trkpt lat="42.856762" lon="13.7541215"><ele>39.66666666666667</ele><time>2026-05-02T16:22:48.633Z</time></trkpt><trkpt lat="42.856828" lon="13.7543643"><ele>40.0</ele><time>2026-05-02T16:22:49.633Z</time></trkpt><trkpt lat="42.856894" lon="13.7546122"><ele>39.0</ele><time>2026-05-02T16:22:50.633Z</time></trkpt><trkpt lat="42.8569462" lon="13.7548661"><ele>38.0</ele><time>2026-05-02T16:22:51.633Z</time></trkpt><trkpt lat="42.8569906" lon="13.7551184"><ele>37.0</ele><time>2026-05-02T16:22:52.632Z</time></trkpt><trkpt lat="42.8570254" lon="13.7553726"><ele>37.0</ele><time>2026-05-02T16:22:53.633Z</time></trkpt><trkpt lat="42.8570526" lon="13.7556329"><ele>37.0</ele><time>2026-05-02T16:22:54.633Z</time></trkpt><trkpt lat="42.8570653" lon="13.7558946"><ele>37.0</ele><time>2026-05-02T16:22:55.633Z</time></trkpt><trkpt lat="42.8570705" lon="13.7561574"><ele>37.0</ele><time>2026-05-02T16:22:56.633Z</time></trkpt><trkpt lat="42.857073" lon="13.7564186"><ele>37.0</ele><time>2026-05-02T16:22:57.632Z</time></trkpt><trkpt lat="42.8570746" lon="13.7566786"><ele>37.0</ele><time>2026-05-02T16:22:58.633Z</time></trkpt><trkpt lat="42.8570723" lon="13.7569417"><ele>37.0</ele><time>2026-05-02T16:22:59.633Z</time></trkpt><trkpt lat="42.8570675" lon="13.7572055"><ele>37.0</ele><time>2026-05-02T16:23:00.633Z</time></trkpt><trkpt lat="42.8570607" lon="13.7574639"><ele>37.0</ele><time>2026-05-02T16:23:01.633Z</time></trkpt><trkpt lat="42.8570526" lon="13.7577246"><ele>37.66666666666667</ele><time>2026-05-02T16:23:02.633Z</time></trkpt><trkpt lat="42.8570422" lon="13.7579846"><ele>38.333333333333336</ele><time>2026-05-02T16:23:03.633Z</time></trkpt><trkpt lat="42.8570353" lon="13.7582369"><ele>39.0</ele><time>2026-05-02T16:23:04.633Z</time></trkpt><trkpt lat="42.857024" lon="13.7584945"><ele>38.333333333333336</ele><time>2026-05-02T16:23:05.633Z</time></trkpt><trkpt lat="42.857014" lon="13.7587518"><ele>37.66666666666667</ele><time>2026-05-02T16:23:06.633Z</time></trkpt><trkpt lat="42.8570036" lon="13.7590106"><ele>37.0</ele><time>2026-05-02T16:23:07.633Z</time></trkpt><trkpt lat="42.8569955" lon="13.7592715"><ele>36.66666666666667</ele><time>2026-05-02T16:23:08.633Z</time></trkpt><trkpt lat="42.8569921" lon="13.7595325"><ele>36.333333333333336</ele><time>2026-05-02T16:23:09.633Z</time></trkpt><trkpt lat="42.8569865" lon="13.7597964"><ele>36.0</ele><time>2026-05-02T16:23:10.633Z</time></trkpt><trkpt lat="42.8569824" lon="13.7600624"><ele>36.666666666666664</ele><time>2026-05-02T16:23:11.633Z</time></trkpt><trkpt lat="42.85697" lon="13.7603294"><ele>37.33333333333333</ele><time>2026-05-02T16:23:12.633Z</time></trkpt><trkpt lat="42.8569588" lon="13.7605936"><ele>38.0</ele><time>2026-05-02T16:23:13.633Z</time></trkpt><trkpt lat="42.8569546" lon="13.760859"><ele>37.666666666666664</ele><time>2026-05-02T16:23:14.632Z</time></trkpt><trkpt lat="42.8569511" lon="13.7611267"><ele>37.333333333333336</ele><time>2026-05-02T16:23:15.633Z</time></trkpt><trkpt lat="42.8569444" lon="13.761397"><ele>37.0</ele><time>2026-05-02T16:23:16.634Z</time></trkpt><trkpt lat="42.8569307" lon="13.76167"><ele>37.66666666666667</ele><time>2026-05-02T16:23:17.634Z</time></trkpt><trkpt lat="42.8569205" lon="13.7619396"><ele>38.333333333333336</ele><time>2026-05-02T16:23:18.634Z</time></trkpt><trkpt lat="42.8569098" lon="13.7622049"><ele>39.0</ele><time>2026-05-02T16:23:19.634Z</time></trkpt><trkpt lat="42.8569002" lon="13.7624695"><ele>39.0</ele><time>2026-05-02T16:23:20.633Z</time></trkpt><trkpt lat="42.8568919" lon="13.7627361"><ele>39.0</ele><time>2026-05-02T16:23:21.634Z</time></trkpt><trkpt lat="42.8568865" lon="13.7630015"><ele>39.0</ele><time>2026-05-02T16:23:22.634Z</time></trkpt><trkpt lat="42.8568786" lon="13.763267"><ele>39.0</ele><time>2026-05-02T16:23:23.634Z</time></trkpt><trkpt lat="42.856865" lon="13.7635273"><ele>39.0</ele><time>2026-05-02T16:23:24.633Z</time></trkpt><trkpt lat="42.8568546" lon="13.7637939"><ele>39.0</ele><time>2026-05-02T16:23:25.634Z</time></trkpt><trkpt lat="42.8568442" lon="13.764052"><ele>38.0</ele><time>2026-05-02T16:23:26.634Z</time></trkpt><trkpt lat="42.8568354" lon="13.764312"><ele>37.0</ele><time>2026-05-02T16:23:27.634Z</time></trkpt><trkpt lat="42.8568266" lon="13.7645696"><ele>36.0</ele><time>2026-05-02T16:23:28.634Z</time></trkpt><trkpt lat="42.8568198" lon="13.7648276"><ele>36.0</ele><time>2026-05-02T16:23:29.634Z</time></trkpt><trkpt lat="42.8568166" lon="13.7650818"><ele>36.0</ele><time>2026-05-02T16:23:30.634Z</time></trkpt><trkpt lat="42.8568098" lon="13.7653404"><ele>36.0</ele><time>2026-05-02T16:23:31.634Z</time></trkpt><trkpt lat="42.8568025" lon="13.7656021"><ele>36.0</ele><time>2026-05-02T16:23:32.634Z</time></trkpt><trkpt lat="42.8567935" lon="13.7658666"><ele>36.0</ele><time>2026-05-02T16:23:33.634Z</time></trkpt><trkpt lat="42.8567883" lon="13.76613"><ele>36.0</ele><time>2026-05-02T16:23:34.634Z</time></trkpt><trkpt lat="42.8567859" lon="13.766396"><ele>36.0</ele><time>2026-05-02T16:23:35.634Z</time></trkpt><trkpt lat="42.8567853" lon="13.7666676"><ele>36.0</ele><time>2026-05-02T16:23:36.633Z</time></trkpt><trkpt lat="42.8567872" lon="13.7669411"><ele>36.0</ele><time>2026-05-02T16:23:37.633Z</time></trkpt><trkpt lat="42.856796" lon="13.76722"><ele>35.333333333333336</ele><time>2026-05-02T16:23:38.634Z</time></trkpt><trkpt lat="42.8568103" lon="13.7674969"><ele>34.66666666666667</ele><time>2026-05-02T16:23:39.633Z</time></trkpt><trkpt lat="42.8568392" lon="13.7677759"><ele>34.0</ele><time>2026-05-02T16:23:40.634Z</time></trkpt><trkpt lat="42.8568802" lon="13.7680511"><ele>33.66666666666667</ele><time>2026-05-02T16:23:41.634Z</time></trkpt><trkpt lat="42.8569377" lon="13.768328"><ele>33.333333333333336</ele><time>2026-05-02T16:23:42.634Z</time></trkpt><trkpt lat="42.8569873" lon="13.7686045"><ele>33.0</ele><time>2026-05-02T16:23:43.634Z</time></trkpt><trkpt lat="42.8570409" lon="13.7688759"><ele>33.0</ele><time>2026-05-02T16:23:44.634Z</time></trkpt><trkpt lat="42.8570981" lon="13.7691479"><ele>33.0</ele><time>2026-05-02T16:23:45.633Z</time></trkpt><trkpt lat="42.8571571" lon="13.7694164"><ele>33.0</ele><time>2026-05-02T16:23:46.633Z</time></trkpt><trkpt lat="42.8572163" lon="13.7696814"><ele>33.0</ele><time>2026-05-02T16:23:47.634Z</time></trkpt><trkpt lat="42.8572725" lon="13.7699477"><ele>33.0</ele><time>2026-05-02T16:23:48.634Z</time></trkpt><trkpt lat="42.8573304" lon="13.7702176"><ele>33.0</ele><time>2026-05-02T16:23:49.633Z</time></trkpt><trkpt lat="42.8573889" lon="13.7704813"><ele>33.0</ele><time>2026-05-02T16:23:50.634Z</time></trkpt><trkpt lat="42.8574474" lon="13.7707436"><ele>33.0</ele><time>2026-05-02T16:23:51.633Z</time></trkpt><trkpt lat="42.8575" lon="13.7710011"><ele>33.0</ele><time>2026-05-02T16:23:52.634Z</time></trkpt><trkpt lat="42.8575563" lon="13.7712623"><ele>33.0</ele><time>2026-05-02T16:23:53.634Z</time></trkpt><trkpt lat="42.8576106" lon="13.7715237"><ele>33.0</ele><time>2026-05-02T16:23:54.634Z</time></trkpt><trkpt lat="42.8576631" lon="13.7717802"><ele>33.0</ele><time>2026-05-02T16:23:55.634Z</time></trkpt><trkpt lat="42.8577141" lon="13.7720387"><ele>32.666666666666664</ele><time>2026-05-02T16:23:56.634Z</time></trkpt><trkpt lat="42.8577678" lon="13.7722939"><ele>32.33333333333333</ele><time>2026-05-02T16:23:57.634Z</time></trkpt><trkpt lat="42.8578108" lon="13.7725469"><ele>32.0</ele><time>2026-05-02T16:23:58.634Z</time></trkpt><trkpt lat="42.8578544" lon="13.7727996"><ele>32.0</ele><time>2026-05-02T16:23:59.634Z</time></trkpt><trkpt lat="42.8578984" lon="13.7730535"><ele>32.0</ele><time>2026-05-02T16:24:00.634Z</time></trkpt><trkpt lat="42.8579477" lon="13.7733072"><ele>32.0</ele><time>2026-05-02T16:24:01.634Z</time></trkpt><trkpt lat="42.8580005" lon="13.7735594"><ele>32.0</ele><time>2026-05-02T16:24:02.634Z</time></trkpt><trkpt lat="42.8580481" lon="13.773821"><ele>32.0</ele><time>2026-05-02T16:24:03.633Z</time></trkpt><trkpt lat="42.858104" lon="13.7740774"><ele>32.0</ele><time>2026-05-02T16:24:04.634Z</time></trkpt><trkpt lat="42.8581489" lon="13.7743264"><ele>31.666666666666664</ele><time>2026-05-02T16:24:05.634Z</time></trkpt><trkpt lat="42.8582007" lon="13.7745577"><ele>31.333333333333336</ele><time>2026-05-02T16:24:06.633Z</time></trkpt><trkpt lat="42.8582538" lon="13.7747761"><ele>31.0</ele><time>2026-05-02T16:24:07.633Z</time></trkpt><trkpt lat="42.858296" lon="13.7749875"><ele>31.0</ele><time>2026-05-02T16:24:08.634Z</time></trkpt><trkpt lat="42.8583331" lon="13.7751846"><ele>31.0</ele><time>2026-05-02T16:24:09.634Z</time></trkpt><trkpt lat="42.8583475" lon="13.7753621"><ele>31.0</ele><time>2026-05-02T16:24:10.633Z</time></trkpt><trkpt lat="42.8583359" lon="13.7755268"><ele>31.0</ele><time>2026-05-02T16:24:11.634Z</time></trkpt><trkpt lat="42.858302" lon="13.7756865"><ele>30.75</ele><time>2026-05-02T16:24:12.633Z</time></trkpt><trkpt lat="42.8582563" lon="13.7758375"><ele>30.5</ele><time>2026-05-02T16:24:13.634Z</time></trkpt><trkpt lat="42.8582282" lon="13.7759905"><ele>30.25</ele><time>2026-05-02T16:24:14.634Z</time></trkpt><trkpt lat="42.8582279" lon="13.7761474"><ele>30.0</ele><time>2026-05-02T16:24:15.635Z</time></trkpt><trkpt lat="42.8582609" lon="13.7762922"><ele>30.0</ele><time>2026-05-02T16:24:16.634Z</time></trkpt><trkpt lat="42.8583243" lon="13.7764124"><ele>30.0</ele><time>2026-05-02T16:24:17.634Z</time></trkpt><trkpt lat="42.858414" lon="13.7765015"><ele>30.0</ele><time>2026-05-02T16:24:18.634Z</time></trkpt><trkpt lat="42.8585174" lon="13.7765652"><ele>30.0</ele><time>2026-05-02T16:24:19.634Z</time></trkpt><trkpt lat="42.8586368" lon="13.77664"><ele>29.666666666666664</ele><time>2026-05-02T16:24:20.634Z</time></trkpt><trkpt lat="42.858739" lon="13.7767691"><ele>29.333333333333332</ele><time>2026-05-02T16:24:21.633Z</time></trkpt><trkpt lat="42.858819" lon="13.7769528"><ele>29.0</ele><time>2026-05-02T16:24:22.634Z</time></trkpt><trkpt lat="42.8588822" lon="13.7771673"><ele>29.0</ele><time>2026-05-02T16:24:23.635Z</time></trkpt><trkpt lat="42.8589349" lon="13.7773863"><ele>29.0</ele><time>2026-05-02T16:24:24.634Z</time></trkpt><trkpt lat="42.8589819" lon="13.777619"><ele>29.0</ele><time>2026-05-02T16:24:25.635Z</time></trkpt><trkpt lat="42.8590463" lon="13.7778299"><ele>28.666666666666664</ele><time>2026-05-02T16:24:26.635Z</time></trkpt><trkpt lat="42.8591184" lon="13.778059"><ele>28.333333333333336</ele><time>2026-05-02T16:24:27.635Z</time></trkpt><trkpt lat="42.8591943" lon="13.778291"><ele>28.0</ele><time>2026-05-02T16:24:28.635Z</time></trkpt><trkpt lat="42.8592711" lon="13.7785188"><ele>27.666666666666668</ele><time>2026-05-02T16:24:29.634Z</time></trkpt><trkpt lat="42.8593471" lon="13.7787511"><ele>27.333333333333336</ele><time>2026-05-02T16:24:30.635Z</time></trkpt><trkpt lat="42.8594239" lon="13.7789838"><ele>27.0</ele><time>2026-05-02T16:24:31.635Z</time></trkpt><trkpt lat="42.859496" lon="13.7792253"><ele>27.0</ele><time>2026-05-02T16:24:32.635Z</time></trkpt><trkpt lat="42.8595721" lon="13.77947"><ele>27.0</ele><time>2026-05-02T16:24:33.635Z</time></trkpt><trkpt lat="42.8596472" lon="13.779716"><ele>27.0</ele><time>2026-05-02T16:24:34.635Z</time></trkpt><trkpt lat="42.8597209" lon="13.7799646"><ele>27.333333333333336</ele><time>2026-05-02T16:24:35.634Z</time></trkpt><trkpt lat="42.8597956" lon="13.780212"><ele>27.666666666666668</ele><time>2026-05-02T16:24:36.635Z</time></trkpt><trkpt lat="42.859875" lon="13.7804498"><ele>28.0</ele><time>2026-05-02T16:24:37.635Z</time></trkpt><trkpt lat="42.8599522" lon="13.7806836"><ele>28.0</ele><time>2026-05-02T16:24:38.635Z</time></trkpt><trkpt lat="42.8600294" lon="13.7809211"><ele>28.0</ele><time>2026-05-02T16:24:39.635Z</time></trkpt><trkpt lat="42.8601068" lon="13.7811556"><ele>28.0</ele><time>2026-05-02T16:24:40.634Z</time></trkpt><trkpt lat="42.860181" lon="13.7813874"><ele>27.0</ele><time>2026-05-02T16:24:41.634Z</time></trkpt><trkpt lat="42.8602581" lon="13.7816252"><ele>26.0</ele><time>2026-05-02T16:24:42.635Z</time></trkpt><trkpt lat="42.860332" lon="13.7818649"><ele>25.0</ele><time>2026-05-02T16:24:43.635Z</time></trkpt><trkpt lat="42.8604041" lon="13.7821011"><ele>25.0</ele><time>2026-05-02T16:24:44.634Z</time></trkpt><trkpt lat="42.8604777" lon="13.7823387"><ele>25.0</ele><time>2026-05-02T16:24:45.635Z</time></trkpt><trkpt lat="42.8605537" lon="13.7825845"><ele>25.0</ele><time>2026-05-02T16:24:46.635Z</time></trkpt><trkpt lat="42.8606322" lon="13.7828189"><ele>25.333333333333336</ele><time>2026-05-02T16:24:47.635Z</time></trkpt><trkpt lat="42.8607077" lon="13.7830641"><ele>25.666666666666664</ele><time>2026-05-02T16:24:48.635Z</time></trkpt><trkpt lat="42.8607821" lon="13.7833067"><ele>26.0</ele><time>2026-05-02T16:24:49.635Z</time></trkpt><trkpt lat="42.8608573" lon="13.7835556"><ele>26.0</ele><time>2026-05-02T16:24:50.634Z</time></trkpt><trkpt lat="42.860935" lon="13.7838066"><ele>26.0</ele><time>2026-05-02T16:24:51.634Z</time></trkpt><trkpt lat="42.8610143" lon="13.7840592"><ele>26.0</ele><time>2026-05-02T16:24:52.635Z</time></trkpt><trkpt lat="42.8610955" lon="13.7843193"><ele>25.333333333333332</ele><time>2026-05-02T16:24:53.635Z</time></trkpt><trkpt lat="42.8611779" lon="13.7845823"><ele>24.666666666666664</ele><time>2026-05-02T16:24:54.635Z</time></trkpt><trkpt lat="42.8612634" lon="13.7848429"><ele>24.0</ele><time>2026-05-02T16:24:55.635Z</time></trkpt><trkpt lat="42.8613436" lon="13.7851145"><ele>23.666666666666668</ele><time>2026-05-02T16:24:56.635Z</time></trkpt><trkpt lat="42.8614295" lon="13.785378"><ele>23.333333333333336</ele><time>2026-05-02T16:24:57.635Z</time></trkpt><trkpt lat="42.8615138" lon="13.7856403"><ele>23.0</ele><time>2026-05-02T16:24:58.635Z</time></trkpt><trkpt lat="42.8616019" lon="13.7859011"><ele>23.333333333333336</ele><time>2026-05-02T16:24:59.635Z</time></trkpt><trkpt lat="42.861683" lon="13.7861645"><ele>23.666666666666668</ele><time>2026-05-02T16:25:00.635Z</time></trkpt><trkpt lat="42.8617591" lon="13.786433"><ele>24.0</ele><time>2026-05-02T16:25:01.635Z</time></trkpt><trkpt lat="42.8618363" lon="13.7866989"><ele>24.0</ele><time>2026-05-02T16:25:02.635Z</time></trkpt><trkpt lat="42.8619126" lon="13.7869655"><ele>24.0</ele><time>2026-05-02T16:25:03.635Z</time></trkpt><trkpt lat="42.8619918" lon="13.7872333"><ele>24.0</ele><time>2026-05-02T16:25:04.635Z</time></trkpt><trkpt lat="42.8620772" lon="13.7874998"><ele>24.0</ele><time>2026-05-02T16:25:05.635Z</time></trkpt><trkpt lat="42.8621636" lon="13.7877682"><ele>24.0</ele><time>2026-05-02T16:25:06.635Z</time></trkpt><trkpt lat="42.8622557" lon="13.7880325"><ele>24.0</ele><time>2026-05-02T16:25:07.635Z</time></trkpt><trkpt lat="42.862345" lon="13.788297"><ele>24.0</ele><time>2026-05-02T16:25:08.634Z</time></trkpt><trkpt lat="42.8624298" lon="13.7885621"><ele>24.0</ele><time>2026-05-02T16:25:09.636Z</time></trkpt><trkpt lat="42.8625194" lon="13.7888309"><ele>24.0</ele><time>2026-05-02T16:25:10.635Z</time></trkpt><trkpt lat="42.8626037" lon="13.7890988"><ele>24.333333333333336</ele><time>2026-05-02T16:25:11.635Z</time></trkpt><trkpt lat="42.8626884" lon="13.7893746"><ele>24.666666666666668</ele><time>2026-05-02T16:25:12.635Z</time></trkpt><trkpt lat="42.8627763" lon="13.7896473"><ele>25.0</ele><time>2026-05-02T16:25:13.635Z</time></trkpt><trkpt lat="42.8628603" lon="13.7899236"><ele>25.0</ele><time>2026-05-02T16:25:14.635Z</time></trkpt><trkpt lat="42.8629408" lon="13.7901996"><ele>25.0</ele><time>2026-05-02T16:25:15.635Z</time></trkpt><trkpt lat="42.8630209" lon="13.7904702"><ele>25.0</ele><time>2026-05-02T16:25:16.635Z</time></trkpt><trkpt lat="42.8631036" lon="13.7907394"><ele>25.0</ele><time>2026-05-02T16:25:17.635Z</time></trkpt><trkpt lat="42.8631857" lon="13.791004"><ele>25.0</ele><time>2026-05-02T16:25:18.635Z</time></trkpt><trkpt lat="42.8632683" lon="13.7912719"><ele>25.0</ele><time>2026-05-02T16:25:19.635Z</time></trkpt><trkpt lat="42.8633473" lon="13.7915431"><ele>24.666666666666668</ele><time>2026-05-02T16:25:20.635Z</time></trkpt><trkpt lat="42.8634328" lon="13.791815"><ele>24.333333333333336</ele><time>2026-05-02T16:25:21.635Z</time></trkpt><trkpt lat="42.8635128" lon="13.7920926"><ele>24.0</ele><time>2026-05-02T16:25:22.635Z</time></trkpt><trkpt lat="42.863596" lon="13.7923703"><ele>23.0</ele><time>2026-05-02T16:25:23.635Z</time></trkpt><trkpt lat="42.8636817" lon="13.7926439"><ele>22.0</ele><time>2026-05-02T16:25:24.634Z</time></trkpt><trkpt lat="42.8637673" lon="13.7929162"><ele>21.0</ele><time>2026-05-02T16:25:25.636Z</time></trkpt><trkpt lat="42.8638511" lon="13.7931807"><ele>21.0</ele><time>2026-05-02T16:25:26.636Z</time></trkpt><trkpt lat="42.8639387" lon="13.7934469"><ele>21.0</ele><time>2026-05-02T16:25:27.636Z</time></trkpt><trkpt lat="42.8640186" lon="13.7937205"><ele>21.0</ele><time>2026-05-02T16:25:28.636Z</time></trkpt><trkpt lat="42.8641004" lon="13.7939951"><ele>21.333333333333332</ele><time>2026-05-02T16:25:29.636Z</time></trkpt><trkpt lat="42.864186" lon="13.7942782"><ele>21.666666666666664</ele><time>2026-05-02T16:25:30.636Z</time></trkpt><trkpt lat="42.864272" lon="13.7945548"><ele>22.0</ele><time>2026-05-02T16:25:31.635Z</time></trkpt><trkpt lat="42.8643603" lon="13.7948257"><ele>22.0</ele><time>2026-05-02T16:25:32.636Z</time></trkpt><trkpt lat="42.8644407" lon="13.7951015"><ele>22.0</ele><time>2026-05-02T16:25:33.636Z</time></trkpt><trkpt lat="42.8645259" lon="13.7953716"><ele>22.0</ele><time>2026-05-02T16:25:34.636Z</time></trkpt><trkpt lat="42.8646131" lon="13.7956417"><ele>22.333333333333332</ele><time>2026-05-02T16:25:35.636Z</time></trkpt><trkpt lat="42.8646969" lon="13.7959144"><ele>22.666666666666668</ele><time>2026-05-02T16:25:36.636Z</time></trkpt><trkpt lat="42.8647848" lon="13.7961824"><ele>23.0</ele><time>2026-05-02T16:25:37.636Z</time></trkpt><trkpt lat="42.8648698" lon="13.7964473"><ele>23.0</ele><time>2026-05-02T16:25:38.636Z</time></trkpt><trkpt lat="42.8649543" lon="13.796715"><ele>23.0</ele><time>2026-05-02T16:25:39.635Z</time></trkpt><trkpt lat="42.8650371" lon="13.7969863"><ele>23.0</ele><time>2026-05-02T16:25:40.636Z</time></trkpt><trkpt lat="42.8651218" lon="13.7972532"><ele>22.333333333333336</ele><time>2026-05-02T16:25:41.636Z</time></trkpt><trkpt lat="42.8652106" lon="13.797519"><ele>21.666666666666668</ele><time>2026-05-02T16:25:42.636Z</time></trkpt><trkpt lat="42.8652953" lon="13.7977797"><ele>21.0</ele><time>2026-05-02T16:25:43.636Z</time></trkpt><trkpt lat="42.8653824" lon="13.7980461"><ele>21.0</ele><time>2026-05-02T16:25:44.635Z</time></trkpt><trkpt lat="42.8654636" lon="13.798314"><ele>21.0</ele><time>2026-05-02T16:25:45.635Z</time></trkpt><trkpt lat="42.8655443" lon="13.7985874"><ele>21.0</ele><time>2026-05-02T16:25:46.636Z</time></trkpt><trkpt lat="42.865617" lon="13.7988624"><ele>21.0</ele><time>2026-05-02T16:25:47.636Z</time></trkpt><trkpt lat="42.8656941" lon="13.7991421"><ele>21.0</ele><time>2026-05-02T16:25:48.636Z</time></trkpt><trkpt lat="42.8657743" lon="13.7994196"><ele>21.0</ele><time>2026-05-02T16:25:49.636Z</time></trkpt><trkpt lat="42.8658599" lon="13.7996946"><ele>20.333333333333332</ele><time>2026-05-02T16:25:50.636Z</time></trkpt><trkpt lat="42.8659492" lon="13.7999714"><ele>19.666666666666664</ele><time>2026-05-02T16:25:51.636Z</time></trkpt><trkpt lat="42.8660376" lon="13.8002473"><ele>19.0</ele><time>2026-05-02T16:25:52.636Z</time></trkpt><trkpt lat="42.8661252" lon="13.8005295"><ele>19.0</ele><time>2026-05-02T16:25:53.636Z</time></trkpt><trkpt lat="42.8662152" lon="13.8008074"><ele>19.0</ele><time>2026-05-02T16:25:54.636Z</time></trkpt><trkpt lat="42.8662977" lon="13.8010805"><ele>19.0</ele><time>2026-05-02T16:25:55.636Z</time></trkpt><trkpt lat="42.8663796" lon="13.8013478"><ele>19.333333333333332</ele><time>2026-05-02T16:25:56.636Z</time></trkpt><trkpt lat="42.8664628" lon="13.8016149"><ele>19.666666666666668</ele><time>2026-05-02T16:25:57.635Z</time></trkpt><trkpt lat="42.8665494" lon="13.801876"><ele>20.0</ele><time>2026-05-02T16:25:58.636Z</time></trkpt><trkpt lat="42.8666326" lon="13.8021415"><ele>20.0</ele><time>2026-05-02T16:25:59.636Z</time></trkpt><trkpt lat="42.8667141" lon="13.8024063"><ele>20.0</ele><time>2026-05-02T16:26:00.635Z</time></trkpt><trkpt lat="42.8667983" lon="13.8026688"><ele>20.0</ele><time>2026-05-02T16:26:01.636Z</time></trkpt><trkpt lat="42.8668831" lon="13.8029351"><ele>19.0</ele><time>2026-05-02T16:26:02.636Z</time></trkpt><trkpt lat="42.8669632" lon="13.8032021"><ele>18.0</ele><time>2026-05-02T16:26:03.636Z</time></trkpt><trkpt lat="42.8670458" lon="13.8034709"><ele>17.0</ele><time>2026-05-02T16:26:04.636Z</time></trkpt><trkpt lat="42.8671271" lon="13.8037403"><ele>17.0</ele><time>2026-05-02T16:26:05.636Z</time></trkpt><trkpt lat="42.8672124" lon="13.8040026"><ele>17.0</ele><time>2026-05-02T16:26:06.635Z</time></trkpt><trkpt lat="42.8672943" lon="13.8042759"><ele>17.0</ele><time>2026-05-02T16:26:07.636Z</time></trkpt><trkpt lat="42.867379" lon="13.8045504"><ele>16.666666666666668</ele><time>2026-05-02T16:26:08.636Z</time></trkpt><trkpt lat="42.8674644" lon="13.8048188"><ele>16.333333333333332</ele><time>2026-05-02T16:26:09.636Z</time></trkpt><trkpt lat="42.8675456" lon="13.8050856"><ele>16.0</ele><time>2026-05-02T16:26:10.636Z</time></trkpt><trkpt lat="42.8676285" lon="13.8053525"><ele>16.0</ele><time>2026-05-02T16:26:11.636Z</time></trkpt><trkpt lat="42.8677099" lon="13.8056268"><ele>16.0</ele><time>2026-05-02T16:26:12.636Z</time></trkpt><trkpt lat="42.8677972" lon="13.8058918"><ele>16.0</ele><time>2026-05-02T16:26:13.635Z</time></trkpt><trkpt lat="42.8678833" lon="13.8061559"><ele>17.333333333333332</ele><time>2026-05-02T16:26:14.636Z</time></trkpt><trkpt lat="42.8679726" lon="13.8064142"><ele>18.666666666666668</ele><time>2026-05-02T16:26:15.636Z</time></trkpt><trkpt lat="42.8680625" lon="13.8066717"><ele>20.0</ele><time>2026-05-02T16:26:16.635Z</time></trkpt><trkpt lat="42.8681547" lon="13.806931"><ele>20.333333333333336</ele><time>2026-05-02T16:26:17.636Z</time></trkpt><trkpt lat="42.8682557" lon="13.8071861"><ele>20.666666666666668</ele><time>2026-05-02T16:26:18.636Z</time></trkpt><trkpt lat="42.8683641" lon="13.8074353"><ele>21.0</ele><time>2026-05-02T16:26:19.635Z</time></trkpt><trkpt lat="42.8684748" lon="13.8076819"><ele>19.666666666666668</ele><time>2026-05-02T16:26:20.636Z</time></trkpt><trkpt lat="42.8685866" lon="13.8079197"><ele>18.333333333333336</ele><time>2026-05-02T16:26:21.636Z</time></trkpt><trkpt lat="42.8687045" lon="13.8081539"><ele>17.0</ele><time>2026-05-02T16:26:22.636Z</time></trkpt><trkpt lat="42.8688213" lon="13.8083868"><ele>17.333333333333336</ele><time>2026-05-02T16:26:23.636Z</time></trkpt><trkpt lat="42.8689352" lon="13.808615"><ele>17.666666666666668</ele><time>2026-05-02T16:26:24.635Z</time></trkpt><trkpt lat="42.8690547" lon="13.8088247"><ele>18.0</ele><time>2026-05-02T16:26:25.636Z</time></trkpt><trkpt lat="42.8691725" lon="13.8090339"><ele>17.666666666666668</ele><time>2026-05-02T16:26:26.636Z</time></trkpt><trkpt lat="42.8692895" lon="13.8092397"><ele>17.333333333333336</ele><time>2026-05-02T16:26:27.636Z</time></trkpt><trkpt lat="42.8694075" lon="13.8094537"><ele>17.0</ele><time>2026-05-02T16:26:28.636Z</time></trkpt><trkpt lat="42.8695228" lon="13.80966"><ele>17.0</ele><time>2026-05-02T16:26:29.637Z</time></trkpt><trkpt lat="42.8696472" lon="13.8098667"><ele>17.0</ele><time>2026-05-02T16:26:30.637Z</time></trkpt><trkpt lat="42.8697823" lon="13.8100753"><ele>17.0</ele><time>2026-05-02T16:26:31.637Z</time></trkpt><trkpt lat="42.8699236" lon="13.8102754"><ele>17.0</ele><time>2026-05-02T16:26:32.637Z</time></trkpt><trkpt lat="42.8700703" lon="13.8104785"><ele>17.0</ele><time>2026-05-02T16:26:33.637Z</time></trkpt><trkpt lat="42.870219" lon="13.8106791"><ele>17.0</ele><time>2026-05-02T16:26:34.636Z</time></trkpt><trkpt lat="42.8703705" lon="13.8108744"><ele>17.666666666666668</ele><time>2026-05-02T16:26:35.637Z</time></trkpt><trkpt lat="42.8705216" lon="13.811066"><ele>18.333333333333332</ele><time>2026-05-02T16:26:36.637Z</time></trkpt><trkpt lat="42.8706734" lon="13.8112565"><ele>19.0</ele><time>2026-05-02T16:26:37.636Z</time></trkpt><trkpt lat="42.8708306" lon="13.8114409"><ele>18.666666666666664</ele><time>2026-05-02T16:26:38.637Z</time></trkpt><trkpt lat="42.8709911" lon="13.8116185"><ele>18.333333333333332</ele><time>2026-05-02T16:26:39.636Z</time></trkpt><trkpt lat="42.8711619" lon="13.8117952"><ele>18.0</ele><time>2026-05-02T16:26:40.637Z</time></trkpt><trkpt lat="42.8713299" lon="13.8119514"><ele>18.0</ele><time>2026-05-02T16:26:41.637Z</time></trkpt><trkpt lat="42.8715057" lon="13.8121029"><ele>18.0</ele><time>2026-05-02T16:26:42.636Z</time></trkpt><trkpt lat="42.8716812" lon="13.8122572"><ele>18.0</ele><time>2026-05-02T16:26:43.637Z</time></trkpt><trkpt lat="42.8720215" lon="13.8125777"><ele>19.0</ele><time>2026-05-02T16:26:45.637Z</time></trkpt><trkpt lat="42.8721913" lon="13.8127374"><ele>20.0</ele><time>2026-05-02T16:26:46.637Z</time></trkpt><trkpt lat="42.872361" lon="13.8129022"><ele>21.0</ele><time>2026-05-02T16:26:47.637Z</time></trkpt><trkpt lat="42.8725291" lon="13.813066"><ele>20.333333333333332</ele><time>2026-05-02T16:26:48.637Z</time></trkpt><trkpt lat="42.8727001" lon="13.8132289"><ele>19.666666666666664</ele><time>2026-05-02T16:26:49.637Z</time></trkpt><trkpt lat="42.8728719" lon="13.8133938"><ele>19.0</ele><time>2026-05-02T16:26:50.637Z</time></trkpt><trkpt lat="42.8730422" lon="13.8135605"><ele>19.0</ele><time>2026-05-02T16:26:51.637Z</time></trkpt><trkpt lat="42.8732108" lon="13.8137318"><ele>19.0</ele><time>2026-05-02T16:26:52.636Z</time></trkpt><trkpt lat="42.8733821" lon="13.8138986"><ele>19.0</ele><time>2026-05-02T16:26:53.637Z</time></trkpt><trkpt lat="42.8735573" lon="13.8140614"><ele>18.0</ele><time>2026-05-02T16:26:54.637Z</time></trkpt><trkpt lat="42.8737338" lon="13.8142181"><ele>17.0</ele><time>2026-05-02T16:26:55.637Z</time></trkpt><trkpt lat="42.8739094" lon="13.8143727"><ele>16.0</ele><time>2026-05-02T16:26:56.637Z</time></trkpt><trkpt lat="42.8740825" lon="13.8145366"><ele>16.0</ele><time>2026-05-02T16:26:57.637Z</time></trkpt><trkpt lat="42.8742576" lon="13.8146994"><ele>16.0</ele><time>2026-05-02T16:26:58.636Z</time></trkpt><trkpt lat="42.8744298" lon="13.8148667"><ele>16.0</ele><time>2026-05-02T16:26:59.636Z</time></trkpt><trkpt lat="42.8746032" lon="13.81503"><ele>16.333333333333332</ele><time>2026-05-02T16:27:00.637Z</time></trkpt><trkpt lat="42.8747715" lon="13.8151996"><ele>16.666666666666668</ele><time>2026-05-02T16:27:01.637Z</time></trkpt><trkpt lat="42.8749397" lon="13.815375"><ele>17.0</ele><time>2026-05-02T16:27:02.637Z</time></trkpt><trkpt lat="42.875103" lon="13.8155539"><ele>16.666666666666668</ele><time>2026-05-02T16:27:03.637Z</time></trkpt><trkpt lat="42.8752606" lon="13.8157514"><ele>16.333333333333332</ele><time>2026-05-02T16:27:04.637Z</time></trkpt><trkpt lat="42.875412" lon="13.8159573"><ele>16.0</ele><time>2026-05-02T16:27:05.637Z</time></trkpt><trkpt lat="42.8755488" lon="13.8161748"><ele>16.0</ele><time>2026-05-02T16:27:06.637Z</time></trkpt><trkpt lat="42.8756793" lon="13.8163988"><ele>16.0</ele><time>2026-05-02T16:27:07.636Z</time></trkpt><trkpt lat="42.8758058" lon="13.8166331"><ele>16.0</ele><time>2026-05-02T16:27:08.637Z</time></trkpt><trkpt lat="42.8759239" lon="13.8168781"><ele>16.333333333333332</ele><time>2026-05-02T16:27:09.637Z</time></trkpt><trkpt lat="42.8760328" lon="13.8171301"><ele>16.666666666666668</ele><time>2026-05-02T16:27:10.637Z</time></trkpt><trkpt lat="42.8761339" lon="13.8173875"><ele>17.0</ele><time>2026-05-02T16:27:11.637Z</time></trkpt><trkpt lat="42.8762237" lon="13.8176529"><ele>16.333333333333336</ele><time>2026-05-02T16:27:12.636Z</time></trkpt><trkpt lat="42.8763045" lon="13.8179223"><ele>15.666666666666668</ele><time>2026-05-02T16:27:13.637Z</time></trkpt><trkpt lat="42.8763806" lon="13.8181924"><ele>15.0</ele><time>2026-05-02T16:27:14.637Z</time></trkpt><trkpt lat="42.876457" lon="13.8184672"><ele>14.666666666666668</ele><time>2026-05-02T16:27:15.637Z</time></trkpt><trkpt lat="42.8765348" lon="13.8187379"><ele>14.333333333333334</ele><time>2026-05-02T16:27:16.637Z</time></trkpt><trkpt lat="42.8766135" lon="13.8190095"><ele>14.0</ele><time>2026-05-02T16:27:17.637Z</time></trkpt><trkpt lat="42.8766932" lon="13.8192766"><ele>14.0</ele><time>2026-05-02T16:27:18.636Z</time></trkpt><trkpt lat="42.8767683" lon="13.8195422"><ele>14.0</ele><time>2026-05-02T16:27:19.637Z</time></trkpt><trkpt lat="42.8768467" lon="13.8198045"><ele>14.0</ele><time>2026-05-02T16:27:20.637Z</time></trkpt><trkpt lat="42.8769246" lon="13.820066"><ele>15.0</ele><time>2026-05-02T16:27:21.636Z</time></trkpt><trkpt lat="42.8770057" lon="13.8203313"><ele>16.0</ele><time>2026-05-02T16:27:22.637Z</time></trkpt><trkpt lat="42.8770805" lon="13.8205959"><ele>17.0</ele><time>2026-05-02T16:27:23.637Z</time></trkpt><trkpt lat="42.8771507" lon="13.8208604"><ele>17.0</ele><time>2026-05-02T16:27:24.637Z</time></trkpt><trkpt lat="42.8772208" lon="13.8211215"><ele>17.0</ele><time>2026-05-02T16:27:25.637Z</time></trkpt><trkpt lat="42.8772931" lon="13.8213791"><ele>17.0</ele><time>2026-05-02T16:27:26.637Z</time></trkpt><trkpt lat="42.8773616" lon="13.8216331"><ele>17.0</ele><time>2026-05-02T16:27:27.636Z</time></trkpt><trkpt lat="42.8774288" lon="13.8218781"><ele>17.0</ele><time>2026-05-02T16:27:28.637Z</time></trkpt><trkpt lat="42.8774961" lon="13.8221085"><ele>17.0</ele><time>2026-05-02T16:27:29.637Z</time></trkpt><trkpt lat="42.8775584" lon="13.8223268"><ele>17.0</ele><time>2026-05-02T16:27:30.637Z</time></trkpt><trkpt lat="42.8776215" lon="13.8225344"><ele>17.0</ele><time>2026-05-02T16:27:31.638Z</time></trkpt><trkpt lat="42.8776853" lon="13.8227349"><ele>17.0</ele><time>2026-05-02T16:27:32.638Z</time></trkpt><trkpt lat="42.8777467" lon="13.82293"><ele>17.0</ele><time>2026-05-02T16:27:33.638Z</time></trkpt><trkpt lat="42.8778033" lon="13.8231191"><ele>17.0</ele><time>2026-05-02T16:27:34.638Z</time></trkpt><trkpt lat="42.8778546" lon="13.8232945"><ele>17.0</ele><time>2026-05-02T16:27:35.638Z</time></trkpt><trkpt lat="42.8779005" lon="13.8234611"><ele>17.0</ele><time>2026-05-02T16:27:36.638Z</time></trkpt><trkpt lat="42.8779344" lon="13.8236214"><ele>16.75</ele><time>2026-05-02T16:27:37.638Z</time></trkpt><trkpt lat="42.8779418" lon="13.8237937"><ele>16.5</ele><time>2026-05-02T16:27:38.638Z</time></trkpt><trkpt lat="42.8779184" lon="13.8239562"><ele>16.25</ele><time>2026-05-02T16:27:39.638Z</time></trkpt><trkpt lat="42.8778722" lon="13.8241118"><ele>16.0</ele><time>2026-05-02T16:27:40.638Z</time></trkpt><trkpt lat="42.8778464" lon="13.8242663"><ele>15.75</ele><time>2026-05-02T16:27:41.638Z</time></trkpt><trkpt lat="42.8778478" lon="13.8244352"><ele>15.5</ele><time>2026-05-02T16:27:42.637Z</time></trkpt><trkpt lat="42.8778972" lon="13.8245825"><ele>15.25</ele><time>2026-05-02T16:27:43.638Z</time></trkpt><trkpt lat="42.8779726" lon="13.8246976"><ele>15.0</ele><time>2026-05-02T16:27:44.638Z</time></trkpt><trkpt lat="42.8780588" lon="13.8247711"><ele>15.0</ele><time>2026-05-02T16:27:45.638Z</time></trkpt><trkpt lat="42.878144" lon="13.8247966"><ele>15.0</ele><time>2026-05-02T16:27:46.638Z</time></trkpt><trkpt lat="42.8782253" lon="13.8247744"><ele>15.0</ele><time>2026-05-02T16:27:47.638Z</time></trkpt><trkpt lat="42.8783065" lon="13.8247339"><ele>15.0</ele><time>2026-05-02T16:27:48.637Z</time></trkpt><trkpt lat="42.8783768" lon="13.8246602"><ele>15.0</ele><time>2026-05-02T16:27:49.638Z</time></trkpt><trkpt lat="42.8784312" lon="13.8245638"><ele>15.0</ele><time>2026-05-02T16:27:50.637Z</time></trkpt><trkpt lat="42.8784751" lon="13.8244437"><ele>14.0</ele><time>2026-05-02T16:27:51.637Z</time></trkpt><trkpt lat="42.8785141" lon="13.8243194"><ele>13.0</ele><time>2026-05-02T16:27:52.638Z</time></trkpt><trkpt lat="42.8785727" lon="13.8242059"><ele>12.0</ele><time>2026-05-02T16:27:53.638Z</time></trkpt><trkpt lat="42.8786601" lon="13.8241276"><ele>11.0</ele><time>2026-05-02T16:27:54.638Z</time></trkpt><trkpt lat="42.8787648" lon="13.8240821"><ele>10.0</ele><time>2026-05-02T16:27:55.638Z</time></trkpt><trkpt lat="42.8788773" lon="13.8240434"><ele>9.75</ele><time>2026-05-02T16:27:56.638Z</time></trkpt><trkpt lat="42.8790059" lon="13.824008"><ele>9.5</ele><time>2026-05-02T16:27:57.638Z</time></trkpt><trkpt lat="42.8791299" lon="13.8239592"><ele>9.25</ele><time>2026-05-02T16:27:58.638Z</time></trkpt><trkpt lat="42.879257" lon="13.8239078"><ele>9.0</ele><time>2026-05-02T16:27:59.637Z</time></trkpt><trkpt lat="42.879399" lon="13.8238548"><ele>8.666666666666666</ele><time>2026-05-02T16:28:00.638Z</time></trkpt><trkpt lat="42.8795472" lon="13.8238017"><ele>8.333333333333332</ele><time>2026-05-02T16:28:01.638Z</time></trkpt><trkpt lat="42.8797007" lon="13.8237434"><ele>8.0</ele><time>2026-05-02T16:28:02.638Z</time></trkpt><trkpt lat="42.879859" lon="13.8236822"><ele>8.0</ele><time>2026-05-02T16:28:03.638Z</time></trkpt><trkpt lat="42.8800151" lon="13.8236275"><ele>8.0</ele><time>2026-05-02T16:28:04.638Z</time></trkpt><trkpt lat="42.8801707" lon="13.8235748"><ele>8.0</ele><time>2026-05-02T16:28:05.638Z</time></trkpt><trkpt lat="42.8803247" lon="13.8235199"><ele>11.0</ele><time>2026-05-02T16:28:06.638Z</time></trkpt><trkpt lat="42.880476" lon="13.8234626"><ele>14.0</ele><time>2026-05-02T16:28:07.638Z</time></trkpt><trkpt lat="42.8806298" lon="13.8234051"><ele>17.0</ele><time>2026-05-02T16:28:08.637Z</time></trkpt><trkpt lat="42.8807799" lon="13.8233472"><ele>17.0</ele><time>2026-05-02T16:28:09.638Z</time></trkpt><trkpt lat="42.8809242" lon="13.8232893"><ele>17.0</ele><time>2026-05-02T16:28:10.638Z</time></trkpt><trkpt lat="42.8810658" lon="13.823227"><ele>17.0</ele><time>2026-05-02T16:28:11.638Z</time></trkpt><trkpt lat="42.8812016" lon="13.8231523"><ele>17.0</ele><time>2026-05-02T16:28:12.638Z</time></trkpt><trkpt lat="42.8813331" lon="13.8230679"><ele>17.5</ele><time>2026-05-02T16:28:13.638Z</time></trkpt><trkpt lat="42.881463" lon="13.8229841"><ele>18.0</ele><time>2026-05-02T16:28:14.637Z</time></trkpt><trkpt lat="42.8815871" lon="13.8228887"><ele>18.5</ele><time>2026-05-02T16:28:15.638Z</time></trkpt><trkpt lat="42.8817094" lon="13.8227762"><ele>19.0</ele><time>2026-05-02T16:28:16.638Z</time></trkpt><trkpt lat="42.8818122" lon="13.8226561"><ele>19.25</ele><time>2026-05-02T16:28:17.638Z</time></trkpt><trkpt lat="42.881919" lon="13.8225333"><ele>19.5</ele><time>2026-05-02T16:28:18.638Z</time></trkpt><trkpt lat="42.8820163" lon="13.8224114"><ele>19.75</ele><time>2026-05-02T16:28:19.638Z</time></trkpt><trkpt lat="42.8821142" lon="13.8222818"><ele>20.0</ele><time>2026-05-02T16:28:20.637Z</time></trkpt><trkpt lat="42.8822126" lon="13.8221542"><ele>20.0</ele><time>2026-05-02T16:28:21.637Z</time></trkpt><trkpt lat="42.8823088" lon="13.8220271"><ele>20.0</ele><time>2026-05-02T16:28:22.638Z</time></trkpt><trkpt lat="42.8824011" lon="13.8219034"><ele>20.0</ele><time>2026-05-02T16:28:23.638Z</time></trkpt><trkpt lat="42.8824923" lon="13.8217808"><ele>20.0</ele><time>2026-05-02T16:28:24.637Z</time></trkpt><trkpt lat="42.8825875" lon="13.8216587"><ele>19.5</ele><time>2026-05-02T16:28:25.637Z</time></trkpt><trkpt lat="42.8826892" lon="13.8215426"><ele>19.0</ele><time>2026-05-02T16:28:26.638Z</time></trkpt><trkpt lat="42.8828047" lon="13.8214307"><ele>18.5</ele><time>2026-05-02T16:28:27.638Z</time></trkpt><trkpt lat="42.8829288" lon="13.8213333"><ele>18.0</ele><time>2026-05-02T16:28:28.637Z</time></trkpt><trkpt lat="42.8830484" lon="13.8212582"><ele>18.0</ele><time>2026-05-02T16:28:29.638Z</time></trkpt><trkpt lat="42.8831562" lon="13.821202"><ele>18.0</ele><time>2026-05-02T16:28:30.637Z</time></trkpt><trkpt lat="42.8832548" lon="13.821154"><ele>18.0</ele><time>2026-05-02T16:28:31.639Z</time></trkpt><trkpt lat="42.8833426" lon="13.821114"><ele>18.0</ele><time>2026-05-02T16:28:32.638Z</time></trkpt><trkpt lat="42.8834226" lon="13.8210837"><ele>18.0</ele><time>2026-05-02T16:28:33.638Z</time></trkpt><trkpt lat="42.8834956" lon="13.8210676"><ele>18.333333333333332</ele><time>2026-05-02T16:28:34.638Z</time></trkpt><trkpt lat="42.8835704" lon="13.8210811"><ele>18.666666666666668</ele><time>2026-05-02T16:28:35.639Z</time></trkpt><trkpt lat="42.8836439" lon="13.8211061"><ele>19.0</ele><time>2026-05-02T16:28:36.639Z</time></trkpt><trkpt lat="42.8837063" lon="13.8211312"><ele>19.333333333333336</ele><time>2026-05-02T16:28:37.639Z</time></trkpt><trkpt lat="42.8838105" lon="13.8210915"><ele>19.666666666666668</ele><time>2026-05-02T16:28:39.639Z</time></trkpt><trkpt lat="42.8838542" lon="13.8210183"><ele>20.0</ele><time>2026-05-02T16:28:40.638Z</time></trkpt><trkpt lat="42.8838826" lon="13.8209247"><ele>20.166666666666668</ele><time>2026-05-02T16:28:41.639Z</time></trkpt><trkpt lat="42.8838865" lon="13.8208251"><ele>20.333333333333336</ele><time>2026-05-02T16:28:42.639Z</time></trkpt><trkpt lat="42.8838651" lon="13.8207241"><ele>20.5</ele><time>2026-05-02T16:28:43.638Z</time></trkpt><trkpt lat="42.8838152" lon="13.8206491"><ele>20.666666666666668</ele><time>2026-05-02T16:28:44.639Z</time></trkpt><trkpt lat="42.8837489" lon="13.8206082"><ele>20.833333333333332</ele><time>2026-05-02T16:28:45.639Z</time></trkpt><trkpt lat="42.8836555" lon="13.8205991"><ele>21.0</ele><time>2026-05-02T16:28:46.639Z</time></trkpt><trkpt lat="42.8835933" lon="13.8206476"><ele>21.0</ele><time>2026-05-02T16:28:47.639Z</time></trkpt><trkpt lat="42.8835442" lon="13.8207332"><ele>21.0</ele><time>2026-05-02T16:28:48.639Z</time></trkpt><trkpt lat="42.883508" lon="13.8208336"><ele>21.0</ele><time>2026-05-02T16:28:49.639Z</time></trkpt><trkpt lat="42.883493" lon="13.820939"><ele>21.0</ele><time>2026-05-02T16:28:50.638Z</time></trkpt><trkpt lat="42.8835249" lon="13.8210804"><ele>21.0</ele><time>2026-05-02T16:28:51.639Z</time></trkpt><trkpt lat="42.8835834" lon="13.8211961"><ele>20.8</ele><time>2026-05-02T16:28:52.638Z</time></trkpt><trkpt lat="42.8836495" lon="13.8212799"><ele>20.6</ele><time>2026-05-02T16:28:53.639Z</time></trkpt><trkpt lat="42.883738" lon="13.8213626"><ele>20.4</ele><time>2026-05-02T16:28:54.638Z</time></trkpt><trkpt lat="42.8838251" lon="13.8214656"><ele>20.2</ele><time>2026-05-02T16:28:55.638Z</time></trkpt><trkpt lat="42.8839105" lon="13.8216024"><ele>20.0</ele><time>2026-05-02T16:28:56.638Z</time></trkpt><trkpt lat="42.8839736" lon="13.8217583"><ele>20.0</ele><time>2026-05-02T16:28:57.639Z</time></trkpt><trkpt lat="42.8840301" lon="13.8219183"><ele>20.0</ele><time>2026-05-02T16:28:58.639Z</time></trkpt><trkpt lat="42.8840908" lon="13.8220933"><ele>20.0</ele><time>2026-05-02T16:28:59.639Z</time></trkpt><trkpt lat="42.8841561" lon="13.8222772"><ele>20.0</ele><time>2026-05-02T16:29:00.639Z</time></trkpt><trkpt lat="42.884223" lon="13.8224626"><ele>20.0</ele><time>2026-05-02T16:29:01.639Z</time></trkpt><trkpt lat="42.8842915" lon="13.8226476"><ele>20.0</ele><time>2026-05-02T16:29:02.639Z</time></trkpt><trkpt lat="42.8843598" lon="13.8228378"><ele>20.0</ele><time>2026-05-02T16:29:03.639Z</time></trkpt><trkpt lat="42.8844286" lon="13.8230399"><ele>19.333333333333336</ele><time>2026-05-02T16:29:04.639Z</time></trkpt><trkpt lat="42.8844972" lon="13.8232413"><ele>18.666666666666668</ele><time>2026-05-02T16:29:05.639Z</time></trkpt><trkpt lat="42.8845691" lon="13.8234468"><ele>18.0</ele><time>2026-05-02T16:29:06.639Z</time></trkpt><trkpt lat="42.8846408" lon="13.82366"><ele>18.0</ele><time>2026-05-02T16:29:07.639Z</time></trkpt><trkpt lat="42.8847082" lon="13.8238672"><ele>18.0</ele><time>2026-05-02T16:29:08.639Z</time></trkpt><trkpt lat="42.8847728" lon="13.8240676"><ele>18.0</ele><time>2026-05-02T16:29:09.639Z</time></trkpt><trkpt lat="42.8848384" lon="13.8242627"><ele>17.75</ele><time>2026-05-02T16:29:10.639Z</time></trkpt><trkpt lat="42.8848997" lon="13.8244428"><ele>17.5</ele><time>2026-05-02T16:29:11.638Z</time></trkpt><trkpt lat="42.884959" lon="13.8246133"><ele>17.25</ele><time>2026-05-02T16:29:12.638Z</time></trkpt><trkpt lat="42.8850155" lon="13.824784"><ele>17.0</ele><time>2026-05-02T16:29:13.639Z</time></trkpt><trkpt lat="42.8850641" lon="13.8249699"><ele>17.0</ele><time>2026-05-02T16:29:14.639Z</time></trkpt><trkpt lat="42.8850945" lon="13.8251688"><ele>17.0</ele><time>2026-05-02T16:29:15.639Z</time></trkpt><trkpt lat="42.8851037" lon="13.8253706"><ele>17.0</ele><time>2026-05-02T16:29:16.639Z</time></trkpt><trkpt lat="42.8850893" lon="13.8255804"><ele>17.0</ele><time>2026-05-02T16:29:17.638Z</time></trkpt><trkpt lat="42.8850407" lon="13.8258062"><ele>17.0</ele><time>2026-05-02T16:29:18.639Z</time></trkpt><trkpt lat="42.8849741" lon="13.8260133"><ele>17.0</ele><time>2026-05-02T16:29:19.639Z</time></trkpt><trkpt lat="42.8848908" lon="13.8262"><ele>16.666666666666668</ele><time>2026-05-02T16:29:20.639Z</time></trkpt><trkpt lat="42.8847845" lon="13.8263841"><ele>16.333333333333332</ele><time>2026-05-02T16:29:21.639Z</time></trkpt><trkpt lat="42.8846642" lon="13.8265601"><ele>16.0</ele><time>2026-05-02T16:29:22.639Z</time></trkpt><trkpt lat="42.8845359" lon="13.8267158"><ele>15.666666666666666</ele><time>2026-05-02T16:29:23.639Z</time></trkpt><trkpt lat="42.884391" lon="13.8268476"><ele>15.333333333333332</ele><time>2026-05-02T16:29:24.639Z</time></trkpt><trkpt lat="42.8842339" lon="13.8269631"><ele>15.0</ele><time>2026-05-02T16:29:25.639Z</time></trkpt><trkpt lat="42.8840716" lon="13.8270794"><ele>14.666666666666668</ele><time>2026-05-02T16:29:26.639Z</time></trkpt><trkpt lat="42.8839178" lon="13.8272143"><ele>14.333333333333334</ele><time>2026-05-02T16:29:27.638Z</time></trkpt><trkpt lat="42.8837766" lon="13.8273623"><ele>14.0</ele><time>2026-05-02T16:29:28.639Z</time></trkpt><trkpt lat="42.8836469" lon="13.8275323"><ele>14.333333333333334</ele><time>2026-05-02T16:29:29.638Z</time></trkpt><trkpt lat="42.8835346" lon="13.8277341"><ele>14.666666666666668</ele><time>2026-05-02T16:29:30.64Z</time></trkpt><trkpt lat="42.8834347" lon="13.8279492"><ele>15.0</ele><time>2026-05-02T16:29:31.639Z</time></trkpt><trkpt lat="42.8833505" lon="13.8281751"><ele>15.333333333333332</ele><time>2026-05-02T16:29:32.639Z</time></trkpt><trkpt lat="42.8833018" lon="13.8284051"><ele>15.666666666666666</ele><time>2026-05-02T16:29:33.64Z</time></trkpt><trkpt lat="42.8832562" lon="13.8286345"><ele>16.0</ele><time>2026-05-02T16:29:34.639Z</time></trkpt><trkpt lat="42.8832273" lon="13.8288678"><ele>16.0</ele><time>2026-05-02T16:29:35.639Z</time></trkpt><trkpt lat="42.8832129" lon="13.8291037"><ele>16.0</ele><time>2026-05-02T16:29:36.64Z</time></trkpt><trkpt lat="42.8832208" lon="13.8293405"><ele>16.0</ele><time>2026-05-02T16:29:37.64Z</time></trkpt><trkpt lat="42.8832471" lon="13.8295711"><ele>16.333333333333332</ele><time>2026-05-02T16:29:38.639Z</time></trkpt><trkpt lat="42.8832893" lon="13.8297992"><ele>16.666666666666668</ele><time>2026-05-02T16:29:39.639Z</time></trkpt><trkpt lat="42.8833397" lon="13.830034"><ele>17.0</ele><time>2026-05-02T16:29:40.64Z</time></trkpt><trkpt lat="42.883391" lon="13.8302712"><ele>17.0</ele><time>2026-05-02T16:29:41.64Z</time></trkpt><trkpt lat="42.8834487" lon="13.8305104"><ele>17.0</ele><time>2026-05-02T16:29:42.64Z</time></trkpt><trkpt lat="42.8835059" lon="13.8307527"><ele>17.0</ele><time>2026-05-02T16:29:43.64Z</time></trkpt><trkpt lat="42.8835565" lon="13.8310078"><ele>17.0</ele><time>2026-05-02T16:29:44.64Z</time></trkpt><trkpt lat="42.8836103" lon="13.8312541"><ele>17.0</ele><time>2026-05-02T16:29:45.64Z</time></trkpt><trkpt lat="42.8836594" lon="13.8314955"><ele>17.0</ele><time>2026-05-02T16:29:46.64Z</time></trkpt><trkpt lat="42.8837108" lon="13.8317441"><ele>17.333333333333336</ele><time>2026-05-02T16:29:47.64Z</time></trkpt><trkpt lat="42.8837625" lon="13.8319903"><ele>17.666666666666668</ele><time>2026-05-02T16:29:48.64Z</time></trkpt><trkpt lat="42.8838203" lon="13.8322296"><ele>18.0</ele><time>2026-05-02T16:29:49.639Z</time></trkpt><trkpt lat="42.8838744" lon="13.832471"><ele>17.666666666666668</ele><time>2026-05-02T16:29:50.64Z</time></trkpt><trkpt lat="42.8839278" lon="13.8327133"><ele>17.333333333333336</ele><time>2026-05-02T16:29:51.64Z</time></trkpt><trkpt lat="42.8839793" lon="13.8329597"><ele>17.0</ele><time>2026-05-02T16:29:52.64Z</time></trkpt><trkpt lat="42.8840361" lon="13.8332065"><ele>16.0</ele><time>2026-05-02T16:29:53.639Z</time></trkpt><trkpt lat="42.8841435" lon="13.8337039"><ele>15.0</ele><time>2026-05-02T16:29:55.64Z</time></trkpt><trkpt lat="42.8841998" lon="13.8339557"><ele>15.0</ele><time>2026-05-02T16:29:56.64Z</time></trkpt><trkpt lat="42.8842559" lon="13.8342154"><ele>15.0</ele><time>2026-05-02T16:29:57.64Z</time></trkpt><trkpt lat="42.8843091" lon="13.8344704"><ele>15.0</ele><time>2026-05-02T16:29:58.64Z</time></trkpt><trkpt lat="42.884369" lon="13.8347322"><ele>15.666666666666668</ele><time>2026-05-02T16:29:59.64Z</time></trkpt><trkpt lat="42.8844214" lon="13.8349829"><ele>16.333333333333336</ele><time>2026-05-02T16:30:00.64Z</time></trkpt><trkpt lat="42.8844753" lon="13.8352345"><ele>17.0</ele><time>2026-05-02T16:30:01.64Z</time></trkpt><trkpt lat="42.8845271" lon="13.8354814"><ele>17.0</ele><time>2026-05-02T16:30:02.64Z</time></trkpt><trkpt lat="42.8845762" lon="13.8357166"><ele>17.0</ele><time>2026-05-02T16:30:03.64Z</time></trkpt><trkpt lat="42.8846274" lon="13.8359424"><ele>17.0</ele><time>2026-05-02T16:30:04.64Z</time></trkpt><trkpt lat="42.8846723" lon="13.8361487"><ele>16.75</ele><time>2026-05-02T16:30:05.639Z</time></trkpt><trkpt lat="42.8847106" lon="13.8363384"><ele>16.5</ele><time>2026-05-02T16:30:06.64Z</time></trkpt><trkpt lat="42.8847517" lon="13.8365177"><ele>16.25</ele><time>2026-05-02T16:30:07.64Z</time></trkpt><trkpt lat="42.8848019" lon="13.8366748"><ele>16.0</ele><time>2026-05-02T16:30:08.64Z</time></trkpt><trkpt lat="42.8848487" lon="13.836802"><ele>15.999999999999998</ele><time>2026-05-02T16:30:09.64Z</time></trkpt><trkpt lat="42.8849052" lon="13.8369085"><ele>16.0</ele><time>2026-05-02T16:30:10.639Z</time></trkpt><trkpt lat="42.8849503" lon="13.8369887"><ele>16.0</ele><time>2026-05-02T16:30:11.64Z</time></trkpt><trkpt lat="42.8849842" lon="13.8370638"><ele>16.0</ele><time>2026-05-02T16:30:12.64Z</time></trkpt><trkpt lat="42.8850213" lon="13.8371562"><ele>15.999999999999998</ele><time>2026-05-02T16:30:13.64Z</time></trkpt><trkpt lat="42.8850617" lon="13.8372854"><ele>16.0</ele><time>2026-05-02T16:30:14.64Z</time></trkpt><trkpt lat="42.8851036" lon="13.8374523"><ele>15.25</ele><time>2026-05-02T16:30:15.639Z</time></trkpt><trkpt lat="42.8851313" lon="13.8376413"><ele>14.5</ele><time>2026-05-02T16:30:16.64Z</time></trkpt><trkpt lat="42.8851596" lon="13.8378413"><ele>13.75</ele><time>2026-05-02T16:30:17.639Z</time></trkpt><trkpt lat="42.8851881" lon="13.8380485"><ele>13.0</ele><time>2026-05-02T16:30:18.64Z</time></trkpt><trkpt lat="42.8852194" lon="13.8382641"><ele>13.0</ele><time>2026-05-02T16:30:19.64Z</time></trkpt><trkpt lat="42.8852563" lon="13.8384788"><ele>13.0</ele><time>2026-05-02T16:30:20.64Z</time></trkpt><trkpt lat="42.8852995" lon="13.8386937"><ele>13.0</ele><time>2026-05-02T16:30:21.64Z</time></trkpt><trkpt lat="42.8853377" lon="13.83892"><ele>13.0</ele><time>2026-05-02T16:30:22.64Z</time></trkpt><trkpt lat="42.8853735" lon="13.8391458"><ele>13.0</ele><time>2026-05-02T16:30:23.64Z</time></trkpt><trkpt lat="42.885409" lon="13.8393801"><ele>13.0</ele><time>2026-05-02T16:30:24.64Z</time></trkpt><trkpt lat="42.8854398" lon="13.8396183"><ele>13.333333333333332</ele><time>2026-05-02T16:30:25.64Z</time></trkpt><trkpt lat="42.8854712" lon="13.8398566"><ele>13.666666666666668</ele><time>2026-05-02T16:30:26.64Z</time></trkpt><trkpt lat="42.8855046" lon="13.8401067"><ele>14.0</ele><time>2026-05-02T16:30:27.64Z</time></trkpt><trkpt lat="42.8855316" lon="13.8403591"><ele>14.0</ele><time>2026-05-02T16:30:28.639Z</time></trkpt><trkpt lat="42.8855557" lon="13.8406164"><ele>14.0</ele><time>2026-05-02T16:30:29.639Z</time></trkpt><trkpt lat="42.8855679" lon="13.840872"><ele>14.0</ele><time>2026-05-02T16:30:30.64Z</time></trkpt><trkpt lat="42.8855705" lon="13.8411329"><ele>14.0</ele><time>2026-05-02T16:30:31.64Z</time></trkpt><trkpt lat="42.8855697" lon="13.8414009"><ele>14.0</ele><time>2026-05-02T16:30:32.64Z</time></trkpt><trkpt lat="42.8855675" lon="13.8416784"><ele>14.0</ele><time>2026-05-02T16:30:33.64Z</time></trkpt><trkpt lat="42.8855655" lon="13.841949"><ele>14.0</ele><time>2026-05-02T16:30:34.639Z</time></trkpt><trkpt lat="42.885566" lon="13.8422184"><ele>14.0</ele><time>2026-05-02T16:30:35.639Z</time></trkpt><trkpt lat="42.8855697" lon="13.8424926"><ele>14.0</ele><time>2026-05-02T16:30:36.64Z</time></trkpt><trkpt lat="42.8855738" lon="13.8427758"><ele>14.0</ele><time>2026-05-02T16:30:37.64Z</time></trkpt><trkpt lat="42.8855783" lon="13.8430641"><ele>14.0</ele><time>2026-05-02T16:30:38.639Z</time></trkpt><trkpt lat="42.8855805" lon="13.8433548"><ele>14.0</ele><time>2026-05-02T16:30:39.64Z</time></trkpt><trkpt lat="42.8855778" lon="13.8436569"><ele>13.666666666666668</ele><time>2026-05-02T16:30:40.64Z</time></trkpt><trkpt lat="42.8855777" lon="13.843957"><ele>13.333333333333332</ele><time>2026-05-02T16:30:41.639Z</time></trkpt><trkpt lat="42.8855781" lon="13.8442597"><ele>13.0</ele><time>2026-05-02T16:30:42.641Z</time></trkpt><trkpt lat="42.8855763" lon="13.8445605"><ele>13.0</ele><time>2026-05-02T16:30:43.641Z</time></trkpt><trkpt lat="42.8855816" lon="13.8448602"><ele>13.0</ele><time>2026-05-02T16:30:44.64Z</time></trkpt><trkpt lat="42.8855827" lon="13.8451591"><ele>13.0</ele><time>2026-05-02T16:30:45.641Z</time></trkpt><trkpt lat="42.8855853" lon="13.8454606"><ele>12.333333333333332</ele><time>2026-05-02T16:30:46.641Z</time></trkpt><trkpt lat="42.8855854" lon="13.8457637"><ele>11.666666666666666</ele><time>2026-05-02T16:30:47.641Z</time></trkpt><trkpt lat="42.8855843" lon="13.8460606"><ele>11.0</ele><time>2026-05-02T16:30:48.641Z</time></trkpt><trkpt lat="42.8855771" lon="13.8463524"><ele>11.0</ele><time>2026-05-02T16:30:49.641Z</time></trkpt><trkpt lat="42.8855646" lon="13.8466402"><ele>11.0</ele><time>2026-05-02T16:30:50.64Z</time></trkpt><trkpt lat="42.8855465" lon="13.8469267"><ele>11.0</ele><time>2026-05-02T16:30:51.641Z</time></trkpt><trkpt lat="42.8855264" lon="13.8472059"><ele>11.666666666666666</ele><time>2026-05-02T16:30:52.641Z</time></trkpt><trkpt lat="42.8855124" lon="13.8474825"><ele>12.333333333333332</ele><time>2026-05-02T16:30:53.641Z</time></trkpt><trkpt lat="42.8854989" lon="13.8477533"><ele>13.0</ele><time>2026-05-02T16:30:54.641Z</time></trkpt><trkpt lat="42.8854902" lon="13.8480204"><ele>13.0</ele><time>2026-05-02T16:30:55.641Z</time></trkpt><trkpt lat="42.8854811" lon="13.8482861"><ele>13.0</ele><time>2026-05-02T16:30:56.64Z</time></trkpt><trkpt lat="42.8854737" lon="13.8485478"><ele>13.0</ele><time>2026-05-02T16:30:57.64Z</time></trkpt><trkpt lat="42.885472" lon="13.8488177"><ele>13.0</ele><time>2026-05-02T16:30:58.641Z</time></trkpt><trkpt lat="42.8854791" lon="13.8490852"><ele>13.0</ele><time>2026-05-02T16:30:59.641Z</time></trkpt><trkpt lat="42.8854899" lon="13.8493517"><ele>13.0</ele><time>2026-05-02T16:31:00.641Z</time></trkpt><trkpt lat="42.885513" lon="13.8496257"><ele>13.0</ele><time>2026-05-02T16:31:01.641Z</time></trkpt><trkpt lat="42.8855441" lon="13.8499032"><ele>13.0</ele><time>2026-05-02T16:31:02.641Z</time></trkpt><trkpt lat="42.8855851" lon="13.8501963"><ele>13.0</ele><time>2026-05-02T16:31:03.641Z</time></trkpt><trkpt lat="42.8856388" lon="13.8504841"><ele>12.333333333333332</ele><time>2026-05-02T16:31:04.641Z</time></trkpt><trkpt lat="42.8856992" lon="13.8507692"><ele>11.666666666666666</ele><time>2026-05-02T16:31:05.64Z</time></trkpt><trkpt lat="42.8857544" lon="13.8510584"><ele>11.0</ele><time>2026-05-02T16:31:06.641Z</time></trkpt><trkpt lat="42.8858214" lon="13.8513333"><ele>11.0</ele><time>2026-05-02T16:31:07.641Z</time></trkpt><trkpt lat="42.8858966" lon="13.8516069"><ele>11.0</ele><time>2026-05-02T16:31:08.64Z</time></trkpt><trkpt lat="42.8859727" lon="13.8518812"><ele>11.0</ele><time>2026-05-02T16:31:09.64Z</time></trkpt><trkpt lat="42.8860594" lon="13.8521569"><ele>11.0</ele><time>2026-05-02T16:31:10.641Z</time></trkpt><trkpt lat="42.8861552" lon="13.85243"><ele>11.0</ele><time>2026-05-02T16:31:11.641Z</time></trkpt><trkpt lat="42.8862485" lon="13.852703"><ele>11.0</ele><time>2026-05-02T16:31:12.64Z</time></trkpt><trkpt lat="42.8863475" lon="13.8529792"><ele>10.0</ele><time>2026-05-02T16:31:13.64Z</time></trkpt><trkpt lat="42.8864455" lon="13.8532581"><ele>9.0</ele><time>2026-05-02T16:31:14.641Z</time></trkpt><trkpt lat="42.8865397" lon="13.8535357"><ele>9.0</ele><time>2026-05-02T16:31:15.641Z</time></trkpt><trkpt lat="42.8866396" lon="13.8538144"><ele>9.0</ele><time>2026-05-02T16:31:16.641Z</time></trkpt><trkpt lat="42.8867346" lon="13.854088"><ele>9.0</ele><time>2026-05-02T16:31:17.641Z</time></trkpt><trkpt lat="42.886915" lon="13.85462"><ele>9.666666666666666</ele><time>2026-05-02T16:31:19.641Z</time></trkpt><trkpt lat="42.8870044" lon="13.8548666"><ele>10.333333333333332</ele><time>2026-05-02T16:31:20.641Z</time></trkpt><trkpt lat="42.8870898" lon="13.8551099"><ele>11.0</ele><time>2026-05-02T16:31:21.641Z</time></trkpt><trkpt lat="42.8871675" lon="13.8553375"><ele>11.333333333333332</ele><time>2026-05-02T16:31:22.641Z</time></trkpt><trkpt lat="42.8872412" lon="13.8555565"><ele>11.666666666666666</ele><time>2026-05-02T16:31:23.641Z</time></trkpt><trkpt lat="42.8873099" lon="13.8557474"><ele>12.0</ele><time>2026-05-02T16:31:24.64Z</time></trkpt><trkpt lat="42.8873741" lon="13.8559237"><ele>11.6</ele><time>2026-05-02T16:31:25.641Z</time></trkpt><trkpt lat="42.8874182" lon="13.8560946"><ele>11.2</ele><time>2026-05-02T16:31:26.641Z</time></trkpt><trkpt lat="42.8874438" lon="13.8562454"><ele>10.8</ele><time>2026-05-02T16:31:27.642Z</time></trkpt><trkpt lat="42.8874458" lon="13.8563843"><ele>10.4</ele><time>2026-05-02T16:31:28.641Z</time></trkpt><trkpt lat="42.8874394" lon="13.8565109"><ele>10.0</ele><time>2026-05-02T16:31:29.64Z</time></trkpt><trkpt lat="42.8874318" lon="13.856627"><ele>10.0</ele><time>2026-05-02T16:31:30.641Z</time></trkpt><trkpt lat="42.8874575" lon="13.8567178"><ele>10.0</ele><time>2026-05-02T16:31:31.64Z</time></trkpt><trkpt lat="42.8875185" lon="13.8567902"><ele>10.0</ele><time>2026-05-02T16:31:32.641Z</time></trkpt><trkpt lat="42.887602" lon="13.8568681"><ele>10.0</ele><time>2026-05-02T16:31:33.641Z</time></trkpt><trkpt lat="42.8876852" lon="13.8569778"><ele>10.0</ele><time>2026-05-02T16:31:34.64Z</time></trkpt><trkpt lat="42.8877578" lon="13.8571334"><ele>9.666666666666668</ele><time>2026-05-02T16:31:35.64Z</time></trkpt><trkpt lat="42.887815" lon="13.8573246"><ele>9.333333333333334</ele><time>2026-05-02T16:31:36.641Z</time></trkpt><trkpt lat="42.8878813" lon="13.8575359"><ele>9.0</ele><time>2026-05-02T16:31:37.642Z</time></trkpt><trkpt lat="42.8879602" lon="13.8577314"><ele>9.0</ele><time>2026-05-02T16:31:38.641Z</time></trkpt><trkpt lat="42.888045" lon="13.857944"><ele>9.0</ele><time>2026-05-02T16:31:39.641Z</time></trkpt><trkpt lat="42.8881386" lon="13.8581597"><ele>9.0</ele><time>2026-05-02T16:31:40.642Z</time></trkpt><trkpt lat="42.8882244" lon="13.8583856"><ele>8.666666666666666</ele><time>2026-05-02T16:31:41.641Z</time></trkpt><trkpt lat="42.8883074" lon="13.8586051"><ele>8.333333333333332</ele><time>2026-05-02T16:31:42.641Z</time></trkpt><trkpt lat="42.888397" lon="13.8588221"><ele>8.0</ele><time>2026-05-02T16:31:43.642Z</time></trkpt><trkpt lat="42.8884879" lon="13.8590457"><ele>7.666666666666666</ele><time>2026-05-02T16:31:44.641Z</time></trkpt><trkpt lat="42.8885815" lon="13.8592853"><ele>7.333333333333334</ele><time>2026-05-02T16:31:45.64Z</time></trkpt><trkpt lat="42.8886728" lon="13.8595304"><ele>7.0</ele><time>2026-05-02T16:31:46.641Z</time></trkpt><trkpt lat="42.888763" lon="13.8597836"><ele>7.0</ele><time>2026-05-02T16:31:47.641Z</time></trkpt><trkpt lat="42.8888521" lon="13.860042"><ele>7.0</ele><time>2026-05-02T16:31:48.642Z</time></trkpt><trkpt lat="42.8889378" lon="13.8602951"><ele>7.0</ele><time>2026-05-02T16:31:49.642Z</time></trkpt><trkpt lat="42.889028" lon="13.8605388"><ele>6.666666666666667</ele><time>2026-05-02T16:31:50.642Z</time></trkpt><trkpt lat="42.8891217" lon="13.8607769"><ele>6.333333333333334</ele><time>2026-05-02T16:31:51.642Z</time></trkpt><trkpt lat="42.8892262" lon="13.8610248"><ele>6.0</ele><time>2026-05-02T16:31:52.642Z</time></trkpt><trkpt lat="42.8893333" lon="13.8612861"><ele>6.0</ele><time>2026-05-02T16:31:53.642Z</time></trkpt><trkpt lat="42.8894398" lon="13.8615519"><ele>6.0</ele><time>2026-05-02T16:31:54.641Z</time></trkpt><trkpt lat="42.889546" lon="13.8618145"><ele>6.0</ele><time>2026-05-02T16:31:55.642Z</time></trkpt><trkpt lat="42.8896444" lon="13.8620714"><ele>6.333333333333334</ele><time>2026-05-02T16:31:56.641Z</time></trkpt><trkpt lat="42.889748" lon="13.8623184"><ele>6.666666666666667</ele><time>2026-05-02T16:31:57.642Z</time></trkpt><trkpt lat="42.8898491" lon="13.8625656"><ele>7.0</ele><time>2026-05-02T16:31:58.642Z</time></trkpt><trkpt lat="42.8899477" lon="13.862833"><ele>7.0</ele><time>2026-05-02T16:31:59.642Z</time></trkpt><trkpt lat="42.8900433" lon="13.8630953"><ele>7.0</ele><time>2026-05-02T16:32:00.642Z</time></trkpt><trkpt lat="42.890146" lon="13.8633506"><ele>7.0</ele><time>2026-05-02T16:32:01.642Z</time></trkpt><trkpt lat="42.8902524" lon="13.8636055"><ele>7.0</ele><time>2026-05-02T16:32:02.642Z</time></trkpt><trkpt lat="42.8903479" lon="13.8638561"><ele>7.0</ele><time>2026-05-02T16:32:03.642Z</time></trkpt><trkpt lat="42.8904386" lon="13.864097"><ele>7.0</ele><time>2026-05-02T16:32:04.642Z</time></trkpt><trkpt lat="42.8905301" lon="13.8643342"><ele>7.0</ele><time>2026-05-02T16:32:05.642Z</time></trkpt><trkpt lat="42.8906217" lon="13.8645658"><ele>7.0</ele><time>2026-05-02T16:32:06.642Z</time></trkpt><trkpt lat="42.8907131" lon="13.8647986"><ele>7.0</ele><time>2026-05-02T16:32:07.642Z</time></trkpt><trkpt lat="42.8908033" lon="13.8650245"><ele>7.0</ele><time>2026-05-02T16:32:08.641Z</time></trkpt><trkpt lat="42.8908881" lon="13.8652327"><ele>7.0</ele><time>2026-05-02T16:32:09.641Z</time></trkpt><trkpt lat="42.890968" lon="13.8654343"><ele>7.0</ele><time>2026-05-02T16:32:10.642Z</time></trkpt><trkpt lat="42.8910451" lon="13.8656335"><ele>7.0</ele><time>2026-05-02T16:32:11.642Z</time></trkpt><trkpt lat="42.891117" lon="13.8658211"><ele>7.0</ele><time>2026-05-02T16:32:12.641Z</time></trkpt><trkpt lat="42.8911818" lon="13.8660027"><ele>7.0</ele><time>2026-05-02T16:32:13.642Z</time></trkpt><trkpt lat="42.8912424" lon="13.8661771"><ele>7.0</ele><time>2026-05-02T16:32:14.642Z</time></trkpt><trkpt lat="42.8913094" lon="13.8663269"><ele>7.0</ele><time>2026-05-02T16:32:15.642Z</time></trkpt><trkpt lat="42.891391" lon="13.8664515"><ele>6.999999999999999</ele><time>2026-05-02T16:32:16.642Z</time></trkpt><trkpt lat="42.8914798" lon="13.8665381"><ele>6.999999999999999</ele><time>2026-05-02T16:32:17.642Z</time></trkpt><trkpt lat="42.8915781" lon="13.866603"><ele>7.0</ele><time>2026-05-02T16:32:18.642Z</time></trkpt><trkpt lat="42.8916758" lon="13.8666549"><ele>7.0</ele><time>2026-05-02T16:32:19.641Z</time></trkpt><trkpt lat="42.8917667" lon="13.8667006"><ele>6.6</ele><time>2026-05-02T16:32:20.642Z</time></trkpt><trkpt lat="42.8918536" lon="13.8667237"><ele>6.199999999999999</ele><time>2026-05-02T16:32:21.641Z</time></trkpt><trkpt lat="42.8919355" lon="13.8667178"><ele>5.8</ele><time>2026-05-02T16:32:22.642Z</time></trkpt><trkpt lat="42.8920088" lon="13.8666661"><ele>5.4</ele><time>2026-05-02T16:32:23.641Z</time></trkpt><trkpt lat="42.8920823" lon="13.8665802"><ele>5.0</ele><time>2026-05-02T16:32:24.642Z</time></trkpt><trkpt lat="42.8921566" lon="13.8664836"><ele>5.0</ele><time>2026-05-02T16:32:25.642Z</time></trkpt><trkpt lat="42.8922166" lon="13.8663801"><ele>5.0</ele><time>2026-05-02T16:32:26.642Z</time></trkpt><trkpt lat="42.892265" lon="13.8662662"><ele>5.0</ele><time>2026-05-02T16:32:27.642Z</time></trkpt><trkpt lat="42.8923265" lon="13.8661618"><ele>5.0</ele><time>2026-05-02T16:32:28.642Z</time></trkpt><trkpt lat="42.8924108" lon="13.8660968"><ele>5.0</ele><time>2026-05-02T16:32:29.642Z</time></trkpt><trkpt lat="42.8924999" lon="13.8660863"><ele>4.8</ele><time>2026-05-02T16:32:30.642Z</time></trkpt><trkpt lat="42.8925933" lon="13.8661126"><ele>4.6</ele><time>2026-05-02T16:32:31.642Z</time></trkpt><trkpt lat="42.8926878" lon="13.8661821"><ele>4.4</ele><time>2026-05-02T16:32:32.641Z</time></trkpt><trkpt lat="42.8927706" lon="13.8662831"><ele>4.2</ele><time>2026-05-02T16:32:33.642Z</time></trkpt><trkpt lat="42.8928405" lon="13.8664037"><ele>4.0</ele><time>2026-05-02T16:32:34.642Z</time></trkpt><trkpt lat="42.892897" lon="13.8665131"><ele>3.9999999999999996</ele><time>2026-05-02T16:32:35.642Z</time></trkpt><trkpt lat="42.8929518" lon="13.8666137"><ele>4.0</ele><time>2026-05-02T16:32:36.642Z</time></trkpt><trkpt lat="42.8929989" lon="13.8666951"><ele>4.0</ele><time>2026-05-02T16:32:37.641Z</time></trkpt><trkpt lat="42.8930447" lon="13.866773"><ele>4.0</ele><time>2026-05-02T16:32:38.642Z</time></trkpt><trkpt lat="42.8930894" lon="13.8668509"><ele>3.9999999999999996</ele><time>2026-05-02T16:32:39.642Z</time></trkpt><trkpt lat="42.8931383" lon="13.8669701"><ele>4.0</ele><time>2026-05-02T16:32:41.642Z</time></trkpt><trkpt lat="42.8931858" lon="13.8670324"><ele>4.2</ele><time>2026-05-02T16:32:44.642Z</time></trkpt><trkpt lat="42.8932672" lon="13.8670302"><ele>4.4</ele><time>2026-05-02T16:32:46.642Z</time></trkpt><trkpt lat="42.8933382" lon="13.8669946"><ele>4.6</ele><time>2026-05-02T16:32:47.642Z</time></trkpt><trkpt lat="42.8934227" lon="13.8669274"><ele>4.8</ele><time>2026-05-02T16:32:48.643Z</time></trkpt><trkpt lat="42.8935233" lon="13.8668468"><ele>5.0</ele><time>2026-05-02T16:32:49.641Z</time></trkpt><trkpt lat="42.8936391" lon="13.8667573"><ele>5.0</ele><time>2026-05-02T16:32:50.642Z</time></trkpt><trkpt lat="42.8937693" lon="13.8666613"><ele>5.0</ele><time>2026-05-02T16:32:51.642Z</time></trkpt><trkpt lat="42.8939073" lon="13.8665599"><ele>5.0</ele><time>2026-05-02T16:32:52.643Z</time></trkpt><trkpt lat="42.8940394" lon="13.8664546"><ele>5.0</ele><time>2026-05-02T16:32:53.643Z</time></trkpt><trkpt lat="42.8941741" lon="13.86634"><ele>5.0</ele><time>2026-05-02T16:32:54.643Z</time></trkpt><trkpt lat="42.8943112" lon="13.8662216"><ele>5.0</ele><time>2026-05-02T16:32:55.643Z</time></trkpt><trkpt lat="42.8944568" lon="13.8660996"><ele>5.666666666666667</ele><time>2026-05-02T16:32:56.643Z</time></trkpt><trkpt lat="42.8946046" lon="13.8659777"><ele>6.333333333333334</ele><time>2026-05-02T16:32:57.643Z</time></trkpt><trkpt lat="42.8947528" lon="13.8658561"><ele>7.0</ele><time>2026-05-02T16:32:58.643Z</time></trkpt><trkpt lat="42.8948977" lon="13.8657451"><ele>7.333333333333334</ele><time>2026-05-02T16:32:59.643Z</time></trkpt><trkpt lat="42.8950354" lon="13.8656349"><ele>7.666666666666666</ele><time>2026-05-02T16:33:00.643Z</time></trkpt><trkpt lat="42.8951678" lon="13.8655258"><ele>8.0</ele><time>2026-05-02T16:33:01.643Z</time></trkpt><trkpt lat="42.8952916" lon="13.8654162"><ele>7.800000000000001</ele><time>2026-05-02T16:33:02.643Z</time></trkpt><trkpt lat="42.8954049" lon="13.8653196"><ele>7.6000000000000005</ele><time>2026-05-02T16:33:03.642Z</time></trkpt><trkpt lat="42.895506" lon="13.8652432"><ele>7.3999999999999995</ele><time>2026-05-02T16:33:04.643Z</time></trkpt><trkpt lat="42.895601" lon="13.8651758"><ele>7.199999999999999</ele><time>2026-05-02T16:33:05.643Z</time></trkpt><trkpt lat="42.8956806" lon="13.8651172"><ele>7.0</ele><time>2026-05-02T16:33:06.643Z</time></trkpt><trkpt lat="42.895748" lon="13.8650804"><ele>7.0</ele><time>2026-05-02T16:33:07.643Z</time></trkpt><trkpt lat="42.8958654" lon="13.8650836"><ele>7.0</ele><time>2026-05-02T16:33:09.643Z</time></trkpt><trkpt lat="42.8959564" lon="13.8652304"><ele>7.0</ele><time>2026-05-02T16:33:11.643Z</time></trkpt><trkpt lat="42.8960108" lon="13.8653394"><ele>7.0</ele><time>2026-05-02T16:33:12.643Z</time></trkpt><trkpt lat="42.8960804" lon="13.8654723"><ele>6.75</ele><time>2026-05-02T16:33:13.642Z</time></trkpt><trkpt lat="42.8961623" lon="13.8656231"><ele>6.5</ele><time>2026-05-02T16:33:14.643Z</time></trkpt><trkpt lat="42.8962468" lon="13.8657786"><ele>6.25</ele><time>2026-05-02T16:33:15.642Z</time></trkpt><trkpt lat="42.8963376" lon="13.8659413"><ele>6.0</ele><time>2026-05-02T16:33:16.642Z</time></trkpt><trkpt lat="42.8964316" lon="13.8661159"><ele>6.0</ele><time>2026-05-02T16:33:17.643Z</time></trkpt><trkpt lat="42.8965273" lon="13.8663043"><ele>6.0</ele><time>2026-05-02T16:33:18.643Z</time></trkpt><trkpt lat="42.8966279" lon="13.8664989"><ele>6.0</ele><time>2026-05-02T16:33:19.642Z</time></trkpt><trkpt lat="42.8967245" lon="13.866694"><ele>6.0</ele><time>2026-05-02T16:33:20.643Z</time></trkpt><trkpt lat="42.8968204" lon="13.8668947"><ele>6.0</ele><time>2026-05-02T16:33:21.643Z</time></trkpt><trkpt lat="42.8969188" lon="13.8671028"><ele>6.0</ele><time>2026-05-02T16:33:22.643Z</time></trkpt><trkpt lat="42.8970224" lon="13.8673149"><ele>6.0</ele><time>2026-05-02T16:33:23.643Z</time></trkpt><trkpt lat="42.8971279" lon="13.8675317"><ele>6.0</ele><time>2026-05-02T16:33:24.643Z</time></trkpt><trkpt lat="42.8972319" lon="13.8677497"><ele>6.0</ele><time>2026-05-02T16:33:25.643Z</time></trkpt><trkpt lat="42.897331" lon="13.8679625"><ele>5.666666666666667</ele><time>2026-05-02T16:33:26.643Z</time></trkpt><trkpt lat="42.8974311" lon="13.8681884"><ele>5.333333333333334</ele><time>2026-05-02T16:33:27.643Z</time></trkpt><trkpt lat="42.8975267" lon="13.8684183"><ele>5.0</ele><time>2026-05-02T16:33:28.643Z</time></trkpt><trkpt lat="42.8976148" lon="13.8686532"><ele>5.0</ele><time>2026-05-02T16:33:29.643Z</time></trkpt><trkpt lat="42.8976983" lon="13.8689002"><ele>5.0</ele><time>2026-05-02T16:33:30.643Z</time></trkpt><trkpt lat="42.8977831" lon="13.8691341"><ele>5.0</ele><time>2026-05-02T16:33:31.642Z</time></trkpt><trkpt lat="42.8978603" lon="13.8693622"><ele>5.333333333333334</ele><time>2026-05-02T16:33:32.643Z</time></trkpt><trkpt lat="42.8979355" lon="13.8695891"><ele>5.666666666666667</ele><time>2026-05-02T16:33:33.642Z</time></trkpt><trkpt lat="42.8980167" lon="13.8698125"><ele>6.0</ele><time>2026-05-02T16:33:34.643Z</time></trkpt><trkpt lat="42.89809" lon="13.8700313"><ele>5.666666666666667</ele><time>2026-05-02T16:33:35.643Z</time></trkpt><trkpt lat="42.8981472" lon="13.8702498"><ele>5.333333333333334</ele><time>2026-05-02T16:33:36.643Z</time></trkpt><trkpt lat="42.8981942" lon="13.8704926"><ele>5.0</ele><time>2026-05-02T16:33:37.642Z</time></trkpt><trkpt lat="42.8982332" lon="13.8707406"><ele>5.0</ele><time>2026-05-02T16:33:38.642Z</time></trkpt><trkpt lat="42.8982592" lon="13.8709765"><ele>5.0</ele><time>2026-05-02T16:33:39.643Z</time></trkpt><trkpt lat="42.8982782" lon="13.87121"><ele>5.0</ele><time>2026-05-02T16:33:40.643Z</time></trkpt><trkpt lat="42.898309" lon="13.8714285"><ele>5.0</ele><time>2026-05-02T16:33:41.643Z</time></trkpt><trkpt lat="42.8983386" lon="13.871646"><ele>5.0</ele><time>2026-05-02T16:33:42.643Z</time></trkpt><trkpt lat="42.8983817" lon="13.8718447"><ele>5.0</ele><time>2026-05-02T16:33:43.643Z</time></trkpt><trkpt lat="42.8984192" lon="13.8720389"><ele>4.75</ele><time>2026-05-02T16:33:44.643Z</time></trkpt><trkpt lat="42.8984591" lon="13.8722258"><ele>4.5</ele><time>2026-05-02T16:33:45.643Z</time></trkpt><trkpt lat="42.8985009" lon="13.8724126"><ele>4.25</ele><time>2026-05-02T16:33:46.643Z</time></trkpt><trkpt lat="42.8985262" lon="13.8725856"><ele>4.0</ele><time>2026-05-02T16:33:47.643Z</time></trkpt><trkpt lat="42.898526" lon="13.8727277"><ele>4.0</ele><time>2026-05-02T16:33:48.642Z</time></trkpt><trkpt lat="42.8985047" lon="13.8728491"><ele>4.0</ele><time>2026-05-02T16:33:49.643Z</time></trkpt><trkpt lat="42.8984446" lon="13.8729535"><ele>4.0</ele><time>2026-05-02T16:33:50.643Z</time></trkpt><trkpt lat="42.8983592" lon="13.8730392"><ele>4.0</ele><time>2026-05-02T16:33:51.642Z</time></trkpt><trkpt lat="42.8982522" lon="13.8731082"><ele>4.0</ele><time>2026-05-02T16:33:52.643Z</time></trkpt><trkpt lat="42.8981186" lon="13.8731713"><ele>4.0</ele><time>2026-05-02T16:33:53.644Z</time></trkpt><trkpt lat="42.8979722" lon="13.8732367"><ele>4.0</ele><time>2026-05-02T16:33:54.644Z</time></trkpt><trkpt lat="42.8978178" lon="13.8733048"><ele>4.0</ele><time>2026-05-02T16:33:55.644Z</time></trkpt><trkpt lat="42.8976766" lon="13.873376"><ele>4.0</ele><time>2026-05-02T16:33:56.644Z</time></trkpt><trkpt lat="42.8975525" lon="13.8734559"><ele>4.0</ele><time>2026-05-02T16:33:57.644Z</time></trkpt><trkpt lat="42.8974543" lon="13.8735456"><ele>4.0</ele><time>2026-05-02T16:33:58.644Z</time></trkpt><trkpt lat="42.8973724" lon="13.8736625"><ele>4.0</ele><time>2026-05-02T16:33:59.644Z</time></trkpt><trkpt lat="42.8973122" lon="13.8738068"><ele>4.0</ele><time>2026-05-02T16:34:00.644Z</time></trkpt><trkpt lat="42.8972815" lon="13.8739831"><ele>4.0</ele><time>2026-05-02T16:34:01.644Z</time></trkpt><trkpt lat="42.8972738" lon="13.8741752"><ele>4.0</ele><time>2026-05-02T16:34:02.644Z</time></trkpt><trkpt lat="42.8972959" lon="13.8743763"><ele>4.0</ele><time>2026-05-02T16:34:03.644Z</time></trkpt><trkpt lat="42.8973301" lon="13.8745884"><ele>4.0</ele><time>2026-05-02T16:34:04.644Z</time></trkpt><trkpt lat="42.8973699" lon="13.8747973"><ele>4.0</ele><time>2026-05-02T16:34:05.644Z</time></trkpt><trkpt lat="42.8974169" lon="13.8750159"><ele>4.0</ele><time>2026-05-02T16:34:06.644Z</time></trkpt><trkpt lat="42.8974671" lon="13.8752399"><ele>4.0</ele><time>2026-05-02T16:34:07.644Z</time></trkpt><trkpt lat="42.8975173" lon="13.8754666"><ele>4.0</ele><time>2026-05-02T16:34:08.644Z</time></trkpt><trkpt lat="42.8975542" lon="13.8756892"><ele>4.0</ele><time>2026-05-02T16:34:09.644Z</time></trkpt><trkpt lat="42.8975968" lon="13.8759163"><ele>4.666666666666666</ele><time>2026-05-02T16:34:10.644Z</time></trkpt><trkpt lat="42.8976309" lon="13.8761435"><ele>5.333333333333333</ele><time>2026-05-02T16:34:11.644Z</time></trkpt><trkpt lat="42.8976502" lon="13.8763761"><ele>6.0</ele><time>2026-05-02T16:34:12.644Z</time></trkpt><trkpt lat="42.8976555" lon="13.8766188"><ele>6.333333333333334</ele><time>2026-05-02T16:34:13.644Z</time></trkpt><trkpt lat="42.8976562" lon="13.8768684"><ele>6.666666666666667</ele><time>2026-05-02T16:34:14.644Z</time></trkpt><trkpt lat="42.8976556" lon="13.8771203"><ele>7.0</ele><time>2026-05-02T16:34:15.644Z</time></trkpt><trkpt lat="42.8976571" lon="13.8773684"><ele>6.666666666666667</ele><time>2026-05-02T16:34:16.644Z</time></trkpt><trkpt lat="42.8976538" lon="13.8776196"><ele>6.333333333333334</ele><time>2026-05-02T16:34:17.643Z</time></trkpt><trkpt lat="42.8976547" lon="13.8778687"><ele>6.0</ele><time>2026-05-02T16:34:18.644Z</time></trkpt><trkpt lat="42.8976518" lon="13.878111"><ele>6.0</ele><time>2026-05-02T16:34:19.644Z</time></trkpt><trkpt lat="42.8976467" lon="13.8783446"><ele>6.0</ele><time>2026-05-02T16:34:20.643Z</time></trkpt><trkpt lat="42.8976334" lon="13.878572"><ele>6.0</ele><time>2026-05-02T16:34:21.644Z</time></trkpt><trkpt lat="42.897601" lon="13.8787985"><ele>6.0</ele><time>2026-05-02T16:34:22.644Z</time></trkpt><trkpt lat="42.8975514" lon="13.8790234"><ele>6.0</ele><time>2026-05-02T16:34:23.643Z</time></trkpt><trkpt lat="42.8974972" lon="13.8792408"><ele>6.0</ele><time>2026-05-02T16:34:24.644Z</time></trkpt><trkpt lat="42.8974539" lon="13.8794436"><ele>6.0</ele><time>2026-05-02T16:34:25.644Z</time></trkpt><trkpt lat="42.8974158" lon="13.8796267"><ele>6.0</ele><time>2026-05-02T16:34:26.644Z</time></trkpt><trkpt lat="42.8973774" lon="13.8797986"><ele>6.0</ele><time>2026-05-02T16:34:27.644Z</time></trkpt><trkpt lat="42.8973362" lon="13.8799649"><ele>6.0</ele><time>2026-05-02T16:34:28.644Z</time></trkpt><trkpt lat="42.8972913" lon="13.8801147"><ele>6.0</ele><time>2026-05-02T16:34:29.644Z</time></trkpt><trkpt lat="42.8972317" lon="13.8802584"><ele>6.0</ele><time>2026-05-02T16:34:30.643Z</time></trkpt><trkpt lat="42.8971671" lon="13.880397"><ele>6.0</ele><time>2026-05-02T16:34:31.644Z</time></trkpt><trkpt lat="42.8971256" lon="13.8805242"><ele>6.0</ele><time>2026-05-02T16:34:32.644Z</time></trkpt><trkpt lat="42.8970541" lon="13.8806628"><ele>6.0</ele><time>2026-05-02T16:34:33.643Z</time></trkpt><trkpt lat="42.8969837" lon="13.8807923"><ele>6.0</ele><time>2026-05-02T16:34:34.644Z</time></trkpt><trkpt lat="42.8969252" lon="13.8809122"><ele>6.0</ele><time>2026-05-02T16:34:35.644Z</time></trkpt><trkpt lat="42.8968907" lon="13.881027"><ele>6.0</ele><time>2026-05-02T16:34:36.644Z</time></trkpt><trkpt lat="42.896868" lon="13.8811562"><ele>6.0</ele><time>2026-05-02T16:34:37.644Z</time></trkpt><trkpt lat="42.8968448" lon="13.881281"><ele>6.0</ele><time>2026-05-02T16:34:38.643Z</time></trkpt><trkpt lat="42.8968141" lon="13.8814092"><ele>6.0</ele><time>2026-05-02T16:34:39.644Z</time></trkpt><trkpt lat="42.8967695" lon="13.881528"><ele>6.0</ele><time>2026-05-02T16:34:40.644Z</time></trkpt><trkpt lat="42.8967014" lon="13.881638"><ele>6.0</ele><time>2026-05-02T16:34:41.644Z</time></trkpt><trkpt lat="42.8966336" lon="13.8817261"><ele>6.0</ele><time>2026-05-02T16:34:42.644Z</time></trkpt><trkpt lat="42.8965644" lon="13.8818108"><ele>5.333333333333333</ele><time>2026-05-02T16:34:43.644Z</time></trkpt><trkpt lat="42.8964954" lon="13.8818902"><ele>4.666666666666667</ele><time>2026-05-02T16:34:44.644Z</time></trkpt><trkpt lat="42.8964279" lon="13.8819687"><ele>4.0</ele><time>2026-05-02T16:34:45.644Z</time></trkpt><trkpt lat="42.8963634" lon="13.8820537"><ele>3.333333333333333</ele><time>2026-05-02T16:34:46.643Z</time></trkpt><trkpt lat="42.8963012" lon="13.8821333"><ele>2.6666666666666665</ele><time>2026-05-02T16:34:47.644Z</time></trkpt><trkpt lat="42.8962456" lon="13.8821974"><ele>2.0</ele><time>2026-05-02T16:34:48.644Z</time></trkpt><trkpt lat="42.8961839" lon="13.8822681"><ele>2.0</ele><time>2026-05-02T16:34:49.644Z</time></trkpt><trkpt lat="42.8961125" lon="13.8823408"><ele>2.0</ele><time>2026-05-02T16:34:50.644Z</time></trkpt><trkpt lat="42.8960353" lon="13.8824087"><ele>2.0</ele><time>2026-05-02T16:34:51.644Z</time></trkpt><trkpt lat="42.89596" lon="13.8824685"><ele>2.0</ele><time>2026-05-02T16:34:52.644Z</time></trkpt><trkpt lat="42.8958911" lon="13.8825199"><ele>2.0</ele><time>2026-05-02T16:34:53.644Z</time></trkpt><trkpt lat="42.895803" lon="13.8826146"><ele>2.0</ele><time>2026-05-02T16:34:55.643Z</time></trkpt><trkpt lat="42.8957557" lon="13.8827061"><ele>2.0</ele><time>2026-05-02T16:34:57.645Z</time></trkpt><trkpt lat="42.8957238" lon="13.882782"><ele>2.0</ele><time>2026-05-02T16:35:01.645Z</time></trkpt><trkpt lat="42.8958087" lon="13.8828161"><ele>2.0</ele><time>2026-05-02T16:35:09.644Z</time></trkpt><trkpt lat="42.8959059" lon="13.8826835"><ele>2.0</ele><time>2026-05-02T16:35:11.645Z</time></trkpt><trkpt lat="42.8959598" lon="13.8825904"><ele>2.0</ele><time>2026-05-02T16:35:12.644Z</time></trkpt><trkpt lat="42.8960234" lon="13.882508"><ele>2.0</ele><time>2026-05-02T16:35:13.645Z</time></trkpt><trkpt lat="42.8960995" lon="13.8824282"><ele>2.0</ele><time>2026-05-02T16:35:14.645Z</time></trkpt><trkpt lat="42.8961817" lon="13.88235"><ele>2.0</ele><time>2026-05-02T16:35:15.644Z</time></trkpt><trkpt lat="42.8962686" lon="13.8822646"><ele>2.0</ele><time>2026-05-02T16:35:16.645Z</time></trkpt><trkpt lat="42.8963545" lon="13.8821705"><ele>2.0</ele><time>2026-05-02T16:35:17.645Z</time></trkpt><trkpt lat="42.8964385" lon="13.8820676"><ele>2.0</ele><time>2026-05-02T16:35:18.645Z</time></trkpt><trkpt lat="42.8965244" lon="13.8819544"><ele>2.0</ele><time>2026-05-02T16:35:19.645Z</time></trkpt><trkpt lat="42.8966084" lon="13.8818363"><ele>2.0</ele><time>2026-05-02T16:35:20.644Z</time></trkpt><trkpt lat="42.8966904" lon="13.8817091"><ele>2.8</ele><time>2026-05-02T16:35:21.645Z</time></trkpt><trkpt lat="42.8967625" lon="13.8815783"><ele>3.6</ele><time>2026-05-02T16:35:22.645Z</time></trkpt><trkpt lat="42.8968291" lon="13.8814536"><ele>4.3999999999999995</ele><time>2026-05-02T16:35:23.645Z</time></trkpt><trkpt lat="42.8968828" lon="13.8813289"><ele>5.2</ele><time>2026-05-02T16:35:24.645Z</time></trkpt><trkpt lat="42.8969229" lon="13.8811978"><ele>6.0</ele><time>2026-05-02T16:35:25.645Z</time></trkpt><trkpt lat="42.8969484" lon="13.881053"><ele>6.0</ele><time>2026-05-02T16:35:26.645Z</time></trkpt><trkpt lat="42.8969785" lon="13.8809042"><ele>6.0</ele><time>2026-05-02T16:35:27.645Z</time></trkpt><trkpt lat="42.8970231" lon="13.880761"><ele>6.0</ele><time>2026-05-02T16:35:28.644Z</time></trkpt><trkpt lat="42.8970702" lon="13.8806223"><ele>6.0</ele><time>2026-05-02T16:35:29.645Z</time></trkpt><trkpt lat="42.8971237" lon="13.8804794"><ele>6.0</ele><time>2026-05-02T16:35:30.645Z</time></trkpt><trkpt lat="42.8972453" lon="13.8802246"><ele>6.0</ele><time>2026-05-02T16:35:32.644Z</time></trkpt><trkpt lat="42.8972959" lon="13.8801181"><ele>6.0</ele><time>2026-05-02T16:35:33.645Z</time></trkpt><trkpt lat="42.8973365" lon="13.8800224"><ele>6.0</ele><time>2026-05-02T16:35:34.644Z</time></trkpt><trkpt lat="42.897376" lon="13.8799478"><ele>6.0</ele><time>2026-05-02T16:35:35.645Z</time></trkpt><trkpt lat="42.8974788" lon="13.8799121"><ele>6.0</ele><time>2026-05-02T16:35:37.645Z</time></trkpt><trkpt lat="42.8975427" lon="13.8799319"><ele>6.0</ele><time>2026-05-02T16:35:38.645Z</time></trkpt><trkpt lat="42.8976139" lon="13.8799821"><ele>6.0</ele><time>2026-05-02T16:35:39.645Z</time></trkpt><trkpt lat="42.8976906" lon="13.880056"><ele>6.0</ele><time>2026-05-02T16:35:40.645Z</time></trkpt><trkpt lat="42.8977788" lon="13.8801489"><ele>5.75</ele><time>2026-05-02T16:35:41.644Z</time></trkpt><trkpt lat="42.8978688" lon="13.8802517"><ele>5.5</ele><time>2026-05-02T16:35:42.645Z</time></trkpt><trkpt lat="42.8979549" lon="13.8803754"><ele>5.25</ele><time>2026-05-02T16:35:43.645Z</time></trkpt><trkpt lat="42.8980362" lon="13.8805172"><ele>5.0</ele><time>2026-05-02T16:35:44.645Z</time></trkpt><trkpt lat="42.898109" lon="13.880688"><ele>5.0</ele><time>2026-05-02T16:35:45.645Z</time></trkpt><trkpt lat="42.8981809" lon="13.8808751"><ele>5.0</ele><time>2026-05-02T16:35:46.645Z</time></trkpt><trkpt lat="42.898255" lon="13.8810548"><ele>5.0</ele><time>2026-05-02T16:35:47.645Z</time></trkpt><trkpt lat="42.8983341" lon="13.8812267"><ele>5.25</ele><time>2026-05-02T16:35:48.645Z</time></trkpt><trkpt lat="42.8984095" lon="13.8813939"><ele>5.5</ele><time>2026-05-02T16:35:49.645Z</time></trkpt><trkpt lat="42.8984811" lon="13.8815503"><ele>5.75</ele><time>2026-05-02T16:35:50.645Z</time></trkpt><trkpt lat="42.8985471" lon="13.8817133"><ele>6.0</ele><time>2026-05-02T16:35:51.645Z</time></trkpt><trkpt lat="42.8986093" lon="13.8818716"><ele>6.0</ele><time>2026-05-02T16:35:52.645Z</time></trkpt><trkpt lat="42.8986768" lon="13.8820244"><ele>6.0</ele><time>2026-05-02T16:35:53.644Z</time></trkpt><trkpt lat="42.8987616" lon="13.8821581"><ele>6.0</ele><time>2026-05-02T16:35:54.645Z</time></trkpt><trkpt lat="42.8988624" lon="13.8822719"><ele>6.0</ele><time>2026-05-02T16:35:55.645Z</time></trkpt><trkpt lat="42.8989891" lon="13.8823467"><ele>6.0</ele><time>2026-05-02T16:35:56.645Z</time></trkpt><trkpt lat="42.8991223" lon="13.8823851"><ele>6.0</ele><time>2026-05-02T16:35:57.645Z</time></trkpt><trkpt lat="42.8992548" lon="13.8823945"><ele>6.0</ele><time>2026-05-02T16:35:58.645Z</time></trkpt><trkpt lat="42.8993832" lon="13.8823762"><ele>6.0</ele><time>2026-05-02T16:35:59.644Z</time></trkpt><trkpt lat="42.8994946" lon="13.8823593"><ele>6.0</ele><time>2026-05-02T16:36:00.645Z</time></trkpt><trkpt lat="42.8995903" lon="13.8823681"><ele>6.0</ele><time>2026-05-02T16:36:01.644Z</time></trkpt><trkpt lat="42.8996776" lon="13.8824064"><ele>6.0</ele><time>2026-05-02T16:36:02.645Z</time></trkpt><trkpt lat="42.8997451" lon="13.882461"><ele>6.0</ele><time>2026-05-02T16:36:03.646Z</time></trkpt><trkpt lat="42.8997957" lon="13.8825417"><ele>6.0</ele><time>2026-05-02T16:36:04.646Z</time></trkpt><trkpt lat="42.8998435" lon="13.8826466"><ele>6.0</ele><time>2026-05-02T16:36:05.646Z</time></trkpt><trkpt lat="42.8999783" lon="13.8831179"><ele>5.666666666666667</ele><time>2026-05-02T16:36:08.646Z</time></trkpt><trkpt lat="42.900034" lon="13.8833558"><ele>5.333333333333334</ele><time>2026-05-02T16:36:09.646Z</time></trkpt><trkpt lat="42.900093" lon="13.8835716"><ele>5.0</ele><time>2026-05-02T16:36:10.646Z</time></trkpt><trkpt lat="42.9001496" lon="13.8838103"><ele>4.0</ele><time>2026-05-02T16:36:11.646Z</time></trkpt><trkpt lat="42.9002239" lon="13.8840313"><ele>3.0</ele><time>2026-05-02T16:36:12.646Z</time></trkpt><trkpt lat="42.9003119" lon="13.8842285"><ele>2.0</ele><time>2026-05-02T16:36:13.646Z</time></trkpt><trkpt lat="42.900409" lon="13.8844125"><ele>2.0</ele><time>2026-05-02T16:36:14.646Z</time></trkpt><trkpt lat="42.900502" lon="13.8845768"><ele>2.0</ele><time>2026-05-02T16:36:15.646Z</time></trkpt><trkpt lat="42.9005846" lon="13.8847209"><ele>2.0</ele><time>2026-05-02T16:36:16.645Z</time></trkpt><trkpt lat="42.9006568" lon="13.8848338"><ele>2.0</ele><time>2026-05-02T16:36:17.646Z</time></trkpt><trkpt lat="42.9007189" lon="13.884929"><ele>1.9999999999999998</ele><time>2026-05-02T16:36:18.646Z</time></trkpt><trkpt lat="42.9007825" lon="13.8850067"><ele>2.0</ele><time>2026-05-02T16:36:19.646Z</time></trkpt><trkpt lat="42.9008505" lon="13.885046"><ele>2.0</ele><time>2026-05-02T16:36:20.645Z</time></trkpt><trkpt lat="42.9009226" lon="13.8850485"><ele>2.0</ele><time>2026-05-02T16:36:21.646Z</time></trkpt><trkpt lat="42.9010145" lon="13.885023"><ele>1.9999999999999998</ele><time>2026-05-02T16:36:22.646Z</time></trkpt><trkpt lat="42.9011188" lon="13.8849555"><ele>2.0</ele><time>2026-05-02T16:36:23.646Z</time></trkpt><trkpt lat="42.9012409" lon="13.8848702"><ele>2.0</ele><time>2026-05-02T16:36:24.646Z</time></trkpt><trkpt lat="42.9013686" lon="13.8847763"><ele>2.0</ele><time>2026-05-02T16:36:25.646Z</time></trkpt><trkpt lat="42.9014998" lon="13.8846761"><ele>2.0</ele><time>2026-05-02T16:36:26.646Z</time></trkpt><trkpt lat="42.9016418" lon="13.8845838"><ele>2.75</ele><time>2026-05-02T16:36:27.646Z</time></trkpt><trkpt lat="42.9017773" lon="13.8845078"><ele>3.5</ele><time>2026-05-02T16:36:28.645Z</time></trkpt><trkpt lat="42.9019067" lon="13.8844357"><ele>4.25</ele><time>2026-05-02T16:36:29.645Z</time></trkpt><trkpt lat="42.902027" lon="13.8843653"><ele>5.0</ele><time>2026-05-02T16:36:30.645Z</time></trkpt><trkpt lat="42.9021329" lon="13.8842962"><ele>5.0</ele><time>2026-05-02T16:36:31.646Z</time></trkpt><trkpt lat="42.9022257" lon="13.8842342"><ele>5.0</ele><time>2026-05-02T16:36:32.645Z</time></trkpt><trkpt lat="42.9022985" lon="13.8841975"><ele>5.0</ele><time>2026-05-02T16:36:33.645Z</time></trkpt><trkpt lat="42.9023635" lon="13.8841843"><ele>5.0</ele><time>2026-05-02T16:36:34.645Z</time></trkpt><trkpt lat="42.9024552" lon="13.8842647"><ele>5.0</ele><time>2026-05-02T16:36:36.645Z</time></trkpt><trkpt lat="42.9024857" lon="13.8843625"><ele>5.0</ele><time>2026-05-02T16:36:37.646Z</time></trkpt><trkpt lat="42.9024994" lon="13.8845052"><ele>5.0</ele><time>2026-05-02T16:36:38.646Z</time></trkpt><trkpt lat="42.9025143" lon="13.8846722"><ele>5.0</ele><time>2026-05-02T16:36:39.646Z</time></trkpt><trkpt lat="42.9025412" lon="13.8848556"><ele>5.0</ele><time>2026-05-02T16:36:40.646Z</time></trkpt><trkpt lat="42.9025865" lon="13.8850319"><ele>5.0</ele><time>2026-05-02T16:36:41.646Z</time></trkpt><trkpt lat="42.9026339" lon="13.8851929"><ele>5.0</ele><time>2026-05-02T16:36:42.646Z</time></trkpt><trkpt lat="42.9026734" lon="13.885322"><ele>5.0</ele><time>2026-05-02T16:36:43.646Z</time></trkpt><trkpt lat="42.902709" lon="13.885438"><ele>5.0</ele><time>2026-05-02T16:36:44.646Z</time></trkpt><trkpt lat="42.9027446" lon="13.8855499"><ele>5.0</ele><time>2026-05-02T16:36:45.646Z</time></trkpt><trkpt lat="42.9027821" lon="13.8856655"><ele>5.0</ele><time>2026-05-02T16:36:46.646Z</time></trkpt><trkpt lat="42.9028171" lon="13.8857759"><ele>5.0</ele><time>2026-05-02T16:36:47.645Z</time></trkpt><trkpt lat="42.9028457" lon="13.8858785"><ele>5.0</ele><time>2026-05-02T16:36:48.646Z</time></trkpt><trkpt lat="42.9028638" lon="13.8859619"><ele>5.0</ele><time>2026-05-02T16:36:49.645Z</time></trkpt><trkpt lat="42.9028907" lon="13.8860906"><ele>5.0</ele><time>2026-05-02T16:36:51.646Z</time></trkpt><trkpt lat="42.9029655" lon="13.886147"><ele>5.0</ele><time>2026-05-02T16:36:53.646Z</time></trkpt><trkpt lat="42.9030916" lon="13.8861027"><ele>5.0</ele><time>2026-05-02T16:36:55.646Z</time></trkpt><trkpt lat="42.9031639" lon="13.8860407"><ele>5.0</ele><time>2026-05-02T16:36:56.646Z</time></trkpt><trkpt lat="42.9032385" lon="13.8859448"><ele>5.0</ele><time>2026-05-02T16:36:57.646Z</time></trkpt><trkpt lat="42.9033292" lon="13.8858507"><ele>5.0</ele><time>2026-05-02T16:36:58.646Z</time></trkpt><trkpt lat="42.9034363" lon="13.8857645"><ele>5.0</ele><time>2026-05-02T16:36:59.646Z</time></trkpt><trkpt lat="42.903542" lon="13.885693"><ele>4.8</ele><time>2026-05-02T16:37:00.646Z</time></trkpt><trkpt lat="42.9036385" lon="13.8856235"><ele>4.6</ele><time>2026-05-02T16:37:01.646Z</time></trkpt><trkpt lat="42.9037287" lon="13.8855556"><ele>4.4</ele><time>2026-05-02T16:37:02.645Z</time></trkpt><trkpt lat="42.9038168" lon="13.8854892"><ele>4.2</ele><time>2026-05-02T16:37:03.646Z</time></trkpt><trkpt lat="42.9038965" lon="13.8854284"><ele>4.0</ele><time>2026-05-02T16:37:04.645Z</time></trkpt><trkpt lat="42.9039819" lon="13.8853647"><ele>4.0</ele><time>2026-05-02T16:37:05.645Z</time></trkpt><trkpt lat="42.9040805" lon="13.8852961"><ele>4.0</ele><time>2026-05-02T16:37:06.647Z</time></trkpt><trkpt lat="42.9042029" lon="13.8852205"><ele>4.0</ele><time>2026-05-02T16:37:07.646Z</time></trkpt><trkpt lat="42.9043367" lon="13.8851423"><ele>4.0</ele><time>2026-05-02T16:37:08.646Z</time></trkpt><trkpt lat="42.9044674" lon="13.8850637"><ele>3.5</ele><time>2026-05-02T16:37:09.646Z</time></trkpt><trkpt lat="42.904593" lon="13.88498"><ele>3.0</ele><time>2026-05-02T16:37:10.647Z</time></trkpt><trkpt lat="42.9047181" lon="13.8849013"><ele>2.5</ele><time>2026-05-02T16:37:11.647Z</time></trkpt><trkpt lat="42.9048262" lon="13.8848303"><ele>2.0</ele><time>2026-05-02T16:37:12.647Z</time></trkpt><trkpt lat="42.9049146" lon="13.8847673"><ele>2.0</ele><time>2026-05-02T16:37:13.647Z</time></trkpt><trkpt lat="42.9049922" lon="13.8847183"><ele>2.0</ele><time>2026-05-02T16:37:14.647Z</time></trkpt><trkpt lat="42.9050807" lon="13.8846835"><ele>2.0</ele><time>2026-05-02T16:37:16.647Z</time></trkpt><trkpt lat="42.9051248" lon="13.8848002"><ele>2.0</ele><time>2026-05-02T16:37:18.646Z</time></trkpt><trkpt lat="42.905152" lon="13.8849072"><ele>2.0</ele><time>2026-05-02T16:37:19.647Z</time></trkpt><trkpt lat="42.9051817" lon="13.8850542"><ele>2.25</ele><time>2026-05-02T16:37:20.647Z</time></trkpt><trkpt lat="42.9052181" lon="13.8852116"><ele>2.5</ele><time>2026-05-02T16:37:21.647Z</time></trkpt><trkpt lat="42.9052588" lon="13.8853695"><ele>2.75</ele><time>2026-05-02T16:37:22.646Z</time></trkpt><trkpt lat="42.9053046" lon="13.8855257"><ele>3.0</ele><time>2026-05-02T16:37:23.647Z</time></trkpt><trkpt lat="42.9053505" lon="13.8856844"><ele>3.0</ele><time>2026-05-02T16:37:24.647Z</time></trkpt><trkpt lat="42.9053976" lon="13.885826"><ele>3.0</ele><time>2026-05-02T16:37:25.646Z</time></trkpt><trkpt lat="42.9054443" lon="13.8859667"><ele>3.0</ele><time>2026-05-02T16:37:26.646Z</time></trkpt><trkpt lat="42.9054916" lon="13.8861119"><ele>3.0</ele><time>2026-05-02T16:37:27.647Z</time></trkpt><trkpt lat="42.9055358" lon="13.8862559"><ele>3.25</ele><time>2026-05-02T16:37:28.646Z</time></trkpt><trkpt lat="42.9055807" lon="13.8864131"><ele>3.5</ele><time>2026-05-02T16:37:29.647Z</time></trkpt><trkpt lat="42.9056241" lon="13.8865739"><ele>3.75</ele><time>2026-05-02T16:37:30.647Z</time></trkpt><trkpt lat="42.9056703" lon="13.8867368"><ele>4.0</ele><time>2026-05-02T16:37:31.647Z</time></trkpt><trkpt lat="42.9057145" lon="13.8868982"><ele>4.0</ele><time>2026-05-02T16:37:32.647Z</time></trkpt><trkpt lat="42.9057587" lon="13.8870516"><ele>4.0</ele><time>2026-05-02T16:37:33.647Z</time></trkpt><trkpt lat="42.9058085" lon="13.8872076"><ele>4.0</ele><time>2026-05-02T16:37:34.647Z</time></trkpt><trkpt lat="42.9058587" lon="13.8873675"><ele>4.0</ele><time>2026-05-02T16:37:35.647Z</time></trkpt><trkpt lat="42.9059147" lon="13.8875307"><ele>4.0</ele><time>2026-05-02T16:37:36.647Z</time></trkpt><trkpt lat="42.9059712" lon="13.8877027"><ele>4.0</ele><time>2026-05-02T16:37:37.647Z</time></trkpt><trkpt lat="42.9060237" lon="13.8878883"><ele>4.0</ele><time>2026-05-02T16:37:38.647Z</time></trkpt><trkpt lat="42.9060704" lon="13.8880743"><ele>4.0</ele><time>2026-05-02T16:37:39.647Z</time></trkpt><trkpt lat="42.9061151" lon="13.888256"><ele>4.0</ele><time>2026-05-02T16:37:40.646Z</time></trkpt><trkpt lat="42.9061586" lon="13.8884289"><ele>4.0</ele><time>2026-05-02T16:37:41.647Z</time></trkpt><trkpt lat="42.906212" lon="13.88859"><ele>4.0</ele><time>2026-05-02T16:37:42.647Z</time></trkpt><trkpt lat="42.9062656" lon="13.8887446"><ele>4.0</ele><time>2026-05-02T16:37:43.646Z</time></trkpt><trkpt lat="42.9063152" lon="13.8888981"><ele>4.0</ele><time>2026-05-02T16:37:44.647Z</time></trkpt><trkpt lat="42.9063647" lon="13.8890494"><ele>4.0</ele><time>2026-05-02T16:37:45.647Z</time></trkpt><trkpt lat="42.9064157" lon="13.8891995"><ele>4.0</ele><time>2026-05-02T16:37:46.647Z</time></trkpt><trkpt lat="42.9064689" lon="13.8893597"><ele>4.0</ele><time>2026-05-02T16:37:47.647Z</time></trkpt><trkpt lat="42.9065168" lon="13.889528"><ele>4.0</ele><time>2026-05-02T16:37:48.647Z</time></trkpt><trkpt lat="42.9065579" lon="13.8896998"><ele>4.0</ele><time>2026-05-02T16:37:49.647Z</time></trkpt><trkpt lat="42.9065967" lon="13.8898735"><ele>4.0</ele><time>2026-05-02T16:37:50.647Z</time></trkpt><trkpt lat="42.9066356" lon="13.8900423"><ele>4.0</ele><time>2026-05-02T16:37:51.647Z</time></trkpt><trkpt lat="42.9066806" lon="13.8902066"><ele>4.0</ele><time>2026-05-02T16:37:52.646Z</time></trkpt><trkpt lat="42.9067219" lon="13.890368"><ele>4.0</ele><time>2026-05-02T16:37:53.647Z</time></trkpt><trkpt lat="42.9067677" lon="13.8905314"><ele>4.0</ele><time>2026-05-02T16:37:54.647Z</time></trkpt><trkpt lat="42.9068194" lon="13.8906953"><ele>4.0</ele><time>2026-05-02T16:37:55.647Z</time></trkpt><trkpt lat="42.9068736" lon="13.8908619"><ele>3.75</ele><time>2026-05-02T16:37:56.647Z</time></trkpt><trkpt lat="42.9069271" lon="13.8910333"><ele>3.5</ele><time>2026-05-02T16:37:57.647Z</time></trkpt><trkpt lat="42.9069779" lon="13.8912012"><ele>3.25</ele><time>2026-05-02T16:37:58.647Z</time></trkpt><trkpt lat="42.9070265" lon="13.8913664"><ele>3.0</ele><time>2026-05-02T16:37:59.647Z</time></trkpt><trkpt lat="42.9070771" lon="13.8915271"><ele>3.0</ele><time>2026-05-02T16:38:00.646Z</time></trkpt><trkpt lat="42.9071244" lon="13.8916824"><ele>3.0</ele><time>2026-05-02T16:38:01.647Z</time></trkpt><trkpt lat="42.907169" lon="13.8918303"><ele>3.0</ele><time>2026-05-02T16:38:02.647Z</time></trkpt><trkpt lat="42.9072156" lon="13.8919733"><ele>3.0</ele><time>2026-05-02T16:38:03.647Z</time></trkpt><trkpt lat="42.9072509" lon="13.8921002"><ele>3.0</ele><time>2026-05-02T16:38:04.646Z</time></trkpt><trkpt lat="42.9072822" lon="13.8922176"><ele>3.0</ele><time>2026-05-02T16:38:05.648Z</time></trkpt><trkpt lat="42.9073082" lon="13.8923161"><ele>3.0</ele><time>2026-05-02T16:38:06.647Z</time></trkpt><trkpt lat="42.907328" lon="13.8923982"><ele>3.0</ele><time>2026-05-02T16:38:07.647Z</time></trkpt><trkpt lat="42.9073375" lon="13.8925429"><ele>3.0</ele><time>2026-05-02T16:38:09.647Z</time></trkpt><trkpt lat="42.9073355" lon="13.8926901"><ele>3.0</ele><time>2026-05-02T16:38:11.647Z</time></trkpt><trkpt lat="42.9074072" lon="13.8927854"><ele>2.8</ele><time>2026-05-02T16:38:13.648Z</time></trkpt><trkpt lat="42.9074746" lon="13.8927898"><ele>2.5999999999999996</ele><time>2026-05-02T16:38:14.647Z</time></trkpt><trkpt lat="42.9075532" lon="13.8927757"><ele>2.4000000000000004</ele><time>2026-05-02T16:38:15.648Z</time></trkpt><trkpt lat="42.9076489" lon="13.8927272"><ele>2.2</ele><time>2026-05-02T16:38:16.648Z</time></trkpt><trkpt lat="42.9077504" lon="13.8926829"><ele>2.0</ele><time>2026-05-02T16:38:17.648Z</time></trkpt><trkpt lat="42.9078561" lon="13.8926374"><ele>2.0</ele><time>2026-05-02T16:38:18.647Z</time></trkpt><trkpt lat="42.9079599" lon="13.8925958"><ele>2.0</ele><time>2026-05-02T16:38:19.648Z</time></trkpt><trkpt lat="42.9080558" lon="13.8925562"><ele>2.0</ele><time>2026-05-02T16:38:20.648Z</time></trkpt><trkpt lat="42.9081502" lon="13.8925148"><ele>2.0</ele><time>2026-05-02T16:38:21.648Z</time></trkpt><trkpt lat="42.9082454" lon="13.8924753"><ele>2.0</ele><time>2026-05-02T16:38:22.648Z</time></trkpt><trkpt lat="42.9083366" lon="13.8924378"><ele>2.2</ele><time>2026-05-02T16:38:23.648Z</time></trkpt><trkpt lat="42.9084322" lon="13.8923991"><ele>2.4000000000000004</ele><time>2026-05-02T16:38:24.648Z</time></trkpt><trkpt lat="42.9085253" lon="13.8923657"><ele>2.5999999999999996</ele><time>2026-05-02T16:38:25.648Z</time></trkpt><trkpt lat="42.9086211" lon="13.892328"><ele>2.8</ele><time>2026-05-02T16:38:26.647Z</time></trkpt><trkpt lat="42.9087167" lon="13.8922891"><ele>3.0</ele><time>2026-05-02T16:38:27.648Z</time></trkpt><trkpt lat="42.9088175" lon="13.8922511"><ele>3.0</ele><time>2026-05-02T16:38:28.648Z</time></trkpt><trkpt lat="42.9089214" lon="13.8922146"><ele>3.0</ele><time>2026-05-02T16:38:29.647Z</time></trkpt><trkpt lat="42.9090227" lon="13.8921781"><ele>3.0</ele><time>2026-05-02T16:38:30.648Z</time></trkpt><trkpt lat="42.9091213" lon="13.892141"><ele>3.0</ele><time>2026-05-02T16:38:31.647Z</time></trkpt><trkpt lat="42.9092188" lon="13.8921029"><ele>3.0</ele><time>2026-05-02T16:38:32.648Z</time></trkpt><trkpt lat="42.9093165" lon="13.8920665"><ele>3.0</ele><time>2026-05-02T16:38:33.648Z</time></trkpt><trkpt lat="42.9094107" lon="13.892029"><ele>3.0</ele><time>2026-05-02T16:38:34.648Z</time></trkpt><trkpt lat="42.9095048" lon="13.891997"><ele>3.0</ele><time>2026-05-02T16:38:35.648Z</time></trkpt><trkpt lat="42.9095921" lon="13.891963"><ele>3.0</ele><time>2026-05-02T16:38:36.647Z</time></trkpt><trkpt lat="42.9096774" lon="13.8919298"><ele>3.0</ele><time>2026-05-02T16:38:37.648Z</time></trkpt><trkpt lat="42.9097568" lon="13.8918944"><ele>2.9999999999999996</ele><time>2026-05-02T16:38:38.648Z</time></trkpt><trkpt lat="42.909833" lon="13.8918591"><ele>3.0</ele><time>2026-05-02T16:38:39.648Z</time></trkpt><trkpt lat="42.9099048" lon="13.8918275"><ele>3.0</ele><time>2026-05-02T16:38:40.648Z</time></trkpt><trkpt lat="42.9099732" lon="13.8917962"><ele>3.0</ele><time>2026-05-02T16:38:41.647Z</time></trkpt><trkpt lat="42.9100347" lon="13.8917693"><ele>3.0</ele><time>2026-05-02T16:38:42.648Z</time></trkpt><trkpt lat="42.910099" lon="13.8917442"><ele>2.9999999999999996</ele><time>2026-05-02T16:38:43.648Z</time></trkpt><trkpt lat="42.9101628" lon="13.891721"><ele>3.0</ele><time>2026-05-02T16:38:44.648Z</time></trkpt><trkpt lat="42.9102298" lon="13.8916972"><ele>2.8333333333333335</ele><time>2026-05-02T16:38:45.648Z</time></trkpt><trkpt lat="42.9103006" lon="13.8916752"><ele>2.6666666666666665</ele><time>2026-05-02T16:38:46.648Z</time></trkpt><trkpt lat="42.910372" lon="13.8916491"><ele>2.5</ele><time>2026-05-02T16:38:47.648Z</time></trkpt><trkpt lat="42.9104448" lon="13.8916246"><ele>2.333333333333333</ele><time>2026-05-02T16:38:48.648Z</time></trkpt><trkpt lat="42.9105124" lon="13.8916008"><ele>2.1666666666666665</ele><time>2026-05-02T16:38:49.648Z</time></trkpt><trkpt lat="42.910588" lon="13.8915724"><ele>2.0</ele><time>2026-05-02T16:38:50.648Z</time></trkpt><trkpt lat="42.9106663" lon="13.8915423"><ele>1.9999999999999998</ele><time>2026-05-02T16:38:51.648Z</time></trkpt><trkpt lat="42.910745" lon="13.8915123"><ele>2.0</ele><time>2026-05-02T16:38:52.647Z</time></trkpt><trkpt lat="42.9108274" lon="13.8914842"><ele>2.0</ele><time>2026-05-02T16:38:53.648Z</time></trkpt><trkpt lat="42.910907" lon="13.891458"><ele>2.0</ele><time>2026-05-02T16:38:54.648Z</time></trkpt><trkpt lat="42.9109862" lon="13.8914306"><ele>1.9999999999999998</ele><time>2026-05-02T16:38:55.648Z</time></trkpt><trkpt lat="42.9110637" lon="13.8914037"><ele>2.0</ele><time>2026-05-02T16:38:56.648Z</time></trkpt><trkpt lat="42.911135" lon="13.8913745"><ele>2.333333333333333</ele><time>2026-05-02T16:38:57.648Z</time></trkpt><trkpt lat="42.9112104" lon="13.8913434"><ele>2.6666666666666665</ele><time>2026-05-02T16:38:58.648Z</time></trkpt><trkpt lat="42.9112856" lon="13.891317"><ele>3.0</ele><time>2026-05-02T16:38:59.648Z</time></trkpt><trkpt lat="42.9113591" lon="13.8912865"><ele>3.333333333333333</ele><time>2026-05-02T16:39:00.648Z</time></trkpt><trkpt lat="42.9114405" lon="13.891252"><ele>3.6666666666666665</ele><time>2026-05-02T16:39:01.648Z</time></trkpt><trkpt lat="42.9115132" lon="13.8912288"><ele>4.0</ele><time>2026-05-02T16:39:02.648Z</time></trkpt><trkpt lat="42.911581" lon="13.8912082"><ele>3.9999999999999996</ele><time>2026-05-02T16:39:03.648Z</time></trkpt><trkpt lat="42.9116526" lon="13.8911886"><ele>4.0</ele><time>2026-05-02T16:39:04.647Z</time></trkpt><trkpt lat="42.9117237" lon="13.8911685"><ele>4.0</ele><time>2026-05-02T16:39:05.648Z</time></trkpt><trkpt lat="42.9117894" lon="13.8911437"><ele>4.0</ele><time>2026-05-02T16:39:06.647Z</time></trkpt><trkpt lat="42.9119011" lon="13.8910955"><ele>3.9999999999999996</ele><time>2026-05-02T16:39:08.648Z</time></trkpt><trkpt lat="42.9120079" lon="13.8910601"><ele>4.0</ele><time>2026-05-02T16:39:10.648Z</time></trkpt><trkpt lat="42.9120936" lon="13.8910379"><ele>4.166666666666666</ele><time>2026-05-02T16:39:12.648Z</time></trkpt><trkpt lat="42.9121596" lon="13.8910073"><ele>4.333333333333333</ele><time>2026-05-02T16:39:14.649Z</time></trkpt><trkpt lat="42.912223" lon="13.8909971"><ele>4.5</ele><time>2026-05-02T16:39:17.649Z</time></trkpt><trkpt lat="42.9123403" lon="13.8909664"><ele>4.666666666666667</ele><time>2026-05-02T16:39:32.648Z</time></trkpt><trkpt lat="42.9124119" lon="13.8909293"><ele>4.833333333333334</ele><time>2026-05-02T16:39:33.648Z</time></trkpt><trkpt lat="42.9124965" lon="13.8908989"><ele>5.0</ele><time>2026-05-02T16:39:34.649Z</time></trkpt><trkpt lat="42.9125886" lon="13.8908739"><ele>5.0</ele><time>2026-05-02T16:39:35.649Z</time></trkpt><trkpt lat="42.9126784" lon="13.8908388"><ele>5.0</ele><time>2026-05-02T16:39:36.648Z</time></trkpt><trkpt lat="42.9127747" lon="13.8908"><ele>5.0</ele><time>2026-05-02T16:39:37.649Z</time></trkpt><trkpt lat="42.9128726" lon="13.8907639"><ele>5.0</ele><time>2026-05-02T16:39:38.649Z</time></trkpt><trkpt lat="42.9129702" lon="13.8907272"><ele>5.0</ele><time>2026-05-02T16:39:39.649Z</time></trkpt><trkpt lat="42.9130794" lon="13.8906821"><ele>5.0</ele><time>2026-05-02T16:39:40.649Z</time></trkpt><trkpt lat="42.9131748" lon="13.8906477"><ele>5.0</ele><time>2026-05-02T16:39:41.648Z</time></trkpt><trkpt lat="42.9132697" lon="13.8906091"><ele>5.0</ele><time>2026-05-02T16:39:42.648Z</time></trkpt><trkpt lat="42.913369" lon="13.8905778"><ele>5.0</ele><time>2026-05-02T16:39:43.649Z</time></trkpt><trkpt lat="42.913473" lon="13.8905391"><ele>5.0</ele><time>2026-05-02T16:39:44.649Z</time></trkpt><trkpt lat="42.913571" lon="13.8904976"><ele>5.25</ele><time>2026-05-02T16:39:45.649Z</time></trkpt><trkpt lat="42.913691" lon="13.8904525"><ele>5.5</ele><time>2026-05-02T16:39:46.649Z</time></trkpt><trkpt lat="42.9138041" lon="13.8904159"><ele>5.75</ele><time>2026-05-02T16:39:47.649Z</time></trkpt><trkpt lat="42.9139104" lon="13.8903719"><ele>6.0</ele><time>2026-05-02T16:39:48.649Z</time></trkpt><trkpt lat="42.9140138" lon="13.8903295"><ele>6.0</ele><time>2026-05-02T16:39:49.648Z</time></trkpt><trkpt lat="42.9141142" lon="13.8902898"><ele>6.0</ele><time>2026-05-02T16:39:50.649Z</time></trkpt><trkpt lat="42.9142131" lon="13.8902545"><ele>6.0</ele><time>2026-05-02T16:39:51.648Z</time></trkpt><trkpt lat="42.9143095" lon="13.8902175"><ele>6.0</ele><time>2026-05-02T16:39:52.649Z</time></trkpt><trkpt lat="42.9143951" lon="13.8901829"><ele>6.0</ele><time>2026-05-02T16:39:53.649Z</time></trkpt><trkpt lat="42.9144764" lon="13.8901507"><ele>5.999999999999999</ele><time>2026-05-02T16:39:54.649Z</time></trkpt><trkpt lat="42.9145515" lon="13.8901242"><ele>6.0</ele><time>2026-05-02T16:39:55.649Z</time></trkpt><trkpt lat="42.9146192" lon="13.890117"><ele>6.0</ele><time>2026-05-02T16:39:56.648Z</time></trkpt><trkpt lat="42.9146782" lon="13.890151"><ele>6.0</ele><time>2026-05-02T16:39:57.649Z</time></trkpt><trkpt lat="42.9147304" lon="13.8902149"><ele>6.0</ele><time>2026-05-02T16:39:58.649Z</time></trkpt><trkpt lat="42.914755" lon="13.8902988"><ele>5.999999999999999</ele><time>2026-05-02T16:39:59.649Z</time></trkpt><trkpt lat="42.9147754" lon="13.8904126"><ele>6.0</ele><time>2026-05-02T16:40:00.648Z</time></trkpt><trkpt lat="42.9147879" lon="13.890537"><ele>6.0</ele><time>2026-05-02T16:40:01.648Z</time></trkpt><trkpt lat="42.9147961" lon="13.8906725"><ele>6.0</ele><time>2026-05-02T16:40:02.649Z</time></trkpt><trkpt lat="42.9148068" lon="13.8908142"><ele>6.0</ele><time>2026-05-02T16:40:03.649Z</time></trkpt><trkpt lat="42.91482" lon="13.8909501"><ele>6.0</ele><time>2026-05-02T16:40:04.649Z</time></trkpt><trkpt lat="42.914826" lon="13.8910804"><ele>6.0</ele><time>2026-05-02T16:40:05.649Z</time></trkpt><trkpt lat="42.9148381" lon="13.8912106"><ele>6.0</ele><time>2026-05-02T16:40:06.649Z</time></trkpt><trkpt lat="42.9148493" lon="13.8913277"><ele>6.0</ele><time>2026-05-02T16:40:07.649Z</time></trkpt><trkpt lat="42.914861" lon="13.8914472"><ele>6.0</ele><time>2026-05-02T16:40:08.649Z</time></trkpt><trkpt lat="42.9148729" lon="13.8915625"><ele>6.0</ele><time>2026-05-02T16:40:09.648Z</time></trkpt><trkpt lat="42.9148826" lon="13.8916829"><ele>6.0</ele><time>2026-05-02T16:40:10.649Z</time></trkpt><trkpt lat="42.9148964" lon="13.8917943"><ele>6.0</ele><time>2026-05-02T16:40:11.649Z</time></trkpt><trkpt lat="42.9149115" lon="13.8919047"><ele>6.0</ele><time>2026-05-02T16:40:12.649Z</time></trkpt><trkpt lat="42.9149288" lon="13.892013"><ele>6.0</ele><time>2026-05-02T16:40:13.649Z</time></trkpt><trkpt lat="42.9149494" lon="13.8921211"><ele>6.0</ele><time>2026-05-02T16:40:14.648Z</time></trkpt><trkpt lat="42.9149615" lon="13.8922375"><ele>6.0</ele><time>2026-05-02T16:40:15.649Z</time></trkpt><trkpt lat="42.9149652" lon="13.8923497"><ele>6.0</ele><time>2026-05-02T16:40:16.649Z</time></trkpt><trkpt lat="42.9149771" lon="13.8924587"><ele>6.0</ele><time>2026-05-02T16:40:17.649Z</time></trkpt><trkpt lat="42.9149892" lon="13.8925611"><ele>6.0</ele><time>2026-05-02T16:40:18.649Z</time></trkpt><trkpt lat="42.9150104" lon="13.8927001"><ele>6.0</ele><time>2026-05-02T16:40:20.65Z</time></trkpt><trkpt lat="42.9150237" lon="13.8927848"><ele>6.0</ele><time>2026-05-02T16:40:22.65Z</time></trkpt><trkpt lat="42.9150533" lon="13.8928905"><ele>6.0</ele><time>2026-05-02T16:40:24.65Z</time></trkpt><trkpt lat="42.9150751" lon="13.8930432"><ele>6.0</ele><time>2026-05-02T16:40:26.649Z</time></trkpt><trkpt lat="42.9150884" lon="13.8932261"><ele>6.0</ele><time>2026-05-02T16:40:28.65Z</time></trkpt><trkpt lat="42.9151008" lon="13.8933241"><ele>6.0</ele><time>2026-05-02T16:40:29.649Z</time></trkpt><trkpt lat="42.9151059" lon="13.8934263"><ele>6.0</ele><time>2026-05-02T16:40:30.65Z</time></trkpt><trkpt lat="42.915122" lon="13.8935202"><ele>6.0</ele><time>2026-05-02T16:40:31.649Z</time></trkpt><trkpt lat="42.9151444" lon="13.8936294"><ele>6.0</ele><time>2026-05-02T16:40:32.65Z</time></trkpt><trkpt lat="42.9151611" lon="13.8937481"><ele>6.0</ele><time>2026-05-02T16:40:33.65Z</time></trkpt><trkpt lat="42.9151793" lon="13.8938747"><ele>6.0</ele><time>2026-05-02T16:40:34.65Z</time></trkpt><trkpt lat="42.9151967" lon="13.8939971"><ele>6.0</ele><time>2026-05-02T16:40:35.65Z</time></trkpt><trkpt lat="42.9152089" lon="13.8941234"><ele>6.0</ele><time>2026-05-02T16:40:36.65Z</time></trkpt><trkpt lat="42.9152246" lon="13.8942432"><ele>6.0</ele><time>2026-05-02T16:40:37.65Z</time></trkpt><trkpt lat="42.9152443" lon="13.8943636"><ele>6.0</ele><time>2026-05-02T16:40:38.65Z</time></trkpt><trkpt lat="42.915264" lon="13.8944859"><ele>6.0</ele><time>2026-05-02T16:40:39.65Z</time></trkpt><trkpt lat="42.915278" lon="13.8946028"><ele>6.0</ele><time>2026-05-02T16:40:40.65Z</time></trkpt><trkpt lat="42.9152947" lon="13.8947229"><ele>6.0</ele><time>2026-05-02T16:40:41.65Z</time></trkpt><trkpt lat="42.9153065" lon="13.8948376"><ele>6.0</ele><time>2026-05-02T16:40:42.65Z</time></trkpt><trkpt lat="42.9153205" lon="13.8949449"><ele>6.0</ele><time>2026-05-02T16:40:43.65Z</time></trkpt><trkpt lat="42.9153375" lon="13.895044"><ele>6.0</ele><time>2026-05-02T16:40:44.65Z</time></trkpt><trkpt lat="42.9153517" lon="13.8951357"><ele>6.0</ele><time>2026-05-02T16:40:45.65Z</time></trkpt><trkpt lat="42.9153622" lon="13.8952338"><ele>6.0</ele><time>2026-05-02T16:40:46.65Z</time></trkpt><trkpt lat="42.9153754" lon="13.8953241"><ele>6.0</ele><time>2026-05-02T16:40:47.649Z</time></trkpt><trkpt lat="42.9153957" lon="13.8954853"><ele>6.0</ele><time>2026-05-02T16:40:49.649Z</time></trkpt><trkpt lat="42.9154232" lon="13.8956619"><ele>6.0</ele><time>2026-05-02T16:40:51.65Z</time></trkpt><trkpt lat="42.9154356" lon="13.8957569"><ele>6.0</ele><time>2026-05-02T16:40:52.65Z</time></trkpt><trkpt lat="42.9154478" lon="13.895855"><ele>6.0</ele><time>2026-05-02T16:40:53.65Z</time></trkpt><trkpt lat="42.9154615" lon="13.8959557"><ele>6.0</ele><time>2026-05-02T16:40:54.649Z</time></trkpt><trkpt lat="42.915473" lon="13.8960669"><ele>6.0</ele><time>2026-05-02T16:40:55.65Z</time></trkpt><trkpt lat="42.9154862" lon="13.8961857"><ele>6.0</ele><time>2026-05-02T16:40:56.65Z</time></trkpt><trkpt lat="42.9154974" lon="13.8962937"><ele>6.0</ele><time>2026-05-02T16:40:57.649Z</time></trkpt><trkpt lat="42.9155079" lon="13.8964129"><ele>5.6</ele><time>2026-05-02T16:40:58.65Z</time></trkpt><trkpt lat="42.915522" lon="13.8965326"><ele>5.199999999999999</ele><time>2026-05-02T16:40:59.65Z</time></trkpt><trkpt lat="42.9155497" lon="13.8966616"><ele>4.800000000000001</ele><time>2026-05-02T16:41:00.65Z</time></trkpt><trkpt lat="42.9155695" lon="13.896793"><ele>4.4</ele><time>2026-05-02T16:41:01.65Z</time></trkpt><trkpt lat="42.9155906" lon="13.8969209"><ele>4.0</ele><time>2026-05-02T16:41:02.65Z</time></trkpt><trkpt lat="42.9156129" lon="13.8970426"><ele>3.9999999999999996</ele><time>2026-05-02T16:41:03.65Z</time></trkpt><trkpt lat="42.9156268" lon="13.8971592"><ele>4.0</ele><time>2026-05-02T16:41:04.65Z</time></trkpt><trkpt lat="42.9156384" lon="13.8972745"><ele>4.0</ele><time>2026-05-02T16:41:05.649Z</time></trkpt><trkpt lat="42.9156496" lon="13.8973841"><ele>4.0</ele><time>2026-05-02T16:41:06.65Z</time></trkpt><trkpt lat="42.9156655" lon="13.8975027"><ele>3.9999999999999996</ele><time>2026-05-02T16:41:07.65Z</time></trkpt><trkpt lat="42.9156786" lon="13.897616"><ele>4.0</ele><time>2026-05-02T16:41:08.65Z</time></trkpt><trkpt lat="42.9156912" lon="13.8977293"><ele>4.166666666666666</ele><time>2026-05-02T16:41:09.65Z</time></trkpt><trkpt lat="42.9157071" lon="13.8978363"><ele>4.333333333333333</ele><time>2026-05-02T16:41:10.65Z</time></trkpt><trkpt lat="42.9157263" lon="13.8979448"><ele>4.5</ele><time>2026-05-02T16:41:11.65Z</time></trkpt><trkpt lat="42.9157454" lon="13.898054"><ele>4.666666666666667</ele><time>2026-05-02T16:41:12.65Z</time></trkpt><trkpt lat="42.9157644" lon="13.8981688"><ele>4.833333333333334</ele><time>2026-05-02T16:41:13.65Z</time></trkpt><trkpt lat="42.9157787" lon="13.8982745"><ele>5.0</ele><time>2026-05-02T16:41:14.65Z</time></trkpt><trkpt lat="42.9157899" lon="13.8983867"><ele>5.0</ele><time>2026-05-02T16:41:15.65Z</time></trkpt><trkpt lat="42.9158016" lon="13.8984964"><ele>5.0</ele><time>2026-05-02T16:41:16.65Z</time></trkpt><trkpt lat="42.9158126" lon="13.8985985"><ele>5.0</ele><time>2026-05-02T16:41:17.649Z</time></trkpt><trkpt lat="42.9158243" lon="13.8987014"><ele>5.0</ele><time>2026-05-02T16:41:18.649Z</time></trkpt><trkpt lat="42.9158385" lon="13.8988031"><ele>5.0</ele><time>2026-05-02T16:41:19.649Z</time></trkpt><trkpt lat="42.9158506" lon="13.8989097"><ele>5.0</ele><time>2026-05-02T16:41:20.651Z</time></trkpt><trkpt lat="42.9158607" lon="13.8990102"><ele>5.0</ele><time>2026-05-02T16:41:21.65Z</time></trkpt><trkpt lat="42.9158764" lon="13.8991243"><ele>5.0</ele><time>2026-05-02T16:41:22.65Z</time></trkpt><trkpt lat="42.9158874" lon="13.8992274"><ele>5.0</ele><time>2026-05-02T16:41:23.649Z</time></trkpt><trkpt lat="42.9158993" lon="13.8993358"><ele>5.0</ele><time>2026-05-02T16:41:24.65Z</time></trkpt><trkpt lat="42.9159093" lon="13.899429"><ele>5.0</ele><time>2026-05-02T16:41:25.651Z</time></trkpt><trkpt lat="42.915917" lon="13.899516"><ele>5.0</ele><time>2026-05-02T16:41:26.651Z</time></trkpt><trkpt lat="42.915935" lon="13.8996682"><ele>5.0</ele><time>2026-05-02T16:41:28.651Z</time></trkpt><trkpt lat="42.9159445" lon="13.8997809"><ele>5.0</ele><time>2026-05-02T16:41:30.651Z</time></trkpt><trkpt lat="42.9159539" lon="13.8998695"><ele>5.0</ele><time>2026-05-02T16:41:33.651Z</time></trkpt><trkpt lat="42.9159649" lon="13.9000097"><ele>5.0</ele><time>2026-05-02T16:41:42.651Z</time></trkpt><trkpt lat="42.9159803" lon="13.9001284"><ele>5.0</ele><time>2026-05-02T16:41:43.651Z</time></trkpt><trkpt lat="42.916005" lon="13.9002466"><ele>5.0</ele><time>2026-05-02T16:41:44.651Z</time></trkpt><trkpt lat="42.9160329" lon="13.900375"><ele>5.0</ele><time>2026-05-02T16:41:45.65Z</time></trkpt><trkpt lat="42.9160579" lon="13.9005015"><ele>5.0</ele><time>2026-05-02T16:41:46.651Z</time></trkpt><trkpt lat="42.9160745" lon="13.9006352"><ele>5.0</ele><time>2026-05-02T16:41:47.651Z</time></trkpt><trkpt lat="42.9160938" lon="13.9007635"><ele>5.0</ele><time>2026-05-02T16:41:48.651Z</time></trkpt><trkpt lat="42.9161059" lon="13.9008873"><ele>5.0</ele><time>2026-05-02T16:41:49.651Z</time></trkpt><trkpt lat="42.9161193" lon="13.901022"><ele>5.2</ele><time>2026-05-02T16:41:50.651Z</time></trkpt><trkpt lat="42.9161305" lon="13.9011488"><ele>5.4</ele><time>2026-05-02T16:41:51.651Z</time></trkpt><trkpt lat="42.9161353" lon="13.9012893"><ele>5.6</ele><time>2026-05-02T16:41:52.65Z</time></trkpt><trkpt lat="42.9161494" lon="13.901432"><ele>5.8</ele><time>2026-05-02T16:41:53.651Z</time></trkpt><trkpt lat="42.9161714" lon="13.9015676"><ele>6.0</ele><time>2026-05-02T16:41:54.651Z</time></trkpt><trkpt lat="42.9161903" lon="13.9017065"><ele>6.0</ele><time>2026-05-02T16:41:55.651Z</time></trkpt><trkpt lat="42.9162136" lon="13.9018416"><ele>6.0</ele><time>2026-05-02T16:41:56.651Z</time></trkpt><trkpt lat="42.91623" lon="13.901981"><ele>6.0</ele><time>2026-05-02T16:41:57.651Z</time></trkpt><trkpt lat="42.9162444" lon="13.9021192"><ele>6.0</ele><time>2026-05-02T16:41:58.651Z</time></trkpt><trkpt lat="42.9162571" lon="13.9022564"><ele>6.0</ele><time>2026-05-02T16:41:59.651Z</time></trkpt><trkpt lat="42.91627" lon="13.902378"><ele>6.0</ele><time>2026-05-02T16:42:00.651Z</time></trkpt><trkpt lat="42.9162845" lon="13.9024969"><ele>6.0</ele><time>2026-05-02T16:42:01.651Z</time></trkpt><trkpt lat="42.9162996" lon="13.9026116"><ele>6.0</ele><time>2026-05-02T16:42:02.65Z</time></trkpt><trkpt lat="42.9163144" lon="13.9027204"><ele>6.0</ele><time>2026-05-02T16:42:03.651Z</time></trkpt><trkpt lat="42.916325" lon="13.9028339"><ele>6.0</ele><time>2026-05-02T16:42:04.651Z</time></trkpt><trkpt lat="42.9163401" lon="13.9029435"><ele>6.0</ele><time>2026-05-02T16:42:05.651Z</time></trkpt><trkpt lat="42.9163596" lon="13.9030535"><ele>5.666666666666667</ele><time>2026-05-02T16:42:06.651Z</time></trkpt><trkpt lat="42.9163823" lon="13.9031619"><ele>5.333333333333333</ele><time>2026-05-02T16:42:07.651Z</time></trkpt><trkpt lat="42.9163971" lon="13.9032716"><ele>5.0</ele><time>2026-05-02T16:42:08.65Z</time></trkpt><trkpt lat="42.9164109" lon="13.9033789"><ele>4.666666666666666</ele><time>2026-05-02T16:42:09.651Z</time></trkpt><trkpt lat="42.9164255" lon="13.9034839"><ele>4.333333333333333</ele><time>2026-05-02T16:42:10.65Z</time></trkpt><trkpt lat="42.9164386" lon="13.9035818"><ele>4.0</ele><time>2026-05-02T16:42:11.651Z</time></trkpt><trkpt lat="42.9164615" lon="13.9036747"><ele>3.4000000000000004</ele><time>2026-05-02T16:42:12.651Z</time></trkpt><trkpt lat="42.9164923" lon="13.9037526"><ele>2.8000000000000003</ele><time>2026-05-02T16:42:13.651Z</time></trkpt><trkpt lat="42.9165594" lon="13.9037992"><ele>2.2</ele><time>2026-05-02T16:42:15.651Z</time></trkpt><trkpt lat="42.9166536" lon="13.9037866"><ele>1.6</ele><time>2026-05-02T16:42:17.651Z</time></trkpt><trkpt lat="42.9167813" lon="13.9037218"><ele>1.0</ele><time>2026-05-02T16:42:19.651Z</time></trkpt><trkpt lat="42.9168647" lon="13.9036609"><ele>0.8</ele><time>2026-05-02T16:42:20.651Z</time></trkpt><trkpt lat="42.9169501" lon="13.9036028"><ele>0.6000000000000001</ele><time>2026-05-02T16:42:21.651Z</time></trkpt><trkpt lat="42.9170364" lon="13.9035499"><ele>0.4</ele><time>2026-05-02T16:42:22.651Z</time></trkpt><trkpt lat="42.917122" lon="13.9034968"><ele>0.2</ele><time>2026-05-02T16:42:23.651Z</time></trkpt><trkpt lat="42.9172113" lon="13.9034474"><ele>0.0</ele><time>2026-05-02T16:42:24.651Z</time></trkpt><trkpt lat="42.9173049" lon="13.9033983"><ele>0.2</ele><time>2026-05-02T16:42:25.651Z</time></trkpt><trkpt lat="42.917398" lon="13.9033487"><ele>0.4</ele><time>2026-05-02T16:42:26.651Z</time></trkpt><trkpt lat="42.9174895" lon="13.9032947"><ele>0.6000000000000001</ele><time>2026-05-02T16:42:27.651Z</time></trkpt><trkpt lat="42.9175779" lon="13.9032322"><ele>0.8</ele><time>2026-05-02T16:42:28.651Z</time></trkpt><trkpt lat="42.9176643" lon="13.9031691"><ele>1.0</ele><time>2026-05-02T16:42:29.651Z</time></trkpt><trkpt lat="42.9177565" lon="13.9031049"><ele>1.0</ele><time>2026-05-02T16:42:30.651Z</time></trkpt><trkpt lat="42.9178439" lon="13.903047"><ele>1.0</ele><time>2026-05-02T16:42:31.652Z</time></trkpt><trkpt lat="42.9179359" lon="13.9029957"><ele>1.0</ele><time>2026-05-02T16:42:32.652Z</time></trkpt><trkpt lat="42.9180322" lon="13.9029409"><ele>1.0</ele><time>2026-05-02T16:42:33.652Z</time></trkpt><trkpt lat="42.9181291" lon="13.9028862"><ele>1.0</ele><time>2026-05-02T16:42:34.652Z</time></trkpt><trkpt lat="42.9182178" lon="13.9028295"><ele>1.0</ele><time>2026-05-02T16:42:35.652Z</time></trkpt><trkpt lat="42.9183066" lon="13.9027742"><ele>1.0</ele><time>2026-05-02T16:42:36.652Z</time></trkpt><trkpt lat="42.9183964" lon="13.9027204"><ele>1.0</ele><time>2026-05-02T16:42:37.652Z</time></trkpt><trkpt lat="42.9184822" lon="13.9026732"><ele>1.0</ele><time>2026-05-02T16:42:38.652Z</time></trkpt><trkpt lat="42.9185665" lon="13.9026219"><ele>1.0</ele><time>2026-05-02T16:42:39.651Z</time></trkpt><trkpt lat="42.9186466" lon="13.9025719"><ele>1.5</ele><time>2026-05-02T16:42:40.652Z</time></trkpt><trkpt lat="42.9187324" lon="13.9025059"><ele>2.0</ele><time>2026-05-02T16:42:41.652Z</time></trkpt><trkpt lat="42.9189061" lon="13.9023907"><ele>2.5</ele><time>2026-05-02T16:42:43.652Z</time></trkpt><trkpt lat="42.9190069" lon="13.9023392"><ele>3.0</ele><time>2026-05-02T16:42:44.652Z</time></trkpt><trkpt lat="42.919104" lon="13.9022845"><ele>3.0</ele><time>2026-05-02T16:42:45.651Z</time></trkpt><trkpt lat="42.9191965" lon="13.9022287"><ele>3.0</ele><time>2026-05-02T16:42:46.651Z</time></trkpt><trkpt lat="42.919284" lon="13.9021715"><ele>3.0</ele><time>2026-05-02T16:42:47.652Z</time></trkpt><trkpt lat="42.919373" lon="13.9021154"><ele>3.0</ele><time>2026-05-02T16:42:48.651Z</time></trkpt><trkpt lat="42.9194619" lon="13.902059"><ele>3.0</ele><time>2026-05-02T16:42:49.652Z</time></trkpt><trkpt lat="42.9195456" lon="13.9020104"><ele>2.6</ele><time>2026-05-02T16:42:50.652Z</time></trkpt><trkpt lat="42.9196334" lon="13.9019551"><ele>2.1999999999999997</ele><time>2026-05-02T16:42:51.652Z</time></trkpt><trkpt lat="42.9197199" lon="13.9018994"><ele>1.8</ele><time>2026-05-02T16:42:52.652Z</time></trkpt><trkpt lat="42.9198147" lon="13.901843"><ele>1.4</ele><time>2026-05-02T16:42:53.652Z</time></trkpt><trkpt lat="42.9199093" lon="13.9017876"><ele>1.0</ele><time>2026-05-02T16:42:54.652Z</time></trkpt><trkpt lat="42.9200007" lon="13.9017325"><ele>1.6</ele><time>2026-05-02T16:42:55.652Z</time></trkpt><trkpt lat="42.9200931" lon="13.9016788"><ele>2.2</ele><time>2026-05-02T16:42:56.652Z</time></trkpt><trkpt lat="42.9201846" lon="13.901621"><ele>2.8000000000000003</ele><time>2026-05-02T16:42:57.651Z</time></trkpt><trkpt lat="42.9202807" lon="13.9015581"><ele>3.4000000000000004</ele><time>2026-05-02T16:42:58.652Z</time></trkpt><trkpt lat="42.9203721" lon="13.9014974"><ele>4.0</ele><time>2026-05-02T16:42:59.652Z</time></trkpt><trkpt lat="42.9204675" lon="13.9014392"><ele>4.0</ele><time>2026-05-02T16:43:00.652Z</time></trkpt><trkpt lat="42.9205666" lon="13.9013845"><ele>4.0</ele><time>2026-05-02T16:43:01.652Z</time></trkpt><trkpt lat="42.9206602" lon="13.9013303"><ele>4.0</ele><time>2026-05-02T16:43:02.651Z</time></trkpt><trkpt lat="42.9207515" lon="13.9012728"><ele>4.0</ele><time>2026-05-02T16:43:03.651Z</time></trkpt><trkpt lat="42.9208398" lon="13.9012164"><ele>4.0</ele><time>2026-05-02T16:43:04.652Z</time></trkpt><trkpt lat="42.9209224" lon="13.901164"><ele>4.166666666666666</ele><time>2026-05-02T16:43:05.652Z</time></trkpt><trkpt lat="42.9210025" lon="13.9011129"><ele>4.333333333333333</ele><time>2026-05-02T16:43:06.652Z</time></trkpt><trkpt lat="42.9210836" lon="13.9010618"><ele>4.5</ele><time>2026-05-02T16:43:07.651Z</time></trkpt><trkpt lat="42.9211531" lon="13.9010143"><ele>4.666666666666667</ele><time>2026-05-02T16:43:08.652Z</time></trkpt><trkpt lat="42.9212127" lon="13.9009743"><ele>4.833333333333334</ele><time>2026-05-02T16:43:09.652Z</time></trkpt><trkpt lat="42.9213158" lon="13.9009062"><ele>5.0</ele><time>2026-05-02T16:43:11.651Z</time></trkpt><trkpt lat="42.9214053" lon="13.9008507"><ele>5.0</ele><time>2026-05-02T16:43:13.652Z</time></trkpt><trkpt lat="42.9215207" lon="13.9007813"><ele>5.0</ele><time>2026-05-02T16:43:15.652Z</time></trkpt><trkpt lat="42.9215886" lon="13.9007423"><ele>5.0</ele><time>2026-05-02T16:43:16.652Z</time></trkpt><trkpt lat="42.9216681" lon="13.9006989"><ele>5.0</ele><time>2026-05-02T16:43:17.652Z</time></trkpt><trkpt lat="42.921746" lon="13.9006499"><ele>5.0</ele><time>2026-05-02T16:43:18.652Z</time></trkpt><trkpt lat="42.9218335" lon="13.9006007"><ele>4.333333333333334</ele><time>2026-05-02T16:43:19.651Z</time></trkpt><trkpt lat="42.9219164" lon="13.9005496"><ele>3.666666666666667</ele><time>2026-05-02T16:43:20.652Z</time></trkpt><trkpt lat="42.9220034" lon="13.900501"><ele>3.0</ele><time>2026-05-02T16:43:21.652Z</time></trkpt><trkpt lat="42.9220865" lon="13.9004545"><ele>2.3333333333333335</ele><time>2026-05-02T16:43:22.652Z</time></trkpt><trkpt lat="42.922164" lon="13.9004055"><ele>1.6666666666666665</ele><time>2026-05-02T16:43:23.652Z</time></trkpt><trkpt lat="42.9222409" lon="13.9003549"><ele>1.0</ele><time>2026-05-02T16:43:24.652Z</time></trkpt><trkpt lat="42.9223137" lon="13.9003073"><ele>0.9999999999999999</ele><time>2026-05-02T16:43:25.652Z</time></trkpt><trkpt lat="42.9223763" lon="13.9002651"><ele>1.0</ele><time>2026-05-02T16:43:26.652Z</time></trkpt><trkpt lat="42.9224463" lon="13.9002232"><ele>1.0</ele><time>2026-05-02T16:43:27.652Z</time></trkpt><trkpt lat="42.9225206" lon="13.9001819"><ele>1.0</ele><time>2026-05-02T16:43:28.652Z</time></trkpt><trkpt lat="42.9225949" lon="13.9001351"><ele>0.9999999999999999</ele><time>2026-05-02T16:43:29.652Z</time></trkpt><trkpt lat="42.9226709" lon="13.9000923"><ele>1.0</ele><time>2026-05-02T16:43:30.651Z</time></trkpt><trkpt lat="42.9227516" lon="13.9000418"><ele>1.6</ele><time>2026-05-02T16:43:31.653Z</time></trkpt><trkpt lat="42.9228352" lon="13.8999914"><ele>2.2</ele><time>2026-05-02T16:43:32.653Z</time></trkpt><trkpt lat="42.9229227" lon="13.8999389"><ele>2.8000000000000003</ele><time>2026-05-02T16:43:33.653Z</time></trkpt><trkpt lat="42.9230123" lon="13.8998867"><ele>3.4000000000000004</ele><time>2026-05-02T16:43:34.652Z</time></trkpt><trkpt lat="42.9230961" lon="13.8998397"><ele>4.0</ele><time>2026-05-02T16:43:35.651Z</time></trkpt><trkpt lat="42.923181" lon="13.8997889"><ele>3.9999999999999996</ele><time>2026-05-02T16:43:36.653Z</time></trkpt><trkpt lat="42.9232602" lon="13.8997354"><ele>4.0</ele><time>2026-05-02T16:43:37.653Z</time></trkpt><trkpt lat="42.9233392" lon="13.8996901"><ele>4.0</ele><time>2026-05-02T16:43:38.653Z</time></trkpt><trkpt lat="42.9234244" lon="13.899645"><ele>4.0</ele><time>2026-05-02T16:43:39.653Z</time></trkpt><trkpt lat="42.923505" lon="13.8995953"><ele>3.9999999999999996</ele><time>2026-05-02T16:43:40.653Z</time></trkpt><trkpt lat="42.9235855" lon="13.8995411"><ele>4.0</ele><time>2026-05-02T16:43:41.653Z</time></trkpt><trkpt lat="42.9236625" lon="13.8994916"><ele>4.0</ele><time>2026-05-02T16:43:42.652Z</time></trkpt><trkpt lat="42.9237395" lon="13.8994414"><ele>4.0</ele><time>2026-05-02T16:43:43.653Z</time></trkpt><trkpt lat="42.9238214" lon="13.8993958"><ele>4.0</ele><time>2026-05-02T16:43:44.652Z</time></trkpt><trkpt lat="42.9239114" lon="13.8993462"><ele>4.0</ele><time>2026-05-02T16:43:45.653Z</time></trkpt><trkpt lat="42.9239945" lon="13.8992921"><ele>4.0</ele><time>2026-05-02T16:43:46.653Z</time></trkpt><trkpt lat="42.9240773" lon="13.8992364"><ele>4.0</ele><time>2026-05-02T16:43:47.653Z</time></trkpt><trkpt lat="42.9241588" lon="13.8991809"><ele>4.0</ele><time>2026-05-02T16:43:48.653Z</time></trkpt><trkpt lat="42.9242456" lon="13.8991328"><ele>4.0</ele><time>2026-05-02T16:43:49.653Z</time></trkpt><trkpt lat="42.924329" lon="13.8990863"><ele>4.0</ele><time>2026-05-02T16:43:50.653Z</time></trkpt><trkpt lat="42.9244153" lon="13.8990354"><ele>4.0</ele><time>2026-05-02T16:43:51.653Z</time></trkpt><trkpt lat="42.9245043" lon="13.8989824"><ele>3.6</ele><time>2026-05-02T16:43:52.652Z</time></trkpt><trkpt lat="42.9245972" lon="13.8989258"><ele>3.2</ele><time>2026-05-02T16:43:53.653Z</time></trkpt><trkpt lat="42.9246862" lon="13.8988716"><ele>2.8000000000000003</ele><time>2026-05-02T16:43:54.652Z</time></trkpt><trkpt lat="42.9247765" lon="13.8988188"><ele>2.4000000000000004</ele><time>2026-05-02T16:43:55.653Z</time></trkpt><trkpt lat="42.9248682" lon="13.8987674"><ele>2.0</ele><time>2026-05-02T16:43:56.653Z</time></trkpt><trkpt lat="42.9249632" lon="13.8987141"><ele>2.0</ele><time>2026-05-02T16:43:57.652Z</time></trkpt><trkpt lat="42.9250595" lon="13.8986588"><ele>2.0</ele><time>2026-05-02T16:43:58.653Z</time></trkpt><trkpt lat="42.9251585" lon="13.8985953"><ele>2.0</ele><time>2026-05-02T16:43:59.653Z</time></trkpt><trkpt lat="42.9252636" lon="13.8985351"><ele>2.0</ele><time>2026-05-02T16:44:00.653Z</time></trkpt><trkpt lat="42.9253646" lon="13.8984743"><ele>2.0</ele><time>2026-05-02T16:44:01.653Z</time></trkpt><trkpt lat="42.9254687" lon="13.8984101"><ele>2.0</ele><time>2026-05-02T16:44:02.653Z</time></trkpt><trkpt lat="42.925572" lon="13.8983478"><ele>2.0</ele><time>2026-05-02T16:44:03.653Z</time></trkpt><trkpt lat="42.9256785" lon="13.8982841"><ele>2.0</ele><time>2026-05-02T16:44:04.653Z</time></trkpt><trkpt lat="42.9257834" lon="13.8982192"><ele>2.0</ele><time>2026-05-02T16:44:05.653Z</time></trkpt><trkpt lat="42.9258873" lon="13.8981605"><ele>1.75</ele><time>2026-05-02T16:44:06.653Z</time></trkpt><trkpt lat="42.9259908" lon="13.8980992"><ele>1.5</ele><time>2026-05-02T16:44:07.653Z</time></trkpt><trkpt lat="42.9260996" lon="13.8980327"><ele>1.25</ele><time>2026-05-02T16:44:08.653Z</time></trkpt><trkpt lat="42.9262126" lon="13.897958"><ele>1.0</ele><time>2026-05-02T16:44:09.653Z</time></trkpt><trkpt lat="42.926329" lon="13.8978874"><ele>1.0</ele><time>2026-05-02T16:44:10.653Z</time></trkpt><trkpt lat="42.926441" lon="13.8978208"><ele>1.0</ele><time>2026-05-02T16:44:11.652Z</time></trkpt><trkpt lat="42.9265516" lon="13.897757"><ele>1.0</ele><time>2026-05-02T16:44:12.653Z</time></trkpt><trkpt lat="42.9266583" lon="13.8976947"><ele>1.0</ele><time>2026-05-02T16:44:13.653Z</time></trkpt><trkpt lat="42.9267619" lon="13.8976309"><ele>1.75</ele><time>2026-05-02T16:44:14.653Z</time></trkpt><trkpt lat="42.9268706" lon="13.8975607"><ele>2.5</ele><time>2026-05-02T16:44:15.653Z</time></trkpt><trkpt lat="42.9269817" lon="13.8974918"><ele>3.25</ele><time>2026-05-02T16:44:16.653Z</time></trkpt><trkpt lat="42.927097" lon="13.8974205"><ele>4.0</ele><time>2026-05-02T16:44:17.653Z</time></trkpt><trkpt lat="42.9272116" lon="13.8973516"><ele>4.0</ele><time>2026-05-02T16:44:18.653Z</time></trkpt><trkpt lat="42.9273201" lon="13.8972825"><ele>4.0</ele><time>2026-05-02T16:44:19.653Z</time></trkpt><trkpt lat="42.92743" lon="13.8972183"><ele>4.0</ele><time>2026-05-02T16:44:20.652Z</time></trkpt><trkpt lat="42.9275361" lon="13.8971582"><ele>4.0</ele><time>2026-05-02T16:44:21.653Z</time></trkpt><trkpt lat="42.9276364" lon="13.8970963"><ele>3.4000000000000004</ele><time>2026-05-02T16:44:22.653Z</time></trkpt><trkpt lat="42.9277364" lon="13.8970346"><ele>2.8000000000000003</ele><time>2026-05-02T16:44:23.653Z</time></trkpt><trkpt lat="42.9278311" lon="13.8969726"><ele>2.2</ele><time>2026-05-02T16:44:24.652Z</time></trkpt><trkpt lat="42.9279292" lon="13.8969103"><ele>1.6</ele><time>2026-05-02T16:44:25.653Z</time></trkpt><trkpt lat="42.9280248" lon="13.8968485"><ele>1.0</ele><time>2026-05-02T16:44:26.653Z</time></trkpt><trkpt lat="42.9281118" lon="13.8967954"><ele>1.2000000000000002</ele><time>2026-05-02T16:44:27.653Z</time></trkpt><trkpt lat="42.9282046" lon="13.8967402"><ele>1.4000000000000001</ele><time>2026-05-02T16:44:28.653Z</time></trkpt><trkpt lat="42.9282974" lon="13.8966867"><ele>1.6</ele><time>2026-05-02T16:44:29.653Z</time></trkpt><trkpt lat="42.9283831" lon="13.8966333"><ele>1.8</ele><time>2026-05-02T16:44:30.652Z</time></trkpt><trkpt lat="42.9284628" lon="13.8965815"><ele>2.0</ele><time>2026-05-02T16:44:31.653Z</time></trkpt><trkpt lat="42.9285335" lon="13.8965337"><ele>2.0</ele><time>2026-05-02T16:44:32.652Z</time></trkpt><trkpt lat="42.9285998" lon="13.8964904"><ele>1.9999999999999998</ele><time>2026-05-02T16:44:33.652Z</time></trkpt><trkpt lat="42.9286611" lon="13.8964569"><ele>2.0</ele><time>2026-05-02T16:44:34.653Z</time></trkpt><trkpt lat="42.928726" lon="13.8964242"><ele>2.0</ele><time>2026-05-02T16:44:35.653Z</time></trkpt><trkpt lat="42.9287882" lon="13.8963863"><ele>1.9999999999999998</ele><time>2026-05-02T16:44:36.652Z</time></trkpt><trkpt lat="42.9288528" lon="13.8963441"><ele>2.0</ele><time>2026-05-02T16:44:37.653Z</time></trkpt><trkpt lat="42.928914" lon="13.8963117"><ele>2.0</ele><time>2026-05-02T16:44:38.652Z</time></trkpt><trkpt lat="42.9289735" lon="13.8962757"><ele>1.9999999999999998</ele><time>2026-05-02T16:44:39.653Z</time></trkpt><trkpt lat="42.9290362" lon="13.896243"><ele>2.0</ele><time>2026-05-02T16:44:40.654Z</time></trkpt><trkpt lat="42.9290997" lon="13.8962098"><ele>2.0</ele><time>2026-05-02T16:44:41.654Z</time></trkpt><trkpt lat="42.9291687" lon="13.8961795"><ele>2.0</ele><time>2026-05-02T16:44:42.654Z</time></trkpt><trkpt lat="42.9292409" lon="13.8961454"><ele>1.9999999999999998</ele><time>2026-05-02T16:44:43.654Z</time></trkpt><trkpt lat="42.9293212" lon="13.8960997"><ele>2.0</ele><time>2026-05-02T16:44:44.654Z</time></trkpt><trkpt lat="42.9294077" lon="13.8960407"><ele>1.6</ele><time>2026-05-02T16:44:45.654Z</time></trkpt><trkpt lat="42.9294952" lon="13.8959838"><ele>1.2000000000000002</ele><time>2026-05-02T16:44:46.654Z</time></trkpt><trkpt lat="42.9295855" lon="13.8959286"><ele>0.8</ele><time>2026-05-02T16:44:47.654Z</time></trkpt><trkpt lat="42.929677" lon="13.8958711"><ele>0.4</ele><time>2026-05-02T16:44:48.654Z</time></trkpt><trkpt lat="42.9297619" lon="13.8958181"><ele>0.0</ele><time>2026-05-02T16:44:49.654Z</time></trkpt><trkpt lat="42.929852" lon="13.8957629"><ele>0.2</ele><time>2026-05-02T16:44:50.654Z</time></trkpt><trkpt lat="42.9299387" lon="13.8957091"><ele>0.4</ele><time>2026-05-02T16:44:51.653Z</time></trkpt><trkpt lat="42.9300268" lon="13.8956542"><ele>0.6000000000000001</ele><time>2026-05-02T16:44:52.654Z</time></trkpt><trkpt lat="42.9301109" lon="13.8955975"><ele>0.8</ele><time>2026-05-02T16:44:53.654Z</time></trkpt><trkpt lat="42.9301956" lon="13.8955336"><ele>1.0</ele><time>2026-05-02T16:44:54.654Z</time></trkpt><trkpt lat="42.9302755" lon="13.8954754"><ele>0.9999999999999999</ele><time>2026-05-02T16:44:55.654Z</time></trkpt><trkpt lat="42.9303519" lon="13.8954207"><ele>1.0</ele><time>2026-05-02T16:44:56.653Z</time></trkpt><trkpt lat="42.9304306" lon="13.8953713"><ele>1.0</ele><time>2026-05-02T16:44:57.653Z</time></trkpt><trkpt lat="42.9305123" lon="13.8953232"><ele>1.0</ele><time>2026-05-02T16:44:58.654Z</time></trkpt><trkpt lat="42.9305948" lon="13.8952758"><ele>0.9999999999999999</ele><time>2026-05-02T16:44:59.654Z</time></trkpt><trkpt lat="42.9306758" lon="13.8952407"><ele>1.0</ele><time>2026-05-02T16:45:00.654Z</time></trkpt><trkpt lat="42.9307598" lon="13.8951971"><ele>0.9999999999999999</ele><time>2026-05-02T16:45:01.654Z</time></trkpt><trkpt lat="42.930837" lon="13.895145"><ele>1.0</ele><time>2026-05-02T16:45:02.654Z</time></trkpt><trkpt lat="42.9309026" lon="13.8950902"><ele>1.0</ele><time>2026-05-02T16:45:03.654Z</time></trkpt><trkpt lat="42.9309714" lon="13.8950423"><ele>1.0</ele><time>2026-05-02T16:45:04.654Z</time></trkpt><trkpt lat="42.9310424" lon="13.8949956"><ele>0.9999999999999999</ele><time>2026-05-02T16:45:05.654Z</time></trkpt><trkpt lat="42.931112" lon="13.8949498"><ele>1.0</ele><time>2026-05-02T16:45:06.653Z</time></trkpt><trkpt lat="42.9311887" lon="13.8949164"><ele>1.5</ele><time>2026-05-02T16:45:07.654Z</time></trkpt><trkpt lat="42.9312635" lon="13.8948779"><ele>2.0</ele><time>2026-05-02T16:45:08.654Z</time></trkpt><trkpt lat="42.9313372" lon="13.8948352"><ele>2.5</ele><time>2026-05-02T16:45:09.654Z</time></trkpt><trkpt lat="42.9314137" lon="13.8947861"><ele>3.0</ele><time>2026-05-02T16:45:10.653Z</time></trkpt><trkpt lat="42.9314884" lon="13.894736"><ele>3.4999999999999996</ele><time>2026-05-02T16:45:11.654Z</time></trkpt><trkpt lat="42.9315652" lon="13.8946869"><ele>4.0</ele><time>2026-05-02T16:45:12.654Z</time></trkpt><trkpt lat="42.9316376" lon="13.8946409"><ele>4.0</ele><time>2026-05-02T16:45:13.654Z</time></trkpt><trkpt lat="42.9317092" lon="13.8945941"><ele>3.9999999999999996</ele><time>2026-05-02T16:45:14.654Z</time></trkpt><trkpt lat="42.9317785" lon="13.894548"><ele>4.0</ele><time>2026-05-02T16:45:15.654Z</time></trkpt><trkpt lat="42.9318382" lon="13.8944989"><ele>4.0</ele><time>2026-05-02T16:45:16.653Z</time></trkpt><trkpt lat="42.9318958" lon="13.8944556"><ele>3.9999999999999996</ele><time>2026-05-02T16:45:17.654Z</time></trkpt><trkpt lat="42.9319569" lon="13.8944152"><ele>4.0</ele><time>2026-05-02T16:45:18.654Z</time></trkpt><trkpt lat="42.9320232" lon="13.8943774"><ele>4.0</ele><time>2026-05-02T16:45:19.654Z</time></trkpt><trkpt lat="42.9320925" lon="13.8943398"><ele>3.571428571428571</ele><time>2026-05-02T16:45:20.654Z</time></trkpt><trkpt lat="42.9321612" lon="13.8943111"><ele>3.1428571428571423</ele><time>2026-05-02T16:45:21.654Z</time></trkpt><trkpt lat="42.932227" lon="13.8942977"><ele>2.714285714285714</ele><time>2026-05-02T16:45:22.654Z</time></trkpt><trkpt lat="42.9322975" lon="13.8942992"><ele>2.2857142857142856</ele><time>2026-05-02T16:45:23.654Z</time></trkpt><trkpt lat="42.9323735" lon="13.8943076"><ele>1.857142857142857</ele><time>2026-05-02T16:45:24.654Z</time></trkpt><trkpt lat="42.9324449" lon="13.8943163"><ele>1.4285714285714284</ele><time>2026-05-02T16:45:25.654Z</time></trkpt><trkpt lat="42.9325159" lon="13.8943136"><ele>1.0</ele><time>2026-05-02T16:45:26.654Z</time></trkpt><trkpt lat="42.9325874" lon="13.8942802"><ele>1.25</ele><time>2026-05-02T16:45:27.654Z</time></trkpt><trkpt lat="42.9326637" lon="13.8942249"><ele>1.5</ele><time>2026-05-02T16:45:28.654Z</time></trkpt><trkpt lat="42.9327495" lon="13.8941561"><ele>1.75</ele><time>2026-05-02T16:45:29.653Z</time></trkpt><trkpt lat="42.9328392" lon="13.8940882"><ele>2.0</ele><time>2026-05-02T16:45:30.654Z</time></trkpt><trkpt lat="42.9330346" lon="13.8939671"><ele>2.0</ele><time>2026-05-02T16:45:32.654Z</time></trkpt><trkpt lat="42.9331349" lon="13.8939155"><ele>2.0</ele><time>2026-05-02T16:45:33.653Z</time></trkpt><trkpt lat="42.9332321" lon="13.8938656"><ele>2.0</ele><time>2026-05-02T16:45:34.655Z</time></trkpt><trkpt lat="42.9333212" lon="13.8938217"><ele>2.0</ele><time>2026-05-02T16:45:35.654Z</time></trkpt><trkpt lat="42.9333988" lon="13.893784"><ele>2.0</ele><time>2026-05-02T16:45:36.654Z</time></trkpt><trkpt lat="42.9334649" lon="13.8937517"><ele>1.8</ele><time>2026-05-02T16:45:37.654Z</time></trkpt><trkpt lat="42.9335305" lon="13.893717"><ele>1.6</ele><time>2026-05-02T16:45:38.654Z</time></trkpt><trkpt lat="42.9336277" lon="13.8936564"><ele>1.4000000000000001</ele><time>2026-05-02T16:45:40.654Z</time></trkpt><trkpt lat="42.9337018" lon="13.8936177"><ele>1.2000000000000002</ele><time>2026-05-02T16:45:42.654Z</time></trkpt><trkpt lat="42.9337878" lon="13.8935729"><ele>1.0</ele><time>2026-05-02T16:45:44.654Z</time></trkpt><trkpt lat="42.9338843" lon="13.8935192"><ele>1.0</ele><time>2026-05-02T16:45:46.654Z</time></trkpt><trkpt lat="42.9339871" lon="13.8934606"><ele>1.0</ele><time>2026-05-02T16:45:48.655Z</time></trkpt><trkpt lat="42.9340677" lon="13.8934067"><ele>1.0</ele><time>2026-05-02T16:45:50.654Z</time></trkpt><trkpt lat="42.9341278" lon="13.8933078"><ele>1.0</ele><time>2026-05-02T16:45:52.654Z</time></trkpt><trkpt lat="42.9342043" lon="13.8931792"><ele>1.0</ele><time>2026-05-02T16:45:54.655Z</time></trkpt><trkpt lat="42.9342661" lon="13.8931283"><ele>1.0</ele><time>2026-05-02T16:45:55.655Z</time></trkpt><trkpt lat="42.9343424" lon="13.8930815"><ele>1.0</ele><time>2026-05-02T16:45:56.654Z</time></trkpt><trkpt lat="42.9344319" lon="13.8930347"><ele>1.0</ele><time>2026-05-02T16:45:57.655Z</time></trkpt><trkpt lat="42.9345271" lon="13.8929874"><ele>1.0</ele><time>2026-05-02T16:45:58.654Z</time></trkpt><trkpt lat="42.9346241" lon="13.8929374"><ele>1.0</ele><time>2026-05-02T16:45:59.655Z</time></trkpt><trkpt lat="42.9347183" lon="13.8928876"><ele>1.0</ele><time>2026-05-02T16:46:00.655Z</time></trkpt><trkpt lat="42.9348087" lon="13.8928356"><ele>1.0</ele><time>2026-05-02T16:46:01.655Z</time></trkpt><trkpt lat="42.9348939" lon="13.8927814"><ele>1.0</ele><time>2026-05-02T16:46:02.655Z</time></trkpt><trkpt lat="42.9349748" lon="13.8927283"><ele>1.0</ele><time>2026-05-02T16:46:03.655Z</time></trkpt><trkpt lat="42.9350551" lon="13.8926794"><ele>1.0</ele><time>2026-05-02T16:46:04.655Z</time></trkpt><trkpt lat="42.9351409" lon="13.8926274"><ele>1.1666666666666665</ele><time>2026-05-02T16:46:05.655Z</time></trkpt><trkpt lat="42.9352295" lon="13.8925779"><ele>1.3333333333333333</ele><time>2026-05-02T16:46:06.655Z</time></trkpt><trkpt lat="42.935312" lon="13.8925292"><ele>1.5</ele><time>2026-05-02T16:46:07.655Z</time></trkpt><trkpt lat="42.9353941" lon="13.892486"><ele>1.6666666666666665</ele><time>2026-05-02T16:46:08.655Z</time></trkpt><trkpt lat="42.9354707" lon="13.8924464"><ele>1.8333333333333333</ele><time>2026-05-02T16:46:09.655Z</time></trkpt><trkpt lat="42.9355388" lon="13.8924122"><ele>2.0</ele><time>2026-05-02T16:46:10.655Z</time></trkpt><trkpt lat="42.9356456" lon="13.8923486"><ele>1.9999999999999998</ele><time>2026-05-02T16:46:12.655Z</time></trkpt><trkpt lat="42.9357062" lon="13.8923151"><ele>2.0</ele><time>2026-05-02T16:46:13.655Z</time></trkpt><trkpt lat="42.9357778" lon="13.8922746"><ele>2.0</ele><time>2026-05-02T16:46:14.654Z</time></trkpt><trkpt lat="42.9358604" lon="13.8922274"><ele>2.0</ele><time>2026-05-02T16:46:15.655Z</time></trkpt><trkpt lat="42.9359501" lon="13.89218"><ele>1.9999999999999998</ele><time>2026-05-02T16:46:16.655Z</time></trkpt><trkpt lat="42.9360424" lon="13.8921353"><ele>2.0</ele><time>2026-05-02T16:46:17.655Z</time></trkpt><trkpt lat="42.9361359" lon="13.8920954"><ele>2.6</ele><time>2026-05-02T16:46:18.655Z</time></trkpt><trkpt lat="42.9362264" lon="13.8920517"><ele>3.2</ele><time>2026-05-02T16:46:19.654Z</time></trkpt><trkpt lat="42.9363168" lon="13.8920082"><ele>3.8</ele><time>2026-05-02T16:46:20.655Z</time></trkpt><trkpt lat="42.936405" lon="13.8919622"><ele>4.4</ele><time>2026-05-02T16:46:21.655Z</time></trkpt><trkpt lat="42.9364938" lon="13.8919168"><ele>5.0</ele><time>2026-05-02T16:46:22.655Z</time></trkpt><trkpt lat="42.936582" lon="13.8918694"><ele>5.0</ele><time>2026-05-02T16:46:23.655Z</time></trkpt><trkpt lat="42.9366729" lon="13.8918229"><ele>5.0</ele><time>2026-05-02T16:46:24.655Z</time></trkpt><trkpt lat="42.9367622" lon="13.8917812"><ele>5.0</ele><time>2026-05-02T16:46:25.655Z</time></trkpt><trkpt lat="42.9368509" lon="13.8917397"><ele>5.0</ele><time>2026-05-02T16:46:26.655Z</time></trkpt><trkpt lat="42.9369383" lon="13.8916997"><ele>5.0</ele><time>2026-05-02T16:46:27.654Z</time></trkpt><trkpt lat="42.9370254" lon="13.8916602"><ele>4.6</ele><time>2026-05-02T16:46:28.655Z</time></trkpt><trkpt lat="42.9371148" lon="13.8916177"><ele>4.2</ele><time>2026-05-02T16:46:29.655Z</time></trkpt><trkpt lat="42.9372048" lon="13.8915746"><ele>3.8</ele><time>2026-05-02T16:46:30.655Z</time></trkpt><trkpt lat="42.9372958" lon="13.8915272"><ele>3.4</ele><time>2026-05-02T16:46:31.655Z</time></trkpt><trkpt lat="42.9373859" lon="13.8914799"><ele>3.0</ele><time>2026-05-02T16:46:32.655Z</time></trkpt><trkpt lat="42.9374766" lon="13.8914334"><ele>2.6</ele><time>2026-05-02T16:46:33.655Z</time></trkpt><trkpt lat="42.9375692" lon="13.891387"><ele>2.1999999999999997</ele><time>2026-05-02T16:46:34.655Z</time></trkpt><trkpt lat="42.9376585" lon="13.8913428"><ele>1.8</ele><time>2026-05-02T16:46:35.655Z</time></trkpt><trkpt lat="42.937748" lon="13.8912979"><ele>1.4</ele><time>2026-05-02T16:46:36.655Z</time></trkpt><trkpt lat="42.9378418" lon="13.8912521"><ele>1.0</ele><time>2026-05-02T16:46:37.655Z</time></trkpt><trkpt lat="42.9379351" lon="13.8912056"><ele>0.9999999999999999</ele><time>2026-05-02T16:46:38.655Z</time></trkpt><trkpt lat="42.938028" lon="13.8911553"><ele>1.0</ele><time>2026-05-02T16:46:39.655Z</time></trkpt><trkpt lat="42.9381152" lon="13.8911104"><ele>1.0</ele><time>2026-05-02T16:46:40.654Z</time></trkpt><trkpt lat="42.9381918" lon="13.89107"><ele>1.0</ele><time>2026-05-02T16:46:41.655Z</time></trkpt><trkpt lat="42.9382603" lon="13.8910351"><ele>0.9999999999999999</ele><time>2026-05-02T16:46:42.655Z</time></trkpt><trkpt lat="42.9383216" lon="13.891006"><ele>1.0</ele><time>2026-05-02T16:46:43.654Z</time></trkpt><trkpt lat="42.9384216" lon="13.8909562"><ele>1.8333333333333333</ele><time>2026-05-02T16:46:45.656Z</time></trkpt><trkpt lat="42.9385023" lon="13.8909091"><ele>2.6666666666666665</ele><time>2026-05-02T16:46:47.654Z</time></trkpt><trkpt lat="42.9385754" lon="13.8908707"><ele>3.5</ele><time>2026-05-02T16:46:49.655Z</time></trkpt><trkpt lat="42.9386377" lon="13.8908419"><ele>4.333333333333333</ele><time>2026-05-02T16:46:51.656Z</time></trkpt><trkpt lat="42.9387239" lon="13.8908224"><ele>5.166666666666667</ele><time>2026-05-02T16:46:53.656Z</time></trkpt><trkpt lat="42.938796" lon="13.8908514"><ele>6.0</ele><time>2026-05-02T16:46:55.656Z</time></trkpt><trkpt lat="42.9388587" lon="13.8908794"><ele>6.0</ele><time>2026-05-02T16:47:01.656Z</time></trkpt><trkpt lat="42.9389341" lon="13.8908622"><ele>6.0</ele><time>2026-05-02T16:47:03.656Z</time></trkpt><trkpt lat="42.939054" lon="13.8907992"><ele>6.0</ele><time>2026-05-02T16:47:05.656Z</time></trkpt><trkpt lat="42.9391171" lon="13.8907646"><ele>6.0</ele><time>2026-05-02T16:47:06.656Z</time></trkpt><trkpt lat="42.9391774" lon="13.8907315"><ele>6.0</ele><time>2026-05-02T16:47:07.656Z</time></trkpt><trkpt lat="42.9392442" lon="13.890701"><ele>6.0</ele><time>2026-05-02T16:47:08.656Z</time></trkpt><trkpt lat="42.9393129" lon="13.8906698"><ele>5.333333333333333</ele><time>2026-05-02T16:47:09.655Z</time></trkpt><trkpt lat="42.9393812" lon="13.8906366"><ele>4.666666666666667</ele><time>2026-05-02T16:47:10.656Z</time></trkpt><trkpt lat="42.9394488" lon="13.8906001"><ele>4.0</ele><time>2026-05-02T16:47:11.656Z</time></trkpt><trkpt lat="42.9395219" lon="13.890561"><ele>3.333333333333333</ele><time>2026-05-02T16:47:12.656Z</time></trkpt><trkpt lat="42.9395933" lon="13.8905227"><ele>2.6666666666666665</ele><time>2026-05-02T16:47:13.656Z</time></trkpt><trkpt lat="42.9396622" lon="13.8904872"><ele>2.0</ele><time>2026-05-02T16:47:14.656Z</time></trkpt><trkpt lat="42.939737" lon="13.8904495"><ele>1.9999999999999998</ele><time>2026-05-02T16:47:15.656Z</time></trkpt><trkpt lat="42.9398135" lon="13.8904129"><ele>2.0</ele><time>2026-05-02T16:47:16.656Z</time></trkpt><trkpt lat="42.9398879" lon="13.890378"><ele>2.0</ele><time>2026-05-02T16:47:17.656Z</time></trkpt><trkpt lat="42.939963" lon="13.8903401"><ele>2.0</ele><time>2026-05-02T16:47:18.656Z</time></trkpt><trkpt lat="42.9400387" lon="13.8902979"><ele>1.9999999999999998</ele><time>2026-05-02T16:47:19.656Z</time></trkpt><trkpt lat="42.9401118" lon="13.8902567"><ele>2.0</ele><time>2026-05-02T16:47:20.656Z</time></trkpt><trkpt lat="42.9401869" lon="13.890219"><ele>1.6666666666666665</ele><time>2026-05-02T16:47:21.656Z</time></trkpt><trkpt lat="42.9402587" lon="13.8901814"><ele>1.3333333333333333</ele><time>2026-05-02T16:47:22.656Z</time></trkpt><trkpt lat="42.9403269" lon="13.8901461"><ele>1.0</ele><time>2026-05-02T16:47:23.656Z</time></trkpt><trkpt lat="42.9403948" lon="13.8901156"><ele>0.6666666666666666</ele><time>2026-05-02T16:47:24.656Z</time></trkpt><trkpt lat="42.9404592" lon="13.8900871"><ele>0.3333333333333333</ele><time>2026-05-02T16:47:25.656Z</time></trkpt><trkpt lat="42.9405211" lon="13.8900601"><ele>0.0</ele><time>2026-05-02T16:47:26.656Z</time></trkpt><trkpt lat="42.9406243" lon="13.8900112"><ele>0.3333333333333333</ele><time>2026-05-02T16:47:28.656Z</time></trkpt><trkpt lat="42.9407171" lon="13.8899643"><ele>0.6666666666666666</ele><time>2026-05-02T16:47:30.656Z</time></trkpt><trkpt lat="42.9408279" lon="13.8899133"><ele>1.0</ele><time>2026-05-02T16:47:32.656Z</time></trkpt><trkpt lat="42.9408909" lon="13.8898822"><ele>1.3333333333333333</ele><time>2026-05-02T16:47:33.656Z</time></trkpt><trkpt lat="42.940955" lon="13.8898529"><ele>1.6666666666666665</ele><time>2026-05-02T16:47:34.656Z</time></trkpt><trkpt lat="42.9410214" lon="13.8898238"><ele>2.0</ele><time>2026-05-02T16:47:35.656Z</time></trkpt><trkpt lat="42.9410883" lon="13.8897931"><ele>2.0</ele><time>2026-05-02T16:47:36.656Z</time></trkpt><trkpt lat="42.9411551" lon="13.8897605"><ele>1.9999999999999998</ele><time>2026-05-02T16:47:37.656Z</time></trkpt><trkpt lat="42.9412207" lon="13.8897301"><ele>2.0</ele><time>2026-05-02T16:47:38.656Z</time></trkpt><trkpt lat="42.9412804" lon="13.8896945"><ele>2.0</ele><time>2026-05-02T16:47:39.656Z</time></trkpt><trkpt lat="42.9413428" lon="13.8896593"><ele>1.9999999999999998</ele><time>2026-05-02T16:47:40.656Z</time></trkpt><trkpt lat="42.9414021" lon="13.8896294"><ele>2.0</ele><time>2026-05-02T16:47:41.656Z</time></trkpt><trkpt lat="42.9414821" lon="13.8895937"><ele>2.0</ele><time>2026-05-02T16:47:43.656Z</time></trkpt><trkpt lat="42.9415608" lon="13.8895411"><ele>1.9999999999999998</ele><time>2026-05-02T16:47:46.656Z</time></trkpt><trkpt lat="42.9416344" lon="13.8894982"><ele>2.0</ele><time>2026-05-02T16:47:48.657Z</time></trkpt><trkpt lat="42.9417143" lon="13.889469"><ele>2.0</ele><time>2026-05-02T16:47:50.657Z</time></trkpt><trkpt lat="42.9417859" lon="13.8894377"><ele>2.0</ele><time>2026-05-02T16:47:52.656Z</time></trkpt><trkpt lat="42.9418783" lon="13.8893891"><ele>1.9999999999999998</ele><time>2026-05-02T16:47:54.656Z</time></trkpt><trkpt lat="42.9419833" lon="13.889335"><ele>2.0</ele><time>2026-05-02T16:47:56.657Z</time></trkpt><trkpt lat="42.9420864" lon="13.889285"><ele>2.0</ele><time>2026-05-02T16:47:58.657Z</time></trkpt><trkpt lat="42.9421848" lon="13.8892378"><ele>2.0</ele><time>2026-05-02T16:48:00.657Z</time></trkpt><trkpt lat="42.9422847" lon="13.8891937"><ele>2.0</ele><time>2026-05-02T16:48:02.657Z</time></trkpt><trkpt lat="42.9423904" lon="13.8891469"><ele>2.0</ele><time>2026-05-02T16:48:04.657Z</time></trkpt><trkpt lat="42.9424999" lon="13.8890923"><ele>2.0</ele><time>2026-05-02T16:48:06.657Z</time></trkpt><trkpt lat="42.9425654" lon="13.8890622"><ele>1.9999999999999998</ele><time>2026-05-02T16:48:07.656Z</time></trkpt><trkpt lat="42.9426387" lon="13.8890254"><ele>2.0</ele><time>2026-05-02T16:48:08.657Z</time></trkpt><trkpt lat="42.9427131" lon="13.888992"><ele>2.0</ele><time>2026-05-02T16:48:09.657Z</time></trkpt><trkpt lat="42.9427855" lon="13.8889591"><ele>2.0</ele><time>2026-05-02T16:48:10.657Z</time></trkpt><trkpt lat="42.9428584" lon="13.888928"><ele>1.9999999999999998</ele><time>2026-05-02T16:48:11.657Z</time></trkpt><trkpt lat="42.9429278" lon="13.8888997"><ele>2.0</ele><time>2026-05-02T16:48:12.657Z</time></trkpt><trkpt lat="42.9429965" lon="13.8888698"><ele>1.9999999999999998</ele><time>2026-05-02T16:48:13.657Z</time></trkpt><trkpt lat="42.9430659" lon="13.8888395"><ele>2.0</ele><time>2026-05-02T16:48:14.656Z</time></trkpt><trkpt lat="42.9431345" lon="13.8888158"><ele>2.0</ele><time>2026-05-02T16:48:15.656Z</time></trkpt><trkpt lat="42.9432026" lon="13.8887968"><ele>2.0</ele><time>2026-05-02T16:48:16.657Z</time></trkpt><trkpt lat="42.9433232" lon="13.8887725"><ele>1.9999999999999998</ele><time>2026-05-02T16:48:18.657Z</time></trkpt><trkpt lat="42.9434296" lon="13.8887475"><ele>2.0</ele><time>2026-05-02T16:48:20.657Z</time></trkpt><trkpt lat="42.9435228" lon="13.8887132"><ele>1.8</ele><time>2026-05-02T16:48:22.656Z</time></trkpt><trkpt lat="42.9436244" lon="13.8886704"><ele>1.6</ele><time>2026-05-02T16:48:24.657Z</time></trkpt><trkpt lat="42.943711" lon="13.8886217"><ele>1.4000000000000001</ele><time>2026-05-02T16:48:26.657Z</time></trkpt><trkpt lat="42.9438086" lon="13.8885746"><ele>1.2000000000000002</ele><time>2026-05-02T16:48:28.657Z</time></trkpt><trkpt lat="42.9439261" lon="13.8885241"><ele>1.0</ele><time>2026-05-02T16:48:30.657Z</time></trkpt><trkpt lat="42.9439869" lon="13.8884988"><ele>1.0</ele><time>2026-05-02T16:48:31.656Z</time></trkpt><trkpt lat="42.9441025" lon="13.888449"><ele>1.0</ele><time>2026-05-02T16:48:33.656Z</time></trkpt><trkpt lat="42.9442111" lon="13.8884044"><ele>1.0</ele><time>2026-05-02T16:48:35.657Z</time></trkpt><trkpt lat="42.9443263" lon="13.888361"><ele>1.0</ele><time>2026-05-02T16:48:37.657Z</time></trkpt><trkpt lat="42.9444509" lon="13.8883248"><ele>1.1428571428571428</ele><time>2026-05-02T16:48:39.657Z</time></trkpt><trkpt lat="42.9445161" lon="13.8883065"><ele>1.2857142857142856</ele><time>2026-05-02T16:48:40.657Z</time></trkpt><trkpt lat="42.9445788" lon="13.8882827"><ele>1.4285714285714284</ele><time>2026-05-02T16:48:41.656Z</time></trkpt><trkpt lat="42.9446417" lon="13.8882544"><ele>1.5714285714285714</ele><time>2026-05-02T16:48:42.657Z</time></trkpt><trkpt lat="42.9447027" lon="13.8882215"><ele>1.714285714285714</ele><time>2026-05-02T16:48:43.657Z</time></trkpt><trkpt lat="42.944765" lon="13.8881913"><ele>1.857142857142857</ele><time>2026-05-02T16:48:44.657Z</time></trkpt><trkpt lat="42.9448748" lon="13.888143"><ele>2.0</ele><time>2026-05-02T16:48:46.657Z</time></trkpt><trkpt lat="42.9449478" lon="13.8881144"><ele>1.9999999999999998</ele><time>2026-05-02T16:48:48.657Z</time></trkpt><trkpt lat="42.9450174" lon="13.8880901"><ele>2.0</ele><time>2026-05-02T16:48:53.657Z</time></trkpt><trkpt lat="42.9450944" lon="13.8880572"><ele>2.0</ele><time>2026-05-02T16:48:55.657Z</time></trkpt><trkpt lat="42.9451733" lon="13.8880189"><ele>2.0</ele><time>2026-05-02T16:48:57.658Z</time></trkpt><trkpt lat="42.9452628" lon="13.8879789"><ele>1.9999999999999998</ele><time>2026-05-02T16:48:59.657Z</time></trkpt><trkpt lat="42.9453574" lon="13.8879426"><ele>2.0</ele><time>2026-05-02T16:49:01.658Z</time></trkpt><trkpt lat="42.9454603" lon="13.8879021"><ele>1.8</ele><time>2026-05-02T16:49:03.658Z</time></trkpt><trkpt lat="42.9455765" lon="13.8878526"><ele>1.6</ele><time>2026-05-02T16:49:05.657Z</time></trkpt><trkpt lat="42.945687" lon="13.8878027"><ele>1.4000000000000001</ele><time>2026-05-02T16:49:07.657Z</time></trkpt><trkpt lat="42.9457894" lon="13.8877607"><ele>1.2000000000000002</ele><time>2026-05-02T16:49:09.657Z</time></trkpt><trkpt lat="42.9458727" lon="13.8877289"><ele>1.0</ele><time>2026-05-02T16:49:11.657Z</time></trkpt><trkpt lat="42.9459373" lon="13.887706"><ele>1.0</ele><time>2026-05-02T16:49:13.658Z</time></trkpt><trkpt lat="42.946029" lon="13.8876619"><ele>1.0</ele><time>2026-05-02T16:49:16.658Z</time></trkpt><trkpt lat="42.9461263" lon="13.8876203"><ele>1.0</ele><time>2026-05-02T16:49:18.658Z</time></trkpt><trkpt lat="42.9462292" lon="13.8875793"><ele>1.0</ele><time>2026-05-02T16:49:20.658Z</time></trkpt><trkpt lat="42.9463396" lon="13.8875389"><ele>1.0</ele><time>2026-05-02T16:49:22.658Z</time></trkpt><trkpt lat="42.9464552" lon="13.8874888"><ele>1.2000000000000002</ele><time>2026-05-02T16:49:24.658Z</time></trkpt><trkpt lat="42.9465749" lon="13.8874306"><ele>1.4000000000000001</ele><time>2026-05-02T16:49:26.658Z</time></trkpt><trkpt lat="42.946639" lon="13.887404"><ele>1.6</ele><time>2026-05-02T16:49:27.658Z</time></trkpt><trkpt lat="42.9467007" lon="13.8873821"><ele>1.8</ele><time>2026-05-02T16:49:28.658Z</time></trkpt><trkpt lat="42.9468173" lon="13.8873405"><ele>2.0</ele><time>2026-05-02T16:49:30.658Z</time></trkpt><trkpt lat="42.9469313" lon="13.8872948"><ele>2.0</ele><time>2026-05-02T16:49:32.658Z</time></trkpt><trkpt lat="42.947041" lon="13.8872424"><ele>2.0</ele><time>2026-05-02T16:49:34.658Z</time></trkpt><trkpt lat="42.9471496" lon="13.8872021"><ele>2.0</ele><time>2026-05-02T16:49:36.658Z</time></trkpt><trkpt lat="42.9472561" lon="13.8871646"><ele>2.0</ele><time>2026-05-02T16:49:38.658Z</time></trkpt><trkpt lat="42.947365" lon="13.8871167"><ele>2.0</ele><time>2026-05-02T16:49:40.658Z</time></trkpt><trkpt lat="42.9474473" lon="13.8870788"><ele>2.0</ele><time>2026-05-02T16:49:42.658Z</time></trkpt><trkpt lat="42.9475337" lon="13.8870544"><ele>2.0</ele><time>2026-05-02T16:49:52.658Z</time></trkpt><trkpt lat="42.9476314" lon="13.8870203"><ele>2.0</ele><time>2026-05-02T16:49:54.658Z</time></trkpt><trkpt lat="42.947732" lon="13.8869787"><ele>2.0</ele><time>2026-05-02T16:49:56.658Z</time></trkpt><trkpt lat="42.9478352" lon="13.8869332"><ele>1.9999999999999998</ele><time>2026-05-02T16:49:58.659Z</time></trkpt><trkpt lat="42.9479352" lon="13.8868862"><ele>2.0</ele><time>2026-05-02T16:50:00.657Z</time></trkpt><trkpt lat="42.948019" lon="13.8868351"><ele>2.0</ele><time>2026-05-02T16:50:02.658Z</time></trkpt><trkpt lat="42.9480925" lon="13.8867825"><ele>2.0</ele><time>2026-05-02T16:50:04.659Z</time></trkpt><trkpt lat="42.9481531" lon="13.8867539"><ele>1.9999999999999998</ele><time>2026-05-02T16:50:06.659Z</time></trkpt><trkpt lat="42.9482193" lon="13.88673"><ele>2.0</ele><time>2026-05-02T16:50:14.658Z</time></trkpt><trkpt lat="42.9483037" lon="13.8867067"><ele>2.2</ele><time>2026-05-02T16:50:17.659Z</time></trkpt><trkpt lat="42.9483881" lon="13.8866822"><ele>2.4000000000000004</ele><time>2026-05-02T16:50:19.659Z</time></trkpt><trkpt lat="42.9484867" lon="13.8866364"><ele>2.5999999999999996</ele><time>2026-05-02T16:50:21.659Z</time></trkpt><trkpt lat="42.9485769" lon="13.8865927"><ele>2.8</ele><time>2026-05-02T16:50:23.659Z</time></trkpt><trkpt lat="42.9486743" lon="13.886553"><ele>3.0</ele><time>2026-05-02T16:50:25.659Z</time></trkpt><trkpt lat="42.9487663" lon="13.8865302"><ele>3.0</ele><time>2026-05-02T16:50:27.659Z</time></trkpt><trkpt lat="42.9488653" lon="13.8865097"><ele>3.0</ele><time>2026-05-02T16:50:29.659Z</time></trkpt><trkpt lat="42.9489534" lon="13.8864824"><ele>3.0</ele><time>2026-05-02T16:50:31.658Z</time></trkpt><trkpt lat="42.94903" lon="13.8864492"><ele>3.0</ele><time>2026-05-02T16:50:33.658Z</time></trkpt><trkpt lat="42.9491025" lon="13.8864226"><ele>3.0</ele><time>2026-05-02T16:50:35.659Z</time></trkpt><trkpt lat="42.9491751" lon="13.8863984"><ele>3.0</ele><time>2026-05-02T16:50:37.659Z</time></trkpt><trkpt lat="42.9492593" lon="13.8863573"><ele>2.8333333333333335</ele><time>2026-05-02T16:50:39.659Z</time></trkpt><trkpt lat="42.9493413" lon="13.8863168"><ele>2.6666666666666665</ele><time>2026-05-02T16:50:41.658Z</time></trkpt><trkpt lat="42.949408" lon="13.886286"><ele>2.5</ele><time>2026-05-02T16:50:43.658Z</time></trkpt><trkpt lat="42.9494823" lon="13.8862533"><ele>2.333333333333333</ele><time>2026-05-02T16:50:45.659Z</time></trkpt><trkpt lat="42.949565" lon="13.8862136"><ele>2.1666666666666665</ele><time>2026-05-02T16:50:47.659Z</time></trkpt><trkpt lat="42.9496646" lon="13.8861678"><ele>2.0</ele><time>2026-05-02T16:50:49.659Z</time></trkpt><trkpt lat="42.949779" lon="13.8861129"><ele>2.0</ele><time>2026-05-02T16:50:51.659Z</time></trkpt><trkpt lat="42.9498394" lon="13.8860838"><ele>1.9999999999999998</ele><time>2026-05-02T16:50:52.659Z</time></trkpt><trkpt lat="42.9499016" lon="13.8860602"><ele>2.0</ele><time>2026-05-02T16:50:53.659Z</time></trkpt><trkpt lat="42.9499678" lon="13.8860537"><ele>2.0</ele><time>2026-05-02T16:50:54.659Z</time></trkpt><trkpt lat="42.950035" lon="13.8860789"><ele>1.9999999999999998</ele><time>2026-05-02T16:50:55.659Z</time></trkpt><trkpt lat="42.9500945" lon="13.8861346"><ele>2.0</ele><time>2026-05-02T16:50:56.658Z</time></trkpt><trkpt lat="42.9501369" lon="13.8862308"><ele>2.0</ele><time>2026-05-02T16:50:57.659Z</time></trkpt><trkpt lat="42.9501739" lon="13.8863355"><ele>2.0</ele><time>2026-05-02T16:50:58.659Z</time></trkpt><trkpt lat="42.9502054" lon="13.88646"><ele>2.0</ele><time>2026-05-02T16:50:59.659Z</time></trkpt><trkpt lat="42.9502356" lon="13.8865819"><ele>2.0</ele><time>2026-05-02T16:51:00.659Z</time></trkpt><trkpt lat="42.9502693" lon="13.8867049"><ele>2.0</ele><time>2026-05-02T16:51:01.659Z</time></trkpt><trkpt lat="42.9503073" lon="13.8868269"><ele>2.0</ele><time>2026-05-02T16:51:02.659Z</time></trkpt><trkpt lat="42.9503458" lon="13.8869479"><ele>2.0</ele><time>2026-05-02T16:51:03.658Z</time></trkpt><trkpt lat="42.9503845" lon="13.8870751"><ele>2.0</ele><time>2026-05-02T16:51:04.658Z</time></trkpt><trkpt lat="42.9504247" lon="13.8872087"><ele>2.0</ele><time>2026-05-02T16:51:05.66Z</time></trkpt><trkpt lat="42.9504661" lon="13.887343"><ele>2.0</ele><time>2026-05-02T16:51:06.659Z</time></trkpt><trkpt lat="42.9505079" lon="13.8874794"><ele>2.0</ele><time>2026-05-02T16:51:07.659Z</time></trkpt><trkpt lat="42.9505479" lon="13.8876098"><ele>2.0</ele><time>2026-05-02T16:51:08.659Z</time></trkpt><trkpt lat="42.9505847" lon="13.8877374"><ele>2.0</ele><time>2026-05-02T16:51:09.659Z</time></trkpt><trkpt lat="42.950621" lon="13.8878652"><ele>2.0</ele><time>2026-05-02T16:51:10.66Z</time></trkpt><trkpt lat="42.9506598" lon="13.8879939"><ele>2.0</ele><time>2026-05-02T16:51:11.66Z</time></trkpt><trkpt lat="42.950697" lon="13.8881271"><ele>2.0</ele><time>2026-05-02T16:51:12.66Z</time></trkpt><trkpt lat="42.9507342" lon="13.8882616"><ele>2.0</ele><time>2026-05-02T16:51:13.66Z</time></trkpt><trkpt lat="42.950773" lon="13.888398"><ele>2.0</ele><time>2026-05-02T16:51:14.659Z</time></trkpt><trkpt lat="42.9508111" lon="13.8885312"><ele>2.0</ele><time>2026-05-02T16:51:15.66Z</time></trkpt><trkpt lat="42.950854" lon="13.8886632"><ele>2.0</ele><time>2026-05-02T16:51:16.66Z</time></trkpt><trkpt lat="42.9509055" lon="13.8887831"><ele>2.0</ele><time>2026-05-02T16:51:17.66Z</time></trkpt><trkpt lat="42.9509737" lon="13.8888862"><ele>1.8</ele><time>2026-05-02T16:51:18.66Z</time></trkpt><trkpt lat="42.9510522" lon="13.8889718"><ele>1.6</ele><time>2026-05-02T16:51:19.66Z</time></trkpt><trkpt lat="42.9511414" lon="13.8890404"><ele>1.4000000000000001</ele><time>2026-05-02T16:51:20.659Z</time></trkpt><trkpt lat="42.9512388" lon="13.8890919"><ele>1.2000000000000002</ele><time>2026-05-02T16:51:21.66Z</time></trkpt><trkpt lat="42.9513381" lon="13.8891365"><ele>1.0</ele><time>2026-05-02T16:51:22.659Z</time></trkpt><trkpt lat="42.9514347" lon="13.889178"><ele>1.0</ele><time>2026-05-02T16:51:23.66Z</time></trkpt><trkpt lat="42.9515272" lon="13.8892161"><ele>1.0</ele><time>2026-05-02T16:51:24.659Z</time></trkpt><trkpt lat="42.9516165" lon="13.88924"><ele>1.0</ele><time>2026-05-02T16:51:25.66Z</time></trkpt><trkpt lat="42.9517089" lon="13.8892439"><ele>1.0</ele><time>2026-05-02T16:51:26.66Z</time></trkpt><trkpt lat="42.9517977" lon="13.8892233"><ele>1.0</ele><time>2026-05-02T16:51:27.66Z</time></trkpt><trkpt lat="42.9518848" lon="13.8891748"><ele>1.0</ele><time>2026-05-02T16:51:28.659Z</time></trkpt><trkpt lat="42.9519652" lon="13.8891001"><ele>1.0</ele><time>2026-05-02T16:51:29.661Z</time></trkpt><trkpt lat="42.9520355" lon="13.8890089"><ele>1.0</ele><time>2026-05-02T16:51:30.66Z</time></trkpt><trkpt lat="42.9520821" lon="13.8889006"><ele>1.0</ele><time>2026-05-02T16:51:31.659Z</time></trkpt><trkpt lat="42.9521035" lon="13.8887807"><ele>1.0</ele><time>2026-05-02T16:51:32.66Z</time></trkpt><trkpt lat="42.9521131" lon="13.8886461"><ele>1.0</ele><time>2026-05-02T16:51:33.66Z</time></trkpt><trkpt lat="42.9521229" lon="13.8885118"><ele>1.0</ele><time>2026-05-02T16:51:34.66Z</time></trkpt><trkpt lat="42.9521378" lon="13.8883736"><ele>1.0</ele><time>2026-05-02T16:51:35.66Z</time></trkpt><trkpt lat="42.9521565" lon="13.8882464"><ele>1.0</ele><time>2026-05-02T16:51:36.66Z</time></trkpt><trkpt lat="42.9521788" lon="13.888124"><ele>1.0</ele><time>2026-05-02T16:51:37.66Z</time></trkpt><trkpt lat="42.9521996" lon="13.8880056"><ele>1.0</ele><time>2026-05-02T16:51:38.66Z</time></trkpt><trkpt lat="42.9522169" lon="13.8878947"><ele>0.9999999999999999</ele><time>2026-05-02T16:51:39.66Z</time></trkpt><trkpt lat="42.9522325" lon="13.8877875"><ele>1.0</ele><time>2026-05-02T16:51:40.66Z</time></trkpt><trkpt lat="42.9522472" lon="13.887686"><ele>1.0</ele><time>2026-05-02T16:51:41.66Z</time></trkpt><trkpt lat="42.9522603" lon="13.8875908"><ele>0.9999999999999999</ele><time>2026-05-02T16:51:42.66Z</time></trkpt><trkpt lat="42.9522736" lon="13.8874997"><ele>1.0</ele><time>2026-05-02T16:51:43.66Z</time></trkpt><trkpt lat="42.9522863" lon="13.8874094"><ele>1.0</ele><time>2026-05-02T16:51:44.66Z</time></trkpt><trkpt lat="42.9522998" lon="13.8873161"><ele>1.1666666666666665</ele><time>2026-05-02T16:51:45.66Z</time></trkpt><trkpt lat="42.9523141" lon="13.8872196"><ele>1.3333333333333333</ele><time>2026-05-02T16:51:46.66Z</time></trkpt><trkpt lat="42.9523299" lon="13.8871132"><ele>1.5</ele><time>2026-05-02T16:51:47.66Z</time></trkpt><trkpt lat="42.9523471" lon="13.8870074"><ele>1.6666666666666665</ele><time>2026-05-02T16:51:48.659Z</time></trkpt><trkpt lat="42.9523721" lon="13.8868922"><ele>1.8333333333333333</ele><time>2026-05-02T16:51:49.66Z</time></trkpt><trkpt lat="42.9524074" lon="13.8867911"><ele>2.0</ele><time>2026-05-02T16:51:50.66Z</time></trkpt><trkpt lat="42.9524635" lon="13.8867011"><ele>1.6</ele><time>2026-05-02T16:51:51.66Z</time></trkpt><trkpt lat="42.9525399" lon="13.8866313"><ele>1.2000000000000002</ele><time>2026-05-02T16:51:52.66Z</time></trkpt><trkpt lat="42.9526279" lon="13.886588"><ele>0.8</ele><time>2026-05-02T16:51:53.66Z</time></trkpt><trkpt lat="42.9527215" lon="13.8865607"><ele>0.4</ele><time>2026-05-02T16:51:54.659Z</time></trkpt><trkpt lat="42.9528112" lon="13.8865297"><ele>0.0</ele><time>2026-05-02T16:51:55.66Z</time></trkpt><trkpt lat="42.9528977" lon="13.8864986"><ele>0.0</ele><time>2026-05-02T16:51:56.66Z</time></trkpt><trkpt lat="42.9529828" lon="13.8864681"><ele>0.0</ele><time>2026-05-02T16:51:57.66Z</time></trkpt><trkpt lat="42.9530619" lon="13.8864334"><ele>0.0</ele><time>2026-05-02T16:51:58.66Z</time></trkpt><trkpt lat="42.9531333" lon="13.8863899"><ele>0.0</ele><time>2026-05-02T16:51:59.66Z</time></trkpt><trkpt lat="42.9531961" lon="13.8863365"><ele>0.0</ele><time>2026-05-02T16:52:00.659Z</time></trkpt><trkpt lat="42.953256" lon="13.8862738"><ele>0.0</ele><time>2026-05-02T16:52:01.66Z</time></trkpt><trkpt lat="42.9533037" lon="13.8862"><ele>0.0</ele><time>2026-05-02T16:52:02.659Z</time></trkpt><trkpt lat="42.9533408" lon="13.8861175"><ele>0.0</ele><time>2026-05-02T16:52:03.659Z</time></trkpt><trkpt lat="42.9533665" lon="13.8860254"><ele>0.0</ele><time>2026-05-02T16:52:04.66Z</time></trkpt><trkpt lat="42.9533808" lon="13.8859191"><ele>0.0</ele><time>2026-05-02T16:52:05.66Z</time></trkpt><trkpt lat="42.9533796" lon="13.885806"><ele>0.0</ele><time>2026-05-02T16:52:06.659Z</time></trkpt><trkpt lat="42.9533675" lon="13.8856913"><ele>0.0</ele><time>2026-05-02T16:52:07.66Z</time></trkpt><trkpt lat="42.9533484" lon="13.8855843"><ele>0.0</ele><time>2026-05-02T16:52:08.66Z</time></trkpt><trkpt lat="42.9533236" lon="13.8854937"><ele>0.0</ele><time>2026-05-02T16:52:09.659Z</time></trkpt><trkpt lat="42.9532991" lon="13.8854069"><ele>0.0</ele><time>2026-05-02T16:52:10.66Z</time></trkpt><trkpt lat="42.9533007" lon="13.8852666"><ele>0.0</ele><time>2026-05-02T16:52:12.661Z</time></trkpt><trkpt lat="42.9533982" lon="13.8851671"><ele>0.0</ele><time>2026-05-02T16:52:14.661Z</time></trkpt><trkpt lat="42.9534849" lon="13.8851229"><ele>0.4</ele><time>2026-05-02T16:52:15.661Z</time></trkpt><trkpt lat="42.9535869" lon="13.8850804"><ele>0.8</ele><time>2026-05-02T16:52:16.661Z</time></trkpt><trkpt lat="42.9536893" lon="13.8850383"><ele>1.2000000000000002</ele><time>2026-05-02T16:52:17.661Z</time></trkpt><trkpt lat="42.9538004" lon="13.884988"><ele>1.6</ele><time>2026-05-02T16:52:18.661Z</time></trkpt><trkpt lat="42.9539126" lon="13.8849357"><ele>2.0</ele><time>2026-05-02T16:52:19.661Z</time></trkpt><trkpt lat="42.9540218" lon="13.8848907"><ele>2.0</ele><time>2026-05-02T16:52:20.661Z</time></trkpt><trkpt lat="42.9541279" lon="13.8848477"><ele>2.0</ele><time>2026-05-02T16:52:21.661Z</time></trkpt><trkpt lat="42.9542324" lon="13.8848102"><ele>2.0</ele><time>2026-05-02T16:52:22.661Z</time></trkpt><trkpt lat="42.9543358" lon="13.8847625"><ele>2.0</ele><time>2026-05-02T16:52:23.661Z</time></trkpt><trkpt lat="42.9544421" lon="13.8847026"><ele>2.0</ele><time>2026-05-02T16:52:24.66Z</time></trkpt><trkpt lat="42.9545509" lon="13.8846425"><ele>2.25</ele><time>2026-05-02T16:52:25.661Z</time></trkpt><trkpt lat="42.9546575" lon="13.8845856"><ele>2.5</ele><time>2026-05-02T16:52:26.661Z</time></trkpt><trkpt lat="42.9547618" lon="13.8845307"><ele>2.75</ele><time>2026-05-02T16:52:27.66Z</time></trkpt><trkpt lat="42.9548691" lon="13.88448"><ele>3.0</ele><time>2026-05-02T16:52:28.661Z</time></trkpt><trkpt lat="42.9549746" lon="13.884432"><ele>2.8333333333333335</ele><time>2026-05-02T16:52:29.661Z</time></trkpt><trkpt lat="42.9550741" lon="13.8843835"><ele>2.6666666666666665</ele><time>2026-05-02T16:52:30.661Z</time></trkpt><trkpt lat="42.9551713" lon="13.8843377"><ele>2.5</ele><time>2026-05-02T16:52:31.661Z</time></trkpt><trkpt lat="42.9552584" lon="13.884298"><ele>2.333333333333333</ele><time>2026-05-02T16:52:32.66Z</time></trkpt><trkpt lat="42.9553366" lon="13.8842639"><ele>2.1666666666666665</ele><time>2026-05-02T16:52:33.661Z</time></trkpt><trkpt lat="42.955396" lon="13.8842304"><ele>2.0</ele><time>2026-05-02T16:52:34.661Z</time></trkpt><trkpt lat="42.9554468" lon="13.884141"><ele>2.0</ele><time>2026-05-02T16:52:36.661Z</time></trkpt><trkpt lat="42.9554434" lon="13.8839815"><ele>2.0</ele><time>2026-05-02T16:52:38.661Z</time></trkpt><trkpt lat="42.955408" lon="13.8838752"><ele>2.0</ele><time>2026-05-02T16:52:40.661Z</time></trkpt><trkpt lat="42.9553807" lon="13.8837761"><ele>2.0</ele><time>2026-05-02T16:52:42.661Z</time></trkpt><trkpt lat="42.9553467" lon="13.883632"><ele>2.0</ele><time>2026-05-02T16:52:44.661Z</time></trkpt><trkpt lat="42.9553242" lon="13.8835373"><ele>1.9999999999999998</ele><time>2026-05-02T16:52:45.661Z</time></trkpt><trkpt lat="42.9553019" lon="13.8834377"><ele>2.0</ele><time>2026-05-02T16:52:46.661Z</time></trkpt><trkpt lat="42.9552855" lon="13.8833477"><ele>2.0</ele><time>2026-05-02T16:52:47.66Z</time></trkpt><trkpt lat="42.9552691" lon="13.8832641"><ele>2.0</ele><time>2026-05-02T16:52:48.66Z</time></trkpt><trkpt lat="42.9552696" lon="13.8831512"><ele>1.9999999999999998</ele><time>2026-05-02T16:52:50.661Z</time></trkpt><trkpt lat="42.9553455" lon="13.8830681"><ele>2.0</ele><time>2026-05-02T16:52:52.661Z</time></trkpt><trkpt lat="42.955421" lon="13.8830336"><ele>2.2</ele><time>2026-05-02T16:52:53.66Z</time></trkpt><trkpt lat="42.9555097" lon="13.8829995"><ele>2.4000000000000004</ele><time>2026-05-02T16:52:54.66Z</time></trkpt><trkpt lat="42.9556272" lon="13.8829628"><ele>2.5999999999999996</ele><time>2026-05-02T16:52:55.66Z</time></trkpt><trkpt lat="42.9557259" lon="13.8829394"><ele>2.8</ele><time>2026-05-02T16:52:56.661Z</time></trkpt><trkpt lat="42.955812" lon="13.8829042"><ele>3.0</ele><time>2026-05-02T16:52:57.661Z</time></trkpt><trkpt lat="42.9559006" lon="13.8828671"><ele>3.0</ele><time>2026-05-02T16:52:58.661Z</time></trkpt><trkpt lat="42.955987" lon="13.8828306"><ele>3.0</ele><time>2026-05-02T16:52:59.661Z</time></trkpt><trkpt lat="42.9560694" lon="13.8827986"><ele>3.0</ele><time>2026-05-02T16:53:00.661Z</time></trkpt><trkpt lat="42.9561534" lon="13.8827674"><ele>3.0</ele><time>2026-05-02T16:53:01.661Z</time></trkpt><trkpt lat="42.956238" lon="13.8827349"><ele>3.0</ele><time>2026-05-02T16:53:02.661Z</time></trkpt><trkpt lat="42.9563194" lon="13.8827014"><ele>3.0</ele><time>2026-05-02T16:53:03.661Z</time></trkpt><trkpt lat="42.9563978" lon="13.8826657"><ele>3.0</ele><time>2026-05-02T16:53:04.66Z</time></trkpt><trkpt lat="42.95648" lon="13.8826306"><ele>3.0</ele><time>2026-05-02T16:53:05.66Z</time></trkpt><trkpt lat="42.9565624" lon="13.8825979"><ele>3.0</ele><time>2026-05-02T16:53:06.661Z</time></trkpt><trkpt lat="42.9566435" lon="13.8825686"><ele>3.0</ele><time>2026-05-02T16:53:07.66Z</time></trkpt><trkpt lat="42.9567255" lon="13.8825373"><ele>3.0</ele><time>2026-05-02T16:53:08.661Z</time></trkpt><trkpt lat="42.9568092" lon="13.8825059"><ele>3.0</ele><time>2026-05-02T16:53:09.661Z</time></trkpt><trkpt lat="42.9568936" lon="13.8824737"><ele>3.25</ele><time>2026-05-02T16:53:10.661Z</time></trkpt><trkpt lat="42.9569784" lon="13.8824414"><ele>3.5</ele><time>2026-05-02T16:53:11.661Z</time></trkpt><trkpt lat="42.9570629" lon="13.8824024"><ele>3.75</ele><time>2026-05-02T16:53:12.661Z</time></trkpt><trkpt lat="42.9572394" lon="13.8823295"><ele>4.0</ele><time>2026-05-02T16:53:14.66Z</time></trkpt><trkpt lat="42.9573295" lon="13.8822898"><ele>4.0</ele><time>2026-05-02T16:53:15.661Z</time></trkpt><trkpt lat="42.9574259" lon="13.8822479"><ele>4.0</ele><time>2026-05-02T16:53:16.662Z</time></trkpt><trkpt lat="42.9575303" lon="13.8822011"><ele>4.0</ele><time>2026-05-02T16:53:17.662Z</time></trkpt><trkpt lat="42.9576376" lon="13.8821548"><ele>4.0</ele><time>2026-05-02T16:53:18.661Z</time></trkpt><trkpt lat="42.9577403" lon="13.8821154"><ele>4.0</ele><time>2026-05-02T16:53:19.662Z</time></trkpt><trkpt lat="42.9578329" lon="13.8820817"><ele>4.166666666666666</ele><time>2026-05-02T16:53:20.662Z</time></trkpt><trkpt lat="42.9579148" lon="13.8820469"><ele>4.333333333333333</ele><time>2026-05-02T16:53:21.662Z</time></trkpt><trkpt lat="42.9579856" lon="13.8820099"><ele>4.5</ele><time>2026-05-02T16:53:22.662Z</time></trkpt><trkpt lat="42.9580574" lon="13.8819691"><ele>4.666666666666667</ele><time>2026-05-02T16:53:23.661Z</time></trkpt><trkpt lat="42.958126" lon="13.881932"><ele>4.833333333333334</ele><time>2026-05-02T16:53:24.661Z</time></trkpt><trkpt lat="42.9581977" lon="13.8818937"><ele>5.0</ele><time>2026-05-02T16:53:25.662Z</time></trkpt><trkpt lat="42.9582714" lon="13.8818572"><ele>5.0</ele><time>2026-05-02T16:53:26.661Z</time></trkpt><trkpt lat="42.958349" lon="13.8818208"><ele>5.0</ele><time>2026-05-02T16:53:27.662Z</time></trkpt><trkpt lat="42.9584289" lon="13.8817842"><ele>5.0</ele><time>2026-05-02T16:53:28.662Z</time></trkpt><trkpt lat="42.9585106" lon="13.881753"><ele>5.0</ele><time>2026-05-02T16:53:29.662Z</time></trkpt><trkpt lat="42.9586033" lon="13.8817126"><ele>5.0</ele><time>2026-05-02T16:53:30.662Z</time></trkpt><trkpt lat="42.9586822" lon="13.8816794"><ele>5.0</ele><time>2026-05-02T16:53:31.661Z</time></trkpt><trkpt lat="42.9587635" lon="13.8816507"><ele>4.857142857142857</ele><time>2026-05-02T16:53:32.662Z</time></trkpt><trkpt lat="42.9588464" lon="13.8816214"><ele>4.714285714285714</ele><time>2026-05-02T16:53:33.661Z</time></trkpt><trkpt lat="42.9589275" lon="13.8815955"><ele>4.571428571428571</ele><time>2026-05-02T16:53:34.661Z</time></trkpt><trkpt lat="42.9590003" lon="13.8815722"><ele>4.428571428571429</ele><time>2026-05-02T16:53:35.661Z</time></trkpt><trkpt lat="42.9590637" lon="13.8815493"><ele>4.285714285714286</ele><time>2026-05-02T16:53:36.662Z</time></trkpt><trkpt lat="42.9591273" lon="13.8815232"><ele>4.142857142857142</ele><time>2026-05-02T16:53:37.661Z</time></trkpt><trkpt lat="42.9591932" lon="13.881517"><ele>4.0</ele><time>2026-05-02T16:53:38.662Z</time></trkpt><trkpt lat="42.9592531" lon="13.8815446"><ele>3.9999999999999996</ele><time>2026-05-02T16:53:39.662Z</time></trkpt><trkpt lat="42.9593108" lon="13.8816061"><ele>4.0</ele><time>2026-05-02T16:53:40.662Z</time></trkpt><trkpt lat="42.9593457" lon="13.881695"><ele>4.0</ele><time>2026-05-02T16:53:41.662Z</time></trkpt><trkpt lat="42.9593694" lon="13.8817942"><ele>4.0</ele><time>2026-05-02T16:53:42.662Z</time></trkpt><trkpt lat="42.9593833" lon="13.8818999"><ele>3.9999999999999996</ele><time>2026-05-02T16:53:43.661Z</time></trkpt><trkpt lat="42.9594627" lon="13.8820027"><ele>4.0</ele><time>2026-05-02T16:53:45.662Z</time></trkpt><trkpt lat="42.9595287" lon="13.8820027"><ele>4.0</ele><time>2026-05-02T16:53:46.662Z</time></trkpt><trkpt lat="42.9596071" lon="13.8819687"><ele>4.0</ele><time>2026-05-02T16:53:47.662Z</time></trkpt><trkpt lat="42.9596957" lon="13.8819005"><ele>4.0</ele><time>2026-05-02T16:53:48.662Z</time></trkpt><trkpt lat="42.9597858" lon="13.881838"><ele>4.0</ele><time>2026-05-02T16:53:49.662Z</time></trkpt><trkpt lat="42.9598716" lon="13.8817817"><ele>4.0</ele><time>2026-05-02T16:53:50.662Z</time></trkpt><trkpt lat="42.9599649" lon="13.8817345"><ele>3.6</ele><time>2026-05-02T16:53:51.662Z</time></trkpt><trkpt lat="42.9600614" lon="13.8816909"><ele>3.2</ele><time>2026-05-02T16:53:52.662Z</time></trkpt><trkpt lat="42.9601613" lon="13.8816474"><ele>2.8000000000000003</ele><time>2026-05-02T16:53:53.662Z</time></trkpt><trkpt lat="42.9602637" lon="13.8816033"><ele>2.4000000000000004</ele><time>2026-05-02T16:53:54.662Z</time></trkpt><trkpt lat="42.9603654" lon="13.8815559"><ele>2.0</ele><time>2026-05-02T16:53:55.662Z</time></trkpt><trkpt lat="42.9604637" lon="13.8815107"><ele>2.0</ele><time>2026-05-02T16:53:56.662Z</time></trkpt><trkpt lat="42.9605609" lon="13.881469"><ele>2.0</ele><time>2026-05-02T16:53:57.662Z</time></trkpt><trkpt lat="42.9606534" lon="13.8814283"><ele>2.0</ele><time>2026-05-02T16:53:58.662Z</time></trkpt><trkpt lat="42.9607455" lon="13.8813911"><ele>2.0</ele><time>2026-05-02T16:53:59.662Z</time></trkpt><trkpt lat="42.9608326" lon="13.8813579"><ele>2.0</ele><time>2026-05-02T16:54:00.662Z</time></trkpt><trkpt lat="42.9609163" lon="13.8813292"><ele>1.857142857142857</ele><time>2026-05-02T16:54:01.662Z</time></trkpt><trkpt lat="42.9609947" lon="13.8813032"><ele>1.714285714285714</ele><time>2026-05-02T16:54:02.662Z</time></trkpt><trkpt lat="42.9610704" lon="13.8812796"><ele>1.5714285714285714</ele><time>2026-05-02T16:54:03.661Z</time></trkpt><trkpt lat="42.9611436" lon="13.8812569"><ele>1.4285714285714284</ele><time>2026-05-02T16:54:04.662Z</time></trkpt><trkpt lat="42.9612173" lon="13.8812329"><ele>1.2857142857142856</ele><time>2026-05-02T16:54:05.661Z</time></trkpt><trkpt lat="42.961288" lon="13.8812079"><ele>1.1428571428571428</ele><time>2026-05-02T16:54:06.662Z</time></trkpt><trkpt lat="42.9613481" lon="13.8811743"><ele>1.0</ele><time>2026-05-02T16:54:07.662Z</time></trkpt><trkpt lat="42.9613975" lon="13.8811186"><ele>0.9999999999999999</ele><time>2026-05-02T16:54:08.662Z</time></trkpt><trkpt lat="42.9614364" lon="13.8810445"><ele>1.0</ele><time>2026-05-02T16:54:09.662Z</time></trkpt><trkpt lat="42.96147" lon="13.8809579"><ele>1.0</ele><time>2026-05-02T16:54:10.662Z</time></trkpt><trkpt lat="42.9615073" lon="13.8808711"><ele>1.0</ele><time>2026-05-02T16:54:11.662Z</time></trkpt><trkpt lat="42.9615558" lon="13.8807848"><ele>0.9999999999999999</ele><time>2026-05-02T16:54:12.662Z</time></trkpt><trkpt lat="42.9616247" lon="13.8807055"><ele>1.0</ele><time>2026-05-02T16:54:13.662Z</time></trkpt><trkpt lat="42.9617043" lon="13.8806434"><ele>1.2000000000000002</ele><time>2026-05-02T16:54:14.661Z</time></trkpt><trkpt lat="42.9617873" lon="13.8805967"><ele>1.4000000000000001</ele><time>2026-05-02T16:54:15.661Z</time></trkpt><trkpt lat="42.9618742" lon="13.8805614"><ele>1.6</ele><time>2026-05-02T16:54:16.662Z</time></trkpt><trkpt lat="42.9619677" lon="13.8805357"><ele>1.8</ele><time>2026-05-02T16:54:17.662Z</time></trkpt><trkpt lat="42.9620723" lon="13.8805176"><ele>2.0</ele><time>2026-05-02T16:54:18.662Z</time></trkpt><trkpt lat="42.9621742" lon="13.8804962"><ele>2.0</ele><time>2026-05-02T16:54:19.662Z</time></trkpt><trkpt lat="42.9622798" lon="13.8804735"><ele>2.0</ele><time>2026-05-02T16:54:20.662Z</time></trkpt><trkpt lat="42.9623836" lon="13.880448"><ele>2.0</ele><time>2026-05-02T16:54:21.662Z</time></trkpt><trkpt lat="42.9624814" lon="13.8804111"><ele>2.0</ele><time>2026-05-02T16:54:22.663Z</time></trkpt><trkpt lat="42.9625748" lon="13.8803696"><ele>2.0</ele><time>2026-05-02T16:54:23.663Z</time></trkpt><trkpt lat="42.9626667" lon="13.8803365"><ele>1.8333333333333333</ele><time>2026-05-02T16:54:24.663Z</time></trkpt><trkpt lat="42.9627617" lon="13.880319"><ele>1.6666666666666665</ele><time>2026-05-02T16:54:25.663Z</time></trkpt><trkpt lat="42.9628536" lon="13.8803029"><ele>1.5</ele><time>2026-05-02T16:54:26.663Z</time></trkpt><trkpt lat="42.9629394" lon="13.8802899"><ele>1.3333333333333333</ele><time>2026-05-02T16:54:27.663Z</time></trkpt><trkpt lat="42.9630238" lon="13.8802758"><ele>1.1666666666666665</ele><time>2026-05-02T16:54:28.663Z</time></trkpt><trkpt lat="42.9631106" lon="13.8802559"><ele>1.0</ele><time>2026-05-02T16:54:29.663Z</time></trkpt><trkpt lat="42.9631924" lon="13.8802403"><ele>1.0</ele><time>2026-05-02T16:54:30.663Z</time></trkpt><trkpt lat="42.9632693" lon="13.8802263"><ele>0.9999999999999999</ele><time>2026-05-02T16:54:31.662Z</time></trkpt><trkpt lat="42.9633425" lon="13.8802146"><ele>1.0</ele><time>2026-05-02T16:54:32.663Z</time></trkpt><trkpt lat="42.9634183" lon="13.8801987"><ele>1.0</ele><time>2026-05-02T16:54:33.663Z</time></trkpt><trkpt lat="42.9634864" lon="13.8801869"><ele>0.9999999999999999</ele><time>2026-05-02T16:54:34.662Z</time></trkpt><trkpt lat="42.9635573" lon="13.8801739"><ele>1.0</ele><time>2026-05-02T16:54:35.663Z</time></trkpt><trkpt lat="42.9636307" lon="13.8801544"><ele>1.0</ele><time>2026-05-02T16:54:36.662Z</time></trkpt><trkpt lat="42.9637062" lon="13.8801335"><ele>0.9999999999999999</ele><time>2026-05-02T16:54:37.663Z</time></trkpt><trkpt lat="42.9637878" lon="13.8801051"><ele>1.0</ele><time>2026-05-02T16:54:38.663Z</time></trkpt><trkpt lat="42.9638728" lon="13.8800814"><ele>1.0</ele><time>2026-05-02T16:54:39.663Z</time></trkpt><trkpt lat="42.9639613" lon="13.8800565"><ele>1.0</ele><time>2026-05-02T16:54:40.663Z</time></trkpt><trkpt lat="42.9640507" lon="13.8800323"><ele>0.9999999999999999</ele><time>2026-05-02T16:54:41.663Z</time></trkpt><trkpt lat="42.9641371" lon="13.8800064"><ele>1.0</ele><time>2026-05-02T16:54:42.663Z</time></trkpt><trkpt lat="42.964228" lon="13.8799834"><ele>1.0</ele><time>2026-05-02T16:54:43.663Z</time></trkpt><trkpt lat="42.9643214" lon="13.8799575"><ele>1.0</ele><time>2026-05-02T16:54:44.663Z</time></trkpt><trkpt lat="42.9644154" lon="13.8799298"><ele>1.0</ele><time>2026-05-02T16:54:45.663Z</time></trkpt><trkpt lat="42.964511" lon="13.879902"><ele>1.0</ele><time>2026-05-02T16:54:46.663Z</time></trkpt><trkpt lat="42.9646073" lon="13.879873"><ele>1.0</ele><time>2026-05-02T16:54:47.662Z</time></trkpt><trkpt lat="42.9647063" lon="13.8798416"><ele>1.0</ele><time>2026-05-02T16:54:48.663Z</time></trkpt><trkpt lat="42.9648073" lon="13.8798099"><ele>1.0</ele><time>2026-05-02T16:54:49.663Z</time></trkpt><trkpt lat="42.964909" lon="13.8797783"><ele>1.0</ele><time>2026-05-02T16:54:50.663Z</time></trkpt><trkpt lat="42.9650077" lon="13.8797461"><ele>1.0</ele><time>2026-05-02T16:54:51.663Z</time></trkpt><trkpt lat="42.9651068" lon="13.8797148"><ele>1.0</ele><time>2026-05-02T16:54:52.663Z</time></trkpt><trkpt lat="42.9652085" lon="13.8796849"><ele>0.8</ele><time>2026-05-02T16:54:53.663Z</time></trkpt><trkpt lat="42.9653107" lon="13.8796538"><ele>0.6000000000000001</ele><time>2026-05-02T16:54:54.663Z</time></trkpt><trkpt lat="42.9654112" lon="13.8796193"><ele>0.4</ele><time>2026-05-02T16:54:55.663Z</time></trkpt><trkpt lat="42.965512" lon="13.8795859"><ele>0.2</ele><time>2026-05-02T16:54:56.663Z</time></trkpt><trkpt lat="42.9656162" lon="13.8795521"><ele>0.0</ele><time>2026-05-02T16:54:57.663Z</time></trkpt><trkpt lat="42.9657203" lon="13.8795189"><ele>0.0</ele><time>2026-05-02T16:54:58.663Z</time></trkpt><trkpt lat="42.9658256" lon="13.8794856"><ele>0.0</ele><time>2026-05-02T16:54:59.662Z</time></trkpt><trkpt lat="42.9659362" lon="13.8794499"><ele>0.0</ele><time>2026-05-02T16:55:00.663Z</time></trkpt><trkpt lat="42.9660466" lon="13.8794103"><ele>0.0</ele><time>2026-05-02T16:55:01.663Z</time></trkpt><trkpt lat="42.9661591" lon="13.8793707"><ele>0.0</ele><time>2026-05-02T16:55:02.663Z</time></trkpt><trkpt lat="42.9662729" lon="13.8793301"><ele>0.0</ele><time>2026-05-02T16:55:03.663Z</time></trkpt><trkpt lat="42.9663867" lon="13.879291"><ele>0.0</ele><time>2026-05-02T16:55:04.663Z</time></trkpt><trkpt lat="42.9664975" lon="13.8792524"><ele>0.0</ele><time>2026-05-02T16:55:05.663Z</time></trkpt><trkpt lat="42.9666098" lon="13.8792172"><ele>0.4</ele><time>2026-05-02T16:55:06.663Z</time></trkpt><trkpt lat="42.9667208" lon="13.8791828"><ele>0.8</ele><time>2026-05-02T16:55:07.663Z</time></trkpt><trkpt lat="42.9668307" lon="13.8791483"><ele>1.2000000000000002</ele><time>2026-05-02T16:55:08.663Z</time></trkpt><trkpt lat="42.9669384" lon="13.8791108"><ele>1.6</ele><time>2026-05-02T16:55:09.663Z</time></trkpt><trkpt lat="42.9670454" lon="13.8790716"><ele>2.0</ele><time>2026-05-02T16:55:10.662Z</time></trkpt><trkpt lat="42.9671552" lon="13.879035"><ele>2.0</ele><time>2026-05-02T16:55:11.663Z</time></trkpt><trkpt lat="42.9672646" lon="13.878996"><ele>2.0</ele><time>2026-05-02T16:55:12.663Z</time></trkpt><trkpt lat="42.9673755" lon="13.8789575"><ele>2.0</ele><time>2026-05-02T16:55:13.663Z</time></trkpt><trkpt lat="42.9674868" lon="13.8789231"><ele>2.0</ele><time>2026-05-02T16:55:14.663Z</time></trkpt><trkpt lat="42.9675952" lon="13.8788882"><ele>1.6</ele><time>2026-05-02T16:55:15.663Z</time></trkpt><trkpt lat="42.9677009" lon="13.8788541"><ele>1.2000000000000002</ele><time>2026-05-02T16:55:16.663Z</time></trkpt><trkpt lat="42.967805" lon="13.8788213"><ele>0.8</ele><time>2026-05-02T16:55:17.662Z</time></trkpt><trkpt lat="42.9679083" lon="13.8787895"><ele>0.4</ele><time>2026-05-02T16:55:18.663Z</time></trkpt><trkpt lat="42.9680076" lon="13.8787566"><ele>0.0</ele><time>2026-05-02T16:55:19.663Z</time></trkpt><trkpt lat="42.9681029" lon="13.8787252"><ele>0.0</ele><time>2026-05-02T16:55:20.664Z</time></trkpt><trkpt lat="42.9681998" lon="13.8786979"><ele>0.0</ele><time>2026-05-02T16:55:21.664Z</time></trkpt><trkpt lat="42.9682965" lon="13.8786686"><ele>0.0</ele><time>2026-05-02T16:55:22.662Z</time></trkpt><trkpt lat="42.9684033" lon="13.8786331"><ele>0.0</ele><time>2026-05-02T16:55:23.663Z</time></trkpt><trkpt lat="42.9685158" lon="13.878597"><ele>0.0</ele><time>2026-05-02T16:55:24.663Z</time></trkpt><trkpt lat="42.9686281" lon="13.8785645"><ele>0.0</ele><time>2026-05-02T16:55:25.663Z</time></trkpt><trkpt lat="42.9687395" lon="13.8785297"><ele>0.0</ele><time>2026-05-02T16:55:26.664Z</time></trkpt><trkpt lat="42.9688532" lon="13.8784944"><ele>0.0</ele><time>2026-05-02T16:55:27.664Z</time></trkpt><trkpt lat="42.9689666" lon="13.8784607"><ele>0.0</ele><time>2026-05-02T16:55:28.663Z</time></trkpt><trkpt lat="42.9690797" lon="13.8784269"><ele>0.25</ele><time>2026-05-02T16:55:29.663Z</time></trkpt><trkpt lat="42.9691943" lon="13.8783938"><ele>0.5</ele><time>2026-05-02T16:55:30.664Z</time></trkpt><trkpt lat="42.969307" lon="13.8783612"><ele>0.75</ele><time>2026-05-02T16:55:31.663Z</time></trkpt><trkpt lat="42.9694156" lon="13.8783279"><ele>1.0</ele><time>2026-05-02T16:55:32.664Z</time></trkpt><trkpt lat="42.9695304" lon="13.8782922"><ele>1.0</ele><time>2026-05-02T16:55:33.664Z</time></trkpt><trkpt lat="42.969648" lon="13.8782549"><ele>1.0</ele><time>2026-05-02T16:55:34.664Z</time></trkpt><trkpt lat="42.9697712" lon="13.8782179"><ele>1.0</ele><time>2026-05-02T16:55:35.664Z</time></trkpt><trkpt lat="42.969888" lon="13.8781819"><ele>1.0</ele><time>2026-05-02T16:55:36.664Z</time></trkpt><trkpt lat="42.9699992" lon="13.8781488"><ele>1.0</ele><time>2026-05-02T16:55:37.664Z</time></trkpt><trkpt lat="42.9701042" lon="13.8781182"><ele>1.0</ele><time>2026-05-02T16:55:38.664Z</time></trkpt><trkpt lat="42.9702066" lon="13.8780886"><ele>1.0</ele><time>2026-05-02T16:55:39.664Z</time></trkpt><trkpt lat="42.9703094" lon="13.8780578"><ele>1.0</ele><time>2026-05-02T16:55:40.664Z</time></trkpt><trkpt lat="42.9704117" lon="13.8780255"><ele>1.0</ele><time>2026-05-02T16:55:41.663Z</time></trkpt><trkpt lat="42.9705196" lon="13.877989"><ele>0.9999999999999999</ele><time>2026-05-02T16:55:42.664Z</time></trkpt><trkpt lat="42.9706197" lon="13.8779549"><ele>1.0</ele><time>2026-05-02T16:55:43.664Z</time></trkpt><trkpt lat="42.9707122" lon="13.8779284"><ele>1.0</ele><time>2026-05-02T16:55:44.663Z</time></trkpt><trkpt lat="42.9707872" lon="13.8779118"><ele>1.0</ele><time>2026-05-02T16:55:45.663Z</time></trkpt><trkpt lat="42.9708825" lon="13.8778889"><ele>0.9999999999999999</ele><time>2026-05-02T16:55:47.664Z</time></trkpt><trkpt lat="42.9709461" lon="13.8778625"><ele>1.0</ele><time>2026-05-02T16:55:51.664Z</time></trkpt><trkpt lat="42.9710492" lon="13.8778355"><ele>0.9999999999999999</ele><time>2026-05-02T16:56:03.664Z</time></trkpt><trkpt lat="42.9711103" lon="13.8778145"><ele>1.0</ele><time>2026-05-02T16:56:04.664Z</time></trkpt><trkpt lat="42.9712082" lon="13.8777517"><ele>1.0</ele><time>2026-05-02T16:56:06.664Z</time></trkpt><trkpt lat="42.9712265" lon="13.8776278"><ele>1.0</ele><time>2026-05-02T16:56:08.664Z</time></trkpt><trkpt lat="42.9712063" lon="13.8775283"><ele>0.9999999999999999</ele><time>2026-05-02T16:56:09.664Z</time></trkpt><trkpt lat="42.9711796" lon="13.8774044"><ele>1.0</ele><time>2026-05-02T16:56:10.663Z</time></trkpt><trkpt lat="42.9711529" lon="13.8772719"><ele>1.0</ele><time>2026-05-02T16:56:11.664Z</time></trkpt><trkpt lat="42.9711307" lon="13.8771411"><ele>1.0</ele><time>2026-05-02T16:56:12.664Z</time></trkpt><trkpt lat="42.971108" lon="13.8770119"><ele>1.0</ele><time>2026-05-02T16:56:13.664Z</time></trkpt><trkpt lat="42.9710779" lon="13.8768765"><ele>1.0</ele><time>2026-05-02T16:56:14.664Z</time></trkpt><trkpt lat="42.9710494" lon="13.8767457"><ele>1.0</ele><time>2026-05-02T16:56:15.663Z</time></trkpt><trkpt lat="42.971026" lon="13.876607"><ele>1.25</ele><time>2026-05-02T16:56:16.664Z</time></trkpt><trkpt lat="42.9710037" lon="13.8764622"><ele>1.5</ele><time>2026-05-02T16:56:17.663Z</time></trkpt><trkpt lat="42.9709821" lon="13.8763093"><ele>1.75</ele><time>2026-05-02T16:56:18.664Z</time></trkpt><trkpt lat="42.9709578" lon="13.8761461"><ele>2.0</ele><time>2026-05-02T16:56:19.664Z</time></trkpt><trkpt lat="42.9709356" lon="13.8759779"><ele>2.2</ele><time>2026-05-02T16:56:20.664Z</time></trkpt><trkpt lat="42.9709092" lon="13.8758122"><ele>2.4000000000000004</ele><time>2026-05-02T16:56:21.663Z</time></trkpt><trkpt lat="42.9708936" lon="13.8756591"><ele>2.5999999999999996</ele><time>2026-05-02T16:56:22.664Z</time></trkpt><trkpt lat="42.9708926" lon="13.8755214"><ele>2.8</ele><time>2026-05-02T16:56:23.664Z</time></trkpt><trkpt lat="42.9709011" lon="13.8754039"><ele>3.0</ele><time>2026-05-02T16:56:24.664Z</time></trkpt><trkpt lat="42.9709173" lon="13.8752967"><ele>3.0</ele><time>2026-05-02T16:56:25.664Z</time></trkpt><trkpt lat="42.9709348" lon="13.8751885"><ele>3.0</ele><time>2026-05-02T16:56:26.665Z</time></trkpt><trkpt lat="42.9709438" lon="13.8750684"><ele>3.0</ele><time>2026-05-02T16:56:27.664Z</time></trkpt><trkpt lat="42.9709494" lon="13.8749444"><ele>3.0</ele><time>2026-05-02T16:56:28.664Z</time></trkpt><trkpt lat="42.9709548" lon="13.8748299"><ele>3.0</ele><time>2026-05-02T16:56:29.663Z</time></trkpt><trkpt lat="42.9709603" lon="13.874721"><ele>3.0</ele><time>2026-05-02T16:56:30.664Z</time></trkpt><trkpt lat="42.9709603" lon="13.8746261"><ele>3.0</ele><time>2026-05-02T16:56:31.665Z</time></trkpt><trkpt lat="42.9709208" lon="13.874475"><ele>3.0</ele><time>2026-05-02T16:56:33.665Z</time></trkpt><trkpt lat="42.9708583" lon="13.874433"><ele>3.0</ele><time>2026-05-02T16:56:34.665Z</time></trkpt><trkpt lat="42.9707668" lon="13.8744171"><ele>3.0</ele><time>2026-05-02T16:56:35.665Z</time></trkpt><trkpt lat="42.9706665" lon="13.8744188"><ele>3.0</ele><time>2026-05-02T16:56:36.665Z</time></trkpt><trkpt lat="42.9705614" lon="13.8744444"><ele>3.0</ele><time>2026-05-02T16:56:37.665Z</time></trkpt><trkpt lat="42.9704753" lon="13.8744608"><ele>3.0</ele><time>2026-05-02T16:56:38.665Z</time></trkpt><trkpt lat="42.9703885" lon="13.8744715"><ele>3.0</ele><time>2026-05-02T16:56:39.664Z</time></trkpt><trkpt lat="42.9703049" lon="13.8744853"><ele>3.0</ele><time>2026-05-02T16:56:40.665Z</time></trkpt><trkpt lat="42.9702263" lon="13.8745199"><ele>3.0</ele><time>2026-05-02T16:56:41.665Z</time></trkpt><trkpt lat="42.9701532" lon="13.8745766"><ele>3.0</ele><time>2026-05-02T16:56:42.665Z</time></trkpt><trkpt lat="42.970088" lon="13.8746716"><ele>3.0</ele><time>2026-05-02T16:56:43.664Z</time></trkpt><trkpt lat="42.9700484" lon="13.8747983"><ele>3.0</ele><time>2026-05-02T16:56:44.665Z</time></trkpt><trkpt lat="42.9700242" lon="13.8749336"><ele>3.0</ele><time>2026-05-02T16:56:45.665Z</time></trkpt><trkpt lat="42.9700307" lon="13.8750867"><ele>3.0</ele><time>2026-05-02T16:56:46.665Z</time></trkpt><trkpt lat="42.9700469" lon="13.8752502"><ele>3.0</ele><time>2026-05-02T16:56:47.665Z</time></trkpt><trkpt lat="42.9700648" lon="13.8754138"><ele>3.0</ele><time>2026-05-02T16:56:48.665Z</time></trkpt><trkpt lat="42.9700833" lon="13.8755688"><ele>3.0</ele><time>2026-05-02T16:56:49.665Z</time></trkpt><trkpt lat="42.970091" lon="13.8756978"><ele>3.0</ele><time>2026-05-02T16:56:50.665Z</time></trkpt><trkpt lat="42.970093" lon="13.8758291"><ele>3.0</ele><time>2026-05-02T16:56:51.664Z</time></trkpt><trkpt lat="42.9700839" lon="13.8759631"><ele>3.0</ele><time>2026-05-02T16:56:52.665Z</time></trkpt><trkpt lat="42.9700561" lon="13.8760758"><ele>3.0</ele><time>2026-05-02T16:56:53.664Z</time></trkpt><trkpt lat="42.970008" lon="13.876176"><ele>3.0</ele><time>2026-05-02T16:56:54.665Z</time></trkpt><trkpt lat="42.9699404" lon="13.8762671"><ele>3.0</ele><time>2026-05-02T16:56:55.665Z</time></trkpt><trkpt lat="42.9698537" lon="13.8763315"><ele>3.0</ele><time>2026-05-02T16:56:56.664Z</time></trkpt><trkpt lat="42.9697634" lon="13.8763763"><ele>3.0</ele><time>2026-05-02T16:56:57.665Z</time></trkpt><trkpt lat="42.9696471" lon="13.8764162"><ele>3.0</ele><time>2026-05-02T16:56:58.665Z</time></trkpt><trkpt lat="42.9695294" lon="13.8764501"><ele>3.0</ele><time>2026-05-02T16:56:59.664Z</time></trkpt><trkpt lat="42.9694107" lon="13.8764848"><ele>3.0</ele><time>2026-05-02T16:57:00.664Z</time></trkpt><trkpt lat="42.9692862" lon="13.8765178"><ele>3.0</ele><time>2026-05-02T16:57:01.665Z</time></trkpt><trkpt lat="42.9691699" lon="13.8765529"><ele>3.2</ele><time>2026-05-02T16:57:02.664Z</time></trkpt><trkpt lat="42.9690603" lon="13.876576"><ele>3.4</ele><time>2026-05-02T16:57:03.665Z</time></trkpt><trkpt lat="42.9689603" lon="13.8765845"><ele>3.6000000000000005</ele><time>2026-05-02T16:57:04.665Z</time></trkpt><trkpt lat="42.9688662" lon="13.8765571"><ele>3.8000000000000003</ele><time>2026-05-02T16:57:05.664Z</time></trkpt><trkpt lat="42.9687828" lon="13.8765034"><ele>4.0</ele><time>2026-05-02T16:57:06.664Z</time></trkpt><trkpt lat="42.9686947" lon="13.8764299"><ele>4.0</ele><time>2026-05-02T16:57:07.665Z</time></trkpt><trkpt lat="42.9686102" lon="13.8763073"><ele>4.0</ele><time>2026-05-02T16:57:08.665Z</time></trkpt><trkpt lat="42.9685178" lon="13.8761949"><ele>4.0</ele><time>2026-05-02T16:57:09.664Z</time></trkpt><trkpt lat="42.9684305" lon="13.8761042"><ele>4.0</ele><time>2026-05-02T16:57:10.664Z</time></trkpt><trkpt lat="42.9683385" lon="13.8760633"><ele>4.0</ele><time>2026-05-02T16:57:11.665Z</time></trkpt><trkpt lat="42.9682453" lon="13.8760649"><ele>4.0</ele><time>2026-05-02T16:57:12.664Z</time></trkpt><trkpt lat="42.9681382" lon="13.8761009"><ele>4.0</ele><time>2026-05-02T16:57:13.665Z</time></trkpt><trkpt lat="42.9680269" lon="13.8761573"><ele>4.0</ele><time>2026-05-02T16:57:14.665Z</time></trkpt><trkpt lat="42.9679185" lon="13.8762145"><ele>4.0</ele><time>2026-05-02T16:57:15.665Z</time></trkpt><trkpt lat="42.9678035" lon="13.8762604"><ele>4.0</ele><time>2026-05-02T16:57:16.665Z</time></trkpt><trkpt lat="42.9676911" lon="13.8763017"><ele>4.0</ele><time>2026-05-02T16:57:17.665Z</time></trkpt><trkpt lat="42.967583" lon="13.8763412"><ele>4.0</ele><time>2026-05-02T16:57:18.665Z</time></trkpt><trkpt lat="42.967477" lon="13.8763785"><ele>4.0</ele><time>2026-05-02T16:57:19.665Z</time></trkpt><trkpt lat="42.967383" lon="13.8764112"><ele>4.0</ele><time>2026-05-02T16:57:20.665Z</time></trkpt><trkpt lat="42.9672956" lon="13.8764378"><ele>4.166666666666666</ele><time>2026-05-02T16:57:21.664Z</time></trkpt><trkpt lat="42.9672186" lon="13.8764619"><ele>4.333333333333333</ele><time>2026-05-02T16:57:22.666Z</time></trkpt><trkpt lat="42.9671476" lon="13.8764811"><ele>4.5</ele><time>2026-05-02T16:57:23.665Z</time></trkpt><trkpt lat="42.9670837" lon="13.8765021"><ele>4.666666666666667</ele><time>2026-05-02T16:57:24.665Z</time></trkpt><trkpt lat="42.9669713" lon="13.8765485"><ele>4.833333333333334</ele><time>2026-05-02T16:57:26.665Z</time></trkpt><trkpt lat="42.9668847" lon="13.876593"><ele>5.0</ele><time>2026-05-02T16:57:28.665Z</time></trkpt><trkpt lat="42.9668425" lon="13.8766707"><ele>5.0</ele><time>2026-05-02T16:57:30.665Z</time></trkpt><trkpt lat="42.9667782" lon="13.8767015"><ele>5.0</ele><time>2026-05-02T16:58:57.667Z</time></trkpt><trkpt lat="42.966792" lon="13.8767936"><ele>5.0</ele><time>2026-05-02T16:59:07.667Z</time></trkpt><trkpt lat="42.9667876" lon="13.8768906"><ele>5.0</ele><time>2026-05-02T16:59:12.667Z</time></trkpt><trkpt lat="42.9667896" lon="13.8769849"><ele>5.0</ele><time>2026-05-02T16:59:19.736Z</time></trkpt><trkpt lat="42.9667968" lon="13.8770809"><ele>5.0</ele><time>2026-05-02T16:59:25.684Z</time></trkpt><trkpt lat="42.9668206" lon="13.8771694"><ele>5.0</ele><time>2026-05-02T16:59:32.746Z</time></trkpt><trkpt lat="42.9668918" lon="13.8771512"><ele>5.0</ele><time>2026-05-02T16:59:37.813Z</time></trkpt><trkpt lat="42.9669674" lon="13.8771236"><ele>5.0</ele><time>2026-05-02T16:59:43.87Z</time></trkpt><trkpt lat="42.967039" lon="13.8771208"><ele>5.0</ele><time>2026-05-02T16:59:48.468Z</time></trkpt><trkpt lat="42.9671017" lon="13.8771076"><ele>5.0</ele><time>2026-05-02T16:59:53.748Z</time></trkpt><trkpt lat="42.9671645" lon="13.8770824"><ele>5.0</ele><time>2026-05-02T16:59:58.844Z</time></trkpt><trkpt lat="42.9672277" lon="13.8770722"><ele>5.0</ele><time>2026-05-02T17:00:04.464Z</time></trkpt><trkpt lat="42.9672948" lon="13.8770371"><ele>5.0</ele><time>2026-05-02T17:00:10.762Z</time></trkpt><trkpt lat="42.9672496" lon="13.8769752"><ele>5.0</ele><time>2026-05-02T17:00:21.784Z</time></trkpt></trkseg></trk></gpx>